<?xml version="1.0" encoding="UTF-8" ?>
<gpx version="1.1" creator="TomTom" xmlns="http://www.topografix.com/GPX/1/1" xmlns:xsi="http://www.w3.org/2001/XMLSchema-instance" xsi:schemaLocation="http://www.topografix.com/GPX/1/1 http://www.topografix.com/GPX/1/1/gpx.xsd">
    <trk>
        <name>14 Juni 17:50</name>
        <trkseg>
            <trkpt lat="54.949910" lon="-7.713990">
                <time>2019-06-14T07:53:09Z</time>
            </trkpt>
            <trkpt lat="54.949910" lon="-7.713990">
                <time>2019-06-14T07:53:10Z</time>
            </trkpt>
            <trkpt lat="54.949910" lon="-7.713990">
                <time>2019-06-14T07:53:11Z</time>
            </trkpt>
            <trkpt lat="54.949910" lon="-7.713990">
                <time>2019-06-14T07:53:12Z</time>
            </trkpt>
            <trkpt lat="54.949910" lon="-7.713990">
                <time>2019-06-14T07:53:13Z</time>
            </trkpt>
            <trkpt lat="54.949910" lon="-7.713990">
                <time>2019-06-14T07:53:14Z</time>
            </trkpt>
            <trkpt lat="54.949910" lon="-7.713990">
                <time>2019-06-14T07:53:15Z</time>
            </trkpt>
            <trkpt lat="54.949910" lon="-7.713990">
                <time>2019-06-14T07:53:16Z</time>
            </trkpt>
            <trkpt lat="54.949910" lon="-7.713990">
                <time>2019-06-14T07:53:17Z</time>
            </trkpt>
            <trkpt lat="54.949910" lon="-7.713990">
                <time>2019-06-14T07:53:18Z</time>
            </trkpt>
            <trkpt lat="54.949910" lon="-7.713990">
                <time>2019-06-14T07:53:19Z</time>
            </trkpt>
            <trkpt lat="54.949910" lon="-7.713990">
                <time>2019-06-14T07:53:20Z</time>
            </trkpt>
            <trkpt lat="54.949910" lon="-7.713990">
                <time>2019-06-14T07:53:21Z</time>
            </trkpt>
            <trkpt lat="54.949910" lon="-7.713990">
                <time>2019-06-14T07:53:22Z</time>
            </trkpt>
            <trkpt lat="54.949910" lon="-7.713990">
                <time>2019-06-14T07:53:23Z</time>
            </trkpt>
            <trkpt lat="54.949910" lon="-7.713990">
                <time>2019-06-14T07:53:24Z</time>
            </trkpt>
            <trkpt lat="54.949910" lon="-7.713990">
                <time>2019-06-14T07:53:25Z</time>
            </trkpt>
            <trkpt lat="54.949910" lon="-7.713990">
                <time>2019-06-14T07:53:26Z</time>
            </trkpt>
            <trkpt lat="54.949910" lon="-7.713990">
                <time>2019-06-14T07:53:27Z</time>
            </trkpt>
            <trkpt lat="54.949910" lon="-7.713990">
                <time>2019-06-14T07:53:28Z</time>
            </trkpt>
            <trkpt lat="54.949910" lon="-7.713990">
                <time>2019-06-14T07:53:29Z</time>
            </trkpt>
            <trkpt lat="54.949910" lon="-7.713990">
                <time>2019-06-14T07:53:30Z</time>
            </trkpt>
            <trkpt lat="54.949910" lon="-7.713990">
                <time>2019-06-14T07:53:31Z</time>
            </trkpt>
            <trkpt lat="54.949910" lon="-7.713990">
                <time>2019-06-14T07:53:32Z</time>
            </trkpt>
            <trkpt lat="54.949910" lon="-7.713990">
                <time>2019-06-14T07:53:33Z</time>
            </trkpt>
            <trkpt lat="54.949910" lon="-7.713990">
                <time>2019-06-14T07:53:34Z</time>
            </trkpt>
            <trkpt lat="54.949910" lon="-7.713990">
                <time>2019-06-14T07:53:35Z</time>
            </trkpt>
            <trkpt lat="54.949910" lon="-7.713990">
                <time>2019-06-14T07:53:36Z</time>
            </trkpt>
            <trkpt lat="54.949910" lon="-7.713990">
                <time>2019-06-14T07:53:37Z</time>
            </trkpt>
            <trkpt lat="54.949910" lon="-7.713990">
                <time>2019-06-14T07:53:38Z</time>
            </trkpt>
            <trkpt lat="54.949910" lon="-7.713990">
                <time>2019-06-14T07:53:39Z</time>
            </trkpt>
            <trkpt lat="54.949910" lon="-7.713990">
                <time>2019-06-14T07:53:40Z</time>
            </trkpt>
            <trkpt lat="54.949910" lon="-7.713990">
                <time>2019-06-14T07:53:41Z</time>
            </trkpt>
            <trkpt lat="54.949910" lon="-7.713990">
                <time>2019-06-14T07:53:42Z</time>
            </trkpt>
            <trkpt lat="54.949910" lon="-7.713990">
                <time>2019-06-14T07:53:43Z</time>
            </trkpt>
            <trkpt lat="54.949910" lon="-7.713990">
                <time>2019-06-14T07:53:44Z</time>
            </trkpt>
            <trkpt lat="54.949910" lon="-7.713990">
                <time>2019-06-14T07:53:45Z</time>
            </trkpt>
            <trkpt lat="54.949910" lon="-7.713990">
                <time>2019-06-14T07:53:46Z</time>
            </trkpt>
            <trkpt lat="54.949910" lon="-7.713990">
                <time>2019-06-14T07:53:47Z</time>
            </trkpt>
            <trkpt lat="54.949910" lon="-7.713990">
                <time>2019-06-14T07:53:48Z</time>
            </trkpt>
            <trkpt lat="54.949910" lon="-7.713990">
                <time>2019-06-14T07:53:49Z</time>
            </trkpt>
            <trkpt lat="54.949910" lon="-7.713990">
                <time>2019-06-14T07:53:50Z</time>
            </trkpt>
            <trkpt lat="54.949910" lon="-7.713990">
                <time>2019-06-14T07:53:51Z</time>
            </trkpt>
            <trkpt lat="54.949910" lon="-7.713990">
                <time>2019-06-14T07:53:52Z</time>
            </trkpt>
            <trkpt lat="54.949910" lon="-7.713990">
                <time>2019-06-14T07:53:53Z</time>
            </trkpt>
            <trkpt lat="54.949910" lon="-7.713990">
                <time>2019-06-14T07:53:54Z</time>
            </trkpt>
            <trkpt lat="54.949910" lon="-7.713990">
                <time>2019-06-14T07:53:55Z</time>
            </trkpt>
            <trkpt lat="54.949910" lon="-7.713990">
                <time>2019-06-14T07:53:56Z</time>
            </trkpt>
            <trkpt lat="54.949910" lon="-7.713990">
                <time>2019-06-14T07:53:57Z</time>
            </trkpt>
            <trkpt lat="54.949910" lon="-7.713990">
                <time>2019-06-14T07:53:58Z</time>
            </trkpt>
            <trkpt lat="54.949910" lon="-7.713990">
                <time>2019-06-14T07:53:59Z</time>
            </trkpt>
            <trkpt lat="54.949910" lon="-7.713990">
                <time>2019-06-14T07:54:00Z</time>
            </trkpt>
            <trkpt lat="54.949910" lon="-7.713990">
                <time>2019-06-14T07:54:01Z</time>
            </trkpt>
            <trkpt lat="54.949760" lon="-7.713990">
                <time>2019-06-14T07:54:41Z</time>
            </trkpt>
            <trkpt lat="54.949850" lon="-7.714000">
                <time>2019-06-14T07:54:43Z</time>
            </trkpt>
            <trkpt lat="54.949910" lon="-7.713990">
                <time>2019-06-14T07:54:44Z</time>
            </trkpt>
            <trkpt lat="54.949910" lon="-7.713990">
                <time>2019-06-14T07:54:45Z</time>
            </trkpt>
            <trkpt lat="54.949910" lon="-7.713990">
                <time>2019-06-14T07:54:46Z</time>
            </trkpt>
            <trkpt lat="54.949910" lon="-7.713990">
                <time>2019-06-14T07:54:47Z</time>
            </trkpt>
            <trkpt lat="54.949910" lon="-7.713990">
                <time>2019-06-14T07:54:48Z</time>
            </trkpt>
            <trkpt lat="54.949900" lon="-7.713990">
                <time>2019-06-14T07:54:49Z</time>
            </trkpt>
            <trkpt lat="54.949900" lon="-7.713990">
                <time>2019-06-14T07:54:50Z</time>
            </trkpt>
            <trkpt lat="54.949900" lon="-7.713990">
                <time>2019-06-14T07:54:51Z</time>
            </trkpt>
            <trkpt lat="54.949900" lon="-7.713990">
                <time>2019-06-14T07:54:52Z</time>
            </trkpt>
            <trkpt lat="54.949900" lon="-7.713990">
                <time>2019-06-14T07:54:53Z</time>
            </trkpt>
            <trkpt lat="54.949900" lon="-7.713980">
                <time>2019-06-14T07:54:54Z</time>
            </trkpt>
            <trkpt lat="54.949900" lon="-7.713980">
                <time>2019-06-14T07:54:55Z</time>
            </trkpt>
            <trkpt lat="54.949900" lon="-7.713980">
                <time>2019-06-14T07:54:56Z</time>
            </trkpt>
            <trkpt lat="54.949900" lon="-7.713980">
                <time>2019-06-14T07:54:57Z</time>
            </trkpt>
            <trkpt lat="54.949900" lon="-7.713980">
                <time>2019-06-14T07:54:58Z</time>
            </trkpt>
            <trkpt lat="54.949900" lon="-7.713980">
                <time>2019-06-14T07:54:59Z</time>
            </trkpt>
            <trkpt lat="54.949900" lon="-7.713980">
                <time>2019-06-14T07:55:00Z</time>
            </trkpt>
            <trkpt lat="54.949900" lon="-7.713980">
                <time>2019-06-14T07:55:01Z</time>
            </trkpt>
            <trkpt lat="54.949900" lon="-7.713980">
                <time>2019-06-14T07:55:02Z</time>
            </trkpt>
            <trkpt lat="54.949900" lon="-7.713980">
                <time>2019-06-14T07:55:03Z</time>
            </trkpt>
            <trkpt lat="54.949900" lon="-7.713980">
                <time>2019-06-14T07:55:04Z</time>
            </trkpt>
            <trkpt lat="54.949900" lon="-7.713980">
                <time>2019-06-14T07:55:05Z</time>
            </trkpt>
            <trkpt lat="54.949900" lon="-7.713980">
                <time>2019-06-14T07:55:06Z</time>
            </trkpt>
            <trkpt lat="54.949900" lon="-7.713980">
                <time>2019-06-14T07:55:07Z</time>
            </trkpt>
            <trkpt lat="54.949900" lon="-7.713980">
                <time>2019-06-14T07:55:08Z</time>
            </trkpt>
            <trkpt lat="54.949900" lon="-7.713980">
                <time>2019-06-14T07:55:09Z</time>
            </trkpt>
            <trkpt lat="54.949900" lon="-7.713980">
                <time>2019-06-14T07:55:10Z</time>
            </trkpt>
            <trkpt lat="54.949900" lon="-7.713980">
                <time>2019-06-14T07:55:11Z</time>
            </trkpt>
            <trkpt lat="54.949900" lon="-7.713980">
                <time>2019-06-14T07:55:12Z</time>
            </trkpt>
            <trkpt lat="54.949900" lon="-7.713980">
                <time>2019-06-14T07:55:13Z</time>
            </trkpt>
            <trkpt lat="54.949900" lon="-7.713980">
                <time>2019-06-14T07:55:14Z</time>
            </trkpt>
            <trkpt lat="54.949900" lon="-7.713980">
                <time>2019-06-14T07:55:15Z</time>
            </trkpt>
            <trkpt lat="54.949900" lon="-7.713980">
                <time>2019-06-14T07:55:16Z</time>
            </trkpt>
            <trkpt lat="54.949900" lon="-7.713980">
                <time>2019-06-14T07:55:17Z</time>
            </trkpt>
            <trkpt lat="54.949900" lon="-7.713980">
                <time>2019-06-14T07:55:18Z</time>
            </trkpt>
            <trkpt lat="54.949900" lon="-7.713980">
                <time>2019-06-14T07:55:19Z</time>
            </trkpt>
            <trkpt lat="54.949900" lon="-7.713980">
                <time>2019-06-14T07:55:20Z</time>
            </trkpt>
            <trkpt lat="54.949900" lon="-7.713980">
                <time>2019-06-14T07:55:21Z</time>
            </trkpt>
            <trkpt lat="54.949900" lon="-7.713980">
                <time>2019-06-14T07:55:22Z</time>
            </trkpt>
            <trkpt lat="54.949900" lon="-7.713980">
                <time>2019-06-14T07:55:23Z</time>
            </trkpt>
            <trkpt lat="54.949900" lon="-7.713980">
                <time>2019-06-14T07:55:24Z</time>
            </trkpt>
            <trkpt lat="54.949900" lon="-7.713980">
                <time>2019-06-14T07:55:25Z</time>
            </trkpt>
            <trkpt lat="54.949900" lon="-7.713980">
                <time>2019-06-14T07:55:26Z</time>
            </trkpt>
            <trkpt lat="54.949900" lon="-7.713980">
                <time>2019-06-14T07:55:27Z</time>
            </trkpt>
            <trkpt lat="54.949900" lon="-7.713980">
                <time>2019-06-14T07:55:28Z</time>
            </trkpt>
            <trkpt lat="54.949900" lon="-7.713980">
                <time>2019-06-14T07:55:29Z</time>
            </trkpt>
            <trkpt lat="54.949900" lon="-7.713980">
                <time>2019-06-14T07:55:30Z</time>
            </trkpt>
            <trkpt lat="54.949890" lon="-7.713990">
                <time>2019-06-14T07:55:31Z</time>
            </trkpt>
            <trkpt lat="54.949860" lon="-7.714000">
                <time>2019-06-14T07:55:32Z</time>
            </trkpt>
            <trkpt lat="54.949840" lon="-7.713970">
                <time>2019-06-14T07:55:33Z</time>
            </trkpt>
            <trkpt lat="54.949820" lon="-7.713950">
                <time>2019-06-14T07:55:34Z</time>
            </trkpt>
            <trkpt lat="54.949810" lon="-7.713920">
                <time>2019-06-14T07:55:35Z</time>
            </trkpt>
            <trkpt lat="54.949790" lon="-7.713900">
                <time>2019-06-14T07:55:36Z</time>
            </trkpt>
            <trkpt lat="54.949770" lon="-7.713870">
                <time>2019-06-14T07:55:37Z</time>
            </trkpt>
            <trkpt lat="54.949750" lon="-7.713850">
                <time>2019-06-14T07:55:38Z</time>
            </trkpt>
            <trkpt lat="54.949730" lon="-7.713840">
                <time>2019-06-14T07:55:39Z</time>
            </trkpt>
            <trkpt lat="54.949670" lon="-7.713910">
                <time>2019-06-14T07:55:40Z</time>
            </trkpt>
            <trkpt lat="54.949610" lon="-7.714020">
                <time>2019-06-14T07:55:41Z</time>
            </trkpt>
            <trkpt lat="54.949560" lon="-7.714180">
                <time>2019-06-14T07:55:42Z</time>
            </trkpt>
            <trkpt lat="54.949520" lon="-7.714350">
                <time>2019-06-14T07:55:43Z</time>
            </trkpt>
            <trkpt lat="54.949490" lon="-7.714520">
                <time>2019-06-14T07:55:44Z</time>
            </trkpt>
            <trkpt lat="54.949480" lon="-7.714640">
                <time>2019-06-14T07:55:45Z</time>
            </trkpt>
            <trkpt lat="54.949460" lon="-7.714760">
                <time>2019-06-14T07:55:46Z</time>
            </trkpt>
            <trkpt lat="54.949450" lon="-7.714870">
                <time>2019-06-14T07:55:47Z</time>
            </trkpt>
            <trkpt lat="54.949450" lon="-7.714960">
                <time>2019-06-14T07:55:48Z</time>
            </trkpt>
            <trkpt lat="54.949440" lon="-7.715050">
                <time>2019-06-14T07:55:49Z</time>
            </trkpt>
            <trkpt lat="54.949420" lon="-7.715140">
                <time>2019-06-14T07:55:50Z</time>
            </trkpt>
            <trkpt lat="54.949400" lon="-7.715230">
                <time>2019-06-14T07:55:51Z</time>
            </trkpt>
            <trkpt lat="54.949380" lon="-7.715310">
                <time>2019-06-14T07:55:52Z</time>
            </trkpt>
            <trkpt lat="54.949340" lon="-7.715380">
                <time>2019-06-14T07:55:53Z</time>
            </trkpt>
            <trkpt lat="54.949310" lon="-7.715420">
                <time>2019-06-14T07:55:54Z</time>
            </trkpt>
            <trkpt lat="54.949290" lon="-7.715450">
                <time>2019-06-14T07:55:55Z</time>
            </trkpt>
            <trkpt lat="54.949260" lon="-7.715480">
                <time>2019-06-14T07:55:56Z</time>
            </trkpt>
            <trkpt lat="54.949230" lon="-7.715500">
                <time>2019-06-14T07:55:57Z</time>
            </trkpt>
            <trkpt lat="54.949210" lon="-7.715520">
                <time>2019-06-14T07:55:58Z</time>
            </trkpt>
            <trkpt lat="54.949160" lon="-7.715540">
                <time>2019-06-14T07:55:59Z</time>
            </trkpt>
            <trkpt lat="54.949100" lon="-7.715550">
                <time>2019-06-14T07:56:00Z</time>
            </trkpt>
            <trkpt lat="54.949010" lon="-7.715550">
                <time>2019-06-14T07:56:01Z</time>
            </trkpt>
            <trkpt lat="54.948920" lon="-7.715580">
                <time>2019-06-14T07:56:02Z</time>
            </trkpt>
            <trkpt lat="54.948830" lon="-7.715640">
                <time>2019-06-14T07:56:03Z</time>
            </trkpt>
            <trkpt lat="54.948760" lon="-7.715760">
                <time>2019-06-14T07:56:04Z</time>
            </trkpt>
            <trkpt lat="54.948700" lon="-7.715950">
                <time>2019-06-14T07:56:05Z</time>
            </trkpt>
            <trkpt lat="54.948650" lon="-7.716120">
                <time>2019-06-14T07:56:06Z</time>
            </trkpt>
            <trkpt lat="54.948600" lon="-7.716280">
                <time>2019-06-14T07:56:07Z</time>
            </trkpt>
            <trkpt lat="54.948550" lon="-7.716430">
                <time>2019-06-14T07:56:08Z</time>
            </trkpt>
            <trkpt lat="54.948470" lon="-7.716570">
                <time>2019-06-14T07:56:09Z</time>
            </trkpt>
            <trkpt lat="54.948370" lon="-7.716710">
                <time>2019-06-14T07:56:10Z</time>
            </trkpt>
            <trkpt lat="54.948260" lon="-7.716850">
                <time>2019-06-14T07:56:11Z</time>
            </trkpt>
            <trkpt lat="54.948140" lon="-7.717000">
                <time>2019-06-14T07:56:12Z</time>
            </trkpt>
            <trkpt lat="54.948030" lon="-7.717140">
                <time>2019-06-14T07:56:13Z</time>
            </trkpt>
            <trkpt lat="54.947930" lon="-7.717270">
                <time>2019-06-14T07:56:14Z</time>
            </trkpt>
            <trkpt lat="54.947830" lon="-7.717400">
                <time>2019-06-14T07:56:15Z</time>
            </trkpt>
            <trkpt lat="54.947730" lon="-7.717540">
                <time>2019-06-14T07:56:16Z</time>
            </trkpt>
            <trkpt lat="54.947620" lon="-7.717680">
                <time>2019-06-14T07:56:17Z</time>
            </trkpt>
            <trkpt lat="54.947520" lon="-7.717850">
                <time>2019-06-14T07:56:18Z</time>
            </trkpt>
            <trkpt lat="54.947420" lon="-7.718040">
                <time>2019-06-14T07:56:19Z</time>
            </trkpt>
            <trkpt lat="54.947340" lon="-7.718250">
                <time>2019-06-14T07:56:20Z</time>
            </trkpt>
            <trkpt lat="54.947270" lon="-7.718460">
                <time>2019-06-14T07:56:21Z</time>
            </trkpt>
            <trkpt lat="54.947210" lon="-7.718690">
                <time>2019-06-14T07:56:22Z</time>
            </trkpt>
            <trkpt lat="54.947160" lon="-7.718910">
                <time>2019-06-14T07:56:23Z</time>
            </trkpt>
            <trkpt lat="54.947130" lon="-7.719130">
                <time>2019-06-14T07:56:24Z</time>
            </trkpt>
            <trkpt lat="54.947100" lon="-7.719360">
                <time>2019-06-14T07:56:25Z</time>
            </trkpt>
            <trkpt lat="54.947080" lon="-7.719600">
                <time>2019-06-14T07:56:26Z</time>
            </trkpt>
            <trkpt lat="54.947060" lon="-7.719850">
                <time>2019-06-14T07:56:27Z</time>
            </trkpt>
            <trkpt lat="54.947030" lon="-7.720110">
                <time>2019-06-14T07:56:28Z</time>
            </trkpt>
            <trkpt lat="54.947010" lon="-7.720390">
                <time>2019-06-14T07:56:29Z</time>
            </trkpt>
            <trkpt lat="54.946980" lon="-7.720670">
                <time>2019-06-14T07:56:30Z</time>
            </trkpt>
            <trkpt lat="54.946960" lon="-7.720940">
                <time>2019-06-14T07:56:31Z</time>
            </trkpt>
            <trkpt lat="54.946930" lon="-7.721200">
                <time>2019-06-14T07:56:32Z</time>
            </trkpt>
            <trkpt lat="54.946900" lon="-7.721460">
                <time>2019-06-14T07:56:33Z</time>
            </trkpt>
            <trkpt lat="54.946870" lon="-7.721720">
                <time>2019-06-14T07:56:34Z</time>
            </trkpt>
            <trkpt lat="54.946840" lon="-7.721990">
                <time>2019-06-14T07:56:35Z</time>
            </trkpt>
            <trkpt lat="54.946810" lon="-7.722270">
                <time>2019-06-14T07:56:36Z</time>
            </trkpt>
            <trkpt lat="54.946790" lon="-7.722550">
                <time>2019-06-14T07:56:37Z</time>
            </trkpt>
            <trkpt lat="54.946760" lon="-7.722800">
                <time>2019-06-14T07:56:38Z</time>
            </trkpt>
            <trkpt lat="54.946740" lon="-7.723020">
                <time>2019-06-14T07:56:39Z</time>
            </trkpt>
            <trkpt lat="54.946720" lon="-7.723230">
                <time>2019-06-14T07:56:40Z</time>
            </trkpt>
            <trkpt lat="54.946700" lon="-7.723420">
                <time>2019-06-14T07:56:41Z</time>
            </trkpt>
            <trkpt lat="54.946680" lon="-7.723610">
                <time>2019-06-14T07:56:42Z</time>
            </trkpt>
            <trkpt lat="54.946660" lon="-7.723790">
                <time>2019-06-14T07:56:43Z</time>
            </trkpt>
            <trkpt lat="54.946640" lon="-7.723980">
                <time>2019-06-14T07:56:44Z</time>
            </trkpt>
            <trkpt lat="54.946620" lon="-7.724170">
                <time>2019-06-14T07:56:45Z</time>
            </trkpt>
            <trkpt lat="54.946600" lon="-7.724370">
                <time>2019-06-14T07:56:46Z</time>
            </trkpt>
            <trkpt lat="54.946580" lon="-7.724560">
                <time>2019-06-14T07:56:47Z</time>
            </trkpt>
            <trkpt lat="54.946560" lon="-7.724760">
                <time>2019-06-14T07:56:48Z</time>
            </trkpt>
            <trkpt lat="54.946540" lon="-7.724950">
                <time>2019-06-14T07:56:49Z</time>
            </trkpt>
            <trkpt lat="54.946520" lon="-7.725130">
                <time>2019-06-14T07:56:50Z</time>
            </trkpt>
            <trkpt lat="54.946510" lon="-7.725290">
                <time>2019-06-14T07:56:51Z</time>
            </trkpt>
            <trkpt lat="54.946490" lon="-7.725440">
                <time>2019-06-14T07:56:52Z</time>
            </trkpt>
            <trkpt lat="54.946470" lon="-7.725570">
                <time>2019-06-14T07:56:53Z</time>
            </trkpt>
            <trkpt lat="54.946460" lon="-7.725670">
                <time>2019-06-14T07:56:54Z</time>
            </trkpt>
            <trkpt lat="54.946450" lon="-7.725750">
                <time>2019-06-14T07:56:55Z</time>
            </trkpt>
            <trkpt lat="54.946450" lon="-7.725820">
                <time>2019-06-14T07:56:56Z</time>
            </trkpt>
            <trkpt lat="54.946440" lon="-7.725860">
                <time>2019-06-14T07:56:57Z</time>
            </trkpt>
            <trkpt lat="54.946440" lon="-7.725910">
                <time>2019-06-14T07:56:58Z</time>
            </trkpt>
            <trkpt lat="54.946440" lon="-7.725970">
                <time>2019-06-14T07:56:59Z</time>
            </trkpt>
            <trkpt lat="54.946430" lon="-7.726030">
                <time>2019-06-14T07:57:00Z</time>
            </trkpt>
            <trkpt lat="54.946420" lon="-7.726090">
                <time>2019-06-14T07:57:01Z</time>
            </trkpt>
            <trkpt lat="54.946410" lon="-7.726130">
                <time>2019-06-14T07:57:02Z</time>
            </trkpt>
            <trkpt lat="54.946390" lon="-7.726160">
                <time>2019-06-14T07:57:03Z</time>
            </trkpt>
            <trkpt lat="54.946370" lon="-7.726180">
                <time>2019-06-14T07:57:04Z</time>
            </trkpt>
            <trkpt lat="54.946340" lon="-7.726180">
                <time>2019-06-14T07:57:05Z</time>
            </trkpt>
            <trkpt lat="54.946310" lon="-7.726180">
                <time>2019-06-14T07:57:06Z</time>
            </trkpt>
            <trkpt lat="54.946290" lon="-7.726150">
                <time>2019-06-14T07:57:07Z</time>
            </trkpt>
            <trkpt lat="54.946260" lon="-7.726100">
                <time>2019-06-14T07:57:08Z</time>
            </trkpt>
            <trkpt lat="54.946250" lon="-7.726000">
                <time>2019-06-14T07:57:09Z</time>
            </trkpt>
            <trkpt lat="54.946230" lon="-7.725920">
                <time>2019-06-14T07:57:10Z</time>
            </trkpt>
            <trkpt lat="54.946210" lon="-7.725870">
                <time>2019-06-14T07:57:11Z</time>
            </trkpt>
            <trkpt lat="54.946190" lon="-7.725810">
                <time>2019-06-14T07:57:12Z</time>
            </trkpt>
            <trkpt lat="54.946170" lon="-7.725760">
                <time>2019-06-14T07:57:13Z</time>
            </trkpt>
            <trkpt lat="54.946160" lon="-7.725710">
                <time>2019-06-14T07:57:14Z</time>
            </trkpt>
            <trkpt lat="54.946140" lon="-7.725670">
                <time>2019-06-14T07:57:15Z</time>
            </trkpt>
            <trkpt lat="54.946120" lon="-7.725630">
                <time>2019-06-14T07:57:16Z</time>
            </trkpt>
            <trkpt lat="54.946100" lon="-7.725590">
                <time>2019-06-14T07:57:17Z</time>
            </trkpt>
            <trkpt lat="54.946070" lon="-7.725550">
                <time>2019-06-14T07:57:18Z</time>
            </trkpt>
            <trkpt lat="54.946050" lon="-7.725500">
                <time>2019-06-14T07:57:19Z</time>
            </trkpt>
            <trkpt lat="54.946020" lon="-7.725420">
                <time>2019-06-14T07:57:20Z</time>
            </trkpt>
            <trkpt lat="54.946000" lon="-7.725340">
                <time>2019-06-14T07:57:21Z</time>
            </trkpt>
            <trkpt lat="54.945990" lon="-7.725270">
                <time>2019-06-14T07:57:22Z</time>
            </trkpt>
            <trkpt lat="54.946010" lon="-7.725220">
                <time>2019-06-14T07:57:23Z</time>
            </trkpt>
            <trkpt lat="54.946040" lon="-7.725210">
                <time>2019-06-14T07:57:24Z</time>
            </trkpt>
            <trkpt lat="54.946060" lon="-7.725240">
                <time>2019-06-14T07:57:25Z</time>
            </trkpt>
            <trkpt lat="54.946070" lon="-7.725280">
                <time>2019-06-14T07:57:26Z</time>
            </trkpt>
            <trkpt lat="54.946090" lon="-7.725320">
                <time>2019-06-14T07:57:27Z</time>
            </trkpt>
            <trkpt lat="54.946090" lon="-7.725340">
                <time>2019-06-14T07:57:28Z</time>
            </trkpt>
            <trkpt lat="54.946100" lon="-7.725340">
                <time>2019-06-14T07:57:29Z</time>
            </trkpt>
            <trkpt lat="54.946100" lon="-7.725330">
                <time>2019-06-14T07:57:30Z</time>
            </trkpt>
            <trkpt lat="54.946100" lon="-7.725330">
                <time>2019-06-14T07:57:31Z</time>
            </trkpt>
            <trkpt lat="54.946090" lon="-7.725330">
                <time>2019-06-14T07:57:32Z</time>
            </trkpt>
            <trkpt lat="54.946090" lon="-7.725330">
                <time>2019-06-14T07:57:33Z</time>
            </trkpt>
            <trkpt lat="54.946090" lon="-7.725330">
                <time>2019-06-14T07:57:34Z</time>
            </trkpt>
            <trkpt lat="54.946090" lon="-7.725320">
                <time>2019-06-14T07:57:35Z</time>
            </trkpt>
            <trkpt lat="54.946080" lon="-7.725320">
                <time>2019-06-14T07:57:36Z</time>
            </trkpt>
            <trkpt lat="54.946080" lon="-7.725320">
                <time>2019-06-14T07:57:37Z</time>
            </trkpt>
            <trkpt lat="54.946080" lon="-7.725320">
                <time>2019-06-14T07:57:38Z</time>
            </trkpt>
            <trkpt lat="54.946080" lon="-7.725330">
                <time>2019-06-14T07:57:39Z</time>
            </trkpt>
            <trkpt lat="54.946080" lon="-7.725330">
                <time>2019-06-14T07:57:40Z</time>
            </trkpt>
            <trkpt lat="54.946080" lon="-7.725330">
                <time>2019-06-14T07:57:41Z</time>
            </trkpt>
            <trkpt lat="54.946090" lon="-7.725330">
                <time>2019-06-14T07:57:42Z</time>
            </trkpt>
            <trkpt lat="54.946090" lon="-7.725330">
                <time>2019-06-14T07:57:43Z</time>
            </trkpt>
            <trkpt lat="54.946090" lon="-7.725330">
                <time>2019-06-14T07:57:44Z</time>
            </trkpt>
            <trkpt lat="54.946090" lon="-7.725330">
                <time>2019-06-14T07:57:45Z</time>
            </trkpt>
            <trkpt lat="54.946090" lon="-7.725330">
                <time>2019-06-14T07:57:46Z</time>
            </trkpt>
            <trkpt lat="54.946090" lon="-7.725330">
                <time>2019-06-14T07:57:47Z</time>
            </trkpt>
            <trkpt lat="54.946090" lon="-7.725330">
                <time>2019-06-14T07:57:48Z</time>
            </trkpt>
            <trkpt lat="54.946090" lon="-7.725330">
                <time>2019-06-14T07:57:49Z</time>
            </trkpt>
            <trkpt lat="54.946090" lon="-7.725330">
                <time>2019-06-14T07:57:50Z</time>
            </trkpt>
            <trkpt lat="54.946090" lon="-7.725330">
                <time>2019-06-14T07:57:51Z</time>
            </trkpt>
            <trkpt lat="54.946090" lon="-7.725330">
                <time>2019-06-14T07:57:52Z</time>
            </trkpt>
            <trkpt lat="54.946090" lon="-7.725330">
                <time>2019-06-14T07:57:53Z</time>
            </trkpt>
            <trkpt lat="54.946090" lon="-7.725330">
                <time>2019-06-14T07:57:54Z</time>
            </trkpt>
            <trkpt lat="54.946090" lon="-7.725330">
                <time>2019-06-14T07:57:55Z</time>
            </trkpt>
            <trkpt lat="54.946080" lon="-7.725330">
                <time>2019-06-14T07:57:56Z</time>
            </trkpt>
            <trkpt lat="54.946080" lon="-7.725330">
                <time>2019-06-14T07:57:57Z</time>
            </trkpt>
            <trkpt lat="54.946080" lon="-7.725330">
                <time>2019-06-14T07:57:58Z</time>
            </trkpt>
            <trkpt lat="54.946080" lon="-7.725330">
                <time>2019-06-14T07:57:59Z</time>
            </trkpt>
            <trkpt lat="54.946080" lon="-7.725330">
                <time>2019-06-14T07:58:00Z</time>
            </trkpt>
            <trkpt lat="54.946080" lon="-7.725330">
                <time>2019-06-14T07:58:01Z</time>
            </trkpt>
            <trkpt lat="54.946080" lon="-7.725330">
                <time>2019-06-14T07:58:02Z</time>
            </trkpt>
            <trkpt lat="54.946080" lon="-7.725330">
                <time>2019-06-14T07:58:03Z</time>
            </trkpt>
            <trkpt lat="54.946080" lon="-7.725330">
                <time>2019-06-14T07:58:04Z</time>
            </trkpt>
            <trkpt lat="54.946080" lon="-7.725330">
                <time>2019-06-14T07:58:05Z</time>
            </trkpt>
            <trkpt lat="54.946080" lon="-7.725330">
                <time>2019-06-14T07:58:06Z</time>
            </trkpt>
            <trkpt lat="54.946080" lon="-7.725330">
                <time>2019-06-14T07:58:07Z</time>
            </trkpt>
            <trkpt lat="54.946080" lon="-7.725330">
                <time>2019-06-14T07:58:08Z</time>
            </trkpt>
            <trkpt lat="54.946080" lon="-7.725330">
                <time>2019-06-14T07:58:09Z</time>
            </trkpt>
            <trkpt lat="54.946080" lon="-7.725330">
                <time>2019-06-14T07:58:10Z</time>
            </trkpt>
            <trkpt lat="54.946080" lon="-7.725330">
                <time>2019-06-14T07:58:11Z</time>
            </trkpt>
            <trkpt lat="54.946080" lon="-7.725330">
                <time>2019-06-14T07:58:12Z</time>
            </trkpt>
            <trkpt lat="54.946080" lon="-7.725330">
                <time>2019-06-14T07:58:13Z</time>
            </trkpt>
            <trkpt lat="54.946080" lon="-7.725330">
                <time>2019-06-14T07:58:14Z</time>
            </trkpt>
            <trkpt lat="54.946080" lon="-7.725330">
                <time>2019-06-14T07:58:15Z</time>
            </trkpt>
            <trkpt lat="54.946080" lon="-7.725330">
                <time>2019-06-14T07:58:16Z</time>
            </trkpt>
            <trkpt lat="54.946080" lon="-7.725330">
                <time>2019-06-14T07:58:17Z</time>
            </trkpt>
            <trkpt lat="54.946080" lon="-7.725330">
                <time>2019-06-14T07:58:18Z</time>
            </trkpt>
            <trkpt lat="54.946080" lon="-7.725330">
                <time>2019-06-14T07:58:19Z</time>
            </trkpt>
            <trkpt lat="54.946080" lon="-7.725330">
                <time>2019-06-14T07:58:20Z</time>
            </trkpt>
            <trkpt lat="54.946080" lon="-7.725330">
                <time>2019-06-14T07:58:21Z</time>
            </trkpt>
            <trkpt lat="54.946080" lon="-7.725330">
                <time>2019-06-14T07:58:22Z</time>
            </trkpt>
            <trkpt lat="54.946080" lon="-7.725330">
                <time>2019-06-14T07:58:23Z</time>
            </trkpt>
            <trkpt lat="54.946080" lon="-7.725330">
                <time>2019-06-14T07:58:24Z</time>
            </trkpt>
            <trkpt lat="54.946080" lon="-7.725330">
                <time>2019-06-14T07:58:25Z</time>
            </trkpt>
            <trkpt lat="54.946080" lon="-7.725330">
                <time>2019-06-14T07:58:26Z</time>
            </trkpt>
            <trkpt lat="54.946080" lon="-7.725330">
                <time>2019-06-14T07:58:27Z</time>
            </trkpt>
            <trkpt lat="54.946080" lon="-7.725330">
                <time>2019-06-14T07:58:28Z</time>
            </trkpt>
            <trkpt lat="54.946080" lon="-7.725330">
                <time>2019-06-14T07:58:29Z</time>
            </trkpt>
            <trkpt lat="54.946080" lon="-7.725330">
                <time>2019-06-14T07:58:30Z</time>
            </trkpt>
            <trkpt lat="54.946080" lon="-7.725330">
                <time>2019-06-14T07:58:31Z</time>
            </trkpt>
            <trkpt lat="54.946080" lon="-7.725330">
                <time>2019-06-14T07:58:32Z</time>
            </trkpt>
            <trkpt lat="54.946080" lon="-7.725330">
                <time>2019-06-14T07:58:33Z</time>
            </trkpt>
            <trkpt lat="54.946080" lon="-7.725330">
                <time>2019-06-14T07:58:34Z</time>
            </trkpt>
            <trkpt lat="54.946080" lon="-7.725330">
                <time>2019-06-14T07:58:35Z</time>
            </trkpt>
            <trkpt lat="54.946080" lon="-7.725330">
                <time>2019-06-14T07:58:36Z</time>
            </trkpt>
            <trkpt lat="54.946080" lon="-7.725330">
                <time>2019-06-14T07:58:37Z</time>
            </trkpt>
            <trkpt lat="54.946080" lon="-7.725330">
                <time>2019-06-14T07:58:38Z</time>
            </trkpt>
            <trkpt lat="54.946080" lon="-7.725330">
                <time>2019-06-14T07:58:39Z</time>
            </trkpt>
            <trkpt lat="54.946080" lon="-7.725330">
                <time>2019-06-14T07:58:40Z</time>
            </trkpt>
            <trkpt lat="54.946080" lon="-7.725330">
                <time>2019-06-14T07:58:41Z</time>
            </trkpt>
            <trkpt lat="54.946080" lon="-7.725330">
                <time>2019-06-14T07:58:42Z</time>
            </trkpt>
            <trkpt lat="54.946080" lon="-7.725330">
                <time>2019-06-14T07:58:43Z</time>
            </trkpt>
            <trkpt lat="54.946080" lon="-7.725330">
                <time>2019-06-14T07:58:44Z</time>
            </trkpt>
            <trkpt lat="54.946080" lon="-7.725330">
                <time>2019-06-14T07:58:45Z</time>
            </trkpt>
            <trkpt lat="54.946080" lon="-7.725330">
                <time>2019-06-14T07:58:46Z</time>
            </trkpt>
            <trkpt lat="54.946080" lon="-7.725330">
                <time>2019-06-14T07:58:47Z</time>
            </trkpt>
            <trkpt lat="54.946080" lon="-7.725330">
                <time>2019-06-14T07:58:48Z</time>
            </trkpt>
            <trkpt lat="54.946080" lon="-7.725330">
                <time>2019-06-14T07:58:49Z</time>
            </trkpt>
            <trkpt lat="54.946080" lon="-7.725330">
                <time>2019-06-14T07:58:50Z</time>
            </trkpt>
            <trkpt lat="54.946080" lon="-7.725330">
                <time>2019-06-14T07:58:51Z</time>
            </trkpt>
            <trkpt lat="54.946080" lon="-7.725330">
                <time>2019-06-14T07:58:52Z</time>
            </trkpt>
            <trkpt lat="54.946080" lon="-7.725330">
                <time>2019-06-14T07:58:53Z</time>
            </trkpt>
            <trkpt lat="54.946080" lon="-7.725330">
                <time>2019-06-14T07:58:54Z</time>
            </trkpt>
            <trkpt lat="54.946080" lon="-7.725330">
                <time>2019-06-14T07:58:55Z</time>
            </trkpt>
            <trkpt lat="54.946080" lon="-7.725330">
                <time>2019-06-14T07:58:56Z</time>
            </trkpt>
            <trkpt lat="54.946080" lon="-7.725330">
                <time>2019-06-14T07:58:57Z</time>
            </trkpt>
            <trkpt lat="54.946080" lon="-7.725330">
                <time>2019-06-14T07:58:58Z</time>
            </trkpt>
            <trkpt lat="54.946080" lon="-7.725330">
                <time>2019-06-14T07:58:59Z</time>
            </trkpt>
            <trkpt lat="54.946080" lon="-7.725330">
                <time>2019-06-14T07:59:00Z</time>
            </trkpt>
            <trkpt lat="54.946080" lon="-7.725330">
                <time>2019-06-14T07:59:01Z</time>
            </trkpt>
            <trkpt lat="54.946080" lon="-7.725330">
                <time>2019-06-14T07:59:02Z</time>
            </trkpt>
            <trkpt lat="54.946080" lon="-7.725330">
                <time>2019-06-14T07:59:03Z</time>
            </trkpt>
            <trkpt lat="54.946080" lon="-7.725330">
                <time>2019-06-14T07:59:04Z</time>
            </trkpt>
            <trkpt lat="54.946080" lon="-7.725330">
                <time>2019-06-14T07:59:05Z</time>
            </trkpt>
            <trkpt lat="54.946080" lon="-7.725330">
                <time>2019-06-14T07:59:06Z</time>
            </trkpt>
            <trkpt lat="54.946080" lon="-7.725330">
                <time>2019-06-14T07:59:07Z</time>
            </trkpt>
            <trkpt lat="54.946080" lon="-7.725330">
                <time>2019-06-14T07:59:08Z</time>
            </trkpt>
            <trkpt lat="54.946080" lon="-7.725330">
                <time>2019-06-14T07:59:09Z</time>
            </trkpt>
            <trkpt lat="54.946080" lon="-7.725330">
                <time>2019-06-14T07:59:10Z</time>
            </trkpt>
            <trkpt lat="54.946080" lon="-7.725330">
                <time>2019-06-14T07:59:11Z</time>
            </trkpt>
            <trkpt lat="54.946080" lon="-7.725330">
                <time>2019-06-14T07:59:12Z</time>
            </trkpt>
            <trkpt lat="54.946080" lon="-7.725330">
                <time>2019-06-14T07:59:13Z</time>
            </trkpt>
            <trkpt lat="54.946080" lon="-7.725330">
                <time>2019-06-14T07:59:14Z</time>
            </trkpt>
            <trkpt lat="54.946080" lon="-7.725330">
                <time>2019-06-14T07:59:15Z</time>
            </trkpt>
            <trkpt lat="54.946080" lon="-7.725330">
                <time>2019-06-14T07:59:16Z</time>
            </trkpt>
            <trkpt lat="54.946080" lon="-7.725330">
                <time>2019-06-14T07:59:17Z</time>
            </trkpt>
            <trkpt lat="54.946080" lon="-7.725330">
                <time>2019-06-14T07:59:18Z</time>
            </trkpt>
            <trkpt lat="54.946080" lon="-7.725330">
                <time>2019-06-14T07:59:19Z</time>
            </trkpt>
            <trkpt lat="54.946080" lon="-7.725330">
                <time>2019-06-14T07:59:20Z</time>
            </trkpt>
            <trkpt lat="54.946080" lon="-7.725330">
                <time>2019-06-14T07:59:21Z</time>
            </trkpt>
            <trkpt lat="54.946080" lon="-7.725330">
                <time>2019-06-14T07:59:22Z</time>
            </trkpt>
            <trkpt lat="54.946080" lon="-7.725330">
                <time>2019-06-14T07:59:23Z</time>
            </trkpt>
            <trkpt lat="54.946080" lon="-7.725330">
                <time>2019-06-14T07:59:24Z</time>
            </trkpt>
            <trkpt lat="54.946080" lon="-7.725330">
                <time>2019-06-14T07:59:25Z</time>
            </trkpt>
            <trkpt lat="54.946080" lon="-7.725330">
                <time>2019-06-14T07:59:26Z</time>
            </trkpt>
            <trkpt lat="54.946080" lon="-7.725330">
                <time>2019-06-14T07:59:27Z</time>
            </trkpt>
            <trkpt lat="54.945990" lon="-7.725330">
                <time>2019-06-14T08:01:55Z</time>
            </trkpt>
            <trkpt lat="54.945990" lon="-7.725330">
                <time>2019-06-14T08:01:56Z</time>
            </trkpt>
            <trkpt lat="54.945980" lon="-7.725330">
                <time>2019-06-14T08:01:57Z</time>
            </trkpt>
            <trkpt lat="54.946070" lon="-7.725320">
                <time>2019-06-14T08:01:58Z</time>
            </trkpt>
            <trkpt lat="54.946080" lon="-7.725330">
                <time>2019-06-14T08:01:59Z</time>
            </trkpt>
            <trkpt lat="54.946080" lon="-7.725330">
                <time>2019-06-14T08:02:00Z</time>
            </trkpt>
            <trkpt lat="54.946080" lon="-7.725330">
                <time>2019-06-14T08:02:01Z</time>
            </trkpt>
            <trkpt lat="54.946060" lon="-7.725350">
                <time>2019-06-14T08:02:02Z</time>
            </trkpt>
            <trkpt lat="54.946060" lon="-7.725380">
                <time>2019-06-14T08:02:03Z</time>
            </trkpt>
            <trkpt lat="54.946080" lon="-7.725330">
                <time>2019-06-14T08:02:04Z</time>
            </trkpt>
            <trkpt lat="54.946070" lon="-7.725330">
                <time>2019-06-14T08:02:05Z</time>
            </trkpt>
            <trkpt lat="54.946070" lon="-7.725330">
                <time>2019-06-14T08:02:06Z</time>
            </trkpt>
            <trkpt lat="54.946070" lon="-7.725330">
                <time>2019-06-14T08:02:07Z</time>
            </trkpt>
            <trkpt lat="54.946070" lon="-7.725330">
                <time>2019-06-14T08:02:08Z</time>
            </trkpt>
            <trkpt lat="54.946070" lon="-7.725330">
                <time>2019-06-14T08:02:09Z</time>
            </trkpt>
            <trkpt lat="54.946070" lon="-7.725330">
                <time>2019-06-14T08:02:10Z</time>
            </trkpt>
            <trkpt lat="54.946070" lon="-7.725330">
                <time>2019-06-14T08:02:11Z</time>
            </trkpt>
            <trkpt lat="54.946070" lon="-7.725330">
                <time>2019-06-14T08:02:12Z</time>
            </trkpt>
            <trkpt lat="54.946080" lon="-7.725320">
                <time>2019-06-14T08:02:13Z</time>
            </trkpt>
            <trkpt lat="54.946080" lon="-7.725320">
                <time>2019-06-14T08:02:14Z</time>
            </trkpt>
            <trkpt lat="54.946070" lon="-7.725320">
                <time>2019-06-14T08:02:15Z</time>
            </trkpt>
            <trkpt lat="54.946070" lon="-7.725320">
                <time>2019-06-14T08:02:16Z</time>
            </trkpt>
            <trkpt lat="54.946070" lon="-7.725320">
                <time>2019-06-14T08:02:17Z</time>
            </trkpt>
            <trkpt lat="54.946070" lon="-7.725320">
                <time>2019-06-14T08:02:18Z</time>
            </trkpt>
            <trkpt lat="54.946070" lon="-7.725320">
                <time>2019-06-14T08:02:19Z</time>
            </trkpt>
            <trkpt lat="54.946070" lon="-7.725320">
                <time>2019-06-14T08:02:20Z</time>
            </trkpt>
            <trkpt lat="54.946070" lon="-7.725320">
                <time>2019-06-14T08:02:21Z</time>
            </trkpt>
            <trkpt lat="54.946070" lon="-7.725320">
                <time>2019-06-14T08:02:22Z</time>
            </trkpt>
            <trkpt lat="54.946070" lon="-7.725320">
                <time>2019-06-14T08:02:23Z</time>
            </trkpt>
            <trkpt lat="54.946070" lon="-7.725320">
                <time>2019-06-14T08:02:24Z</time>
            </trkpt>
            <trkpt lat="54.946070" lon="-7.725320">
                <time>2019-06-14T08:02:25Z</time>
            </trkpt>
            <trkpt lat="54.946070" lon="-7.725320">
                <time>2019-06-14T08:02:26Z</time>
            </trkpt>
            <trkpt lat="54.946070" lon="-7.725320">
                <time>2019-06-14T08:02:27Z</time>
            </trkpt>
            <trkpt lat="54.946070" lon="-7.725320">
                <time>2019-06-14T08:02:28Z</time>
            </trkpt>
            <trkpt lat="54.946070" lon="-7.725320">
                <time>2019-06-14T08:02:29Z</time>
            </trkpt>
            <trkpt lat="54.946070" lon="-7.725320">
                <time>2019-06-14T08:02:30Z</time>
            </trkpt>
            <trkpt lat="54.946070" lon="-7.725320">
                <time>2019-06-14T08:02:31Z</time>
            </trkpt>
            <trkpt lat="54.946070" lon="-7.725320">
                <time>2019-06-14T08:02:32Z</time>
            </trkpt>
            <trkpt lat="54.946070" lon="-7.725320">
                <time>2019-06-14T08:02:33Z</time>
            </trkpt>
            <trkpt lat="54.946070" lon="-7.725320">
                <time>2019-06-14T08:02:34Z</time>
            </trkpt>
            <trkpt lat="54.946070" lon="-7.725320">
                <time>2019-06-14T08:02:35Z</time>
            </trkpt>
            <trkpt lat="54.946070" lon="-7.725320">
                <time>2019-06-14T08:02:36Z</time>
            </trkpt>
            <trkpt lat="54.946070" lon="-7.725320">
                <time>2019-06-14T08:02:37Z</time>
            </trkpt>
            <trkpt lat="54.946070" lon="-7.725320">
                <time>2019-06-14T08:02:38Z</time>
            </trkpt>
            <trkpt lat="54.946070" lon="-7.725320">
                <time>2019-06-14T08:02:39Z</time>
            </trkpt>
            <trkpt lat="54.946070" lon="-7.725320">
                <time>2019-06-14T08:02:40Z</time>
            </trkpt>
            <trkpt lat="54.946070" lon="-7.725320">
                <time>2019-06-14T08:02:41Z</time>
            </trkpt>
            <trkpt lat="54.946070" lon="-7.725320">
                <time>2019-06-14T08:02:42Z</time>
            </trkpt>
            <trkpt lat="54.946070" lon="-7.725320">
                <time>2019-06-14T08:02:43Z</time>
            </trkpt>
            <trkpt lat="54.946070" lon="-7.725320">
                <time>2019-06-14T08:02:44Z</time>
            </trkpt>
            <trkpt lat="54.946070" lon="-7.725320">
                <time>2019-06-14T08:02:45Z</time>
            </trkpt>
            <trkpt lat="54.946070" lon="-7.725320">
                <time>2019-06-14T08:02:46Z</time>
            </trkpt>
            <trkpt lat="54.946070" lon="-7.725320">
                <time>2019-06-14T08:02:47Z</time>
            </trkpt>
            <trkpt lat="54.946070" lon="-7.725320">
                <time>2019-06-14T08:02:48Z</time>
            </trkpt>
            <trkpt lat="54.946070" lon="-7.725320">
                <time>2019-06-14T08:02:49Z</time>
            </trkpt>
            <trkpt lat="54.946070" lon="-7.725320">
                <time>2019-06-14T08:02:50Z</time>
            </trkpt>
            <trkpt lat="54.946070" lon="-7.725320">
                <time>2019-06-14T08:02:51Z</time>
            </trkpt>
            <trkpt lat="54.946080" lon="-7.725340">
                <time>2019-06-14T08:02:52Z</time>
            </trkpt>
            <trkpt lat="54.946100" lon="-7.725380">
                <time>2019-06-14T08:02:53Z</time>
            </trkpt>
            <trkpt lat="54.946110" lon="-7.725440">
                <time>2019-06-14T08:02:54Z</time>
            </trkpt>
            <trkpt lat="54.946130" lon="-7.725510">
                <time>2019-06-14T08:02:55Z</time>
            </trkpt>
            <trkpt lat="54.946140" lon="-7.725570">
                <time>2019-06-14T08:02:56Z</time>
            </trkpt>
            <trkpt lat="54.946160" lon="-7.725630">
                <time>2019-06-14T08:02:57Z</time>
            </trkpt>
            <trkpt lat="54.946170" lon="-7.725680">
                <time>2019-06-14T08:02:58Z</time>
            </trkpt>
            <trkpt lat="54.946180" lon="-7.725740">
                <time>2019-06-14T08:02:59Z</time>
            </trkpt>
            <trkpt lat="54.946200" lon="-7.725800">
                <time>2019-06-14T08:03:00Z</time>
            </trkpt>
            <trkpt lat="54.946210" lon="-7.725850">
                <time>2019-06-14T08:03:01Z</time>
            </trkpt>
            <trkpt lat="54.946230" lon="-7.725900">
                <time>2019-06-14T08:03:02Z</time>
            </trkpt>
            <trkpt lat="54.946240" lon="-7.725950">
                <time>2019-06-14T08:03:03Z</time>
            </trkpt>
            <trkpt lat="54.946250" lon="-7.726000">
                <time>2019-06-14T08:03:04Z</time>
            </trkpt>
            <trkpt lat="54.946260" lon="-7.726030">
                <time>2019-06-14T08:03:05Z</time>
            </trkpt>
            <trkpt lat="54.946260" lon="-7.726060">
                <time>2019-06-14T08:03:06Z</time>
            </trkpt>
            <trkpt lat="54.946260" lon="-7.726080">
                <time>2019-06-14T08:03:07Z</time>
            </trkpt>
            <trkpt lat="54.946270" lon="-7.726120">
                <time>2019-06-14T08:03:08Z</time>
            </trkpt>
            <trkpt lat="54.946290" lon="-7.726160">
                <time>2019-06-14T08:03:09Z</time>
            </trkpt>
            <trkpt lat="54.946300" lon="-7.726190">
                <time>2019-06-14T08:03:10Z</time>
            </trkpt>
            <trkpt lat="54.946320" lon="-7.726220">
                <time>2019-06-14T08:03:11Z</time>
            </trkpt>
            <trkpt lat="54.946340" lon="-7.726260">
                <time>2019-06-14T08:03:12Z</time>
            </trkpt>
            <trkpt lat="54.946360" lon="-7.726370">
                <time>2019-06-14T08:03:13Z</time>
            </trkpt>
            <trkpt lat="54.946360" lon="-7.726520">
                <time>2019-06-14T08:03:14Z</time>
            </trkpt>
            <trkpt lat="54.946340" lon="-7.726700">
                <time>2019-06-14T08:03:15Z</time>
            </trkpt>
            <trkpt lat="54.946330" lon="-7.726860">
                <time>2019-06-14T08:03:16Z</time>
            </trkpt>
            <trkpt lat="54.946310" lon="-7.727030">
                <time>2019-06-14T08:03:17Z</time>
            </trkpt>
            <trkpt lat="54.946290" lon="-7.727190">
                <time>2019-06-14T08:03:18Z</time>
            </trkpt>
            <trkpt lat="54.946280" lon="-7.727330">
                <time>2019-06-14T08:03:19Z</time>
            </trkpt>
            <trkpt lat="54.946260" lon="-7.727470">
                <time>2019-06-14T08:03:20Z</time>
            </trkpt>
            <trkpt lat="54.946250" lon="-7.727640">
                <time>2019-06-14T08:03:21Z</time>
            </trkpt>
            <trkpt lat="54.946230" lon="-7.727840">
                <time>2019-06-14T08:03:22Z</time>
            </trkpt>
            <trkpt lat="54.946210" lon="-7.728050">
                <time>2019-06-14T08:03:23Z</time>
            </trkpt>
            <trkpt lat="54.946190" lon="-7.728270">
                <time>2019-06-14T08:03:24Z</time>
            </trkpt>
            <trkpt lat="54.946190" lon="-7.728480">
                <time>2019-06-14T08:03:25Z</time>
            </trkpt>
            <trkpt lat="54.946190" lon="-7.728660">
                <time>2019-06-14T08:03:26Z</time>
            </trkpt>
            <trkpt lat="54.946210" lon="-7.728850">
                <time>2019-06-14T08:03:27Z</time>
            </trkpt>
            <trkpt lat="54.946220" lon="-7.729040">
                <time>2019-06-14T08:03:28Z</time>
            </trkpt>
            <trkpt lat="54.946250" lon="-7.729230">
                <time>2019-06-14T08:03:29Z</time>
            </trkpt>
            <trkpt lat="54.946280" lon="-7.729400">
                <time>2019-06-14T08:03:30Z</time>
            </trkpt>
            <trkpt lat="54.946310" lon="-7.729560">
                <time>2019-06-14T08:03:31Z</time>
            </trkpt>
            <trkpt lat="54.946350" lon="-7.729730">
                <time>2019-06-14T08:03:32Z</time>
            </trkpt>
            <trkpt lat="54.946400" lon="-7.729880">
                <time>2019-06-14T08:03:33Z</time>
            </trkpt>
            <trkpt lat="54.946460" lon="-7.730020">
                <time>2019-06-14T08:03:34Z</time>
            </trkpt>
            <trkpt lat="54.946520" lon="-7.730160">
                <time>2019-06-14T08:03:35Z</time>
            </trkpt>
            <trkpt lat="54.946580" lon="-7.730290">
                <time>2019-06-14T08:03:36Z</time>
            </trkpt>
            <trkpt lat="54.946630" lon="-7.730400">
                <time>2019-06-14T08:03:37Z</time>
            </trkpt>
            <trkpt lat="54.946690" lon="-7.730510">
                <time>2019-06-14T08:03:38Z</time>
            </trkpt>
            <trkpt lat="54.946750" lon="-7.730630">
                <time>2019-06-14T08:03:39Z</time>
            </trkpt>
            <trkpt lat="54.946820" lon="-7.730750">
                <time>2019-06-14T08:03:40Z</time>
            </trkpt>
            <trkpt lat="54.946890" lon="-7.730870">
                <time>2019-06-14T08:03:41Z</time>
            </trkpt>
            <trkpt lat="54.946950" lon="-7.730980">
                <time>2019-06-14T08:03:42Z</time>
            </trkpt>
            <trkpt lat="54.947000" lon="-7.731090">
                <time>2019-06-14T08:03:43Z</time>
            </trkpt>
            <trkpt lat="54.947030" lon="-7.731210">
                <time>2019-06-14T08:03:44Z</time>
            </trkpt>
            <trkpt lat="54.947050" lon="-7.731340">
                <time>2019-06-14T08:03:45Z</time>
            </trkpt>
            <trkpt lat="54.947060" lon="-7.731490">
                <time>2019-06-14T08:03:46Z</time>
            </trkpt>
            <trkpt lat="54.947060" lon="-7.731640">
                <time>2019-06-14T08:03:47Z</time>
            </trkpt>
            <trkpt lat="54.947030" lon="-7.731790">
                <time>2019-06-14T08:03:48Z</time>
            </trkpt>
            <trkpt lat="54.946980" lon="-7.731950">
                <time>2019-06-14T08:03:49Z</time>
            </trkpt>
            <trkpt lat="54.946910" lon="-7.732090">
                <time>2019-06-14T08:03:50Z</time>
            </trkpt>
            <trkpt lat="54.946830" lon="-7.732230">
                <time>2019-06-14T08:03:51Z</time>
            </trkpt>
            <trkpt lat="54.946730" lon="-7.732380">
                <time>2019-06-14T08:03:52Z</time>
            </trkpt>
            <trkpt lat="54.946620" lon="-7.732550">
                <time>2019-06-14T08:03:53Z</time>
            </trkpt>
            <trkpt lat="54.946510" lon="-7.732730">
                <time>2019-06-14T08:03:54Z</time>
            </trkpt>
            <trkpt lat="54.946410" lon="-7.732900">
                <time>2019-06-14T08:03:55Z</time>
            </trkpt>
            <trkpt lat="54.946300" lon="-7.733070">
                <time>2019-06-14T08:03:56Z</time>
            </trkpt>
            <trkpt lat="54.946210" lon="-7.733230">
                <time>2019-06-14T08:03:57Z</time>
            </trkpt>
            <trkpt lat="54.946110" lon="-7.733390">
                <time>2019-06-14T08:03:58Z</time>
            </trkpt>
            <trkpt lat="54.946010" lon="-7.733540">
                <time>2019-06-14T08:03:59Z</time>
            </trkpt>
            <trkpt lat="54.945920" lon="-7.733690">
                <time>2019-06-14T08:04:00Z</time>
            </trkpt>
            <trkpt lat="54.945830" lon="-7.733830">
                <time>2019-06-14T08:04:01Z</time>
            </trkpt>
            <trkpt lat="54.945740" lon="-7.733970">
                <time>2019-06-14T08:04:02Z</time>
            </trkpt>
            <trkpt lat="54.945650" lon="-7.734110">
                <time>2019-06-14T08:04:03Z</time>
            </trkpt>
            <trkpt lat="54.945550" lon="-7.734260">
                <time>2019-06-14T08:04:04Z</time>
            </trkpt>
            <trkpt lat="54.945460" lon="-7.734410">
                <time>2019-06-14T08:04:05Z</time>
            </trkpt>
            <trkpt lat="54.945370" lon="-7.734560">
                <time>2019-06-14T08:04:06Z</time>
            </trkpt>
            <trkpt lat="54.945280" lon="-7.734710">
                <time>2019-06-14T08:04:07Z</time>
            </trkpt>
            <trkpt lat="54.945180" lon="-7.734850">
                <time>2019-06-14T08:04:08Z</time>
            </trkpt>
            <trkpt lat="54.945100" lon="-7.735000">
                <time>2019-06-14T08:04:09Z</time>
            </trkpt>
            <trkpt lat="54.945020" lon="-7.735130">
                <time>2019-06-14T08:04:10Z</time>
            </trkpt>
            <trkpt lat="54.944960" lon="-7.735260">
                <time>2019-06-14T08:04:11Z</time>
            </trkpt>
            <trkpt lat="54.944910" lon="-7.735400">
                <time>2019-06-14T08:04:12Z</time>
            </trkpt>
            <trkpt lat="54.944880" lon="-7.735560">
                <time>2019-06-14T08:04:13Z</time>
            </trkpt>
            <trkpt lat="54.944870" lon="-7.735730">
                <time>2019-06-14T08:04:14Z</time>
            </trkpt>
            <trkpt lat="54.944880" lon="-7.735900">
                <time>2019-06-14T08:04:15Z</time>
            </trkpt>
            <trkpt lat="54.944920" lon="-7.736070">
                <time>2019-06-14T08:04:16Z</time>
            </trkpt>
            <trkpt lat="54.944980" lon="-7.736230">
                <time>2019-06-14T08:04:17Z</time>
            </trkpt>
            <trkpt lat="54.945040" lon="-7.736350">
                <time>2019-06-14T08:04:18Z</time>
            </trkpt>
            <trkpt lat="54.945120" lon="-7.736440">
                <time>2019-06-14T08:04:19Z</time>
            </trkpt>
            <trkpt lat="54.945220" lon="-7.736540">
                <time>2019-06-14T08:04:20Z</time>
            </trkpt>
            <trkpt lat="54.945310" lon="-7.736620">
                <time>2019-06-14T08:04:21Z</time>
            </trkpt>
            <trkpt lat="54.945400" lon="-7.736710">
                <time>2019-06-14T08:04:22Z</time>
            </trkpt>
            <trkpt lat="54.945480" lon="-7.736810">
                <time>2019-06-14T08:04:23Z</time>
            </trkpt>
            <trkpt lat="54.945560" lon="-7.736890">
                <time>2019-06-14T08:04:24Z</time>
            </trkpt>
            <trkpt lat="54.945640" lon="-7.736980">
                <time>2019-06-14T08:04:25Z</time>
            </trkpt>
            <trkpt lat="54.945710" lon="-7.737060">
                <time>2019-06-14T08:04:26Z</time>
            </trkpt>
            <trkpt lat="54.945770" lon="-7.737140">
                <time>2019-06-14T08:04:27Z</time>
            </trkpt>
            <trkpt lat="54.945830" lon="-7.737220">
                <time>2019-06-14T08:04:28Z</time>
            </trkpt>
            <trkpt lat="54.945890" lon="-7.737280">
                <time>2019-06-14T08:04:29Z</time>
            </trkpt>
            <trkpt lat="54.945950" lon="-7.737340">
                <time>2019-06-14T08:04:30Z</time>
            </trkpt>
            <trkpt lat="54.945990" lon="-7.737400">
                <time>2019-06-14T08:04:31Z</time>
            </trkpt>
            <trkpt lat="54.946040" lon="-7.737460">
                <time>2019-06-14T08:04:32Z</time>
            </trkpt>
            <trkpt lat="54.946090" lon="-7.737530">
                <time>2019-06-14T08:04:33Z</time>
            </trkpt>
            <trkpt lat="54.946160" lon="-7.737580">
                <time>2019-06-14T08:04:34Z</time>
            </trkpt>
            <trkpt lat="54.946230" lon="-7.737610">
                <time>2019-06-14T08:04:35Z</time>
            </trkpt>
            <trkpt lat="54.946300" lon="-7.737580">
                <time>2019-06-14T08:04:36Z</time>
            </trkpt>
            <trkpt lat="54.946360" lon="-7.737490">
                <time>2019-06-14T08:04:37Z</time>
            </trkpt>
            <trkpt lat="54.946430" lon="-7.737340">
                <time>2019-06-14T08:04:38Z</time>
            </trkpt>
            <trkpt lat="54.946510" lon="-7.737170">
                <time>2019-06-14T08:04:39Z</time>
            </trkpt>
            <trkpt lat="54.946610" lon="-7.737000">
                <time>2019-06-14T08:04:40Z</time>
            </trkpt>
            <trkpt lat="54.946710" lon="-7.736830">
                <time>2019-06-14T08:04:41Z</time>
            </trkpt>
            <trkpt lat="54.946810" lon="-7.736670">
                <time>2019-06-14T08:04:42Z</time>
            </trkpt>
            <trkpt lat="54.946910" lon="-7.736520">
                <time>2019-06-14T08:04:43Z</time>
            </trkpt>
            <trkpt lat="54.947010" lon="-7.736380">
                <time>2019-06-14T08:04:44Z</time>
            </trkpt>
            <trkpt lat="54.947110" lon="-7.736260">
                <time>2019-06-14T08:04:45Z</time>
            </trkpt>
            <trkpt lat="54.947200" lon="-7.736170">
                <time>2019-06-14T08:04:46Z</time>
            </trkpt>
            <trkpt lat="54.947300" lon="-7.736080">
                <time>2019-06-14T08:04:47Z</time>
            </trkpt>
            <trkpt lat="54.947380" lon="-7.735990">
                <time>2019-06-14T08:04:48Z</time>
            </trkpt>
            <trkpt lat="54.947450" lon="-7.735930">
                <time>2019-06-14T08:04:49Z</time>
            </trkpt>
            <trkpt lat="54.947540" lon="-7.735900">
                <time>2019-06-14T08:04:50Z</time>
            </trkpt>
            <trkpt lat="54.947610" lon="-7.735940">
                <time>2019-06-14T08:04:51Z</time>
            </trkpt>
            <trkpt lat="54.947660" lon="-7.736010">
                <time>2019-06-14T08:04:52Z</time>
            </trkpt>
            <trkpt lat="54.947710" lon="-7.736110">
                <time>2019-06-14T08:04:53Z</time>
            </trkpt>
            <trkpt lat="54.947770" lon="-7.736220">
                <time>2019-06-14T08:04:54Z</time>
            </trkpt>
            <trkpt lat="54.947830" lon="-7.736350">
                <time>2019-06-14T08:04:55Z</time>
            </trkpt>
            <trkpt lat="54.947900" lon="-7.736480">
                <time>2019-06-14T08:04:56Z</time>
            </trkpt>
            <trkpt lat="54.947970" lon="-7.736620">
                <time>2019-06-14T08:04:57Z</time>
            </trkpt>
            <trkpt lat="54.948040" lon="-7.736740">
                <time>2019-06-14T08:04:58Z</time>
            </trkpt>
            <trkpt lat="54.948100" lon="-7.736850">
                <time>2019-06-14T08:04:59Z</time>
            </trkpt>
            <trkpt lat="54.948150" lon="-7.736950">
                <time>2019-06-14T08:05:00Z</time>
            </trkpt>
            <trkpt lat="54.948210" lon="-7.737060">
                <time>2019-06-14T08:05:01Z</time>
            </trkpt>
            <trkpt lat="54.948270" lon="-7.737180">
                <time>2019-06-14T08:05:02Z</time>
            </trkpt>
            <trkpt lat="54.948330" lon="-7.737290">
                <time>2019-06-14T08:05:03Z</time>
            </trkpt>
            <trkpt lat="54.948380" lon="-7.737400">
                <time>2019-06-14T08:05:04Z</time>
            </trkpt>
            <trkpt lat="54.948430" lon="-7.737510">
                <time>2019-06-14T08:05:05Z</time>
            </trkpt>
            <trkpt lat="54.948470" lon="-7.737610">
                <time>2019-06-14T08:05:06Z</time>
            </trkpt>
            <trkpt lat="54.948510" lon="-7.737700">
                <time>2019-06-14T08:05:07Z</time>
            </trkpt>
            <trkpt lat="54.948530" lon="-7.737770">
                <time>2019-06-14T08:05:08Z</time>
            </trkpt>
            <trkpt lat="54.948550" lon="-7.737840">
                <time>2019-06-14T08:05:09Z</time>
            </trkpt>
            <trkpt lat="54.948570" lon="-7.737910">
                <time>2019-06-14T08:05:10Z</time>
            </trkpt>
            <trkpt lat="54.948580" lon="-7.737990">
                <time>2019-06-14T08:05:11Z</time>
            </trkpt>
            <trkpt lat="54.948560" lon="-7.738080">
                <time>2019-06-14T08:05:12Z</time>
            </trkpt>
            <trkpt lat="54.948520" lon="-7.738140">
                <time>2019-06-14T08:05:13Z</time>
            </trkpt>
            <trkpt lat="54.948480" lon="-7.738170">
                <time>2019-06-14T08:05:14Z</time>
            </trkpt>
            <trkpt lat="54.948400" lon="-7.738210">
                <time>2019-06-14T08:05:15Z</time>
            </trkpt>
            <trkpt lat="54.948320" lon="-7.738260">
                <time>2019-06-14T08:05:16Z</time>
            </trkpt>
            <trkpt lat="54.948240" lon="-7.738300">
                <time>2019-06-14T08:05:17Z</time>
            </trkpt>
            <trkpt lat="54.948160" lon="-7.738350">
                <time>2019-06-14T08:05:18Z</time>
            </trkpt>
            <trkpt lat="54.948080" lon="-7.738400">
                <time>2019-06-14T08:05:19Z</time>
            </trkpt>
            <trkpt lat="54.947990" lon="-7.738460">
                <time>2019-06-14T08:05:20Z</time>
            </trkpt>
            <trkpt lat="54.947910" lon="-7.738520">
                <time>2019-06-14T08:05:21Z</time>
            </trkpt>
            <trkpt lat="54.947820" lon="-7.738570">
                <time>2019-06-14T08:05:22Z</time>
            </trkpt>
            <trkpt lat="54.947740" lon="-7.738610">
                <time>2019-06-14T08:05:23Z</time>
            </trkpt>
            <trkpt lat="54.947660" lon="-7.738660">
                <time>2019-06-14T08:05:24Z</time>
            </trkpt>
            <trkpt lat="54.947590" lon="-7.738710">
                <time>2019-06-14T08:05:25Z</time>
            </trkpt>
            <trkpt lat="54.947510" lon="-7.738750">
                <time>2019-06-14T08:05:26Z</time>
            </trkpt>
            <trkpt lat="54.947430" lon="-7.738810">
                <time>2019-06-14T08:05:27Z</time>
            </trkpt>
            <trkpt lat="54.947360" lon="-7.738860">
                <time>2019-06-14T08:05:28Z</time>
            </trkpt>
            <trkpt lat="54.947290" lon="-7.738930">
                <time>2019-06-14T08:05:29Z</time>
            </trkpt>
            <trkpt lat="54.947220" lon="-7.739010">
                <time>2019-06-14T08:05:30Z</time>
            </trkpt>
            <trkpt lat="54.947170" lon="-7.739090">
                <time>2019-06-14T08:05:31Z</time>
            </trkpt>
            <trkpt lat="54.947120" lon="-7.739190">
                <time>2019-06-14T08:05:32Z</time>
            </trkpt>
            <trkpt lat="54.947080" lon="-7.739290">
                <time>2019-06-14T08:05:33Z</time>
            </trkpt>
            <trkpt lat="54.947050" lon="-7.739400">
                <time>2019-06-14T08:05:34Z</time>
            </trkpt>
            <trkpt lat="54.947010" lon="-7.739500">
                <time>2019-06-14T08:05:35Z</time>
            </trkpt>
            <trkpt lat="54.946970" lon="-7.739590">
                <time>2019-06-14T08:05:36Z</time>
            </trkpt>
            <trkpt lat="54.946930" lon="-7.739670">
                <time>2019-06-14T08:05:37Z</time>
            </trkpt>
            <trkpt lat="54.946900" lon="-7.739760">
                <time>2019-06-14T08:05:38Z</time>
            </trkpt>
            <trkpt lat="54.946860" lon="-7.739850">
                <time>2019-06-14T08:05:39Z</time>
            </trkpt>
            <trkpt lat="54.946820" lon="-7.739940">
                <time>2019-06-14T08:05:40Z</time>
            </trkpt>
            <trkpt lat="54.946790" lon="-7.740020">
                <time>2019-06-14T08:05:41Z</time>
            </trkpt>
            <trkpt lat="54.946770" lon="-7.740080">
                <time>2019-06-14T08:05:42Z</time>
            </trkpt>
            <trkpt lat="54.946750" lon="-7.740130">
                <time>2019-06-14T08:05:43Z</time>
            </trkpt>
            <trkpt lat="54.946730" lon="-7.740180">
                <time>2019-06-14T08:05:44Z</time>
            </trkpt>
            <trkpt lat="54.946710" lon="-7.740240">
                <time>2019-06-14T08:05:45Z</time>
            </trkpt>
            <trkpt lat="54.946680" lon="-7.740320">
                <time>2019-06-14T08:05:46Z</time>
            </trkpt>
            <trkpt lat="54.946650" lon="-7.740400">
                <time>2019-06-14T08:05:47Z</time>
            </trkpt>
            <trkpt lat="54.946630" lon="-7.740480">
                <time>2019-06-14T08:05:48Z</time>
            </trkpt>
            <trkpt lat="54.946600" lon="-7.740580">
                <time>2019-06-14T08:05:49Z</time>
            </trkpt>
            <trkpt lat="54.946580" lon="-7.740690">
                <time>2019-06-14T08:05:50Z</time>
            </trkpt>
            <trkpt lat="54.946570" lon="-7.740830">
                <time>2019-06-14T08:05:51Z</time>
            </trkpt>
            <trkpt lat="54.946570" lon="-7.740960">
                <time>2019-06-14T08:05:52Z</time>
            </trkpt>
            <trkpt lat="54.946560" lon="-7.741080">
                <time>2019-06-14T08:05:53Z</time>
            </trkpt>
            <trkpt lat="54.946550" lon="-7.741220">
                <time>2019-06-14T08:05:54Z</time>
            </trkpt>
            <trkpt lat="54.946540" lon="-7.741370">
                <time>2019-06-14T08:05:55Z</time>
            </trkpt>
            <trkpt lat="54.946530" lon="-7.741520">
                <time>2019-06-14T08:05:56Z</time>
            </trkpt>
            <trkpt lat="54.946530" lon="-7.741660">
                <time>2019-06-14T08:05:57Z</time>
            </trkpt>
            <trkpt lat="54.946520" lon="-7.741820">
                <time>2019-06-14T08:05:58Z</time>
            </trkpt>
            <trkpt lat="54.946510" lon="-7.741990">
                <time>2019-06-14T08:05:59Z</time>
            </trkpt>
            <trkpt lat="54.946490" lon="-7.742170">
                <time>2019-06-14T08:06:00Z</time>
            </trkpt>
            <trkpt lat="54.946480" lon="-7.742340">
                <time>2019-06-14T08:06:01Z</time>
            </trkpt>
            <trkpt lat="54.946480" lon="-7.742500">
                <time>2019-06-14T08:06:02Z</time>
            </trkpt>
            <trkpt lat="54.946470" lon="-7.742660">
                <time>2019-06-14T08:06:03Z</time>
            </trkpt>
            <trkpt lat="54.946480" lon="-7.742820">
                <time>2019-06-14T08:06:04Z</time>
            </trkpt>
            <trkpt lat="54.946490" lon="-7.742990">
                <time>2019-06-14T08:06:05Z</time>
            </trkpt>
            <trkpt lat="54.946500" lon="-7.743160">
                <time>2019-06-14T08:06:06Z</time>
            </trkpt>
            <trkpt lat="54.946510" lon="-7.743330">
                <time>2019-06-14T08:06:07Z</time>
            </trkpt>
            <trkpt lat="54.946530" lon="-7.743510">
                <time>2019-06-14T08:06:08Z</time>
            </trkpt>
            <trkpt lat="54.946550" lon="-7.743690">
                <time>2019-06-14T08:06:09Z</time>
            </trkpt>
            <trkpt lat="54.946560" lon="-7.743860">
                <time>2019-06-14T08:06:10Z</time>
            </trkpt>
            <trkpt lat="54.946590" lon="-7.744020">
                <time>2019-06-14T08:06:11Z</time>
            </trkpt>
            <trkpt lat="54.946610" lon="-7.744200">
                <time>2019-06-14T08:06:12Z</time>
            </trkpt>
            <trkpt lat="54.946640" lon="-7.744390">
                <time>2019-06-14T08:06:13Z</time>
            </trkpt>
            <trkpt lat="54.946660" lon="-7.744590">
                <time>2019-06-14T08:06:14Z</time>
            </trkpt>
            <trkpt lat="54.946690" lon="-7.744780">
                <time>2019-06-14T08:06:15Z</time>
            </trkpt>
            <trkpt lat="54.946710" lon="-7.744960">
                <time>2019-06-14T08:06:16Z</time>
            </trkpt>
            <trkpt lat="54.946740" lon="-7.745160">
                <time>2019-06-14T08:06:17Z</time>
            </trkpt>
            <trkpt lat="54.946770" lon="-7.745360">
                <time>2019-06-14T08:06:18Z</time>
            </trkpt>
            <trkpt lat="54.946810" lon="-7.745570">
                <time>2019-06-14T08:06:19Z</time>
            </trkpt>
            <trkpt lat="54.946860" lon="-7.745800">
                <time>2019-06-14T08:06:20Z</time>
            </trkpt>
            <trkpt lat="54.946940" lon="-7.746010">
                <time>2019-06-14T08:06:21Z</time>
            </trkpt>
            <trkpt lat="54.947020" lon="-7.746190">
                <time>2019-06-14T08:06:22Z</time>
            </trkpt>
            <trkpt lat="54.947090" lon="-7.746360">
                <time>2019-06-14T08:06:23Z</time>
            </trkpt>
            <trkpt lat="54.947160" lon="-7.746520">
                <time>2019-06-14T08:06:24Z</time>
            </trkpt>
            <trkpt lat="54.947230" lon="-7.746690">
                <time>2019-06-14T08:06:25Z</time>
            </trkpt>
            <trkpt lat="54.947300" lon="-7.746870">
                <time>2019-06-14T08:06:26Z</time>
            </trkpt>
            <trkpt lat="54.947360" lon="-7.747050">
                <time>2019-06-14T08:06:27Z</time>
            </trkpt>
            <trkpt lat="54.947410" lon="-7.747250">
                <time>2019-06-14T08:06:28Z</time>
            </trkpt>
            <trkpt lat="54.947440" lon="-7.747430">
                <time>2019-06-14T08:06:29Z</time>
            </trkpt>
            <trkpt lat="54.947450" lon="-7.747620">
                <time>2019-06-14T08:06:30Z</time>
            </trkpt>
            <trkpt lat="54.947420" lon="-7.747820">
                <time>2019-06-14T08:06:31Z</time>
            </trkpt>
            <trkpt lat="54.947390" lon="-7.748040">
                <time>2019-06-14T08:06:32Z</time>
            </trkpt>
            <trkpt lat="54.947360" lon="-7.748260">
                <time>2019-06-14T08:06:33Z</time>
            </trkpt>
            <trkpt lat="54.947340" lon="-7.748500">
                <time>2019-06-14T08:06:34Z</time>
            </trkpt>
            <trkpt lat="54.947330" lon="-7.748760">
                <time>2019-06-14T08:06:35Z</time>
            </trkpt>
            <trkpt lat="54.947340" lon="-7.749010">
                <time>2019-06-14T08:06:36Z</time>
            </trkpt>
            <trkpt lat="54.947340" lon="-7.749250">
                <time>2019-06-14T08:06:37Z</time>
            </trkpt>
            <trkpt lat="54.947340" lon="-7.749480">
                <time>2019-06-14T08:06:38Z</time>
            </trkpt>
            <trkpt lat="54.947330" lon="-7.749700">
                <time>2019-06-14T08:06:39Z</time>
            </trkpt>
            <trkpt lat="54.947320" lon="-7.749920">
                <time>2019-06-14T08:06:40Z</time>
            </trkpt>
            <trkpt lat="54.947300" lon="-7.750160">
                <time>2019-06-14T08:06:41Z</time>
            </trkpt>
            <trkpt lat="54.947270" lon="-7.750410">
                <time>2019-06-14T08:06:42Z</time>
            </trkpt>
            <trkpt lat="54.947240" lon="-7.750680">
                <time>2019-06-14T08:06:43Z</time>
            </trkpt>
            <trkpt lat="54.947210" lon="-7.750950">
                <time>2019-06-14T08:06:44Z</time>
            </trkpt>
            <trkpt lat="54.947180" lon="-7.751200">
                <time>2019-06-14T08:06:45Z</time>
            </trkpt>
            <trkpt lat="54.947160" lon="-7.751440">
                <time>2019-06-14T08:06:46Z</time>
            </trkpt>
            <trkpt lat="54.947130" lon="-7.751670">
                <time>2019-06-14T08:06:47Z</time>
            </trkpt>
            <trkpt lat="54.947100" lon="-7.751900">
                <time>2019-06-14T08:06:48Z</time>
            </trkpt>
            <trkpt lat="54.947060" lon="-7.752140">
                <time>2019-06-14T08:06:49Z</time>
            </trkpt>
            <trkpt lat="54.947020" lon="-7.752390">
                <time>2019-06-14T08:06:50Z</time>
            </trkpt>
            <trkpt lat="54.946970" lon="-7.752630">
                <time>2019-06-14T08:06:51Z</time>
            </trkpt>
            <trkpt lat="54.946920" lon="-7.752840">
                <time>2019-06-14T08:06:52Z</time>
            </trkpt>
            <trkpt lat="54.946850" lon="-7.753040">
                <time>2019-06-14T08:06:53Z</time>
            </trkpt>
            <trkpt lat="54.946790" lon="-7.753210">
                <time>2019-06-14T08:06:54Z</time>
            </trkpt>
            <trkpt lat="54.946730" lon="-7.753350">
                <time>2019-06-14T08:06:55Z</time>
            </trkpt>
            <trkpt lat="54.946670" lon="-7.753480">
                <time>2019-06-14T08:06:56Z</time>
            </trkpt>
            <trkpt lat="54.946600" lon="-7.753570">
                <time>2019-06-14T08:06:57Z</time>
            </trkpt>
            <trkpt lat="54.946520" lon="-7.753620">
                <time>2019-06-14T08:06:58Z</time>
            </trkpt>
            <trkpt lat="54.946450" lon="-7.753630">
                <time>2019-06-14T08:06:59Z</time>
            </trkpt>
            <trkpt lat="54.946370" lon="-7.753670">
                <time>2019-06-14T08:07:00Z</time>
            </trkpt>
            <trkpt lat="54.946310" lon="-7.753750">
                <time>2019-06-14T08:07:01Z</time>
            </trkpt>
            <trkpt lat="54.946250" lon="-7.753870">
                <time>2019-06-14T08:07:02Z</time>
            </trkpt>
            <trkpt lat="54.946210" lon="-7.753980">
                <time>2019-06-14T08:07:03Z</time>
            </trkpt>
            <trkpt lat="54.946150" lon="-7.754090">
                <time>2019-06-14T08:07:04Z</time>
            </trkpt>
            <trkpt lat="54.946070" lon="-7.754190">
                <time>2019-06-14T08:07:05Z</time>
            </trkpt>
            <trkpt lat="54.945970" lon="-7.754280">
                <time>2019-06-14T08:07:06Z</time>
            </trkpt>
            <trkpt lat="54.945860" lon="-7.754400">
                <time>2019-06-14T08:07:07Z</time>
            </trkpt>
            <trkpt lat="54.945760" lon="-7.754550">
                <time>2019-06-14T08:07:08Z</time>
            </trkpt>
            <trkpt lat="54.945660" lon="-7.754720">
                <time>2019-06-14T08:07:09Z</time>
            </trkpt>
            <trkpt lat="54.945560" lon="-7.754890">
                <time>2019-06-14T08:07:10Z</time>
            </trkpt>
            <trkpt lat="54.945480" lon="-7.755080">
                <time>2019-06-14T08:07:11Z</time>
            </trkpt>
            <trkpt lat="54.945390" lon="-7.755290">
                <time>2019-06-14T08:07:12Z</time>
            </trkpt>
            <trkpt lat="54.945300" lon="-7.755510">
                <time>2019-06-14T08:07:13Z</time>
            </trkpt>
            <trkpt lat="54.945220" lon="-7.755740">
                <time>2019-06-14T08:07:14Z</time>
            </trkpt>
            <trkpt lat="54.945130" lon="-7.755980">
                <time>2019-06-14T08:07:15Z</time>
            </trkpt>
            <trkpt lat="54.945040" lon="-7.756220">
                <time>2019-06-14T08:07:16Z</time>
            </trkpt>
            <trkpt lat="54.944940" lon="-7.756470">
                <time>2019-06-14T08:07:17Z</time>
            </trkpt>
            <trkpt lat="54.944850" lon="-7.756730">
                <time>2019-06-14T08:07:18Z</time>
            </trkpt>
            <trkpt lat="54.944760" lon="-7.756990">
                <time>2019-06-14T08:07:19Z</time>
            </trkpt>
            <trkpt lat="54.944670" lon="-7.757240">
                <time>2019-06-14T08:07:20Z</time>
            </trkpt>
            <trkpt lat="54.944590" lon="-7.757470">
                <time>2019-06-14T08:07:21Z</time>
            </trkpt>
            <trkpt lat="54.944510" lon="-7.757710">
                <time>2019-06-14T08:07:22Z</time>
            </trkpt>
            <trkpt lat="54.944440" lon="-7.757940">
                <time>2019-06-14T08:07:23Z</time>
            </trkpt>
            <trkpt lat="54.944370" lon="-7.758180">
                <time>2019-06-14T08:07:24Z</time>
            </trkpt>
            <trkpt lat="54.944300" lon="-7.758410">
                <time>2019-06-14T08:07:25Z</time>
            </trkpt>
            <trkpt lat="54.944250" lon="-7.758650">
                <time>2019-06-14T08:07:26Z</time>
            </trkpt>
            <trkpt lat="54.944190" lon="-7.758880">
                <time>2019-06-14T08:07:27Z</time>
            </trkpt>
            <trkpt lat="54.944140" lon="-7.759120">
                <time>2019-06-14T08:07:28Z</time>
            </trkpt>
            <trkpt lat="54.944090" lon="-7.759370">
                <time>2019-06-14T08:07:29Z</time>
            </trkpt>
            <trkpt lat="54.944040" lon="-7.759630">
                <time>2019-06-14T08:07:30Z</time>
            </trkpt>
            <trkpt lat="54.943990" lon="-7.759910">
                <time>2019-06-14T08:07:31Z</time>
            </trkpt>
            <trkpt lat="54.943940" lon="-7.760190">
                <time>2019-06-14T08:07:32Z</time>
            </trkpt>
            <trkpt lat="54.943900" lon="-7.760480">
                <time>2019-06-14T08:07:33Z</time>
            </trkpt>
            <trkpt lat="54.943850" lon="-7.760760">
                <time>2019-06-14T08:07:34Z</time>
            </trkpt>
            <trkpt lat="54.943810" lon="-7.761040">
                <time>2019-06-14T08:07:35Z</time>
            </trkpt>
            <trkpt lat="54.943780" lon="-7.761310">
                <time>2019-06-14T08:07:36Z</time>
            </trkpt>
            <trkpt lat="54.943740" lon="-7.761570">
                <time>2019-06-14T08:07:37Z</time>
            </trkpt>
            <trkpt lat="54.943710" lon="-7.761830">
                <time>2019-06-14T08:07:38Z</time>
            </trkpt>
            <trkpt lat="54.943680" lon="-7.762100">
                <time>2019-06-14T08:07:39Z</time>
            </trkpt>
            <trkpt lat="54.943650" lon="-7.762360">
                <time>2019-06-14T08:07:40Z</time>
            </trkpt>
            <trkpt lat="54.943600" lon="-7.762640">
                <time>2019-06-14T08:07:41Z</time>
            </trkpt>
            <trkpt lat="54.943540" lon="-7.762910">
                <time>2019-06-14T08:07:42Z</time>
            </trkpt>
            <trkpt lat="54.943480" lon="-7.763170">
                <time>2019-06-14T08:07:43Z</time>
            </trkpt>
            <trkpt lat="54.943420" lon="-7.763430">
                <time>2019-06-14T08:07:44Z</time>
            </trkpt>
            <trkpt lat="54.943350" lon="-7.763690">
                <time>2019-06-14T08:07:45Z</time>
            </trkpt>
            <trkpt lat="54.943290" lon="-7.763950">
                <time>2019-06-14T08:07:46Z</time>
            </trkpt>
            <trkpt lat="54.943220" lon="-7.764220">
                <time>2019-06-14T08:07:47Z</time>
            </trkpt>
            <trkpt lat="54.943160" lon="-7.764500">
                <time>2019-06-14T08:07:48Z</time>
            </trkpt>
            <trkpt lat="54.943100" lon="-7.764800">
                <time>2019-06-14T08:07:49Z</time>
            </trkpt>
            <trkpt lat="54.943050" lon="-7.765080">
                <time>2019-06-14T08:07:50Z</time>
            </trkpt>
            <trkpt lat="54.943010" lon="-7.765360">
                <time>2019-06-14T08:07:51Z</time>
            </trkpt>
            <trkpt lat="54.942980" lon="-7.765640">
                <time>2019-06-14T08:07:52Z</time>
            </trkpt>
            <trkpt lat="54.942950" lon="-7.765920">
                <time>2019-06-14T08:07:53Z</time>
            </trkpt>
            <trkpt lat="54.942930" lon="-7.766200">
                <time>2019-06-14T08:07:54Z</time>
            </trkpt>
            <trkpt lat="54.942920" lon="-7.766480">
                <time>2019-06-14T08:07:55Z</time>
            </trkpt>
            <trkpt lat="54.942910" lon="-7.766770">
                <time>2019-06-14T08:07:56Z</time>
            </trkpt>
            <trkpt lat="54.942910" lon="-7.767060">
                <time>2019-06-14T08:07:57Z</time>
            </trkpt>
            <trkpt lat="54.942920" lon="-7.767340">
                <time>2019-06-14T08:07:58Z</time>
            </trkpt>
            <trkpt lat="54.942940" lon="-7.767620">
                <time>2019-06-14T08:07:59Z</time>
            </trkpt>
            <trkpt lat="54.942960" lon="-7.767890">
                <time>2019-06-14T08:08:00Z</time>
            </trkpt>
            <trkpt lat="54.942980" lon="-7.768160">
                <time>2019-06-14T08:08:01Z</time>
            </trkpt>
            <trkpt lat="54.943010" lon="-7.768400">
                <time>2019-06-14T08:08:02Z</time>
            </trkpt>
            <trkpt lat="54.943050" lon="-7.768640">
                <time>2019-06-14T08:08:03Z</time>
            </trkpt>
            <trkpt lat="54.943090" lon="-7.768880">
                <time>2019-06-14T08:08:04Z</time>
            </trkpt>
            <trkpt lat="54.943120" lon="-7.769110">
                <time>2019-06-14T08:08:05Z</time>
            </trkpt>
            <trkpt lat="54.943160" lon="-7.769360">
                <time>2019-06-14T08:08:06Z</time>
            </trkpt>
            <trkpt lat="54.943200" lon="-7.769600">
                <time>2019-06-14T08:08:07Z</time>
            </trkpt>
            <trkpt lat="54.943240" lon="-7.769830">
                <time>2019-06-14T08:08:08Z</time>
            </trkpt>
            <trkpt lat="54.943270" lon="-7.770070">
                <time>2019-06-14T08:08:09Z</time>
            </trkpt>
            <trkpt lat="54.943300" lon="-7.770310">
                <time>2019-06-14T08:08:10Z</time>
            </trkpt>
            <trkpt lat="54.943340" lon="-7.770560">
                <time>2019-06-14T08:08:11Z</time>
            </trkpt>
            <trkpt lat="54.943360" lon="-7.770830">
                <time>2019-06-14T08:08:12Z</time>
            </trkpt>
            <trkpt lat="54.943370" lon="-7.771090">
                <time>2019-06-14T08:08:13Z</time>
            </trkpt>
            <trkpt lat="54.943380" lon="-7.771350">
                <time>2019-06-14T08:08:14Z</time>
            </trkpt>
            <trkpt lat="54.943370" lon="-7.771610">
                <time>2019-06-14T08:08:15Z</time>
            </trkpt>
            <trkpt lat="54.943350" lon="-7.771880">
                <time>2019-06-14T08:08:16Z</time>
            </trkpt>
            <trkpt lat="54.943330" lon="-7.772140">
                <time>2019-06-14T08:08:17Z</time>
            </trkpt>
            <trkpt lat="54.943300" lon="-7.772390">
                <time>2019-06-14T08:08:18Z</time>
            </trkpt>
            <trkpt lat="54.943270" lon="-7.772630">
                <time>2019-06-14T08:08:19Z</time>
            </trkpt>
            <trkpt lat="54.943240" lon="-7.772860">
                <time>2019-06-14T08:08:20Z</time>
            </trkpt>
            <trkpt lat="54.943200" lon="-7.773100">
                <time>2019-06-14T08:08:21Z</time>
            </trkpt>
            <trkpt lat="54.943160" lon="-7.773350">
                <time>2019-06-14T08:08:22Z</time>
            </trkpt>
            <trkpt lat="54.943120" lon="-7.773620">
                <time>2019-06-14T08:08:23Z</time>
            </trkpt>
            <trkpt lat="54.943070" lon="-7.773890">
                <time>2019-06-14T08:08:24Z</time>
            </trkpt>
            <trkpt lat="54.943030" lon="-7.774160">
                <time>2019-06-14T08:08:25Z</time>
            </trkpt>
            <trkpt lat="54.942980" lon="-7.774420">
                <time>2019-06-14T08:08:26Z</time>
            </trkpt>
            <trkpt lat="54.942940" lon="-7.774670">
                <time>2019-06-14T08:08:27Z</time>
            </trkpt>
            <trkpt lat="54.942900" lon="-7.774910">
                <time>2019-06-14T08:08:28Z</time>
            </trkpt>
            <trkpt lat="54.942860" lon="-7.775140">
                <time>2019-06-14T08:08:29Z</time>
            </trkpt>
            <trkpt lat="54.942820" lon="-7.775380">
                <time>2019-06-14T08:08:30Z</time>
            </trkpt>
            <trkpt lat="54.942770" lon="-7.775600">
                <time>2019-06-14T08:08:31Z</time>
            </trkpt>
            <trkpt lat="54.942740" lon="-7.775830">
                <time>2019-06-14T08:08:32Z</time>
            </trkpt>
            <trkpt lat="54.942690" lon="-7.776070">
                <time>2019-06-14T08:08:33Z</time>
            </trkpt>
            <trkpt lat="54.942650" lon="-7.776310">
                <time>2019-06-14T08:08:34Z</time>
            </trkpt>
            <trkpt lat="54.942610" lon="-7.776560">
                <time>2019-06-14T08:08:35Z</time>
            </trkpt>
            <trkpt lat="54.942560" lon="-7.776810">
                <time>2019-06-14T08:08:36Z</time>
            </trkpt>
            <trkpt lat="54.942520" lon="-7.777070">
                <time>2019-06-14T08:08:37Z</time>
            </trkpt>
            <trkpt lat="54.942470" lon="-7.777330">
                <time>2019-06-14T08:08:38Z</time>
            </trkpt>
            <trkpt lat="54.942430" lon="-7.777590">
                <time>2019-06-14T08:08:39Z</time>
            </trkpt>
            <trkpt lat="54.942380" lon="-7.777860">
                <time>2019-06-14T08:08:40Z</time>
            </trkpt>
            <trkpt lat="54.942330" lon="-7.778140">
                <time>2019-06-14T08:08:41Z</time>
            </trkpt>
            <trkpt lat="54.942290" lon="-7.778400">
                <time>2019-06-14T08:08:42Z</time>
            </trkpt>
            <trkpt lat="54.942250" lon="-7.778650">
                <time>2019-06-14T08:08:43Z</time>
            </trkpt>
            <trkpt lat="54.942200" lon="-7.778900">
                <time>2019-06-14T08:08:44Z</time>
            </trkpt>
            <trkpt lat="54.942160" lon="-7.779160">
                <time>2019-06-14T08:08:45Z</time>
            </trkpt>
            <trkpt lat="54.942120" lon="-7.779410">
                <time>2019-06-14T08:08:46Z</time>
            </trkpt>
            <trkpt lat="54.942070" lon="-7.779670">
                <time>2019-06-14T08:08:47Z</time>
            </trkpt>
            <trkpt lat="54.942020" lon="-7.779940">
                <time>2019-06-14T08:08:48Z</time>
            </trkpt>
            <trkpt lat="54.941970" lon="-7.780210">
                <time>2019-06-14T08:08:49Z</time>
            </trkpt>
            <trkpt lat="54.941930" lon="-7.780460">
                <time>2019-06-14T08:08:50Z</time>
            </trkpt>
            <trkpt lat="54.941890" lon="-7.780700">
                <time>2019-06-14T08:08:51Z</time>
            </trkpt>
            <trkpt lat="54.941840" lon="-7.780950">
                <time>2019-06-14T08:08:52Z</time>
            </trkpt>
            <trkpt lat="54.941780" lon="-7.781210">
                <time>2019-06-14T08:08:53Z</time>
            </trkpt>
            <trkpt lat="54.941730" lon="-7.781470">
                <time>2019-06-14T08:08:54Z</time>
            </trkpt>
            <trkpt lat="54.941670" lon="-7.781740">
                <time>2019-06-14T08:08:55Z</time>
            </trkpt>
            <trkpt lat="54.941600" lon="-7.782000">
                <time>2019-06-14T08:08:56Z</time>
            </trkpt>
            <trkpt lat="54.941530" lon="-7.782250">
                <time>2019-06-14T08:08:57Z</time>
            </trkpt>
            <trkpt lat="54.941450" lon="-7.782510">
                <time>2019-06-14T08:08:58Z</time>
            </trkpt>
            <trkpt lat="54.941370" lon="-7.782760">
                <time>2019-06-14T08:08:59Z</time>
            </trkpt>
            <trkpt lat="54.941270" lon="-7.783030">
                <time>2019-06-14T08:09:00Z</time>
            </trkpt>
            <trkpt lat="54.941170" lon="-7.783280">
                <time>2019-06-14T08:09:01Z</time>
            </trkpt>
            <trkpt lat="54.941070" lon="-7.783530">
                <time>2019-06-14T08:09:02Z</time>
            </trkpt>
            <trkpt lat="54.940960" lon="-7.783770">
                <time>2019-06-14T08:09:03Z</time>
            </trkpt>
            <trkpt lat="54.940840" lon="-7.784010">
                <time>2019-06-14T08:09:04Z</time>
            </trkpt>
            <trkpt lat="54.940720" lon="-7.784250">
                <time>2019-06-14T08:09:05Z</time>
            </trkpt>
            <trkpt lat="54.940590" lon="-7.784480">
                <time>2019-06-14T08:09:06Z</time>
            </trkpt>
            <trkpt lat="54.940450" lon="-7.784700">
                <time>2019-06-14T08:09:07Z</time>
            </trkpt>
            <trkpt lat="54.940310" lon="-7.784920">
                <time>2019-06-14T08:09:08Z</time>
            </trkpt>
            <trkpt lat="54.940160" lon="-7.785130">
                <time>2019-06-14T08:09:09Z</time>
            </trkpt>
            <trkpt lat="54.940010" lon="-7.785330">
                <time>2019-06-14T08:09:10Z</time>
            </trkpt>
            <trkpt lat="54.939860" lon="-7.785530">
                <time>2019-06-14T08:09:11Z</time>
            </trkpt>
            <trkpt lat="54.939720" lon="-7.785720">
                <time>2019-06-14T08:09:12Z</time>
            </trkpt>
            <trkpt lat="54.939580" lon="-7.785920">
                <time>2019-06-14T08:09:13Z</time>
            </trkpt>
            <trkpt lat="54.939460" lon="-7.786120">
                <time>2019-06-14T08:09:14Z</time>
            </trkpt>
            <trkpt lat="54.939340" lon="-7.786340">
                <time>2019-06-14T08:09:15Z</time>
            </trkpt>
            <trkpt lat="54.939220" lon="-7.786570">
                <time>2019-06-14T08:09:16Z</time>
            </trkpt>
            <trkpt lat="54.939110" lon="-7.786820">
                <time>2019-06-14T08:09:17Z</time>
            </trkpt>
            <trkpt lat="54.939010" lon="-7.787070">
                <time>2019-06-14T08:09:18Z</time>
            </trkpt>
            <trkpt lat="54.938900" lon="-7.787330">
                <time>2019-06-14T08:09:19Z</time>
            </trkpt>
            <trkpt lat="54.938810" lon="-7.787600">
                <time>2019-06-14T08:09:20Z</time>
            </trkpt>
            <trkpt lat="54.938710" lon="-7.787860">
                <time>2019-06-14T08:09:21Z</time>
            </trkpt>
            <trkpt lat="54.938610" lon="-7.788130">
                <time>2019-06-14T08:09:22Z</time>
            </trkpt>
            <trkpt lat="54.938520" lon="-7.788390">
                <time>2019-06-14T08:09:23Z</time>
            </trkpt>
            <trkpt lat="54.938420" lon="-7.788650">
                <time>2019-06-14T08:09:24Z</time>
            </trkpt>
            <trkpt lat="54.938320" lon="-7.788920">
                <time>2019-06-14T08:09:25Z</time>
            </trkpt>
            <trkpt lat="54.938220" lon="-7.789180">
                <time>2019-06-14T08:09:26Z</time>
            </trkpt>
            <trkpt lat="54.938120" lon="-7.789440">
                <time>2019-06-14T08:09:27Z</time>
            </trkpt>
            <trkpt lat="54.938020" lon="-7.789700">
                <time>2019-06-14T08:09:28Z</time>
            </trkpt>
            <trkpt lat="54.937920" lon="-7.789970">
                <time>2019-06-14T08:09:29Z</time>
            </trkpt>
            <trkpt lat="54.937820" lon="-7.790220">
                <time>2019-06-14T08:09:30Z</time>
            </trkpt>
            <trkpt lat="54.937730" lon="-7.790480">
                <time>2019-06-14T08:09:31Z</time>
            </trkpt>
            <trkpt lat="54.937630" lon="-7.790740">
                <time>2019-06-14T08:09:32Z</time>
            </trkpt>
            <trkpt lat="54.937540" lon="-7.790990">
                <time>2019-06-14T08:09:33Z</time>
            </trkpt>
            <trkpt lat="54.937440" lon="-7.791250">
                <time>2019-06-14T08:09:34Z</time>
            </trkpt>
            <trkpt lat="54.937340" lon="-7.791520">
                <time>2019-06-14T08:09:35Z</time>
            </trkpt>
            <trkpt lat="54.937230" lon="-7.791800">
                <time>2019-06-14T08:09:36Z</time>
            </trkpt>
            <trkpt lat="54.937130" lon="-7.792070">
                <time>2019-06-14T08:09:37Z</time>
            </trkpt>
            <trkpt lat="54.937030" lon="-7.792350">
                <time>2019-06-14T08:09:38Z</time>
            </trkpt>
            <trkpt lat="54.936930" lon="-7.792620">
                <time>2019-06-14T08:09:39Z</time>
            </trkpt>
            <trkpt lat="54.936830" lon="-7.792890">
                <time>2019-06-14T08:09:40Z</time>
            </trkpt>
            <trkpt lat="54.936720" lon="-7.793170">
                <time>2019-06-14T08:09:41Z</time>
            </trkpt>
            <trkpt lat="54.936620" lon="-7.793450">
                <time>2019-06-14T08:09:42Z</time>
            </trkpt>
            <trkpt lat="54.936510" lon="-7.793730">
                <time>2019-06-14T08:09:43Z</time>
            </trkpt>
            <trkpt lat="54.936410" lon="-7.794020">
                <time>2019-06-14T08:09:44Z</time>
            </trkpt>
            <trkpt lat="54.936290" lon="-7.794310">
                <time>2019-06-14T08:09:45Z</time>
            </trkpt>
            <trkpt lat="54.936170" lon="-7.794620">
                <time>2019-06-14T08:09:46Z</time>
            </trkpt>
            <trkpt lat="54.936040" lon="-7.794910">
                <time>2019-06-14T08:09:47Z</time>
            </trkpt>
            <trkpt lat="54.935900" lon="-7.795200">
                <time>2019-06-14T08:09:48Z</time>
            </trkpt>
            <trkpt lat="54.935770" lon="-7.795470">
                <time>2019-06-14T08:09:49Z</time>
            </trkpt>
            <trkpt lat="54.935640" lon="-7.795720">
                <time>2019-06-14T08:09:50Z</time>
            </trkpt>
            <trkpt lat="54.935500" lon="-7.795970">
                <time>2019-06-14T08:09:51Z</time>
            </trkpt>
            <trkpt lat="54.935370" lon="-7.796190">
                <time>2019-06-14T08:09:52Z</time>
            </trkpt>
            <trkpt lat="54.935230" lon="-7.796410">
                <time>2019-06-14T08:09:53Z</time>
            </trkpt>
            <trkpt lat="54.935080" lon="-7.796620">
                <time>2019-06-14T08:09:54Z</time>
            </trkpt>
            <trkpt lat="54.934940" lon="-7.796820">
                <time>2019-06-14T08:09:55Z</time>
            </trkpt>
            <trkpt lat="54.934790" lon="-7.797020">
                <time>2019-06-14T08:09:56Z</time>
            </trkpt>
            <trkpt lat="54.934650" lon="-7.797190">
                <time>2019-06-14T08:09:57Z</time>
            </trkpt>
            <trkpt lat="54.934490" lon="-7.797370">
                <time>2019-06-14T08:09:58Z</time>
            </trkpt>
            <trkpt lat="54.934310" lon="-7.797550">
                <time>2019-06-14T08:09:59Z</time>
            </trkpt>
            <trkpt lat="54.934120" lon="-7.797740">
                <time>2019-06-14T08:10:00Z</time>
            </trkpt>
            <trkpt lat="54.933930" lon="-7.797920">
                <time>2019-06-14T08:10:01Z</time>
            </trkpt>
            <trkpt lat="54.933740" lon="-7.798090">
                <time>2019-06-14T08:10:02Z</time>
            </trkpt>
            <trkpt lat="54.933560" lon="-7.798260">
                <time>2019-06-14T08:10:03Z</time>
            </trkpt>
            <trkpt lat="54.933380" lon="-7.798430">
                <time>2019-06-14T08:10:04Z</time>
            </trkpt>
            <trkpt lat="54.933210" lon="-7.798620">
                <time>2019-06-14T08:10:05Z</time>
            </trkpt>
            <trkpt lat="54.933020" lon="-7.798840">
                <time>2019-06-14T08:10:06Z</time>
            </trkpt>
            <trkpt lat="54.932830" lon="-7.799080">
                <time>2019-06-14T08:10:07Z</time>
            </trkpt>
            <trkpt lat="54.932640" lon="-7.799340">
                <time>2019-06-14T08:10:08Z</time>
            </trkpt>
            <trkpt lat="54.932470" lon="-7.799610">
                <time>2019-06-14T08:10:09Z</time>
            </trkpt>
            <trkpt lat="54.932300" lon="-7.799900">
                <time>2019-06-14T08:10:10Z</time>
            </trkpt>
            <trkpt lat="54.932130" lon="-7.800190">
                <time>2019-06-14T08:10:11Z</time>
            </trkpt>
            <trkpt lat="54.931980" lon="-7.800500">
                <time>2019-06-14T08:10:12Z</time>
            </trkpt>
            <trkpt lat="54.931830" lon="-7.800830">
                <time>2019-06-14T08:10:13Z</time>
            </trkpt>
            <trkpt lat="54.931680" lon="-7.801170">
                <time>2019-06-14T08:10:14Z</time>
            </trkpt>
            <trkpt lat="54.931550" lon="-7.801520">
                <time>2019-06-14T08:10:15Z</time>
            </trkpt>
            <trkpt lat="54.931420" lon="-7.801880">
                <time>2019-06-14T08:10:16Z</time>
            </trkpt>
            <trkpt lat="54.931290" lon="-7.802230">
                <time>2019-06-14T08:10:17Z</time>
            </trkpt>
            <trkpt lat="54.931170" lon="-7.802580">
                <time>2019-06-14T08:10:18Z</time>
            </trkpt>
            <trkpt lat="54.931040" lon="-7.802930">
                <time>2019-06-14T08:10:19Z</time>
            </trkpt>
            <trkpt lat="54.930930" lon="-7.803250">
                <time>2019-06-14T08:10:20Z</time>
            </trkpt>
            <trkpt lat="54.930810" lon="-7.803560">
                <time>2019-06-14T08:10:21Z</time>
            </trkpt>
            <trkpt lat="54.930690" lon="-7.803890">
                <time>2019-06-14T08:10:22Z</time>
            </trkpt>
            <trkpt lat="54.930580" lon="-7.804200">
                <time>2019-06-14T08:10:23Z</time>
            </trkpt>
            <trkpt lat="54.930480" lon="-7.804490">
                <time>2019-06-14T08:10:24Z</time>
            </trkpt>
            <trkpt lat="54.930370" lon="-7.804800">
                <time>2019-06-14T08:10:25Z</time>
            </trkpt>
            <trkpt lat="54.930270" lon="-7.805110">
                <time>2019-06-14T08:10:26Z</time>
            </trkpt>
            <trkpt lat="54.930170" lon="-7.805430">
                <time>2019-06-14T08:10:27Z</time>
            </trkpt>
            <trkpt lat="54.930070" lon="-7.805770">
                <time>2019-06-14T08:10:28Z</time>
            </trkpt>
            <trkpt lat="54.929980" lon="-7.806120">
                <time>2019-06-14T08:10:29Z</time>
            </trkpt>
            <trkpt lat="54.929920" lon="-7.806490">
                <time>2019-06-14T08:10:30Z</time>
            </trkpt>
            <trkpt lat="54.929870" lon="-7.806850">
                <time>2019-06-14T08:10:31Z</time>
            </trkpt>
            <trkpt lat="54.929840" lon="-7.807210">
                <time>2019-06-14T08:10:32Z</time>
            </trkpt>
            <trkpt lat="54.929820" lon="-7.807570">
                <time>2019-06-14T08:10:33Z</time>
            </trkpt>
            <trkpt lat="54.929800" lon="-7.807930">
                <time>2019-06-14T08:10:34Z</time>
            </trkpt>
            <trkpt lat="54.929790" lon="-7.808290">
                <time>2019-06-14T08:10:35Z</time>
            </trkpt>
            <trkpt lat="54.929770" lon="-7.808660">
                <time>2019-06-14T08:10:36Z</time>
            </trkpt>
            <trkpt lat="54.929740" lon="-7.809030">
                <time>2019-06-14T08:10:37Z</time>
            </trkpt>
            <trkpt lat="54.929710" lon="-7.809390">
                <time>2019-06-14T08:10:38Z</time>
            </trkpt>
            <trkpt lat="54.929670" lon="-7.809740">
                <time>2019-06-14T08:10:39Z</time>
            </trkpt>
            <trkpt lat="54.929640" lon="-7.810090">
                <time>2019-06-14T08:10:40Z</time>
            </trkpt>
            <trkpt lat="54.929600" lon="-7.810450">
                <time>2019-06-14T08:10:41Z</time>
            </trkpt>
            <trkpt lat="54.929560" lon="-7.810800">
                <time>2019-06-14T08:10:42Z</time>
            </trkpt>
            <trkpt lat="54.929530" lon="-7.811150">
                <time>2019-06-14T08:10:43Z</time>
            </trkpt>
            <trkpt lat="54.929490" lon="-7.811490">
                <time>2019-06-14T08:10:44Z</time>
            </trkpt>
            <trkpt lat="54.929460" lon="-7.811840">
                <time>2019-06-14T08:10:45Z</time>
            </trkpt>
            <trkpt lat="54.929440" lon="-7.812200">
                <time>2019-06-14T08:10:46Z</time>
            </trkpt>
            <trkpt lat="54.929450" lon="-7.812570">
                <time>2019-06-14T08:10:47Z</time>
            </trkpt>
            <trkpt lat="54.929470" lon="-7.812930">
                <time>2019-06-14T08:10:48Z</time>
            </trkpt>
            <trkpt lat="54.929510" lon="-7.813290">
                <time>2019-06-14T08:10:49Z</time>
            </trkpt>
            <trkpt lat="54.929570" lon="-7.813630">
                <time>2019-06-14T08:10:50Z</time>
            </trkpt>
            <trkpt lat="54.929650" lon="-7.813970">
                <time>2019-06-14T08:10:51Z</time>
            </trkpt>
            <trkpt lat="54.929730" lon="-7.814300">
                <time>2019-06-14T08:10:52Z</time>
            </trkpt>
            <trkpt lat="54.929810" lon="-7.814620">
                <time>2019-06-14T08:10:53Z</time>
            </trkpt>
            <trkpt lat="54.929910" lon="-7.814920">
                <time>2019-06-14T08:10:54Z</time>
            </trkpt>
            <trkpt lat="54.930030" lon="-7.815210">
                <time>2019-06-14T08:10:55Z</time>
            </trkpt>
            <trkpt lat="54.930160" lon="-7.815490">
                <time>2019-06-14T08:10:56Z</time>
            </trkpt>
            <trkpt lat="54.930310" lon="-7.815750">
                <time>2019-06-14T08:10:57Z</time>
            </trkpt>
            <trkpt lat="54.930480" lon="-7.815980">
                <time>2019-06-14T08:10:58Z</time>
            </trkpt>
            <trkpt lat="54.930660" lon="-7.816190">
                <time>2019-06-14T08:10:59Z</time>
            </trkpt>
            <trkpt lat="54.930840" lon="-7.816390">
                <time>2019-06-14T08:11:00Z</time>
            </trkpt>
            <trkpt lat="54.931010" lon="-7.816610">
                <time>2019-06-14T08:11:01Z</time>
            </trkpt>
            <trkpt lat="54.931160" lon="-7.816860">
                <time>2019-06-14T08:11:02Z</time>
            </trkpt>
            <trkpt lat="54.931290" lon="-7.817150">
                <time>2019-06-14T08:11:03Z</time>
            </trkpt>
            <trkpt lat="54.931410" lon="-7.817470">
                <time>2019-06-14T08:11:04Z</time>
            </trkpt>
            <trkpt lat="54.931500" lon="-7.817820">
                <time>2019-06-14T08:11:05Z</time>
            </trkpt>
            <trkpt lat="54.931580" lon="-7.818180">
                <time>2019-06-14T08:11:06Z</time>
            </trkpt>
            <trkpt lat="54.931650" lon="-7.818550">
                <time>2019-06-14T08:11:07Z</time>
            </trkpt>
            <trkpt lat="54.931710" lon="-7.818930">
                <time>2019-06-14T08:11:08Z</time>
            </trkpt>
            <trkpt lat="54.931770" lon="-7.819310">
                <time>2019-06-14T08:11:09Z</time>
            </trkpt>
            <trkpt lat="54.931830" lon="-7.819670">
                <time>2019-06-14T08:11:10Z</time>
            </trkpt>
            <trkpt lat="54.931910" lon="-7.820010">
                <time>2019-06-14T08:11:11Z</time>
            </trkpt>
            <trkpt lat="54.932020" lon="-7.820340">
                <time>2019-06-14T08:11:12Z</time>
            </trkpt>
            <trkpt lat="54.932140" lon="-7.820640">
                <time>2019-06-14T08:11:13Z</time>
            </trkpt>
            <trkpt lat="54.932280" lon="-7.820930">
                <time>2019-06-14T08:11:14Z</time>
            </trkpt>
            <trkpt lat="54.932430" lon="-7.821190">
                <time>2019-06-14T08:11:15Z</time>
            </trkpt>
            <trkpt lat="54.932590" lon="-7.821450">
                <time>2019-06-14T08:11:16Z</time>
            </trkpt>
            <trkpt lat="54.932750" lon="-7.821700">
                <time>2019-06-14T08:11:17Z</time>
            </trkpt>
            <trkpt lat="54.932920" lon="-7.821950">
                <time>2019-06-14T08:11:18Z</time>
            </trkpt>
            <trkpt lat="54.933080" lon="-7.822200">
                <time>2019-06-14T08:11:19Z</time>
            </trkpt>
            <trkpt lat="54.933250" lon="-7.822450">
                <time>2019-06-14T08:11:20Z</time>
            </trkpt>
            <trkpt lat="54.933420" lon="-7.822720">
                <time>2019-06-14T08:11:21Z</time>
            </trkpt>
            <trkpt lat="54.933590" lon="-7.822980">
                <time>2019-06-14T08:11:22Z</time>
            </trkpt>
            <trkpt lat="54.933760" lon="-7.823250">
                <time>2019-06-14T08:11:23Z</time>
            </trkpt>
            <trkpt lat="54.933930" lon="-7.823520">
                <time>2019-06-14T08:11:24Z</time>
            </trkpt>
            <trkpt lat="54.934090" lon="-7.823770">
                <time>2019-06-14T08:11:25Z</time>
            </trkpt>
            <trkpt lat="54.934230" lon="-7.824040">
                <time>2019-06-14T08:11:26Z</time>
            </trkpt>
            <trkpt lat="54.934360" lon="-7.824320">
                <time>2019-06-14T08:11:27Z</time>
            </trkpt>
            <trkpt lat="54.934480" lon="-7.824630">
                <time>2019-06-14T08:11:28Z</time>
            </trkpt>
            <trkpt lat="54.934570" lon="-7.824930">
                <time>2019-06-14T08:11:29Z</time>
            </trkpt>
            <trkpt lat="54.934640" lon="-7.825220">
                <time>2019-06-14T08:11:30Z</time>
            </trkpt>
            <trkpt lat="54.934710" lon="-7.825510">
                <time>2019-06-14T08:11:31Z</time>
            </trkpt>
            <trkpt lat="54.934780" lon="-7.825810">
                <time>2019-06-14T08:11:32Z</time>
            </trkpt>
            <trkpt lat="54.934870" lon="-7.826110">
                <time>2019-06-14T08:11:33Z</time>
            </trkpt>
            <trkpt lat="54.934980" lon="-7.826400">
                <time>2019-06-14T08:11:34Z</time>
            </trkpt>
            <trkpt lat="54.935100" lon="-7.826670">
                <time>2019-06-14T08:11:35Z</time>
            </trkpt>
            <trkpt lat="54.935230" lon="-7.826910">
                <time>2019-06-14T08:11:36Z</time>
            </trkpt>
            <trkpt lat="54.935380" lon="-7.827140">
                <time>2019-06-14T08:11:37Z</time>
            </trkpt>
            <trkpt lat="54.935530" lon="-7.827340">
                <time>2019-06-14T08:11:38Z</time>
            </trkpt>
            <trkpt lat="54.935690" lon="-7.827510">
                <time>2019-06-14T08:11:39Z</time>
            </trkpt>
            <trkpt lat="54.935860" lon="-7.827670">
                <time>2019-06-14T08:11:40Z</time>
            </trkpt>
            <trkpt lat="54.936030" lon="-7.827830">
                <time>2019-06-14T08:11:41Z</time>
            </trkpt>
            <trkpt lat="54.936190" lon="-7.828000">
                <time>2019-06-14T08:11:42Z</time>
            </trkpt>
            <trkpt lat="54.936340" lon="-7.828180">
                <time>2019-06-14T08:11:43Z</time>
            </trkpt>
            <trkpt lat="54.936480" lon="-7.828370">
                <time>2019-06-14T08:11:44Z</time>
            </trkpt>
            <trkpt lat="54.936620" lon="-7.828590">
                <time>2019-06-14T08:11:45Z</time>
            </trkpt>
            <trkpt lat="54.936760" lon="-7.828820">
                <time>2019-06-14T08:11:46Z</time>
            </trkpt>
            <trkpt lat="54.936880" lon="-7.829060">
                <time>2019-06-14T08:11:47Z</time>
            </trkpt>
            <trkpt lat="54.936990" lon="-7.829310">
                <time>2019-06-14T08:11:48Z</time>
            </trkpt>
            <trkpt lat="54.937100" lon="-7.829580">
                <time>2019-06-14T08:11:49Z</time>
            </trkpt>
            <trkpt lat="54.937200" lon="-7.829860">
                <time>2019-06-14T08:11:50Z</time>
            </trkpt>
            <trkpt lat="54.937310" lon="-7.830150">
                <time>2019-06-14T08:11:51Z</time>
            </trkpt>
            <trkpt lat="54.937410" lon="-7.830450">
                <time>2019-06-14T08:11:52Z</time>
            </trkpt>
            <trkpt lat="54.937510" lon="-7.830750">
                <time>2019-06-14T08:11:53Z</time>
            </trkpt>
            <trkpt lat="54.937600" lon="-7.831060">
                <time>2019-06-14T08:11:54Z</time>
            </trkpt>
            <trkpt lat="54.937700" lon="-7.831370">
                <time>2019-06-14T08:11:55Z</time>
            </trkpt>
            <trkpt lat="54.937790" lon="-7.831670">
                <time>2019-06-14T08:11:56Z</time>
            </trkpt>
            <trkpt lat="54.937880" lon="-7.831990">
                <time>2019-06-14T08:11:57Z</time>
            </trkpt>
            <trkpt lat="54.937970" lon="-7.832310">
                <time>2019-06-14T08:11:58Z</time>
            </trkpt>
            <trkpt lat="54.938050" lon="-7.832620">
                <time>2019-06-14T08:11:59Z</time>
            </trkpt>
            <trkpt lat="54.938120" lon="-7.832920">
                <time>2019-06-14T08:12:00Z</time>
            </trkpt>
            <trkpt lat="54.938180" lon="-7.833200">
                <time>2019-06-14T08:12:01Z</time>
            </trkpt>
            <trkpt lat="54.938230" lon="-7.833490">
                <time>2019-06-14T08:12:02Z</time>
            </trkpt>
            <trkpt lat="54.938270" lon="-7.833770">
                <time>2019-06-14T08:12:03Z</time>
            </trkpt>
            <trkpt lat="54.938300" lon="-7.834040">
                <time>2019-06-14T08:12:04Z</time>
            </trkpt>
            <trkpt lat="54.938330" lon="-7.834310">
                <time>2019-06-14T08:12:05Z</time>
            </trkpt>
            <trkpt lat="54.938360" lon="-7.834560">
                <time>2019-06-14T08:12:06Z</time>
            </trkpt>
            <trkpt lat="54.938390" lon="-7.834790">
                <time>2019-06-14T08:12:07Z</time>
            </trkpt>
            <trkpt lat="54.938420" lon="-7.835030">
                <time>2019-06-14T08:12:08Z</time>
            </trkpt>
            <trkpt lat="54.938470" lon="-7.835260">
                <time>2019-06-14T08:12:09Z</time>
            </trkpt>
            <trkpt lat="54.938520" lon="-7.835490">
                <time>2019-06-14T08:12:10Z</time>
            </trkpt>
            <trkpt lat="54.938590" lon="-7.835730">
                <time>2019-06-14T08:12:11Z</time>
            </trkpt>
            <trkpt lat="54.938680" lon="-7.835960">
                <time>2019-06-14T08:12:12Z</time>
            </trkpt>
            <trkpt lat="54.938780" lon="-7.836200">
                <time>2019-06-14T08:12:13Z</time>
            </trkpt>
            <trkpt lat="54.938900" lon="-7.836420">
                <time>2019-06-14T08:12:14Z</time>
            </trkpt>
            <trkpt lat="54.939030" lon="-7.836630">
                <time>2019-06-14T08:12:15Z</time>
            </trkpt>
            <trkpt lat="54.939170" lon="-7.836820">
                <time>2019-06-14T08:12:16Z</time>
            </trkpt>
            <trkpt lat="54.939320" lon="-7.836980">
                <time>2019-06-14T08:12:17Z</time>
            </trkpt>
            <trkpt lat="54.939490" lon="-7.837110">
                <time>2019-06-14T08:12:18Z</time>
            </trkpt>
            <trkpt lat="54.939670" lon="-7.837230">
                <time>2019-06-14T08:12:19Z</time>
            </trkpt>
            <trkpt lat="54.939850" lon="-7.837310">
                <time>2019-06-14T08:12:20Z</time>
            </trkpt>
            <trkpt lat="54.940030" lon="-7.837380">
                <time>2019-06-14T08:12:21Z</time>
            </trkpt>
            <trkpt lat="54.940230" lon="-7.837400">
                <time>2019-06-14T08:12:22Z</time>
            </trkpt>
            <trkpt lat="54.940420" lon="-7.837400">
                <time>2019-06-14T08:12:23Z</time>
            </trkpt>
            <trkpt lat="54.940600" lon="-7.837370">
                <time>2019-06-14T08:12:24Z</time>
            </trkpt>
            <trkpt lat="54.940780" lon="-7.837320">
                <time>2019-06-14T08:12:25Z</time>
            </trkpt>
            <trkpt lat="54.940950" lon="-7.837230">
                <time>2019-06-14T08:12:26Z</time>
            </trkpt>
            <trkpt lat="54.941110" lon="-7.837120">
                <time>2019-06-14T08:12:27Z</time>
            </trkpt>
            <trkpt lat="54.941280" lon="-7.836980">
                <time>2019-06-14T08:12:28Z</time>
            </trkpt>
            <trkpt lat="54.941440" lon="-7.836830">
                <time>2019-06-14T08:12:29Z</time>
            </trkpt>
            <trkpt lat="54.941590" lon="-7.836620">
                <time>2019-06-14T08:12:30Z</time>
            </trkpt>
            <trkpt lat="54.941740" lon="-7.836430">
                <time>2019-06-14T08:12:31Z</time>
            </trkpt>
            <trkpt lat="54.941910" lon="-7.836240">
                <time>2019-06-14T08:12:32Z</time>
            </trkpt>
            <trkpt lat="54.942070" lon="-7.836080">
                <time>2019-06-14T08:12:33Z</time>
            </trkpt>
            <trkpt lat="54.942220" lon="-7.835950">
                <time>2019-06-14T08:12:34Z</time>
            </trkpt>
            <trkpt lat="54.942380" lon="-7.835830">
                <time>2019-06-14T08:12:35Z</time>
            </trkpt>
            <trkpt lat="54.942550" lon="-7.835720">
                <time>2019-06-14T08:12:36Z</time>
            </trkpt>
            <trkpt lat="54.942720" lon="-7.835630">
                <time>2019-06-14T08:12:37Z</time>
            </trkpt>
            <trkpt lat="54.942910" lon="-7.835550">
                <time>2019-06-14T08:12:38Z</time>
            </trkpt>
            <trkpt lat="54.943100" lon="-7.835470">
                <time>2019-06-14T08:12:39Z</time>
            </trkpt>
            <trkpt lat="54.943300" lon="-7.835380">
                <time>2019-06-14T08:12:40Z</time>
            </trkpt>
            <trkpt lat="54.943500" lon="-7.835300">
                <time>2019-06-14T08:12:41Z</time>
            </trkpt>
            <trkpt lat="54.943730" lon="-7.835200">
                <time>2019-06-14T08:12:42Z</time>
            </trkpt>
            <trkpt lat="54.943960" lon="-7.835110">
                <time>2019-06-14T08:12:43Z</time>
            </trkpt>
            <trkpt lat="54.944200" lon="-7.835020">
                <time>2019-06-14T08:12:44Z</time>
            </trkpt>
            <trkpt lat="54.944430" lon="-7.834960">
                <time>2019-06-14T08:12:45Z</time>
            </trkpt>
            <trkpt lat="54.944650" lon="-7.834960">
                <time>2019-06-14T08:12:46Z</time>
            </trkpt>
            <trkpt lat="54.944850" lon="-7.834990">
                <time>2019-06-14T08:12:47Z</time>
            </trkpt>
            <trkpt lat="54.945040" lon="-7.835060">
                <time>2019-06-14T08:12:48Z</time>
            </trkpt>
            <trkpt lat="54.945230" lon="-7.835160">
                <time>2019-06-14T08:12:49Z</time>
            </trkpt>
            <trkpt lat="54.945420" lon="-7.835290">
                <time>2019-06-14T08:12:50Z</time>
            </trkpt>
            <trkpt lat="54.945590" lon="-7.835440">
                <time>2019-06-14T08:12:51Z</time>
            </trkpt>
            <trkpt lat="54.945770" lon="-7.835610">
                <time>2019-06-14T08:12:52Z</time>
            </trkpt>
            <trkpt lat="54.945930" lon="-7.835800">
                <time>2019-06-14T08:12:53Z</time>
            </trkpt>
            <trkpt lat="54.946100" lon="-7.836000">
                <time>2019-06-14T08:12:54Z</time>
            </trkpt>
            <trkpt lat="54.946260" lon="-7.836230">
                <time>2019-06-14T08:12:55Z</time>
            </trkpt>
            <trkpt lat="54.946400" lon="-7.836480">
                <time>2019-06-14T08:12:56Z</time>
            </trkpt>
            <trkpt lat="54.946530" lon="-7.836750">
                <time>2019-06-14T08:12:57Z</time>
            </trkpt>
            <trkpt lat="54.946650" lon="-7.837050">
                <time>2019-06-14T08:12:58Z</time>
            </trkpt>
            <trkpt lat="54.946770" lon="-7.837360">
                <time>2019-06-14T08:12:59Z</time>
            </trkpt>
            <trkpt lat="54.946870" lon="-7.837690">
                <time>2019-06-14T08:13:00Z</time>
            </trkpt>
            <trkpt lat="54.946950" lon="-7.838030">
                <time>2019-06-14T08:13:01Z</time>
            </trkpt>
            <trkpt lat="54.947020" lon="-7.838370">
                <time>2019-06-14T08:13:02Z</time>
            </trkpt>
            <trkpt lat="54.947090" lon="-7.838730">
                <time>2019-06-14T08:13:03Z</time>
            </trkpt>
            <trkpt lat="54.947170" lon="-7.839120">
                <time>2019-06-14T08:13:04Z</time>
            </trkpt>
            <trkpt lat="54.947240" lon="-7.839530">
                <time>2019-06-14T08:13:05Z</time>
            </trkpt>
            <trkpt lat="54.947320" lon="-7.839940">
                <time>2019-06-14T08:13:06Z</time>
            </trkpt>
            <trkpt lat="54.947400" lon="-7.840380">
                <time>2019-06-14T08:13:07Z</time>
            </trkpt>
            <trkpt lat="54.947490" lon="-7.840830">
                <time>2019-06-14T08:13:08Z</time>
            </trkpt>
            <trkpt lat="54.947580" lon="-7.841280">
                <time>2019-06-14T08:13:09Z</time>
            </trkpt>
            <trkpt lat="54.947660" lon="-7.841720">
                <time>2019-06-14T08:13:10Z</time>
            </trkpt>
            <trkpt lat="54.947740" lon="-7.842130">
                <time>2019-06-14T08:13:11Z</time>
            </trkpt>
            <trkpt lat="54.947820" lon="-7.842530">
                <time>2019-06-14T08:13:12Z</time>
            </trkpt>
            <trkpt lat="54.947910" lon="-7.842920">
                <time>2019-06-14T08:13:13Z</time>
            </trkpt>
            <trkpt lat="54.948010" lon="-7.843300">
                <time>2019-06-14T08:13:14Z</time>
            </trkpt>
            <trkpt lat="54.948120" lon="-7.843640">
                <time>2019-06-14T08:13:15Z</time>
            </trkpt>
            <trkpt lat="54.948230" lon="-7.843980">
                <time>2019-06-14T08:13:16Z</time>
            </trkpt>
            <trkpt lat="54.948350" lon="-7.844310">
                <time>2019-06-14T08:13:17Z</time>
            </trkpt>
            <trkpt lat="54.948490" lon="-7.844640">
                <time>2019-06-14T08:13:18Z</time>
            </trkpt>
            <trkpt lat="54.948640" lon="-7.844950">
                <time>2019-06-14T08:13:19Z</time>
            </trkpt>
            <trkpt lat="54.948780" lon="-7.845250">
                <time>2019-06-14T08:13:20Z</time>
            </trkpt>
            <trkpt lat="54.948920" lon="-7.845530">
                <time>2019-06-14T08:13:21Z</time>
            </trkpt>
            <trkpt lat="54.949070" lon="-7.845800">
                <time>2019-06-14T08:13:22Z</time>
            </trkpt>
            <trkpt lat="54.949220" lon="-7.846080">
                <time>2019-06-14T08:13:23Z</time>
            </trkpt>
            <trkpt lat="54.949370" lon="-7.846360">
                <time>2019-06-14T08:13:24Z</time>
            </trkpt>
            <trkpt lat="54.949530" lon="-7.846640">
                <time>2019-06-14T08:13:25Z</time>
            </trkpt>
            <trkpt lat="54.949680" lon="-7.846920">
                <time>2019-06-14T08:13:26Z</time>
            </trkpt>
            <trkpt lat="54.949830" lon="-7.847170">
                <time>2019-06-14T08:13:27Z</time>
            </trkpt>
            <trkpt lat="54.949970" lon="-7.847410">
                <time>2019-06-14T08:13:28Z</time>
            </trkpt>
            <trkpt lat="54.950110" lon="-7.847660">
                <time>2019-06-14T08:13:29Z</time>
            </trkpt>
            <trkpt lat="54.950260" lon="-7.847900">
                <time>2019-06-14T08:13:30Z</time>
            </trkpt>
            <trkpt lat="54.950410" lon="-7.848140">
                <time>2019-06-14T08:13:31Z</time>
            </trkpt>
            <trkpt lat="54.950570" lon="-7.848400">
                <time>2019-06-14T08:13:32Z</time>
            </trkpt>
            <trkpt lat="54.950730" lon="-7.848660">
                <time>2019-06-14T08:13:33Z</time>
            </trkpt>
            <trkpt lat="54.950890" lon="-7.848900">
                <time>2019-06-14T08:13:34Z</time>
            </trkpt>
            <trkpt lat="54.951060" lon="-7.849150">
                <time>2019-06-14T08:13:35Z</time>
            </trkpt>
            <trkpt lat="54.951210" lon="-7.849400">
                <time>2019-06-14T08:13:36Z</time>
            </trkpt>
            <trkpt lat="54.951370" lon="-7.849640">
                <time>2019-06-14T08:13:37Z</time>
            </trkpt>
            <trkpt lat="54.951530" lon="-7.849870">
                <time>2019-06-14T08:13:38Z</time>
            </trkpt>
            <trkpt lat="54.951690" lon="-7.850090">
                <time>2019-06-14T08:13:39Z</time>
            </trkpt>
            <trkpt lat="54.951850" lon="-7.850310">
                <time>2019-06-14T08:13:40Z</time>
            </trkpt>
            <trkpt lat="54.951990" lon="-7.850520">
                <time>2019-06-14T08:13:41Z</time>
            </trkpt>
            <trkpt lat="54.952140" lon="-7.850740">
                <time>2019-06-14T08:13:42Z</time>
            </trkpt>
            <trkpt lat="54.952290" lon="-7.850950">
                <time>2019-06-14T08:13:43Z</time>
            </trkpt>
            <trkpt lat="54.952440" lon="-7.851150">
                <time>2019-06-14T08:13:44Z</time>
            </trkpt>
            <trkpt lat="54.952600" lon="-7.851350">
                <time>2019-06-14T08:13:45Z</time>
            </trkpt>
            <trkpt lat="54.952760" lon="-7.851550">
                <time>2019-06-14T08:13:46Z</time>
            </trkpt>
            <trkpt lat="54.952930" lon="-7.851760">
                <time>2019-06-14T08:13:47Z</time>
            </trkpt>
            <trkpt lat="54.953090" lon="-7.851960">
                <time>2019-06-14T08:13:48Z</time>
            </trkpt>
            <trkpt lat="54.953260" lon="-7.852150">
                <time>2019-06-14T08:13:49Z</time>
            </trkpt>
            <trkpt lat="54.953430" lon="-7.852320">
                <time>2019-06-14T08:13:50Z</time>
            </trkpt>
            <trkpt lat="54.953610" lon="-7.852470">
                <time>2019-06-14T08:13:51Z</time>
            </trkpt>
            <trkpt lat="54.953780" lon="-7.852600">
                <time>2019-06-14T08:13:52Z</time>
            </trkpt>
            <trkpt lat="54.953960" lon="-7.852700">
                <time>2019-06-14T08:13:53Z</time>
            </trkpt>
            <trkpt lat="54.954150" lon="-7.852770">
                <time>2019-06-14T08:13:54Z</time>
            </trkpt>
            <trkpt lat="54.954340" lon="-7.852820">
                <time>2019-06-14T08:13:55Z</time>
            </trkpt>
            <trkpt lat="54.954550" lon="-7.852880">
                <time>2019-06-14T08:13:56Z</time>
            </trkpt>
            <trkpt lat="54.954750" lon="-7.852970">
                <time>2019-06-14T08:13:57Z</time>
            </trkpt>
            <trkpt lat="54.954950" lon="-7.853080">
                <time>2019-06-14T08:13:58Z</time>
            </trkpt>
            <trkpt lat="54.955140" lon="-7.853210">
                <time>2019-06-14T08:13:59Z</time>
            </trkpt>
            <trkpt lat="54.955320" lon="-7.853360">
                <time>2019-06-14T08:14:00Z</time>
            </trkpt>
            <trkpt lat="54.955510" lon="-7.853530">
                <time>2019-06-14T08:14:01Z</time>
            </trkpt>
            <trkpt lat="54.955680" lon="-7.853720">
                <time>2019-06-14T08:14:02Z</time>
            </trkpt>
            <trkpt lat="54.955850" lon="-7.853930">
                <time>2019-06-14T08:14:03Z</time>
            </trkpt>
            <trkpt lat="54.956010" lon="-7.854150">
                <time>2019-06-14T08:14:04Z</time>
            </trkpt>
            <trkpt lat="54.956170" lon="-7.854360">
                <time>2019-06-14T08:14:05Z</time>
            </trkpt>
            <trkpt lat="54.956320" lon="-7.854570">
                <time>2019-06-14T08:14:06Z</time>
            </trkpt>
            <trkpt lat="54.956470" lon="-7.854780">
                <time>2019-06-14T08:14:07Z</time>
            </trkpt>
            <trkpt lat="54.956620" lon="-7.854980">
                <time>2019-06-14T08:14:08Z</time>
            </trkpt>
            <trkpt lat="54.956780" lon="-7.855190">
                <time>2019-06-14T08:14:09Z</time>
            </trkpt>
            <trkpt lat="54.956940" lon="-7.855390">
                <time>2019-06-14T08:14:10Z</time>
            </trkpt>
            <trkpt lat="54.957090" lon="-7.855610">
                <time>2019-06-14T08:14:11Z</time>
            </trkpt>
            <trkpt lat="54.957250" lon="-7.855830">
                <time>2019-06-14T08:14:12Z</time>
            </trkpt>
            <trkpt lat="54.957410" lon="-7.856050">
                <time>2019-06-14T08:14:13Z</time>
            </trkpt>
            <trkpt lat="54.957570" lon="-7.856270">
                <time>2019-06-14T08:14:14Z</time>
            </trkpt>
            <trkpt lat="54.957730" lon="-7.856480">
                <time>2019-06-14T08:14:15Z</time>
            </trkpt>
            <trkpt lat="54.957880" lon="-7.856700">
                <time>2019-06-14T08:14:16Z</time>
            </trkpt>
            <trkpt lat="54.958040" lon="-7.856930">
                <time>2019-06-14T08:14:17Z</time>
            </trkpt>
            <trkpt lat="54.958190" lon="-7.857150">
                <time>2019-06-14T08:14:18Z</time>
            </trkpt>
            <trkpt lat="54.958340" lon="-7.857370">
                <time>2019-06-14T08:14:19Z</time>
            </trkpt>
            <trkpt lat="54.958490" lon="-7.857570">
                <time>2019-06-14T08:14:20Z</time>
            </trkpt>
            <trkpt lat="54.958620" lon="-7.857750">
                <time>2019-06-14T08:14:21Z</time>
            </trkpt>
            <trkpt lat="54.958750" lon="-7.857910">
                <time>2019-06-14T08:14:22Z</time>
            </trkpt>
            <trkpt lat="54.958860" lon="-7.858060">
                <time>2019-06-14T08:14:23Z</time>
            </trkpt>
            <trkpt lat="54.958960" lon="-7.858200">
                <time>2019-06-14T08:14:24Z</time>
            </trkpt>
            <trkpt lat="54.959060" lon="-7.858330">
                <time>2019-06-14T08:14:25Z</time>
            </trkpt>
            <trkpt lat="54.959150" lon="-7.858470">
                <time>2019-06-14T08:14:26Z</time>
            </trkpt>
            <trkpt lat="54.959250" lon="-7.858630">
                <time>2019-06-14T08:14:27Z</time>
            </trkpt>
            <trkpt lat="54.959350" lon="-7.858790">
                <time>2019-06-14T08:14:28Z</time>
            </trkpt>
            <trkpt lat="54.959460" lon="-7.858970">
                <time>2019-06-14T08:14:29Z</time>
            </trkpt>
            <trkpt lat="54.959560" lon="-7.859160">
                <time>2019-06-14T08:14:30Z</time>
            </trkpt>
            <trkpt lat="54.959660" lon="-7.859360">
                <time>2019-06-14T08:14:31Z</time>
            </trkpt>
            <trkpt lat="54.959770" lon="-7.859560">
                <time>2019-06-14T08:14:32Z</time>
            </trkpt>
            <trkpt lat="54.959870" lon="-7.859750">
                <time>2019-06-14T08:14:33Z</time>
            </trkpt>
            <trkpt lat="54.959960" lon="-7.859940">
                <time>2019-06-14T08:14:34Z</time>
            </trkpt>
            <trkpt lat="54.960050" lon="-7.860110">
                <time>2019-06-14T08:14:35Z</time>
            </trkpt>
            <trkpt lat="54.960150" lon="-7.860300">
                <time>2019-06-14T08:14:36Z</time>
            </trkpt>
            <trkpt lat="54.960240" lon="-7.860480">
                <time>2019-06-14T08:14:37Z</time>
            </trkpt>
            <trkpt lat="54.960320" lon="-7.860660">
                <time>2019-06-14T08:14:38Z</time>
            </trkpt>
            <trkpt lat="54.960410" lon="-7.860840">
                <time>2019-06-14T08:14:39Z</time>
            </trkpt>
            <trkpt lat="54.960500" lon="-7.861040">
                <time>2019-06-14T08:14:40Z</time>
            </trkpt>
            <trkpt lat="54.960590" lon="-7.861240">
                <time>2019-06-14T08:14:41Z</time>
            </trkpt>
            <trkpt lat="54.960680" lon="-7.861430">
                <time>2019-06-14T08:14:42Z</time>
            </trkpt>
            <trkpt lat="54.960770" lon="-7.861620">
                <time>2019-06-14T08:14:43Z</time>
            </trkpt>
            <trkpt lat="54.960850" lon="-7.861800">
                <time>2019-06-14T08:14:44Z</time>
            </trkpt>
            <trkpt lat="54.960940" lon="-7.861980">
                <time>2019-06-14T08:14:45Z</time>
            </trkpt>
            <trkpt lat="54.961030" lon="-7.862160">
                <time>2019-06-14T08:14:46Z</time>
            </trkpt>
            <trkpt lat="54.961110" lon="-7.862340">
                <time>2019-06-14T08:14:47Z</time>
            </trkpt>
            <trkpt lat="54.961190" lon="-7.862520">
                <time>2019-06-14T08:14:48Z</time>
            </trkpt>
            <trkpt lat="54.961270" lon="-7.862690">
                <time>2019-06-14T08:14:49Z</time>
            </trkpt>
            <trkpt lat="54.961350" lon="-7.862860">
                <time>2019-06-14T08:14:50Z</time>
            </trkpt>
            <trkpt lat="54.961430" lon="-7.863040">
                <time>2019-06-14T08:14:51Z</time>
            </trkpt>
            <trkpt lat="54.961510" lon="-7.863210">
                <time>2019-06-14T08:14:52Z</time>
            </trkpt>
            <trkpt lat="54.961600" lon="-7.863380">
                <time>2019-06-14T08:14:53Z</time>
            </trkpt>
            <trkpt lat="54.961680" lon="-7.863580">
                <time>2019-06-14T08:14:54Z</time>
            </trkpt>
            <trkpt lat="54.961740" lon="-7.863800">
                <time>2019-06-14T08:14:55Z</time>
            </trkpt>
            <trkpt lat="54.961770" lon="-7.864040">
                <time>2019-06-14T08:14:56Z</time>
            </trkpt>
            <trkpt lat="54.961790" lon="-7.864310">
                <time>2019-06-14T08:14:57Z</time>
            </trkpt>
            <trkpt lat="54.961810" lon="-7.864580">
                <time>2019-06-14T08:14:58Z</time>
            </trkpt>
            <trkpt lat="54.961810" lon="-7.864860">
                <time>2019-06-14T08:14:59Z</time>
            </trkpt>
            <trkpt lat="54.961820" lon="-7.865140">
                <time>2019-06-14T08:15:00Z</time>
            </trkpt>
            <trkpt lat="54.961830" lon="-7.865430">
                <time>2019-06-14T08:15:01Z</time>
            </trkpt>
            <trkpt lat="54.961840" lon="-7.865710">
                <time>2019-06-14T08:15:02Z</time>
            </trkpt>
            <trkpt lat="54.961850" lon="-7.865970">
                <time>2019-06-14T08:15:03Z</time>
            </trkpt>
            <trkpt lat="54.961860" lon="-7.866220">
                <time>2019-06-14T08:15:04Z</time>
            </trkpt>
            <trkpt lat="54.961890" lon="-7.866470">
                <time>2019-06-14T08:15:05Z</time>
            </trkpt>
            <trkpt lat="54.961940" lon="-7.866710">
                <time>2019-06-14T08:15:06Z</time>
            </trkpt>
            <trkpt lat="54.962000" lon="-7.866920">
                <time>2019-06-14T08:15:07Z</time>
            </trkpt>
            <trkpt lat="54.962080" lon="-7.867120">
                <time>2019-06-14T08:15:08Z</time>
            </trkpt>
            <trkpt lat="54.962170" lon="-7.867320">
                <time>2019-06-14T08:15:09Z</time>
            </trkpt>
            <trkpt lat="54.962270" lon="-7.867520">
                <time>2019-06-14T08:15:10Z</time>
            </trkpt>
            <trkpt lat="54.962380" lon="-7.867730">
                <time>2019-06-14T08:15:11Z</time>
            </trkpt>
            <trkpt lat="54.962500" lon="-7.867960">
                <time>2019-06-14T08:15:12Z</time>
            </trkpt>
            <trkpt lat="54.962630" lon="-7.868210">
                <time>2019-06-14T08:15:13Z</time>
            </trkpt>
            <trkpt lat="54.962760" lon="-7.868440">
                <time>2019-06-14T08:15:14Z</time>
            </trkpt>
            <trkpt lat="54.962880" lon="-7.868670">
                <time>2019-06-14T08:15:15Z</time>
            </trkpt>
            <trkpt lat="54.962990" lon="-7.868890">
                <time>2019-06-14T08:15:16Z</time>
            </trkpt>
            <trkpt lat="54.963100" lon="-7.869100">
                <time>2019-06-14T08:15:17Z</time>
            </trkpt>
            <trkpt lat="54.963210" lon="-7.869280">
                <time>2019-06-14T08:15:18Z</time>
            </trkpt>
            <trkpt lat="54.963320" lon="-7.869430">
                <time>2019-06-14T08:15:19Z</time>
            </trkpt>
            <trkpt lat="54.963440" lon="-7.869550">
                <time>2019-06-14T08:15:20Z</time>
            </trkpt>
            <trkpt lat="54.963580" lon="-7.869630">
                <time>2019-06-14T08:15:21Z</time>
            </trkpt>
            <trkpt lat="54.963730" lon="-7.869690">
                <time>2019-06-14T08:15:22Z</time>
            </trkpt>
            <trkpt lat="54.963880" lon="-7.869730">
                <time>2019-06-14T08:15:23Z</time>
            </trkpt>
            <trkpt lat="54.964040" lon="-7.869760">
                <time>2019-06-14T08:15:24Z</time>
            </trkpt>
            <trkpt lat="54.964200" lon="-7.869810">
                <time>2019-06-14T08:15:25Z</time>
            </trkpt>
            <trkpt lat="54.964370" lon="-7.869860">
                <time>2019-06-14T08:15:26Z</time>
            </trkpt>
            <trkpt lat="54.964530" lon="-7.869910">
                <time>2019-06-14T08:15:27Z</time>
            </trkpt>
            <trkpt lat="54.964670" lon="-7.869960">
                <time>2019-06-14T08:15:28Z</time>
            </trkpt>
            <trkpt lat="54.964810" lon="-7.870030">
                <time>2019-06-14T08:15:29Z</time>
            </trkpt>
            <trkpt lat="54.964940" lon="-7.870130">
                <time>2019-06-14T08:15:30Z</time>
            </trkpt>
            <trkpt lat="54.965060" lon="-7.870280">
                <time>2019-06-14T08:15:31Z</time>
            </trkpt>
            <trkpt lat="54.965180" lon="-7.870460">
                <time>2019-06-14T08:15:32Z</time>
            </trkpt>
            <trkpt lat="54.965290" lon="-7.870660">
                <time>2019-06-14T08:15:33Z</time>
            </trkpt>
            <trkpt lat="54.965400" lon="-7.870860">
                <time>2019-06-14T08:15:34Z</time>
            </trkpt>
            <trkpt lat="54.965520" lon="-7.871070">
                <time>2019-06-14T08:15:35Z</time>
            </trkpt>
            <trkpt lat="54.965640" lon="-7.871300">
                <time>2019-06-14T08:15:36Z</time>
            </trkpt>
            <trkpt lat="54.965760" lon="-7.871530">
                <time>2019-06-14T08:15:37Z</time>
            </trkpt>
            <trkpt lat="54.965880" lon="-7.871760">
                <time>2019-06-14T08:15:38Z</time>
            </trkpt>
            <trkpt lat="54.965990" lon="-7.872000">
                <time>2019-06-14T08:15:39Z</time>
            </trkpt>
            <trkpt lat="54.966100" lon="-7.872260">
                <time>2019-06-14T08:15:40Z</time>
            </trkpt>
            <trkpt lat="54.966210" lon="-7.872550">
                <time>2019-06-14T08:15:41Z</time>
            </trkpt>
            <trkpt lat="54.966320" lon="-7.872880">
                <time>2019-06-14T08:15:42Z</time>
            </trkpt>
            <trkpt lat="54.966440" lon="-7.873250">
                <time>2019-06-14T08:15:43Z</time>
            </trkpt>
            <trkpt lat="54.966560" lon="-7.873640">
                <time>2019-06-14T08:15:44Z</time>
            </trkpt>
            <trkpt lat="54.966680" lon="-7.874070">
                <time>2019-06-14T08:15:45Z</time>
            </trkpt>
            <trkpt lat="54.966800" lon="-7.874490">
                <time>2019-06-14T08:15:46Z</time>
            </trkpt>
            <trkpt lat="54.966920" lon="-7.874910">
                <time>2019-06-14T08:15:47Z</time>
            </trkpt>
            <trkpt lat="54.967030" lon="-7.875330">
                <time>2019-06-14T08:15:48Z</time>
            </trkpt>
            <trkpt lat="54.967150" lon="-7.875730">
                <time>2019-06-14T08:15:49Z</time>
            </trkpt>
            <trkpt lat="54.967260" lon="-7.876110">
                <time>2019-06-14T08:15:50Z</time>
            </trkpt>
            <trkpt lat="54.967370" lon="-7.876490">
                <time>2019-06-14T08:15:51Z</time>
            </trkpt>
            <trkpt lat="54.967470" lon="-7.876840">
                <time>2019-06-14T08:15:52Z</time>
            </trkpt>
            <trkpt lat="54.967560" lon="-7.877160">
                <time>2019-06-14T08:15:53Z</time>
            </trkpt>
            <trkpt lat="54.967650" lon="-7.877470">
                <time>2019-06-14T08:15:54Z</time>
            </trkpt>
            <trkpt lat="54.967720" lon="-7.877740">
                <time>2019-06-14T08:15:55Z</time>
            </trkpt>
            <trkpt lat="54.967800" lon="-7.878010">
                <time>2019-06-14T08:15:56Z</time>
            </trkpt>
            <trkpt lat="54.967880" lon="-7.878280">
                <time>2019-06-14T08:15:57Z</time>
            </trkpt>
            <trkpt lat="54.967960" lon="-7.878550">
                <time>2019-06-14T08:15:58Z</time>
            </trkpt>
            <trkpt lat="54.968050" lon="-7.878810">
                <time>2019-06-14T08:15:59Z</time>
            </trkpt>
            <trkpt lat="54.968140" lon="-7.879080">
                <time>2019-06-14T08:16:00Z</time>
            </trkpt>
            <trkpt lat="54.968240" lon="-7.879330">
                <time>2019-06-14T08:16:01Z</time>
            </trkpt>
            <trkpt lat="54.968350" lon="-7.879550">
                <time>2019-06-14T08:16:02Z</time>
            </trkpt>
            <trkpt lat="54.968480" lon="-7.879740">
                <time>2019-06-14T08:16:03Z</time>
            </trkpt>
            <trkpt lat="54.968620" lon="-7.879890">
                <time>2019-06-14T08:16:04Z</time>
            </trkpt>
            <trkpt lat="54.968760" lon="-7.880040">
                <time>2019-06-14T08:16:05Z</time>
            </trkpt>
            <trkpt lat="54.968880" lon="-7.880180">
                <time>2019-06-14T08:16:06Z</time>
            </trkpt>
            <trkpt lat="54.969010" lon="-7.880300">
                <time>2019-06-14T08:16:07Z</time>
            </trkpt>
            <trkpt lat="54.969140" lon="-7.880420">
                <time>2019-06-14T08:16:08Z</time>
            </trkpt>
            <trkpt lat="54.969270" lon="-7.880530">
                <time>2019-06-14T08:16:09Z</time>
            </trkpt>
            <trkpt lat="54.969390" lon="-7.880630">
                <time>2019-06-14T08:16:10Z</time>
            </trkpt>
            <trkpt lat="54.969510" lon="-7.880730">
                <time>2019-06-14T08:16:11Z</time>
            </trkpt>
            <trkpt lat="54.969600" lon="-7.880820">
                <time>2019-06-14T08:16:12Z</time>
            </trkpt>
            <trkpt lat="54.969690" lon="-7.880890">
                <time>2019-06-14T08:16:13Z</time>
            </trkpt>
            <trkpt lat="54.969760" lon="-7.880950">
                <time>2019-06-14T08:16:14Z</time>
            </trkpt>
            <trkpt lat="54.969820" lon="-7.881030">
                <time>2019-06-14T08:16:15Z</time>
            </trkpt>
            <trkpt lat="54.969870" lon="-7.881140">
                <time>2019-06-14T08:16:16Z</time>
            </trkpt>
            <trkpt lat="54.969900" lon="-7.881260">
                <time>2019-06-14T08:16:17Z</time>
            </trkpt>
            <trkpt lat="54.969920" lon="-7.881400">
                <time>2019-06-14T08:16:18Z</time>
            </trkpt>
            <trkpt lat="54.969940" lon="-7.881560">
                <time>2019-06-14T08:16:19Z</time>
            </trkpt>
            <trkpt lat="54.969960" lon="-7.881740">
                <time>2019-06-14T08:16:20Z</time>
            </trkpt>
            <trkpt lat="54.969980" lon="-7.881940">
                <time>2019-06-14T08:16:21Z</time>
            </trkpt>
            <trkpt lat="54.970000" lon="-7.882140">
                <time>2019-06-14T08:16:22Z</time>
            </trkpt>
            <trkpt lat="54.970020" lon="-7.882350">
                <time>2019-06-14T08:16:23Z</time>
            </trkpt>
            <trkpt lat="54.970040" lon="-7.882550">
                <time>2019-06-14T08:16:24Z</time>
            </trkpt>
            <trkpt lat="54.970060" lon="-7.882760">
                <time>2019-06-14T08:16:25Z</time>
            </trkpt>
            <trkpt lat="54.970080" lon="-7.882960">
                <time>2019-06-14T08:16:26Z</time>
            </trkpt>
            <trkpt lat="54.970100" lon="-7.883170">
                <time>2019-06-14T08:16:27Z</time>
            </trkpt>
            <trkpt lat="54.970120" lon="-7.883400">
                <time>2019-06-14T08:16:28Z</time>
            </trkpt>
            <trkpt lat="54.970140" lon="-7.883670">
                <time>2019-06-14T08:16:29Z</time>
            </trkpt>
            <trkpt lat="54.970170" lon="-7.883940">
                <time>2019-06-14T08:16:30Z</time>
            </trkpt>
            <trkpt lat="54.970190" lon="-7.884210">
                <time>2019-06-14T08:16:31Z</time>
            </trkpt>
            <trkpt lat="54.970220" lon="-7.884490">
                <time>2019-06-14T08:16:32Z</time>
            </trkpt>
            <trkpt lat="54.970240" lon="-7.884770">
                <time>2019-06-14T08:16:33Z</time>
            </trkpt>
            <trkpt lat="54.970260" lon="-7.885050">
                <time>2019-06-14T08:16:34Z</time>
            </trkpt>
            <trkpt lat="54.970280" lon="-7.885330">
                <time>2019-06-14T08:16:35Z</time>
            </trkpt>
            <trkpt lat="54.970300" lon="-7.885620">
                <time>2019-06-14T08:16:36Z</time>
            </trkpt>
            <trkpt lat="54.970310" lon="-7.885920">
                <time>2019-06-14T08:16:37Z</time>
            </trkpt>
            <trkpt lat="54.970330" lon="-7.886220">
                <time>2019-06-14T08:16:38Z</time>
            </trkpt>
            <trkpt lat="54.970340" lon="-7.886530">
                <time>2019-06-14T08:16:39Z</time>
            </trkpt>
            <trkpt lat="54.970360" lon="-7.886860">
                <time>2019-06-14T08:16:40Z</time>
            </trkpt>
            <trkpt lat="54.970370" lon="-7.887180">
                <time>2019-06-14T08:16:41Z</time>
            </trkpt>
            <trkpt lat="54.970390" lon="-7.887490">
                <time>2019-06-14T08:16:42Z</time>
            </trkpt>
            <trkpt lat="54.970400" lon="-7.887790">
                <time>2019-06-14T08:16:43Z</time>
            </trkpt>
            <trkpt lat="54.970410" lon="-7.888070">
                <time>2019-06-14T08:16:44Z</time>
            </trkpt>
            <trkpt lat="54.970410" lon="-7.888360">
                <time>2019-06-14T08:16:45Z</time>
            </trkpt>
            <trkpt lat="54.970410" lon="-7.888650">
                <time>2019-06-14T08:16:46Z</time>
            </trkpt>
            <trkpt lat="54.970410" lon="-7.888930">
                <time>2019-06-14T08:16:47Z</time>
            </trkpt>
            <trkpt lat="54.970410" lon="-7.889220">
                <time>2019-06-14T08:16:48Z</time>
            </trkpt>
            <trkpt lat="54.970410" lon="-7.889490">
                <time>2019-06-14T08:16:49Z</time>
            </trkpt>
            <trkpt lat="54.970400" lon="-7.889750">
                <time>2019-06-14T08:16:50Z</time>
            </trkpt>
            <trkpt lat="54.970400" lon="-7.889980">
                <time>2019-06-14T08:16:51Z</time>
            </trkpt>
            <trkpt lat="54.970410" lon="-7.890220">
                <time>2019-06-14T08:16:52Z</time>
            </trkpt>
            <trkpt lat="54.970420" lon="-7.890460">
                <time>2019-06-14T08:16:53Z</time>
            </trkpt>
            <trkpt lat="54.970430" lon="-7.890710">
                <time>2019-06-14T08:16:54Z</time>
            </trkpt>
            <trkpt lat="54.970440" lon="-7.890970">
                <time>2019-06-14T08:16:55Z</time>
            </trkpt>
            <trkpt lat="54.970450" lon="-7.891220">
                <time>2019-06-14T08:16:56Z</time>
            </trkpt>
            <trkpt lat="54.970480" lon="-7.891450">
                <time>2019-06-14T08:16:57Z</time>
            </trkpt>
            <trkpt lat="54.970530" lon="-7.891670">
                <time>2019-06-14T08:16:58Z</time>
            </trkpt>
            <trkpt lat="54.970610" lon="-7.891920">
                <time>2019-06-14T08:16:59Z</time>
            </trkpt>
            <trkpt lat="54.970700" lon="-7.892180">
                <time>2019-06-14T08:17:00Z</time>
            </trkpt>
            <trkpt lat="54.970790" lon="-7.892470">
                <time>2019-06-14T08:17:01Z</time>
            </trkpt>
            <trkpt lat="54.970880" lon="-7.892740">
                <time>2019-06-14T08:17:02Z</time>
            </trkpt>
            <trkpt lat="54.970970" lon="-7.893020">
                <time>2019-06-14T08:17:03Z</time>
            </trkpt>
            <trkpt lat="54.971050" lon="-7.893280">
                <time>2019-06-14T08:17:04Z</time>
            </trkpt>
            <trkpt lat="54.971130" lon="-7.893550">
                <time>2019-06-14T08:17:05Z</time>
            </trkpt>
            <trkpt lat="54.971200" lon="-7.893810">
                <time>2019-06-14T08:17:06Z</time>
            </trkpt>
            <trkpt lat="54.971280" lon="-7.894080">
                <time>2019-06-14T08:17:07Z</time>
            </trkpt>
            <trkpt lat="54.971350" lon="-7.894350">
                <time>2019-06-14T08:17:08Z</time>
            </trkpt>
            <trkpt lat="54.971430" lon="-7.894640">
                <time>2019-06-14T08:17:09Z</time>
            </trkpt>
            <trkpt lat="54.971500" lon="-7.894950">
                <time>2019-06-14T08:17:10Z</time>
            </trkpt>
            <trkpt lat="54.971560" lon="-7.895260">
                <time>2019-06-14T08:17:11Z</time>
            </trkpt>
            <trkpt lat="54.971630" lon="-7.895580">
                <time>2019-06-14T08:17:12Z</time>
            </trkpt>
            <trkpt lat="54.971690" lon="-7.895900">
                <time>2019-06-14T08:17:13Z</time>
            </trkpt>
            <trkpt lat="54.971760" lon="-7.896240">
                <time>2019-06-14T08:17:14Z</time>
            </trkpt>
            <trkpt lat="54.971820" lon="-7.896570">
                <time>2019-06-14T08:17:15Z</time>
            </trkpt>
            <trkpt lat="54.971890" lon="-7.896890">
                <time>2019-06-14T08:17:16Z</time>
            </trkpt>
            <trkpt lat="54.971960" lon="-7.897230">
                <time>2019-06-14T08:17:17Z</time>
            </trkpt>
            <trkpt lat="54.972030" lon="-7.897570">
                <time>2019-06-14T08:17:18Z</time>
            </trkpt>
            <trkpt lat="54.972100" lon="-7.897920">
                <time>2019-06-14T08:17:19Z</time>
            </trkpt>
            <trkpt lat="54.972170" lon="-7.898270">
                <time>2019-06-14T08:17:20Z</time>
            </trkpt>
            <trkpt lat="54.972230" lon="-7.898590">
                <time>2019-06-14T08:17:21Z</time>
            </trkpt>
            <trkpt lat="54.972290" lon="-7.898880">
                <time>2019-06-14T08:17:22Z</time>
            </trkpt>
            <trkpt lat="54.972330" lon="-7.899120">
                <time>2019-06-14T08:17:23Z</time>
            </trkpt>
            <trkpt lat="54.972370" lon="-7.899330">
                <time>2019-06-14T08:17:24Z</time>
            </trkpt>
            <trkpt lat="54.972390" lon="-7.899550">
                <time>2019-06-14T08:17:25Z</time>
            </trkpt>
            <trkpt lat="54.972410" lon="-7.899790">
                <time>2019-06-14T08:17:26Z</time>
            </trkpt>
            <trkpt lat="54.972420" lon="-7.900070">
                <time>2019-06-14T08:17:27Z</time>
            </trkpt>
            <trkpt lat="54.972430" lon="-7.900390">
                <time>2019-06-14T08:17:28Z</time>
            </trkpt>
            <trkpt lat="54.972450" lon="-7.900730">
                <time>2019-06-14T08:17:29Z</time>
            </trkpt>
            <trkpt lat="54.972470" lon="-7.901080">
                <time>2019-06-14T08:17:30Z</time>
            </trkpt>
            <trkpt lat="54.972490" lon="-7.901450">
                <time>2019-06-14T08:17:31Z</time>
            </trkpt>
            <trkpt lat="54.972510" lon="-7.901830">
                <time>2019-06-14T08:17:32Z</time>
            </trkpt>
            <trkpt lat="54.972520" lon="-7.902220">
                <time>2019-06-14T08:17:33Z</time>
            </trkpt>
            <trkpt lat="54.972550" lon="-7.902610">
                <time>2019-06-14T08:17:34Z</time>
            </trkpt>
            <trkpt lat="54.972560" lon="-7.903000">
                <time>2019-06-14T08:17:35Z</time>
            </trkpt>
            <trkpt lat="54.972580" lon="-7.903370">
                <time>2019-06-14T08:17:36Z</time>
            </trkpt>
            <trkpt lat="54.972600" lon="-7.903740">
                <time>2019-06-14T08:17:37Z</time>
            </trkpt>
            <trkpt lat="54.972630" lon="-7.904090">
                <time>2019-06-14T08:17:38Z</time>
            </trkpt>
            <trkpt lat="54.972660" lon="-7.904450">
                <time>2019-06-14T08:17:39Z</time>
            </trkpt>
            <trkpt lat="54.972700" lon="-7.904810">
                <time>2019-06-14T08:17:40Z</time>
            </trkpt>
            <trkpt lat="54.972740" lon="-7.905180">
                <time>2019-06-14T08:17:41Z</time>
            </trkpt>
            <trkpt lat="54.972780" lon="-7.905560">
                <time>2019-06-14T08:17:42Z</time>
            </trkpt>
            <trkpt lat="54.972820" lon="-7.905960">
                <time>2019-06-14T08:17:43Z</time>
            </trkpt>
            <trkpt lat="54.972850" lon="-7.906370">
                <time>2019-06-14T08:17:44Z</time>
            </trkpt>
            <trkpt lat="54.972860" lon="-7.906770">
                <time>2019-06-14T08:17:45Z</time>
            </trkpt>
            <trkpt lat="54.972870" lon="-7.907170">
                <time>2019-06-14T08:17:46Z</time>
            </trkpt>
            <trkpt lat="54.972890" lon="-7.907560">
                <time>2019-06-14T08:17:47Z</time>
            </trkpt>
            <trkpt lat="54.972910" lon="-7.907920">
                <time>2019-06-14T08:17:48Z</time>
            </trkpt>
            <trkpt lat="54.972930" lon="-7.908280">
                <time>2019-06-14T08:17:49Z</time>
            </trkpt>
            <trkpt lat="54.972950" lon="-7.908650">
                <time>2019-06-14T08:17:50Z</time>
            </trkpt>
            <trkpt lat="54.972980" lon="-7.909060">
                <time>2019-06-14T08:17:51Z</time>
            </trkpt>
            <trkpt lat="54.973000" lon="-7.909500">
                <time>2019-06-14T08:17:52Z</time>
            </trkpt>
            <trkpt lat="54.973030" lon="-7.909930">
                <time>2019-06-14T08:17:53Z</time>
            </trkpt>
            <trkpt lat="54.973040" lon="-7.910340">
                <time>2019-06-14T08:17:54Z</time>
            </trkpt>
            <trkpt lat="54.973050" lon="-7.910700">
                <time>2019-06-14T08:17:55Z</time>
            </trkpt>
            <trkpt lat="54.973070" lon="-7.911010">
                <time>2019-06-14T08:17:56Z</time>
            </trkpt>
            <trkpt lat="54.973110" lon="-7.911300">
                <time>2019-06-14T08:17:57Z</time>
            </trkpt>
            <trkpt lat="54.973160" lon="-7.911600">
                <time>2019-06-14T08:17:58Z</time>
            </trkpt>
            <trkpt lat="54.973210" lon="-7.911910">
                <time>2019-06-14T08:17:59Z</time>
            </trkpt>
            <trkpt lat="54.973280" lon="-7.912250">
                <time>2019-06-14T08:18:00Z</time>
            </trkpt>
            <trkpt lat="54.973340" lon="-7.912600">
                <time>2019-06-14T08:18:01Z</time>
            </trkpt>
            <trkpt lat="54.973410" lon="-7.912960">
                <time>2019-06-14T08:18:02Z</time>
            </trkpt>
            <trkpt lat="54.973490" lon="-7.913320">
                <time>2019-06-14T08:18:03Z</time>
            </trkpt>
            <trkpt lat="54.973580" lon="-7.913680">
                <time>2019-06-14T08:18:04Z</time>
            </trkpt>
            <trkpt lat="54.973670" lon="-7.914050">
                <time>2019-06-14T08:18:05Z</time>
            </trkpt>
            <trkpt lat="54.973770" lon="-7.914420">
                <time>2019-06-14T08:18:06Z</time>
            </trkpt>
            <trkpt lat="54.973870" lon="-7.914800">
                <time>2019-06-14T08:18:07Z</time>
            </trkpt>
            <trkpt lat="54.973980" lon="-7.915160">
                <time>2019-06-14T08:18:08Z</time>
            </trkpt>
            <trkpt lat="54.974080" lon="-7.915510">
                <time>2019-06-14T08:18:09Z</time>
            </trkpt>
            <trkpt lat="54.974200" lon="-7.915830">
                <time>2019-06-14T08:18:10Z</time>
            </trkpt>
            <trkpt lat="54.974310" lon="-7.916160">
                <time>2019-06-14T08:18:11Z</time>
            </trkpt>
            <trkpt lat="54.974420" lon="-7.916480">
                <time>2019-06-14T08:18:12Z</time>
            </trkpt>
            <trkpt lat="54.974530" lon="-7.916800">
                <time>2019-06-14T08:18:13Z</time>
            </trkpt>
            <trkpt lat="54.974630" lon="-7.917120">
                <time>2019-06-14T08:18:14Z</time>
            </trkpt>
            <trkpt lat="54.974730" lon="-7.917420">
                <time>2019-06-14T08:18:15Z</time>
            </trkpt>
            <trkpt lat="54.974820" lon="-7.917700">
                <time>2019-06-14T08:18:16Z</time>
            </trkpt>
            <trkpt lat="54.974900" lon="-7.917990">
                <time>2019-06-14T08:18:17Z</time>
            </trkpt>
            <trkpt lat="54.974980" lon="-7.918250">
                <time>2019-06-14T08:18:18Z</time>
            </trkpt>
            <trkpt lat="54.975030" lon="-7.918500">
                <time>2019-06-14T08:18:19Z</time>
            </trkpt>
            <trkpt lat="54.975070" lon="-7.918730">
                <time>2019-06-14T08:18:20Z</time>
            </trkpt>
            <trkpt lat="54.975080" lon="-7.918960">
                <time>2019-06-14T08:18:21Z</time>
            </trkpt>
            <trkpt lat="54.975050" lon="-7.919210">
                <time>2019-06-14T08:18:22Z</time>
            </trkpt>
            <trkpt lat="54.975010" lon="-7.919480">
                <time>2019-06-14T08:18:23Z</time>
            </trkpt>
            <trkpt lat="54.974970" lon="-7.919770">
                <time>2019-06-14T08:18:24Z</time>
            </trkpt>
            <trkpt lat="54.974930" lon="-7.920060">
                <time>2019-06-14T08:18:25Z</time>
            </trkpt>
            <trkpt lat="54.974900" lon="-7.920330">
                <time>2019-06-14T08:18:26Z</time>
            </trkpt>
            <trkpt lat="54.974870" lon="-7.920590">
                <time>2019-06-14T08:18:27Z</time>
            </trkpt>
            <trkpt lat="54.974860" lon="-7.920830">
                <time>2019-06-14T08:18:28Z</time>
            </trkpt>
            <trkpt lat="54.974880" lon="-7.921070">
                <time>2019-06-14T08:18:29Z</time>
            </trkpt>
            <trkpt lat="54.974920" lon="-7.921310">
                <time>2019-06-14T08:18:30Z</time>
            </trkpt>
            <trkpt lat="54.975000" lon="-7.921550">
                <time>2019-06-14T08:18:31Z</time>
            </trkpt>
            <trkpt lat="54.975090" lon="-7.921790">
                <time>2019-06-14T08:18:32Z</time>
            </trkpt>
            <trkpt lat="54.975180" lon="-7.922030">
                <time>2019-06-14T08:18:33Z</time>
            </trkpt>
            <trkpt lat="54.975290" lon="-7.922290">
                <time>2019-06-14T08:18:34Z</time>
            </trkpt>
            <trkpt lat="54.975400" lon="-7.922570">
                <time>2019-06-14T08:18:35Z</time>
            </trkpt>
            <trkpt lat="54.975510" lon="-7.922840">
                <time>2019-06-14T08:18:36Z</time>
            </trkpt>
            <trkpt lat="54.975610" lon="-7.923110">
                <time>2019-06-14T08:18:37Z</time>
            </trkpt>
            <trkpt lat="54.975710" lon="-7.923360">
                <time>2019-06-14T08:18:38Z</time>
            </trkpt>
            <trkpt lat="54.975810" lon="-7.923610">
                <time>2019-06-14T08:18:39Z</time>
            </trkpt>
            <trkpt lat="54.975910" lon="-7.923860">
                <time>2019-06-14T08:18:40Z</time>
            </trkpt>
            <trkpt lat="54.976020" lon="-7.924120">
                <time>2019-06-14T08:18:41Z</time>
            </trkpt>
            <trkpt lat="54.976140" lon="-7.924380">
                <time>2019-06-14T08:18:42Z</time>
            </trkpt>
            <trkpt lat="54.976250" lon="-7.924630">
                <time>2019-06-14T08:18:43Z</time>
            </trkpt>
            <trkpt lat="54.976350" lon="-7.924860">
                <time>2019-06-14T08:18:44Z</time>
            </trkpt>
            <trkpt lat="54.976420" lon="-7.925090">
                <time>2019-06-14T08:18:45Z</time>
            </trkpt>
            <trkpt lat="54.976480" lon="-7.925340">
                <time>2019-06-14T08:18:46Z</time>
            </trkpt>
            <trkpt lat="54.976520" lon="-7.925610">
                <time>2019-06-14T08:18:47Z</time>
            </trkpt>
            <trkpt lat="54.976570" lon="-7.925870">
                <time>2019-06-14T08:18:48Z</time>
            </trkpt>
            <trkpt lat="54.976620" lon="-7.926130">
                <time>2019-06-14T08:18:49Z</time>
            </trkpt>
            <trkpt lat="54.976660" lon="-7.926390">
                <time>2019-06-14T08:18:50Z</time>
            </trkpt>
            <trkpt lat="54.976720" lon="-7.926660">
                <time>2019-06-14T08:18:51Z</time>
            </trkpt>
            <trkpt lat="54.976780" lon="-7.926940">
                <time>2019-06-14T08:18:52Z</time>
            </trkpt>
            <trkpt lat="54.976850" lon="-7.927190">
                <time>2019-06-14T08:18:53Z</time>
            </trkpt>
            <trkpt lat="54.976930" lon="-7.927440">
                <time>2019-06-14T08:18:54Z</time>
            </trkpt>
            <trkpt lat="54.977010" lon="-7.927670">
                <time>2019-06-14T08:18:55Z</time>
            </trkpt>
            <trkpt lat="54.977100" lon="-7.927890">
                <time>2019-06-14T08:18:56Z</time>
            </trkpt>
            <trkpt lat="54.977200" lon="-7.928110">
                <time>2019-06-14T08:18:57Z</time>
            </trkpt>
            <trkpt lat="54.977300" lon="-7.928330">
                <time>2019-06-14T08:18:58Z</time>
            </trkpt>
            <trkpt lat="54.977400" lon="-7.928550">
                <time>2019-06-14T08:18:59Z</time>
            </trkpt>
            <trkpt lat="54.977500" lon="-7.928770">
                <time>2019-06-14T08:19:00Z</time>
            </trkpt>
            <trkpt lat="54.977600" lon="-7.928980">
                <time>2019-06-14T08:19:01Z</time>
            </trkpt>
            <trkpt lat="54.977680" lon="-7.929180">
                <time>2019-06-14T08:19:02Z</time>
            </trkpt>
            <trkpt lat="54.977760" lon="-7.929370">
                <time>2019-06-14T08:19:03Z</time>
            </trkpt>
            <trkpt lat="54.977840" lon="-7.929550">
                <time>2019-06-14T08:19:04Z</time>
            </trkpt>
            <trkpt lat="54.977920" lon="-7.929730">
                <time>2019-06-14T08:19:05Z</time>
            </trkpt>
            <trkpt lat="54.978000" lon="-7.929910">
                <time>2019-06-14T08:19:06Z</time>
            </trkpt>
            <trkpt lat="54.978070" lon="-7.930080">
                <time>2019-06-14T08:19:07Z</time>
            </trkpt>
            <trkpt lat="54.978130" lon="-7.930240">
                <time>2019-06-14T08:19:08Z</time>
            </trkpt>
            <trkpt lat="54.978180" lon="-7.930370">
                <time>2019-06-14T08:19:09Z</time>
            </trkpt>
            <trkpt lat="54.978210" lon="-7.930460">
                <time>2019-06-14T08:19:10Z</time>
            </trkpt>
            <trkpt lat="54.978220" lon="-7.930520">
                <time>2019-06-14T08:19:11Z</time>
            </trkpt>
            <trkpt lat="54.978230" lon="-7.930580">
                <time>2019-06-14T08:19:12Z</time>
            </trkpt>
            <trkpt lat="54.978230" lon="-7.930630">
                <time>2019-06-14T08:19:13Z</time>
            </trkpt>
            <trkpt lat="54.978230" lon="-7.930640">
                <time>2019-06-14T08:19:14Z</time>
            </trkpt>
            <trkpt lat="54.978230" lon="-7.930640">
                <time>2019-06-14T08:19:15Z</time>
            </trkpt>
            <trkpt lat="54.978230" lon="-7.930660">
                <time>2019-06-14T08:19:16Z</time>
            </trkpt>
            <trkpt lat="54.978230" lon="-7.930730">
                <time>2019-06-14T08:19:17Z</time>
            </trkpt>
            <trkpt lat="54.978200" lon="-7.930840">
                <time>2019-06-14T08:19:18Z</time>
            </trkpt>
            <trkpt lat="54.978140" lon="-7.930960">
                <time>2019-06-14T08:19:19Z</time>
            </trkpt>
            <trkpt lat="54.978060" lon="-7.931110">
                <time>2019-06-14T08:19:20Z</time>
            </trkpt>
            <trkpt lat="54.977970" lon="-7.931290">
                <time>2019-06-14T08:19:21Z</time>
            </trkpt>
            <trkpt lat="54.977860" lon="-7.931530">
                <time>2019-06-14T08:19:22Z</time>
            </trkpt>
            <trkpt lat="54.977730" lon="-7.931790">
                <time>2019-06-14T08:19:23Z</time>
            </trkpt>
            <trkpt lat="54.977590" lon="-7.932060">
                <time>2019-06-14T08:19:24Z</time>
            </trkpt>
            <trkpt lat="54.977450" lon="-7.932340">
                <time>2019-06-14T08:19:25Z</time>
            </trkpt>
            <trkpt lat="54.977310" lon="-7.932640">
                <time>2019-06-14T08:19:26Z</time>
            </trkpt>
            <trkpt lat="54.977170" lon="-7.932940">
                <time>2019-06-14T08:19:27Z</time>
            </trkpt>
            <trkpt lat="54.977020" lon="-7.933250">
                <time>2019-06-14T08:19:28Z</time>
            </trkpt>
            <trkpt lat="54.976880" lon="-7.933550">
                <time>2019-06-14T08:19:29Z</time>
            </trkpt>
            <trkpt lat="54.976740" lon="-7.933840">
                <time>2019-06-14T08:19:30Z</time>
            </trkpt>
            <trkpt lat="54.976590" lon="-7.934130">
                <time>2019-06-14T08:19:31Z</time>
            </trkpt>
            <trkpt lat="54.976450" lon="-7.934430">
                <time>2019-06-14T08:19:32Z</time>
            </trkpt>
            <trkpt lat="54.976300" lon="-7.934740">
                <time>2019-06-14T08:19:33Z</time>
            </trkpt>
            <trkpt lat="54.976150" lon="-7.935040">
                <time>2019-06-14T08:19:34Z</time>
            </trkpt>
            <trkpt lat="54.976010" lon="-7.935350">
                <time>2019-06-14T08:19:35Z</time>
            </trkpt>
            <trkpt lat="54.975860" lon="-7.935660">
                <time>2019-06-14T08:19:36Z</time>
            </trkpt>
            <trkpt lat="54.975710" lon="-7.935970">
                <time>2019-06-14T08:19:37Z</time>
            </trkpt>
            <trkpt lat="54.975570" lon="-7.936270">
                <time>2019-06-14T08:19:38Z</time>
            </trkpt>
            <trkpt lat="54.975430" lon="-7.936570">
                <time>2019-06-14T08:19:39Z</time>
            </trkpt>
            <trkpt lat="54.975300" lon="-7.936840">
                <time>2019-06-14T08:19:40Z</time>
            </trkpt>
            <trkpt lat="54.975180" lon="-7.937110">
                <time>2019-06-14T08:19:41Z</time>
            </trkpt>
            <trkpt lat="54.975050" lon="-7.937370">
                <time>2019-06-14T08:19:42Z</time>
            </trkpt>
            <trkpt lat="54.974930" lon="-7.937630">
                <time>2019-06-14T08:19:43Z</time>
            </trkpt>
            <trkpt lat="54.974810" lon="-7.937890">
                <time>2019-06-14T08:19:44Z</time>
            </trkpt>
            <trkpt lat="54.974680" lon="-7.938150">
                <time>2019-06-14T08:19:45Z</time>
            </trkpt>
            <trkpt lat="54.974550" lon="-7.938420">
                <time>2019-06-14T08:19:46Z</time>
            </trkpt>
            <trkpt lat="54.974430" lon="-7.938680">
                <time>2019-06-14T08:19:47Z</time>
            </trkpt>
            <trkpt lat="54.974320" lon="-7.938920">
                <time>2019-06-14T08:19:48Z</time>
            </trkpt>
            <trkpt lat="54.974200" lon="-7.939140">
                <time>2019-06-14T08:19:49Z</time>
            </trkpt>
            <trkpt lat="54.974090" lon="-7.939370">
                <time>2019-06-14T08:19:50Z</time>
            </trkpt>
            <trkpt lat="54.973970" lon="-7.939620">
                <time>2019-06-14T08:19:51Z</time>
            </trkpt>
            <trkpt lat="54.973850" lon="-7.939870">
                <time>2019-06-14T08:19:52Z</time>
            </trkpt>
            <trkpt lat="54.973740" lon="-7.940090">
                <time>2019-06-14T08:19:53Z</time>
            </trkpt>
            <trkpt lat="54.973630" lon="-7.940300">
                <time>2019-06-14T08:19:54Z</time>
            </trkpt>
            <trkpt lat="54.973520" lon="-7.940490">
                <time>2019-06-14T08:19:55Z</time>
            </trkpt>
            <trkpt lat="54.973400" lon="-7.940660">
                <time>2019-06-14T08:19:56Z</time>
            </trkpt>
            <trkpt lat="54.973270" lon="-7.940800">
                <time>2019-06-14T08:19:57Z</time>
            </trkpt>
            <trkpt lat="54.973150" lon="-7.940910">
                <time>2019-06-14T08:19:58Z</time>
            </trkpt>
            <trkpt lat="54.973040" lon="-7.941020">
                <time>2019-06-14T08:19:59Z</time>
            </trkpt>
            <trkpt lat="54.972950" lon="-7.941150">
                <time>2019-06-14T08:20:00Z</time>
            </trkpt>
            <trkpt lat="54.972880" lon="-7.941300">
                <time>2019-06-14T08:20:01Z</time>
            </trkpt>
            <trkpt lat="54.972800" lon="-7.941490">
                <time>2019-06-14T08:20:02Z</time>
            </trkpt>
            <trkpt lat="54.972750" lon="-7.941690">
                <time>2019-06-14T08:20:03Z</time>
            </trkpt>
            <trkpt lat="54.972700" lon="-7.941900">
                <time>2019-06-14T08:20:04Z</time>
            </trkpt>
            <trkpt lat="54.972630" lon="-7.942090">
                <time>2019-06-14T08:20:05Z</time>
            </trkpt>
            <trkpt lat="54.972550" lon="-7.942270">
                <time>2019-06-14T08:20:06Z</time>
            </trkpt>
            <trkpt lat="54.972440" lon="-7.942430">
                <time>2019-06-14T08:20:07Z</time>
            </trkpt>
            <trkpt lat="54.972330" lon="-7.942590">
                <time>2019-06-14T08:20:08Z</time>
            </trkpt>
            <trkpt lat="54.972220" lon="-7.942740">
                <time>2019-06-14T08:20:09Z</time>
            </trkpt>
            <trkpt lat="54.972120" lon="-7.942890">
                <time>2019-06-14T08:20:10Z</time>
            </trkpt>
            <trkpt lat="54.972050" lon="-7.943060">
                <time>2019-06-14T08:20:11Z</time>
            </trkpt>
            <trkpt lat="54.971970" lon="-7.943230">
                <time>2019-06-14T08:20:12Z</time>
            </trkpt>
            <trkpt lat="54.971900" lon="-7.943460">
                <time>2019-06-14T08:20:13Z</time>
            </trkpt>
            <trkpt lat="54.971820" lon="-7.943710">
                <time>2019-06-14T08:20:14Z</time>
            </trkpt>
            <trkpt lat="54.971740" lon="-7.943970">
                <time>2019-06-14T08:20:15Z</time>
            </trkpt>
            <trkpt lat="54.971660" lon="-7.944220">
                <time>2019-06-14T08:20:16Z</time>
            </trkpt>
            <trkpt lat="54.971570" lon="-7.944460">
                <time>2019-06-14T08:20:17Z</time>
            </trkpt>
            <trkpt lat="54.971480" lon="-7.944710">
                <time>2019-06-14T08:20:18Z</time>
            </trkpt>
            <trkpt lat="54.971370" lon="-7.944940">
                <time>2019-06-14T08:20:19Z</time>
            </trkpt>
            <trkpt lat="54.971250" lon="-7.945170">
                <time>2019-06-14T08:20:20Z</time>
            </trkpt>
            <trkpt lat="54.971130" lon="-7.945390">
                <time>2019-06-14T08:20:21Z</time>
            </trkpt>
            <trkpt lat="54.971010" lon="-7.945600">
                <time>2019-06-14T08:20:22Z</time>
            </trkpt>
            <trkpt lat="54.970900" lon="-7.945820">
                <time>2019-06-14T08:20:23Z</time>
            </trkpt>
            <trkpt lat="54.970790" lon="-7.946080">
                <time>2019-06-14T08:20:24Z</time>
            </trkpt>
            <trkpt lat="54.970690" lon="-7.946370">
                <time>2019-06-14T08:20:25Z</time>
            </trkpt>
            <trkpt lat="54.970590" lon="-7.946680">
                <time>2019-06-14T08:20:26Z</time>
            </trkpt>
            <trkpt lat="54.970480" lon="-7.947020">
                <time>2019-06-14T08:20:27Z</time>
            </trkpt>
            <trkpt lat="54.970370" lon="-7.947380">
                <time>2019-06-14T08:20:28Z</time>
            </trkpt>
            <trkpt lat="54.970260" lon="-7.947730">
                <time>2019-06-14T08:20:29Z</time>
            </trkpt>
            <trkpt lat="54.970160" lon="-7.948070">
                <time>2019-06-14T08:20:30Z</time>
            </trkpt>
            <trkpt lat="54.970070" lon="-7.948410">
                <time>2019-06-14T08:20:31Z</time>
            </trkpt>
            <trkpt lat="54.969970" lon="-7.948740">
                <time>2019-06-14T08:20:32Z</time>
            </trkpt>
            <trkpt lat="54.969860" lon="-7.949070">
                <time>2019-06-14T08:20:33Z</time>
            </trkpt>
            <trkpt lat="54.969770" lon="-7.949410">
                <time>2019-06-14T08:20:34Z</time>
            </trkpt>
            <trkpt lat="54.969660" lon="-7.949760">
                <time>2019-06-14T08:20:35Z</time>
            </trkpt>
            <trkpt lat="54.969550" lon="-7.950090">
                <time>2019-06-14T08:20:36Z</time>
            </trkpt>
            <trkpt lat="54.969450" lon="-7.950440">
                <time>2019-06-14T08:20:37Z</time>
            </trkpt>
            <trkpt lat="54.969350" lon="-7.950760">
                <time>2019-06-14T08:20:38Z</time>
            </trkpt>
            <trkpt lat="54.969260" lon="-7.951060">
                <time>2019-06-14T08:20:39Z</time>
            </trkpt>
            <trkpt lat="54.969170" lon="-7.951340">
                <time>2019-06-14T08:20:40Z</time>
            </trkpt>
            <trkpt lat="54.969090" lon="-7.951610">
                <time>2019-06-14T08:20:41Z</time>
            </trkpt>
            <trkpt lat="54.969020" lon="-7.951840">
                <time>2019-06-14T08:20:42Z</time>
            </trkpt>
            <trkpt lat="54.968970" lon="-7.952050">
                <time>2019-06-14T08:20:43Z</time>
            </trkpt>
            <trkpt lat="54.968910" lon="-7.952280">
                <time>2019-06-14T08:20:44Z</time>
            </trkpt>
            <trkpt lat="54.968860" lon="-7.952530">
                <time>2019-06-14T08:20:45Z</time>
            </trkpt>
            <trkpt lat="54.968820" lon="-7.952790">
                <time>2019-06-14T08:20:46Z</time>
            </trkpt>
            <trkpt lat="54.968770" lon="-7.953070">
                <time>2019-06-14T08:20:47Z</time>
            </trkpt>
            <trkpt lat="54.968730" lon="-7.953370">
                <time>2019-06-14T08:20:48Z</time>
            </trkpt>
            <trkpt lat="54.968690" lon="-7.953680">
                <time>2019-06-14T08:20:49Z</time>
            </trkpt>
            <trkpt lat="54.968660" lon="-7.953980">
                <time>2019-06-14T08:20:50Z</time>
            </trkpt>
            <trkpt lat="54.968640" lon="-7.954280">
                <time>2019-06-14T08:20:51Z</time>
            </trkpt>
            <trkpt lat="54.968630" lon="-7.954590">
                <time>2019-06-14T08:20:52Z</time>
            </trkpt>
            <trkpt lat="54.968630" lon="-7.954910">
                <time>2019-06-14T08:20:53Z</time>
            </trkpt>
            <trkpt lat="54.968630" lon="-7.955230">
                <time>2019-06-14T08:20:54Z</time>
            </trkpt>
            <trkpt lat="54.968650" lon="-7.955540">
                <time>2019-06-14T08:20:55Z</time>
            </trkpt>
            <trkpt lat="54.968660" lon="-7.955850">
                <time>2019-06-14T08:20:56Z</time>
            </trkpt>
            <trkpt lat="54.968680" lon="-7.956180">
                <time>2019-06-14T08:20:57Z</time>
            </trkpt>
            <trkpt lat="54.968690" lon="-7.956510">
                <time>2019-06-14T08:20:58Z</time>
            </trkpt>
            <trkpt lat="54.968700" lon="-7.956840">
                <time>2019-06-14T08:20:59Z</time>
            </trkpt>
            <trkpt lat="54.968700" lon="-7.957160">
                <time>2019-06-14T08:21:00Z</time>
            </trkpt>
            <trkpt lat="54.968710" lon="-7.957480">
                <time>2019-06-14T08:21:01Z</time>
            </trkpt>
            <trkpt lat="54.968700" lon="-7.957790">
                <time>2019-06-14T08:21:02Z</time>
            </trkpt>
            <trkpt lat="54.968700" lon="-7.958110">
                <time>2019-06-14T08:21:03Z</time>
            </trkpt>
            <trkpt lat="54.968690" lon="-7.958430">
                <time>2019-06-14T08:21:04Z</time>
            </trkpt>
            <trkpt lat="54.968670" lon="-7.958740">
                <time>2019-06-14T08:21:05Z</time>
            </trkpt>
            <trkpt lat="54.968660" lon="-7.959050">
                <time>2019-06-14T08:21:06Z</time>
            </trkpt>
            <trkpt lat="54.968640" lon="-7.959340">
                <time>2019-06-14T08:21:07Z</time>
            </trkpt>
            <trkpt lat="54.968610" lon="-7.959610">
                <time>2019-06-14T08:21:08Z</time>
            </trkpt>
            <trkpt lat="54.968590" lon="-7.959880">
                <time>2019-06-14T08:21:09Z</time>
            </trkpt>
            <trkpt lat="54.968560" lon="-7.960160">
                <time>2019-06-14T08:21:10Z</time>
            </trkpt>
            <trkpt lat="54.968530" lon="-7.960450">
                <time>2019-06-14T08:21:11Z</time>
            </trkpt>
            <trkpt lat="54.968500" lon="-7.960730">
                <time>2019-06-14T08:21:12Z</time>
            </trkpt>
            <trkpt lat="54.968470" lon="-7.961050">
                <time>2019-06-14T08:21:13Z</time>
            </trkpt>
            <trkpt lat="54.968440" lon="-7.961370">
                <time>2019-06-14T08:21:14Z</time>
            </trkpt>
            <trkpt lat="54.968410" lon="-7.961690">
                <time>2019-06-14T08:21:15Z</time>
            </trkpt>
            <trkpt lat="54.968370" lon="-7.962010">
                <time>2019-06-14T08:21:16Z</time>
            </trkpt>
            <trkpt lat="54.968330" lon="-7.962320">
                <time>2019-06-14T08:21:17Z</time>
            </trkpt>
            <trkpt lat="54.968290" lon="-7.962610">
                <time>2019-06-14T08:21:18Z</time>
            </trkpt>
            <trkpt lat="54.968260" lon="-7.962890">
                <time>2019-06-14T08:21:19Z</time>
            </trkpt>
            <trkpt lat="54.968240" lon="-7.963150">
                <time>2019-06-14T08:21:20Z</time>
            </trkpt>
            <trkpt lat="54.968200" lon="-7.963420">
                <time>2019-06-14T08:21:21Z</time>
            </trkpt>
            <trkpt lat="54.968170" lon="-7.963730">
                <time>2019-06-14T08:21:22Z</time>
            </trkpt>
            <trkpt lat="54.968130" lon="-7.964060">
                <time>2019-06-14T08:21:23Z</time>
            </trkpt>
            <trkpt lat="54.968090" lon="-7.964390">
                <time>2019-06-14T08:21:24Z</time>
            </trkpt>
            <trkpt lat="54.968060" lon="-7.964700">
                <time>2019-06-14T08:21:25Z</time>
            </trkpt>
            <trkpt lat="54.968030" lon="-7.964990">
                <time>2019-06-14T08:21:26Z</time>
            </trkpt>
            <trkpt lat="54.968030" lon="-7.965270">
                <time>2019-06-14T08:21:27Z</time>
            </trkpt>
            <trkpt lat="54.968050" lon="-7.965540">
                <time>2019-06-14T08:21:28Z</time>
            </trkpt>
            <trkpt lat="54.968090" lon="-7.965820">
                <time>2019-06-14T08:21:29Z</time>
            </trkpt>
            <trkpt lat="54.968140" lon="-7.966110">
                <time>2019-06-14T08:21:30Z</time>
            </trkpt>
            <trkpt lat="54.968190" lon="-7.966410">
                <time>2019-06-14T08:21:31Z</time>
            </trkpt>
            <trkpt lat="54.968240" lon="-7.966690">
                <time>2019-06-14T08:21:32Z</time>
            </trkpt>
            <trkpt lat="54.968300" lon="-7.966940">
                <time>2019-06-14T08:21:33Z</time>
            </trkpt>
            <trkpt lat="54.968360" lon="-7.967170">
                <time>2019-06-14T08:21:34Z</time>
            </trkpt>
            <trkpt lat="54.968410" lon="-7.967360">
                <time>2019-06-14T08:21:35Z</time>
            </trkpt>
            <trkpt lat="54.968450" lon="-7.967560">
                <time>2019-06-14T08:21:36Z</time>
            </trkpt>
            <trkpt lat="54.968470" lon="-7.967770">
                <time>2019-06-14T08:21:37Z</time>
            </trkpt>
            <trkpt lat="54.968490" lon="-7.967990">
                <time>2019-06-14T08:21:38Z</time>
            </trkpt>
            <trkpt lat="54.968490" lon="-7.968220">
                <time>2019-06-14T08:21:39Z</time>
            </trkpt>
            <trkpt lat="54.968490" lon="-7.968460">
                <time>2019-06-14T08:21:40Z</time>
            </trkpt>
            <trkpt lat="54.968470" lon="-7.968670">
                <time>2019-06-14T08:21:41Z</time>
            </trkpt>
            <trkpt lat="54.968450" lon="-7.968870">
                <time>2019-06-14T08:21:42Z</time>
            </trkpt>
            <trkpt lat="54.968430" lon="-7.969070">
                <time>2019-06-14T08:21:43Z</time>
            </trkpt>
            <trkpt lat="54.968400" lon="-7.969250">
                <time>2019-06-14T08:21:44Z</time>
            </trkpt>
            <trkpt lat="54.968370" lon="-7.969420">
                <time>2019-06-14T08:21:45Z</time>
            </trkpt>
            <trkpt lat="54.968340" lon="-7.969580">
                <time>2019-06-14T08:21:46Z</time>
            </trkpt>
            <trkpt lat="54.968310" lon="-7.969750">
                <time>2019-06-14T08:21:47Z</time>
            </trkpt>
            <trkpt lat="54.968280" lon="-7.969930">
                <time>2019-06-14T08:21:48Z</time>
            </trkpt>
            <trkpt lat="54.968250" lon="-7.970120">
                <time>2019-06-14T08:21:49Z</time>
            </trkpt>
            <trkpt lat="54.968230" lon="-7.970320">
                <time>2019-06-14T08:21:50Z</time>
            </trkpt>
            <trkpt lat="54.968220" lon="-7.970500">
                <time>2019-06-14T08:21:51Z</time>
            </trkpt>
            <trkpt lat="54.968220" lon="-7.970690">
                <time>2019-06-14T08:21:52Z</time>
            </trkpt>
            <trkpt lat="54.968230" lon="-7.970890">
                <time>2019-06-14T08:21:53Z</time>
            </trkpt>
            <trkpt lat="54.968250" lon="-7.971090">
                <time>2019-06-14T08:21:54Z</time>
            </trkpt>
            <trkpt lat="54.968270" lon="-7.971290">
                <time>2019-06-14T08:21:55Z</time>
            </trkpt>
            <trkpt lat="54.968300" lon="-7.971490">
                <time>2019-06-14T08:21:56Z</time>
            </trkpt>
            <trkpt lat="54.968330" lon="-7.971690">
                <time>2019-06-14T08:21:57Z</time>
            </trkpt>
            <trkpt lat="54.968360" lon="-7.971880">
                <time>2019-06-14T08:21:58Z</time>
            </trkpt>
            <trkpt lat="54.968390" lon="-7.972070">
                <time>2019-06-14T08:21:59Z</time>
            </trkpt>
            <trkpt lat="54.968420" lon="-7.972250">
                <time>2019-06-14T08:22:00Z</time>
            </trkpt>
            <trkpt lat="54.968440" lon="-7.972460">
                <time>2019-06-14T08:22:01Z</time>
            </trkpt>
            <trkpt lat="54.968470" lon="-7.972670">
                <time>2019-06-14T08:22:02Z</time>
            </trkpt>
            <trkpt lat="54.968490" lon="-7.972900">
                <time>2019-06-14T08:22:03Z</time>
            </trkpt>
            <trkpt lat="54.968510" lon="-7.973150">
                <time>2019-06-14T08:22:04Z</time>
            </trkpt>
            <trkpt lat="54.968530" lon="-7.973380">
                <time>2019-06-14T08:22:05Z</time>
            </trkpt>
            <trkpt lat="54.968550" lon="-7.973600">
                <time>2019-06-14T08:22:06Z</time>
            </trkpt>
            <trkpt lat="54.968550" lon="-7.973790">
                <time>2019-06-14T08:22:07Z</time>
            </trkpt>
            <trkpt lat="54.968560" lon="-7.973960">
                <time>2019-06-14T08:22:08Z</time>
            </trkpt>
            <trkpt lat="54.968570" lon="-7.974100">
                <time>2019-06-14T08:22:09Z</time>
            </trkpt>
            <trkpt lat="54.968580" lon="-7.974230">
                <time>2019-06-14T08:22:10Z</time>
            </trkpt>
            <trkpt lat="54.968580" lon="-7.974350">
                <time>2019-06-14T08:22:11Z</time>
            </trkpt>
            <trkpt lat="54.968580" lon="-7.974460">
                <time>2019-06-14T08:22:12Z</time>
            </trkpt>
            <trkpt lat="54.968580" lon="-7.974600">
                <time>2019-06-14T08:22:13Z</time>
            </trkpt>
            <trkpt lat="54.968580" lon="-7.974750">
                <time>2019-06-14T08:22:14Z</time>
            </trkpt>
            <trkpt lat="54.968580" lon="-7.974920">
                <time>2019-06-14T08:22:15Z</time>
            </trkpt>
            <trkpt lat="54.968580" lon="-7.975120">
                <time>2019-06-14T08:22:16Z</time>
            </trkpt>
            <trkpt lat="54.968580" lon="-7.975340">
                <time>2019-06-14T08:22:17Z</time>
            </trkpt>
            <trkpt lat="54.968580" lon="-7.975590">
                <time>2019-06-14T08:22:18Z</time>
            </trkpt>
            <trkpt lat="54.968590" lon="-7.975840">
                <time>2019-06-14T08:22:19Z</time>
            </trkpt>
            <trkpt lat="54.968600" lon="-7.976100">
                <time>2019-06-14T08:22:20Z</time>
            </trkpt>
            <trkpt lat="54.968620" lon="-7.976350">
                <time>2019-06-14T08:22:21Z</time>
            </trkpt>
            <trkpt lat="54.968630" lon="-7.976610">
                <time>2019-06-14T08:22:22Z</time>
            </trkpt>
            <trkpt lat="54.968650" lon="-7.976870">
                <time>2019-06-14T08:22:23Z</time>
            </trkpt>
            <trkpt lat="54.968670" lon="-7.977100">
                <time>2019-06-14T08:22:24Z</time>
            </trkpt>
            <trkpt lat="54.968700" lon="-7.977320">
                <time>2019-06-14T08:22:25Z</time>
            </trkpt>
            <trkpt lat="54.968730" lon="-7.977520">
                <time>2019-06-14T08:22:26Z</time>
            </trkpt>
            <trkpt lat="54.968750" lon="-7.977720">
                <time>2019-06-14T08:22:27Z</time>
            </trkpt>
            <trkpt lat="54.968780" lon="-7.977920">
                <time>2019-06-14T08:22:28Z</time>
            </trkpt>
            <trkpt lat="54.968820" lon="-7.978130">
                <time>2019-06-14T08:22:29Z</time>
            </trkpt>
            <trkpt lat="54.968860" lon="-7.978340">
                <time>2019-06-14T08:22:30Z</time>
            </trkpt>
            <trkpt lat="54.968920" lon="-7.978540">
                <time>2019-06-14T08:22:31Z</time>
            </trkpt>
            <trkpt lat="54.968980" lon="-7.978740">
                <time>2019-06-14T08:22:32Z</time>
            </trkpt>
            <trkpt lat="54.969040" lon="-7.978930">
                <time>2019-06-14T08:22:33Z</time>
            </trkpt>
            <trkpt lat="54.969110" lon="-7.979100">
                <time>2019-06-14T08:22:34Z</time>
            </trkpt>
            <trkpt lat="54.969180" lon="-7.979270">
                <time>2019-06-14T08:22:35Z</time>
            </trkpt>
            <trkpt lat="54.969250" lon="-7.979420">
                <time>2019-06-14T08:22:36Z</time>
            </trkpt>
            <trkpt lat="54.969330" lon="-7.979560">
                <time>2019-06-14T08:22:37Z</time>
            </trkpt>
            <trkpt lat="54.969400" lon="-7.979700">
                <time>2019-06-14T08:22:38Z</time>
            </trkpt>
            <trkpt lat="54.969480" lon="-7.979840">
                <time>2019-06-14T08:22:39Z</time>
            </trkpt>
            <trkpt lat="54.969560" lon="-7.979970">
                <time>2019-06-14T08:22:40Z</time>
            </trkpt>
            <trkpt lat="54.969640" lon="-7.980090">
                <time>2019-06-14T08:22:41Z</time>
            </trkpt>
            <trkpt lat="54.969730" lon="-7.980220">
                <time>2019-06-14T08:22:42Z</time>
            </trkpt>
            <trkpt lat="54.969820" lon="-7.980340">
                <time>2019-06-14T08:22:43Z</time>
            </trkpt>
            <trkpt lat="54.969910" lon="-7.980460">
                <time>2019-06-14T08:22:44Z</time>
            </trkpt>
            <trkpt lat="54.970000" lon="-7.980580">
                <time>2019-06-14T08:22:45Z</time>
            </trkpt>
            <trkpt lat="54.970100" lon="-7.980700">
                <time>2019-06-14T08:22:46Z</time>
            </trkpt>
            <trkpt lat="54.970190" lon="-7.980810">
                <time>2019-06-14T08:22:47Z</time>
            </trkpt>
            <trkpt lat="54.970290" lon="-7.980920">
                <time>2019-06-14T08:22:48Z</time>
            </trkpt>
            <trkpt lat="54.970390" lon="-7.981050">
                <time>2019-06-14T08:22:49Z</time>
            </trkpt>
            <trkpt lat="54.970480" lon="-7.981170">
                <time>2019-06-14T08:22:50Z</time>
            </trkpt>
            <trkpt lat="54.970570" lon="-7.981300">
                <time>2019-06-14T08:22:51Z</time>
            </trkpt>
            <trkpt lat="54.970660" lon="-7.981450">
                <time>2019-06-14T08:22:52Z</time>
            </trkpt>
            <trkpt lat="54.970750" lon="-7.981600">
                <time>2019-06-14T08:22:53Z</time>
            </trkpt>
            <trkpt lat="54.970830" lon="-7.981780">
                <time>2019-06-14T08:22:54Z</time>
            </trkpt>
            <trkpt lat="54.970920" lon="-7.981970">
                <time>2019-06-14T08:22:55Z</time>
            </trkpt>
            <trkpt lat="54.970990" lon="-7.982180">
                <time>2019-06-14T08:22:56Z</time>
            </trkpt>
            <trkpt lat="54.971070" lon="-7.982400">
                <time>2019-06-14T08:22:57Z</time>
            </trkpt>
            <trkpt lat="54.971140" lon="-7.982630">
                <time>2019-06-14T08:22:58Z</time>
            </trkpt>
            <trkpt lat="54.971190" lon="-7.982870">
                <time>2019-06-14T08:22:59Z</time>
            </trkpt>
            <trkpt lat="54.971250" lon="-7.983110">
                <time>2019-06-14T08:23:00Z</time>
            </trkpt>
            <trkpt lat="54.971290" lon="-7.983350">
                <time>2019-06-14T08:23:01Z</time>
            </trkpt>
            <trkpt lat="54.971340" lon="-7.983590">
                <time>2019-06-14T08:23:02Z</time>
            </trkpt>
            <trkpt lat="54.971380" lon="-7.983840">
                <time>2019-06-14T08:23:03Z</time>
            </trkpt>
            <trkpt lat="54.971410" lon="-7.984110">
                <time>2019-06-14T08:23:04Z</time>
            </trkpt>
            <trkpt lat="54.971440" lon="-7.984390">
                <time>2019-06-14T08:23:05Z</time>
            </trkpt>
            <trkpt lat="54.971470" lon="-7.984680">
                <time>2019-06-14T08:23:06Z</time>
            </trkpt>
            <trkpt lat="54.971490" lon="-7.984970">
                <time>2019-06-14T08:23:07Z</time>
            </trkpt>
            <trkpt lat="54.971510" lon="-7.985270">
                <time>2019-06-14T08:23:08Z</time>
            </trkpt>
            <trkpt lat="54.971540" lon="-7.985560">
                <time>2019-06-14T08:23:09Z</time>
            </trkpt>
            <trkpt lat="54.971560" lon="-7.985860">
                <time>2019-06-14T08:23:10Z</time>
            </trkpt>
            <trkpt lat="54.971580" lon="-7.986160">
                <time>2019-06-14T08:23:11Z</time>
            </trkpt>
            <trkpt lat="54.971600" lon="-7.986460">
                <time>2019-06-14T08:23:12Z</time>
            </trkpt>
            <trkpt lat="54.971630" lon="-7.986760">
                <time>2019-06-14T08:23:13Z</time>
            </trkpt>
            <trkpt lat="54.971650" lon="-7.987060">
                <time>2019-06-14T08:23:14Z</time>
            </trkpt>
            <trkpt lat="54.971670" lon="-7.987370">
                <time>2019-06-14T08:23:15Z</time>
            </trkpt>
            <trkpt lat="54.971690" lon="-7.987690">
                <time>2019-06-14T08:23:16Z</time>
            </trkpt>
            <trkpt lat="54.971720" lon="-7.988030">
                <time>2019-06-14T08:23:17Z</time>
            </trkpt>
            <trkpt lat="54.971750" lon="-7.988400">
                <time>2019-06-14T08:23:18Z</time>
            </trkpt>
            <trkpt lat="54.971780" lon="-7.988810">
                <time>2019-06-14T08:23:19Z</time>
            </trkpt>
            <trkpt lat="54.971820" lon="-7.989220">
                <time>2019-06-14T08:23:20Z</time>
            </trkpt>
            <trkpt lat="54.971850" lon="-7.989630">
                <time>2019-06-14T08:23:21Z</time>
            </trkpt>
            <trkpt lat="54.971880" lon="-7.990030">
                <time>2019-06-14T08:23:22Z</time>
            </trkpt>
            <trkpt lat="54.971910" lon="-7.990400">
                <time>2019-06-14T08:23:23Z</time>
            </trkpt>
            <trkpt lat="54.971930" lon="-7.990740">
                <time>2019-06-14T08:23:24Z</time>
            </trkpt>
            <trkpt lat="54.971950" lon="-7.991070">
                <time>2019-06-14T08:23:25Z</time>
            </trkpt>
            <trkpt lat="54.971970" lon="-7.991410">
                <time>2019-06-14T08:23:26Z</time>
            </trkpt>
            <trkpt lat="54.971970" lon="-7.991750">
                <time>2019-06-14T08:23:27Z</time>
            </trkpt>
            <trkpt lat="54.971970" lon="-7.992110">
                <time>2019-06-14T08:23:28Z</time>
            </trkpt>
            <trkpt lat="54.971970" lon="-7.992470">
                <time>2019-06-14T08:23:29Z</time>
            </trkpt>
            <trkpt lat="54.971970" lon="-7.992840">
                <time>2019-06-14T08:23:30Z</time>
            </trkpt>
            <trkpt lat="54.971970" lon="-7.993200">
                <time>2019-06-14T08:23:31Z</time>
            </trkpt>
            <trkpt lat="54.971970" lon="-7.993530">
                <time>2019-06-14T08:23:32Z</time>
            </trkpt>
            <trkpt lat="54.971980" lon="-7.993870">
                <time>2019-06-14T08:23:33Z</time>
            </trkpt>
            <trkpt lat="54.971990" lon="-7.994210">
                <time>2019-06-14T08:23:34Z</time>
            </trkpt>
            <trkpt lat="54.972000" lon="-7.994550">
                <time>2019-06-14T08:23:35Z</time>
            </trkpt>
            <trkpt lat="54.972010" lon="-7.994880">
                <time>2019-06-14T08:23:36Z</time>
            </trkpt>
            <trkpt lat="54.972030" lon="-7.995220">
                <time>2019-06-14T08:23:37Z</time>
            </trkpt>
            <trkpt lat="54.972050" lon="-7.995540">
                <time>2019-06-14T08:23:38Z</time>
            </trkpt>
            <trkpt lat="54.972080" lon="-7.995860">
                <time>2019-06-14T08:23:39Z</time>
            </trkpt>
            <trkpt lat="54.972110" lon="-7.996170">
                <time>2019-06-14T08:23:40Z</time>
            </trkpt>
            <trkpt lat="54.972140" lon="-7.996490">
                <time>2019-06-14T08:23:41Z</time>
            </trkpt>
            <trkpt lat="54.972170" lon="-7.996810">
                <time>2019-06-14T08:23:42Z</time>
            </trkpt>
            <trkpt lat="54.972210" lon="-7.997130">
                <time>2019-06-14T08:23:43Z</time>
            </trkpt>
            <trkpt lat="54.972260" lon="-7.997460">
                <time>2019-06-14T08:23:44Z</time>
            </trkpt>
            <trkpt lat="54.972310" lon="-7.997780">
                <time>2019-06-14T08:23:45Z</time>
            </trkpt>
            <trkpt lat="54.972370" lon="-7.998100">
                <time>2019-06-14T08:23:46Z</time>
            </trkpt>
            <trkpt lat="54.972430" lon="-7.998410">
                <time>2019-06-14T08:23:47Z</time>
            </trkpt>
            <trkpt lat="54.972490" lon="-7.998710">
                <time>2019-06-14T08:23:48Z</time>
            </trkpt>
            <trkpt lat="54.972550" lon="-7.999020">
                <time>2019-06-14T08:23:49Z</time>
            </trkpt>
            <trkpt lat="54.972610" lon="-7.999330">
                <time>2019-06-14T08:23:50Z</time>
            </trkpt>
            <trkpt lat="54.972680" lon="-7.999650">
                <time>2019-06-14T08:23:51Z</time>
            </trkpt>
            <trkpt lat="54.972740" lon="-7.999970">
                <time>2019-06-14T08:23:52Z</time>
            </trkpt>
            <trkpt lat="54.972790" lon="-8.000300">
                <time>2019-06-14T08:23:53Z</time>
            </trkpt>
            <trkpt lat="54.972840" lon="-8.000610">
                <time>2019-06-14T08:23:54Z</time>
            </trkpt>
            <trkpt lat="54.972880" lon="-8.000920">
                <time>2019-06-14T08:23:55Z</time>
            </trkpt>
            <trkpt lat="54.972920" lon="-8.001210">
                <time>2019-06-14T08:23:56Z</time>
            </trkpt>
            <trkpt lat="54.972950" lon="-8.001480">
                <time>2019-06-14T08:23:57Z</time>
            </trkpt>
            <trkpt lat="54.972980" lon="-8.001760">
                <time>2019-06-14T08:23:58Z</time>
            </trkpt>
            <trkpt lat="54.973010" lon="-8.002030">
                <time>2019-06-14T08:23:59Z</time>
            </trkpt>
            <trkpt lat="54.973030" lon="-8.002330">
                <time>2019-06-14T08:24:00Z</time>
            </trkpt>
            <trkpt lat="54.973040" lon="-8.002620">
                <time>2019-06-14T08:24:01Z</time>
            </trkpt>
            <trkpt lat="54.973050" lon="-8.002930">
                <time>2019-06-14T08:24:02Z</time>
            </trkpt>
            <trkpt lat="54.973050" lon="-8.003230">
                <time>2019-06-14T08:24:03Z</time>
            </trkpt>
            <trkpt lat="54.973040" lon="-8.003530">
                <time>2019-06-14T08:24:04Z</time>
            </trkpt>
            <trkpt lat="54.973040" lon="-8.003830">
                <time>2019-06-14T08:24:05Z</time>
            </trkpt>
            <trkpt lat="54.973040" lon="-8.004140">
                <time>2019-06-14T08:24:06Z</time>
            </trkpt>
            <trkpt lat="54.973040" lon="-8.004450">
                <time>2019-06-14T08:24:07Z</time>
            </trkpt>
            <trkpt lat="54.973050" lon="-8.004730">
                <time>2019-06-14T08:24:08Z</time>
            </trkpt>
            <trkpt lat="54.973070" lon="-8.005000">
                <time>2019-06-14T08:24:09Z</time>
            </trkpt>
            <trkpt lat="54.973100" lon="-8.005260">
                <time>2019-06-14T08:24:10Z</time>
            </trkpt>
            <trkpt lat="54.973140" lon="-8.005530">
                <time>2019-06-14T08:24:11Z</time>
            </trkpt>
            <trkpt lat="54.973180" lon="-8.005800">
                <time>2019-06-14T08:24:12Z</time>
            </trkpt>
            <trkpt lat="54.973230" lon="-8.006070">
                <time>2019-06-14T08:24:13Z</time>
            </trkpt>
            <trkpt lat="54.973290" lon="-8.006320">
                <time>2019-06-14T08:24:14Z</time>
            </trkpt>
            <trkpt lat="54.973350" lon="-8.006550">
                <time>2019-06-14T08:24:15Z</time>
            </trkpt>
            <trkpt lat="54.973410" lon="-8.006780">
                <time>2019-06-14T08:24:16Z</time>
            </trkpt>
            <trkpt lat="54.973490" lon="-8.007010">
                <time>2019-06-14T08:24:17Z</time>
            </trkpt>
            <trkpt lat="54.973580" lon="-8.007210">
                <time>2019-06-14T08:24:18Z</time>
            </trkpt>
            <trkpt lat="54.973680" lon="-8.007390">
                <time>2019-06-14T08:24:19Z</time>
            </trkpt>
            <trkpt lat="54.973790" lon="-8.007550">
                <time>2019-06-14T08:24:20Z</time>
            </trkpt>
            <trkpt lat="54.973890" lon="-8.007700">
                <time>2019-06-14T08:24:21Z</time>
            </trkpt>
            <trkpt lat="54.973990" lon="-8.007840">
                <time>2019-06-14T08:24:22Z</time>
            </trkpt>
            <trkpt lat="54.974090" lon="-8.007980">
                <time>2019-06-14T08:24:23Z</time>
            </trkpt>
            <trkpt lat="54.974190" lon="-8.008110">
                <time>2019-06-14T08:24:24Z</time>
            </trkpt>
            <trkpt lat="54.974310" lon="-8.008230">
                <time>2019-06-14T08:24:25Z</time>
            </trkpt>
            <trkpt lat="54.974430" lon="-8.008330">
                <time>2019-06-14T08:24:26Z</time>
            </trkpt>
            <trkpt lat="54.974570" lon="-8.008420">
                <time>2019-06-14T08:24:27Z</time>
            </trkpt>
            <trkpt lat="54.974710" lon="-8.008510">
                <time>2019-06-14T08:24:28Z</time>
            </trkpt>
            <trkpt lat="54.974860" lon="-8.008590">
                <time>2019-06-14T08:24:29Z</time>
            </trkpt>
            <trkpt lat="54.975000" lon="-8.008670">
                <time>2019-06-14T08:24:30Z</time>
            </trkpt>
            <trkpt lat="54.975150" lon="-8.008760">
                <time>2019-06-14T08:24:31Z</time>
            </trkpt>
            <trkpt lat="54.975310" lon="-8.008850">
                <time>2019-06-14T08:24:32Z</time>
            </trkpt>
            <trkpt lat="54.975470" lon="-8.008960">
                <time>2019-06-14T08:24:33Z</time>
            </trkpt>
            <trkpt lat="54.975620" lon="-8.009060">
                <time>2019-06-14T08:24:34Z</time>
            </trkpt>
            <trkpt lat="54.975760" lon="-8.009170">
                <time>2019-06-14T08:24:35Z</time>
            </trkpt>
            <trkpt lat="54.975900" lon="-8.009290">
                <time>2019-06-14T08:24:36Z</time>
            </trkpt>
            <trkpt lat="54.976050" lon="-8.009430">
                <time>2019-06-14T08:24:37Z</time>
            </trkpt>
            <trkpt lat="54.976190" lon="-8.009590">
                <time>2019-06-14T08:24:38Z</time>
            </trkpt>
            <trkpt lat="54.976330" lon="-8.009760">
                <time>2019-06-14T08:24:39Z</time>
            </trkpt>
            <trkpt lat="54.976440" lon="-8.009930">
                <time>2019-06-14T08:24:40Z</time>
            </trkpt>
            <trkpt lat="54.976530" lon="-8.010130">
                <time>2019-06-14T08:24:41Z</time>
            </trkpt>
            <trkpt lat="54.976600" lon="-8.010340">
                <time>2019-06-14T08:24:42Z</time>
            </trkpt>
            <trkpt lat="54.976660" lon="-8.010560">
                <time>2019-06-14T08:24:43Z</time>
            </trkpt>
            <trkpt lat="54.976710" lon="-8.010800">
                <time>2019-06-14T08:24:44Z</time>
            </trkpt>
            <trkpt lat="54.976750" lon="-8.011060">
                <time>2019-06-14T08:24:45Z</time>
            </trkpt>
            <trkpt lat="54.976800" lon="-8.011320">
                <time>2019-06-14T08:24:46Z</time>
            </trkpt>
            <trkpt lat="54.976870" lon="-8.011570">
                <time>2019-06-14T08:24:47Z</time>
            </trkpt>
            <trkpt lat="54.976970" lon="-8.011800">
                <time>2019-06-14T08:24:48Z</time>
            </trkpt>
            <trkpt lat="54.977080" lon="-8.012010">
                <time>2019-06-14T08:24:49Z</time>
            </trkpt>
            <trkpt lat="54.977190" lon="-8.012190">
                <time>2019-06-14T08:24:50Z</time>
            </trkpt>
            <trkpt lat="54.977320" lon="-8.012370">
                <time>2019-06-14T08:24:51Z</time>
            </trkpt>
            <trkpt lat="54.977440" lon="-8.012510">
                <time>2019-06-14T08:24:52Z</time>
            </trkpt>
            <trkpt lat="54.977560" lon="-8.012630">
                <time>2019-06-14T08:24:53Z</time>
            </trkpt>
            <trkpt lat="54.977660" lon="-8.012750">
                <time>2019-06-14T08:24:54Z</time>
            </trkpt>
            <trkpt lat="54.977750" lon="-8.012890">
                <time>2019-06-14T08:24:55Z</time>
            </trkpt>
            <trkpt lat="54.977820" lon="-8.013060">
                <time>2019-06-14T08:24:56Z</time>
            </trkpt>
            <trkpt lat="54.977870" lon="-8.013260">
                <time>2019-06-14T08:24:57Z</time>
            </trkpt>
            <trkpt lat="54.977900" lon="-8.013480">
                <time>2019-06-14T08:24:58Z</time>
            </trkpt>
            <trkpt lat="54.977930" lon="-8.013720">
                <time>2019-06-14T08:24:59Z</time>
            </trkpt>
            <trkpt lat="54.977970" lon="-8.013960">
                <time>2019-06-14T08:25:00Z</time>
            </trkpt>
            <trkpt lat="54.978030" lon="-8.014200">
                <time>2019-06-14T08:25:01Z</time>
            </trkpt>
            <trkpt lat="54.978110" lon="-8.014410">
                <time>2019-06-14T08:25:02Z</time>
            </trkpt>
            <trkpt lat="54.978210" lon="-8.014610">
                <time>2019-06-14T08:25:03Z</time>
            </trkpt>
            <trkpt lat="54.978310" lon="-8.014790">
                <time>2019-06-14T08:25:04Z</time>
            </trkpt>
            <trkpt lat="54.978410" lon="-8.014950">
                <time>2019-06-14T08:25:05Z</time>
            </trkpt>
            <trkpt lat="54.978530" lon="-8.015120">
                <time>2019-06-14T08:25:06Z</time>
            </trkpt>
            <trkpt lat="54.978650" lon="-8.015270">
                <time>2019-06-14T08:25:07Z</time>
            </trkpt>
            <trkpt lat="54.978780" lon="-8.015410">
                <time>2019-06-14T08:25:08Z</time>
            </trkpt>
            <trkpt lat="54.978920" lon="-8.015520">
                <time>2019-06-14T08:25:09Z</time>
            </trkpt>
            <trkpt lat="54.979070" lon="-8.015610">
                <time>2019-06-14T08:25:10Z</time>
            </trkpt>
            <trkpt lat="54.979210" lon="-8.015710">
                <time>2019-06-14T08:25:11Z</time>
            </trkpt>
            <trkpt lat="54.979340" lon="-8.015820">
                <time>2019-06-14T08:25:12Z</time>
            </trkpt>
            <trkpt lat="54.979450" lon="-8.015960">
                <time>2019-06-14T08:25:13Z</time>
            </trkpt>
            <trkpt lat="54.979540" lon="-8.016130">
                <time>2019-06-14T08:25:14Z</time>
            </trkpt>
            <trkpt lat="54.979610" lon="-8.016330">
                <time>2019-06-14T08:25:15Z</time>
            </trkpt>
            <trkpt lat="54.979670" lon="-8.016550">
                <time>2019-06-14T08:25:16Z</time>
            </trkpt>
            <trkpt lat="54.979710" lon="-8.016800">
                <time>2019-06-14T08:25:17Z</time>
            </trkpt>
            <trkpt lat="54.979740" lon="-8.017060">
                <time>2019-06-14T08:25:18Z</time>
            </trkpt>
            <trkpt lat="54.979780" lon="-8.017320">
                <time>2019-06-14T08:25:19Z</time>
            </trkpt>
            <trkpt lat="54.979850" lon="-8.017570">
                <time>2019-06-14T08:25:20Z</time>
            </trkpt>
            <trkpt lat="54.979950" lon="-8.017790">
                <time>2019-06-14T08:25:21Z</time>
            </trkpt>
            <trkpt lat="54.980070" lon="-8.017980">
                <time>2019-06-14T08:25:22Z</time>
            </trkpt>
            <trkpt lat="54.980190" lon="-8.018170">
                <time>2019-06-14T08:25:23Z</time>
            </trkpt>
            <trkpt lat="54.980300" lon="-8.018340">
                <time>2019-06-14T08:25:24Z</time>
            </trkpt>
            <trkpt lat="54.980390" lon="-8.018510">
                <time>2019-06-14T08:25:25Z</time>
            </trkpt>
            <trkpt lat="54.980460" lon="-8.018690">
                <time>2019-06-14T08:25:26Z</time>
            </trkpt>
            <trkpt lat="54.980520" lon="-8.018900">
                <time>2019-06-14T08:25:27Z</time>
            </trkpt>
            <trkpt lat="54.980570" lon="-8.019140">
                <time>2019-06-14T08:25:28Z</time>
            </trkpt>
            <trkpt lat="54.980620" lon="-8.019410">
                <time>2019-06-14T08:25:29Z</time>
            </trkpt>
            <trkpt lat="54.980670" lon="-8.019730">
                <time>2019-06-14T08:25:30Z</time>
            </trkpt>
            <trkpt lat="54.980730" lon="-8.020080">
                <time>2019-06-14T08:25:31Z</time>
            </trkpt>
            <trkpt lat="54.980790" lon="-8.020460">
                <time>2019-06-14T08:25:32Z</time>
            </trkpt>
            <trkpt lat="54.980850" lon="-8.020870">
                <time>2019-06-14T08:25:33Z</time>
            </trkpt>
            <trkpt lat="54.980920" lon="-8.021280">
                <time>2019-06-14T08:25:34Z</time>
            </trkpt>
            <trkpt lat="54.980980" lon="-8.021690">
                <time>2019-06-14T08:25:35Z</time>
            </trkpt>
            <trkpt lat="54.981050" lon="-8.022100">
                <time>2019-06-14T08:25:36Z</time>
            </trkpt>
            <trkpt lat="54.981110" lon="-8.022530">
                <time>2019-06-14T08:25:37Z</time>
            </trkpt>
            <trkpt lat="54.981170" lon="-8.022950">
                <time>2019-06-14T08:25:38Z</time>
            </trkpt>
            <trkpt lat="54.981240" lon="-8.023370">
                <time>2019-06-14T08:25:39Z</time>
            </trkpt>
            <trkpt lat="54.981290" lon="-8.023770">
                <time>2019-06-14T08:25:40Z</time>
            </trkpt>
            <trkpt lat="54.981340" lon="-8.024140">
                <time>2019-06-14T08:25:41Z</time>
            </trkpt>
            <trkpt lat="54.981370" lon="-8.024480">
                <time>2019-06-14T08:25:42Z</time>
            </trkpt>
            <trkpt lat="54.981400" lon="-8.024810">
                <time>2019-06-14T08:25:43Z</time>
            </trkpt>
            <trkpt lat="54.981400" lon="-8.025120">
                <time>2019-06-14T08:25:44Z</time>
            </trkpt>
            <trkpt lat="54.981380" lon="-8.025440">
                <time>2019-06-14T08:25:45Z</time>
            </trkpt>
            <trkpt lat="54.981340" lon="-8.025730">
                <time>2019-06-14T08:25:46Z</time>
            </trkpt>
            <trkpt lat="54.981310" lon="-8.026000">
                <time>2019-06-14T08:25:47Z</time>
            </trkpt>
            <trkpt lat="54.981300" lon="-8.026270">
                <time>2019-06-14T08:25:48Z</time>
            </trkpt>
            <trkpt lat="54.981320" lon="-8.026500">
                <time>2019-06-14T08:25:49Z</time>
            </trkpt>
            <trkpt lat="54.981370" lon="-8.026710">
                <time>2019-06-14T08:25:50Z</time>
            </trkpt>
            <trkpt lat="54.981440" lon="-8.026860">
                <time>2019-06-14T08:25:51Z</time>
            </trkpt>
            <trkpt lat="54.981530" lon="-8.026980">
                <time>2019-06-14T08:25:52Z</time>
            </trkpt>
            <trkpt lat="54.981630" lon="-8.027080">
                <time>2019-06-14T08:25:53Z</time>
            </trkpt>
            <trkpt lat="54.981750" lon="-8.027150">
                <time>2019-06-14T08:25:54Z</time>
            </trkpt>
            <trkpt lat="54.981880" lon="-8.027210">
                <time>2019-06-14T08:25:55Z</time>
            </trkpt>
            <trkpt lat="54.982030" lon="-8.027280">
                <time>2019-06-14T08:25:56Z</time>
            </trkpt>
            <trkpt lat="54.982180" lon="-8.027380">
                <time>2019-06-14T08:25:57Z</time>
            </trkpt>
            <trkpt lat="54.982340" lon="-8.027500">
                <time>2019-06-14T08:25:58Z</time>
            </trkpt>
            <trkpt lat="54.982480" lon="-8.027640">
                <time>2019-06-14T08:25:59Z</time>
            </trkpt>
            <trkpt lat="54.982620" lon="-8.027800">
                <time>2019-06-14T08:26:00Z</time>
            </trkpt>
            <trkpt lat="54.982770" lon="-8.027980">
                <time>2019-06-14T08:26:01Z</time>
            </trkpt>
            <trkpt lat="54.982920" lon="-8.028170">
                <time>2019-06-14T08:26:02Z</time>
            </trkpt>
            <trkpt lat="54.983090" lon="-8.028350">
                <time>2019-06-14T08:26:03Z</time>
            </trkpt>
            <trkpt lat="54.983260" lon="-8.028520">
                <time>2019-06-14T08:26:04Z</time>
            </trkpt>
            <trkpt lat="54.983440" lon="-8.028680">
                <time>2019-06-14T08:26:05Z</time>
            </trkpt>
            <trkpt lat="54.983630" lon="-8.028830">
                <time>2019-06-14T08:26:06Z</time>
            </trkpt>
            <trkpt lat="54.983830" lon="-8.028970">
                <time>2019-06-14T08:26:07Z</time>
            </trkpt>
            <trkpt lat="54.984020" lon="-8.029100">
                <time>2019-06-14T08:26:08Z</time>
            </trkpt>
            <trkpt lat="54.984200" lon="-8.029220">
                <time>2019-06-14T08:26:09Z</time>
            </trkpt>
            <trkpt lat="54.984360" lon="-8.029340">
                <time>2019-06-14T08:26:10Z</time>
            </trkpt>
            <trkpt lat="54.984510" lon="-8.029490">
                <time>2019-06-14T08:26:11Z</time>
            </trkpt>
            <trkpt lat="54.984670" lon="-8.029660">
                <time>2019-06-14T08:26:12Z</time>
            </trkpt>
            <trkpt lat="54.984820" lon="-8.029840">
                <time>2019-06-14T08:26:13Z</time>
            </trkpt>
            <trkpt lat="54.984960" lon="-8.030030">
                <time>2019-06-14T08:26:14Z</time>
            </trkpt>
            <trkpt lat="54.985090" lon="-8.030250">
                <time>2019-06-14T08:26:15Z</time>
            </trkpt>
            <trkpt lat="54.985210" lon="-8.030490">
                <time>2019-06-14T08:26:16Z</time>
            </trkpt>
            <trkpt lat="54.985330" lon="-8.030760">
                <time>2019-06-14T08:26:17Z</time>
            </trkpt>
            <trkpt lat="54.985460" lon="-8.031060">
                <time>2019-06-14T08:26:18Z</time>
            </trkpt>
            <trkpt lat="54.985590" lon="-8.031380">
                <time>2019-06-14T08:26:19Z</time>
            </trkpt>
            <trkpt lat="54.985730" lon="-8.031720">
                <time>2019-06-14T08:26:20Z</time>
            </trkpt>
            <trkpt lat="54.985860" lon="-8.032060">
                <time>2019-06-14T08:26:21Z</time>
            </trkpt>
            <trkpt lat="54.985990" lon="-8.032410">
                <time>2019-06-14T08:26:22Z</time>
            </trkpt>
            <trkpt lat="54.986120" lon="-8.032750">
                <time>2019-06-14T08:26:23Z</time>
            </trkpt>
            <trkpt lat="54.986240" lon="-8.033100">
                <time>2019-06-14T08:26:24Z</time>
            </trkpt>
            <trkpt lat="54.986370" lon="-8.033480">
                <time>2019-06-14T08:26:25Z</time>
            </trkpt>
            <trkpt lat="54.986500" lon="-8.033880">
                <time>2019-06-14T08:26:26Z</time>
            </trkpt>
            <trkpt lat="54.986640" lon="-8.034300">
                <time>2019-06-14T08:26:27Z</time>
            </trkpt>
            <trkpt lat="54.986770" lon="-8.034710">
                <time>2019-06-14T08:26:28Z</time>
            </trkpt>
            <trkpt lat="54.986900" lon="-8.035120">
                <time>2019-06-14T08:26:29Z</time>
            </trkpt>
            <trkpt lat="54.987030" lon="-8.035540">
                <time>2019-06-14T08:26:30Z</time>
            </trkpt>
            <trkpt lat="54.987160" lon="-8.035950">
                <time>2019-06-14T08:26:31Z</time>
            </trkpt>
            <trkpt lat="54.987290" lon="-8.036370">
                <time>2019-06-14T08:26:32Z</time>
            </trkpt>
            <trkpt lat="54.987420" lon="-8.036780">
                <time>2019-06-14T08:26:33Z</time>
            </trkpt>
            <trkpt lat="54.987540" lon="-8.037200">
                <time>2019-06-14T08:26:34Z</time>
            </trkpt>
            <trkpt lat="54.987670" lon="-8.037600">
                <time>2019-06-14T08:26:35Z</time>
            </trkpt>
            <trkpt lat="54.987800" lon="-8.038000">
                <time>2019-06-14T08:26:36Z</time>
            </trkpt>
            <trkpt lat="54.987920" lon="-8.038390">
                <time>2019-06-14T08:26:37Z</time>
            </trkpt>
            <trkpt lat="54.988050" lon="-8.038770">
                <time>2019-06-14T08:26:38Z</time>
            </trkpt>
            <trkpt lat="54.988170" lon="-8.039150">
                <time>2019-06-14T08:26:39Z</time>
            </trkpt>
            <trkpt lat="54.988290" lon="-8.039540">
                <time>2019-06-14T08:26:40Z</time>
            </trkpt>
            <trkpt lat="54.988410" lon="-8.039910">
                <time>2019-06-14T08:26:41Z</time>
            </trkpt>
            <trkpt lat="54.988520" lon="-8.040270">
                <time>2019-06-14T08:26:42Z</time>
            </trkpt>
            <trkpt lat="54.988630" lon="-8.040610">
                <time>2019-06-14T08:26:43Z</time>
            </trkpt>
            <trkpt lat="54.988730" lon="-8.040920">
                <time>2019-06-14T08:26:44Z</time>
            </trkpt>
            <trkpt lat="54.988830" lon="-8.041230">
                <time>2019-06-14T08:26:45Z</time>
            </trkpt>
            <trkpt lat="54.988930" lon="-8.041540">
                <time>2019-06-14T08:26:46Z</time>
            </trkpt>
            <trkpt lat="54.989020" lon="-8.041830">
                <time>2019-06-14T08:26:47Z</time>
            </trkpt>
            <trkpt lat="54.989110" lon="-8.042120">
                <time>2019-06-14T08:26:48Z</time>
            </trkpt>
            <trkpt lat="54.989190" lon="-8.042420">
                <time>2019-06-14T08:26:49Z</time>
            </trkpt>
            <trkpt lat="54.989280" lon="-8.042730">
                <time>2019-06-14T08:26:50Z</time>
            </trkpt>
            <trkpt lat="54.989360" lon="-8.043050">
                <time>2019-06-14T08:26:51Z</time>
            </trkpt>
            <trkpt lat="54.989430" lon="-8.043370">
                <time>2019-06-14T08:26:52Z</time>
            </trkpt>
            <trkpt lat="54.989510" lon="-8.043690">
                <time>2019-06-14T08:26:53Z</time>
            </trkpt>
            <trkpt lat="54.989570" lon="-8.044020">
                <time>2019-06-14T08:26:54Z</time>
            </trkpt>
            <trkpt lat="54.989640" lon="-8.044360">
                <time>2019-06-14T08:26:55Z</time>
            </trkpt>
            <trkpt lat="54.989690" lon="-8.044700">
                <time>2019-06-14T08:26:56Z</time>
            </trkpt>
            <trkpt lat="54.989740" lon="-8.045040">
                <time>2019-06-14T08:26:57Z</time>
            </trkpt>
            <trkpt lat="54.989780" lon="-8.045360">
                <time>2019-06-14T08:26:58Z</time>
            </trkpt>
            <trkpt lat="54.989820" lon="-8.045670">
                <time>2019-06-14T08:26:59Z</time>
            </trkpt>
            <trkpt lat="54.989840" lon="-8.045980">
                <time>2019-06-14T08:27:00Z</time>
            </trkpt>
            <trkpt lat="54.989850" lon="-8.046310">
                <time>2019-06-14T08:27:01Z</time>
            </trkpt>
            <trkpt lat="54.989860" lon="-8.046650">
                <time>2019-06-14T08:27:02Z</time>
            </trkpt>
            <trkpt lat="54.989870" lon="-8.046990">
                <time>2019-06-14T08:27:03Z</time>
            </trkpt>
            <trkpt lat="54.989870" lon="-8.047310">
                <time>2019-06-14T08:27:04Z</time>
            </trkpt>
            <trkpt lat="54.989860" lon="-8.047620">
                <time>2019-06-14T08:27:05Z</time>
            </trkpt>
            <trkpt lat="54.989840" lon="-8.047930">
                <time>2019-06-14T08:27:06Z</time>
            </trkpt>
            <trkpt lat="54.989810" lon="-8.048230">
                <time>2019-06-14T08:27:07Z</time>
            </trkpt>
            <trkpt lat="54.989770" lon="-8.048550">
                <time>2019-06-14T08:27:08Z</time>
            </trkpt>
            <trkpt lat="54.989720" lon="-8.048890">
                <time>2019-06-14T08:27:09Z</time>
            </trkpt>
            <trkpt lat="54.989650" lon="-8.049220">
                <time>2019-06-14T08:27:10Z</time>
            </trkpt>
            <trkpt lat="54.989570" lon="-8.049550">
                <time>2019-06-14T08:27:11Z</time>
            </trkpt>
            <trkpt lat="54.989480" lon="-8.049860">
                <time>2019-06-14T08:27:12Z</time>
            </trkpt>
            <trkpt lat="54.989390" lon="-8.050170">
                <time>2019-06-14T08:27:13Z</time>
            </trkpt>
            <trkpt lat="54.989290" lon="-8.050460">
                <time>2019-06-14T08:27:14Z</time>
            </trkpt>
            <trkpt lat="54.989190" lon="-8.050750">
                <time>2019-06-14T08:27:15Z</time>
            </trkpt>
            <trkpt lat="54.989090" lon="-8.051030">
                <time>2019-06-14T08:27:16Z</time>
            </trkpt>
            <trkpt lat="54.988990" lon="-8.051300">
                <time>2019-06-14T08:27:17Z</time>
            </trkpt>
            <trkpt lat="54.988870" lon="-8.051570">
                <time>2019-06-14T08:27:18Z</time>
            </trkpt>
            <trkpt lat="54.988750" lon="-8.051830">
                <time>2019-06-14T08:27:19Z</time>
            </trkpt>
            <trkpt lat="54.988620" lon="-8.052080">
                <time>2019-06-14T08:27:20Z</time>
            </trkpt>
            <trkpt lat="54.988490" lon="-8.052300">
                <time>2019-06-14T08:27:21Z</time>
            </trkpt>
            <trkpt lat="54.988360" lon="-8.052520">
                <time>2019-06-14T08:27:22Z</time>
            </trkpt>
            <trkpt lat="54.988220" lon="-8.052740">
                <time>2019-06-14T08:27:23Z</time>
            </trkpt>
            <trkpt lat="54.988070" lon="-8.052960">
                <time>2019-06-14T08:27:24Z</time>
            </trkpt>
            <trkpt lat="54.987920" lon="-8.053170">
                <time>2019-06-14T08:27:25Z</time>
            </trkpt>
            <trkpt lat="54.987760" lon="-8.053390">
                <time>2019-06-14T08:27:26Z</time>
            </trkpt>
            <trkpt lat="54.987590" lon="-8.053620">
                <time>2019-06-14T08:27:27Z</time>
            </trkpt>
            <trkpt lat="54.987430" lon="-8.053850">
                <time>2019-06-14T08:27:28Z</time>
            </trkpt>
            <trkpt lat="54.987260" lon="-8.054080">
                <time>2019-06-14T08:27:29Z</time>
            </trkpt>
            <trkpt lat="54.987100" lon="-8.054310">
                <time>2019-06-14T08:27:30Z</time>
            </trkpt>
            <trkpt lat="54.986930" lon="-8.054540">
                <time>2019-06-14T08:27:31Z</time>
            </trkpt>
            <trkpt lat="54.986770" lon="-8.054760">
                <time>2019-06-14T08:27:32Z</time>
            </trkpt>
            <trkpt lat="54.986620" lon="-8.054980">
                <time>2019-06-14T08:27:33Z</time>
            </trkpt>
            <trkpt lat="54.986470" lon="-8.055190">
                <time>2019-06-14T08:27:34Z</time>
            </trkpt>
            <trkpt lat="54.986330" lon="-8.055400">
                <time>2019-06-14T08:27:35Z</time>
            </trkpt>
            <trkpt lat="54.986170" lon="-8.055620">
                <time>2019-06-14T08:27:36Z</time>
            </trkpt>
            <trkpt lat="54.986020" lon="-8.055840">
                <time>2019-06-14T08:27:37Z</time>
            </trkpt>
            <trkpt lat="54.985870" lon="-8.056060">
                <time>2019-06-14T08:27:38Z</time>
            </trkpt>
            <trkpt lat="54.985720" lon="-8.056270">
                <time>2019-06-14T08:27:39Z</time>
            </trkpt>
            <trkpt lat="54.985570" lon="-8.056480">
                <time>2019-06-14T08:27:40Z</time>
            </trkpt>
            <trkpt lat="54.985430" lon="-8.056690">
                <time>2019-06-14T08:27:41Z</time>
            </trkpt>
            <trkpt lat="54.985280" lon="-8.056900">
                <time>2019-06-14T08:27:42Z</time>
            </trkpt>
            <trkpt lat="54.985130" lon="-8.057100">
                <time>2019-06-14T08:27:43Z</time>
            </trkpt>
            <trkpt lat="54.984980" lon="-8.057310">
                <time>2019-06-14T08:27:44Z</time>
            </trkpt>
            <trkpt lat="54.984830" lon="-8.057510">
                <time>2019-06-14T08:27:45Z</time>
            </trkpt>
            <trkpt lat="54.984690" lon="-8.057710">
                <time>2019-06-14T08:27:46Z</time>
            </trkpt>
            <trkpt lat="54.984550" lon="-8.057900">
                <time>2019-06-14T08:27:47Z</time>
            </trkpt>
            <trkpt lat="54.984420" lon="-8.058080">
                <time>2019-06-14T08:27:48Z</time>
            </trkpt>
            <trkpt lat="54.984290" lon="-8.058250">
                <time>2019-06-14T08:27:49Z</time>
            </trkpt>
            <trkpt lat="54.984170" lon="-8.058400">
                <time>2019-06-14T08:27:50Z</time>
            </trkpt>
            <trkpt lat="54.984050" lon="-8.058550">
                <time>2019-06-14T08:27:51Z</time>
            </trkpt>
            <trkpt lat="54.983920" lon="-8.058690">
                <time>2019-06-14T08:27:52Z</time>
            </trkpt>
            <trkpt lat="54.983780" lon="-8.058830">
                <time>2019-06-14T08:27:53Z</time>
            </trkpt>
            <trkpt lat="54.983640" lon="-8.058980">
                <time>2019-06-14T08:27:54Z</time>
            </trkpt>
            <trkpt lat="54.983490" lon="-8.059120">
                <time>2019-06-14T08:27:55Z</time>
            </trkpt>
            <trkpt lat="54.983350" lon="-8.059260">
                <time>2019-06-14T08:27:56Z</time>
            </trkpt>
            <trkpt lat="54.983210" lon="-8.059370">
                <time>2019-06-14T08:27:57Z</time>
            </trkpt>
            <trkpt lat="54.983070" lon="-8.059470">
                <time>2019-06-14T08:27:58Z</time>
            </trkpt>
            <trkpt lat="54.982920" lon="-8.059560">
                <time>2019-06-14T08:27:59Z</time>
            </trkpt>
            <trkpt lat="54.982760" lon="-8.059650">
                <time>2019-06-14T08:28:00Z</time>
            </trkpt>
            <trkpt lat="54.982590" lon="-8.059750">
                <time>2019-06-14T08:28:01Z</time>
            </trkpt>
            <trkpt lat="54.982420" lon="-8.059870">
                <time>2019-06-14T08:28:02Z</time>
            </trkpt>
            <trkpt lat="54.982270" lon="-8.059990">
                <time>2019-06-14T08:28:03Z</time>
            </trkpt>
            <trkpt lat="54.982120" lon="-8.060140">
                <time>2019-06-14T08:28:04Z</time>
            </trkpt>
            <trkpt lat="54.981990" lon="-8.060320">
                <time>2019-06-14T08:28:05Z</time>
            </trkpt>
            <trkpt lat="54.981870" lon="-8.060520">
                <time>2019-06-14T08:28:06Z</time>
            </trkpt>
            <trkpt lat="54.981750" lon="-8.060730">
                <time>2019-06-14T08:28:07Z</time>
            </trkpt>
            <trkpt lat="54.981640" lon="-8.060940">
                <time>2019-06-14T08:28:08Z</time>
            </trkpt>
            <trkpt lat="54.981530" lon="-8.061150">
                <time>2019-06-14T08:28:09Z</time>
            </trkpt>
            <trkpt lat="54.981430" lon="-8.061340">
                <time>2019-06-14T08:28:10Z</time>
            </trkpt>
            <trkpt lat="54.981320" lon="-8.061550">
                <time>2019-06-14T08:28:11Z</time>
            </trkpt>
            <trkpt lat="54.981220" lon="-8.061750">
                <time>2019-06-14T08:28:12Z</time>
            </trkpt>
            <trkpt lat="54.981110" lon="-8.061950">
                <time>2019-06-14T08:28:13Z</time>
            </trkpt>
            <trkpt lat="54.981000" lon="-8.062170">
                <time>2019-06-14T08:28:14Z</time>
            </trkpt>
            <trkpt lat="54.980890" lon="-8.062390">
                <time>2019-06-14T08:28:15Z</time>
            </trkpt>
            <trkpt lat="54.980780" lon="-8.062620">
                <time>2019-06-14T08:28:16Z</time>
            </trkpt>
            <trkpt lat="54.980660" lon="-8.062860">
                <time>2019-06-14T08:28:17Z</time>
            </trkpt>
            <trkpt lat="54.980530" lon="-8.063110">
                <time>2019-06-14T08:28:18Z</time>
            </trkpt>
            <trkpt lat="54.980400" lon="-8.063370">
                <time>2019-06-14T08:28:19Z</time>
            </trkpt>
            <trkpt lat="54.980270" lon="-8.063630">
                <time>2019-06-14T08:28:20Z</time>
            </trkpt>
            <trkpt lat="54.980130" lon="-8.063900">
                <time>2019-06-14T08:28:21Z</time>
            </trkpt>
            <trkpt lat="54.980000" lon="-8.064170">
                <time>2019-06-14T08:28:22Z</time>
            </trkpt>
            <trkpt lat="54.979870" lon="-8.064430">
                <time>2019-06-14T08:28:23Z</time>
            </trkpt>
            <trkpt lat="54.979750" lon="-8.064700">
                <time>2019-06-14T08:28:24Z</time>
            </trkpt>
            <trkpt lat="54.979630" lon="-8.064980">
                <time>2019-06-14T08:28:25Z</time>
            </trkpt>
            <trkpt lat="54.979510" lon="-8.065260">
                <time>2019-06-14T08:28:26Z</time>
            </trkpt>
            <trkpt lat="54.979400" lon="-8.065550">
                <time>2019-06-14T08:28:27Z</time>
            </trkpt>
            <trkpt lat="54.979290" lon="-8.065850">
                <time>2019-06-14T08:28:28Z</time>
            </trkpt>
            <trkpt lat="54.979170" lon="-8.066150">
                <time>2019-06-14T08:28:29Z</time>
            </trkpt>
            <trkpt lat="54.979050" lon="-8.066450">
                <time>2019-06-14T08:28:30Z</time>
            </trkpt>
            <trkpt lat="54.978930" lon="-8.066750">
                <time>2019-06-14T08:28:31Z</time>
            </trkpt>
            <trkpt lat="54.978810" lon="-8.067060">
                <time>2019-06-14T08:28:32Z</time>
            </trkpt>
            <trkpt lat="54.978700" lon="-8.067360">
                <time>2019-06-14T08:28:33Z</time>
            </trkpt>
            <trkpt lat="54.978580" lon="-8.067660">
                <time>2019-06-14T08:28:34Z</time>
            </trkpt>
            <trkpt lat="54.978480" lon="-8.067940">
                <time>2019-06-14T08:28:35Z</time>
            </trkpt>
            <trkpt lat="54.978370" lon="-8.068200">
                <time>2019-06-14T08:28:36Z</time>
            </trkpt>
            <trkpt lat="54.978270" lon="-8.068470">
                <time>2019-06-14T08:28:37Z</time>
            </trkpt>
            <trkpt lat="54.978160" lon="-8.068750">
                <time>2019-06-14T08:28:38Z</time>
            </trkpt>
            <trkpt lat="54.978060" lon="-8.069040">
                <time>2019-06-14T08:28:39Z</time>
            </trkpt>
            <trkpt lat="54.977940" lon="-8.069340">
                <time>2019-06-14T08:28:40Z</time>
            </trkpt>
            <trkpt lat="54.977830" lon="-8.069640">
                <time>2019-06-14T08:28:41Z</time>
            </trkpt>
            <trkpt lat="54.977710" lon="-8.069940">
                <time>2019-06-14T08:28:42Z</time>
            </trkpt>
            <trkpt lat="54.977590" lon="-8.070250">
                <time>2019-06-14T08:28:43Z</time>
            </trkpt>
            <trkpt lat="54.977480" lon="-8.070540">
                <time>2019-06-14T08:28:44Z</time>
            </trkpt>
            <trkpt lat="54.977380" lon="-8.070810">
                <time>2019-06-14T08:28:45Z</time>
            </trkpt>
            <trkpt lat="54.977280" lon="-8.071070">
                <time>2019-06-14T08:28:46Z</time>
            </trkpt>
            <trkpt lat="54.977180" lon="-8.071310">
                <time>2019-06-14T08:28:47Z</time>
            </trkpt>
            <trkpt lat="54.977090" lon="-8.071540">
                <time>2019-06-14T08:28:48Z</time>
            </trkpt>
            <trkpt lat="54.977010" lon="-8.071770">
                <time>2019-06-14T08:28:49Z</time>
            </trkpt>
            <trkpt lat="54.976920" lon="-8.072000">
                <time>2019-06-14T08:28:50Z</time>
            </trkpt>
            <trkpt lat="54.976830" lon="-8.072240">
                <time>2019-06-14T08:28:51Z</time>
            </trkpt>
            <trkpt lat="54.976740" lon="-8.072470">
                <time>2019-06-14T08:28:52Z</time>
            </trkpt>
            <trkpt lat="54.976660" lon="-8.072710">
                <time>2019-06-14T08:28:53Z</time>
            </trkpt>
            <trkpt lat="54.976580" lon="-8.072960">
                <time>2019-06-14T08:28:54Z</time>
            </trkpt>
            <trkpt lat="54.976500" lon="-8.073210">
                <time>2019-06-14T08:28:55Z</time>
            </trkpt>
            <trkpt lat="54.976420" lon="-8.073450">
                <time>2019-06-14T08:28:56Z</time>
            </trkpt>
            <trkpt lat="54.976350" lon="-8.073690">
                <time>2019-06-14T08:28:57Z</time>
            </trkpt>
            <trkpt lat="54.976270" lon="-8.073930">
                <time>2019-06-14T08:28:58Z</time>
            </trkpt>
            <trkpt lat="54.976200" lon="-8.074180">
                <time>2019-06-14T08:28:59Z</time>
            </trkpt>
            <trkpt lat="54.976130" lon="-8.074430">
                <time>2019-06-14T08:29:00Z</time>
            </trkpt>
            <trkpt lat="54.976060" lon="-8.074670">
                <time>2019-06-14T08:29:01Z</time>
            </trkpt>
            <trkpt lat="54.975990" lon="-8.074930">
                <time>2019-06-14T08:29:02Z</time>
            </trkpt>
            <trkpt lat="54.975910" lon="-8.075190">
                <time>2019-06-14T08:29:03Z</time>
            </trkpt>
            <trkpt lat="54.975830" lon="-8.075460">
                <time>2019-06-14T08:29:04Z</time>
            </trkpt>
            <trkpt lat="54.975740" lon="-8.075730">
                <time>2019-06-14T08:29:05Z</time>
            </trkpt>
            <trkpt lat="54.975640" lon="-8.075990">
                <time>2019-06-14T08:29:06Z</time>
            </trkpt>
            <trkpt lat="54.975540" lon="-8.076240">
                <time>2019-06-14T08:29:07Z</time>
            </trkpt>
            <trkpt lat="54.975430" lon="-8.076470">
                <time>2019-06-14T08:29:08Z</time>
            </trkpt>
            <trkpt lat="54.975310" lon="-8.076680">
                <time>2019-06-14T08:29:09Z</time>
            </trkpt>
            <trkpt lat="54.975190" lon="-8.076870">
                <time>2019-06-14T08:29:10Z</time>
            </trkpt>
            <trkpt lat="54.975060" lon="-8.077040">
                <time>2019-06-14T08:29:11Z</time>
            </trkpt>
            <trkpt lat="54.974950" lon="-8.077210">
                <time>2019-06-14T08:29:12Z</time>
            </trkpt>
            <trkpt lat="54.974830" lon="-8.077370">
                <time>2019-06-14T08:29:13Z</time>
            </trkpt>
            <trkpt lat="54.974710" lon="-8.077530">
                <time>2019-06-14T08:29:14Z</time>
            </trkpt>
            <trkpt lat="54.974590" lon="-8.077680">
                <time>2019-06-14T08:29:15Z</time>
            </trkpt>
            <trkpt lat="54.974480" lon="-8.077840">
                <time>2019-06-14T08:29:16Z</time>
            </trkpt>
            <trkpt lat="54.974370" lon="-8.078000">
                <time>2019-06-14T08:29:17Z</time>
            </trkpt>
            <trkpt lat="54.974270" lon="-8.078170">
                <time>2019-06-14T08:29:18Z</time>
            </trkpt>
            <trkpt lat="54.974170" lon="-8.078350">
                <time>2019-06-14T08:29:19Z</time>
            </trkpt>
            <trkpt lat="54.974070" lon="-8.078560">
                <time>2019-06-14T08:29:20Z</time>
            </trkpt>
            <trkpt lat="54.973990" lon="-8.078770">
                <time>2019-06-14T08:29:21Z</time>
            </trkpt>
            <trkpt lat="54.973910" lon="-8.078970">
                <time>2019-06-14T08:29:22Z</time>
            </trkpt>
            <trkpt lat="54.973820" lon="-8.079160">
                <time>2019-06-14T08:29:23Z</time>
            </trkpt>
            <trkpt lat="54.973740" lon="-8.079360">
                <time>2019-06-14T08:29:24Z</time>
            </trkpt>
            <trkpt lat="54.973650" lon="-8.079570">
                <time>2019-06-14T08:29:25Z</time>
            </trkpt>
            <trkpt lat="54.973560" lon="-8.079770">
                <time>2019-06-14T08:29:26Z</time>
            </trkpt>
            <trkpt lat="54.973480" lon="-8.079980">
                <time>2019-06-14T08:29:27Z</time>
            </trkpt>
            <trkpt lat="54.973400" lon="-8.080180">
                <time>2019-06-14T08:29:28Z</time>
            </trkpt>
            <trkpt lat="54.973320" lon="-8.080380">
                <time>2019-06-14T08:29:29Z</time>
            </trkpt>
            <trkpt lat="54.973240" lon="-8.080590">
                <time>2019-06-14T08:29:30Z</time>
            </trkpt>
            <trkpt lat="54.973160" lon="-8.080810">
                <time>2019-06-14T08:29:31Z</time>
            </trkpt>
            <trkpt lat="54.973090" lon="-8.081040">
                <time>2019-06-14T08:29:32Z</time>
            </trkpt>
            <trkpt lat="54.973020" lon="-8.081270">
                <time>2019-06-14T08:29:33Z</time>
            </trkpt>
            <trkpt lat="54.972950" lon="-8.081510">
                <time>2019-06-14T08:29:34Z</time>
            </trkpt>
            <trkpt lat="54.972890" lon="-8.081760">
                <time>2019-06-14T08:29:35Z</time>
            </trkpt>
            <trkpt lat="54.972830" lon="-8.082010">
                <time>2019-06-14T08:29:36Z</time>
            </trkpt>
            <trkpt lat="54.972770" lon="-8.082260">
                <time>2019-06-14T08:29:37Z</time>
            </trkpt>
            <trkpt lat="54.972710" lon="-8.082500">
                <time>2019-06-14T08:29:38Z</time>
            </trkpt>
            <trkpt lat="54.972650" lon="-8.082740">
                <time>2019-06-14T08:29:39Z</time>
            </trkpt>
            <trkpt lat="54.972600" lon="-8.082990">
                <time>2019-06-14T08:29:40Z</time>
            </trkpt>
            <trkpt lat="54.972530" lon="-8.083250">
                <time>2019-06-14T08:29:41Z</time>
            </trkpt>
            <trkpt lat="54.972470" lon="-8.083540">
                <time>2019-06-14T08:29:42Z</time>
            </trkpt>
            <trkpt lat="54.972400" lon="-8.083820">
                <time>2019-06-14T08:29:43Z</time>
            </trkpt>
            <trkpt lat="54.972340" lon="-8.084100">
                <time>2019-06-14T08:29:44Z</time>
            </trkpt>
            <trkpt lat="54.972290" lon="-8.084380">
                <time>2019-06-14T08:29:45Z</time>
            </trkpt>
            <trkpt lat="54.972240" lon="-8.084670">
                <time>2019-06-14T08:29:46Z</time>
            </trkpt>
            <trkpt lat="54.972210" lon="-8.085000">
                <time>2019-06-14T08:29:47Z</time>
            </trkpt>
            <trkpt lat="54.972190" lon="-8.085360">
                <time>2019-06-14T08:29:48Z</time>
            </trkpt>
            <trkpt lat="54.972180" lon="-8.085730">
                <time>2019-06-14T08:29:49Z</time>
            </trkpt>
            <trkpt lat="54.972160" lon="-8.086110">
                <time>2019-06-14T08:29:50Z</time>
            </trkpt>
            <trkpt lat="54.972140" lon="-8.086490">
                <time>2019-06-14T08:29:51Z</time>
            </trkpt>
            <trkpt lat="54.972110" lon="-8.086870">
                <time>2019-06-14T08:29:52Z</time>
            </trkpt>
            <trkpt lat="54.972080" lon="-8.087260">
                <time>2019-06-14T08:29:53Z</time>
            </trkpt>
            <trkpt lat="54.972050" lon="-8.087630">
                <time>2019-06-14T08:29:54Z</time>
            </trkpt>
            <trkpt lat="54.972010" lon="-8.087970">
                <time>2019-06-14T08:29:55Z</time>
            </trkpt>
            <trkpt lat="54.971960" lon="-8.088280">
                <time>2019-06-14T08:29:56Z</time>
            </trkpt>
            <trkpt lat="54.971900" lon="-8.088560">
                <time>2019-06-14T08:29:57Z</time>
            </trkpt>
            <trkpt lat="54.971820" lon="-8.088810">
                <time>2019-06-14T08:29:58Z</time>
            </trkpt>
            <trkpt lat="54.971730" lon="-8.089030">
                <time>2019-06-14T08:29:59Z</time>
            </trkpt>
            <trkpt lat="54.971610" lon="-8.089230">
                <time>2019-06-14T08:30:00Z</time>
            </trkpt>
            <trkpt lat="54.971490" lon="-8.089420">
                <time>2019-06-14T08:30:01Z</time>
            </trkpt>
            <trkpt lat="54.971350" lon="-8.089600">
                <time>2019-06-14T08:30:02Z</time>
            </trkpt>
            <trkpt lat="54.971190" lon="-8.089770">
                <time>2019-06-14T08:30:03Z</time>
            </trkpt>
            <trkpt lat="54.971040" lon="-8.089950">
                <time>2019-06-14T08:30:04Z</time>
            </trkpt>
            <trkpt lat="54.970900" lon="-8.090130">
                <time>2019-06-14T08:30:05Z</time>
            </trkpt>
            <trkpt lat="54.970760" lon="-8.090330">
                <time>2019-06-14T08:30:06Z</time>
            </trkpt>
            <trkpt lat="54.970630" lon="-8.090540">
                <time>2019-06-14T08:30:07Z</time>
            </trkpt>
            <trkpt lat="54.970510" lon="-8.090780">
                <time>2019-06-14T08:30:08Z</time>
            </trkpt>
            <trkpt lat="54.970390" lon="-8.091020">
                <time>2019-06-14T08:30:09Z</time>
            </trkpt>
            <trkpt lat="54.970260" lon="-8.091280">
                <time>2019-06-14T08:30:10Z</time>
            </trkpt>
            <trkpt lat="54.970140" lon="-8.091560">
                <time>2019-06-14T08:30:11Z</time>
            </trkpt>
            <trkpt lat="54.970010" lon="-8.091860">
                <time>2019-06-14T08:30:12Z</time>
            </trkpt>
            <trkpt lat="54.969870" lon="-8.092190">
                <time>2019-06-14T08:30:13Z</time>
            </trkpt>
            <trkpt lat="54.969730" lon="-8.092490">
                <time>2019-06-14T08:30:14Z</time>
            </trkpt>
            <trkpt lat="54.969590" lon="-8.092770">
                <time>2019-06-14T08:30:15Z</time>
            </trkpt>
            <trkpt lat="54.969450" lon="-8.093020">
                <time>2019-06-14T08:30:16Z</time>
            </trkpt>
            <trkpt lat="54.969320" lon="-8.093250">
                <time>2019-06-14T08:30:17Z</time>
            </trkpt>
            <trkpt lat="54.969200" lon="-8.093470">
                <time>2019-06-14T08:30:18Z</time>
            </trkpt>
            <trkpt lat="54.969080" lon="-8.093680">
                <time>2019-06-14T08:30:19Z</time>
            </trkpt>
            <trkpt lat="54.968960" lon="-8.093900">
                <time>2019-06-14T08:30:20Z</time>
            </trkpt>
            <trkpt lat="54.968840" lon="-8.094120">
                <time>2019-06-14T08:30:21Z</time>
            </trkpt>
            <trkpt lat="54.968710" lon="-8.094360">
                <time>2019-06-14T08:30:22Z</time>
            </trkpt>
            <trkpt lat="54.968580" lon="-8.094600">
                <time>2019-06-14T08:30:23Z</time>
            </trkpt>
            <trkpt lat="54.968440" lon="-8.094840">
                <time>2019-06-14T08:30:24Z</time>
            </trkpt>
            <trkpt lat="54.968310" lon="-8.095070">
                <time>2019-06-14T08:30:25Z</time>
            </trkpt>
            <trkpt lat="54.968180" lon="-8.095290">
                <time>2019-06-14T08:30:26Z</time>
            </trkpt>
            <trkpt lat="54.968060" lon="-8.095510">
                <time>2019-06-14T08:30:27Z</time>
            </trkpt>
            <trkpt lat="54.967940" lon="-8.095740">
                <time>2019-06-14T08:30:28Z</time>
            </trkpt>
            <trkpt lat="54.967810" lon="-8.095980">
                <time>2019-06-14T08:30:29Z</time>
            </trkpt>
            <trkpt lat="54.967670" lon="-8.096220">
                <time>2019-06-14T08:30:30Z</time>
            </trkpt>
            <trkpt lat="54.967530" lon="-8.096470">
                <time>2019-06-14T08:30:31Z</time>
            </trkpt>
            <trkpt lat="54.967400" lon="-8.096710">
                <time>2019-06-14T08:30:32Z</time>
            </trkpt>
            <trkpt lat="54.967260" lon="-8.096960">
                <time>2019-06-14T08:30:33Z</time>
            </trkpt>
            <trkpt lat="54.967130" lon="-8.097190">
                <time>2019-06-14T08:30:34Z</time>
            </trkpt>
            <trkpt lat="54.967000" lon="-8.097410">
                <time>2019-06-14T08:30:35Z</time>
            </trkpt>
            <trkpt lat="54.966870" lon="-8.097630">
                <time>2019-06-14T08:30:36Z</time>
            </trkpt>
            <trkpt lat="54.966750" lon="-8.097850">
                <time>2019-06-14T08:30:37Z</time>
            </trkpt>
            <trkpt lat="54.966630" lon="-8.098060">
                <time>2019-06-14T08:30:38Z</time>
            </trkpt>
            <trkpt lat="54.966520" lon="-8.098260">
                <time>2019-06-14T08:30:39Z</time>
            </trkpt>
            <trkpt lat="54.966420" lon="-8.098450">
                <time>2019-06-14T08:30:40Z</time>
            </trkpt>
            <trkpt lat="54.966320" lon="-8.098640">
                <time>2019-06-14T08:30:41Z</time>
            </trkpt>
            <trkpt lat="54.966220" lon="-8.098820">
                <time>2019-06-14T08:30:42Z</time>
            </trkpt>
            <trkpt lat="54.966120" lon="-8.099000">
                <time>2019-06-14T08:30:43Z</time>
            </trkpt>
            <trkpt lat="54.966020" lon="-8.099170">
                <time>2019-06-14T08:30:44Z</time>
            </trkpt>
            <trkpt lat="54.965930" lon="-8.099350">
                <time>2019-06-14T08:30:45Z</time>
            </trkpt>
            <trkpt lat="54.965850" lon="-8.099540">
                <time>2019-06-14T08:30:46Z</time>
            </trkpt>
            <trkpt lat="54.965770" lon="-8.099750">
                <time>2019-06-14T08:30:47Z</time>
            </trkpt>
            <trkpt lat="54.965690" lon="-8.099970">
                <time>2019-06-14T08:30:48Z</time>
            </trkpt>
            <trkpt lat="54.965610" lon="-8.100190">
                <time>2019-06-14T08:30:49Z</time>
            </trkpt>
            <trkpt lat="54.965540" lon="-8.100400">
                <time>2019-06-14T08:30:50Z</time>
            </trkpt>
            <trkpt lat="54.965460" lon="-8.100600">
                <time>2019-06-14T08:30:51Z</time>
            </trkpt>
            <trkpt lat="54.965380" lon="-8.100790">
                <time>2019-06-14T08:30:52Z</time>
            </trkpt>
            <trkpt lat="54.965300" lon="-8.101000">
                <time>2019-06-14T08:30:53Z</time>
            </trkpt>
            <trkpt lat="54.965210" lon="-8.101200">
                <time>2019-06-14T08:30:54Z</time>
            </trkpt>
            <trkpt lat="54.965100" lon="-8.101400">
                <time>2019-06-14T08:30:55Z</time>
            </trkpt>
            <trkpt lat="54.965000" lon="-8.101600">
                <time>2019-06-14T08:30:56Z</time>
            </trkpt>
            <trkpt lat="54.964880" lon="-8.101790">
                <time>2019-06-14T08:30:57Z</time>
            </trkpt>
            <trkpt lat="54.964760" lon="-8.101970">
                <time>2019-06-14T08:30:58Z</time>
            </trkpt>
            <trkpt lat="54.964640" lon="-8.102140">
                <time>2019-06-14T08:30:59Z</time>
            </trkpt>
            <trkpt lat="54.964500" lon="-8.102310">
                <time>2019-06-14T08:31:00Z</time>
            </trkpt>
            <trkpt lat="54.964370" lon="-8.102470">
                <time>2019-06-14T08:31:01Z</time>
            </trkpt>
            <trkpt lat="54.964230" lon="-8.102630">
                <time>2019-06-14T08:31:02Z</time>
            </trkpt>
            <trkpt lat="54.964090" lon="-8.102770">
                <time>2019-06-14T08:31:03Z</time>
            </trkpt>
            <trkpt lat="54.963950" lon="-8.102900">
                <time>2019-06-14T08:31:04Z</time>
            </trkpt>
            <trkpt lat="54.963830" lon="-8.103020">
                <time>2019-06-14T08:31:05Z</time>
            </trkpt>
            <trkpt lat="54.963690" lon="-8.103130">
                <time>2019-06-14T08:31:06Z</time>
            </trkpt>
            <trkpt lat="54.963560" lon="-8.103240">
                <time>2019-06-14T08:31:07Z</time>
            </trkpt>
            <trkpt lat="54.963430" lon="-8.103350">
                <time>2019-06-14T08:31:08Z</time>
            </trkpt>
            <trkpt lat="54.963290" lon="-8.103470">
                <time>2019-06-14T08:31:09Z</time>
            </trkpt>
            <trkpt lat="54.963160" lon="-8.103590">
                <time>2019-06-14T08:31:10Z</time>
            </trkpt>
            <trkpt lat="54.963030" lon="-8.103720">
                <time>2019-06-14T08:31:11Z</time>
            </trkpt>
            <trkpt lat="54.962890" lon="-8.103860">
                <time>2019-06-14T08:31:12Z</time>
            </trkpt>
            <trkpt lat="54.962750" lon="-8.104020">
                <time>2019-06-14T08:31:13Z</time>
            </trkpt>
            <trkpt lat="54.962620" lon="-8.104180">
                <time>2019-06-14T08:31:14Z</time>
            </trkpt>
            <trkpt lat="54.962480" lon="-8.104340">
                <time>2019-06-14T08:31:15Z</time>
            </trkpt>
            <trkpt lat="54.962350" lon="-8.104520">
                <time>2019-06-14T08:31:16Z</time>
            </trkpt>
            <trkpt lat="54.962220" lon="-8.104700">
                <time>2019-06-14T08:31:17Z</time>
            </trkpt>
            <trkpt lat="54.962090" lon="-8.104880">
                <time>2019-06-14T08:31:18Z</time>
            </trkpt>
            <trkpt lat="54.961970" lon="-8.105080">
                <time>2019-06-14T08:31:19Z</time>
            </trkpt>
            <trkpt lat="54.961860" lon="-8.105280">
                <time>2019-06-14T08:31:20Z</time>
            </trkpt>
            <trkpt lat="54.961740" lon="-8.105480">
                <time>2019-06-14T08:31:21Z</time>
            </trkpt>
            <trkpt lat="54.961620" lon="-8.105680">
                <time>2019-06-14T08:31:22Z</time>
            </trkpt>
            <trkpt lat="54.961500" lon="-8.105870">
                <time>2019-06-14T08:31:23Z</time>
            </trkpt>
            <trkpt lat="54.961390" lon="-8.106060">
                <time>2019-06-14T08:31:24Z</time>
            </trkpt>
            <trkpt lat="54.961290" lon="-8.106250">
                <time>2019-06-14T08:31:25Z</time>
            </trkpt>
            <trkpt lat="54.961200" lon="-8.106450">
                <time>2019-06-14T08:31:26Z</time>
            </trkpt>
            <trkpt lat="54.961120" lon="-8.106680">
                <time>2019-06-14T08:31:27Z</time>
            </trkpt>
            <trkpt lat="54.961050" lon="-8.106910">
                <time>2019-06-14T08:31:28Z</time>
            </trkpt>
            <trkpt lat="54.960980" lon="-8.107160">
                <time>2019-06-14T08:31:29Z</time>
            </trkpt>
            <trkpt lat="54.960910" lon="-8.107410">
                <time>2019-06-14T08:31:30Z</time>
            </trkpt>
            <trkpt lat="54.960830" lon="-8.107650">
                <time>2019-06-14T08:31:31Z</time>
            </trkpt>
            <trkpt lat="54.960760" lon="-8.107900">
                <time>2019-06-14T08:31:32Z</time>
            </trkpt>
            <trkpt lat="54.960670" lon="-8.108160">
                <time>2019-06-14T08:31:33Z</time>
            </trkpt>
            <trkpt lat="54.960560" lon="-8.108440">
                <time>2019-06-14T08:31:34Z</time>
            </trkpt>
            <trkpt lat="54.960430" lon="-8.108750">
                <time>2019-06-14T08:31:35Z</time>
            </trkpt>
            <trkpt lat="54.960300" lon="-8.109060">
                <time>2019-06-14T08:31:36Z</time>
            </trkpt>
            <trkpt lat="54.960150" lon="-8.109350">
                <time>2019-06-14T08:31:37Z</time>
            </trkpt>
            <trkpt lat="54.960010" lon="-8.109620">
                <time>2019-06-14T08:31:38Z</time>
            </trkpt>
            <trkpt lat="54.959860" lon="-8.109850">
                <time>2019-06-14T08:31:39Z</time>
            </trkpt>
            <trkpt lat="54.959700" lon="-8.110080">
                <time>2019-06-14T08:31:40Z</time>
            </trkpt>
            <trkpt lat="54.959540" lon="-8.110300">
                <time>2019-06-14T08:31:41Z</time>
            </trkpt>
            <trkpt lat="54.959380" lon="-8.110530">
                <time>2019-06-14T08:31:42Z</time>
            </trkpt>
            <trkpt lat="54.959220" lon="-8.110760">
                <time>2019-06-14T08:31:43Z</time>
            </trkpt>
            <trkpt lat="54.959060" lon="-8.110980">
                <time>2019-06-14T08:31:44Z</time>
            </trkpt>
            <trkpt lat="54.958900" lon="-8.111190">
                <time>2019-06-14T08:31:45Z</time>
            </trkpt>
            <trkpt lat="54.958750" lon="-8.111410">
                <time>2019-06-14T08:31:46Z</time>
            </trkpt>
            <trkpt lat="54.958600" lon="-8.111610">
                <time>2019-06-14T08:31:47Z</time>
            </trkpt>
            <trkpt lat="54.958450" lon="-8.111810">
                <time>2019-06-14T08:31:48Z</time>
            </trkpt>
            <trkpt lat="54.958300" lon="-8.112010">
                <time>2019-06-14T08:31:49Z</time>
            </trkpt>
            <trkpt lat="54.958150" lon="-8.112200">
                <time>2019-06-14T08:31:50Z</time>
            </trkpt>
            <trkpt lat="54.958010" lon="-8.112390">
                <time>2019-06-14T08:31:51Z</time>
            </trkpt>
            <trkpt lat="54.957850" lon="-8.112570">
                <time>2019-06-14T08:31:52Z</time>
            </trkpt>
            <trkpt lat="54.957680" lon="-8.112730">
                <time>2019-06-14T08:31:53Z</time>
            </trkpt>
            <trkpt lat="54.957500" lon="-8.112880">
                <time>2019-06-14T08:31:54Z</time>
            </trkpt>
            <trkpt lat="54.957310" lon="-8.113010">
                <time>2019-06-14T08:31:55Z</time>
            </trkpt>
            <trkpt lat="54.957110" lon="-8.113120">
                <time>2019-06-14T08:31:56Z</time>
            </trkpt>
            <trkpt lat="54.956910" lon="-8.113210">
                <time>2019-06-14T08:31:57Z</time>
            </trkpt>
            <trkpt lat="54.956720" lon="-8.113290">
                <time>2019-06-14T08:31:58Z</time>
            </trkpt>
            <trkpt lat="54.956540" lon="-8.113360">
                <time>2019-06-14T08:31:59Z</time>
            </trkpt>
            <trkpt lat="54.956380" lon="-8.113440">
                <time>2019-06-14T08:32:00Z</time>
            </trkpt>
            <trkpt lat="54.956210" lon="-8.113510">
                <time>2019-06-14T08:32:01Z</time>
            </trkpt>
            <trkpt lat="54.956050" lon="-8.113610">
                <time>2019-06-14T08:32:02Z</time>
            </trkpt>
            <trkpt lat="54.955890" lon="-8.113730">
                <time>2019-06-14T08:32:03Z</time>
            </trkpt>
            <trkpt lat="54.955740" lon="-8.113850">
                <time>2019-06-14T08:32:04Z</time>
            </trkpt>
            <trkpt lat="54.955600" lon="-8.113980">
                <time>2019-06-14T08:32:05Z</time>
            </trkpt>
            <trkpt lat="54.955450" lon="-8.114120">
                <time>2019-06-14T08:32:06Z</time>
            </trkpt>
            <trkpt lat="54.955310" lon="-8.114290">
                <time>2019-06-14T08:32:07Z</time>
            </trkpt>
            <trkpt lat="54.955160" lon="-8.114470">
                <time>2019-06-14T08:32:08Z</time>
            </trkpt>
            <trkpt lat="54.955000" lon="-8.114660">
                <time>2019-06-14T08:32:09Z</time>
            </trkpt>
            <trkpt lat="54.954850" lon="-8.114860">
                <time>2019-06-14T08:32:10Z</time>
            </trkpt>
            <trkpt lat="54.954700" lon="-8.115060">
                <time>2019-06-14T08:32:11Z</time>
            </trkpt>
            <trkpt lat="54.954550" lon="-8.115260">
                <time>2019-06-14T08:32:12Z</time>
            </trkpt>
            <trkpt lat="54.954400" lon="-8.115460">
                <time>2019-06-14T08:32:13Z</time>
            </trkpt>
            <trkpt lat="54.954250" lon="-8.115660">
                <time>2019-06-14T08:32:14Z</time>
            </trkpt>
            <trkpt lat="54.954100" lon="-8.115870">
                <time>2019-06-14T08:32:15Z</time>
            </trkpt>
            <trkpt lat="54.953970" lon="-8.116080">
                <time>2019-06-14T08:32:16Z</time>
            </trkpt>
            <trkpt lat="54.953840" lon="-8.116280">
                <time>2019-06-14T08:32:17Z</time>
            </trkpt>
            <trkpt lat="54.953720" lon="-8.116500">
                <time>2019-06-14T08:32:18Z</time>
            </trkpt>
            <trkpt lat="54.953590" lon="-8.116720">
                <time>2019-06-14T08:32:19Z</time>
            </trkpt>
            <trkpt lat="54.953470" lon="-8.116950">
                <time>2019-06-14T08:32:20Z</time>
            </trkpt>
            <trkpt lat="54.953340" lon="-8.117190">
                <time>2019-06-14T08:32:21Z</time>
            </trkpt>
            <trkpt lat="54.953200" lon="-8.117440">
                <time>2019-06-14T08:32:22Z</time>
            </trkpt>
            <trkpt lat="54.953060" lon="-8.117700">
                <time>2019-06-14T08:32:23Z</time>
            </trkpt>
            <trkpt lat="54.952910" lon="-8.117960">
                <time>2019-06-14T08:32:24Z</time>
            </trkpt>
            <trkpt lat="54.952770" lon="-8.118210">
                <time>2019-06-14T08:32:25Z</time>
            </trkpt>
            <trkpt lat="54.952630" lon="-8.118460">
                <time>2019-06-14T08:32:26Z</time>
            </trkpt>
            <trkpt lat="54.952490" lon="-8.118710">
                <time>2019-06-14T08:32:27Z</time>
            </trkpt>
            <trkpt lat="54.952350" lon="-8.118960">
                <time>2019-06-14T08:32:28Z</time>
            </trkpt>
            <trkpt lat="54.952210" lon="-8.119220">
                <time>2019-06-14T08:32:29Z</time>
            </trkpt>
            <trkpt lat="54.952070" lon="-8.119480">
                <time>2019-06-14T08:32:30Z</time>
            </trkpt>
            <trkpt lat="54.951930" lon="-8.119730">
                <time>2019-06-14T08:32:31Z</time>
            </trkpt>
            <trkpt lat="54.951790" lon="-8.119970">
                <time>2019-06-14T08:32:32Z</time>
            </trkpt>
            <trkpt lat="54.951660" lon="-8.120200">
                <time>2019-06-14T08:32:33Z</time>
            </trkpt>
            <trkpt lat="54.951530" lon="-8.120430">
                <time>2019-06-14T08:32:34Z</time>
            </trkpt>
            <trkpt lat="54.951410" lon="-8.120660">
                <time>2019-06-14T08:32:35Z</time>
            </trkpt>
            <trkpt lat="54.951290" lon="-8.120880">
                <time>2019-06-14T08:32:36Z</time>
            </trkpt>
            <trkpt lat="54.951170" lon="-8.121100">
                <time>2019-06-14T08:32:37Z</time>
            </trkpt>
            <trkpt lat="54.951050" lon="-8.121330">
                <time>2019-06-14T08:32:38Z</time>
            </trkpt>
            <trkpt lat="54.950930" lon="-8.121550">
                <time>2019-06-14T08:32:39Z</time>
            </trkpt>
            <trkpt lat="54.950810" lon="-8.121780">
                <time>2019-06-14T08:32:40Z</time>
            </trkpt>
            <trkpt lat="54.950690" lon="-8.122020">
                <time>2019-06-14T08:32:41Z</time>
            </trkpt>
            <trkpt lat="54.950560" lon="-8.122260">
                <time>2019-06-14T08:32:42Z</time>
            </trkpt>
            <trkpt lat="54.950420" lon="-8.122500">
                <time>2019-06-14T08:32:43Z</time>
            </trkpt>
            <trkpt lat="54.950290" lon="-8.122750">
                <time>2019-06-14T08:32:44Z</time>
            </trkpt>
            <trkpt lat="54.950170" lon="-8.122990">
                <time>2019-06-14T08:32:45Z</time>
            </trkpt>
            <trkpt lat="54.950030" lon="-8.123220">
                <time>2019-06-14T08:32:46Z</time>
            </trkpt>
            <trkpt lat="54.949910" lon="-8.123460">
                <time>2019-06-14T08:32:47Z</time>
            </trkpt>
            <trkpt lat="54.949780" lon="-8.123700">
                <time>2019-06-14T08:32:48Z</time>
            </trkpt>
            <trkpt lat="54.949640" lon="-8.123940">
                <time>2019-06-14T08:32:49Z</time>
            </trkpt>
            <trkpt lat="54.949510" lon="-8.124190">
                <time>2019-06-14T08:32:50Z</time>
            </trkpt>
            <trkpt lat="54.949370" lon="-8.124440">
                <time>2019-06-14T08:32:51Z</time>
            </trkpt>
            <trkpt lat="54.949230" lon="-8.124690">
                <time>2019-06-14T08:32:52Z</time>
            </trkpt>
            <trkpt lat="54.949090" lon="-8.124940">
                <time>2019-06-14T08:32:53Z</time>
            </trkpt>
            <trkpt lat="54.948950" lon="-8.125180">
                <time>2019-06-14T08:32:54Z</time>
            </trkpt>
            <trkpt lat="54.948820" lon="-8.125420">
                <time>2019-06-14T08:32:55Z</time>
            </trkpt>
            <trkpt lat="54.948690" lon="-8.125640">
                <time>2019-06-14T08:32:56Z</time>
            </trkpt>
            <trkpt lat="54.948570" lon="-8.125850">
                <time>2019-06-14T08:32:57Z</time>
            </trkpt>
            <trkpt lat="54.948440" lon="-8.126060">
                <time>2019-06-14T08:32:58Z</time>
            </trkpt>
            <trkpt lat="54.948320" lon="-8.126270">
                <time>2019-06-14T08:32:59Z</time>
            </trkpt>
            <trkpt lat="54.948190" lon="-8.126470">
                <time>2019-06-14T08:33:00Z</time>
            </trkpt>
            <trkpt lat="54.948050" lon="-8.126670">
                <time>2019-06-14T08:33:01Z</time>
            </trkpt>
            <trkpt lat="54.947910" lon="-8.126850">
                <time>2019-06-14T08:33:02Z</time>
            </trkpt>
            <trkpt lat="54.947760" lon="-8.127040">
                <time>2019-06-14T08:33:03Z</time>
            </trkpt>
            <trkpt lat="54.947620" lon="-8.127220">
                <time>2019-06-14T08:33:04Z</time>
            </trkpt>
            <trkpt lat="54.947470" lon="-8.127410">
                <time>2019-06-14T08:33:05Z</time>
            </trkpt>
            <trkpt lat="54.947330" lon="-8.127590">
                <time>2019-06-14T08:33:06Z</time>
            </trkpt>
            <trkpt lat="54.947200" lon="-8.127780">
                <time>2019-06-14T08:33:07Z</time>
            </trkpt>
            <trkpt lat="54.947080" lon="-8.127990">
                <time>2019-06-14T08:33:08Z</time>
            </trkpt>
            <trkpt lat="54.946960" lon="-8.128180">
                <time>2019-06-14T08:33:09Z</time>
            </trkpt>
            <trkpt lat="54.946850" lon="-8.128390">
                <time>2019-06-14T08:33:10Z</time>
            </trkpt>
            <trkpt lat="54.946730" lon="-8.128610">
                <time>2019-06-14T08:33:11Z</time>
            </trkpt>
            <trkpt lat="54.946620" lon="-8.128830">
                <time>2019-06-14T08:33:12Z</time>
            </trkpt>
            <trkpt lat="54.946500" lon="-8.129040">
                <time>2019-06-14T08:33:13Z</time>
            </trkpt>
            <trkpt lat="54.946390" lon="-8.129250">
                <time>2019-06-14T08:33:14Z</time>
            </trkpt>
            <trkpt lat="54.946290" lon="-8.129430">
                <time>2019-06-14T08:33:15Z</time>
            </trkpt>
            <trkpt lat="54.946210" lon="-8.129590">
                <time>2019-06-14T08:33:16Z</time>
            </trkpt>
            <trkpt lat="54.946130" lon="-8.129740">
                <time>2019-06-14T08:33:17Z</time>
            </trkpt>
            <trkpt lat="54.946070" lon="-8.129860">
                <time>2019-06-14T08:33:18Z</time>
            </trkpt>
            <trkpt lat="54.946000" lon="-8.129990">
                <time>2019-06-14T08:33:19Z</time>
            </trkpt>
            <trkpt lat="54.945930" lon="-8.130120">
                <time>2019-06-14T08:33:20Z</time>
            </trkpt>
            <trkpt lat="54.945870" lon="-8.130250">
                <time>2019-06-14T08:33:21Z</time>
            </trkpt>
            <trkpt lat="54.945810" lon="-8.130350">
                <time>2019-06-14T08:33:22Z</time>
            </trkpt>
            <trkpt lat="54.945770" lon="-8.130440">
                <time>2019-06-14T08:33:23Z</time>
            </trkpt>
            <trkpt lat="54.945720" lon="-8.130510">
                <time>2019-06-14T08:33:24Z</time>
            </trkpt>
            <trkpt lat="54.945690" lon="-8.130580">
                <time>2019-06-14T08:33:25Z</time>
            </trkpt>
            <trkpt lat="54.945650" lon="-8.130640">
                <time>2019-06-14T08:33:26Z</time>
            </trkpt>
            <trkpt lat="54.945620" lon="-8.130710">
                <time>2019-06-14T08:33:27Z</time>
            </trkpt>
            <trkpt lat="54.945590" lon="-8.130770">
                <time>2019-06-14T08:33:28Z</time>
            </trkpt>
            <trkpt lat="54.945550" lon="-8.130850">
                <time>2019-06-14T08:33:29Z</time>
            </trkpt>
            <trkpt lat="54.945510" lon="-8.130940">
                <time>2019-06-14T08:33:30Z</time>
            </trkpt>
            <trkpt lat="54.945450" lon="-8.131050">
                <time>2019-06-14T08:33:31Z</time>
            </trkpt>
            <trkpt lat="54.945390" lon="-8.131160">
                <time>2019-06-14T08:33:32Z</time>
            </trkpt>
            <trkpt lat="54.945320" lon="-8.131280">
                <time>2019-06-14T08:33:33Z</time>
            </trkpt>
            <trkpt lat="54.945260" lon="-8.131400">
                <time>2019-06-14T08:33:34Z</time>
            </trkpt>
            <trkpt lat="54.945190" lon="-8.131520">
                <time>2019-06-14T08:33:35Z</time>
            </trkpt>
            <trkpt lat="54.945130" lon="-8.131650">
                <time>2019-06-14T08:33:36Z</time>
            </trkpt>
            <trkpt lat="54.945060" lon="-8.131780">
                <time>2019-06-14T08:33:37Z</time>
            </trkpt>
            <trkpt lat="54.945000" lon="-8.131930">
                <time>2019-06-14T08:33:38Z</time>
            </trkpt>
            <trkpt lat="54.944930" lon="-8.132060">
                <time>2019-06-14T08:33:39Z</time>
            </trkpt>
            <trkpt lat="54.944870" lon="-8.132190">
                <time>2019-06-14T08:33:40Z</time>
            </trkpt>
            <trkpt lat="54.944810" lon="-8.132320">
                <time>2019-06-14T08:33:41Z</time>
            </trkpt>
            <trkpt lat="54.944740" lon="-8.132470">
                <time>2019-06-14T08:33:42Z</time>
            </trkpt>
            <trkpt lat="54.944670" lon="-8.132630">
                <time>2019-06-14T08:33:43Z</time>
            </trkpt>
            <trkpt lat="54.944590" lon="-8.132800">
                <time>2019-06-14T08:33:44Z</time>
            </trkpt>
            <trkpt lat="54.944520" lon="-8.132950">
                <time>2019-06-14T08:33:45Z</time>
            </trkpt>
            <trkpt lat="54.944440" lon="-8.133110">
                <time>2019-06-14T08:33:46Z</time>
            </trkpt>
            <trkpt lat="54.944350" lon="-8.133270">
                <time>2019-06-14T08:33:47Z</time>
            </trkpt>
            <trkpt lat="54.944270" lon="-8.133430">
                <time>2019-06-14T08:33:48Z</time>
            </trkpt>
            <trkpt lat="54.944200" lon="-8.133560">
                <time>2019-06-14T08:33:49Z</time>
            </trkpt>
            <trkpt lat="54.944120" lon="-8.133710">
                <time>2019-06-14T08:33:50Z</time>
            </trkpt>
            <trkpt lat="54.944050" lon="-8.133840">
                <time>2019-06-14T08:33:51Z</time>
            </trkpt>
            <trkpt lat="54.943980" lon="-8.133980">
                <time>2019-06-14T08:33:52Z</time>
            </trkpt>
            <trkpt lat="54.943910" lon="-8.134110">
                <time>2019-06-14T08:33:53Z</time>
            </trkpt>
            <trkpt lat="54.943840" lon="-8.134230">
                <time>2019-06-14T08:33:54Z</time>
            </trkpt>
            <trkpt lat="54.943780" lon="-8.134350">
                <time>2019-06-14T08:33:55Z</time>
            </trkpt>
            <trkpt lat="54.943720" lon="-8.134480">
                <time>2019-06-14T08:33:56Z</time>
            </trkpt>
            <trkpt lat="54.943650" lon="-8.134630">
                <time>2019-06-14T08:33:57Z</time>
            </trkpt>
            <trkpt lat="54.943560" lon="-8.134790">
                <time>2019-06-14T08:33:58Z</time>
            </trkpt>
            <trkpt lat="54.943470" lon="-8.134960">
                <time>2019-06-14T08:33:59Z</time>
            </trkpt>
            <trkpt lat="54.943380" lon="-8.135140">
                <time>2019-06-14T08:34:00Z</time>
            </trkpt>
            <trkpt lat="54.943290" lon="-8.135310">
                <time>2019-06-14T08:34:01Z</time>
            </trkpt>
            <trkpt lat="54.943200" lon="-8.135480">
                <time>2019-06-14T08:34:02Z</time>
            </trkpt>
            <trkpt lat="54.943090" lon="-8.135670">
                <time>2019-06-14T08:34:03Z</time>
            </trkpt>
            <trkpt lat="54.942990" lon="-8.135870">
                <time>2019-06-14T08:34:04Z</time>
            </trkpt>
            <trkpt lat="54.942890" lon="-8.136070">
                <time>2019-06-14T08:34:05Z</time>
            </trkpt>
            <trkpt lat="54.942790" lon="-8.136250">
                <time>2019-06-14T08:34:06Z</time>
            </trkpt>
            <trkpt lat="54.942700" lon="-8.136420">
                <time>2019-06-14T08:34:07Z</time>
            </trkpt>
            <trkpt lat="54.942620" lon="-8.136580">
                <time>2019-06-14T08:34:08Z</time>
            </trkpt>
            <trkpt lat="54.942540" lon="-8.136740">
                <time>2019-06-14T08:34:09Z</time>
            </trkpt>
            <trkpt lat="54.942450" lon="-8.136910">
                <time>2019-06-14T08:34:10Z</time>
            </trkpt>
            <trkpt lat="54.942360" lon="-8.137090">
                <time>2019-06-14T08:34:11Z</time>
            </trkpt>
            <trkpt lat="54.942280" lon="-8.137280">
                <time>2019-06-14T08:34:12Z</time>
            </trkpt>
            <trkpt lat="54.942190" lon="-8.137470">
                <time>2019-06-14T08:34:13Z</time>
            </trkpt>
            <trkpt lat="54.942110" lon="-8.137640">
                <time>2019-06-14T08:34:14Z</time>
            </trkpt>
            <trkpt lat="54.942030" lon="-8.137810">
                <time>2019-06-14T08:34:15Z</time>
            </trkpt>
            <trkpt lat="54.941950" lon="-8.137980">
                <time>2019-06-14T08:34:16Z</time>
            </trkpt>
            <trkpt lat="54.941870" lon="-8.138160">
                <time>2019-06-14T08:34:17Z</time>
            </trkpt>
            <trkpt lat="54.941780" lon="-8.138340">
                <time>2019-06-14T08:34:18Z</time>
            </trkpt>
            <trkpt lat="54.941700" lon="-8.138520">
                <time>2019-06-14T08:34:19Z</time>
            </trkpt>
            <trkpt lat="54.941610" lon="-8.138720">
                <time>2019-06-14T08:34:20Z</time>
            </trkpt>
            <trkpt lat="54.941520" lon="-8.138910">
                <time>2019-06-14T08:34:21Z</time>
            </trkpt>
            <trkpt lat="54.941430" lon="-8.139100">
                <time>2019-06-14T08:34:22Z</time>
            </trkpt>
            <trkpt lat="54.941340" lon="-8.139300">
                <time>2019-06-14T08:34:23Z</time>
            </trkpt>
            <trkpt lat="54.941260" lon="-8.139500">
                <time>2019-06-14T08:34:24Z</time>
            </trkpt>
            <trkpt lat="54.941170" lon="-8.139700">
                <time>2019-06-14T08:34:25Z</time>
            </trkpt>
            <trkpt lat="54.941080" lon="-8.139910">
                <time>2019-06-14T08:34:26Z</time>
            </trkpt>
            <trkpt lat="54.940990" lon="-8.140110">
                <time>2019-06-14T08:34:27Z</time>
            </trkpt>
            <trkpt lat="54.940890" lon="-8.140310">
                <time>2019-06-14T08:34:28Z</time>
            </trkpt>
            <trkpt lat="54.940790" lon="-8.140510">
                <time>2019-06-14T08:34:29Z</time>
            </trkpt>
            <trkpt lat="54.940690" lon="-8.140720">
                <time>2019-06-14T08:34:30Z</time>
            </trkpt>
            <trkpt lat="54.940590" lon="-8.140920">
                <time>2019-06-14T08:34:31Z</time>
            </trkpt>
            <trkpt lat="54.940490" lon="-8.141110">
                <time>2019-06-14T08:34:32Z</time>
            </trkpt>
            <trkpt lat="54.940390" lon="-8.141300">
                <time>2019-06-14T08:34:33Z</time>
            </trkpt>
            <trkpt lat="54.940290" lon="-8.141480">
                <time>2019-06-14T08:34:34Z</time>
            </trkpt>
            <trkpt lat="54.940190" lon="-8.141670">
                <time>2019-06-14T08:34:35Z</time>
            </trkpt>
            <trkpt lat="54.940080" lon="-8.141860">
                <time>2019-06-14T08:34:36Z</time>
            </trkpt>
            <trkpt lat="54.939970" lon="-8.142050">
                <time>2019-06-14T08:34:37Z</time>
            </trkpt>
            <trkpt lat="54.939860" lon="-8.142230">
                <time>2019-06-14T08:34:38Z</time>
            </trkpt>
            <trkpt lat="54.939750" lon="-8.142440">
                <time>2019-06-14T08:34:39Z</time>
            </trkpt>
            <trkpt lat="54.939640" lon="-8.142650">
                <time>2019-06-14T08:34:40Z</time>
            </trkpt>
            <trkpt lat="54.939530" lon="-8.142860">
                <time>2019-06-14T08:34:41Z</time>
            </trkpt>
            <trkpt lat="54.939420" lon="-8.143080">
                <time>2019-06-14T08:34:42Z</time>
            </trkpt>
            <trkpt lat="54.939320" lon="-8.143270">
                <time>2019-06-14T08:34:43Z</time>
            </trkpt>
            <trkpt lat="54.939220" lon="-8.143470">
                <time>2019-06-14T08:34:44Z</time>
            </trkpt>
            <trkpt lat="54.939120" lon="-8.143660">
                <time>2019-06-14T08:34:45Z</time>
            </trkpt>
            <trkpt lat="54.939020" lon="-8.143860">
                <time>2019-06-14T08:34:46Z</time>
            </trkpt>
            <trkpt lat="54.938920" lon="-8.144050">
                <time>2019-06-14T08:34:47Z</time>
            </trkpt>
            <trkpt lat="54.938820" lon="-8.144250">
                <time>2019-06-14T08:34:48Z</time>
            </trkpt>
            <trkpt lat="54.938720" lon="-8.144440">
                <time>2019-06-14T08:34:49Z</time>
            </trkpt>
            <trkpt lat="54.938620" lon="-8.144640">
                <time>2019-06-14T08:34:50Z</time>
            </trkpt>
            <trkpt lat="54.938520" lon="-8.144840">
                <time>2019-06-14T08:34:51Z</time>
            </trkpt>
            <trkpt lat="54.938420" lon="-8.145040">
                <time>2019-06-14T08:34:52Z</time>
            </trkpt>
            <trkpt lat="54.938320" lon="-8.145250">
                <time>2019-06-14T08:34:53Z</time>
            </trkpt>
            <trkpt lat="54.938220" lon="-8.145470">
                <time>2019-06-14T08:34:54Z</time>
            </trkpt>
            <trkpt lat="54.938130" lon="-8.145690">
                <time>2019-06-14T08:34:55Z</time>
            </trkpt>
            <trkpt lat="54.938030" lon="-8.145920">
                <time>2019-06-14T08:34:56Z</time>
            </trkpt>
            <trkpt lat="54.937930" lon="-8.146150">
                <time>2019-06-14T08:34:57Z</time>
            </trkpt>
            <trkpt lat="54.937830" lon="-8.146370">
                <time>2019-06-14T08:34:58Z</time>
            </trkpt>
            <trkpt lat="54.937730" lon="-8.146590">
                <time>2019-06-14T08:34:59Z</time>
            </trkpt>
            <trkpt lat="54.937620" lon="-8.146800">
                <time>2019-06-14T08:35:00Z</time>
            </trkpt>
            <trkpt lat="54.937520" lon="-8.147000">
                <time>2019-06-14T08:35:01Z</time>
            </trkpt>
            <trkpt lat="54.937420" lon="-8.147200">
                <time>2019-06-14T08:35:02Z</time>
            </trkpt>
            <trkpt lat="54.937330" lon="-8.147420">
                <time>2019-06-14T08:35:03Z</time>
            </trkpt>
            <trkpt lat="54.937240" lon="-8.147650">
                <time>2019-06-14T08:35:04Z</time>
            </trkpt>
            <trkpt lat="54.937160" lon="-8.147910">
                <time>2019-06-14T08:35:05Z</time>
            </trkpt>
            <trkpt lat="54.937070" lon="-8.148190">
                <time>2019-06-14T08:35:06Z</time>
            </trkpt>
            <trkpt lat="54.936980" lon="-8.148490">
                <time>2019-06-14T08:35:07Z</time>
            </trkpt>
            <trkpt lat="54.936890" lon="-8.148780">
                <time>2019-06-14T08:35:08Z</time>
            </trkpt>
            <trkpt lat="54.936800" lon="-8.149060">
                <time>2019-06-14T08:35:09Z</time>
            </trkpt>
            <trkpt lat="54.936690" lon="-8.149330">
                <time>2019-06-14T08:35:10Z</time>
            </trkpt>
            <trkpt lat="54.936580" lon="-8.149590">
                <time>2019-06-14T08:35:11Z</time>
            </trkpt>
            <trkpt lat="54.936460" lon="-8.149840">
                <time>2019-06-14T08:35:12Z</time>
            </trkpt>
            <trkpt lat="54.936340" lon="-8.150090">
                <time>2019-06-14T08:35:13Z</time>
            </trkpt>
            <trkpt lat="54.936230" lon="-8.150330">
                <time>2019-06-14T08:35:14Z</time>
            </trkpt>
            <trkpt lat="54.936130" lon="-8.150550">
                <time>2019-06-14T08:35:15Z</time>
            </trkpt>
            <trkpt lat="54.936030" lon="-8.150780">
                <time>2019-06-14T08:35:16Z</time>
            </trkpt>
            <trkpt lat="54.935940" lon="-8.150990">
                <time>2019-06-14T08:35:17Z</time>
            </trkpt>
            <trkpt lat="54.935860" lon="-8.151210">
                <time>2019-06-14T08:35:18Z</time>
            </trkpt>
            <trkpt lat="54.935790" lon="-8.151410">
                <time>2019-06-14T08:35:19Z</time>
            </trkpt>
            <trkpt lat="54.935720" lon="-8.151590">
                <time>2019-06-14T08:35:20Z</time>
            </trkpt>
            <trkpt lat="54.935630" lon="-8.151750">
                <time>2019-06-14T08:35:21Z</time>
            </trkpt>
            <trkpt lat="54.935520" lon="-8.151910">
                <time>2019-06-14T08:35:22Z</time>
            </trkpt>
            <trkpt lat="54.935420" lon="-8.152070">
                <time>2019-06-14T08:35:23Z</time>
            </trkpt>
            <trkpt lat="54.935310" lon="-8.152230">
                <time>2019-06-14T08:35:24Z</time>
            </trkpt>
            <trkpt lat="54.935210" lon="-8.152390">
                <time>2019-06-14T08:35:25Z</time>
            </trkpt>
            <trkpt lat="54.935120" lon="-8.152550">
                <time>2019-06-14T08:35:26Z</time>
            </trkpt>
            <trkpt lat="54.935020" lon="-8.152700">
                <time>2019-06-14T08:35:27Z</time>
            </trkpt>
            <trkpt lat="54.934930" lon="-8.152870">
                <time>2019-06-14T08:35:28Z</time>
            </trkpt>
            <trkpt lat="54.934840" lon="-8.153020">
                <time>2019-06-14T08:35:29Z</time>
            </trkpt>
            <trkpt lat="54.934750" lon="-8.153170">
                <time>2019-06-14T08:35:30Z</time>
            </trkpt>
            <trkpt lat="54.934660" lon="-8.153320">
                <time>2019-06-14T08:35:31Z</time>
            </trkpt>
            <trkpt lat="54.934570" lon="-8.153460">
                <time>2019-06-14T08:35:32Z</time>
            </trkpt>
            <trkpt lat="54.934490" lon="-8.153600">
                <time>2019-06-14T08:35:33Z</time>
            </trkpt>
            <trkpt lat="54.934410" lon="-8.153750">
                <time>2019-06-14T08:35:34Z</time>
            </trkpt>
            <trkpt lat="54.934330" lon="-8.153890">
                <time>2019-06-14T08:35:35Z</time>
            </trkpt>
            <trkpt lat="54.934250" lon="-8.154030">
                <time>2019-06-14T08:35:36Z</time>
            </trkpt>
            <trkpt lat="54.934160" lon="-8.154180">
                <time>2019-06-14T08:35:37Z</time>
            </trkpt>
            <trkpt lat="54.934080" lon="-8.154330">
                <time>2019-06-14T08:35:38Z</time>
            </trkpt>
            <trkpt lat="54.934000" lon="-8.154460">
                <time>2019-06-14T08:35:39Z</time>
            </trkpt>
            <trkpt lat="54.933930" lon="-8.154600">
                <time>2019-06-14T08:35:40Z</time>
            </trkpt>
            <trkpt lat="54.933850" lon="-8.154730">
                <time>2019-06-14T08:35:41Z</time>
            </trkpt>
            <trkpt lat="54.933780" lon="-8.154860">
                <time>2019-06-14T08:35:42Z</time>
            </trkpt>
            <trkpt lat="54.933710" lon="-8.155000">
                <time>2019-06-14T08:35:43Z</time>
            </trkpt>
            <trkpt lat="54.933640" lon="-8.155140">
                <time>2019-06-14T08:35:44Z</time>
            </trkpt>
            <trkpt lat="54.933560" lon="-8.155270">
                <time>2019-06-14T08:35:45Z</time>
            </trkpt>
            <trkpt lat="54.933490" lon="-8.155410">
                <time>2019-06-14T08:35:46Z</time>
            </trkpt>
            <trkpt lat="54.933420" lon="-8.155540">
                <time>2019-06-14T08:35:47Z</time>
            </trkpt>
            <trkpt lat="54.933340" lon="-8.155670">
                <time>2019-06-14T08:35:48Z</time>
            </trkpt>
            <trkpt lat="54.933280" lon="-8.155780">
                <time>2019-06-14T08:35:49Z</time>
            </trkpt>
            <trkpt lat="54.933210" lon="-8.155900">
                <time>2019-06-14T08:35:50Z</time>
            </trkpt>
            <trkpt lat="54.933140" lon="-8.156020">
                <time>2019-06-14T08:35:51Z</time>
            </trkpt>
            <trkpt lat="54.933070" lon="-8.156160">
                <time>2019-06-14T08:35:52Z</time>
            </trkpt>
            <trkpt lat="54.933000" lon="-8.156300">
                <time>2019-06-14T08:35:53Z</time>
            </trkpt>
            <trkpt lat="54.932920" lon="-8.156460">
                <time>2019-06-14T08:35:54Z</time>
            </trkpt>
            <trkpt lat="54.932840" lon="-8.156630">
                <time>2019-06-14T08:35:55Z</time>
            </trkpt>
            <trkpt lat="54.932760" lon="-8.156810">
                <time>2019-06-14T08:35:56Z</time>
            </trkpt>
            <trkpt lat="54.932680" lon="-8.157000">
                <time>2019-06-14T08:35:57Z</time>
            </trkpt>
            <trkpt lat="54.932600" lon="-8.157180">
                <time>2019-06-14T08:35:58Z</time>
            </trkpt>
            <trkpt lat="54.932520" lon="-8.157370">
                <time>2019-06-14T08:35:59Z</time>
            </trkpt>
            <trkpt lat="54.932450" lon="-8.157540">
                <time>2019-06-14T08:36:00Z</time>
            </trkpt>
            <trkpt lat="54.932380" lon="-8.157700">
                <time>2019-06-14T08:36:01Z</time>
            </trkpt>
            <trkpt lat="54.932310" lon="-8.157860">
                <time>2019-06-14T08:36:02Z</time>
            </trkpt>
            <trkpt lat="54.932240" lon="-8.158020">
                <time>2019-06-14T08:36:03Z</time>
            </trkpt>
            <trkpt lat="54.932170" lon="-8.158180">
                <time>2019-06-14T08:36:04Z</time>
            </trkpt>
            <trkpt lat="54.932110" lon="-8.158380">
                <time>2019-06-14T08:36:05Z</time>
            </trkpt>
            <trkpt lat="54.932040" lon="-8.158590">
                <time>2019-06-14T08:36:06Z</time>
            </trkpt>
            <trkpt lat="54.931980" lon="-8.158800">
                <time>2019-06-14T08:36:07Z</time>
            </trkpt>
            <trkpt lat="54.931930" lon="-8.159010">
                <time>2019-06-14T08:36:08Z</time>
            </trkpt>
            <trkpt lat="54.931890" lon="-8.159210">
                <time>2019-06-14T08:36:09Z</time>
            </trkpt>
            <trkpt lat="54.931830" lon="-8.159430">
                <time>2019-06-14T08:36:10Z</time>
            </trkpt>
            <trkpt lat="54.931760" lon="-8.159640">
                <time>2019-06-14T08:36:11Z</time>
            </trkpt>
            <trkpt lat="54.931670" lon="-8.159840">
                <time>2019-06-14T08:36:12Z</time>
            </trkpt>
            <trkpt lat="54.931570" lon="-8.160040">
                <time>2019-06-14T08:36:13Z</time>
            </trkpt>
            <trkpt lat="54.931480" lon="-8.160240">
                <time>2019-06-14T08:36:14Z</time>
            </trkpt>
            <trkpt lat="54.931380" lon="-8.160470">
                <time>2019-06-14T08:36:15Z</time>
            </trkpt>
            <trkpt lat="54.931290" lon="-8.160700">
                <time>2019-06-14T08:36:16Z</time>
            </trkpt>
            <trkpt lat="54.931200" lon="-8.160950">
                <time>2019-06-14T08:36:17Z</time>
            </trkpt>
            <trkpt lat="54.931100" lon="-8.161200">
                <time>2019-06-14T08:36:18Z</time>
            </trkpt>
            <trkpt lat="54.931010" lon="-8.161460">
                <time>2019-06-14T08:36:19Z</time>
            </trkpt>
            <trkpt lat="54.930920" lon="-8.161710">
                <time>2019-06-14T08:36:20Z</time>
            </trkpt>
            <trkpt lat="54.930820" lon="-8.161950">
                <time>2019-06-14T08:36:21Z</time>
            </trkpt>
            <trkpt lat="54.930730" lon="-8.162180">
                <time>2019-06-14T08:36:22Z</time>
            </trkpt>
            <trkpt lat="54.930640" lon="-8.162390">
                <time>2019-06-14T08:36:23Z</time>
            </trkpt>
            <trkpt lat="54.930540" lon="-8.162600">
                <time>2019-06-14T08:36:24Z</time>
            </trkpt>
            <trkpt lat="54.930450" lon="-8.162800">
                <time>2019-06-14T08:36:25Z</time>
            </trkpt>
            <trkpt lat="54.930350" lon="-8.163010">
                <time>2019-06-14T08:36:26Z</time>
            </trkpt>
            <trkpt lat="54.930250" lon="-8.163210">
                <time>2019-06-14T08:36:27Z</time>
            </trkpt>
            <trkpt lat="54.930140" lon="-8.163400">
                <time>2019-06-14T08:36:28Z</time>
            </trkpt>
            <trkpt lat="54.930050" lon="-8.163570">
                <time>2019-06-14T08:36:29Z</time>
            </trkpt>
            <trkpt lat="54.929950" lon="-8.163730">
                <time>2019-06-14T08:36:30Z</time>
            </trkpt>
            <trkpt lat="54.929860" lon="-8.163890">
                <time>2019-06-14T08:36:31Z</time>
            </trkpt>
            <trkpt lat="54.929770" lon="-8.164060">
                <time>2019-06-14T08:36:32Z</time>
            </trkpt>
            <trkpt lat="54.929670" lon="-8.164220">
                <time>2019-06-14T08:36:33Z</time>
            </trkpt>
            <trkpt lat="54.929570" lon="-8.164390">
                <time>2019-06-14T08:36:34Z</time>
            </trkpt>
            <trkpt lat="54.929460" lon="-8.164570">
                <time>2019-06-14T08:36:35Z</time>
            </trkpt>
            <trkpt lat="54.929360" lon="-8.164760">
                <time>2019-06-14T08:36:36Z</time>
            </trkpt>
            <trkpt lat="54.929260" lon="-8.164950">
                <time>2019-06-14T08:36:37Z</time>
            </trkpt>
            <trkpt lat="54.929160" lon="-8.165150">
                <time>2019-06-14T08:36:38Z</time>
            </trkpt>
            <trkpt lat="54.929060" lon="-8.165350">
                <time>2019-06-14T08:36:39Z</time>
            </trkpt>
            <trkpt lat="54.928970" lon="-8.165560">
                <time>2019-06-14T08:36:40Z</time>
            </trkpt>
            <trkpt lat="54.928880" lon="-8.165770">
                <time>2019-06-14T08:36:41Z</time>
            </trkpt>
            <trkpt lat="54.928800" lon="-8.165990">
                <time>2019-06-14T08:36:42Z</time>
            </trkpt>
            <trkpt lat="54.928730" lon="-8.166220">
                <time>2019-06-14T08:36:43Z</time>
            </trkpt>
            <trkpt lat="54.928650" lon="-8.166450">
                <time>2019-06-14T08:36:44Z</time>
            </trkpt>
            <trkpt lat="54.928580" lon="-8.166680">
                <time>2019-06-14T08:36:45Z</time>
            </trkpt>
            <trkpt lat="54.928520" lon="-8.166890">
                <time>2019-06-14T08:36:46Z</time>
            </trkpt>
            <trkpt lat="54.928460" lon="-8.167070">
                <time>2019-06-14T08:36:47Z</time>
            </trkpt>
            <trkpt lat="54.928380" lon="-8.167220">
                <time>2019-06-14T08:36:48Z</time>
            </trkpt>
            <trkpt lat="54.928300" lon="-8.167360">
                <time>2019-06-14T08:36:49Z</time>
            </trkpt>
            <trkpt lat="54.928220" lon="-8.167490">
                <time>2019-06-14T08:36:50Z</time>
            </trkpt>
            <trkpt lat="54.928130" lon="-8.167620">
                <time>2019-06-14T08:36:51Z</time>
            </trkpt>
            <trkpt lat="54.928050" lon="-8.167750">
                <time>2019-06-14T08:36:52Z</time>
            </trkpt>
            <trkpt lat="54.927970" lon="-8.167900">
                <time>2019-06-14T08:36:53Z</time>
            </trkpt>
            <trkpt lat="54.927890" lon="-8.168050">
                <time>2019-06-14T08:36:54Z</time>
            </trkpt>
            <trkpt lat="54.927800" lon="-8.168200">
                <time>2019-06-14T08:36:55Z</time>
            </trkpt>
            <trkpt lat="54.927710" lon="-8.168350">
                <time>2019-06-14T08:36:56Z</time>
            </trkpt>
            <trkpt lat="54.927620" lon="-8.168530">
                <time>2019-06-14T08:36:57Z</time>
            </trkpt>
            <trkpt lat="54.927520" lon="-8.168710">
                <time>2019-06-14T08:36:58Z</time>
            </trkpt>
            <trkpt lat="54.927430" lon="-8.168890">
                <time>2019-06-14T08:36:59Z</time>
            </trkpt>
            <trkpt lat="54.927330" lon="-8.169070">
                <time>2019-06-14T08:37:00Z</time>
            </trkpt>
            <trkpt lat="54.927240" lon="-8.169250">
                <time>2019-06-14T08:37:01Z</time>
            </trkpt>
            <trkpt lat="54.927160" lon="-8.169420">
                <time>2019-06-14T08:37:02Z</time>
            </trkpt>
            <trkpt lat="54.927090" lon="-8.169580">
                <time>2019-06-14T08:37:03Z</time>
            </trkpt>
            <trkpt lat="54.927020" lon="-8.169750">
                <time>2019-06-14T08:37:04Z</time>
            </trkpt>
            <trkpt lat="54.926940" lon="-8.169900">
                <time>2019-06-14T08:37:05Z</time>
            </trkpt>
            <trkpt lat="54.926870" lon="-8.170070">
                <time>2019-06-14T08:37:06Z</time>
            </trkpt>
            <trkpt lat="54.926790" lon="-8.170240">
                <time>2019-06-14T08:37:07Z</time>
            </trkpt>
            <trkpt lat="54.926710" lon="-8.170400">
                <time>2019-06-14T08:37:08Z</time>
            </trkpt>
            <trkpt lat="54.926630" lon="-8.170560">
                <time>2019-06-14T08:37:09Z</time>
            </trkpt>
            <trkpt lat="54.926540" lon="-8.170730">
                <time>2019-06-14T08:37:10Z</time>
            </trkpt>
            <trkpt lat="54.926460" lon="-8.170890">
                <time>2019-06-14T08:37:11Z</time>
            </trkpt>
            <trkpt lat="54.926370" lon="-8.171050">
                <time>2019-06-14T08:37:12Z</time>
            </trkpt>
            <trkpt lat="54.926290" lon="-8.171190">
                <time>2019-06-14T08:37:13Z</time>
            </trkpt>
            <trkpt lat="54.926200" lon="-8.171320">
                <time>2019-06-14T08:37:14Z</time>
            </trkpt>
            <trkpt lat="54.926110" lon="-8.171460">
                <time>2019-06-14T08:37:15Z</time>
            </trkpt>
            <trkpt lat="54.926040" lon="-8.171610">
                <time>2019-06-14T08:37:16Z</time>
            </trkpt>
            <trkpt lat="54.925990" lon="-8.171800">
                <time>2019-06-14T08:37:17Z</time>
            </trkpt>
            <trkpt lat="54.925950" lon="-8.172000">
                <time>2019-06-14T08:37:18Z</time>
            </trkpt>
            <trkpt lat="54.925900" lon="-8.172220">
                <time>2019-06-14T08:37:19Z</time>
            </trkpt>
            <trkpt lat="54.925840" lon="-8.172420">
                <time>2019-06-14T08:37:20Z</time>
            </trkpt>
            <trkpt lat="54.925770" lon="-8.172610">
                <time>2019-06-14T08:37:21Z</time>
            </trkpt>
            <trkpt lat="54.925690" lon="-8.172810">
                <time>2019-06-14T08:37:22Z</time>
            </trkpt>
            <trkpt lat="54.925610" lon="-8.173020">
                <time>2019-06-14T08:37:23Z</time>
            </trkpt>
            <trkpt lat="54.925530" lon="-8.173230">
                <time>2019-06-14T08:37:24Z</time>
            </trkpt>
            <trkpt lat="54.925460" lon="-8.173440">
                <time>2019-06-14T08:37:25Z</time>
            </trkpt>
            <trkpt lat="54.925390" lon="-8.173650">
                <time>2019-06-14T08:37:26Z</time>
            </trkpt>
            <trkpt lat="54.925320" lon="-8.173850">
                <time>2019-06-14T08:37:27Z</time>
            </trkpt>
            <trkpt lat="54.925240" lon="-8.174040">
                <time>2019-06-14T08:37:28Z</time>
            </trkpt>
            <trkpt lat="54.925140" lon="-8.174230">
                <time>2019-06-14T08:37:29Z</time>
            </trkpt>
            <trkpt lat="54.925040" lon="-8.174430">
                <time>2019-06-14T08:37:30Z</time>
            </trkpt>
            <trkpt lat="54.924930" lon="-8.174630">
                <time>2019-06-14T08:37:31Z</time>
            </trkpt>
            <trkpt lat="54.924830" lon="-8.174810">
                <time>2019-06-14T08:37:32Z</time>
            </trkpt>
            <trkpt lat="54.924740" lon="-8.174990">
                <time>2019-06-14T08:37:33Z</time>
            </trkpt>
            <trkpt lat="54.924650" lon="-8.175180">
                <time>2019-06-14T08:37:34Z</time>
            </trkpt>
            <trkpt lat="54.924570" lon="-8.175360">
                <time>2019-06-14T08:37:35Z</time>
            </trkpt>
            <trkpt lat="54.924480" lon="-8.175560">
                <time>2019-06-14T08:37:36Z</time>
            </trkpt>
            <trkpt lat="54.924400" lon="-8.175760">
                <time>2019-06-14T08:37:37Z</time>
            </trkpt>
            <trkpt lat="54.924310" lon="-8.175970">
                <time>2019-06-14T08:37:38Z</time>
            </trkpt>
            <trkpt lat="54.924220" lon="-8.176180">
                <time>2019-06-14T08:37:39Z</time>
            </trkpt>
            <trkpt lat="54.924140" lon="-8.176380">
                <time>2019-06-14T08:37:40Z</time>
            </trkpt>
            <trkpt lat="54.924050" lon="-8.176590">
                <time>2019-06-14T08:37:41Z</time>
            </trkpt>
            <trkpt lat="54.923960" lon="-8.176800">
                <time>2019-06-14T08:37:42Z</time>
            </trkpt>
            <trkpt lat="54.923880" lon="-8.177010">
                <time>2019-06-14T08:37:43Z</time>
            </trkpt>
            <trkpt lat="54.923780" lon="-8.177210">
                <time>2019-06-14T08:37:44Z</time>
            </trkpt>
            <trkpt lat="54.923690" lon="-8.177410">
                <time>2019-06-14T08:37:45Z</time>
            </trkpt>
            <trkpt lat="54.923590" lon="-8.177620">
                <time>2019-06-14T08:37:46Z</time>
            </trkpt>
            <trkpt lat="54.923500" lon="-8.177820">
                <time>2019-06-14T08:37:47Z</time>
            </trkpt>
            <trkpt lat="54.923410" lon="-8.178020">
                <time>2019-06-14T08:37:48Z</time>
            </trkpt>
            <trkpt lat="54.923330" lon="-8.178230">
                <time>2019-06-14T08:37:49Z</time>
            </trkpt>
            <trkpt lat="54.923240" lon="-8.178460">
                <time>2019-06-14T08:37:50Z</time>
            </trkpt>
            <trkpt lat="54.923150" lon="-8.178680">
                <time>2019-06-14T08:37:51Z</time>
            </trkpt>
            <trkpt lat="54.923070" lon="-8.178910">
                <time>2019-06-14T08:37:52Z</time>
            </trkpt>
            <trkpt lat="54.922980" lon="-8.179140">
                <time>2019-06-14T08:37:53Z</time>
            </trkpt>
            <trkpt lat="54.922890" lon="-8.179370">
                <time>2019-06-14T08:37:54Z</time>
            </trkpt>
            <trkpt lat="54.922800" lon="-8.179590">
                <time>2019-06-14T08:37:55Z</time>
            </trkpt>
            <trkpt lat="54.922700" lon="-8.179780">
                <time>2019-06-14T08:37:56Z</time>
            </trkpt>
            <trkpt lat="54.922590" lon="-8.179970">
                <time>2019-06-14T08:37:57Z</time>
            </trkpt>
            <trkpt lat="54.922470" lon="-8.180160">
                <time>2019-06-14T08:37:58Z</time>
            </trkpt>
            <trkpt lat="54.922340" lon="-8.180340">
                <time>2019-06-14T08:37:59Z</time>
            </trkpt>
            <trkpt lat="54.922230" lon="-8.180520">
                <time>2019-06-14T08:38:00Z</time>
            </trkpt>
            <trkpt lat="54.922130" lon="-8.180680">
                <time>2019-06-14T08:38:01Z</time>
            </trkpt>
            <trkpt lat="54.922030" lon="-8.180850">
                <time>2019-06-14T08:38:02Z</time>
            </trkpt>
            <trkpt lat="54.921940" lon="-8.181020">
                <time>2019-06-14T08:38:03Z</time>
            </trkpt>
            <trkpt lat="54.921840" lon="-8.181190">
                <time>2019-06-14T08:38:04Z</time>
            </trkpt>
            <trkpt lat="54.921730" lon="-8.181380">
                <time>2019-06-14T08:38:05Z</time>
            </trkpt>
            <trkpt lat="54.921610" lon="-8.181600">
                <time>2019-06-14T08:38:06Z</time>
            </trkpt>
            <trkpt lat="54.921500" lon="-8.181810">
                <time>2019-06-14T08:38:07Z</time>
            </trkpt>
            <trkpt lat="54.921400" lon="-8.182030">
                <time>2019-06-14T08:38:08Z</time>
            </trkpt>
            <trkpt lat="54.921300" lon="-8.182250">
                <time>2019-06-14T08:38:09Z</time>
            </trkpt>
            <trkpt lat="54.921210" lon="-8.182480">
                <time>2019-06-14T08:38:10Z</time>
            </trkpt>
            <trkpt lat="54.921120" lon="-8.182710">
                <time>2019-06-14T08:38:11Z</time>
            </trkpt>
            <trkpt lat="54.921030" lon="-8.182940">
                <time>2019-06-14T08:38:12Z</time>
            </trkpt>
            <trkpt lat="54.920960" lon="-8.183160">
                <time>2019-06-14T08:38:13Z</time>
            </trkpt>
            <trkpt lat="54.920880" lon="-8.183360">
                <time>2019-06-14T08:38:14Z</time>
            </trkpt>
            <trkpt lat="54.920800" lon="-8.183540">
                <time>2019-06-14T08:38:15Z</time>
            </trkpt>
            <trkpt lat="54.920730" lon="-8.183720">
                <time>2019-06-14T08:38:16Z</time>
            </trkpt>
            <trkpt lat="54.920660" lon="-8.183870">
                <time>2019-06-14T08:38:17Z</time>
            </trkpt>
            <trkpt lat="54.920600" lon="-8.183990">
                <time>2019-06-14T08:38:18Z</time>
            </trkpt>
            <trkpt lat="54.920560" lon="-8.184090">
                <time>2019-06-14T08:38:19Z</time>
            </trkpt>
            <trkpt lat="54.920510" lon="-8.184190">
                <time>2019-06-14T08:38:20Z</time>
            </trkpt>
            <trkpt lat="54.920470" lon="-8.184290">
                <time>2019-06-14T08:38:21Z</time>
            </trkpt>
            <trkpt lat="54.920420" lon="-8.184380">
                <time>2019-06-14T08:38:22Z</time>
            </trkpt>
            <trkpt lat="54.920390" lon="-8.184440">
                <time>2019-06-14T08:38:23Z</time>
            </trkpt>
            <trkpt lat="54.920370" lon="-8.184500">
                <time>2019-06-14T08:38:24Z</time>
            </trkpt>
            <trkpt lat="54.920340" lon="-8.184550">
                <time>2019-06-14T08:38:25Z</time>
            </trkpt>
            <trkpt lat="54.920320" lon="-8.184590">
                <time>2019-06-14T08:38:26Z</time>
            </trkpt>
            <trkpt lat="54.920310" lon="-8.184640">
                <time>2019-06-14T08:38:27Z</time>
            </trkpt>
            <trkpt lat="54.920280" lon="-8.184720">
                <time>2019-06-14T08:38:28Z</time>
            </trkpt>
            <trkpt lat="54.920240" lon="-8.184820">
                <time>2019-06-14T08:38:29Z</time>
            </trkpt>
            <trkpt lat="54.920200" lon="-8.184920">
                <time>2019-06-14T08:38:30Z</time>
            </trkpt>
            <trkpt lat="54.920160" lon="-8.185020">
                <time>2019-06-14T08:38:31Z</time>
            </trkpt>
            <trkpt lat="54.920120" lon="-8.185130">
                <time>2019-06-14T08:38:32Z</time>
            </trkpt>
            <trkpt lat="54.920080" lon="-8.185240">
                <time>2019-06-14T08:38:33Z</time>
            </trkpt>
            <trkpt lat="54.920030" lon="-8.185350">
                <time>2019-06-14T08:38:34Z</time>
            </trkpt>
            <trkpt lat="54.919970" lon="-8.185460">
                <time>2019-06-14T08:38:35Z</time>
            </trkpt>
            <trkpt lat="54.919900" lon="-8.185580">
                <time>2019-06-14T08:38:36Z</time>
            </trkpt>
            <trkpt lat="54.919830" lon="-8.185700">
                <time>2019-06-14T08:38:37Z</time>
            </trkpt>
            <trkpt lat="54.919750" lon="-8.185830">
                <time>2019-06-14T08:38:38Z</time>
            </trkpt>
            <trkpt lat="54.919670" lon="-8.185970">
                <time>2019-06-14T08:38:39Z</time>
            </trkpt>
            <trkpt lat="54.919600" lon="-8.186120">
                <time>2019-06-14T08:38:40Z</time>
            </trkpt>
            <trkpt lat="54.919530" lon="-8.186270">
                <time>2019-06-14T08:38:41Z</time>
            </trkpt>
            <trkpt lat="54.919460" lon="-8.186420">
                <time>2019-06-14T08:38:42Z</time>
            </trkpt>
            <trkpt lat="54.919380" lon="-8.186570">
                <time>2019-06-14T08:38:43Z</time>
            </trkpt>
            <trkpt lat="54.919290" lon="-8.186700">
                <time>2019-06-14T08:38:44Z</time>
            </trkpt>
            <trkpt lat="54.919200" lon="-8.186820">
                <time>2019-06-14T08:38:45Z</time>
            </trkpt>
            <trkpt lat="54.919100" lon="-8.186930">
                <time>2019-06-14T08:38:46Z</time>
            </trkpt>
            <trkpt lat="54.919000" lon="-8.187010">
                <time>2019-06-14T08:38:47Z</time>
            </trkpt>
            <trkpt lat="54.918910" lon="-8.187050">
                <time>2019-06-14T08:38:48Z</time>
            </trkpt>
            <trkpt lat="54.918810" lon="-8.187060">
                <time>2019-06-14T08:38:49Z</time>
            </trkpt>
            <trkpt lat="54.918710" lon="-8.187050">
                <time>2019-06-14T08:38:50Z</time>
            </trkpt>
            <trkpt lat="54.918610" lon="-8.187040">
                <time>2019-06-14T08:38:51Z</time>
            </trkpt>
            <trkpt lat="54.918520" lon="-8.187060">
                <time>2019-06-14T08:38:52Z</time>
            </trkpt>
            <trkpt lat="54.918440" lon="-8.187120">
                <time>2019-06-14T08:38:53Z</time>
            </trkpt>
            <trkpt lat="54.918360" lon="-8.187210">
                <time>2019-06-14T08:38:54Z</time>
            </trkpt>
            <trkpt lat="54.918290" lon="-8.187350">
                <time>2019-06-14T08:38:55Z</time>
            </trkpt>
            <trkpt lat="54.918220" lon="-8.187520">
                <time>2019-06-14T08:38:56Z</time>
            </trkpt>
            <trkpt lat="54.918150" lon="-8.187710">
                <time>2019-06-14T08:38:57Z</time>
            </trkpt>
            <trkpt lat="54.918080" lon="-8.187900">
                <time>2019-06-14T08:38:58Z</time>
            </trkpt>
            <trkpt lat="54.918020" lon="-8.188110">
                <time>2019-06-14T08:38:59Z</time>
            </trkpt>
            <trkpt lat="54.917960" lon="-8.188320">
                <time>2019-06-14T08:39:00Z</time>
            </trkpt>
            <trkpt lat="54.917900" lon="-8.188550">
                <time>2019-06-14T08:39:01Z</time>
            </trkpt>
            <trkpt lat="54.917850" lon="-8.188790">
                <time>2019-06-14T08:39:02Z</time>
            </trkpt>
            <trkpt lat="54.917800" lon="-8.189030">
                <time>2019-06-14T08:39:03Z</time>
            </trkpt>
            <trkpt lat="54.917750" lon="-8.189280">
                <time>2019-06-14T08:39:04Z</time>
            </trkpt>
            <trkpt lat="54.917690" lon="-8.189520">
                <time>2019-06-14T08:39:05Z</time>
            </trkpt>
            <trkpt lat="54.917640" lon="-8.189760">
                <time>2019-06-14T08:39:06Z</time>
            </trkpt>
            <trkpt lat="54.917580" lon="-8.189990">
                <time>2019-06-14T08:39:07Z</time>
            </trkpt>
            <trkpt lat="54.917510" lon="-8.190200">
                <time>2019-06-14T08:39:08Z</time>
            </trkpt>
            <trkpt lat="54.917440" lon="-8.190410">
                <time>2019-06-14T08:39:09Z</time>
            </trkpt>
            <trkpt lat="54.917350" lon="-8.190590">
                <time>2019-06-14T08:39:10Z</time>
            </trkpt>
            <trkpt lat="54.917250" lon="-8.190750">
                <time>2019-06-14T08:39:11Z</time>
            </trkpt>
            <trkpt lat="54.917140" lon="-8.190860">
                <time>2019-06-14T08:39:12Z</time>
            </trkpt>
            <trkpt lat="54.917030" lon="-8.190960">
                <time>2019-06-14T08:39:13Z</time>
            </trkpt>
            <trkpt lat="54.916920" lon="-8.191050">
                <time>2019-06-14T08:39:14Z</time>
            </trkpt>
            <trkpt lat="54.916800" lon="-8.191120">
                <time>2019-06-14T08:39:15Z</time>
            </trkpt>
            <trkpt lat="54.916690" lon="-8.191200">
                <time>2019-06-14T08:39:16Z</time>
            </trkpt>
            <trkpt lat="54.916590" lon="-8.191300">
                <time>2019-06-14T08:39:17Z</time>
            </trkpt>
            <trkpt lat="54.916490" lon="-8.191430">
                <time>2019-06-14T08:39:18Z</time>
            </trkpt>
            <trkpt lat="54.916400" lon="-8.191580">
                <time>2019-06-14T08:39:19Z</time>
            </trkpt>
            <trkpt lat="54.916330" lon="-8.191750">
                <time>2019-06-14T08:39:20Z</time>
            </trkpt>
            <trkpt lat="54.916270" lon="-8.191930">
                <time>2019-06-14T08:39:21Z</time>
            </trkpt>
            <trkpt lat="54.916210" lon="-8.192130">
                <time>2019-06-14T08:39:22Z</time>
            </trkpt>
            <trkpt lat="54.916160" lon="-8.192360">
                <time>2019-06-14T08:39:23Z</time>
            </trkpt>
            <trkpt lat="54.916110" lon="-8.192590">
                <time>2019-06-14T08:39:24Z</time>
            </trkpt>
            <trkpt lat="54.916060" lon="-8.192810">
                <time>2019-06-14T08:39:25Z</time>
            </trkpt>
            <trkpt lat="54.916000" lon="-8.193010">
                <time>2019-06-14T08:39:26Z</time>
            </trkpt>
            <trkpt lat="54.915930" lon="-8.193190">
                <time>2019-06-14T08:39:27Z</time>
            </trkpt>
            <trkpt lat="54.915840" lon="-8.193340">
                <time>2019-06-14T08:39:28Z</time>
            </trkpt>
            <trkpt lat="54.915760" lon="-8.193490">
                <time>2019-06-14T08:39:29Z</time>
            </trkpt>
            <trkpt lat="54.915680" lon="-8.193640">
                <time>2019-06-14T08:39:30Z</time>
            </trkpt>
            <trkpt lat="54.915600" lon="-8.193800">
                <time>2019-06-14T08:39:31Z</time>
            </trkpt>
            <trkpt lat="54.915510" lon="-8.193960">
                <time>2019-06-14T08:39:32Z</time>
            </trkpt>
            <trkpt lat="54.915420" lon="-8.194110">
                <time>2019-06-14T08:39:33Z</time>
            </trkpt>
            <trkpt lat="54.915320" lon="-8.194270">
                <time>2019-06-14T08:39:34Z</time>
            </trkpt>
            <trkpt lat="54.915230" lon="-8.194430">
                <time>2019-06-14T08:39:35Z</time>
            </trkpt>
            <trkpt lat="54.915150" lon="-8.194580">
                <time>2019-06-14T08:39:36Z</time>
            </trkpt>
            <trkpt lat="54.915070" lon="-8.194720">
                <time>2019-06-14T08:39:37Z</time>
            </trkpt>
            <trkpt lat="54.914990" lon="-8.194860">
                <time>2019-06-14T08:39:38Z</time>
            </trkpt>
            <trkpt lat="54.914920" lon="-8.194990">
                <time>2019-06-14T08:39:39Z</time>
            </trkpt>
            <trkpt lat="54.914850" lon="-8.195120">
                <time>2019-06-14T08:39:40Z</time>
            </trkpt>
            <trkpt lat="54.914780" lon="-8.195250">
                <time>2019-06-14T08:39:41Z</time>
            </trkpt>
            <trkpt lat="54.914720" lon="-8.195400">
                <time>2019-06-14T08:39:42Z</time>
            </trkpt>
            <trkpt lat="54.914660" lon="-8.195550">
                <time>2019-06-14T08:39:43Z</time>
            </trkpt>
            <trkpt lat="54.914600" lon="-8.195700">
                <time>2019-06-14T08:39:44Z</time>
            </trkpt>
            <trkpt lat="54.914540" lon="-8.195840">
                <time>2019-06-14T08:39:45Z</time>
            </trkpt>
            <trkpt lat="54.914460" lon="-8.195990">
                <time>2019-06-14T08:39:46Z</time>
            </trkpt>
            <trkpt lat="54.914370" lon="-8.196120">
                <time>2019-06-14T08:39:47Z</time>
            </trkpt>
            <trkpt lat="54.914280" lon="-8.196230">
                <time>2019-06-14T08:39:48Z</time>
            </trkpt>
            <trkpt lat="54.914200" lon="-8.196350">
                <time>2019-06-14T08:39:49Z</time>
            </trkpt>
            <trkpt lat="54.914110" lon="-8.196470">
                <time>2019-06-14T08:39:50Z</time>
            </trkpt>
            <trkpt lat="54.914020" lon="-8.196590">
                <time>2019-06-14T08:39:51Z</time>
            </trkpt>
            <trkpt lat="54.913930" lon="-8.196740">
                <time>2019-06-14T08:39:52Z</time>
            </trkpt>
            <trkpt lat="54.913840" lon="-8.196890">
                <time>2019-06-14T08:39:53Z</time>
            </trkpt>
            <trkpt lat="54.913750" lon="-8.197040">
                <time>2019-06-14T08:39:54Z</time>
            </trkpt>
            <trkpt lat="54.913670" lon="-8.197190">
                <time>2019-06-14T08:39:55Z</time>
            </trkpt>
            <trkpt lat="54.913590" lon="-8.197340">
                <time>2019-06-14T08:39:56Z</time>
            </trkpt>
            <trkpt lat="54.913520" lon="-8.197500">
                <time>2019-06-14T08:39:57Z</time>
            </trkpt>
            <trkpt lat="54.913450" lon="-8.197650">
                <time>2019-06-14T08:39:58Z</time>
            </trkpt>
            <trkpt lat="54.913380" lon="-8.197800">
                <time>2019-06-14T08:39:59Z</time>
            </trkpt>
            <trkpt lat="54.913310" lon="-8.197960">
                <time>2019-06-14T08:40:00Z</time>
            </trkpt>
            <trkpt lat="54.913240" lon="-8.198120">
                <time>2019-06-14T08:40:01Z</time>
            </trkpt>
            <trkpt lat="54.913160" lon="-8.198290">
                <time>2019-06-14T08:40:02Z</time>
            </trkpt>
            <trkpt lat="54.913080" lon="-8.198420">
                <time>2019-06-14T08:40:03Z</time>
            </trkpt>
            <trkpt lat="54.913000" lon="-8.198550">
                <time>2019-06-14T08:40:04Z</time>
            </trkpt>
            <trkpt lat="54.912910" lon="-8.198680">
                <time>2019-06-14T08:40:05Z</time>
            </trkpt>
            <trkpt lat="54.912830" lon="-8.198810">
                <time>2019-06-14T08:40:06Z</time>
            </trkpt>
            <trkpt lat="54.912770" lon="-8.198930">
                <time>2019-06-14T08:40:07Z</time>
            </trkpt>
            <trkpt lat="54.912690" lon="-8.199060">
                <time>2019-06-14T08:40:08Z</time>
            </trkpt>
            <trkpt lat="54.912610" lon="-8.199200">
                <time>2019-06-14T08:40:09Z</time>
            </trkpt>
            <trkpt lat="54.912530" lon="-8.199350">
                <time>2019-06-14T08:40:10Z</time>
            </trkpt>
            <trkpt lat="54.912460" lon="-8.199500">
                <time>2019-06-14T08:40:11Z</time>
            </trkpt>
            <trkpt lat="54.912400" lon="-8.199650">
                <time>2019-06-14T08:40:12Z</time>
            </trkpt>
            <trkpt lat="54.912340" lon="-8.199800">
                <time>2019-06-14T08:40:13Z</time>
            </trkpt>
            <trkpt lat="54.912280" lon="-8.199940">
                <time>2019-06-14T08:40:14Z</time>
            </trkpt>
            <trkpt lat="54.912210" lon="-8.200090">
                <time>2019-06-14T08:40:15Z</time>
            </trkpt>
            <trkpt lat="54.912110" lon="-8.200210">
                <time>2019-06-14T08:40:16Z</time>
            </trkpt>
            <trkpt lat="54.912000" lon="-8.200320">
                <time>2019-06-14T08:40:17Z</time>
            </trkpt>
            <trkpt lat="54.911880" lon="-8.200430">
                <time>2019-06-14T08:40:18Z</time>
            </trkpt>
            <trkpt lat="54.911760" lon="-8.200550">
                <time>2019-06-14T08:40:19Z</time>
            </trkpt>
            <trkpt lat="54.911650" lon="-8.200670">
                <time>2019-06-14T08:40:20Z</time>
            </trkpt>
            <trkpt lat="54.911540" lon="-8.200800">
                <time>2019-06-14T08:40:21Z</time>
            </trkpt>
            <trkpt lat="54.911450" lon="-8.200920">
                <time>2019-06-14T08:40:22Z</time>
            </trkpt>
            <trkpt lat="54.911360" lon="-8.201040">
                <time>2019-06-14T08:40:23Z</time>
            </trkpt>
            <trkpt lat="54.911260" lon="-8.201180">
                <time>2019-06-14T08:40:24Z</time>
            </trkpt>
            <trkpt lat="54.911170" lon="-8.201340">
                <time>2019-06-14T08:40:25Z</time>
            </trkpt>
            <trkpt lat="54.911070" lon="-8.201480">
                <time>2019-06-14T08:40:26Z</time>
            </trkpt>
            <trkpt lat="54.910960" lon="-8.201640">
                <time>2019-06-14T08:40:27Z</time>
            </trkpt>
            <trkpt lat="54.910860" lon="-8.201810">
                <time>2019-06-14T08:40:28Z</time>
            </trkpt>
            <trkpt lat="54.910770" lon="-8.201970">
                <time>2019-06-14T08:40:29Z</time>
            </trkpt>
            <trkpt lat="54.910670" lon="-8.202150">
                <time>2019-06-14T08:40:30Z</time>
            </trkpt>
            <trkpt lat="54.910590" lon="-8.202320">
                <time>2019-06-14T08:40:31Z</time>
            </trkpt>
            <trkpt lat="54.910500" lon="-8.202480">
                <time>2019-06-14T08:40:32Z</time>
            </trkpt>
            <trkpt lat="54.910420" lon="-8.202660">
                <time>2019-06-14T08:40:33Z</time>
            </trkpt>
            <trkpt lat="54.910340" lon="-8.202820">
                <time>2019-06-14T08:40:34Z</time>
            </trkpt>
            <trkpt lat="54.910260" lon="-8.202990">
                <time>2019-06-14T08:40:35Z</time>
            </trkpt>
            <trkpt lat="54.910190" lon="-8.203140">
                <time>2019-06-14T08:40:36Z</time>
            </trkpt>
            <trkpt lat="54.910120" lon="-8.203290">
                <time>2019-06-14T08:40:37Z</time>
            </trkpt>
            <trkpt lat="54.910040" lon="-8.203440">
                <time>2019-06-14T08:40:38Z</time>
            </trkpt>
            <trkpt lat="54.909950" lon="-8.203590">
                <time>2019-06-14T08:40:39Z</time>
            </trkpt>
            <trkpt lat="54.909860" lon="-8.203730">
                <time>2019-06-14T08:40:40Z</time>
            </trkpt>
            <trkpt lat="54.909760" lon="-8.203870">
                <time>2019-06-14T08:40:41Z</time>
            </trkpt>
            <trkpt lat="54.909650" lon="-8.204020">
                <time>2019-06-14T08:40:42Z</time>
            </trkpt>
            <trkpt lat="54.909560" lon="-8.204160">
                <time>2019-06-14T08:40:43Z</time>
            </trkpt>
            <trkpt lat="54.909470" lon="-8.204310">
                <time>2019-06-14T08:40:44Z</time>
            </trkpt>
            <trkpt lat="54.909400" lon="-8.204440">
                <time>2019-06-14T08:40:45Z</time>
            </trkpt>
            <trkpt lat="54.909310" lon="-8.204590">
                <time>2019-06-14T08:40:46Z</time>
            </trkpt>
            <trkpt lat="54.909220" lon="-8.204740">
                <time>2019-06-14T08:40:47Z</time>
            </trkpt>
            <trkpt lat="54.909120" lon="-8.204900">
                <time>2019-06-14T08:40:48Z</time>
            </trkpt>
            <trkpt lat="54.909020" lon="-8.205060">
                <time>2019-06-14T08:40:49Z</time>
            </trkpt>
            <trkpt lat="54.908930" lon="-8.205220">
                <time>2019-06-14T08:40:50Z</time>
            </trkpt>
            <trkpt lat="54.908830" lon="-8.205370">
                <time>2019-06-14T08:40:51Z</time>
            </trkpt>
            <trkpt lat="54.908730" lon="-8.205530">
                <time>2019-06-14T08:40:52Z</time>
            </trkpt>
            <trkpt lat="54.908620" lon="-8.205690">
                <time>2019-06-14T08:40:53Z</time>
            </trkpt>
            <trkpt lat="54.908510" lon="-8.205840">
                <time>2019-06-14T08:40:54Z</time>
            </trkpt>
            <trkpt lat="54.908400" lon="-8.205970">
                <time>2019-06-14T08:40:55Z</time>
            </trkpt>
            <trkpt lat="54.908290" lon="-8.206090">
                <time>2019-06-14T08:40:56Z</time>
            </trkpt>
            <trkpt lat="54.908170" lon="-8.206200">
                <time>2019-06-14T08:40:57Z</time>
            </trkpt>
            <trkpt lat="54.908060" lon="-8.206320">
                <time>2019-06-14T08:40:58Z</time>
            </trkpt>
            <trkpt lat="54.907960" lon="-8.206430">
                <time>2019-06-14T08:40:59Z</time>
            </trkpt>
            <trkpt lat="54.907870" lon="-8.206530">
                <time>2019-06-14T08:41:00Z</time>
            </trkpt>
            <trkpt lat="54.907780" lon="-8.206620">
                <time>2019-06-14T08:41:01Z</time>
            </trkpt>
            <trkpt lat="54.907690" lon="-8.206710">
                <time>2019-06-14T08:41:02Z</time>
            </trkpt>
            <trkpt lat="54.907600" lon="-8.206790">
                <time>2019-06-14T08:41:03Z</time>
            </trkpt>
            <trkpt lat="54.907510" lon="-8.206870">
                <time>2019-06-14T08:41:04Z</time>
            </trkpt>
            <trkpt lat="54.907430" lon="-8.206930">
                <time>2019-06-14T08:41:05Z</time>
            </trkpt>
            <trkpt lat="54.907340" lon="-8.207000">
                <time>2019-06-14T08:41:06Z</time>
            </trkpt>
            <trkpt lat="54.907270" lon="-8.207060">
                <time>2019-06-14T08:41:07Z</time>
            </trkpt>
            <trkpt lat="54.907210" lon="-8.207110">
                <time>2019-06-14T08:41:08Z</time>
            </trkpt>
            <trkpt lat="54.907160" lon="-8.207160">
                <time>2019-06-14T08:41:09Z</time>
            </trkpt>
            <trkpt lat="54.907120" lon="-8.207210">
                <time>2019-06-14T08:41:10Z</time>
            </trkpt>
            <trkpt lat="54.907060" lon="-8.207290">
                <time>2019-06-14T08:41:11Z</time>
            </trkpt>
            <trkpt lat="54.906970" lon="-8.207380">
                <time>2019-06-14T08:41:12Z</time>
            </trkpt>
            <trkpt lat="54.906870" lon="-8.207480">
                <time>2019-06-14T08:41:13Z</time>
            </trkpt>
            <trkpt lat="54.906780" lon="-8.207580">
                <time>2019-06-14T08:41:14Z</time>
            </trkpt>
            <trkpt lat="54.906690" lon="-8.207680">
                <time>2019-06-14T08:41:15Z</time>
            </trkpt>
            <trkpt lat="54.906600" lon="-8.207770">
                <time>2019-06-14T08:41:16Z</time>
            </trkpt>
            <trkpt lat="54.906530" lon="-8.207860">
                <time>2019-06-14T08:41:17Z</time>
            </trkpt>
            <trkpt lat="54.906450" lon="-8.207940">
                <time>2019-06-14T08:41:18Z</time>
            </trkpt>
            <trkpt lat="54.906370" lon="-8.208010">
                <time>2019-06-14T08:41:19Z</time>
            </trkpt>
            <trkpt lat="54.906290" lon="-8.208090">
                <time>2019-06-14T08:41:20Z</time>
            </trkpt>
            <trkpt lat="54.906210" lon="-8.208140">
                <time>2019-06-14T08:41:21Z</time>
            </trkpt>
            <trkpt lat="54.906130" lon="-8.208160">
                <time>2019-06-14T08:41:22Z</time>
            </trkpt>
            <trkpt lat="54.906060" lon="-8.208130">
                <time>2019-06-14T08:41:23Z</time>
            </trkpt>
            <trkpt lat="54.906000" lon="-8.208070">
                <time>2019-06-14T08:41:24Z</time>
            </trkpt>
            <trkpt lat="54.905940" lon="-8.207960">
                <time>2019-06-14T08:41:25Z</time>
            </trkpt>
            <trkpt lat="54.905890" lon="-8.207810">
                <time>2019-06-14T08:41:26Z</time>
            </trkpt>
            <trkpt lat="54.905840" lon="-8.207630">
                <time>2019-06-14T08:41:27Z</time>
            </trkpt>
            <trkpt lat="54.905800" lon="-8.207440">
                <time>2019-06-14T08:41:28Z</time>
            </trkpt>
            <trkpt lat="54.905750" lon="-8.207230">
                <time>2019-06-14T08:41:29Z</time>
            </trkpt>
            <trkpt lat="54.905710" lon="-8.207000">
                <time>2019-06-14T08:41:30Z</time>
            </trkpt>
            <trkpt lat="54.905670" lon="-8.206780">
                <time>2019-06-14T08:41:31Z</time>
            </trkpt>
            <trkpt lat="54.905640" lon="-8.206560">
                <time>2019-06-14T08:41:32Z</time>
            </trkpt>
            <trkpt lat="54.905620" lon="-8.206350">
                <time>2019-06-14T08:41:33Z</time>
            </trkpt>
            <trkpt lat="54.905610" lon="-8.206160">
                <time>2019-06-14T08:41:34Z</time>
            </trkpt>
            <trkpt lat="54.905590" lon="-8.205990">
                <time>2019-06-14T08:41:35Z</time>
            </trkpt>
            <trkpt lat="54.905560" lon="-8.205830">
                <time>2019-06-14T08:41:36Z</time>
            </trkpt>
            <trkpt lat="54.905520" lon="-8.205690">
                <time>2019-06-14T08:41:37Z</time>
            </trkpt>
            <trkpt lat="54.905450" lon="-8.205550">
                <time>2019-06-14T08:41:38Z</time>
            </trkpt>
            <trkpt lat="54.905360" lon="-8.205430">
                <time>2019-06-14T08:41:39Z</time>
            </trkpt>
            <trkpt lat="54.905260" lon="-8.205330">
                <time>2019-06-14T08:41:40Z</time>
            </trkpt>
            <trkpt lat="54.905180" lon="-8.205230">
                <time>2019-06-14T08:41:41Z</time>
            </trkpt>
            <trkpt lat="54.905090" lon="-8.205130">
                <time>2019-06-14T08:41:42Z</time>
            </trkpt>
            <trkpt lat="54.905010" lon="-8.205000">
                <time>2019-06-14T08:41:43Z</time>
            </trkpt>
            <trkpt lat="54.904920" lon="-8.204820">
                <time>2019-06-14T08:41:44Z</time>
            </trkpt>
            <trkpt lat="54.904840" lon="-8.204600">
                <time>2019-06-14T08:41:45Z</time>
            </trkpt>
            <trkpt lat="54.904790" lon="-8.204370">
                <time>2019-06-14T08:41:46Z</time>
            </trkpt>
            <trkpt lat="54.904760" lon="-8.204130">
                <time>2019-06-14T08:41:47Z</time>
            </trkpt>
            <trkpt lat="54.904750" lon="-8.203860">
                <time>2019-06-14T08:41:48Z</time>
            </trkpt>
            <trkpt lat="54.904760" lon="-8.203580">
                <time>2019-06-14T08:41:49Z</time>
            </trkpt>
            <trkpt lat="54.904800" lon="-8.203300">
                <time>2019-06-14T08:41:50Z</time>
            </trkpt>
            <trkpt lat="54.904840" lon="-8.203020">
                <time>2019-06-14T08:41:51Z</time>
            </trkpt>
            <trkpt lat="54.904900" lon="-8.202730">
                <time>2019-06-14T08:41:52Z</time>
            </trkpt>
            <trkpt lat="54.904960" lon="-8.202440">
                <time>2019-06-14T08:41:53Z</time>
            </trkpt>
            <trkpt lat="54.905020" lon="-8.202140">
                <time>2019-06-14T08:41:54Z</time>
            </trkpt>
            <trkpt lat="54.905080" lon="-8.201820">
                <time>2019-06-14T08:41:55Z</time>
            </trkpt>
            <trkpt lat="54.905150" lon="-8.201480">
                <time>2019-06-14T08:41:56Z</time>
            </trkpt>
            <trkpt lat="54.905230" lon="-8.201130">
                <time>2019-06-14T08:41:57Z</time>
            </trkpt>
            <trkpt lat="54.905300" lon="-8.200760">
                <time>2019-06-14T08:41:58Z</time>
            </trkpt>
            <trkpt lat="54.905380" lon="-8.200400">
                <time>2019-06-14T08:41:59Z</time>
            </trkpt>
            <trkpt lat="54.905460" lon="-8.200050">
                <time>2019-06-14T08:42:00Z</time>
            </trkpt>
            <trkpt lat="54.905530" lon="-8.199710">
                <time>2019-06-14T08:42:01Z</time>
            </trkpt>
            <trkpt lat="54.905610" lon="-8.199380">
                <time>2019-06-14T08:42:02Z</time>
            </trkpt>
            <trkpt lat="54.905670" lon="-8.199070">
                <time>2019-06-14T08:42:03Z</time>
            </trkpt>
            <trkpt lat="54.905740" lon="-8.198790">
                <time>2019-06-14T08:42:04Z</time>
            </trkpt>
            <trkpt lat="54.905800" lon="-8.198510">
                <time>2019-06-14T08:42:05Z</time>
            </trkpt>
            <trkpt lat="54.905870" lon="-8.198230">
                <time>2019-06-14T08:42:06Z</time>
            </trkpt>
            <trkpt lat="54.905940" lon="-8.197940">
                <time>2019-06-14T08:42:07Z</time>
            </trkpt>
            <trkpt lat="54.906010" lon="-8.197630">
                <time>2019-06-14T08:42:08Z</time>
            </trkpt>
            <trkpt lat="54.906090" lon="-8.197320">
                <time>2019-06-14T08:42:09Z</time>
            </trkpt>
            <trkpt lat="54.906160" lon="-8.197020">
                <time>2019-06-14T08:42:10Z</time>
            </trkpt>
            <trkpt lat="54.906230" lon="-8.196740">
                <time>2019-06-14T08:42:11Z</time>
            </trkpt>
            <trkpt lat="54.906300" lon="-8.196450">
                <time>2019-06-14T08:42:12Z</time>
            </trkpt>
            <trkpt lat="54.906370" lon="-8.196170">
                <time>2019-06-14T08:42:13Z</time>
            </trkpt>
            <trkpt lat="54.906450" lon="-8.195910">
                <time>2019-06-14T08:42:14Z</time>
            </trkpt>
            <trkpt lat="54.906550" lon="-8.195690">
                <time>2019-06-14T08:42:15Z</time>
            </trkpt>
            <trkpt lat="54.906650" lon="-8.195480">
                <time>2019-06-14T08:42:16Z</time>
            </trkpt>
            <trkpt lat="54.906750" lon="-8.195300">
                <time>2019-06-14T08:42:17Z</time>
            </trkpt>
            <trkpt lat="54.906850" lon="-8.195100">
                <time>2019-06-14T08:42:18Z</time>
            </trkpt>
            <trkpt lat="54.906930" lon="-8.194890">
                <time>2019-06-14T08:42:19Z</time>
            </trkpt>
            <trkpt lat="54.907000" lon="-8.194650">
                <time>2019-06-14T08:42:20Z</time>
            </trkpt>
            <trkpt lat="54.907060" lon="-8.194400">
                <time>2019-06-14T08:42:21Z</time>
            </trkpt>
            <trkpt lat="54.907100" lon="-8.194140">
                <time>2019-06-14T08:42:22Z</time>
            </trkpt>
            <trkpt lat="54.907150" lon="-8.193870">
                <time>2019-06-14T08:42:23Z</time>
            </trkpt>
            <trkpt lat="54.907190" lon="-8.193570">
                <time>2019-06-14T08:42:24Z</time>
            </trkpt>
            <trkpt lat="54.907230" lon="-8.193250">
                <time>2019-06-14T08:42:25Z</time>
            </trkpt>
            <trkpt lat="54.907260" lon="-8.192930">
                <time>2019-06-14T08:42:26Z</time>
            </trkpt>
            <trkpt lat="54.907290" lon="-8.192600">
                <time>2019-06-14T08:42:27Z</time>
            </trkpt>
            <trkpt lat="54.907300" lon="-8.192290">
                <time>2019-06-14T08:42:28Z</time>
            </trkpt>
            <trkpt lat="54.907300" lon="-8.191990">
                <time>2019-06-14T08:42:29Z</time>
            </trkpt>
            <trkpt lat="54.907290" lon="-8.191690">
                <time>2019-06-14T08:42:30Z</time>
            </trkpt>
            <trkpt lat="54.907260" lon="-8.191390">
                <time>2019-06-14T08:42:31Z</time>
            </trkpt>
            <trkpt lat="54.907230" lon="-8.191090">
                <time>2019-06-14T08:42:32Z</time>
            </trkpt>
            <trkpt lat="54.907190" lon="-8.190790">
                <time>2019-06-14T08:42:33Z</time>
            </trkpt>
            <trkpt lat="54.907160" lon="-8.190490">
                <time>2019-06-14T08:42:34Z</time>
            </trkpt>
            <trkpt lat="54.907120" lon="-8.190200">
                <time>2019-06-14T08:42:35Z</time>
            </trkpt>
            <trkpt lat="54.907080" lon="-8.189890">
                <time>2019-06-14T08:42:36Z</time>
            </trkpt>
            <trkpt lat="54.907050" lon="-8.189580">
                <time>2019-06-14T08:42:37Z</time>
            </trkpt>
            <trkpt lat="54.907020" lon="-8.189250">
                <time>2019-06-14T08:42:38Z</time>
            </trkpt>
            <trkpt lat="54.907000" lon="-8.188910">
                <time>2019-06-14T08:42:39Z</time>
            </trkpt>
            <trkpt lat="54.906990" lon="-8.188570">
                <time>2019-06-14T08:42:40Z</time>
            </trkpt>
            <trkpt lat="54.907000" lon="-8.188230">
                <time>2019-06-14T08:42:41Z</time>
            </trkpt>
            <trkpt lat="54.907020" lon="-8.187890">
                <time>2019-06-14T08:42:42Z</time>
            </trkpt>
            <trkpt lat="54.907040" lon="-8.187550">
                <time>2019-06-14T08:42:43Z</time>
            </trkpt>
            <trkpt lat="54.907060" lon="-8.187210">
                <time>2019-06-14T08:42:44Z</time>
            </trkpt>
            <trkpt lat="54.907090" lon="-8.186860">
                <time>2019-06-14T08:42:45Z</time>
            </trkpt>
            <trkpt lat="54.907120" lon="-8.186510">
                <time>2019-06-14T08:42:46Z</time>
            </trkpt>
            <trkpt lat="54.907150" lon="-8.186170">
                <time>2019-06-14T08:42:47Z</time>
            </trkpt>
            <trkpt lat="54.907180" lon="-8.185840">
                <time>2019-06-14T08:42:48Z</time>
            </trkpt>
            <trkpt lat="54.907210" lon="-8.185500">
                <time>2019-06-14T08:42:49Z</time>
            </trkpt>
            <trkpt lat="54.907240" lon="-8.185170">
                <time>2019-06-14T08:42:50Z</time>
            </trkpt>
            <trkpt lat="54.907270" lon="-8.184830">
                <time>2019-06-14T08:42:51Z</time>
            </trkpt>
            <trkpt lat="54.907290" lon="-8.184500">
                <time>2019-06-14T08:42:52Z</time>
            </trkpt>
            <trkpt lat="54.907320" lon="-8.184190">
                <time>2019-06-14T08:42:53Z</time>
            </trkpt>
            <trkpt lat="54.907340" lon="-8.183890">
                <time>2019-06-14T08:42:54Z</time>
            </trkpt>
            <trkpt lat="54.907350" lon="-8.183620">
                <time>2019-06-14T08:42:55Z</time>
            </trkpt>
            <trkpt lat="54.907350" lon="-8.183360">
                <time>2019-06-14T08:42:56Z</time>
            </trkpt>
            <trkpt lat="54.907330" lon="-8.183120">
                <time>2019-06-14T08:42:57Z</time>
            </trkpt>
            <trkpt lat="54.907290" lon="-8.182880">
                <time>2019-06-14T08:42:58Z</time>
            </trkpt>
            <trkpt lat="54.907220" lon="-8.182650">
                <time>2019-06-14T08:42:59Z</time>
            </trkpt>
            <trkpt lat="54.907120" lon="-8.182450">
                <time>2019-06-14T08:43:00Z</time>
            </trkpt>
            <trkpt lat="54.907010" lon="-8.182270">
                <time>2019-06-14T08:43:01Z</time>
            </trkpt>
            <trkpt lat="54.906890" lon="-8.182090">
                <time>2019-06-14T08:43:02Z</time>
            </trkpt>
            <trkpt lat="54.906760" lon="-8.181940">
                <time>2019-06-14T08:43:03Z</time>
            </trkpt>
            <trkpt lat="54.906620" lon="-8.181800">
                <time>2019-06-14T08:43:04Z</time>
            </trkpt>
            <trkpt lat="54.906480" lon="-8.181690">
                <time>2019-06-14T08:43:05Z</time>
            </trkpt>
            <trkpt lat="54.906340" lon="-8.181580">
                <time>2019-06-14T08:43:06Z</time>
            </trkpt>
            <trkpt lat="54.906200" lon="-8.181460">
                <time>2019-06-14T08:43:07Z</time>
            </trkpt>
            <trkpt lat="54.906050" lon="-8.181330">
                <time>2019-06-14T08:43:08Z</time>
            </trkpt>
            <trkpt lat="54.905900" lon="-8.181190">
                <time>2019-06-14T08:43:09Z</time>
            </trkpt>
            <trkpt lat="54.905740" lon="-8.181060">
                <time>2019-06-14T08:43:10Z</time>
            </trkpt>
            <trkpt lat="54.905580" lon="-8.180920">
                <time>2019-06-14T08:43:11Z</time>
            </trkpt>
            <trkpt lat="54.905410" lon="-8.180760">
                <time>2019-06-14T08:43:12Z</time>
            </trkpt>
            <trkpt lat="54.905240" lon="-8.180570">
                <time>2019-06-14T08:43:13Z</time>
            </trkpt>
            <trkpt lat="54.905050" lon="-8.180380">
                <time>2019-06-14T08:43:14Z</time>
            </trkpt>
            <trkpt lat="54.904870" lon="-8.180190">
                <time>2019-06-14T08:43:15Z</time>
            </trkpt>
            <trkpt lat="54.904680" lon="-8.179990">
                <time>2019-06-14T08:43:16Z</time>
            </trkpt>
            <trkpt lat="54.904520" lon="-8.179760">
                <time>2019-06-14T08:43:17Z</time>
            </trkpt>
            <trkpt lat="54.904370" lon="-8.179480">
                <time>2019-06-14T08:43:18Z</time>
            </trkpt>
            <trkpt lat="54.904220" lon="-8.179150">
                <time>2019-06-14T08:43:19Z</time>
            </trkpt>
            <trkpt lat="54.904090" lon="-8.178790">
                <time>2019-06-14T08:43:20Z</time>
            </trkpt>
            <trkpt lat="54.903970" lon="-8.178440">
                <time>2019-06-14T08:43:21Z</time>
            </trkpt>
            <trkpt lat="54.903880" lon="-8.178110">
                <time>2019-06-14T08:43:22Z</time>
            </trkpt>
            <trkpt lat="54.903770" lon="-8.177820">
                <time>2019-06-14T08:43:23Z</time>
            </trkpt>
            <trkpt lat="54.903650" lon="-8.177570">
                <time>2019-06-14T08:43:24Z</time>
            </trkpt>
            <trkpt lat="54.903510" lon="-8.177370">
                <time>2019-06-14T08:43:25Z</time>
            </trkpt>
            <trkpt lat="54.903360" lon="-8.177200">
                <time>2019-06-14T08:43:26Z</time>
            </trkpt>
            <trkpt lat="54.903190" lon="-8.177040">
                <time>2019-06-14T08:43:27Z</time>
            </trkpt>
            <trkpt lat="54.903010" lon="-8.176870">
                <time>2019-06-14T08:43:28Z</time>
            </trkpt>
            <trkpt lat="54.902810" lon="-8.176670">
                <time>2019-06-14T08:43:29Z</time>
            </trkpt>
            <trkpt lat="54.902600" lon="-8.176440">
                <time>2019-06-14T08:43:30Z</time>
            </trkpt>
            <trkpt lat="54.902380" lon="-8.176200">
                <time>2019-06-14T08:43:31Z</time>
            </trkpt>
            <trkpt lat="54.902130" lon="-8.175960">
                <time>2019-06-14T08:43:32Z</time>
            </trkpt>
            <trkpt lat="54.901880" lon="-8.175720">
                <time>2019-06-14T08:43:33Z</time>
            </trkpt>
            <trkpt lat="54.901620" lon="-8.175480">
                <time>2019-06-14T08:43:34Z</time>
            </trkpt>
            <trkpt lat="54.901350" lon="-8.175240">
                <time>2019-06-14T08:43:35Z</time>
            </trkpt>
            <trkpt lat="54.901080" lon="-8.175020">
                <time>2019-06-14T08:43:36Z</time>
            </trkpt>
            <trkpt lat="54.900820" lon="-8.174800">
                <time>2019-06-14T08:43:37Z</time>
            </trkpt>
            <trkpt lat="54.900570" lon="-8.174590">
                <time>2019-06-14T08:43:38Z</time>
            </trkpt>
            <trkpt lat="54.900340" lon="-8.174360">
                <time>2019-06-14T08:43:39Z</time>
            </trkpt>
            <trkpt lat="54.900110" lon="-8.174110">
                <time>2019-06-14T08:43:40Z</time>
            </trkpt>
            <trkpt lat="54.899910" lon="-8.173860">
                <time>2019-06-14T08:43:41Z</time>
            </trkpt>
            <trkpt lat="54.899730" lon="-8.173580">
                <time>2019-06-14T08:43:42Z</time>
            </trkpt>
            <trkpt lat="54.899560" lon="-8.173270">
                <time>2019-06-14T08:43:43Z</time>
            </trkpt>
            <trkpt lat="54.899380" lon="-8.172980">
                <time>2019-06-14T08:43:44Z</time>
            </trkpt>
            <trkpt lat="54.899180" lon="-8.172730">
                <time>2019-06-14T08:43:45Z</time>
            </trkpt>
            <trkpt lat="54.898960" lon="-8.172490">
                <time>2019-06-14T08:43:46Z</time>
            </trkpt>
            <trkpt lat="54.898740" lon="-8.172250">
                <time>2019-06-14T08:43:47Z</time>
            </trkpt>
            <trkpt lat="54.898520" lon="-8.171990">
                <time>2019-06-14T08:43:48Z</time>
            </trkpt>
            <trkpt lat="54.898290" lon="-8.171730">
                <time>2019-06-14T08:43:49Z</time>
            </trkpt>
            <trkpt lat="54.898050" lon="-8.171460">
                <time>2019-06-14T08:43:50Z</time>
            </trkpt>
            <trkpt lat="54.897810" lon="-8.171190">
                <time>2019-06-14T08:43:51Z</time>
            </trkpt>
            <trkpt lat="54.897560" lon="-8.170920">
                <time>2019-06-14T08:43:52Z</time>
            </trkpt>
            <trkpt lat="54.897320" lon="-8.170640">
                <time>2019-06-14T08:43:53Z</time>
            </trkpt>
            <trkpt lat="54.897080" lon="-8.170340">
                <time>2019-06-14T08:43:54Z</time>
            </trkpt>
            <trkpt lat="54.896850" lon="-8.170060">
                <time>2019-06-14T08:43:55Z</time>
            </trkpt>
            <trkpt lat="54.896610" lon="-8.169780">
                <time>2019-06-14T08:43:56Z</time>
            </trkpt>
            <trkpt lat="54.896380" lon="-8.169520">
                <time>2019-06-14T08:43:57Z</time>
            </trkpt>
            <trkpt lat="54.896170" lon="-8.169270">
                <time>2019-06-14T08:43:58Z</time>
            </trkpt>
            <trkpt lat="54.895970" lon="-8.169030">
                <time>2019-06-14T08:43:59Z</time>
            </trkpt>
            <trkpt lat="54.895780" lon="-8.168800">
                <time>2019-06-14T08:44:00Z</time>
            </trkpt>
            <trkpt lat="54.895620" lon="-8.168540">
                <time>2019-06-14T08:44:01Z</time>
            </trkpt>
            <trkpt lat="54.895460" lon="-8.168260">
                <time>2019-06-14T08:44:02Z</time>
            </trkpt>
            <trkpt lat="54.895310" lon="-8.167980">
                <time>2019-06-14T08:44:03Z</time>
            </trkpt>
            <trkpt lat="54.895150" lon="-8.167710">
                <time>2019-06-14T08:44:04Z</time>
            </trkpt>
            <trkpt lat="54.894990" lon="-8.167430">
                <time>2019-06-14T08:44:05Z</time>
            </trkpt>
            <trkpt lat="54.894830" lon="-8.167140">
                <time>2019-06-14T08:44:06Z</time>
            </trkpt>
            <trkpt lat="54.894670" lon="-8.166860">
                <time>2019-06-14T08:44:07Z</time>
            </trkpt>
            <trkpt lat="54.894500" lon="-8.166590">
                <time>2019-06-14T08:44:08Z</time>
            </trkpt>
            <trkpt lat="54.894340" lon="-8.166310">
                <time>2019-06-14T08:44:09Z</time>
            </trkpt>
            <trkpt lat="54.894170" lon="-8.166040">
                <time>2019-06-14T08:44:10Z</time>
            </trkpt>
            <trkpt lat="54.894000" lon="-8.165760">
                <time>2019-06-14T08:44:11Z</time>
            </trkpt>
            <trkpt lat="54.893840" lon="-8.165480">
                <time>2019-06-14T08:44:12Z</time>
            </trkpt>
            <trkpt lat="54.893670" lon="-8.165190">
                <time>2019-06-14T08:44:13Z</time>
            </trkpt>
            <trkpt lat="54.893500" lon="-8.164900">
                <time>2019-06-14T08:44:14Z</time>
            </trkpt>
            <trkpt lat="54.893330" lon="-8.164600">
                <time>2019-06-14T08:44:15Z</time>
            </trkpt>
            <trkpt lat="54.893160" lon="-8.164310">
                <time>2019-06-14T08:44:16Z</time>
            </trkpt>
            <trkpt lat="54.892980" lon="-8.164030">
                <time>2019-06-14T08:44:17Z</time>
            </trkpt>
            <trkpt lat="54.892800" lon="-8.163760">
                <time>2019-06-14T08:44:18Z</time>
            </trkpt>
            <trkpt lat="54.892610" lon="-8.163520">
                <time>2019-06-14T08:44:19Z</time>
            </trkpt>
            <trkpt lat="54.892410" lon="-8.163290">
                <time>2019-06-14T08:44:20Z</time>
            </trkpt>
            <trkpt lat="54.892220" lon="-8.163070">
                <time>2019-06-14T08:44:21Z</time>
            </trkpt>
            <trkpt lat="54.892020" lon="-8.162880">
                <time>2019-06-14T08:44:22Z</time>
            </trkpt>
            <trkpt lat="54.891810" lon="-8.162710">
                <time>2019-06-14T08:44:23Z</time>
            </trkpt>
            <trkpt lat="54.891610" lon="-8.162550">
                <time>2019-06-14T08:44:24Z</time>
            </trkpt>
            <trkpt lat="54.891410" lon="-8.162400">
                <time>2019-06-14T08:44:25Z</time>
            </trkpt>
            <trkpt lat="54.891220" lon="-8.162210">
                <time>2019-06-14T08:44:26Z</time>
            </trkpt>
            <trkpt lat="54.891040" lon="-8.161990">
                <time>2019-06-14T08:44:27Z</time>
            </trkpt>
            <trkpt lat="54.890870" lon="-8.161740">
                <time>2019-06-14T08:44:28Z</time>
            </trkpt>
            <trkpt lat="54.890700" lon="-8.161470">
                <time>2019-06-14T08:44:29Z</time>
            </trkpt>
            <trkpt lat="54.890540" lon="-8.161190">
                <time>2019-06-14T08:44:30Z</time>
            </trkpt>
            <trkpt lat="54.890380" lon="-8.160900">
                <time>2019-06-14T08:44:31Z</time>
            </trkpt>
            <trkpt lat="54.890220" lon="-8.160610">
                <time>2019-06-14T08:44:32Z</time>
            </trkpt>
            <trkpt lat="54.890060" lon="-8.160330">
                <time>2019-06-14T08:44:33Z</time>
            </trkpt>
            <trkpt lat="54.889900" lon="-8.160050">
                <time>2019-06-14T08:44:34Z</time>
            </trkpt>
            <trkpt lat="54.889740" lon="-8.159770">
                <time>2019-06-14T08:44:35Z</time>
            </trkpt>
            <trkpt lat="54.889580" lon="-8.159500">
                <time>2019-06-14T08:44:36Z</time>
            </trkpt>
            <trkpt lat="54.889410" lon="-8.159230">
                <time>2019-06-14T08:44:37Z</time>
            </trkpt>
            <trkpt lat="54.889240" lon="-8.158960">
                <time>2019-06-14T08:44:38Z</time>
            </trkpt>
            <trkpt lat="54.889060" lon="-8.158710">
                <time>2019-06-14T08:44:39Z</time>
            </trkpt>
            <trkpt lat="54.888880" lon="-8.158460">
                <time>2019-06-14T08:44:40Z</time>
            </trkpt>
            <trkpt lat="54.888700" lon="-8.158210">
                <time>2019-06-14T08:44:41Z</time>
            </trkpt>
            <trkpt lat="54.888510" lon="-8.157960">
                <time>2019-06-14T08:44:42Z</time>
            </trkpt>
            <trkpt lat="54.888320" lon="-8.157710">
                <time>2019-06-14T08:44:43Z</time>
            </trkpt>
            <trkpt lat="54.888130" lon="-8.157480">
                <time>2019-06-14T08:44:44Z</time>
            </trkpt>
            <trkpt lat="54.887940" lon="-8.157260">
                <time>2019-06-14T08:44:45Z</time>
            </trkpt>
            <trkpt lat="54.887760" lon="-8.157050">
                <time>2019-06-14T08:44:46Z</time>
            </trkpt>
            <trkpt lat="54.887570" lon="-8.156830">
                <time>2019-06-14T08:44:47Z</time>
            </trkpt>
            <trkpt lat="54.887380" lon="-8.156620">
                <time>2019-06-14T08:44:48Z</time>
            </trkpt>
            <trkpt lat="54.887190" lon="-8.156410">
                <time>2019-06-14T08:44:49Z</time>
            </trkpt>
            <trkpt lat="54.886990" lon="-8.156210">
                <time>2019-06-14T08:44:50Z</time>
            </trkpt>
            <trkpt lat="54.886780" lon="-8.155990">
                <time>2019-06-14T08:44:51Z</time>
            </trkpt>
            <trkpt lat="54.886570" lon="-8.155780">
                <time>2019-06-14T08:44:52Z</time>
            </trkpt>
            <trkpt lat="54.886350" lon="-8.155560">
                <time>2019-06-14T08:44:53Z</time>
            </trkpt>
            <trkpt lat="54.886140" lon="-8.155350">
                <time>2019-06-14T08:44:54Z</time>
            </trkpt>
            <trkpt lat="54.885930" lon="-8.155130">
                <time>2019-06-14T08:44:55Z</time>
            </trkpt>
            <trkpt lat="54.885720" lon="-8.154900">
                <time>2019-06-14T08:44:56Z</time>
            </trkpt>
            <trkpt lat="54.885500" lon="-8.154660">
                <time>2019-06-14T08:44:57Z</time>
            </trkpt>
            <trkpt lat="54.885290" lon="-8.154410">
                <time>2019-06-14T08:44:58Z</time>
            </trkpt>
            <trkpt lat="54.885100" lon="-8.154160">
                <time>2019-06-14T08:44:59Z</time>
            </trkpt>
            <trkpt lat="54.884900" lon="-8.153920">
                <time>2019-06-14T08:45:00Z</time>
            </trkpt>
            <trkpt lat="54.884720" lon="-8.153670">
                <time>2019-06-14T08:45:01Z</time>
            </trkpt>
            <trkpt lat="54.884540" lon="-8.153430">
                <time>2019-06-14T08:45:02Z</time>
            </trkpt>
            <trkpt lat="54.884360" lon="-8.153170">
                <time>2019-06-14T08:45:03Z</time>
            </trkpt>
            <trkpt lat="54.884190" lon="-8.152910">
                <time>2019-06-14T08:45:04Z</time>
            </trkpt>
            <trkpt lat="54.884030" lon="-8.152640">
                <time>2019-06-14T08:45:05Z</time>
            </trkpt>
            <trkpt lat="54.883890" lon="-8.152350">
                <time>2019-06-14T08:45:06Z</time>
            </trkpt>
            <trkpt lat="54.883770" lon="-8.152030">
                <time>2019-06-14T08:45:07Z</time>
            </trkpt>
            <trkpt lat="54.883670" lon="-8.151720">
                <time>2019-06-14T08:45:08Z</time>
            </trkpt>
            <trkpt lat="54.883570" lon="-8.151440">
                <time>2019-06-14T08:45:09Z</time>
            </trkpt>
            <trkpt lat="54.883470" lon="-8.151180">
                <time>2019-06-14T08:45:10Z</time>
            </trkpt>
            <trkpt lat="54.883360" lon="-8.150950">
                <time>2019-06-14T08:45:11Z</time>
            </trkpt>
            <trkpt lat="54.883240" lon="-8.150750">
                <time>2019-06-14T08:45:12Z</time>
            </trkpt>
            <trkpt lat="54.883110" lon="-8.150590">
                <time>2019-06-14T08:45:13Z</time>
            </trkpt>
            <trkpt lat="54.882980" lon="-8.150490">
                <time>2019-06-14T08:45:14Z</time>
            </trkpt>
            <trkpt lat="54.882840" lon="-8.150420">
                <time>2019-06-14T08:45:15Z</time>
            </trkpt>
            <trkpt lat="54.882690" lon="-8.150390">
                <time>2019-06-14T08:45:16Z</time>
            </trkpt>
            <trkpt lat="54.882520" lon="-8.150390">
                <time>2019-06-14T08:45:17Z</time>
            </trkpt>
            <trkpt lat="54.882350" lon="-8.150450">
                <time>2019-06-14T08:45:18Z</time>
            </trkpt>
            <trkpt lat="54.882170" lon="-8.150530">
                <time>2019-06-14T08:45:19Z</time>
            </trkpt>
            <trkpt lat="54.881980" lon="-8.150630">
                <time>2019-06-14T08:45:20Z</time>
            </trkpt>
            <trkpt lat="54.881800" lon="-8.150710">
                <time>2019-06-14T08:45:21Z</time>
            </trkpt>
            <trkpt lat="54.881610" lon="-8.150770">
                <time>2019-06-14T08:45:22Z</time>
            </trkpt>
            <trkpt lat="54.881440" lon="-8.150810">
                <time>2019-06-14T08:45:23Z</time>
            </trkpt>
            <trkpt lat="54.881270" lon="-8.150850">
                <time>2019-06-14T08:45:24Z</time>
            </trkpt>
            <trkpt lat="54.881100" lon="-8.150900">
                <time>2019-06-14T08:45:25Z</time>
            </trkpt>
            <trkpt lat="54.880920" lon="-8.150930">
                <time>2019-06-14T08:45:26Z</time>
            </trkpt>
            <trkpt lat="54.880750" lon="-8.150960">
                <time>2019-06-14T08:45:27Z</time>
            </trkpt>
            <trkpt lat="54.880580" lon="-8.150960">
                <time>2019-06-14T08:45:28Z</time>
            </trkpt>
            <trkpt lat="54.880430" lon="-8.150930">
                <time>2019-06-14T08:45:29Z</time>
            </trkpt>
            <trkpt lat="54.880270" lon="-8.150860">
                <time>2019-06-14T08:45:30Z</time>
            </trkpt>
            <trkpt lat="54.880120" lon="-8.150750">
                <time>2019-06-14T08:45:31Z</time>
            </trkpt>
            <trkpt lat="54.879970" lon="-8.150600">
                <time>2019-06-14T08:45:32Z</time>
            </trkpt>
            <trkpt lat="54.879850" lon="-8.150410">
                <time>2019-06-14T08:45:33Z</time>
            </trkpt>
            <trkpt lat="54.879730" lon="-8.150180">
                <time>2019-06-14T08:45:34Z</time>
            </trkpt>
            <trkpt lat="54.879630" lon="-8.149910">
                <time>2019-06-14T08:45:35Z</time>
            </trkpt>
            <trkpt lat="54.879560" lon="-8.149620">
                <time>2019-06-14T08:45:36Z</time>
            </trkpt>
            <trkpt lat="54.879520" lon="-8.149310">
                <time>2019-06-14T08:45:37Z</time>
            </trkpt>
            <trkpt lat="54.879490" lon="-8.148990">
                <time>2019-06-14T08:45:38Z</time>
            </trkpt>
            <trkpt lat="54.879450" lon="-8.148660">
                <time>2019-06-14T08:45:39Z</time>
            </trkpt>
            <trkpt lat="54.879390" lon="-8.148330">
                <time>2019-06-14T08:45:40Z</time>
            </trkpt>
            <trkpt lat="54.879310" lon="-8.147980">
                <time>2019-06-14T08:45:41Z</time>
            </trkpt>
            <trkpt lat="54.879190" lon="-8.147640">
                <time>2019-06-14T08:45:42Z</time>
            </trkpt>
            <trkpt lat="54.879060" lon="-8.147290">
                <time>2019-06-14T08:45:43Z</time>
            </trkpt>
            <trkpt lat="54.878920" lon="-8.146920">
                <time>2019-06-14T08:45:44Z</time>
            </trkpt>
            <trkpt lat="54.878780" lon="-8.146530">
                <time>2019-06-14T08:45:45Z</time>
            </trkpt>
            <trkpt lat="54.878620" lon="-8.146100">
                <time>2019-06-14T08:45:46Z</time>
            </trkpt>
            <trkpt lat="54.878450" lon="-8.145660">
                <time>2019-06-14T08:45:47Z</time>
            </trkpt>
            <trkpt lat="54.878290" lon="-8.145210">
                <time>2019-06-14T08:45:48Z</time>
            </trkpt>
            <trkpt lat="54.878150" lon="-8.144750">
                <time>2019-06-14T08:45:49Z</time>
            </trkpt>
            <trkpt lat="54.878020" lon="-8.144280">
                <time>2019-06-14T08:45:50Z</time>
            </trkpt>
            <trkpt lat="54.877870" lon="-8.143820">
                <time>2019-06-14T08:45:51Z</time>
            </trkpt>
            <trkpt lat="54.877700" lon="-8.143390">
                <time>2019-06-14T08:45:52Z</time>
            </trkpt>
            <trkpt lat="54.877510" lon="-8.142980">
                <time>2019-06-14T08:45:53Z</time>
            </trkpt>
            <trkpt lat="54.877330" lon="-8.142560">
                <time>2019-06-14T08:45:54Z</time>
            </trkpt>
            <trkpt lat="54.877160" lon="-8.142160">
                <time>2019-06-14T08:45:55Z</time>
            </trkpt>
            <trkpt lat="54.877020" lon="-8.141780">
                <time>2019-06-14T08:45:56Z</time>
            </trkpt>
            <trkpt lat="54.876880" lon="-8.141430">
                <time>2019-06-14T08:45:57Z</time>
            </trkpt>
            <trkpt lat="54.876750" lon="-8.141100">
                <time>2019-06-14T08:45:58Z</time>
            </trkpt>
            <trkpt lat="54.876640" lon="-8.140790">
                <time>2019-06-14T08:45:59Z</time>
            </trkpt>
            <trkpt lat="54.876530" lon="-8.140510">
                <time>2019-06-14T08:46:00Z</time>
            </trkpt>
            <trkpt lat="54.876420" lon="-8.140270">
                <time>2019-06-14T08:46:01Z</time>
            </trkpt>
            <trkpt lat="54.876300" lon="-8.140060">
                <time>2019-06-14T08:46:02Z</time>
            </trkpt>
            <trkpt lat="54.876160" lon="-8.139880">
                <time>2019-06-14T08:46:03Z</time>
            </trkpt>
            <trkpt lat="54.876020" lon="-8.139700">
                <time>2019-06-14T08:46:04Z</time>
            </trkpt>
            <trkpt lat="54.875880" lon="-8.139510">
                <time>2019-06-14T08:46:05Z</time>
            </trkpt>
            <trkpt lat="54.875730" lon="-8.139290">
                <time>2019-06-14T08:46:06Z</time>
            </trkpt>
            <trkpt lat="54.875580" lon="-8.139060">
                <time>2019-06-14T08:46:07Z</time>
            </trkpt>
            <trkpt lat="54.875430" lon="-8.138830">
                <time>2019-06-14T08:46:08Z</time>
            </trkpt>
            <trkpt lat="54.875280" lon="-8.138590">
                <time>2019-06-14T08:46:09Z</time>
            </trkpt>
            <trkpt lat="54.875130" lon="-8.138360">
                <time>2019-06-14T08:46:10Z</time>
            </trkpt>
            <trkpt lat="54.874970" lon="-8.138120">
                <time>2019-06-14T08:46:11Z</time>
            </trkpt>
            <trkpt lat="54.874810" lon="-8.137880">
                <time>2019-06-14T08:46:12Z</time>
            </trkpt>
            <trkpt lat="54.874650" lon="-8.137640">
                <time>2019-06-14T08:46:13Z</time>
            </trkpt>
            <trkpt lat="54.874480" lon="-8.137410">
                <time>2019-06-14T08:46:14Z</time>
            </trkpt>
            <trkpt lat="54.874310" lon="-8.137170">
                <time>2019-06-14T08:46:15Z</time>
            </trkpt>
            <trkpt lat="54.874130" lon="-8.136940">
                <time>2019-06-14T08:46:16Z</time>
            </trkpt>
            <trkpt lat="54.873950" lon="-8.136710">
                <time>2019-06-14T08:46:17Z</time>
            </trkpt>
            <trkpt lat="54.873750" lon="-8.136490">
                <time>2019-06-14T08:46:18Z</time>
            </trkpt>
            <trkpt lat="54.873550" lon="-8.136270">
                <time>2019-06-14T08:46:19Z</time>
            </trkpt>
            <trkpt lat="54.873330" lon="-8.136050">
                <time>2019-06-14T08:46:20Z</time>
            </trkpt>
            <trkpt lat="54.873110" lon="-8.135840">
                <time>2019-06-14T08:46:21Z</time>
            </trkpt>
            <trkpt lat="54.872890" lon="-8.135630">
                <time>2019-06-14T08:46:22Z</time>
            </trkpt>
            <trkpt lat="54.872660" lon="-8.135420">
                <time>2019-06-14T08:46:23Z</time>
            </trkpt>
            <trkpt lat="54.872440" lon="-8.135230">
                <time>2019-06-14T08:46:24Z</time>
            </trkpt>
            <trkpt lat="54.872220" lon="-8.135060">
                <time>2019-06-14T08:46:25Z</time>
            </trkpt>
            <trkpt lat="54.872020" lon="-8.134900">
                <time>2019-06-14T08:46:26Z</time>
            </trkpt>
            <trkpt lat="54.871810" lon="-8.134730">
                <time>2019-06-14T08:46:27Z</time>
            </trkpt>
            <trkpt lat="54.871610" lon="-8.134570">
                <time>2019-06-14T08:46:28Z</time>
            </trkpt>
            <trkpt lat="54.871410" lon="-8.134410">
                <time>2019-06-14T08:46:29Z</time>
            </trkpt>
            <trkpt lat="54.871210" lon="-8.134240">
                <time>2019-06-14T08:46:30Z</time>
            </trkpt>
            <trkpt lat="54.871010" lon="-8.134080">
                <time>2019-06-14T08:46:31Z</time>
            </trkpt>
            <trkpt lat="54.870820" lon="-8.133910">
                <time>2019-06-14T08:46:32Z</time>
            </trkpt>
            <trkpt lat="54.870620" lon="-8.133750">
                <time>2019-06-14T08:46:33Z</time>
            </trkpt>
            <trkpt lat="54.870410" lon="-8.133590">
                <time>2019-06-14T08:46:34Z</time>
            </trkpt>
            <trkpt lat="54.870200" lon="-8.133430">
                <time>2019-06-14T08:46:35Z</time>
            </trkpt>
            <trkpt lat="54.869980" lon="-8.133260">
                <time>2019-06-14T08:46:36Z</time>
            </trkpt>
            <trkpt lat="54.869760" lon="-8.133080">
                <time>2019-06-14T08:46:37Z</time>
            </trkpt>
            <trkpt lat="54.869540" lon="-8.132910">
                <time>2019-06-14T08:46:38Z</time>
            </trkpt>
            <trkpt lat="54.869330" lon="-8.132740">
                <time>2019-06-14T08:46:39Z</time>
            </trkpt>
            <trkpt lat="54.869130" lon="-8.132580">
                <time>2019-06-14T08:46:40Z</time>
            </trkpt>
            <trkpt lat="54.868950" lon="-8.132420">
                <time>2019-06-14T08:46:41Z</time>
            </trkpt>
            <trkpt lat="54.868780" lon="-8.132240">
                <time>2019-06-14T08:46:42Z</time>
            </trkpt>
            <trkpt lat="54.868610" lon="-8.132030">
                <time>2019-06-14T08:46:43Z</time>
            </trkpt>
            <trkpt lat="54.868460" lon="-8.131820">
                <time>2019-06-14T08:46:44Z</time>
            </trkpt>
            <trkpt lat="54.868320" lon="-8.131610">
                <time>2019-06-14T08:46:45Z</time>
            </trkpt>
            <trkpt lat="54.868190" lon="-8.131400">
                <time>2019-06-14T08:46:46Z</time>
            </trkpt>
            <trkpt lat="54.868070" lon="-8.131210">
                <time>2019-06-14T08:46:47Z</time>
            </trkpt>
            <trkpt lat="54.867950" lon="-8.131010">
                <time>2019-06-14T08:46:48Z</time>
            </trkpt>
            <trkpt lat="54.867850" lon="-8.130810">
                <time>2019-06-14T08:46:49Z</time>
            </trkpt>
            <trkpt lat="54.867770" lon="-8.130610">
                <time>2019-06-14T08:46:50Z</time>
            </trkpt>
            <trkpt lat="54.867710" lon="-8.130420">
                <time>2019-06-14T08:46:51Z</time>
            </trkpt>
            <trkpt lat="54.867660" lon="-8.130230">
                <time>2019-06-14T08:46:52Z</time>
            </trkpt>
            <trkpt lat="54.867640" lon="-8.130070">
                <time>2019-06-14T08:46:53Z</time>
            </trkpt>
            <trkpt lat="54.867620" lon="-8.129910">
                <time>2019-06-14T08:46:54Z</time>
            </trkpt>
            <trkpt lat="54.867600" lon="-8.129770">
                <time>2019-06-14T08:46:55Z</time>
            </trkpt>
            <trkpt lat="54.867580" lon="-8.129650">
                <time>2019-06-14T08:46:56Z</time>
            </trkpt>
            <trkpt lat="54.867560" lon="-8.129540">
                <time>2019-06-14T08:46:57Z</time>
            </trkpt>
            <trkpt lat="54.867550" lon="-8.129470">
                <time>2019-06-14T08:46:58Z</time>
            </trkpt>
            <trkpt lat="54.867550" lon="-8.129410">
                <time>2019-06-14T08:46:59Z</time>
            </trkpt>
            <trkpt lat="54.867540" lon="-8.129370">
                <time>2019-06-14T08:47:00Z</time>
            </trkpt>
            <trkpt lat="54.867540" lon="-8.129330">
                <time>2019-06-14T08:47:01Z</time>
            </trkpt>
            <trkpt lat="54.867530" lon="-8.129300">
                <time>2019-06-14T08:47:02Z</time>
            </trkpt>
            <trkpt lat="54.867530" lon="-8.129280">
                <time>2019-06-14T08:47:03Z</time>
            </trkpt>
            <trkpt lat="54.867530" lon="-8.129270">
                <time>2019-06-14T08:47:04Z</time>
            </trkpt>
            <trkpt lat="54.867520" lon="-8.129250">
                <time>2019-06-14T08:47:05Z</time>
            </trkpt>
            <trkpt lat="54.867520" lon="-8.129200">
                <time>2019-06-14T08:47:06Z</time>
            </trkpt>
            <trkpt lat="54.867510" lon="-8.129150">
                <time>2019-06-14T08:47:07Z</time>
            </trkpt>
            <trkpt lat="54.867500" lon="-8.129090">
                <time>2019-06-14T08:47:08Z</time>
            </trkpt>
            <trkpt lat="54.867490" lon="-8.129050">
                <time>2019-06-14T08:47:09Z</time>
            </trkpt>
            <trkpt lat="54.867490" lon="-8.129020">
                <time>2019-06-14T08:47:10Z</time>
            </trkpt>
            <trkpt lat="54.867470" lon="-8.128980">
                <time>2019-06-14T08:47:11Z</time>
            </trkpt>
            <trkpt lat="54.867450" lon="-8.128940">
                <time>2019-06-14T08:47:12Z</time>
            </trkpt>
            <trkpt lat="54.867420" lon="-8.128920">
                <time>2019-06-14T08:47:13Z</time>
            </trkpt>
            <trkpt lat="54.867370" lon="-8.129070">
                <time>2019-06-14T08:47:14Z</time>
            </trkpt>
            <trkpt lat="54.867330" lon="-8.129230">
                <time>2019-06-14T08:47:15Z</time>
            </trkpt>
            <trkpt lat="54.867300" lon="-8.129410">
                <time>2019-06-14T08:47:16Z</time>
            </trkpt>
            <trkpt lat="54.867250" lon="-8.129600">
                <time>2019-06-14T08:47:17Z</time>
            </trkpt>
            <trkpt lat="54.867200" lon="-8.129790">
                <time>2019-06-14T08:47:18Z</time>
            </trkpt>
            <trkpt lat="54.867140" lon="-8.129980">
                <time>2019-06-14T08:47:19Z</time>
            </trkpt>
            <trkpt lat="54.867080" lon="-8.130170">
                <time>2019-06-14T08:47:20Z</time>
            </trkpt>
            <trkpt lat="54.866990" lon="-8.130380">
                <time>2019-06-14T08:47:21Z</time>
            </trkpt>
            <trkpt lat="54.866900" lon="-8.130610">
                <time>2019-06-14T08:47:22Z</time>
            </trkpt>
            <trkpt lat="54.866800" lon="-8.130860">
                <time>2019-06-14T08:47:23Z</time>
            </trkpt>
            <trkpt lat="54.866700" lon="-8.131120">
                <time>2019-06-14T08:47:24Z</time>
            </trkpt>
            <trkpt lat="54.866590" lon="-8.131380">
                <time>2019-06-14T08:47:25Z</time>
            </trkpt>
            <trkpt lat="54.866490" lon="-8.131650">
                <time>2019-06-14T08:47:26Z</time>
            </trkpt>
            <trkpt lat="54.866380" lon="-8.131940">
                <time>2019-06-14T08:47:27Z</time>
            </trkpt>
            <trkpt lat="54.866260" lon="-8.132230">
                <time>2019-06-14T08:47:28Z</time>
            </trkpt>
            <trkpt lat="54.866150" lon="-8.132510">
                <time>2019-06-14T08:47:29Z</time>
            </trkpt>
            <trkpt lat="54.866050" lon="-8.132770">
                <time>2019-06-14T08:47:30Z</time>
            </trkpt>
            <trkpt lat="54.865950" lon="-8.133030">
                <time>2019-06-14T08:47:31Z</time>
            </trkpt>
            <trkpt lat="54.865840" lon="-8.133300">
                <time>2019-06-14T08:47:32Z</time>
            </trkpt>
            <trkpt lat="54.865730" lon="-8.133590">
                <time>2019-06-14T08:47:33Z</time>
            </trkpt>
            <trkpt lat="54.865600" lon="-8.133910">
                <time>2019-06-14T08:47:34Z</time>
            </trkpt>
            <trkpt lat="54.865460" lon="-8.134260">
                <time>2019-06-14T08:47:35Z</time>
            </trkpt>
            <trkpt lat="54.865320" lon="-8.134640">
                <time>2019-06-14T08:47:36Z</time>
            </trkpt>
            <trkpt lat="54.865170" lon="-8.135020">
                <time>2019-06-14T08:47:37Z</time>
            </trkpt>
            <trkpt lat="54.865030" lon="-8.135400">
                <time>2019-06-14T08:47:38Z</time>
            </trkpt>
            <trkpt lat="54.864880" lon="-8.135790">
                <time>2019-06-14T08:47:39Z</time>
            </trkpt>
            <trkpt lat="54.864740" lon="-8.136180">
                <time>2019-06-14T08:47:40Z</time>
            </trkpt>
            <trkpt lat="54.864610" lon="-8.136540">
                <time>2019-06-14T08:47:41Z</time>
            </trkpt>
            <trkpt lat="54.864490" lon="-8.136890">
                <time>2019-06-14T08:47:42Z</time>
            </trkpt>
            <trkpt lat="54.864370" lon="-8.137210">
                <time>2019-06-14T08:47:43Z</time>
            </trkpt>
            <trkpt lat="54.864250" lon="-8.137550">
                <time>2019-06-14T08:47:44Z</time>
            </trkpt>
            <trkpt lat="54.864120" lon="-8.137880">
                <time>2019-06-14T08:47:45Z</time>
            </trkpt>
            <trkpt lat="54.864000" lon="-8.138220">
                <time>2019-06-14T08:47:46Z</time>
            </trkpt>
            <trkpt lat="54.863890" lon="-8.138540">
                <time>2019-06-14T08:47:47Z</time>
            </trkpt>
            <trkpt lat="54.863780" lon="-8.138860">
                <time>2019-06-14T08:47:48Z</time>
            </trkpt>
            <trkpt lat="54.863670" lon="-8.139170">
                <time>2019-06-14T08:47:49Z</time>
            </trkpt>
            <trkpt lat="54.863560" lon="-8.139480">
                <time>2019-06-14T08:47:50Z</time>
            </trkpt>
            <trkpt lat="54.863450" lon="-8.139790">
                <time>2019-06-14T08:47:51Z</time>
            </trkpt>
            <trkpt lat="54.863340" lon="-8.140090">
                <time>2019-06-14T08:47:52Z</time>
            </trkpt>
            <trkpt lat="54.863240" lon="-8.140380">
                <time>2019-06-14T08:47:53Z</time>
            </trkpt>
            <trkpt lat="54.863140" lon="-8.140660">
                <time>2019-06-14T08:47:54Z</time>
            </trkpt>
            <trkpt lat="54.863050" lon="-8.140920">
                <time>2019-06-14T08:47:55Z</time>
            </trkpt>
            <trkpt lat="54.862970" lon="-8.141150">
                <time>2019-06-14T08:47:56Z</time>
            </trkpt>
            <trkpt lat="54.862890" lon="-8.141370">
                <time>2019-06-14T08:47:57Z</time>
            </trkpt>
            <trkpt lat="54.862810" lon="-8.141580">
                <time>2019-06-14T08:47:58Z</time>
            </trkpt>
            <trkpt lat="54.862730" lon="-8.141790">
                <time>2019-06-14T08:47:59Z</time>
            </trkpt>
            <trkpt lat="54.862650" lon="-8.142020">
                <time>2019-06-14T08:48:00Z</time>
            </trkpt>
            <trkpt lat="54.862570" lon="-8.142260">
                <time>2019-06-14T08:48:01Z</time>
            </trkpt>
            <trkpt lat="54.862490" lon="-8.142520">
                <time>2019-06-14T08:48:02Z</time>
            </trkpt>
            <trkpt lat="54.862400" lon="-8.142790">
                <time>2019-06-14T08:48:03Z</time>
            </trkpt>
            <trkpt lat="54.862330" lon="-8.143040">
                <time>2019-06-14T08:48:04Z</time>
            </trkpt>
            <trkpt lat="54.862250" lon="-8.143300">
                <time>2019-06-14T08:48:05Z</time>
            </trkpt>
            <trkpt lat="54.862170" lon="-8.143560">
                <time>2019-06-14T08:48:06Z</time>
            </trkpt>
            <trkpt lat="54.862080" lon="-8.143830">
                <time>2019-06-14T08:48:07Z</time>
            </trkpt>
            <trkpt lat="54.862000" lon="-8.144080">
                <time>2019-06-14T08:48:08Z</time>
            </trkpt>
            <trkpt lat="54.861910" lon="-8.144320">
                <time>2019-06-14T08:48:09Z</time>
            </trkpt>
            <trkpt lat="54.861820" lon="-8.144550">
                <time>2019-06-14T08:48:10Z</time>
            </trkpt>
            <trkpt lat="54.861710" lon="-8.144780">
                <time>2019-06-14T08:48:11Z</time>
            </trkpt>
            <trkpt lat="54.861600" lon="-8.145010">
                <time>2019-06-14T08:48:12Z</time>
            </trkpt>
            <trkpt lat="54.861480" lon="-8.145230">
                <time>2019-06-14T08:48:13Z</time>
            </trkpt>
            <trkpt lat="54.861360" lon="-8.145450">
                <time>2019-06-14T08:48:14Z</time>
            </trkpt>
            <trkpt lat="54.861240" lon="-8.145670">
                <time>2019-06-14T08:48:15Z</time>
            </trkpt>
            <trkpt lat="54.861130" lon="-8.145870">
                <time>2019-06-14T08:48:16Z</time>
            </trkpt>
            <trkpt lat="54.861020" lon="-8.146070">
                <time>2019-06-14T08:48:17Z</time>
            </trkpt>
            <trkpt lat="54.860920" lon="-8.146270">
                <time>2019-06-14T08:48:18Z</time>
            </trkpt>
            <trkpt lat="54.860820" lon="-8.146500">
                <time>2019-06-14T08:48:19Z</time>
            </trkpt>
            <trkpt lat="54.860730" lon="-8.146750">
                <time>2019-06-14T08:48:20Z</time>
            </trkpt>
            <trkpt lat="54.860630" lon="-8.147020">
                <time>2019-06-14T08:48:21Z</time>
            </trkpt>
            <trkpt lat="54.860530" lon="-8.147290">
                <time>2019-06-14T08:48:22Z</time>
            </trkpt>
            <trkpt lat="54.860430" lon="-8.147560">
                <time>2019-06-14T08:48:23Z</time>
            </trkpt>
            <trkpt lat="54.860340" lon="-8.147820">
                <time>2019-06-14T08:48:24Z</time>
            </trkpt>
            <trkpt lat="54.860240" lon="-8.148100">
                <time>2019-06-14T08:48:25Z</time>
            </trkpt>
            <trkpt lat="54.860150" lon="-8.148370">
                <time>2019-06-14T08:48:26Z</time>
            </trkpt>
            <trkpt lat="54.860050" lon="-8.148650">
                <time>2019-06-14T08:48:27Z</time>
            </trkpt>
            <trkpt lat="54.859950" lon="-8.148930">
                <time>2019-06-14T08:48:28Z</time>
            </trkpt>
            <trkpt lat="54.859850" lon="-8.149210">
                <time>2019-06-14T08:48:29Z</time>
            </trkpt>
            <trkpt lat="54.859740" lon="-8.149490">
                <time>2019-06-14T08:48:30Z</time>
            </trkpt>
            <trkpt lat="54.859630" lon="-8.149780">
                <time>2019-06-14T08:48:31Z</time>
            </trkpt>
            <trkpt lat="54.859520" lon="-8.150060">
                <time>2019-06-14T08:48:32Z</time>
            </trkpt>
            <trkpt lat="54.859410" lon="-8.150340">
                <time>2019-06-14T08:48:33Z</time>
            </trkpt>
            <trkpt lat="54.859310" lon="-8.150610">
                <time>2019-06-14T08:48:34Z</time>
            </trkpt>
            <trkpt lat="54.859200" lon="-8.150880">
                <time>2019-06-14T08:48:35Z</time>
            </trkpt>
            <trkpt lat="54.859100" lon="-8.151150">
                <time>2019-06-14T08:48:36Z</time>
            </trkpt>
            <trkpt lat="54.858990" lon="-8.151430">
                <time>2019-06-14T08:48:37Z</time>
            </trkpt>
            <trkpt lat="54.858890" lon="-8.151710">
                <time>2019-06-14T08:48:38Z</time>
            </trkpt>
            <trkpt lat="54.858780" lon="-8.151990">
                <time>2019-06-14T08:48:39Z</time>
            </trkpt>
            <trkpt lat="54.858670" lon="-8.152290">
                <time>2019-06-14T08:48:40Z</time>
            </trkpt>
            <trkpt lat="54.858560" lon="-8.152580">
                <time>2019-06-14T08:48:41Z</time>
            </trkpt>
            <trkpt lat="54.858440" lon="-8.152880">
                <time>2019-06-14T08:48:42Z</time>
            </trkpt>
            <trkpt lat="54.858320" lon="-8.153170">
                <time>2019-06-14T08:48:43Z</time>
            </trkpt>
            <trkpt lat="54.858210" lon="-8.153460">
                <time>2019-06-14T08:48:44Z</time>
            </trkpt>
            <trkpt lat="54.858090" lon="-8.153760">
                <time>2019-06-14T08:48:45Z</time>
            </trkpt>
            <trkpt lat="54.857980" lon="-8.154060">
                <time>2019-06-14T08:48:46Z</time>
            </trkpt>
            <trkpt lat="54.857860" lon="-8.154350">
                <time>2019-06-14T08:48:47Z</time>
            </trkpt>
            <trkpt lat="54.857750" lon="-8.154630">
                <time>2019-06-14T08:48:48Z</time>
            </trkpt>
            <trkpt lat="54.857640" lon="-8.154910">
                <time>2019-06-14T08:48:49Z</time>
            </trkpt>
            <trkpt lat="54.857530" lon="-8.155180">
                <time>2019-06-14T08:48:50Z</time>
            </trkpt>
            <trkpt lat="54.857410" lon="-8.155450">
                <time>2019-06-14T08:48:51Z</time>
            </trkpt>
            <trkpt lat="54.857280" lon="-8.155720">
                <time>2019-06-14T08:48:52Z</time>
            </trkpt>
            <trkpt lat="54.857160" lon="-8.155970">
                <time>2019-06-14T08:48:53Z</time>
            </trkpt>
            <trkpt lat="54.857030" lon="-8.156220">
                <time>2019-06-14T08:48:54Z</time>
            </trkpt>
            <trkpt lat="54.856910" lon="-8.156480">
                <time>2019-06-14T08:48:55Z</time>
            </trkpt>
            <trkpt lat="54.856800" lon="-8.156750">
                <time>2019-06-14T08:48:56Z</time>
            </trkpt>
            <trkpt lat="54.856680" lon="-8.157040">
                <time>2019-06-14T08:48:57Z</time>
            </trkpt>
            <trkpt lat="54.856560" lon="-8.157330">
                <time>2019-06-14T08:48:58Z</time>
            </trkpt>
            <trkpt lat="54.856440" lon="-8.157630">
                <time>2019-06-14T08:48:59Z</time>
            </trkpt>
            <trkpt lat="54.856320" lon="-8.157940">
                <time>2019-06-14T08:49:00Z</time>
            </trkpt>
            <trkpt lat="54.856200" lon="-8.158240">
                <time>2019-06-14T08:49:01Z</time>
            </trkpt>
            <trkpt lat="54.856080" lon="-8.158550">
                <time>2019-06-14T08:49:02Z</time>
            </trkpt>
            <trkpt lat="54.855970" lon="-8.158860">
                <time>2019-06-14T08:49:03Z</time>
            </trkpt>
            <trkpt lat="54.855860" lon="-8.159160">
                <time>2019-06-14T08:49:04Z</time>
            </trkpt>
            <trkpt lat="54.855760" lon="-8.159450">
                <time>2019-06-14T08:49:05Z</time>
            </trkpt>
            <trkpt lat="54.855660" lon="-8.159720">
                <time>2019-06-14T08:49:06Z</time>
            </trkpt>
            <trkpt lat="54.855570" lon="-8.159980">
                <time>2019-06-14T08:49:07Z</time>
            </trkpt>
            <trkpt lat="54.855480" lon="-8.160230">
                <time>2019-06-14T08:49:08Z</time>
            </trkpt>
            <trkpt lat="54.855390" lon="-8.160480">
                <time>2019-06-14T08:49:09Z</time>
            </trkpt>
            <trkpt lat="54.855300" lon="-8.160730">
                <time>2019-06-14T08:49:10Z</time>
            </trkpt>
            <trkpt lat="54.855210" lon="-8.160970">
                <time>2019-06-14T08:49:11Z</time>
            </trkpt>
            <trkpt lat="54.855100" lon="-8.161210">
                <time>2019-06-14T08:49:12Z</time>
            </trkpt>
            <trkpt lat="54.855000" lon="-8.161440">
                <time>2019-06-14T08:49:13Z</time>
            </trkpt>
            <trkpt lat="54.854910" lon="-8.161650">
                <time>2019-06-14T08:49:14Z</time>
            </trkpt>
            <trkpt lat="54.854820" lon="-8.161870">
                <time>2019-06-14T08:49:15Z</time>
            </trkpt>
            <trkpt lat="54.854740" lon="-8.162090">
                <time>2019-06-14T08:49:16Z</time>
            </trkpt>
            <trkpt lat="54.854660" lon="-8.162330">
                <time>2019-06-14T08:49:17Z</time>
            </trkpt>
            <trkpt lat="54.854580" lon="-8.162560">
                <time>2019-06-14T08:49:18Z</time>
            </trkpt>
            <trkpt lat="54.854500" lon="-8.162790">
                <time>2019-06-14T08:49:19Z</time>
            </trkpt>
            <trkpt lat="54.854410" lon="-8.163020">
                <time>2019-06-14T08:49:20Z</time>
            </trkpt>
            <trkpt lat="54.854310" lon="-8.163240">
                <time>2019-06-14T08:49:21Z</time>
            </trkpt>
            <trkpt lat="54.854230" lon="-8.163480">
                <time>2019-06-14T08:49:22Z</time>
            </trkpt>
            <trkpt lat="54.854160" lon="-8.163720">
                <time>2019-06-14T08:49:23Z</time>
            </trkpt>
            <trkpt lat="54.854110" lon="-8.163960">
                <time>2019-06-14T08:49:24Z</time>
            </trkpt>
            <trkpt lat="54.854060" lon="-8.164190">
                <time>2019-06-14T08:49:25Z</time>
            </trkpt>
            <trkpt lat="54.854010" lon="-8.164420">
                <time>2019-06-14T08:49:26Z</time>
            </trkpt>
            <trkpt lat="54.853950" lon="-8.164650">
                <time>2019-06-14T08:49:27Z</time>
            </trkpt>
            <trkpt lat="54.853910" lon="-8.164900">
                <time>2019-06-14T08:49:28Z</time>
            </trkpt>
            <trkpt lat="54.853870" lon="-8.165150">
                <time>2019-06-14T08:49:29Z</time>
            </trkpt>
            <trkpt lat="54.853840" lon="-8.165390">
                <time>2019-06-14T08:49:30Z</time>
            </trkpt>
            <trkpt lat="54.853810" lon="-8.165630">
                <time>2019-06-14T08:49:31Z</time>
            </trkpt>
            <trkpt lat="54.853800" lon="-8.165870">
                <time>2019-06-14T08:49:32Z</time>
            </trkpt>
            <trkpt lat="54.853790" lon="-8.166100">
                <time>2019-06-14T08:49:33Z</time>
            </trkpt>
            <trkpt lat="54.853770" lon="-8.166340">
                <time>2019-06-14T08:49:34Z</time>
            </trkpt>
            <trkpt lat="54.853750" lon="-8.166580">
                <time>2019-06-14T08:49:35Z</time>
            </trkpt>
            <trkpt lat="54.853730" lon="-8.166820">
                <time>2019-06-14T08:49:36Z</time>
            </trkpt>
            <trkpt lat="54.853700" lon="-8.167060">
                <time>2019-06-14T08:49:37Z</time>
            </trkpt>
            <trkpt lat="54.853660" lon="-8.167300">
                <time>2019-06-14T08:49:38Z</time>
            </trkpt>
            <trkpt lat="54.853600" lon="-8.167540">
                <time>2019-06-14T08:49:39Z</time>
            </trkpt>
            <trkpt lat="54.853540" lon="-8.167760">
                <time>2019-06-14T08:49:40Z</time>
            </trkpt>
            <trkpt lat="54.853480" lon="-8.168000">
                <time>2019-06-14T08:49:41Z</time>
            </trkpt>
            <trkpt lat="54.853420" lon="-8.168240">
                <time>2019-06-14T08:49:42Z</time>
            </trkpt>
            <trkpt lat="54.853370" lon="-8.168490">
                <time>2019-06-14T08:49:43Z</time>
            </trkpt>
            <trkpt lat="54.853330" lon="-8.168750">
                <time>2019-06-14T08:49:44Z</time>
            </trkpt>
            <trkpt lat="54.853300" lon="-8.169020">
                <time>2019-06-14T08:49:45Z</time>
            </trkpt>
            <trkpt lat="54.853280" lon="-8.169290">
                <time>2019-06-14T08:49:46Z</time>
            </trkpt>
            <trkpt lat="54.853260" lon="-8.169560">
                <time>2019-06-14T08:49:47Z</time>
            </trkpt>
            <trkpt lat="54.853250" lon="-8.169820">
                <time>2019-06-14T08:49:48Z</time>
            </trkpt>
            <trkpt lat="54.853260" lon="-8.170070">
                <time>2019-06-14T08:49:49Z</time>
            </trkpt>
            <trkpt lat="54.853270" lon="-8.170300">
                <time>2019-06-14T08:49:50Z</time>
            </trkpt>
            <trkpt lat="54.853280" lon="-8.170530">
                <time>2019-06-14T08:49:51Z</time>
            </trkpt>
            <trkpt lat="54.853290" lon="-8.170770">
                <time>2019-06-14T08:49:52Z</time>
            </trkpt>
            <trkpt lat="54.853300" lon="-8.171020">
                <time>2019-06-14T08:49:53Z</time>
            </trkpt>
            <trkpt lat="54.853310" lon="-8.171280">
                <time>2019-06-14T08:49:54Z</time>
            </trkpt>
            <trkpt lat="54.853320" lon="-8.171560">
                <time>2019-06-14T08:49:55Z</time>
            </trkpt>
            <trkpt lat="54.853340" lon="-8.171840">
                <time>2019-06-14T08:49:56Z</time>
            </trkpt>
            <trkpt lat="54.853370" lon="-8.172110">
                <time>2019-06-14T08:49:57Z</time>
            </trkpt>
            <trkpt lat="54.853390" lon="-8.172360">
                <time>2019-06-14T08:49:58Z</time>
            </trkpt>
            <trkpt lat="54.853420" lon="-8.172610">
                <time>2019-06-14T08:49:59Z</time>
            </trkpt>
            <trkpt lat="54.853440" lon="-8.172870">
                <time>2019-06-14T08:50:00Z</time>
            </trkpt>
            <trkpt lat="54.853440" lon="-8.173140">
                <time>2019-06-14T08:50:01Z</time>
            </trkpt>
            <trkpt lat="54.853430" lon="-8.173410">
                <time>2019-06-14T08:50:02Z</time>
            </trkpt>
            <trkpt lat="54.853390" lon="-8.173670">
                <time>2019-06-14T08:50:03Z</time>
            </trkpt>
            <trkpt lat="54.853350" lon="-8.173920">
                <time>2019-06-14T08:50:04Z</time>
            </trkpt>
            <trkpt lat="54.853300" lon="-8.174160">
                <time>2019-06-14T08:50:05Z</time>
            </trkpt>
            <trkpt lat="54.853250" lon="-8.174420">
                <time>2019-06-14T08:50:06Z</time>
            </trkpt>
            <trkpt lat="54.853200" lon="-8.174680">
                <time>2019-06-14T08:50:07Z</time>
            </trkpt>
            <trkpt lat="54.853150" lon="-8.174960">
                <time>2019-06-14T08:50:08Z</time>
            </trkpt>
            <trkpt lat="54.853110" lon="-8.175220">
                <time>2019-06-14T08:50:09Z</time>
            </trkpt>
            <trkpt lat="54.853060" lon="-8.175470">
                <time>2019-06-14T08:50:10Z</time>
            </trkpt>
            <trkpt lat="54.853020" lon="-8.175720">
                <time>2019-06-14T08:50:11Z</time>
            </trkpt>
            <trkpt lat="54.852980" lon="-8.175940">
                <time>2019-06-14T08:50:12Z</time>
            </trkpt>
            <trkpt lat="54.852950" lon="-8.176170">
                <time>2019-06-14T08:50:13Z</time>
            </trkpt>
            <trkpt lat="54.852910" lon="-8.176380">
                <time>2019-06-14T08:50:14Z</time>
            </trkpt>
            <trkpt lat="54.852870" lon="-8.176590">
                <time>2019-06-14T08:50:15Z</time>
            </trkpt>
            <trkpt lat="54.852830" lon="-8.176790">
                <time>2019-06-14T08:50:16Z</time>
            </trkpt>
            <trkpt lat="54.852790" lon="-8.177000">
                <time>2019-06-14T08:50:17Z</time>
            </trkpt>
            <trkpt lat="54.852740" lon="-8.177240">
                <time>2019-06-14T08:50:18Z</time>
            </trkpt>
            <trkpt lat="54.852700" lon="-8.177490">
                <time>2019-06-14T08:50:19Z</time>
            </trkpt>
            <trkpt lat="54.852660" lon="-8.177750">
                <time>2019-06-14T08:50:20Z</time>
            </trkpt>
            <trkpt lat="54.852620" lon="-8.178010">
                <time>2019-06-14T08:50:21Z</time>
            </trkpt>
            <trkpt lat="54.852580" lon="-8.178260">
                <time>2019-06-14T08:50:22Z</time>
            </trkpt>
            <trkpt lat="54.852550" lon="-8.178520">
                <time>2019-06-14T08:50:23Z</time>
            </trkpt>
            <trkpt lat="54.852510" lon="-8.178780">
                <time>2019-06-14T08:50:24Z</time>
            </trkpt>
            <trkpt lat="54.852450" lon="-8.179040">
                <time>2019-06-14T08:50:25Z</time>
            </trkpt>
            <trkpt lat="54.852390" lon="-8.179300">
                <time>2019-06-14T08:50:26Z</time>
            </trkpt>
            <trkpt lat="54.852330" lon="-8.179560">
                <time>2019-06-14T08:50:27Z</time>
            </trkpt>
            <trkpt lat="54.852250" lon="-8.179820">
                <time>2019-06-14T08:50:28Z</time>
            </trkpt>
            <trkpt lat="54.852170" lon="-8.180080">
                <time>2019-06-14T08:50:29Z</time>
            </trkpt>
            <trkpt lat="54.852070" lon="-8.180340">
                <time>2019-06-14T08:50:30Z</time>
            </trkpt>
            <trkpt lat="54.851970" lon="-8.180590">
                <time>2019-06-14T08:50:31Z</time>
            </trkpt>
            <trkpt lat="54.851870" lon="-8.180820">
                <time>2019-06-14T08:50:32Z</time>
            </trkpt>
            <trkpt lat="54.851760" lon="-8.181050">
                <time>2019-06-14T08:50:33Z</time>
            </trkpt>
            <trkpt lat="54.851650" lon="-8.181270">
                <time>2019-06-14T08:50:34Z</time>
            </trkpt>
            <trkpt lat="54.851540" lon="-8.181500">
                <time>2019-06-14T08:50:35Z</time>
            </trkpt>
            <trkpt lat="54.851430" lon="-8.181730">
                <time>2019-06-14T08:50:36Z</time>
            </trkpt>
            <trkpt lat="54.851320" lon="-8.181970">
                <time>2019-06-14T08:50:37Z</time>
            </trkpt>
            <trkpt lat="54.851220" lon="-8.182220">
                <time>2019-06-14T08:50:38Z</time>
            </trkpt>
            <trkpt lat="54.851130" lon="-8.182470">
                <time>2019-06-14T08:50:39Z</time>
            </trkpt>
            <trkpt lat="54.851050" lon="-8.182690">
                <time>2019-06-14T08:50:40Z</time>
            </trkpt>
            <trkpt lat="54.850980" lon="-8.182910">
                <time>2019-06-14T08:50:41Z</time>
            </trkpt>
            <trkpt lat="54.850900" lon="-8.183120">
                <time>2019-06-14T08:50:42Z</time>
            </trkpt>
            <trkpt lat="54.850830" lon="-8.183340">
                <time>2019-06-14T08:50:43Z</time>
            </trkpt>
            <trkpt lat="54.850760" lon="-8.183540">
                <time>2019-06-14T08:50:44Z</time>
            </trkpt>
            <trkpt lat="54.850700" lon="-8.183730">
                <time>2019-06-14T08:50:45Z</time>
            </trkpt>
            <trkpt lat="54.850640" lon="-8.183930">
                <time>2019-06-14T08:50:46Z</time>
            </trkpt>
            <trkpt lat="54.850580" lon="-8.184130">
                <time>2019-06-14T08:50:47Z</time>
            </trkpt>
            <trkpt lat="54.850510" lon="-8.184340">
                <time>2019-06-14T08:50:48Z</time>
            </trkpt>
            <trkpt lat="54.850440" lon="-8.184570">
                <time>2019-06-14T08:50:49Z</time>
            </trkpt>
            <trkpt lat="54.850360" lon="-8.184810">
                <time>2019-06-14T08:50:50Z</time>
            </trkpt>
            <trkpt lat="54.850270" lon="-8.185060">
                <time>2019-06-14T08:50:51Z</time>
            </trkpt>
            <trkpt lat="54.850180" lon="-8.185310">
                <time>2019-06-14T08:50:52Z</time>
            </trkpt>
            <trkpt lat="54.850090" lon="-8.185560">
                <time>2019-06-14T08:50:53Z</time>
            </trkpt>
            <trkpt lat="54.849990" lon="-8.185800">
                <time>2019-06-14T08:50:54Z</time>
            </trkpt>
            <trkpt lat="54.849890" lon="-8.186030">
                <time>2019-06-14T08:50:55Z</time>
            </trkpt>
            <trkpt lat="54.849800" lon="-8.186250">
                <time>2019-06-14T08:50:56Z</time>
            </trkpt>
            <trkpt lat="54.849700" lon="-8.186450">
                <time>2019-06-14T08:50:57Z</time>
            </trkpt>
            <trkpt lat="54.849610" lon="-8.186660">
                <time>2019-06-14T08:50:58Z</time>
            </trkpt>
            <trkpt lat="54.849510" lon="-8.186860">
                <time>2019-06-14T08:50:59Z</time>
            </trkpt>
            <trkpt lat="54.849430" lon="-8.187040">
                <time>2019-06-14T08:51:00Z</time>
            </trkpt>
            <trkpt lat="54.849340" lon="-8.187210">
                <time>2019-06-14T08:51:01Z</time>
            </trkpt>
            <trkpt lat="54.849260" lon="-8.187380">
                <time>2019-06-14T08:51:02Z</time>
            </trkpt>
            <trkpt lat="54.849190" lon="-8.187540">
                <time>2019-06-14T08:51:03Z</time>
            </trkpt>
            <trkpt lat="54.849110" lon="-8.187700">
                <time>2019-06-14T08:51:04Z</time>
            </trkpt>
            <trkpt lat="54.849030" lon="-8.187870">
                <time>2019-06-14T08:51:05Z</time>
            </trkpt>
            <trkpt lat="54.848960" lon="-8.188050">
                <time>2019-06-14T08:51:06Z</time>
            </trkpt>
            <trkpt lat="54.848900" lon="-8.188240">
                <time>2019-06-14T08:51:07Z</time>
            </trkpt>
            <trkpt lat="54.848850" lon="-8.188450">
                <time>2019-06-14T08:51:08Z</time>
            </trkpt>
            <trkpt lat="54.848800" lon="-8.188660">
                <time>2019-06-14T08:51:09Z</time>
            </trkpt>
            <trkpt lat="54.848760" lon="-8.188890">
                <time>2019-06-14T08:51:10Z</time>
            </trkpt>
            <trkpt lat="54.848720" lon="-8.189120">
                <time>2019-06-14T08:51:11Z</time>
            </trkpt>
            <trkpt lat="54.848680" lon="-8.189350">
                <time>2019-06-14T08:51:12Z</time>
            </trkpt>
            <trkpt lat="54.848640" lon="-8.189600">
                <time>2019-06-14T08:51:13Z</time>
            </trkpt>
            <trkpt lat="54.848590" lon="-8.189850">
                <time>2019-06-14T08:51:14Z</time>
            </trkpt>
            <trkpt lat="54.848550" lon="-8.190100">
                <time>2019-06-14T08:51:15Z</time>
            </trkpt>
            <trkpt lat="54.848500" lon="-8.190350">
                <time>2019-06-14T08:51:16Z</time>
            </trkpt>
            <trkpt lat="54.848470" lon="-8.190580">
                <time>2019-06-14T08:51:17Z</time>
            </trkpt>
            <trkpt lat="54.848430" lon="-8.190790">
                <time>2019-06-14T08:51:18Z</time>
            </trkpt>
            <trkpt lat="54.848400" lon="-8.191010">
                <time>2019-06-14T08:51:19Z</time>
            </trkpt>
            <trkpt lat="54.848370" lon="-8.191220">
                <time>2019-06-14T08:51:20Z</time>
            </trkpt>
            <trkpt lat="54.848330" lon="-8.191410">
                <time>2019-06-14T08:51:21Z</time>
            </trkpt>
            <trkpt lat="54.848300" lon="-8.191600">
                <time>2019-06-14T08:51:22Z</time>
            </trkpt>
            <trkpt lat="54.848270" lon="-8.191780">
                <time>2019-06-14T08:51:23Z</time>
            </trkpt>
            <trkpt lat="54.848250" lon="-8.191960">
                <time>2019-06-14T08:51:24Z</time>
            </trkpt>
            <trkpt lat="54.848220" lon="-8.192130">
                <time>2019-06-14T08:51:25Z</time>
            </trkpt>
            <trkpt lat="54.848190" lon="-8.192290">
                <time>2019-06-14T08:51:26Z</time>
            </trkpt>
            <trkpt lat="54.848160" lon="-8.192470">
                <time>2019-06-14T08:51:27Z</time>
            </trkpt>
            <trkpt lat="54.848130" lon="-8.192650">
                <time>2019-06-14T08:51:28Z</time>
            </trkpt>
            <trkpt lat="54.848090" lon="-8.192840">
                <time>2019-06-14T08:51:29Z</time>
            </trkpt>
            <trkpt lat="54.848050" lon="-8.193030">
                <time>2019-06-14T08:51:30Z</time>
            </trkpt>
            <trkpt lat="54.848000" lon="-8.193200">
                <time>2019-06-14T08:51:31Z</time>
            </trkpt>
            <trkpt lat="54.847930" lon="-8.193360">
                <time>2019-06-14T08:51:32Z</time>
            </trkpt>
            <trkpt lat="54.847840" lon="-8.193460">
                <time>2019-06-14T08:51:33Z</time>
            </trkpt>
            <trkpt lat="54.847730" lon="-8.193540">
                <time>2019-06-14T08:51:34Z</time>
            </trkpt>
            <trkpt lat="54.847600" lon="-8.193590">
                <time>2019-06-14T08:51:35Z</time>
            </trkpt>
            <trkpt lat="54.847480" lon="-8.193640">
                <time>2019-06-14T08:51:36Z</time>
            </trkpt>
            <trkpt lat="54.847370" lon="-8.193700">
                <time>2019-06-14T08:51:37Z</time>
            </trkpt>
            <trkpt lat="54.847260" lon="-8.193760">
                <time>2019-06-14T08:51:38Z</time>
            </trkpt>
            <trkpt lat="54.847140" lon="-8.193830">
                <time>2019-06-14T08:51:39Z</time>
            </trkpt>
            <trkpt lat="54.847040" lon="-8.193910">
                <time>2019-06-14T08:51:40Z</time>
            </trkpt>
            <trkpt lat="54.846940" lon="-8.193990">
                <time>2019-06-14T08:51:41Z</time>
            </trkpt>
            <trkpt lat="54.846860" lon="-8.194060">
                <time>2019-06-14T08:51:42Z</time>
            </trkpt>
            <trkpt lat="54.846780" lon="-8.194130">
                <time>2019-06-14T08:51:43Z</time>
            </trkpt>
            <trkpt lat="54.846690" lon="-8.194200">
                <time>2019-06-14T08:51:44Z</time>
            </trkpt>
            <trkpt lat="54.846610" lon="-8.194270">
                <time>2019-06-14T08:51:45Z</time>
            </trkpt>
            <trkpt lat="54.846530" lon="-8.194340">
                <time>2019-06-14T08:51:46Z</time>
            </trkpt>
            <trkpt lat="54.846460" lon="-8.194400">
                <time>2019-06-14T08:51:47Z</time>
            </trkpt>
            <trkpt lat="54.846380" lon="-8.194470">
                <time>2019-06-14T08:51:48Z</time>
            </trkpt>
            <trkpt lat="54.846290" lon="-8.194550">
                <time>2019-06-14T08:51:49Z</time>
            </trkpt>
            <trkpt lat="54.846190" lon="-8.194630">
                <time>2019-06-14T08:51:50Z</time>
            </trkpt>
            <trkpt lat="54.846080" lon="-8.194720">
                <time>2019-06-14T08:51:51Z</time>
            </trkpt>
            <trkpt lat="54.845960" lon="-8.194820">
                <time>2019-06-14T08:51:52Z</time>
            </trkpt>
            <trkpt lat="54.845840" lon="-8.194920">
                <time>2019-06-14T08:51:53Z</time>
            </trkpt>
            <trkpt lat="54.845700" lon="-8.195040">
                <time>2019-06-14T08:51:54Z</time>
            </trkpt>
            <trkpt lat="54.845580" lon="-8.195170">
                <time>2019-06-14T08:51:55Z</time>
            </trkpt>
            <trkpt lat="54.845460" lon="-8.195310">
                <time>2019-06-14T08:51:56Z</time>
            </trkpt>
            <trkpt lat="54.845360" lon="-8.195470">
                <time>2019-06-14T08:51:57Z</time>
            </trkpt>
            <trkpt lat="54.845250" lon="-8.195640">
                <time>2019-06-14T08:51:58Z</time>
            </trkpt>
            <trkpt lat="54.845130" lon="-8.195820">
                <time>2019-06-14T08:51:59Z</time>
            </trkpt>
            <trkpt lat="54.845020" lon="-8.196000">
                <time>2019-06-14T08:52:00Z</time>
            </trkpt>
            <trkpt lat="54.844910" lon="-8.196160">
                <time>2019-06-14T08:52:01Z</time>
            </trkpt>
            <trkpt lat="54.844800" lon="-8.196330">
                <time>2019-06-14T08:52:02Z</time>
            </trkpt>
            <trkpt lat="54.844690" lon="-8.196510">
                <time>2019-06-14T08:52:03Z</time>
            </trkpt>
            <trkpt lat="54.844580" lon="-8.196680">
                <time>2019-06-14T08:52:04Z</time>
            </trkpt>
            <trkpt lat="54.844470" lon="-8.196870">
                <time>2019-06-14T08:52:05Z</time>
            </trkpt>
            <trkpt lat="54.844360" lon="-8.197070">
                <time>2019-06-14T08:52:06Z</time>
            </trkpt>
            <trkpt lat="54.844260" lon="-8.197300">
                <time>2019-06-14T08:52:07Z</time>
            </trkpt>
            <trkpt lat="54.844180" lon="-8.197540">
                <time>2019-06-14T08:52:08Z</time>
            </trkpt>
            <trkpt lat="54.844090" lon="-8.197790">
                <time>2019-06-14T08:52:09Z</time>
            </trkpt>
            <trkpt lat="54.844010" lon="-8.198030">
                <time>2019-06-14T08:52:10Z</time>
            </trkpt>
            <trkpt lat="54.843930" lon="-8.198260">
                <time>2019-06-14T08:52:11Z</time>
            </trkpt>
            <trkpt lat="54.843860" lon="-8.198470">
                <time>2019-06-14T08:52:12Z</time>
            </trkpt>
            <trkpt lat="54.843790" lon="-8.198680">
                <time>2019-06-14T08:52:13Z</time>
            </trkpt>
            <trkpt lat="54.843710" lon="-8.198900">
                <time>2019-06-14T08:52:14Z</time>
            </trkpt>
            <trkpt lat="54.843630" lon="-8.199120">
                <time>2019-06-14T08:52:15Z</time>
            </trkpt>
            <trkpt lat="54.843550" lon="-8.199350">
                <time>2019-06-14T08:52:16Z</time>
            </trkpt>
            <trkpt lat="54.843470" lon="-8.199580">
                <time>2019-06-14T08:52:17Z</time>
            </trkpt>
            <trkpt lat="54.843400" lon="-8.199800">
                <time>2019-06-14T08:52:18Z</time>
            </trkpt>
            <trkpt lat="54.843330" lon="-8.200020">
                <time>2019-06-14T08:52:19Z</time>
            </trkpt>
            <trkpt lat="54.843250" lon="-8.200250">
                <time>2019-06-14T08:52:20Z</time>
            </trkpt>
            <trkpt lat="54.843170" lon="-8.200490">
                <time>2019-06-14T08:52:21Z</time>
            </trkpt>
            <trkpt lat="54.843100" lon="-8.200730">
                <time>2019-06-14T08:52:22Z</time>
            </trkpt>
            <trkpt lat="54.843020" lon="-8.200970">
                <time>2019-06-14T08:52:23Z</time>
            </trkpt>
            <trkpt lat="54.842960" lon="-8.201220">
                <time>2019-06-14T08:52:24Z</time>
            </trkpt>
            <trkpt lat="54.842890" lon="-8.201480">
                <time>2019-06-14T08:52:25Z</time>
            </trkpt>
            <trkpt lat="54.842840" lon="-8.201730">
                <time>2019-06-14T08:52:26Z</time>
            </trkpt>
            <trkpt lat="54.842790" lon="-8.201980">
                <time>2019-06-14T08:52:27Z</time>
            </trkpt>
            <trkpt lat="54.842750" lon="-8.202220">
                <time>2019-06-14T08:52:28Z</time>
            </trkpt>
            <trkpt lat="54.842710" lon="-8.202470">
                <time>2019-06-14T08:52:29Z</time>
            </trkpt>
            <trkpt lat="54.842680" lon="-8.202720">
                <time>2019-06-14T08:52:30Z</time>
            </trkpt>
            <trkpt lat="54.842660" lon="-8.202990">
                <time>2019-06-14T08:52:31Z</time>
            </trkpt>
            <trkpt lat="54.842630" lon="-8.203250">
                <time>2019-06-14T08:52:32Z</time>
            </trkpt>
            <trkpt lat="54.842600" lon="-8.203500">
                <time>2019-06-14T08:52:33Z</time>
            </trkpt>
            <trkpt lat="54.842570" lon="-8.203760">
                <time>2019-06-14T08:52:34Z</time>
            </trkpt>
            <trkpt lat="54.842550" lon="-8.204020">
                <time>2019-06-14T08:52:35Z</time>
            </trkpt>
            <trkpt lat="54.842530" lon="-8.204270">
                <time>2019-06-14T08:52:36Z</time>
            </trkpt>
            <trkpt lat="54.842510" lon="-8.204530">
                <time>2019-06-14T08:52:37Z</time>
            </trkpt>
            <trkpt lat="54.842490" lon="-8.204780">
                <time>2019-06-14T08:52:38Z</time>
            </trkpt>
            <trkpt lat="54.842480" lon="-8.205030">
                <time>2019-06-14T08:52:39Z</time>
            </trkpt>
            <trkpt lat="54.842460" lon="-8.205270">
                <time>2019-06-14T08:52:40Z</time>
            </trkpt>
            <trkpt lat="54.842440" lon="-8.205510">
                <time>2019-06-14T08:52:41Z</time>
            </trkpt>
            <trkpt lat="54.842420" lon="-8.205770">
                <time>2019-06-14T08:52:42Z</time>
            </trkpt>
            <trkpt lat="54.842400" lon="-8.206030">
                <time>2019-06-14T08:52:43Z</time>
            </trkpt>
            <trkpt lat="54.842380" lon="-8.206300">
                <time>2019-06-14T08:52:44Z</time>
            </trkpt>
            <trkpt lat="54.842360" lon="-8.206570">
                <time>2019-06-14T08:52:45Z</time>
            </trkpt>
            <trkpt lat="54.842340" lon="-8.206850">
                <time>2019-06-14T08:52:46Z</time>
            </trkpt>
            <trkpt lat="54.842320" lon="-8.207110">
                <time>2019-06-14T08:52:47Z</time>
            </trkpt>
            <trkpt lat="54.842300" lon="-8.207370">
                <time>2019-06-14T08:52:48Z</time>
            </trkpt>
            <trkpt lat="54.842290" lon="-8.207630">
                <time>2019-06-14T08:52:49Z</time>
            </trkpt>
            <trkpt lat="54.842270" lon="-8.207880">
                <time>2019-06-14T08:52:50Z</time>
            </trkpt>
            <trkpt lat="54.842250" lon="-8.208140">
                <time>2019-06-14T08:52:51Z</time>
            </trkpt>
            <trkpt lat="54.842240" lon="-8.208410">
                <time>2019-06-14T08:52:52Z</time>
            </trkpt>
            <trkpt lat="54.842230" lon="-8.208670">
                <time>2019-06-14T08:52:53Z</time>
            </trkpt>
            <trkpt lat="54.842210" lon="-8.208960">
                <time>2019-06-14T08:52:54Z</time>
            </trkpt>
            <trkpt lat="54.842190" lon="-8.209250">
                <time>2019-06-14T08:52:55Z</time>
            </trkpt>
            <trkpt lat="54.842140" lon="-8.209540">
                <time>2019-06-14T08:52:56Z</time>
            </trkpt>
            <trkpt lat="54.842090" lon="-8.209820">
                <time>2019-06-14T08:52:57Z</time>
            </trkpt>
            <trkpt lat="54.842030" lon="-8.210080">
                <time>2019-06-14T08:52:58Z</time>
            </trkpt>
            <trkpt lat="54.841970" lon="-8.210310">
                <time>2019-06-14T08:52:59Z</time>
            </trkpt>
            <trkpt lat="54.841910" lon="-8.210540">
                <time>2019-06-14T08:53:00Z</time>
            </trkpt>
            <trkpt lat="54.841840" lon="-8.210750">
                <time>2019-06-14T08:53:01Z</time>
            </trkpt>
            <trkpt lat="54.841770" lon="-8.210950">
                <time>2019-06-14T08:53:02Z</time>
            </trkpt>
            <trkpt lat="54.841700" lon="-8.211150">
                <time>2019-06-14T08:53:03Z</time>
            </trkpt>
            <trkpt lat="54.841620" lon="-8.211350">
                <time>2019-06-14T08:53:04Z</time>
            </trkpt>
            <trkpt lat="54.841560" lon="-8.211530">
                <time>2019-06-14T08:53:05Z</time>
            </trkpt>
            <trkpt lat="54.841490" lon="-8.211730">
                <time>2019-06-14T08:53:06Z</time>
            </trkpt>
            <trkpt lat="54.841420" lon="-8.211910">
                <time>2019-06-14T08:53:07Z</time>
            </trkpt>
            <trkpt lat="54.841350" lon="-8.212080">
                <time>2019-06-14T08:53:08Z</time>
            </trkpt>
            <trkpt lat="54.841290" lon="-8.212250">
                <time>2019-06-14T08:53:09Z</time>
            </trkpt>
            <trkpt lat="54.841230" lon="-8.212420">
                <time>2019-06-14T08:53:10Z</time>
            </trkpt>
            <trkpt lat="54.841160" lon="-8.212590">
                <time>2019-06-14T08:53:11Z</time>
            </trkpt>
            <trkpt lat="54.841100" lon="-8.212770">
                <time>2019-06-14T08:53:12Z</time>
            </trkpt>
            <trkpt lat="54.841040" lon="-8.212940">
                <time>2019-06-14T08:53:13Z</time>
            </trkpt>
            <trkpt lat="54.840970" lon="-8.213110">
                <time>2019-06-14T08:53:14Z</time>
            </trkpt>
            <trkpt lat="54.840910" lon="-8.213280">
                <time>2019-06-14T08:53:15Z</time>
            </trkpt>
            <trkpt lat="54.840850" lon="-8.213450">
                <time>2019-06-14T08:53:16Z</time>
            </trkpt>
            <trkpt lat="54.840790" lon="-8.213610">
                <time>2019-06-14T08:53:17Z</time>
            </trkpt>
            <trkpt lat="54.840730" lon="-8.213780">
                <time>2019-06-14T08:53:18Z</time>
            </trkpt>
            <trkpt lat="54.840670" lon="-8.213970">
                <time>2019-06-14T08:53:19Z</time>
            </trkpt>
            <trkpt lat="54.840610" lon="-8.214160">
                <time>2019-06-14T08:53:20Z</time>
            </trkpt>
            <trkpt lat="54.840540" lon="-8.214360">
                <time>2019-06-14T08:53:21Z</time>
            </trkpt>
            <trkpt lat="54.840450" lon="-8.214580">
                <time>2019-06-14T08:53:22Z</time>
            </trkpt>
            <trkpt lat="54.840360" lon="-8.214800">
                <time>2019-06-14T08:53:23Z</time>
            </trkpt>
            <trkpt lat="54.840270" lon="-8.215000">
                <time>2019-06-14T08:53:24Z</time>
            </trkpt>
            <trkpt lat="54.840170" lon="-8.215200">
                <time>2019-06-14T08:53:25Z</time>
            </trkpt>
            <trkpt lat="54.840050" lon="-8.215390">
                <time>2019-06-14T08:53:26Z</time>
            </trkpt>
            <trkpt lat="54.839940" lon="-8.215560">
                <time>2019-06-14T08:53:27Z</time>
            </trkpt>
            <trkpt lat="54.839810" lon="-8.215750">
                <time>2019-06-14T08:53:28Z</time>
            </trkpt>
            <trkpt lat="54.839690" lon="-8.215940">
                <time>2019-06-14T08:53:29Z</time>
            </trkpt>
            <trkpt lat="54.839560" lon="-8.216130">
                <time>2019-06-14T08:53:30Z</time>
            </trkpt>
            <trkpt lat="54.839430" lon="-8.216320">
                <time>2019-06-14T08:53:31Z</time>
            </trkpt>
            <trkpt lat="54.839300" lon="-8.216520">
                <time>2019-06-14T08:53:32Z</time>
            </trkpt>
            <trkpt lat="54.839180" lon="-8.216710">
                <time>2019-06-14T08:53:33Z</time>
            </trkpt>
            <trkpt lat="54.839070" lon="-8.216880">
                <time>2019-06-14T08:53:34Z</time>
            </trkpt>
            <trkpt lat="54.838950" lon="-8.217050">
                <time>2019-06-14T08:53:35Z</time>
            </trkpt>
            <trkpt lat="54.838840" lon="-8.217220">
                <time>2019-06-14T08:53:36Z</time>
            </trkpt>
            <trkpt lat="54.838730" lon="-8.217410">
                <time>2019-06-14T08:53:37Z</time>
            </trkpt>
            <trkpt lat="54.838610" lon="-8.217610">
                <time>2019-06-14T08:53:38Z</time>
            </trkpt>
            <trkpt lat="54.838500" lon="-8.217830">
                <time>2019-06-14T08:53:39Z</time>
            </trkpt>
            <trkpt lat="54.838380" lon="-8.218050">
                <time>2019-06-14T08:53:40Z</time>
            </trkpt>
            <trkpt lat="54.838250" lon="-8.218290">
                <time>2019-06-14T08:53:41Z</time>
            </trkpt>
            <trkpt lat="54.838110" lon="-8.218570">
                <time>2019-06-14T08:53:42Z</time>
            </trkpt>
            <trkpt lat="54.837960" lon="-8.218900">
                <time>2019-06-14T08:53:43Z</time>
            </trkpt>
            <trkpt lat="54.837810" lon="-8.219240">
                <time>2019-06-14T08:53:44Z</time>
            </trkpt>
            <trkpt lat="54.837660" lon="-8.219590">
                <time>2019-06-14T08:53:45Z</time>
            </trkpt>
            <trkpt lat="54.837510" lon="-8.219930">
                <time>2019-06-14T08:53:46Z</time>
            </trkpt>
            <trkpt lat="54.837360" lon="-8.220260">
                <time>2019-06-14T08:53:47Z</time>
            </trkpt>
            <trkpt lat="54.837220" lon="-8.220570">
                <time>2019-06-14T08:53:48Z</time>
            </trkpt>
            <trkpt lat="54.837090" lon="-8.220860">
                <time>2019-06-14T08:53:49Z</time>
            </trkpt>
            <trkpt lat="54.836970" lon="-8.221120">
                <time>2019-06-14T08:53:50Z</time>
            </trkpt>
            <trkpt lat="54.836860" lon="-8.221370">
                <time>2019-06-14T08:53:51Z</time>
            </trkpt>
            <trkpt lat="54.836750" lon="-8.221610">
                <time>2019-06-14T08:53:52Z</time>
            </trkpt>
            <trkpt lat="54.836640" lon="-8.221820">
                <time>2019-06-14T08:53:53Z</time>
            </trkpt>
            <trkpt lat="54.836540" lon="-8.222030">
                <time>2019-06-14T08:53:54Z</time>
            </trkpt>
            <trkpt lat="54.836440" lon="-8.222240">
                <time>2019-06-14T08:53:55Z</time>
            </trkpt>
            <trkpt lat="54.836350" lon="-8.222440">
                <time>2019-06-14T08:53:56Z</time>
            </trkpt>
            <trkpt lat="54.836260" lon="-8.222640">
                <time>2019-06-14T08:53:57Z</time>
            </trkpt>
            <trkpt lat="54.836170" lon="-8.222840">
                <time>2019-06-14T08:53:58Z</time>
            </trkpt>
            <trkpt lat="54.836070" lon="-8.223050">
                <time>2019-06-14T08:53:59Z</time>
            </trkpt>
            <trkpt lat="54.835980" lon="-8.223260">
                <time>2019-06-14T08:54:00Z</time>
            </trkpt>
            <trkpt lat="54.835880" lon="-8.223470">
                <time>2019-06-14T08:54:01Z</time>
            </trkpt>
            <trkpt lat="54.835780" lon="-8.223680">
                <time>2019-06-14T08:54:02Z</time>
            </trkpt>
            <trkpt lat="54.835690" lon="-8.223890">
                <time>2019-06-14T08:54:03Z</time>
            </trkpt>
            <trkpt lat="54.835590" lon="-8.224120">
                <time>2019-06-14T08:54:04Z</time>
            </trkpt>
            <trkpt lat="54.835480" lon="-8.224360">
                <time>2019-06-14T08:54:05Z</time>
            </trkpt>
            <trkpt lat="54.835370" lon="-8.224620">
                <time>2019-06-14T08:54:06Z</time>
            </trkpt>
            <trkpt lat="54.835260" lon="-8.224880">
                <time>2019-06-14T08:54:07Z</time>
            </trkpt>
            <trkpt lat="54.835150" lon="-8.225120">
                <time>2019-06-14T08:54:08Z</time>
            </trkpt>
            <trkpt lat="54.835050" lon="-8.225350">
                <time>2019-06-14T08:54:09Z</time>
            </trkpt>
            <trkpt lat="54.834960" lon="-8.225570">
                <time>2019-06-14T08:54:10Z</time>
            </trkpt>
            <trkpt lat="54.834880" lon="-8.225800">
                <time>2019-06-14T08:54:11Z</time>
            </trkpt>
            <trkpt lat="54.834790" lon="-8.226050">
                <time>2019-06-14T08:54:12Z</time>
            </trkpt>
            <trkpt lat="54.834700" lon="-8.226350">
                <time>2019-06-14T08:54:13Z</time>
            </trkpt>
            <trkpt lat="54.834610" lon="-8.226680">
                <time>2019-06-14T08:54:14Z</time>
            </trkpt>
            <trkpt lat="54.834520" lon="-8.227020">
                <time>2019-06-14T08:54:15Z</time>
            </trkpt>
            <trkpt lat="54.834440" lon="-8.227350">
                <time>2019-06-14T08:54:16Z</time>
            </trkpt>
            <trkpt lat="54.834380" lon="-8.227660">
                <time>2019-06-14T08:54:17Z</time>
            </trkpt>
            <trkpt lat="54.834320" lon="-8.227950">
                <time>2019-06-14T08:54:18Z</time>
            </trkpt>
            <trkpt lat="54.834260" lon="-8.228230">
                <time>2019-06-14T08:54:19Z</time>
            </trkpt>
            <trkpt lat="54.834210" lon="-8.228500">
                <time>2019-06-14T08:54:20Z</time>
            </trkpt>
            <trkpt lat="54.834150" lon="-8.228770">
                <time>2019-06-14T08:54:21Z</time>
            </trkpt>
            <trkpt lat="54.834090" lon="-8.229060">
                <time>2019-06-14T08:54:22Z</time>
            </trkpt>
            <trkpt lat="54.834020" lon="-8.229330">
                <time>2019-06-14T08:54:23Z</time>
            </trkpt>
            <trkpt lat="54.833960" lon="-8.229600">
                <time>2019-06-14T08:54:24Z</time>
            </trkpt>
            <trkpt lat="54.833910" lon="-8.229870">
                <time>2019-06-14T08:54:25Z</time>
            </trkpt>
            <trkpt lat="54.833880" lon="-8.230150">
                <time>2019-06-14T08:54:26Z</time>
            </trkpt>
            <trkpt lat="54.833860" lon="-8.230460">
                <time>2019-06-14T08:54:27Z</time>
            </trkpt>
            <trkpt lat="54.833860" lon="-8.230820">
                <time>2019-06-14T08:54:28Z</time>
            </trkpt>
            <trkpt lat="54.833860" lon="-8.231230">
                <time>2019-06-14T08:54:29Z</time>
            </trkpt>
            <trkpt lat="54.833850" lon="-8.231700">
                <time>2019-06-14T08:54:30Z</time>
            </trkpt>
            <trkpt lat="54.833830" lon="-8.232190">
                <time>2019-06-14T08:54:31Z</time>
            </trkpt>
            <trkpt lat="54.833810" lon="-8.232700">
                <time>2019-06-14T08:54:32Z</time>
            </trkpt>
            <trkpt lat="54.833790" lon="-8.233200">
                <time>2019-06-14T08:54:33Z</time>
            </trkpt>
            <trkpt lat="54.833790" lon="-8.233670">
                <time>2019-06-14T08:54:34Z</time>
            </trkpt>
            <trkpt lat="54.833790" lon="-8.234120">
                <time>2019-06-14T08:54:35Z</time>
            </trkpt>
            <trkpt lat="54.833800" lon="-8.234560">
                <time>2019-06-14T08:54:36Z</time>
            </trkpt>
            <trkpt lat="54.833810" lon="-8.235000">
                <time>2019-06-14T08:54:37Z</time>
            </trkpt>
            <trkpt lat="54.833810" lon="-8.235410">
                <time>2019-06-14T08:54:38Z</time>
            </trkpt>
            <trkpt lat="54.833820" lon="-8.235820">
                <time>2019-06-14T08:54:39Z</time>
            </trkpt>
            <trkpt lat="54.833840" lon="-8.236220">
                <time>2019-06-14T08:54:40Z</time>
            </trkpt>
            <trkpt lat="54.833850" lon="-8.236630">
                <time>2019-06-14T08:54:41Z</time>
            </trkpt>
            <trkpt lat="54.833860" lon="-8.237010">
                <time>2019-06-14T08:54:42Z</time>
            </trkpt>
            <trkpt lat="54.833870" lon="-8.237380">
                <time>2019-06-14T08:54:43Z</time>
            </trkpt>
            <trkpt lat="54.833870" lon="-8.237720">
                <time>2019-06-14T08:54:44Z</time>
            </trkpt>
            <trkpt lat="54.833850" lon="-8.238070">
                <time>2019-06-14T08:54:45Z</time>
            </trkpt>
            <trkpt lat="54.833800" lon="-8.238410">
                <time>2019-06-14T08:54:46Z</time>
            </trkpt>
            <trkpt lat="54.833730" lon="-8.238720">
                <time>2019-06-14T08:54:47Z</time>
            </trkpt>
            <trkpt lat="54.833640" lon="-8.239010">
                <time>2019-06-14T08:54:48Z</time>
            </trkpt>
            <trkpt lat="54.833510" lon="-8.239250">
                <time>2019-06-14T08:54:49Z</time>
            </trkpt>
            <trkpt lat="54.833350" lon="-8.239420">
                <time>2019-06-14T08:54:50Z</time>
            </trkpt>
            <trkpt lat="54.833180" lon="-8.239560">
                <time>2019-06-14T08:54:51Z</time>
            </trkpt>
            <trkpt lat="54.833000" lon="-8.239670">
                <time>2019-06-14T08:54:52Z</time>
            </trkpt>
            <trkpt lat="54.832810" lon="-8.239790">
                <time>2019-06-14T08:54:53Z</time>
            </trkpt>
            <trkpt lat="54.832610" lon="-8.239930">
                <time>2019-06-14T08:54:54Z</time>
            </trkpt>
            <trkpt lat="54.832390" lon="-8.240080">
                <time>2019-06-14T08:54:55Z</time>
            </trkpt>
            <trkpt lat="54.832160" lon="-8.240240">
                <time>2019-06-14T08:54:56Z</time>
            </trkpt>
            <trkpt lat="54.831920" lon="-8.240410">
                <time>2019-06-14T08:54:57Z</time>
            </trkpt>
            <trkpt lat="54.831680" lon="-8.240590">
                <time>2019-06-14T08:54:58Z</time>
            </trkpt>
            <trkpt lat="54.831450" lon="-8.240750">
                <time>2019-06-14T08:54:59Z</time>
            </trkpt>
            <trkpt lat="54.831230" lon="-8.240890">
                <time>2019-06-14T08:55:00Z</time>
            </trkpt>
            <trkpt lat="54.831020" lon="-8.240960">
                <time>2019-06-14T08:55:01Z</time>
            </trkpt>
            <trkpt lat="54.830830" lon="-8.240960">
                <time>2019-06-14T08:55:02Z</time>
            </trkpt>
            <trkpt lat="54.830640" lon="-8.240930">
                <time>2019-06-14T08:55:03Z</time>
            </trkpt>
            <trkpt lat="54.830470" lon="-8.240900">
                <time>2019-06-14T08:55:04Z</time>
            </trkpt>
            <trkpt lat="54.830280" lon="-8.240910">
                <time>2019-06-14T08:55:05Z</time>
            </trkpt>
            <trkpt lat="54.830090" lon="-8.240950">
                <time>2019-06-14T08:55:06Z</time>
            </trkpt>
            <trkpt lat="54.829870" lon="-8.241010">
                <time>2019-06-14T08:55:07Z</time>
            </trkpt>
            <trkpt lat="54.829650" lon="-8.241040">
                <time>2019-06-14T08:55:08Z</time>
            </trkpt>
            <trkpt lat="54.829430" lon="-8.241000">
                <time>2019-06-14T08:55:09Z</time>
            </trkpt>
            <trkpt lat="54.829210" lon="-8.240890">
                <time>2019-06-14T08:55:10Z</time>
            </trkpt>
            <trkpt lat="54.829010" lon="-8.240690">
                <time>2019-06-14T08:55:11Z</time>
            </trkpt>
            <trkpt lat="54.828800" lon="-8.240440">
                <time>2019-06-14T08:55:12Z</time>
            </trkpt>
            <trkpt lat="54.828580" lon="-8.240170">
                <time>2019-06-14T08:55:13Z</time>
            </trkpt>
            <trkpt lat="54.828340" lon="-8.239900">
                <time>2019-06-14T08:55:14Z</time>
            </trkpt>
            <trkpt lat="54.828110" lon="-8.239620">
                <time>2019-06-14T08:55:15Z</time>
            </trkpt>
            <trkpt lat="54.827880" lon="-8.239370">
                <time>2019-06-14T08:55:16Z</time>
            </trkpt>
            <trkpt lat="54.827680" lon="-8.239130">
                <time>2019-06-14T08:55:17Z</time>
            </trkpt>
            <trkpt lat="54.827510" lon="-8.238950">
                <time>2019-06-14T08:55:18Z</time>
            </trkpt>
            <trkpt lat="54.827360" lon="-8.238820">
                <time>2019-06-14T08:55:19Z</time>
            </trkpt>
            <trkpt lat="54.827220" lon="-8.238770">
                <time>2019-06-14T08:55:20Z</time>
            </trkpt>
            <trkpt lat="54.827100" lon="-8.238780">
                <time>2019-06-14T08:55:21Z</time>
            </trkpt>
            <trkpt lat="54.827000" lon="-8.238850">
                <time>2019-06-14T08:55:22Z</time>
            </trkpt>
            <trkpt lat="54.826900" lon="-8.238970">
                <time>2019-06-14T08:55:23Z</time>
            </trkpt>
            <trkpt lat="54.826830" lon="-8.239150">
                <time>2019-06-14T08:55:24Z</time>
            </trkpt>
            <trkpt lat="54.826760" lon="-8.239370">
                <time>2019-06-14T08:55:25Z</time>
            </trkpt>
            <trkpt lat="54.826690" lon="-8.239630">
                <time>2019-06-14T08:55:26Z</time>
            </trkpt>
            <trkpt lat="54.826600" lon="-8.239930">
                <time>2019-06-14T08:55:27Z</time>
            </trkpt>
            <trkpt lat="54.826500" lon="-8.240250">
                <time>2019-06-14T08:55:28Z</time>
            </trkpt>
            <trkpt lat="54.826400" lon="-8.240570">
                <time>2019-06-14T08:55:29Z</time>
            </trkpt>
            <trkpt lat="54.826290" lon="-8.240900">
                <time>2019-06-14T08:55:30Z</time>
            </trkpt>
            <trkpt lat="54.826190" lon="-8.241220">
                <time>2019-06-14T08:55:31Z</time>
            </trkpt>
            <trkpt lat="54.826080" lon="-8.241530">
                <time>2019-06-14T08:55:32Z</time>
            </trkpt>
            <trkpt lat="54.825980" lon="-8.241840">
                <time>2019-06-14T08:55:33Z</time>
            </trkpt>
            <trkpt lat="54.825890" lon="-8.242160">
                <time>2019-06-14T08:55:34Z</time>
            </trkpt>
            <trkpt lat="54.825810" lon="-8.242480">
                <time>2019-06-14T08:55:35Z</time>
            </trkpt>
            <trkpt lat="54.825730" lon="-8.242800">
                <time>2019-06-14T08:55:36Z</time>
            </trkpt>
            <trkpt lat="54.825650" lon="-8.243130">
                <time>2019-06-14T08:55:37Z</time>
            </trkpt>
            <trkpt lat="54.825590" lon="-8.243480">
                <time>2019-06-14T08:55:38Z</time>
            </trkpt>
            <trkpt lat="54.825530" lon="-8.243840">
                <time>2019-06-14T08:55:39Z</time>
            </trkpt>
            <trkpt lat="54.825470" lon="-8.244210">
                <time>2019-06-14T08:55:40Z</time>
            </trkpt>
            <trkpt lat="54.825400" lon="-8.244610">
                <time>2019-06-14T08:55:41Z</time>
            </trkpt>
            <trkpt lat="54.825330" lon="-8.245020">
                <time>2019-06-14T08:55:42Z</time>
            </trkpt>
            <trkpt lat="54.825270" lon="-8.245430">
                <time>2019-06-14T08:55:43Z</time>
            </trkpt>
            <trkpt lat="54.825220" lon="-8.245810">
                <time>2019-06-14T08:55:44Z</time>
            </trkpt>
            <trkpt lat="54.825170" lon="-8.246180">
                <time>2019-06-14T08:55:45Z</time>
            </trkpt>
            <trkpt lat="54.825110" lon="-8.246540">
                <time>2019-06-14T08:55:46Z</time>
            </trkpt>
            <trkpt lat="54.825060" lon="-8.246880">
                <time>2019-06-14T08:55:47Z</time>
            </trkpt>
            <trkpt lat="54.825000" lon="-8.247210">
                <time>2019-06-14T08:55:48Z</time>
            </trkpt>
            <trkpt lat="54.824930" lon="-8.247510">
                <time>2019-06-14T08:55:49Z</time>
            </trkpt>
            <trkpt lat="54.824850" lon="-8.247770">
                <time>2019-06-14T08:55:50Z</time>
            </trkpt>
            <trkpt lat="54.824740" lon="-8.247960">
                <time>2019-06-14T08:55:51Z</time>
            </trkpt>
            <trkpt lat="54.824620" lon="-8.248090">
                <time>2019-06-14T08:55:52Z</time>
            </trkpt>
            <trkpt lat="54.824480" lon="-8.248190">
                <time>2019-06-14T08:55:53Z</time>
            </trkpt>
            <trkpt lat="54.824330" lon="-8.248310">
                <time>2019-06-14T08:55:54Z</time>
            </trkpt>
            <trkpt lat="54.824180" lon="-8.248440">
                <time>2019-06-14T08:55:55Z</time>
            </trkpt>
            <trkpt lat="54.824020" lon="-8.248590">
                <time>2019-06-14T08:55:56Z</time>
            </trkpt>
            <trkpt lat="54.823840" lon="-8.248750">
                <time>2019-06-14T08:55:57Z</time>
            </trkpt>
            <trkpt lat="54.823640" lon="-8.248940">
                <time>2019-06-14T08:55:58Z</time>
            </trkpt>
            <trkpt lat="54.823440" lon="-8.249130">
                <time>2019-06-14T08:55:59Z</time>
            </trkpt>
            <trkpt lat="54.823230" lon="-8.249330">
                <time>2019-06-14T08:56:00Z</time>
            </trkpt>
            <trkpt lat="54.823030" lon="-8.249530">
                <time>2019-06-14T08:56:01Z</time>
            </trkpt>
            <trkpt lat="54.822830" lon="-8.249720">
                <time>2019-06-14T08:56:02Z</time>
            </trkpt>
            <trkpt lat="54.822640" lon="-8.249890">
                <time>2019-06-14T08:56:03Z</time>
            </trkpt>
            <trkpt lat="54.822460" lon="-8.250060">
                <time>2019-06-14T08:56:04Z</time>
            </trkpt>
            <trkpt lat="54.822280" lon="-8.250210">
                <time>2019-06-14T08:56:05Z</time>
            </trkpt>
            <trkpt lat="54.822110" lon="-8.250370">
                <time>2019-06-14T08:56:06Z</time>
            </trkpt>
            <trkpt lat="54.821930" lon="-8.250530">
                <time>2019-06-14T08:56:07Z</time>
            </trkpt>
            <trkpt lat="54.821750" lon="-8.250700">
                <time>2019-06-14T08:56:08Z</time>
            </trkpt>
            <trkpt lat="54.821570" lon="-8.250870">
                <time>2019-06-14T08:56:09Z</time>
            </trkpt>
            <trkpt lat="54.821380" lon="-8.251040">
                <time>2019-06-14T08:56:10Z</time>
            </trkpt>
            <trkpt lat="54.821200" lon="-8.251200">
                <time>2019-06-14T08:56:11Z</time>
            </trkpt>
            <trkpt lat="54.821020" lon="-8.251370">
                <time>2019-06-14T08:56:12Z</time>
            </trkpt>
            <trkpt lat="54.820840" lon="-8.251540">
                <time>2019-06-14T08:56:13Z</time>
            </trkpt>
            <trkpt lat="54.820670" lon="-8.251710">
                <time>2019-06-14T08:56:14Z</time>
            </trkpt>
            <trkpt lat="54.820490" lon="-8.251890">
                <time>2019-06-14T08:56:15Z</time>
            </trkpt>
            <trkpt lat="54.820310" lon="-8.252060">
                <time>2019-06-14T08:56:16Z</time>
            </trkpt>
            <trkpt lat="54.820140" lon="-8.252220">
                <time>2019-06-14T08:56:17Z</time>
            </trkpt>
            <trkpt lat="54.819960" lon="-8.252380">
                <time>2019-06-14T08:56:18Z</time>
            </trkpt>
            <trkpt lat="54.819790" lon="-8.252530">
                <time>2019-06-14T08:56:19Z</time>
            </trkpt>
            <trkpt lat="54.819620" lon="-8.252700">
                <time>2019-06-14T08:56:20Z</time>
            </trkpt>
            <trkpt lat="54.819440" lon="-8.252860">
                <time>2019-06-14T08:56:21Z</time>
            </trkpt>
            <trkpt lat="54.819250" lon="-8.253040">
                <time>2019-06-14T08:56:22Z</time>
            </trkpt>
            <trkpt lat="54.819050" lon="-8.253230">
                <time>2019-06-14T08:56:23Z</time>
            </trkpt>
            <trkpt lat="54.818850" lon="-8.253420">
                <time>2019-06-14T08:56:24Z</time>
            </trkpt>
            <trkpt lat="54.818660" lon="-8.253600">
                <time>2019-06-14T08:56:25Z</time>
            </trkpt>
            <trkpt lat="54.818460" lon="-8.253740">
                <time>2019-06-14T08:56:26Z</time>
            </trkpt>
            <trkpt lat="54.818270" lon="-8.253860">
                <time>2019-06-14T08:56:27Z</time>
            </trkpt>
            <trkpt lat="54.818080" lon="-8.253950">
                <time>2019-06-14T08:56:28Z</time>
            </trkpt>
            <trkpt lat="54.817900" lon="-8.254040">
                <time>2019-06-14T08:56:29Z</time>
            </trkpt>
            <trkpt lat="54.817720" lon="-8.254130">
                <time>2019-06-14T08:56:30Z</time>
            </trkpt>
            <trkpt lat="54.817560" lon="-8.254210">
                <time>2019-06-14T08:56:31Z</time>
            </trkpt>
            <trkpt lat="54.817400" lon="-8.254290">
                <time>2019-06-14T08:56:32Z</time>
            </trkpt>
            <trkpt lat="54.817250" lon="-8.254370">
                <time>2019-06-14T08:56:33Z</time>
            </trkpt>
            <trkpt lat="54.817110" lon="-8.254440">
                <time>2019-06-14T08:56:34Z</time>
            </trkpt>
            <trkpt lat="54.816970" lon="-8.254520">
                <time>2019-06-14T08:56:35Z</time>
            </trkpt>
            <trkpt lat="54.816820" lon="-8.254600">
                <time>2019-06-14T08:56:36Z</time>
            </trkpt>
            <trkpt lat="54.816670" lon="-8.254670">
                <time>2019-06-14T08:56:37Z</time>
            </trkpt>
            <trkpt lat="54.816520" lon="-8.254750">
                <time>2019-06-14T08:56:38Z</time>
            </trkpt>
            <trkpt lat="54.816380" lon="-8.254830">
                <time>2019-06-14T08:56:39Z</time>
            </trkpt>
            <trkpt lat="54.816230" lon="-8.254900">
                <time>2019-06-14T08:56:40Z</time>
            </trkpt>
            <trkpt lat="54.816100" lon="-8.254970">
                <time>2019-06-14T08:56:41Z</time>
            </trkpt>
            <trkpt lat="54.815960" lon="-8.255050">
                <time>2019-06-14T08:56:42Z</time>
            </trkpt>
            <trkpt lat="54.815830" lon="-8.255140">
                <time>2019-06-14T08:56:43Z</time>
            </trkpt>
            <trkpt lat="54.815710" lon="-8.255250">
                <time>2019-06-14T08:56:44Z</time>
            </trkpt>
            <trkpt lat="54.815610" lon="-8.255370">
                <time>2019-06-14T08:56:45Z</time>
            </trkpt>
            <trkpt lat="54.815530" lon="-8.255540">
                <time>2019-06-14T08:56:46Z</time>
            </trkpt>
            <trkpt lat="54.815450" lon="-8.255750">
                <time>2019-06-14T08:56:47Z</time>
            </trkpt>
            <trkpt lat="54.815370" lon="-8.255980">
                <time>2019-06-14T08:56:48Z</time>
            </trkpt>
            <trkpt lat="54.815280" lon="-8.256230">
                <time>2019-06-14T08:56:49Z</time>
            </trkpt>
            <trkpt lat="54.815190" lon="-8.256490">
                <time>2019-06-14T08:56:50Z</time>
            </trkpt>
            <trkpt lat="54.815110" lon="-8.256750">
                <time>2019-06-14T08:56:51Z</time>
            </trkpt>
            <trkpt lat="54.815020" lon="-8.257010">
                <time>2019-06-14T08:56:52Z</time>
            </trkpt>
            <trkpt lat="54.814930" lon="-8.257280">
                <time>2019-06-14T08:56:53Z</time>
            </trkpt>
            <trkpt lat="54.814840" lon="-8.257540">
                <time>2019-06-14T08:56:54Z</time>
            </trkpt>
            <trkpt lat="54.814750" lon="-8.257810">
                <time>2019-06-14T08:56:55Z</time>
            </trkpt>
            <trkpt lat="54.814660" lon="-8.258080">
                <time>2019-06-14T08:56:56Z</time>
            </trkpt>
            <trkpt lat="54.814580" lon="-8.258330">
                <time>2019-06-14T08:56:57Z</time>
            </trkpt>
            <trkpt lat="54.814490" lon="-8.258590">
                <time>2019-06-14T08:56:58Z</time>
            </trkpt>
            <trkpt lat="54.814410" lon="-8.258830">
                <time>2019-06-14T08:56:59Z</time>
            </trkpt>
            <trkpt lat="54.814330" lon="-8.259090">
                <time>2019-06-14T08:57:00Z</time>
            </trkpt>
            <trkpt lat="54.814230" lon="-8.259350">
                <time>2019-06-14T08:57:01Z</time>
            </trkpt>
            <trkpt lat="54.814140" lon="-8.259640">
                <time>2019-06-14T08:57:02Z</time>
            </trkpt>
            <trkpt lat="54.814050" lon="-8.259930">
                <time>2019-06-14T08:57:03Z</time>
            </trkpt>
            <trkpt lat="54.813950" lon="-8.260230">
                <time>2019-06-14T08:57:04Z</time>
            </trkpt>
            <trkpt lat="54.813850" lon="-8.260520">
                <time>2019-06-14T08:57:05Z</time>
            </trkpt>
            <trkpt lat="54.813760" lon="-8.260800">
                <time>2019-06-14T08:57:06Z</time>
            </trkpt>
            <trkpt lat="54.813670" lon="-8.261080">
                <time>2019-06-14T08:57:07Z</time>
            </trkpt>
            <trkpt lat="54.813570" lon="-8.261350">
                <time>2019-06-14T08:57:08Z</time>
            </trkpt>
            <trkpt lat="54.813480" lon="-8.261640">
                <time>2019-06-14T08:57:09Z</time>
            </trkpt>
            <trkpt lat="54.813380" lon="-8.261930">
                <time>2019-06-14T08:57:10Z</time>
            </trkpt>
            <trkpt lat="54.813290" lon="-8.262220">
                <time>2019-06-14T08:57:11Z</time>
            </trkpt>
            <trkpt lat="54.813200" lon="-8.262510">
                <time>2019-06-14T08:57:12Z</time>
            </trkpt>
            <trkpt lat="54.813100" lon="-8.262790">
                <time>2019-06-14T08:57:13Z</time>
            </trkpt>
            <trkpt lat="54.813010" lon="-8.263070">
                <time>2019-06-14T08:57:14Z</time>
            </trkpt>
            <trkpt lat="54.812920" lon="-8.263360">
                <time>2019-06-14T08:57:15Z</time>
            </trkpt>
            <trkpt lat="54.812830" lon="-8.263650">
                <time>2019-06-14T08:57:16Z</time>
            </trkpt>
            <trkpt lat="54.812730" lon="-8.263940">
                <time>2019-06-14T08:57:17Z</time>
            </trkpt>
            <trkpt lat="54.812640" lon="-8.264240">
                <time>2019-06-14T08:57:18Z</time>
            </trkpt>
            <trkpt lat="54.812540" lon="-8.264550">
                <time>2019-06-14T08:57:19Z</time>
            </trkpt>
            <trkpt lat="54.812440" lon="-8.264860">
                <time>2019-06-14T08:57:20Z</time>
            </trkpt>
            <trkpt lat="54.812340" lon="-8.265150">
                <time>2019-06-14T08:57:21Z</time>
            </trkpt>
            <trkpt lat="54.812250" lon="-8.265420">
                <time>2019-06-14T08:57:22Z</time>
            </trkpt>
            <trkpt lat="54.812160" lon="-8.265690">
                <time>2019-06-14T08:57:23Z</time>
            </trkpt>
            <trkpt lat="54.812080" lon="-8.265940">
                <time>2019-06-14T08:57:24Z</time>
            </trkpt>
            <trkpt lat="54.812000" lon="-8.266190">
                <time>2019-06-14T08:57:25Z</time>
            </trkpt>
            <trkpt lat="54.811910" lon="-8.266440">
                <time>2019-06-14T08:57:26Z</time>
            </trkpt>
            <trkpt lat="54.811820" lon="-8.266680">
                <time>2019-06-14T08:57:27Z</time>
            </trkpt>
            <trkpt lat="54.811740" lon="-8.266930">
                <time>2019-06-14T08:57:28Z</time>
            </trkpt>
            <trkpt lat="54.811650" lon="-8.267190">
                <time>2019-06-14T08:57:29Z</time>
            </trkpt>
            <trkpt lat="54.811560" lon="-8.267460">
                <time>2019-06-14T08:57:30Z</time>
            </trkpt>
            <trkpt lat="54.811450" lon="-8.267730">
                <time>2019-06-14T08:57:31Z</time>
            </trkpt>
            <trkpt lat="54.811340" lon="-8.268000">
                <time>2019-06-14T08:57:32Z</time>
            </trkpt>
            <trkpt lat="54.811220" lon="-8.268260">
                <time>2019-06-14T08:57:33Z</time>
            </trkpt>
            <trkpt lat="54.811110" lon="-8.268520">
                <time>2019-06-14T08:57:34Z</time>
            </trkpt>
            <trkpt lat="54.811000" lon="-8.268770">
                <time>2019-06-14T08:57:35Z</time>
            </trkpt>
            <trkpt lat="54.810890" lon="-8.269030">
                <time>2019-06-14T08:57:36Z</time>
            </trkpt>
            <trkpt lat="54.810780" lon="-8.269280">
                <time>2019-06-14T08:57:37Z</time>
            </trkpt>
            <trkpt lat="54.810670" lon="-8.269520">
                <time>2019-06-14T08:57:38Z</time>
            </trkpt>
            <trkpt lat="54.810560" lon="-8.269770">
                <time>2019-06-14T08:57:39Z</time>
            </trkpt>
            <trkpt lat="54.810450" lon="-8.270020">
                <time>2019-06-14T08:57:40Z</time>
            </trkpt>
            <trkpt lat="54.810350" lon="-8.270280">
                <time>2019-06-14T08:57:41Z</time>
            </trkpt>
            <trkpt lat="54.810260" lon="-8.270520">
                <time>2019-06-14T08:57:42Z</time>
            </trkpt>
            <trkpt lat="54.810160" lon="-8.270750">
                <time>2019-06-14T08:57:43Z</time>
            </trkpt>
            <trkpt lat="54.810070" lon="-8.270980">
                <time>2019-06-14T08:57:44Z</time>
            </trkpt>
            <trkpt lat="54.809970" lon="-8.271210">
                <time>2019-06-14T08:57:45Z</time>
            </trkpt>
            <trkpt lat="54.809870" lon="-8.271440">
                <time>2019-06-14T08:57:46Z</time>
            </trkpt>
            <trkpt lat="54.809770" lon="-8.271660">
                <time>2019-06-14T08:57:47Z</time>
            </trkpt>
            <trkpt lat="54.809660" lon="-8.271890">
                <time>2019-06-14T08:57:48Z</time>
            </trkpt>
            <trkpt lat="54.809550" lon="-8.272110">
                <time>2019-06-14T08:57:49Z</time>
            </trkpt>
            <trkpt lat="54.809420" lon="-8.272310">
                <time>2019-06-14T08:57:50Z</time>
            </trkpt>
            <trkpt lat="54.809300" lon="-8.272520">
                <time>2019-06-14T08:57:51Z</time>
            </trkpt>
            <trkpt lat="54.809190" lon="-8.272710">
                <time>2019-06-14T08:57:52Z</time>
            </trkpt>
            <trkpt lat="54.809080" lon="-8.272900">
                <time>2019-06-14T08:57:53Z</time>
            </trkpt>
            <trkpt lat="54.808980" lon="-8.273080">
                <time>2019-06-14T08:57:54Z</time>
            </trkpt>
            <trkpt lat="54.808880" lon="-8.273250">
                <time>2019-06-14T08:57:55Z</time>
            </trkpt>
            <trkpt lat="54.808780" lon="-8.273410">
                <time>2019-06-14T08:57:56Z</time>
            </trkpt>
            <trkpt lat="54.808680" lon="-8.273580">
                <time>2019-06-14T08:57:57Z</time>
            </trkpt>
            <trkpt lat="54.808590" lon="-8.273740">
                <time>2019-06-14T08:57:58Z</time>
            </trkpt>
            <trkpt lat="54.808490" lon="-8.273900">
                <time>2019-06-14T08:57:59Z</time>
            </trkpt>
            <trkpt lat="54.808400" lon="-8.274070">
                <time>2019-06-14T08:58:00Z</time>
            </trkpt>
            <trkpt lat="54.808300" lon="-8.274230">
                <time>2019-06-14T08:58:01Z</time>
            </trkpt>
            <trkpt lat="54.808200" lon="-8.274400">
                <time>2019-06-14T08:58:02Z</time>
            </trkpt>
            <trkpt lat="54.808100" lon="-8.274560">
                <time>2019-06-14T08:58:03Z</time>
            </trkpt>
            <trkpt lat="54.808000" lon="-8.274730">
                <time>2019-06-14T08:58:04Z</time>
            </trkpt>
            <trkpt lat="54.807900" lon="-8.274910">
                <time>2019-06-14T08:58:05Z</time>
            </trkpt>
            <trkpt lat="54.807800" lon="-8.275090">
                <time>2019-06-14T08:58:06Z</time>
            </trkpt>
            <trkpt lat="54.807680" lon="-8.275290">
                <time>2019-06-14T08:58:07Z</time>
            </trkpt>
            <trkpt lat="54.807560" lon="-8.275490">
                <time>2019-06-14T08:58:08Z</time>
            </trkpt>
            <trkpt lat="54.807440" lon="-8.275690">
                <time>2019-06-14T08:58:09Z</time>
            </trkpt>
            <trkpt lat="54.807330" lon="-8.275890">
                <time>2019-06-14T08:58:10Z</time>
            </trkpt>
            <trkpt lat="54.807220" lon="-8.276080">
                <time>2019-06-14T08:58:11Z</time>
            </trkpt>
            <trkpt lat="54.807110" lon="-8.276270">
                <time>2019-06-14T08:58:12Z</time>
            </trkpt>
            <trkpt lat="54.807000" lon="-8.276460">
                <time>2019-06-14T08:58:13Z</time>
            </trkpt>
            <trkpt lat="54.806890" lon="-8.276670">
                <time>2019-06-14T08:58:14Z</time>
            </trkpt>
            <trkpt lat="54.806770" lon="-8.276890">
                <time>2019-06-14T08:58:15Z</time>
            </trkpt>
            <trkpt lat="54.806640" lon="-8.277110">
                <time>2019-06-14T08:58:16Z</time>
            </trkpt>
            <trkpt lat="54.806520" lon="-8.277330">
                <time>2019-06-14T08:58:17Z</time>
            </trkpt>
            <trkpt lat="54.806400" lon="-8.277530">
                <time>2019-06-14T08:58:18Z</time>
            </trkpt>
            <trkpt lat="54.806290" lon="-8.277720">
                <time>2019-06-14T08:58:19Z</time>
            </trkpt>
            <trkpt lat="54.806170" lon="-8.277920">
                <time>2019-06-14T08:58:20Z</time>
            </trkpt>
            <trkpt lat="54.806050" lon="-8.278130">
                <time>2019-06-14T08:58:21Z</time>
            </trkpt>
            <trkpt lat="54.805910" lon="-8.278340">
                <time>2019-06-14T08:58:22Z</time>
            </trkpt>
            <trkpt lat="54.805760" lon="-8.278550">
                <time>2019-06-14T08:58:23Z</time>
            </trkpt>
            <trkpt lat="54.805610" lon="-8.278730">
                <time>2019-06-14T08:58:24Z</time>
            </trkpt>
            <trkpt lat="54.805470" lon="-8.278890">
                <time>2019-06-14T08:58:25Z</time>
            </trkpt>
            <trkpt lat="54.805330" lon="-8.279040">
                <time>2019-06-14T08:58:26Z</time>
            </trkpt>
            <trkpt lat="54.805190" lon="-8.279190">
                <time>2019-06-14T08:58:27Z</time>
            </trkpt>
            <trkpt lat="54.805060" lon="-8.279350">
                <time>2019-06-14T08:58:28Z</time>
            </trkpt>
            <trkpt lat="54.804910" lon="-8.279500">
                <time>2019-06-14T08:58:29Z</time>
            </trkpt>
            <trkpt lat="54.804770" lon="-8.279650">
                <time>2019-06-14T08:58:30Z</time>
            </trkpt>
            <trkpt lat="54.804640" lon="-8.279810">
                <time>2019-06-14T08:58:31Z</time>
            </trkpt>
            <trkpt lat="54.804500" lon="-8.279960">
                <time>2019-06-14T08:58:32Z</time>
            </trkpt>
            <trkpt lat="54.804370" lon="-8.280110">
                <time>2019-06-14T08:58:33Z</time>
            </trkpt>
            <trkpt lat="54.804250" lon="-8.280250">
                <time>2019-06-14T08:58:34Z</time>
            </trkpt>
            <trkpt lat="54.804120" lon="-8.280380">
                <time>2019-06-14T08:58:35Z</time>
            </trkpt>
            <trkpt lat="54.804000" lon="-8.280520">
                <time>2019-06-14T08:58:36Z</time>
            </trkpt>
            <trkpt lat="54.803870" lon="-8.280660">
                <time>2019-06-14T08:58:37Z</time>
            </trkpt>
            <trkpt lat="54.803740" lon="-8.280810">
                <time>2019-06-14T08:58:38Z</time>
            </trkpt>
            <trkpt lat="54.803610" lon="-8.280960">
                <time>2019-06-14T08:58:39Z</time>
            </trkpt>
            <trkpt lat="54.803460" lon="-8.281120">
                <time>2019-06-14T08:58:40Z</time>
            </trkpt>
            <trkpt lat="54.803320" lon="-8.281290">
                <time>2019-06-14T08:58:41Z</time>
            </trkpt>
            <trkpt lat="54.803170" lon="-8.281450">
                <time>2019-06-14T08:58:42Z</time>
            </trkpt>
            <trkpt lat="54.803030" lon="-8.281620">
                <time>2019-06-14T08:58:43Z</time>
            </trkpt>
            <trkpt lat="54.802890" lon="-8.281780">
                <time>2019-06-14T08:58:44Z</time>
            </trkpt>
            <trkpt lat="54.802750" lon="-8.281940">
                <time>2019-06-14T08:58:45Z</time>
            </trkpt>
            <trkpt lat="54.802620" lon="-8.282080">
                <time>2019-06-14T08:58:46Z</time>
            </trkpt>
            <trkpt lat="54.802490" lon="-8.282230">
                <time>2019-06-14T08:58:47Z</time>
            </trkpt>
            <trkpt lat="54.802370" lon="-8.282370">
                <time>2019-06-14T08:58:48Z</time>
            </trkpt>
            <trkpt lat="54.802240" lon="-8.282520">
                <time>2019-06-14T08:58:49Z</time>
            </trkpt>
            <trkpt lat="54.802100" lon="-8.282660">
                <time>2019-06-14T08:58:50Z</time>
            </trkpt>
            <trkpt lat="54.801970" lon="-8.282810">
                <time>2019-06-14T08:58:51Z</time>
            </trkpt>
            <trkpt lat="54.801840" lon="-8.282940">
                <time>2019-06-14T08:58:52Z</time>
            </trkpt>
            <trkpt lat="54.801730" lon="-8.283080">
                <time>2019-06-14T08:58:53Z</time>
            </trkpt>
            <trkpt lat="54.801620" lon="-8.283210">
                <time>2019-06-14T08:58:54Z</time>
            </trkpt>
            <trkpt lat="54.801510" lon="-8.283330">
                <time>2019-06-14T08:58:55Z</time>
            </trkpt>
            <trkpt lat="54.801390" lon="-8.283460">
                <time>2019-06-14T08:58:56Z</time>
            </trkpt>
            <trkpt lat="54.801270" lon="-8.283590">
                <time>2019-06-14T08:58:57Z</time>
            </trkpt>
            <trkpt lat="54.801150" lon="-8.283720">
                <time>2019-06-14T08:58:58Z</time>
            </trkpt>
            <trkpt lat="54.801040" lon="-8.283870">
                <time>2019-06-14T08:58:59Z</time>
            </trkpt>
            <trkpt lat="54.800910" lon="-8.284000">
                <time>2019-06-14T08:59:00Z</time>
            </trkpt>
            <trkpt lat="54.800800" lon="-8.284130">
                <time>2019-06-14T08:59:01Z</time>
            </trkpt>
            <trkpt lat="54.800690" lon="-8.284260">
                <time>2019-06-14T08:59:02Z</time>
            </trkpt>
            <trkpt lat="54.800580" lon="-8.284390">
                <time>2019-06-14T08:59:03Z</time>
            </trkpt>
            <trkpt lat="54.800460" lon="-8.284510">
                <time>2019-06-14T08:59:04Z</time>
            </trkpt>
            <trkpt lat="54.800350" lon="-8.284630">
                <time>2019-06-14T08:59:05Z</time>
            </trkpt>
            <trkpt lat="54.800230" lon="-8.284750">
                <time>2019-06-14T08:59:06Z</time>
            </trkpt>
            <trkpt lat="54.800090" lon="-8.284840">
                <time>2019-06-14T08:59:07Z</time>
            </trkpt>
            <trkpt lat="54.799950" lon="-8.284900">
                <time>2019-06-14T08:59:08Z</time>
            </trkpt>
            <trkpt lat="54.799800" lon="-8.284940">
                <time>2019-06-14T08:59:09Z</time>
            </trkpt>
            <trkpt lat="54.799650" lon="-8.284980">
                <time>2019-06-14T08:59:10Z</time>
            </trkpt>
            <trkpt lat="54.799510" lon="-8.285020">
                <time>2019-06-14T08:59:11Z</time>
            </trkpt>
            <trkpt lat="54.799390" lon="-8.285040">
                <time>2019-06-14T08:59:12Z</time>
            </trkpt>
            <trkpt lat="54.799280" lon="-8.285070">
                <time>2019-06-14T08:59:13Z</time>
            </trkpt>
            <trkpt lat="54.799180" lon="-8.285090">
                <time>2019-06-14T08:59:14Z</time>
            </trkpt>
            <trkpt lat="54.799130" lon="-8.285100">
                <time>2019-06-14T08:59:15Z</time>
            </trkpt>
            <trkpt lat="54.799090" lon="-8.285110">
                <time>2019-06-14T08:59:16Z</time>
            </trkpt>
            <trkpt lat="54.799050" lon="-8.285110">
                <time>2019-06-14T08:59:17Z</time>
            </trkpt>
            <trkpt lat="54.799000" lon="-8.285120">
                <time>2019-06-14T08:59:18Z</time>
            </trkpt>
            <trkpt lat="54.798960" lon="-8.285130">
                <time>2019-06-14T08:59:19Z</time>
            </trkpt>
            <trkpt lat="54.798910" lon="-8.285140">
                <time>2019-06-14T08:59:20Z</time>
            </trkpt>
            <trkpt lat="54.798860" lon="-8.285180">
                <time>2019-06-14T08:59:21Z</time>
            </trkpt>
            <trkpt lat="54.798820" lon="-8.285220">
                <time>2019-06-14T08:59:22Z</time>
            </trkpt>
            <trkpt lat="54.798800" lon="-8.285290">
                <time>2019-06-14T08:59:23Z</time>
            </trkpt>
            <trkpt lat="54.798790" lon="-8.285370">
                <time>2019-06-14T08:59:24Z</time>
            </trkpt>
            <trkpt lat="54.798790" lon="-8.285480">
                <time>2019-06-14T08:59:25Z</time>
            </trkpt>
            <trkpt lat="54.798800" lon="-8.285620">
                <time>2019-06-14T08:59:26Z</time>
            </trkpt>
            <trkpt lat="54.798810" lon="-8.285800">
                <time>2019-06-14T08:59:27Z</time>
            </trkpt>
            <trkpt lat="54.798820" lon="-8.285980">
                <time>2019-06-14T08:59:28Z</time>
            </trkpt>
            <trkpt lat="54.798820" lon="-8.286170">
                <time>2019-06-14T08:59:29Z</time>
            </trkpt>
            <trkpt lat="54.798830" lon="-8.286360">
                <time>2019-06-14T08:59:30Z</time>
            </trkpt>
            <trkpt lat="54.798840" lon="-8.286560">
                <time>2019-06-14T08:59:31Z</time>
            </trkpt>
            <trkpt lat="54.798850" lon="-8.286750">
                <time>2019-06-14T08:59:32Z</time>
            </trkpt>
            <trkpt lat="54.798860" lon="-8.286930">
                <time>2019-06-14T08:59:33Z</time>
            </trkpt>
            <trkpt lat="54.798860" lon="-8.287100">
                <time>2019-06-14T08:59:34Z</time>
            </trkpt>
            <trkpt lat="54.798870" lon="-8.287290">
                <time>2019-06-14T08:59:35Z</time>
            </trkpt>
            <trkpt lat="54.798880" lon="-8.287480">
                <time>2019-06-14T08:59:36Z</time>
            </trkpt>
            <trkpt lat="54.798880" lon="-8.287670">
                <time>2019-06-14T08:59:37Z</time>
            </trkpt>
            <trkpt lat="54.798890" lon="-8.287870">
                <time>2019-06-14T08:59:38Z</time>
            </trkpt>
            <trkpt lat="54.798900" lon="-8.288100">
                <time>2019-06-14T08:59:39Z</time>
            </trkpt>
            <trkpt lat="54.798910" lon="-8.288330">
                <time>2019-06-14T08:59:40Z</time>
            </trkpt>
            <trkpt lat="54.798920" lon="-8.288570">
                <time>2019-06-14T08:59:41Z</time>
            </trkpt>
            <trkpt lat="54.798920" lon="-8.288790">
                <time>2019-06-14T08:59:42Z</time>
            </trkpt>
            <trkpt lat="54.798930" lon="-8.289010">
                <time>2019-06-14T08:59:43Z</time>
            </trkpt>
            <trkpt lat="54.798940" lon="-8.289230">
                <time>2019-06-14T08:59:44Z</time>
            </trkpt>
            <trkpt lat="54.798940" lon="-8.289470">
                <time>2019-06-14T08:59:45Z</time>
            </trkpt>
            <trkpt lat="54.798950" lon="-8.289700">
                <time>2019-06-14T08:59:46Z</time>
            </trkpt>
            <trkpt lat="54.798960" lon="-8.289950">
                <time>2019-06-14T08:59:47Z</time>
            </trkpt>
            <trkpt lat="54.798960" lon="-8.290190">
                <time>2019-06-14T08:59:48Z</time>
            </trkpt>
            <trkpt lat="54.798970" lon="-8.290450">
                <time>2019-06-14T08:59:49Z</time>
            </trkpt>
            <trkpt lat="54.798970" lon="-8.290700">
                <time>2019-06-14T08:59:50Z</time>
            </trkpt>
            <trkpt lat="54.798980" lon="-8.290940">
                <time>2019-06-14T08:59:51Z</time>
            </trkpt>
            <trkpt lat="54.798980" lon="-8.291180">
                <time>2019-06-14T08:59:52Z</time>
            </trkpt>
            <trkpt lat="54.798990" lon="-8.291410">
                <time>2019-06-14T08:59:53Z</time>
            </trkpt>
            <trkpt lat="54.798990" lon="-8.291660">
                <time>2019-06-14T08:59:54Z</time>
            </trkpt>
            <trkpt lat="54.799000" lon="-8.291910">
                <time>2019-06-14T08:59:55Z</time>
            </trkpt>
            <trkpt lat="54.799010" lon="-8.292150">
                <time>2019-06-14T08:59:56Z</time>
            </trkpt>
            <trkpt lat="54.799020" lon="-8.292400">
                <time>2019-06-14T08:59:57Z</time>
            </trkpt>
            <trkpt lat="54.799030" lon="-8.292660">
                <time>2019-06-14T08:59:58Z</time>
            </trkpt>
            <trkpt lat="54.799040" lon="-8.292930">
                <time>2019-06-14T08:59:59Z</time>
            </trkpt>
            <trkpt lat="54.799040" lon="-8.293200">
                <time>2019-06-14T09:00:00Z</time>
            </trkpt>
            <trkpt lat="54.799040" lon="-8.293460">
                <time>2019-06-14T09:00:01Z</time>
            </trkpt>
            <trkpt lat="54.799040" lon="-8.293720">
                <time>2019-06-14T09:00:02Z</time>
            </trkpt>
            <trkpt lat="54.799010" lon="-8.293970">
                <time>2019-06-14T09:00:03Z</time>
            </trkpt>
            <trkpt lat="54.798940" lon="-8.294210">
                <time>2019-06-14T09:00:04Z</time>
            </trkpt>
            <trkpt lat="54.798860" lon="-8.294450">
                <time>2019-06-14T09:00:05Z</time>
            </trkpt>
            <trkpt lat="54.798760" lon="-8.294680">
                <time>2019-06-14T09:00:06Z</time>
            </trkpt>
            <trkpt lat="54.798680" lon="-8.294930">
                <time>2019-06-14T09:00:07Z</time>
            </trkpt>
            <trkpt lat="54.798610" lon="-8.295200">
                <time>2019-06-14T09:00:08Z</time>
            </trkpt>
            <trkpt lat="54.798560" lon="-8.295470">
                <time>2019-06-14T09:00:09Z</time>
            </trkpt>
            <trkpt lat="54.798520" lon="-8.295740">
                <time>2019-06-14T09:00:10Z</time>
            </trkpt>
            <trkpt lat="54.798510" lon="-8.296010">
                <time>2019-06-14T09:00:11Z</time>
            </trkpt>
            <trkpt lat="54.798510" lon="-8.296270">
                <time>2019-06-14T09:00:12Z</time>
            </trkpt>
            <trkpt lat="54.798530" lon="-8.296530">
                <time>2019-06-14T09:00:13Z</time>
            </trkpt>
            <trkpt lat="54.798560" lon="-8.296780">
                <time>2019-06-14T09:00:14Z</time>
            </trkpt>
            <trkpt lat="54.798600" lon="-8.297000">
                <time>2019-06-14T09:00:15Z</time>
            </trkpt>
            <trkpt lat="54.798670" lon="-8.297210">
                <time>2019-06-14T09:00:16Z</time>
            </trkpt>
            <trkpt lat="54.798750" lon="-8.297430">
                <time>2019-06-14T09:00:17Z</time>
            </trkpt>
            <trkpt lat="54.798850" lon="-8.297680">
                <time>2019-06-14T09:00:18Z</time>
            </trkpt>
            <trkpt lat="54.798960" lon="-8.297940">
                <time>2019-06-14T09:00:19Z</time>
            </trkpt>
            <trkpt lat="54.799070" lon="-8.298210">
                <time>2019-06-14T09:00:20Z</time>
            </trkpt>
            <trkpt lat="54.799180" lon="-8.298470">
                <time>2019-06-14T09:00:21Z</time>
            </trkpt>
            <trkpt lat="54.799290" lon="-8.298730">
                <time>2019-06-14T09:00:22Z</time>
            </trkpt>
            <trkpt lat="54.799390" lon="-8.298990">
                <time>2019-06-14T09:00:23Z</time>
            </trkpt>
            <trkpt lat="54.799500" lon="-8.299250">
                <time>2019-06-14T09:00:24Z</time>
            </trkpt>
            <trkpt lat="54.799600" lon="-8.299510">
                <time>2019-06-14T09:00:25Z</time>
            </trkpt>
            <trkpt lat="54.799720" lon="-8.299770">
                <time>2019-06-14T09:00:26Z</time>
            </trkpt>
            <trkpt lat="54.799820" lon="-8.300020">
                <time>2019-06-14T09:00:27Z</time>
            </trkpt>
            <trkpt lat="54.799930" lon="-8.300260">
                <time>2019-06-14T09:00:28Z</time>
            </trkpt>
            <trkpt lat="54.800040" lon="-8.300480">
                <time>2019-06-14T09:00:29Z</time>
            </trkpt>
            <trkpt lat="54.800150" lon="-8.300700">
                <time>2019-06-14T09:00:30Z</time>
            </trkpt>
            <trkpt lat="54.800250" lon="-8.300900">
                <time>2019-06-14T09:00:31Z</time>
            </trkpt>
            <trkpt lat="54.800350" lon="-8.301100">
                <time>2019-06-14T09:00:32Z</time>
            </trkpt>
            <trkpt lat="54.800450" lon="-8.301300">
                <time>2019-06-14T09:00:33Z</time>
            </trkpt>
            <trkpt lat="54.800550" lon="-8.301510">
                <time>2019-06-14T09:00:34Z</time>
            </trkpt>
            <trkpt lat="54.800660" lon="-8.301730">
                <time>2019-06-14T09:00:35Z</time>
            </trkpt>
            <trkpt lat="54.800780" lon="-8.301980">
                <time>2019-06-14T09:00:36Z</time>
            </trkpt>
            <trkpt lat="54.800890" lon="-8.302230">
                <time>2019-06-14T09:00:37Z</time>
            </trkpt>
            <trkpt lat="54.801000" lon="-8.302460">
                <time>2019-06-14T09:00:38Z</time>
            </trkpt>
            <trkpt lat="54.801110" lon="-8.302690">
                <time>2019-06-14T09:00:39Z</time>
            </trkpt>
            <trkpt lat="54.801210" lon="-8.302910">
                <time>2019-06-14T09:00:40Z</time>
            </trkpt>
            <trkpt lat="54.801310" lon="-8.303130">
                <time>2019-06-14T09:00:41Z</time>
            </trkpt>
            <trkpt lat="54.801410" lon="-8.303340">
                <time>2019-06-14T09:00:42Z</time>
            </trkpt>
            <trkpt lat="54.801500" lon="-8.303540">
                <time>2019-06-14T09:00:43Z</time>
            </trkpt>
            <trkpt lat="54.801600" lon="-8.303740">
                <time>2019-06-14T09:00:44Z</time>
            </trkpt>
            <trkpt lat="54.801700" lon="-8.303950">
                <time>2019-06-14T09:00:45Z</time>
            </trkpt>
            <trkpt lat="54.801810" lon="-8.304160">
                <time>2019-06-14T09:00:46Z</time>
            </trkpt>
            <trkpt lat="54.801940" lon="-8.304330">
                <time>2019-06-14T09:00:47Z</time>
            </trkpt>
            <trkpt lat="54.802080" lon="-8.304460">
                <time>2019-06-14T09:00:48Z</time>
            </trkpt>
            <trkpt lat="54.802210" lon="-8.304580">
                <time>2019-06-14T09:00:49Z</time>
            </trkpt>
            <trkpt lat="54.802340" lon="-8.304720">
                <time>2019-06-14T09:00:50Z</time>
            </trkpt>
            <trkpt lat="54.802460" lon="-8.304920">
                <time>2019-06-14T09:00:51Z</time>
            </trkpt>
            <trkpt lat="54.802560" lon="-8.305140">
                <time>2019-06-14T09:00:52Z</time>
            </trkpt>
            <trkpt lat="54.802660" lon="-8.305380">
                <time>2019-06-14T09:00:53Z</time>
            </trkpt>
            <trkpt lat="54.802750" lon="-8.305610">
                <time>2019-06-14T09:00:54Z</time>
            </trkpt>
            <trkpt lat="54.802850" lon="-8.305840">
                <time>2019-06-14T09:00:55Z</time>
            </trkpt>
            <trkpt lat="54.802950" lon="-8.306080">
                <time>2019-06-14T09:00:56Z</time>
            </trkpt>
            <trkpt lat="54.803040" lon="-8.306310">
                <time>2019-06-14T09:00:57Z</time>
            </trkpt>
            <trkpt lat="54.803140" lon="-8.306540">
                <time>2019-06-14T09:00:58Z</time>
            </trkpt>
            <trkpt lat="54.803240" lon="-8.306780">
                <time>2019-06-14T09:00:59Z</time>
            </trkpt>
            <trkpt lat="54.803330" lon="-8.307010">
                <time>2019-06-14T09:01:00Z</time>
            </trkpt>
            <trkpt lat="54.803430" lon="-8.307260">
                <time>2019-06-14T09:01:01Z</time>
            </trkpt>
            <trkpt lat="54.803540" lon="-8.307510">
                <time>2019-06-14T09:01:02Z</time>
            </trkpt>
            <trkpt lat="54.803650" lon="-8.307780">
                <time>2019-06-14T09:01:03Z</time>
            </trkpt>
            <trkpt lat="54.803770" lon="-8.308060">
                <time>2019-06-14T09:01:04Z</time>
            </trkpt>
            <trkpt lat="54.803870" lon="-8.308320">
                <time>2019-06-14T09:01:05Z</time>
            </trkpt>
            <trkpt lat="54.803980" lon="-8.308580">
                <time>2019-06-14T09:01:06Z</time>
            </trkpt>
            <trkpt lat="54.804080" lon="-8.308830">
                <time>2019-06-14T09:01:07Z</time>
            </trkpt>
            <trkpt lat="54.804190" lon="-8.309080">
                <time>2019-06-14T09:01:08Z</time>
            </trkpt>
            <trkpt lat="54.804300" lon="-8.309320">
                <time>2019-06-14T09:01:09Z</time>
            </trkpt>
            <trkpt lat="54.804410" lon="-8.309570">
                <time>2019-06-14T09:01:10Z</time>
            </trkpt>
            <trkpt lat="54.804520" lon="-8.309830">
                <time>2019-06-14T09:01:11Z</time>
            </trkpt>
            <trkpt lat="54.804640" lon="-8.310100">
                <time>2019-06-14T09:01:12Z</time>
            </trkpt>
            <trkpt lat="54.804770" lon="-8.310370">
                <time>2019-06-14T09:01:13Z</time>
            </trkpt>
            <trkpt lat="54.804890" lon="-8.310650">
                <time>2019-06-14T09:01:14Z</time>
            </trkpt>
            <trkpt lat="54.805020" lon="-8.310930">
                <time>2019-06-14T09:01:15Z</time>
            </trkpt>
            <trkpt lat="54.805150" lon="-8.311200">
                <time>2019-06-14T09:01:16Z</time>
            </trkpt>
            <trkpt lat="54.805260" lon="-8.311460">
                <time>2019-06-14T09:01:17Z</time>
            </trkpt>
            <trkpt lat="54.805370" lon="-8.311700">
                <time>2019-06-14T09:01:18Z</time>
            </trkpt>
            <trkpt lat="54.805480" lon="-8.311950">
                <time>2019-06-14T09:01:19Z</time>
            </trkpt>
            <trkpt lat="54.805590" lon="-8.312200">
                <time>2019-06-14T09:01:20Z</time>
            </trkpt>
            <trkpt lat="54.805710" lon="-8.312470">
                <time>2019-06-14T09:01:21Z</time>
            </trkpt>
            <trkpt lat="54.805830" lon="-8.312740">
                <time>2019-06-14T09:01:22Z</time>
            </trkpt>
            <trkpt lat="54.805960" lon="-8.313010">
                <time>2019-06-14T09:01:23Z</time>
            </trkpt>
            <trkpt lat="54.806080" lon="-8.313260">
                <time>2019-06-14T09:01:24Z</time>
            </trkpt>
            <trkpt lat="54.806200" lon="-8.313510">
                <time>2019-06-14T09:01:25Z</time>
            </trkpt>
            <trkpt lat="54.806310" lon="-8.313760">
                <time>2019-06-14T09:01:26Z</time>
            </trkpt>
            <trkpt lat="54.806430" lon="-8.314000">
                <time>2019-06-14T09:01:27Z</time>
            </trkpt>
            <trkpt lat="54.806540" lon="-8.314240">
                <time>2019-06-14T09:01:28Z</time>
            </trkpt>
            <trkpt lat="54.806640" lon="-8.314470">
                <time>2019-06-14T09:01:29Z</time>
            </trkpt>
            <trkpt lat="54.806740" lon="-8.314700">
                <time>2019-06-14T09:01:30Z</time>
            </trkpt>
            <trkpt lat="54.806840" lon="-8.314940">
                <time>2019-06-14T09:01:31Z</time>
            </trkpt>
            <trkpt lat="54.806930" lon="-8.315200">
                <time>2019-06-14T09:01:32Z</time>
            </trkpt>
            <trkpt lat="54.807020" lon="-8.315460">
                <time>2019-06-14T09:01:33Z</time>
            </trkpt>
            <trkpt lat="54.807090" lon="-8.315740">
                <time>2019-06-14T09:01:34Z</time>
            </trkpt>
            <trkpt lat="54.807150" lon="-8.316020">
                <time>2019-06-14T09:01:35Z</time>
            </trkpt>
            <trkpt lat="54.807210" lon="-8.316290">
                <time>2019-06-14T09:01:36Z</time>
            </trkpt>
            <trkpt lat="54.807270" lon="-8.316550">
                <time>2019-06-14T09:01:37Z</time>
            </trkpt>
            <trkpt lat="54.807330" lon="-8.316830">
                <time>2019-06-14T09:01:38Z</time>
            </trkpt>
            <trkpt lat="54.807410" lon="-8.317120">
                <time>2019-06-14T09:01:39Z</time>
            </trkpt>
            <trkpt lat="54.807500" lon="-8.317430">
                <time>2019-06-14T09:01:40Z</time>
            </trkpt>
            <trkpt lat="54.807590" lon="-8.317730">
                <time>2019-06-14T09:01:41Z</time>
            </trkpt>
            <trkpt lat="54.807700" lon="-8.318020">
                <time>2019-06-14T09:01:42Z</time>
            </trkpt>
            <trkpt lat="54.807810" lon="-8.318270">
                <time>2019-06-14T09:01:43Z</time>
            </trkpt>
            <trkpt lat="54.807910" lon="-8.318510">
                <time>2019-06-14T09:01:44Z</time>
            </trkpt>
            <trkpt lat="54.808020" lon="-8.318760">
                <time>2019-06-14T09:01:45Z</time>
            </trkpt>
            <trkpt lat="54.808130" lon="-8.319010">
                <time>2019-06-14T09:01:46Z</time>
            </trkpt>
            <trkpt lat="54.808250" lon="-8.319280">
                <time>2019-06-14T09:01:47Z</time>
            </trkpt>
            <trkpt lat="54.808380" lon="-8.319560">
                <time>2019-06-14T09:01:48Z</time>
            </trkpt>
            <trkpt lat="54.808500" lon="-8.319850">
                <time>2019-06-14T09:01:49Z</time>
            </trkpt>
            <trkpt lat="54.808630" lon="-8.320150">
                <time>2019-06-14T09:01:50Z</time>
            </trkpt>
            <trkpt lat="54.808750" lon="-8.320460">
                <time>2019-06-14T09:01:51Z</time>
            </trkpt>
            <trkpt lat="54.808880" lon="-8.320760">
                <time>2019-06-14T09:01:52Z</time>
            </trkpt>
            <trkpt lat="54.809000" lon="-8.321070">
                <time>2019-06-14T09:01:53Z</time>
            </trkpt>
            <trkpt lat="54.809130" lon="-8.321390">
                <time>2019-06-14T09:01:54Z</time>
            </trkpt>
            <trkpt lat="54.809260" lon="-8.321710">
                <time>2019-06-14T09:01:55Z</time>
            </trkpt>
            <trkpt lat="54.809390" lon="-8.322040">
                <time>2019-06-14T09:01:56Z</time>
            </trkpt>
            <trkpt lat="54.809530" lon="-8.322370">
                <time>2019-06-14T09:01:57Z</time>
            </trkpt>
            <trkpt lat="54.809670" lon="-8.322700">
                <time>2019-06-14T09:01:58Z</time>
            </trkpt>
            <trkpt lat="54.809800" lon="-8.323040">
                <time>2019-06-14T09:01:59Z</time>
            </trkpt>
            <trkpt lat="54.809940" lon="-8.323370">
                <time>2019-06-14T09:02:00Z</time>
            </trkpt>
            <trkpt lat="54.810070" lon="-8.323690">
                <time>2019-06-14T09:02:01Z</time>
            </trkpt>
            <trkpt lat="54.810190" lon="-8.323990">
                <time>2019-06-14T09:02:02Z</time>
            </trkpt>
            <trkpt lat="54.810310" lon="-8.324280">
                <time>2019-06-14T09:02:03Z</time>
            </trkpt>
            <trkpt lat="54.810430" lon="-8.324560">
                <time>2019-06-14T09:02:04Z</time>
            </trkpt>
            <trkpt lat="54.810540" lon="-8.324850">
                <time>2019-06-14T09:02:05Z</time>
            </trkpt>
            <trkpt lat="54.810650" lon="-8.325150">
                <time>2019-06-14T09:02:06Z</time>
            </trkpt>
            <trkpt lat="54.810760" lon="-8.325450">
                <time>2019-06-14T09:02:07Z</time>
            </trkpt>
            <trkpt lat="54.810870" lon="-8.325770">
                <time>2019-06-14T09:02:08Z</time>
            </trkpt>
            <trkpt lat="54.810990" lon="-8.326100">
                <time>2019-06-14T09:02:09Z</time>
            </trkpt>
            <trkpt lat="54.811100" lon="-8.326430">
                <time>2019-06-14T09:02:10Z</time>
            </trkpt>
            <trkpt lat="54.811210" lon="-8.326770">
                <time>2019-06-14T09:02:11Z</time>
            </trkpt>
            <trkpt lat="54.811320" lon="-8.327090">
                <time>2019-06-14T09:02:12Z</time>
            </trkpt>
            <trkpt lat="54.811420" lon="-8.327410">
                <time>2019-06-14T09:02:13Z</time>
            </trkpt>
            <trkpt lat="54.811530" lon="-8.327720">
                <time>2019-06-14T09:02:14Z</time>
            </trkpt>
            <trkpt lat="54.811630" lon="-8.328040">
                <time>2019-06-14T09:02:15Z</time>
            </trkpt>
            <trkpt lat="54.811730" lon="-8.328350">
                <time>2019-06-14T09:02:16Z</time>
            </trkpt>
            <trkpt lat="54.811840" lon="-8.328670">
                <time>2019-06-14T09:02:17Z</time>
            </trkpt>
            <trkpt lat="54.811940" lon="-8.329000">
                <time>2019-06-14T09:02:18Z</time>
            </trkpt>
            <trkpt lat="54.812050" lon="-8.329330">
                <time>2019-06-14T09:02:19Z</time>
            </trkpt>
            <trkpt lat="54.812170" lon="-8.329660">
                <time>2019-06-14T09:02:20Z</time>
            </trkpt>
            <trkpt lat="54.812280" lon="-8.329980">
                <time>2019-06-14T09:02:21Z</time>
            </trkpt>
            <trkpt lat="54.812380" lon="-8.330290">
                <time>2019-06-14T09:02:22Z</time>
            </trkpt>
            <trkpt lat="54.812480" lon="-8.330600">
                <time>2019-06-14T09:02:23Z</time>
            </trkpt>
            <trkpt lat="54.812580" lon="-8.330900">
                <time>2019-06-14T09:02:24Z</time>
            </trkpt>
            <trkpt lat="54.812670" lon="-8.331190">
                <time>2019-06-14T09:02:25Z</time>
            </trkpt>
            <trkpt lat="54.812740" lon="-8.331470">
                <time>2019-06-14T09:02:26Z</time>
            </trkpt>
            <trkpt lat="54.812810" lon="-8.331770">
                <time>2019-06-14T09:02:27Z</time>
            </trkpt>
            <trkpt lat="54.812870" lon="-8.332070">
                <time>2019-06-14T09:02:28Z</time>
            </trkpt>
            <trkpt lat="54.812940" lon="-8.332370">
                <time>2019-06-14T09:02:29Z</time>
            </trkpt>
            <trkpt lat="54.813030" lon="-8.332660">
                <time>2019-06-14T09:02:30Z</time>
            </trkpt>
            <trkpt lat="54.813140" lon="-8.332950">
                <time>2019-06-14T09:02:31Z</time>
            </trkpt>
            <trkpt lat="54.813260" lon="-8.333240">
                <time>2019-06-14T09:02:32Z</time>
            </trkpt>
            <trkpt lat="54.813390" lon="-8.333520">
                <time>2019-06-14T09:02:33Z</time>
            </trkpt>
            <trkpt lat="54.813520" lon="-8.333780">
                <time>2019-06-14T09:02:34Z</time>
            </trkpt>
            <trkpt lat="54.813640" lon="-8.334060">
                <time>2019-06-14T09:02:35Z</time>
            </trkpt>
            <trkpt lat="54.813770" lon="-8.334330">
                <time>2019-06-14T09:02:36Z</time>
            </trkpt>
            <trkpt lat="54.813910" lon="-8.334620">
                <time>2019-06-14T09:02:37Z</time>
            </trkpt>
            <trkpt lat="54.814050" lon="-8.334920">
                <time>2019-06-14T09:02:38Z</time>
            </trkpt>
            <trkpt lat="54.814200" lon="-8.335240">
                <time>2019-06-14T09:02:39Z</time>
            </trkpt>
            <trkpt lat="54.814360" lon="-8.335570">
                <time>2019-06-14T09:02:40Z</time>
            </trkpt>
            <trkpt lat="54.814520" lon="-8.335900">
                <time>2019-06-14T09:02:41Z</time>
            </trkpt>
            <trkpt lat="54.814680" lon="-8.336230">
                <time>2019-06-14T09:02:42Z</time>
            </trkpt>
            <trkpt lat="54.814820" lon="-8.336550">
                <time>2019-06-14T09:02:43Z</time>
            </trkpt>
            <trkpt lat="54.814960" lon="-8.336840">
                <time>2019-06-14T09:02:44Z</time>
            </trkpt>
            <trkpt lat="54.815080" lon="-8.337130">
                <time>2019-06-14T09:02:45Z</time>
            </trkpt>
            <trkpt lat="54.815220" lon="-8.337420">
                <time>2019-06-14T09:02:46Z</time>
            </trkpt>
            <trkpt lat="54.815350" lon="-8.337710">
                <time>2019-06-14T09:02:47Z</time>
            </trkpt>
            <trkpt lat="54.815500" lon="-8.338030">
                <time>2019-06-14T09:02:48Z</time>
            </trkpt>
            <trkpt lat="54.815650" lon="-8.338340">
                <time>2019-06-14T09:02:49Z</time>
            </trkpt>
            <trkpt lat="54.815790" lon="-8.338650">
                <time>2019-06-14T09:02:50Z</time>
            </trkpt>
            <trkpt lat="54.815920" lon="-8.338930">
                <time>2019-06-14T09:02:51Z</time>
            </trkpt>
            <trkpt lat="54.816040" lon="-8.339200">
                <time>2019-06-14T09:02:52Z</time>
            </trkpt>
            <trkpt lat="54.816150" lon="-8.339450">
                <time>2019-06-14T09:02:53Z</time>
            </trkpt>
            <trkpt lat="54.816260" lon="-8.339690">
                <time>2019-06-14T09:02:54Z</time>
            </trkpt>
            <trkpt lat="54.816350" lon="-8.339910">
                <time>2019-06-14T09:02:55Z</time>
            </trkpt>
            <trkpt lat="54.816450" lon="-8.340120">
                <time>2019-06-14T09:02:56Z</time>
            </trkpt>
            <trkpt lat="54.816550" lon="-8.340300">
                <time>2019-06-14T09:02:57Z</time>
            </trkpt>
            <trkpt lat="54.816660" lon="-8.340490">
                <time>2019-06-14T09:02:58Z</time>
            </trkpt>
            <trkpt lat="54.816770" lon="-8.340680">
                <time>2019-06-14T09:02:59Z</time>
            </trkpt>
            <trkpt lat="54.816870" lon="-8.340900">
                <time>2019-06-14T09:03:00Z</time>
            </trkpt>
            <trkpt lat="54.816970" lon="-8.341130">
                <time>2019-06-14T09:03:01Z</time>
            </trkpt>
            <trkpt lat="54.817060" lon="-8.341360">
                <time>2019-06-14T09:03:02Z</time>
            </trkpt>
            <trkpt lat="54.817160" lon="-8.341590">
                <time>2019-06-14T09:03:03Z</time>
            </trkpt>
            <trkpt lat="54.817260" lon="-8.341840">
                <time>2019-06-14T09:03:04Z</time>
            </trkpt>
            <trkpt lat="54.817370" lon="-8.342080">
                <time>2019-06-14T09:03:05Z</time>
            </trkpt>
            <trkpt lat="54.817490" lon="-8.342330">
                <time>2019-06-14T09:03:06Z</time>
            </trkpt>
            <trkpt lat="54.817620" lon="-8.342580">
                <time>2019-06-14T09:03:07Z</time>
            </trkpt>
            <trkpt lat="54.817750" lon="-8.342840">
                <time>2019-06-14T09:03:08Z</time>
            </trkpt>
            <trkpt lat="54.817880" lon="-8.343100">
                <time>2019-06-14T09:03:09Z</time>
            </trkpt>
            <trkpt lat="54.818010" lon="-8.343370">
                <time>2019-06-14T09:03:10Z</time>
            </trkpt>
            <trkpt lat="54.818130" lon="-8.343640">
                <time>2019-06-14T09:03:11Z</time>
            </trkpt>
            <trkpt lat="54.818250" lon="-8.343910">
                <time>2019-06-14T09:03:12Z</time>
            </trkpt>
            <trkpt lat="54.818360" lon="-8.344180">
                <time>2019-06-14T09:03:13Z</time>
            </trkpt>
            <trkpt lat="54.818460" lon="-8.344440">
                <time>2019-06-14T09:03:14Z</time>
            </trkpt>
            <trkpt lat="54.818560" lon="-8.344700">
                <time>2019-06-14T09:03:15Z</time>
            </trkpt>
            <trkpt lat="54.818650" lon="-8.344960">
                <time>2019-06-14T09:03:16Z</time>
            </trkpt>
            <trkpt lat="54.818730" lon="-8.345230">
                <time>2019-06-14T09:03:17Z</time>
            </trkpt>
            <trkpt lat="54.818800" lon="-8.345530">
                <time>2019-06-14T09:03:18Z</time>
            </trkpt>
            <trkpt lat="54.818870" lon="-8.345860">
                <time>2019-06-14T09:03:19Z</time>
            </trkpt>
            <trkpt lat="54.818930" lon="-8.346190">
                <time>2019-06-14T09:03:20Z</time>
            </trkpt>
            <trkpt lat="54.818990" lon="-8.346510">
                <time>2019-06-14T09:03:21Z</time>
            </trkpt>
            <trkpt lat="54.819050" lon="-8.346820">
                <time>2019-06-14T09:03:22Z</time>
            </trkpt>
            <trkpt lat="54.819110" lon="-8.347140">
                <time>2019-06-14T09:03:23Z</time>
            </trkpt>
            <trkpt lat="54.819190" lon="-8.347460">
                <time>2019-06-14T09:03:24Z</time>
            </trkpt>
            <trkpt lat="54.819270" lon="-8.347800">
                <time>2019-06-14T09:03:25Z</time>
            </trkpt>
            <trkpt lat="54.819370" lon="-8.348150">
                <time>2019-06-14T09:03:26Z</time>
            </trkpt>
            <trkpt lat="54.819480" lon="-8.348480">
                <time>2019-06-14T09:03:27Z</time>
            </trkpt>
            <trkpt lat="54.819600" lon="-8.348800">
                <time>2019-06-14T09:03:28Z</time>
            </trkpt>
            <trkpt lat="54.819740" lon="-8.349080">
                <time>2019-06-14T09:03:29Z</time>
            </trkpt>
            <trkpt lat="54.819870" lon="-8.349350">
                <time>2019-06-14T09:03:30Z</time>
            </trkpt>
            <trkpt lat="54.819990" lon="-8.349610">
                <time>2019-06-14T09:03:31Z</time>
            </trkpt>
            <trkpt lat="54.820100" lon="-8.349860">
                <time>2019-06-14T09:03:32Z</time>
            </trkpt>
            <trkpt lat="54.820220" lon="-8.350100">
                <time>2019-06-14T09:03:33Z</time>
            </trkpt>
            <trkpt lat="54.820330" lon="-8.350350">
                <time>2019-06-14T09:03:34Z</time>
            </trkpt>
            <trkpt lat="54.820450" lon="-8.350600">
                <time>2019-06-14T09:03:35Z</time>
            </trkpt>
            <trkpt lat="54.820570" lon="-8.350880">
                <time>2019-06-14T09:03:36Z</time>
            </trkpt>
            <trkpt lat="54.820700" lon="-8.351160">
                <time>2019-06-14T09:03:37Z</time>
            </trkpt>
            <trkpt lat="54.820820" lon="-8.351430">
                <time>2019-06-14T09:03:38Z</time>
            </trkpt>
            <trkpt lat="54.820940" lon="-8.351680">
                <time>2019-06-14T09:03:39Z</time>
            </trkpt>
            <trkpt lat="54.821050" lon="-8.351920">
                <time>2019-06-14T09:03:40Z</time>
            </trkpt>
            <trkpt lat="54.821150" lon="-8.352160">
                <time>2019-06-14T09:03:41Z</time>
            </trkpt>
            <trkpt lat="54.821270" lon="-8.352420">
                <time>2019-06-14T09:03:42Z</time>
            </trkpt>
            <trkpt lat="54.821380" lon="-8.352710">
                <time>2019-06-14T09:03:43Z</time>
            </trkpt>
            <trkpt lat="54.821480" lon="-8.353020">
                <time>2019-06-14T09:03:44Z</time>
            </trkpt>
            <trkpt lat="54.821580" lon="-8.353360">
                <time>2019-06-14T09:03:45Z</time>
            </trkpt>
            <trkpt lat="54.821660" lon="-8.353690">
                <time>2019-06-14T09:03:46Z</time>
            </trkpt>
            <trkpt lat="54.821760" lon="-8.353990">
                <time>2019-06-14T09:03:47Z</time>
            </trkpt>
            <trkpt lat="54.821860" lon="-8.354260">
                <time>2019-06-14T09:03:48Z</time>
            </trkpt>
            <trkpt lat="54.821970" lon="-8.354480">
                <time>2019-06-14T09:03:49Z</time>
            </trkpt>
            <trkpt lat="54.822080" lon="-8.354670">
                <time>2019-06-14T09:03:50Z</time>
            </trkpt>
            <trkpt lat="54.822200" lon="-8.354860">
                <time>2019-06-14T09:03:51Z</time>
            </trkpt>
            <trkpt lat="54.822320" lon="-8.355020">
                <time>2019-06-14T09:03:52Z</time>
            </trkpt>
            <trkpt lat="54.822450" lon="-8.355150">
                <time>2019-06-14T09:03:53Z</time>
            </trkpt>
            <trkpt lat="54.822570" lon="-8.355270">
                <time>2019-06-14T09:03:54Z</time>
            </trkpt>
            <trkpt lat="54.822680" lon="-8.355390">
                <time>2019-06-14T09:03:55Z</time>
            </trkpt>
            <trkpt lat="54.822780" lon="-8.355510">
                <time>2019-06-14T09:03:56Z</time>
            </trkpt>
            <trkpt lat="54.822880" lon="-8.355620">
                <time>2019-06-14T09:03:57Z</time>
            </trkpt>
            <trkpt lat="54.822970" lon="-8.355750">
                <time>2019-06-14T09:03:58Z</time>
            </trkpt>
            <trkpt lat="54.823070" lon="-8.355890">
                <time>2019-06-14T09:03:59Z</time>
            </trkpt>
            <trkpt lat="54.823180" lon="-8.356030">
                <time>2019-06-14T09:04:00Z</time>
            </trkpt>
            <trkpt lat="54.823280" lon="-8.356180">
                <time>2019-06-14T09:04:01Z</time>
            </trkpt>
            <trkpt lat="54.823390" lon="-8.356350">
                <time>2019-06-14T09:04:02Z</time>
            </trkpt>
            <trkpt lat="54.823490" lon="-8.356520">
                <time>2019-06-14T09:04:03Z</time>
            </trkpt>
            <trkpt lat="54.823590" lon="-8.356700">
                <time>2019-06-14T09:04:04Z</time>
            </trkpt>
            <trkpt lat="54.823690" lon="-8.356890">
                <time>2019-06-14T09:04:05Z</time>
            </trkpt>
            <trkpt lat="54.823790" lon="-8.357100">
                <time>2019-06-14T09:04:06Z</time>
            </trkpt>
            <trkpt lat="54.823890" lon="-8.357330">
                <time>2019-06-14T09:04:07Z</time>
            </trkpt>
            <trkpt lat="54.823990" lon="-8.357560">
                <time>2019-06-14T09:04:08Z</time>
            </trkpt>
            <trkpt lat="54.824080" lon="-8.357790">
                <time>2019-06-14T09:04:09Z</time>
            </trkpt>
            <trkpt lat="54.824170" lon="-8.358020">
                <time>2019-06-14T09:04:10Z</time>
            </trkpt>
            <trkpt lat="54.824260" lon="-8.358240">
                <time>2019-06-14T09:04:11Z</time>
            </trkpt>
            <trkpt lat="54.824340" lon="-8.358450">
                <time>2019-06-14T09:04:12Z</time>
            </trkpt>
            <trkpt lat="54.824410" lon="-8.358660">
                <time>2019-06-14T09:04:13Z</time>
            </trkpt>
            <trkpt lat="54.824490" lon="-8.358860">
                <time>2019-06-14T09:04:14Z</time>
            </trkpt>
            <trkpt lat="54.824560" lon="-8.359060">
                <time>2019-06-14T09:04:15Z</time>
            </trkpt>
            <trkpt lat="54.824640" lon="-8.359280">
                <time>2019-06-14T09:04:16Z</time>
            </trkpt>
            <trkpt lat="54.824720" lon="-8.359510">
                <time>2019-06-14T09:04:17Z</time>
            </trkpt>
            <trkpt lat="54.824810" lon="-8.359730">
                <time>2019-06-14T09:04:18Z</time>
            </trkpt>
            <trkpt lat="54.824890" lon="-8.359940">
                <time>2019-06-14T09:04:19Z</time>
            </trkpt>
            <trkpt lat="54.824970" lon="-8.360140">
                <time>2019-06-14T09:04:20Z</time>
            </trkpt>
            <trkpt lat="54.825050" lon="-8.360330">
                <time>2019-06-14T09:04:21Z</time>
            </trkpt>
            <trkpt lat="54.825120" lon="-8.360510">
                <time>2019-06-14T09:04:22Z</time>
            </trkpt>
            <trkpt lat="54.825180" lon="-8.360670">
                <time>2019-06-14T09:04:23Z</time>
            </trkpt>
            <trkpt lat="54.825230" lon="-8.360790">
                <time>2019-06-14T09:04:24Z</time>
            </trkpt>
            <trkpt lat="54.825260" lon="-8.360880">
                <time>2019-06-14T09:04:25Z</time>
            </trkpt>
            <trkpt lat="54.825290" lon="-8.360960">
                <time>2019-06-14T09:04:26Z</time>
            </trkpt>
            <trkpt lat="54.825320" lon="-8.361040">
                <time>2019-06-14T09:04:27Z</time>
            </trkpt>
            <trkpt lat="54.825350" lon="-8.361100">
                <time>2019-06-14T09:04:28Z</time>
            </trkpt>
            <trkpt lat="54.825370" lon="-8.361160">
                <time>2019-06-14T09:04:29Z</time>
            </trkpt>
            <trkpt lat="54.825390" lon="-8.361210">
                <time>2019-06-14T09:04:30Z</time>
            </trkpt>
            <trkpt lat="54.825400" lon="-8.361260">
                <time>2019-06-14T09:04:31Z</time>
            </trkpt>
            <trkpt lat="54.825420" lon="-8.361300">
                <time>2019-06-14T09:04:32Z</time>
            </trkpt>
            <trkpt lat="54.825430" lon="-8.361330">
                <time>2019-06-14T09:04:33Z</time>
            </trkpt>
            <trkpt lat="54.825440" lon="-8.361350">
                <time>2019-06-14T09:04:34Z</time>
            </trkpt>
            <trkpt lat="54.825440" lon="-8.361360">
                <time>2019-06-14T09:04:35Z</time>
            </trkpt>
            <trkpt lat="54.825440" lon="-8.361360">
                <time>2019-06-14T09:04:36Z</time>
            </trkpt>
            <trkpt lat="54.825440" lon="-8.361360">
                <time>2019-06-14T09:04:37Z</time>
            </trkpt>
            <trkpt lat="54.825440" lon="-8.361360">
                <time>2019-06-14T09:04:38Z</time>
            </trkpt>
            <trkpt lat="54.825440" lon="-8.361360">
                <time>2019-06-14T09:04:39Z</time>
            </trkpt>
            <trkpt lat="54.825440" lon="-8.361370">
                <time>2019-06-14T09:04:40Z</time>
            </trkpt>
            <trkpt lat="54.825440" lon="-8.361370">
                <time>2019-06-14T09:04:41Z</time>
            </trkpt>
            <trkpt lat="54.825440" lon="-8.361370">
                <time>2019-06-14T09:04:42Z</time>
            </trkpt>
            <trkpt lat="54.825440" lon="-8.361370">
                <time>2019-06-14T09:04:43Z</time>
            </trkpt>
            <trkpt lat="54.825440" lon="-8.361370">
                <time>2019-06-14T09:04:44Z</time>
            </trkpt>
            <trkpt lat="54.825440" lon="-8.361360">
                <time>2019-06-14T09:04:45Z</time>
            </trkpt>
            <trkpt lat="54.825440" lon="-8.361360">
                <time>2019-06-14T09:04:46Z</time>
            </trkpt>
            <trkpt lat="54.825440" lon="-8.361360">
                <time>2019-06-14T09:04:47Z</time>
            </trkpt>
            <trkpt lat="54.825440" lon="-8.361360">
                <time>2019-06-14T09:04:48Z</time>
            </trkpt>
            <trkpt lat="54.825440" lon="-8.361360">
                <time>2019-06-14T09:04:49Z</time>
            </trkpt>
            <trkpt lat="54.825440" lon="-8.361360">
                <time>2019-06-14T09:04:50Z</time>
            </trkpt>
            <trkpt lat="54.825440" lon="-8.361360">
                <time>2019-06-14T09:04:51Z</time>
            </trkpt>
            <trkpt lat="54.825440" lon="-8.361360">
                <time>2019-06-14T09:04:52Z</time>
            </trkpt>
            <trkpt lat="54.825440" lon="-8.361360">
                <time>2019-06-14T09:04:53Z</time>
            </trkpt>
            <trkpt lat="54.825440" lon="-8.361360">
                <time>2019-06-14T09:04:54Z</time>
            </trkpt>
            <trkpt lat="54.825440" lon="-8.361360">
                <time>2019-06-14T09:04:55Z</time>
            </trkpt>
            <trkpt lat="54.825440" lon="-8.361360">
                <time>2019-06-14T09:04:56Z</time>
            </trkpt>
            <trkpt lat="54.825440" lon="-8.361360">
                <time>2019-06-14T09:04:57Z</time>
            </trkpt>
            <trkpt lat="54.825440" lon="-8.361360">
                <time>2019-06-14T09:04:58Z</time>
            </trkpt>
            <trkpt lat="54.825440" lon="-8.361360">
                <time>2019-06-14T09:04:59Z</time>
            </trkpt>
            <trkpt lat="54.825440" lon="-8.361360">
                <time>2019-06-14T09:05:00Z</time>
            </trkpt>
            <trkpt lat="54.825440" lon="-8.361360">
                <time>2019-06-14T09:05:01Z</time>
            </trkpt>
            <trkpt lat="54.825440" lon="-8.361360">
                <time>2019-06-14T09:05:02Z</time>
            </trkpt>
            <trkpt lat="54.825440" lon="-8.361360">
                <time>2019-06-14T09:05:03Z</time>
            </trkpt>
            <trkpt lat="54.825440" lon="-8.361360">
                <time>2019-06-14T09:05:04Z</time>
            </trkpt>
            <trkpt lat="54.825440" lon="-8.361360">
                <time>2019-06-14T09:05:05Z</time>
            </trkpt>
            <trkpt lat="54.825440" lon="-8.361360">
                <time>2019-06-14T09:05:06Z</time>
            </trkpt>
            <trkpt lat="54.825440" lon="-8.361360">
                <time>2019-06-14T09:05:07Z</time>
            </trkpt>
            <trkpt lat="54.825440" lon="-8.361360">
                <time>2019-06-14T09:05:08Z</time>
            </trkpt>
            <trkpt lat="54.825440" lon="-8.361360">
                <time>2019-06-14T09:05:09Z</time>
            </trkpt>
            <trkpt lat="54.825440" lon="-8.361360">
                <time>2019-06-14T09:05:10Z</time>
            </trkpt>
            <trkpt lat="54.825440" lon="-8.361360">
                <time>2019-06-14T09:05:11Z</time>
            </trkpt>
            <trkpt lat="54.825440" lon="-8.361360">
                <time>2019-06-14T09:05:12Z</time>
            </trkpt>
            <trkpt lat="54.825440" lon="-8.361360">
                <time>2019-06-14T09:05:13Z</time>
            </trkpt>
            <trkpt lat="54.825440" lon="-8.361360">
                <time>2019-06-14T09:05:14Z</time>
            </trkpt>
            <trkpt lat="54.825440" lon="-8.361360">
                <time>2019-06-14T09:05:15Z</time>
            </trkpt>
            <trkpt lat="54.825440" lon="-8.361360">
                <time>2019-06-14T09:05:16Z</time>
            </trkpt>
            <trkpt lat="54.825440" lon="-8.361360">
                <time>2019-06-14T09:05:17Z</time>
            </trkpt>
            <trkpt lat="54.825440" lon="-8.361360">
                <time>2019-06-14T09:05:18Z</time>
            </trkpt>
            <trkpt lat="54.825440" lon="-8.361360">
                <time>2019-06-14T09:05:19Z</time>
            </trkpt>
            <trkpt lat="54.825440" lon="-8.361360">
                <time>2019-06-14T09:05:20Z</time>
            </trkpt>
            <trkpt lat="54.825440" lon="-8.361360">
                <time>2019-06-14T09:05:21Z</time>
            </trkpt>
            <trkpt lat="54.825440" lon="-8.361360">
                <time>2019-06-14T09:05:22Z</time>
            </trkpt>
            <trkpt lat="54.825440" lon="-8.361360">
                <time>2019-06-14T09:05:23Z</time>
            </trkpt>
            <trkpt lat="54.825440" lon="-8.361360">
                <time>2019-06-14T09:05:24Z</time>
            </trkpt>
            <trkpt lat="54.825440" lon="-8.361360">
                <time>2019-06-14T09:05:25Z</time>
            </trkpt>
            <trkpt lat="54.825440" lon="-8.361360">
                <time>2019-06-14T09:05:26Z</time>
            </trkpt>
            <trkpt lat="54.825440" lon="-8.361360">
                <time>2019-06-14T09:05:27Z</time>
            </trkpt>
            <trkpt lat="54.825440" lon="-8.361360">
                <time>2019-06-14T09:05:28Z</time>
            </trkpt>
            <trkpt lat="54.825440" lon="-8.361360">
                <time>2019-06-14T09:05:29Z</time>
            </trkpt>
            <trkpt lat="54.825440" lon="-8.361360">
                <time>2019-06-14T09:05:30Z</time>
            </trkpt>
            <trkpt lat="54.825440" lon="-8.361360">
                <time>2019-06-14T09:05:31Z</time>
            </trkpt>
            <trkpt lat="54.825440" lon="-8.361360">
                <time>2019-06-14T09:05:32Z</time>
            </trkpt>
            <trkpt lat="54.825440" lon="-8.361360">
                <time>2019-06-14T09:05:33Z</time>
            </trkpt>
            <trkpt lat="54.825440" lon="-8.361360">
                <time>2019-06-14T09:05:34Z</time>
            </trkpt>
            <trkpt lat="54.825440" lon="-8.361360">
                <time>2019-06-14T09:05:35Z</time>
            </trkpt>
            <trkpt lat="54.825440" lon="-8.361360">
                <time>2019-06-14T09:05:36Z</time>
            </trkpt>
            <trkpt lat="54.825440" lon="-8.361360">
                <time>2019-06-14T09:05:37Z</time>
            </trkpt>
            <trkpt lat="54.825440" lon="-8.361360">
                <time>2019-06-14T09:05:38Z</time>
            </trkpt>
            <trkpt lat="54.825440" lon="-8.361360">
                <time>2019-06-14T09:05:39Z</time>
            </trkpt>
            <trkpt lat="54.825440" lon="-8.361360">
                <time>2019-06-14T09:05:40Z</time>
            </trkpt>
            <trkpt lat="54.825440" lon="-8.361360">
                <time>2019-06-14T09:05:41Z</time>
            </trkpt>
            <trkpt lat="54.825440" lon="-8.361360">
                <time>2019-06-14T09:05:42Z</time>
            </trkpt>
            <trkpt lat="54.825440" lon="-8.361360">
                <time>2019-06-14T09:05:43Z</time>
            </trkpt>
            <trkpt lat="54.825440" lon="-8.361360">
                <time>2019-06-14T09:05:44Z</time>
            </trkpt>
            <trkpt lat="54.825440" lon="-8.361360">
                <time>2019-06-14T09:05:45Z</time>
            </trkpt>
            <trkpt lat="54.825440" lon="-8.361360">
                <time>2019-06-14T09:05:46Z</time>
            </trkpt>
            <trkpt lat="54.825440" lon="-8.361360">
                <time>2019-06-14T09:05:47Z</time>
            </trkpt>
            <trkpt lat="54.825440" lon="-8.361360">
                <time>2019-06-14T09:05:48Z</time>
            </trkpt>
            <trkpt lat="54.825440" lon="-8.361360">
                <time>2019-06-14T09:05:49Z</time>
            </trkpt>
            <trkpt lat="54.825440" lon="-8.361360">
                <time>2019-06-14T09:05:50Z</time>
            </trkpt>
            <trkpt lat="54.825440" lon="-8.361360">
                <time>2019-06-14T09:05:51Z</time>
            </trkpt>
            <trkpt lat="54.825440" lon="-8.361360">
                <time>2019-06-14T09:05:52Z</time>
            </trkpt>
            <trkpt lat="54.825440" lon="-8.361360">
                <time>2019-06-14T09:05:53Z</time>
            </trkpt>
            <trkpt lat="54.825440" lon="-8.361360">
                <time>2019-06-14T09:05:54Z</time>
            </trkpt>
            <trkpt lat="54.825440" lon="-8.361360">
                <time>2019-06-14T09:05:55Z</time>
            </trkpt>
            <trkpt lat="54.825440" lon="-8.361360">
                <time>2019-06-14T09:05:56Z</time>
            </trkpt>
            <trkpt lat="54.825440" lon="-8.361360">
                <time>2019-06-14T09:05:57Z</time>
            </trkpt>
            <trkpt lat="54.825440" lon="-8.361360">
                <time>2019-06-14T09:05:58Z</time>
            </trkpt>
            <trkpt lat="54.825440" lon="-8.361360">
                <time>2019-06-14T09:05:59Z</time>
            </trkpt>
            <trkpt lat="54.825440" lon="-8.361360">
                <time>2019-06-14T09:06:00Z</time>
            </trkpt>
            <trkpt lat="54.825440" lon="-8.361360">
                <time>2019-06-14T09:06:01Z</time>
            </trkpt>
            <trkpt lat="54.825440" lon="-8.361360">
                <time>2019-06-14T09:06:02Z</time>
            </trkpt>
            <trkpt lat="54.825440" lon="-8.361360">
                <time>2019-06-14T09:06:03Z</time>
            </trkpt>
            <trkpt lat="54.825440" lon="-8.361360">
                <time>2019-06-14T09:06:04Z</time>
            </trkpt>
            <trkpt lat="54.825440" lon="-8.361360">
                <time>2019-06-14T09:06:05Z</time>
            </trkpt>
            <trkpt lat="54.825440" lon="-8.361360">
                <time>2019-06-14T09:06:06Z</time>
            </trkpt>
            <trkpt lat="54.825440" lon="-8.361360">
                <time>2019-06-14T09:06:10Z</time>
            </trkpt>
            <trkpt lat="54.825440" lon="-8.361360">
                <time>2019-06-14T09:06:12Z</time>
            </trkpt>
            <trkpt lat="54.825440" lon="-8.361360">
                <time>2019-06-14T09:06:13Z</time>
            </trkpt>
            <trkpt lat="54.825440" lon="-8.361360">
                <time>2019-06-14T09:06:14Z</time>
            </trkpt>
            <trkpt lat="54.825440" lon="-8.361360">
                <time>2019-06-14T09:06:15Z</time>
            </trkpt>
            <trkpt lat="54.825440" lon="-8.361360">
                <time>2019-06-14T09:06:16Z</time>
            </trkpt>
            <trkpt lat="54.825440" lon="-8.361360">
                <time>2019-06-14T09:06:17Z</time>
            </trkpt>
            <trkpt lat="54.825450" lon="-8.361390">
                <time>2019-06-14T09:06:18Z</time>
            </trkpt>
            <trkpt lat="54.825480" lon="-8.361470">
                <time>2019-06-14T09:06:19Z</time>
            </trkpt>
            <trkpt lat="54.825530" lon="-8.361580">
                <time>2019-06-14T09:06:20Z</time>
            </trkpt>
            <trkpt lat="54.825570" lon="-8.361670">
                <time>2019-06-14T09:06:21Z</time>
            </trkpt>
            <trkpt lat="54.825610" lon="-8.361750">
                <time>2019-06-14T09:06:22Z</time>
            </trkpt>
            <trkpt lat="54.825650" lon="-8.361830">
                <time>2019-06-14T09:06:23Z</time>
            </trkpt>
            <trkpt lat="54.825690" lon="-8.361910">
                <time>2019-06-14T09:06:24Z</time>
            </trkpt>
            <trkpt lat="54.825740" lon="-8.361990">
                <time>2019-06-14T09:06:25Z</time>
            </trkpt>
            <trkpt lat="54.825770" lon="-8.362070">
                <time>2019-06-14T09:06:26Z</time>
            </trkpt>
            <trkpt lat="54.825810" lon="-8.362170">
                <time>2019-06-14T09:06:27Z</time>
            </trkpt>
            <trkpt lat="54.825870" lon="-8.362270">
                <time>2019-06-14T09:06:28Z</time>
            </trkpt>
            <trkpt lat="54.825910" lon="-8.362380">
                <time>2019-06-14T09:06:29Z</time>
            </trkpt>
            <trkpt lat="54.825950" lon="-8.362480">
                <time>2019-06-14T09:06:30Z</time>
            </trkpt>
            <trkpt lat="54.825990" lon="-8.362580">
                <time>2019-06-14T09:06:31Z</time>
            </trkpt>
            <trkpt lat="54.826030" lon="-8.362690">
                <time>2019-06-14T09:06:32Z</time>
            </trkpt>
            <trkpt lat="54.826080" lon="-8.362800">
                <time>2019-06-14T09:06:33Z</time>
            </trkpt>
            <trkpt lat="54.826120" lon="-8.362910">
                <time>2019-06-14T09:06:34Z</time>
            </trkpt>
            <trkpt lat="54.826140" lon="-8.362990">
                <time>2019-06-14T09:06:35Z</time>
            </trkpt>
            <trkpt lat="54.826170" lon="-8.363070">
                <time>2019-06-14T09:06:36Z</time>
            </trkpt>
            <trkpt lat="54.826210" lon="-8.363140">
                <time>2019-06-14T09:06:37Z</time>
            </trkpt>
            <trkpt lat="54.826240" lon="-8.363220">
                <time>2019-06-14T09:06:38Z</time>
            </trkpt>
            <trkpt lat="54.826280" lon="-8.363300">
                <time>2019-06-14T09:06:39Z</time>
            </trkpt>
            <trkpt lat="54.826310" lon="-8.363380">
                <time>2019-06-14T09:06:40Z</time>
            </trkpt>
            <trkpt lat="54.826350" lon="-8.363470">
                <time>2019-06-14T09:06:41Z</time>
            </trkpt>
            <trkpt lat="54.826390" lon="-8.363550">
                <time>2019-06-14T09:06:42Z</time>
            </trkpt>
            <trkpt lat="54.826430" lon="-8.363620">
                <time>2019-06-14T09:06:43Z</time>
            </trkpt>
            <trkpt lat="54.826470" lon="-8.363710">
                <time>2019-06-14T09:06:44Z</time>
            </trkpt>
            <trkpt lat="54.826500" lon="-8.363790">
                <time>2019-06-14T09:06:45Z</time>
            </trkpt>
            <trkpt lat="54.826540" lon="-8.363880">
                <time>2019-06-14T09:06:46Z</time>
            </trkpt>
            <trkpt lat="54.826580" lon="-8.363960">
                <time>2019-06-14T09:06:47Z</time>
            </trkpt>
            <trkpt lat="54.826620" lon="-8.364050">
                <time>2019-06-14T09:06:48Z</time>
            </trkpt>
            <trkpt lat="54.826660" lon="-8.364120">
                <time>2019-06-14T09:06:49Z</time>
            </trkpt>
            <trkpt lat="54.826700" lon="-8.364200">
                <time>2019-06-14T09:06:50Z</time>
            </trkpt>
            <trkpt lat="54.826740" lon="-8.364290">
                <time>2019-06-14T09:06:51Z</time>
            </trkpt>
            <trkpt lat="54.826790" lon="-8.364370">
                <time>2019-06-14T09:06:52Z</time>
            </trkpt>
            <trkpt lat="54.826840" lon="-8.364480">
                <time>2019-06-14T09:06:53Z</time>
            </trkpt>
            <trkpt lat="54.826900" lon="-8.364580">
                <time>2019-06-14T09:06:54Z</time>
            </trkpt>
            <trkpt lat="54.826960" lon="-8.364690">
                <time>2019-06-14T09:06:55Z</time>
            </trkpt>
            <trkpt lat="54.827040" lon="-8.364800">
                <time>2019-06-14T09:06:56Z</time>
            </trkpt>
            <trkpt lat="54.827130" lon="-8.364920">
                <time>2019-06-14T09:06:57Z</time>
            </trkpt>
            <trkpt lat="54.827220" lon="-8.365050">
                <time>2019-06-14T09:06:58Z</time>
            </trkpt>
            <trkpt lat="54.827310" lon="-8.365170">
                <time>2019-06-14T09:06:59Z</time>
            </trkpt>
            <trkpt lat="54.827410" lon="-8.365290">
                <time>2019-06-14T09:07:00Z</time>
            </trkpt>
            <trkpt lat="54.827520" lon="-8.365420">
                <time>2019-06-14T09:07:01Z</time>
            </trkpt>
            <trkpt lat="54.827610" lon="-8.365540">
                <time>2019-06-14T09:07:02Z</time>
            </trkpt>
            <trkpt lat="54.827710" lon="-8.365690">
                <time>2019-06-14T09:07:03Z</time>
            </trkpt>
            <trkpt lat="54.827800" lon="-8.365850">
                <time>2019-06-14T09:07:04Z</time>
            </trkpt>
            <trkpt lat="54.827900" lon="-8.366030">
                <time>2019-06-14T09:07:05Z</time>
            </trkpt>
            <trkpt lat="54.828010" lon="-8.366210">
                <time>2019-06-14T09:07:06Z</time>
            </trkpt>
            <trkpt lat="54.828120" lon="-8.366380">
                <time>2019-06-14T09:07:07Z</time>
            </trkpt>
            <trkpt lat="54.828230" lon="-8.366560">
                <time>2019-06-14T09:07:08Z</time>
            </trkpt>
            <trkpt lat="54.828360" lon="-8.366730">
                <time>2019-06-14T09:07:09Z</time>
            </trkpt>
            <trkpt lat="54.828480" lon="-8.366900">
                <time>2019-06-14T09:07:10Z</time>
            </trkpt>
            <trkpt lat="54.828590" lon="-8.367050">
                <time>2019-06-14T09:07:11Z</time>
            </trkpt>
            <trkpt lat="54.828700" lon="-8.367190">
                <time>2019-06-14T09:07:12Z</time>
            </trkpt>
            <trkpt lat="54.828810" lon="-8.367320">
                <time>2019-06-14T09:07:13Z</time>
            </trkpt>
            <trkpt lat="54.828910" lon="-8.367440">
                <time>2019-06-14T09:07:14Z</time>
            </trkpt>
            <trkpt lat="54.828990" lon="-8.367550">
                <time>2019-06-14T09:07:15Z</time>
            </trkpt>
            <trkpt lat="54.829070" lon="-8.367640">
                <time>2019-06-14T09:07:16Z</time>
            </trkpt>
            <trkpt lat="54.829130" lon="-8.367710">
                <time>2019-06-14T09:07:17Z</time>
            </trkpt>
            <trkpt lat="54.829170" lon="-8.367790">
                <time>2019-06-14T09:07:18Z</time>
            </trkpt>
            <trkpt lat="54.829210" lon="-8.367860">
                <time>2019-06-14T09:07:19Z</time>
            </trkpt>
            <trkpt lat="54.829230" lon="-8.367950">
                <time>2019-06-14T09:07:20Z</time>
            </trkpt>
            <trkpt lat="54.829230" lon="-8.368040">
                <time>2019-06-14T09:07:21Z</time>
            </trkpt>
            <trkpt lat="54.829200" lon="-8.368110">
                <time>2019-06-14T09:07:22Z</time>
            </trkpt>
            <trkpt lat="54.829160" lon="-8.368180">
                <time>2019-06-14T09:07:23Z</time>
            </trkpt>
            <trkpt lat="54.829100" lon="-8.368230">
                <time>2019-06-14T09:07:24Z</time>
            </trkpt>
            <trkpt lat="54.829000" lon="-8.368260">
                <time>2019-06-14T09:07:25Z</time>
            </trkpt>
            <trkpt lat="54.828890" lon="-8.368250">
                <time>2019-06-14T09:07:26Z</time>
            </trkpt>
            <trkpt lat="54.828790" lon="-8.368230">
                <time>2019-06-14T09:07:27Z</time>
            </trkpt>
            <trkpt lat="54.828680" lon="-8.368210">
                <time>2019-06-14T09:07:28Z</time>
            </trkpt>
            <trkpt lat="54.828570" lon="-8.368170">
                <time>2019-06-14T09:07:29Z</time>
            </trkpt>
            <trkpt lat="54.828450" lon="-8.368130">
                <time>2019-06-14T09:07:30Z</time>
            </trkpt>
            <trkpt lat="54.828350" lon="-8.368080">
                <time>2019-06-14T09:07:31Z</time>
            </trkpt>
            <trkpt lat="54.828250" lon="-8.368040">
                <time>2019-06-14T09:07:32Z</time>
            </trkpt>
            <trkpt lat="54.828150" lon="-8.367990">
                <time>2019-06-14T09:07:33Z</time>
            </trkpt>
            <trkpt lat="54.828040" lon="-8.367970">
                <time>2019-06-14T09:07:34Z</time>
            </trkpt>
            <trkpt lat="54.827940" lon="-8.367970">
                <time>2019-06-14T09:07:35Z</time>
            </trkpt>
            <trkpt lat="54.827840" lon="-8.367990">
                <time>2019-06-14T09:07:36Z</time>
            </trkpt>
            <trkpt lat="54.827750" lon="-8.368010">
                <time>2019-06-14T09:07:37Z</time>
            </trkpt>
            <trkpt lat="54.827670" lon="-8.368040">
                <time>2019-06-14T09:07:38Z</time>
            </trkpt>
            <trkpt lat="54.827600" lon="-8.368090">
                <time>2019-06-14T09:07:39Z</time>
            </trkpt>
            <trkpt lat="54.827540" lon="-8.368180">
                <time>2019-06-14T09:07:40Z</time>
            </trkpt>
            <trkpt lat="54.827490" lon="-8.368300">
                <time>2019-06-14T09:07:41Z</time>
            </trkpt>
            <trkpt lat="54.827450" lon="-8.368430">
                <time>2019-06-14T09:07:42Z</time>
            </trkpt>
            <trkpt lat="54.827390" lon="-8.368540">
                <time>2019-06-14T09:07:43Z</time>
            </trkpt>
            <trkpt lat="54.827340" lon="-8.368630">
                <time>2019-06-14T09:07:44Z</time>
            </trkpt>
            <trkpt lat="54.827270" lon="-8.368710">
                <time>2019-06-14T09:07:45Z</time>
            </trkpt>
            <trkpt lat="54.827190" lon="-8.368780">
                <time>2019-06-14T09:07:46Z</time>
            </trkpt>
            <trkpt lat="54.827100" lon="-8.368850">
                <time>2019-06-14T09:07:47Z</time>
            </trkpt>
            <trkpt lat="54.827010" lon="-8.368920">
                <time>2019-06-14T09:07:48Z</time>
            </trkpt>
            <trkpt lat="54.826910" lon="-8.368980">
                <time>2019-06-14T09:07:49Z</time>
            </trkpt>
            <trkpt lat="54.826820" lon="-8.369040">
                <time>2019-06-14T09:07:50Z</time>
            </trkpt>
            <trkpt lat="54.826730" lon="-8.369090">
                <time>2019-06-14T09:07:51Z</time>
            </trkpt>
            <trkpt lat="54.826630" lon="-8.369110">
                <time>2019-06-14T09:07:52Z</time>
            </trkpt>
            <trkpt lat="54.826520" lon="-8.369090">
                <time>2019-06-14T09:07:53Z</time>
            </trkpt>
            <trkpt lat="54.826420" lon="-8.369050">
                <time>2019-06-14T09:07:54Z</time>
            </trkpt>
            <trkpt lat="54.826310" lon="-8.368990">
                <time>2019-06-14T09:07:55Z</time>
            </trkpt>
            <trkpt lat="54.826200" lon="-8.368920">
                <time>2019-06-14T09:07:56Z</time>
            </trkpt>
            <trkpt lat="54.826090" lon="-8.368830">
                <time>2019-06-14T09:07:57Z</time>
            </trkpt>
            <trkpt lat="54.825990" lon="-8.368740">
                <time>2019-06-14T09:07:58Z</time>
            </trkpt>
            <trkpt lat="54.825880" lon="-8.368670">
                <time>2019-06-14T09:07:59Z</time>
            </trkpt>
            <trkpt lat="54.825760" lon="-8.368610">
                <time>2019-06-14T09:08:00Z</time>
            </trkpt>
            <trkpt lat="54.825640" lon="-8.368550">
                <time>2019-06-14T09:08:01Z</time>
            </trkpt>
            <trkpt lat="54.825510" lon="-8.368490">
                <time>2019-06-14T09:08:02Z</time>
            </trkpt>
            <trkpt lat="54.825390" lon="-8.368460">
                <time>2019-06-14T09:08:03Z</time>
            </trkpt>
            <trkpt lat="54.825270" lon="-8.368440">
                <time>2019-06-14T09:08:04Z</time>
            </trkpt>
            <trkpt lat="54.825160" lon="-8.368440">
                <time>2019-06-14T09:08:05Z</time>
            </trkpt>
            <trkpt lat="54.825050" lon="-8.368440">
                <time>2019-06-14T09:08:06Z</time>
            </trkpt>
            <trkpt lat="54.824950" lon="-8.368450">
                <time>2019-06-14T09:08:07Z</time>
            </trkpt>
            <trkpt lat="54.824860" lon="-8.368490">
                <time>2019-06-14T09:08:08Z</time>
            </trkpt>
            <trkpt lat="54.824760" lon="-8.368540">
                <time>2019-06-14T09:08:09Z</time>
            </trkpt>
            <trkpt lat="54.824670" lon="-8.368620">
                <time>2019-06-14T09:08:10Z</time>
            </trkpt>
            <trkpt lat="54.824590" lon="-8.368720">
                <time>2019-06-14T09:08:11Z</time>
            </trkpt>
            <trkpt lat="54.824520" lon="-8.368870">
                <time>2019-06-14T09:08:12Z</time>
            </trkpt>
            <trkpt lat="54.824450" lon="-8.369050">
                <time>2019-06-14T09:08:13Z</time>
            </trkpt>
            <trkpt lat="54.824380" lon="-8.369230">
                <time>2019-06-14T09:08:14Z</time>
            </trkpt>
            <trkpt lat="54.824320" lon="-8.369410">
                <time>2019-06-14T09:08:15Z</time>
            </trkpt>
            <trkpt lat="54.824260" lon="-8.369590">
                <time>2019-06-14T09:08:16Z</time>
            </trkpt>
            <trkpt lat="54.824200" lon="-8.369770">
                <time>2019-06-14T09:08:17Z</time>
            </trkpt>
            <trkpt lat="54.824160" lon="-8.369970">
                <time>2019-06-14T09:08:18Z</time>
            </trkpt>
            <trkpt lat="54.824130" lon="-8.370170">
                <time>2019-06-14T09:08:19Z</time>
            </trkpt>
            <trkpt lat="54.824120" lon="-8.370380">
                <time>2019-06-14T09:08:20Z</time>
            </trkpt>
            <trkpt lat="54.824120" lon="-8.370600">
                <time>2019-06-14T09:08:21Z</time>
            </trkpt>
            <trkpt lat="54.824110" lon="-8.370810">
                <time>2019-06-14T09:08:22Z</time>
            </trkpt>
            <trkpt lat="54.824110" lon="-8.371020">
                <time>2019-06-14T09:08:23Z</time>
            </trkpt>
            <trkpt lat="54.824130" lon="-8.371240">
                <time>2019-06-14T09:08:24Z</time>
            </trkpt>
            <trkpt lat="54.824170" lon="-8.371470">
                <time>2019-06-14T09:08:25Z</time>
            </trkpt>
            <trkpt lat="54.824210" lon="-8.371700">
                <time>2019-06-14T09:08:26Z</time>
            </trkpt>
            <trkpt lat="54.824220" lon="-8.371940">
                <time>2019-06-14T09:08:27Z</time>
            </trkpt>
            <trkpt lat="54.824210" lon="-8.372130">
                <time>2019-06-14T09:08:28Z</time>
            </trkpt>
            <trkpt lat="54.824180" lon="-8.372250">
                <time>2019-06-14T09:08:29Z</time>
            </trkpt>
            <trkpt lat="54.824140" lon="-8.372320">
                <time>2019-06-14T09:08:30Z</time>
            </trkpt>
            <trkpt lat="54.824070" lon="-8.372370">
                <time>2019-06-14T09:08:31Z</time>
            </trkpt>
            <trkpt lat="54.823980" lon="-8.372390">
                <time>2019-06-14T09:08:32Z</time>
            </trkpt>
            <trkpt lat="54.823870" lon="-8.372430">
                <time>2019-06-14T09:08:33Z</time>
            </trkpt>
            <trkpt lat="54.823750" lon="-8.372500">
                <time>2019-06-14T09:08:34Z</time>
            </trkpt>
            <trkpt lat="54.823640" lon="-8.372590">
                <time>2019-06-14T09:08:35Z</time>
            </trkpt>
            <trkpt lat="54.823540" lon="-8.372670">
                <time>2019-06-14T09:08:36Z</time>
            </trkpt>
            <trkpt lat="54.823430" lon="-8.372760">
                <time>2019-06-14T09:08:37Z</time>
            </trkpt>
            <trkpt lat="54.823330" lon="-8.372840">
                <time>2019-06-14T09:08:38Z</time>
            </trkpt>
            <trkpt lat="54.823250" lon="-8.372900">
                <time>2019-06-14T09:08:39Z</time>
            </trkpt>
            <trkpt lat="54.823170" lon="-8.372950">
                <time>2019-06-14T09:08:40Z</time>
            </trkpt>
            <trkpt lat="54.823100" lon="-8.372990">
                <time>2019-06-14T09:08:41Z</time>
            </trkpt>
            <trkpt lat="54.823060" lon="-8.373010">
                <time>2019-06-14T09:08:42Z</time>
            </trkpt>
            <trkpt lat="54.823040" lon="-8.373010">
                <time>2019-06-14T09:08:43Z</time>
            </trkpt>
            <trkpt lat="54.823010" lon="-8.373020">
                <time>2019-06-14T09:08:44Z</time>
            </trkpt>
            <trkpt lat="54.822970" lon="-8.373020">
                <time>2019-06-14T09:08:45Z</time>
            </trkpt>
            <trkpt lat="54.822910" lon="-8.373010">
                <time>2019-06-14T09:08:46Z</time>
            </trkpt>
            <trkpt lat="54.822820" lon="-8.372980">
                <time>2019-06-14T09:08:47Z</time>
            </trkpt>
            <trkpt lat="54.822720" lon="-8.372930">
                <time>2019-06-14T09:08:48Z</time>
            </trkpt>
            <trkpt lat="54.822620" lon="-8.372900">
                <time>2019-06-14T09:08:49Z</time>
            </trkpt>
            <trkpt lat="54.822520" lon="-8.372870">
                <time>2019-06-14T09:08:50Z</time>
            </trkpt>
            <trkpt lat="54.822450" lon="-8.372840">
                <time>2019-06-14T09:08:51Z</time>
            </trkpt>
            <trkpt lat="54.822380" lon="-8.372790">
                <time>2019-06-14T09:08:52Z</time>
            </trkpt>
            <trkpt lat="54.822320" lon="-8.372700">
                <time>2019-06-14T09:08:53Z</time>
            </trkpt>
            <trkpt lat="54.822260" lon="-8.372580">
                <time>2019-06-14T09:08:54Z</time>
            </trkpt>
            <trkpt lat="54.822220" lon="-8.372460">
                <time>2019-06-14T09:08:55Z</time>
            </trkpt>
            <trkpt lat="54.822180" lon="-8.372370">
                <time>2019-06-14T09:08:56Z</time>
            </trkpt>
            <trkpt lat="54.822140" lon="-8.372300">
                <time>2019-06-14T09:08:57Z</time>
            </trkpt>
            <trkpt lat="54.822080" lon="-8.372270">
                <time>2019-06-14T09:08:58Z</time>
            </trkpt>
            <trkpt lat="54.822030" lon="-8.372270">
                <time>2019-06-14T09:08:59Z</time>
            </trkpt>
            <trkpt lat="54.821960" lon="-8.372320">
                <time>2019-06-14T09:09:00Z</time>
            </trkpt>
            <trkpt lat="54.821880" lon="-8.372400">
                <time>2019-06-14T09:09:01Z</time>
            </trkpt>
            <trkpt lat="54.821780" lon="-8.372500">
                <time>2019-06-14T09:09:02Z</time>
            </trkpt>
            <trkpt lat="54.821670" lon="-8.372600">
                <time>2019-06-14T09:09:03Z</time>
            </trkpt>
            <trkpt lat="54.821560" lon="-8.372690">
                <time>2019-06-14T09:09:04Z</time>
            </trkpt>
            <trkpt lat="54.821440" lon="-8.372780">
                <time>2019-06-14T09:09:05Z</time>
            </trkpt>
            <trkpt lat="54.821320" lon="-8.372880">
                <time>2019-06-14T09:09:06Z</time>
            </trkpt>
            <trkpt lat="54.821190" lon="-8.372970">
                <time>2019-06-14T09:09:07Z</time>
            </trkpt>
            <trkpt lat="54.821060" lon="-8.373060">
                <time>2019-06-14T09:09:08Z</time>
            </trkpt>
            <trkpt lat="54.820950" lon="-8.373170">
                <time>2019-06-14T09:09:09Z</time>
            </trkpt>
            <trkpt lat="54.820840" lon="-8.373280">
                <time>2019-06-14T09:09:10Z</time>
            </trkpt>
            <trkpt lat="54.820720" lon="-8.373400">
                <time>2019-06-14T09:09:11Z</time>
            </trkpt>
            <trkpt lat="54.820580" lon="-8.373510">
                <time>2019-06-14T09:09:12Z</time>
            </trkpt>
            <trkpt lat="54.820440" lon="-8.373600">
                <time>2019-06-14T09:09:13Z</time>
            </trkpt>
            <trkpt lat="54.820290" lon="-8.373680">
                <time>2019-06-14T09:09:14Z</time>
            </trkpt>
            <trkpt lat="54.820160" lon="-8.373760">
                <time>2019-06-14T09:09:15Z</time>
            </trkpt>
            <trkpt lat="54.820040" lon="-8.373840">
                <time>2019-06-14T09:09:16Z</time>
            </trkpt>
            <trkpt lat="54.819920" lon="-8.373910">
                <time>2019-06-14T09:09:17Z</time>
            </trkpt>
            <trkpt lat="54.819810" lon="-8.373980">
                <time>2019-06-14T09:09:18Z</time>
            </trkpt>
            <trkpt lat="54.819690" lon="-8.374060">
                <time>2019-06-14T09:09:19Z</time>
            </trkpt>
            <trkpt lat="54.819570" lon="-8.374140">
                <time>2019-06-14T09:09:20Z</time>
            </trkpt>
            <trkpt lat="54.819440" lon="-8.374230">
                <time>2019-06-14T09:09:21Z</time>
            </trkpt>
            <trkpt lat="54.819310" lon="-8.374310">
                <time>2019-06-14T09:09:22Z</time>
            </trkpt>
            <trkpt lat="54.819190" lon="-8.374400">
                <time>2019-06-14T09:09:23Z</time>
            </trkpt>
            <trkpt lat="54.819060" lon="-8.374480">
                <time>2019-06-14T09:09:24Z</time>
            </trkpt>
            <trkpt lat="54.818930" lon="-8.374570">
                <time>2019-06-14T09:09:25Z</time>
            </trkpt>
            <trkpt lat="54.818790" lon="-8.374660">
                <time>2019-06-14T09:09:26Z</time>
            </trkpt>
            <trkpt lat="54.818640" lon="-8.374760">
                <time>2019-06-14T09:09:27Z</time>
            </trkpt>
            <trkpt lat="54.818490" lon="-8.374850">
                <time>2019-06-14T09:09:28Z</time>
            </trkpt>
            <trkpt lat="54.818340" lon="-8.374920">
                <time>2019-06-14T09:09:29Z</time>
            </trkpt>
            <trkpt lat="54.818200" lon="-8.374960">
                <time>2019-06-14T09:09:30Z</time>
            </trkpt>
            <trkpt lat="54.818070" lon="-8.375000">
                <time>2019-06-14T09:09:31Z</time>
            </trkpt>
            <trkpt lat="54.817930" lon="-8.375040">
                <time>2019-06-14T09:09:32Z</time>
            </trkpt>
            <trkpt lat="54.817790" lon="-8.375070">
                <time>2019-06-14T09:09:33Z</time>
            </trkpt>
            <trkpt lat="54.817650" lon="-8.375080">
                <time>2019-06-14T09:09:34Z</time>
            </trkpt>
            <trkpt lat="54.817510" lon="-8.375090">
                <time>2019-06-14T09:09:35Z</time>
            </trkpt>
            <trkpt lat="54.817390" lon="-8.375070">
                <time>2019-06-14T09:09:36Z</time>
            </trkpt>
            <trkpt lat="54.817270" lon="-8.375040">
                <time>2019-06-14T09:09:37Z</time>
            </trkpt>
            <trkpt lat="54.817150" lon="-8.375000">
                <time>2019-06-14T09:09:38Z</time>
            </trkpt>
            <trkpt lat="54.817040" lon="-8.374950">
                <time>2019-06-14T09:09:39Z</time>
            </trkpt>
            <trkpt lat="54.816930" lon="-8.374920">
                <time>2019-06-14T09:09:40Z</time>
            </trkpt>
            <trkpt lat="54.816810" lon="-8.374870">
                <time>2019-06-14T09:09:41Z</time>
            </trkpt>
            <trkpt lat="54.816670" lon="-8.374820">
                <time>2019-06-14T09:09:42Z</time>
            </trkpt>
            <trkpt lat="54.816530" lon="-8.374770">
                <time>2019-06-14T09:09:43Z</time>
            </trkpt>
            <trkpt lat="54.816380" lon="-8.374720">
                <time>2019-06-14T09:09:44Z</time>
            </trkpt>
            <trkpt lat="54.816230" lon="-8.374680">
                <time>2019-06-14T09:09:45Z</time>
            </trkpt>
            <trkpt lat="54.816100" lon="-8.374660">
                <time>2019-06-14T09:09:46Z</time>
            </trkpt>
            <trkpt lat="54.815960" lon="-8.374640">
                <time>2019-06-14T09:09:47Z</time>
            </trkpt>
            <trkpt lat="54.815820" lon="-8.374620">
                <time>2019-06-14T09:09:48Z</time>
            </trkpt>
            <trkpt lat="54.815660" lon="-8.374600">
                <time>2019-06-14T09:09:49Z</time>
            </trkpt>
            <trkpt lat="54.815500" lon="-8.374590">
                <time>2019-06-14T09:09:50Z</time>
            </trkpt>
            <trkpt lat="54.815350" lon="-8.374590">
                <time>2019-06-14T09:09:51Z</time>
            </trkpt>
            <trkpt lat="54.815190" lon="-8.374580">
                <time>2019-06-14T09:09:52Z</time>
            </trkpt>
            <trkpt lat="54.815040" lon="-8.374590">
                <time>2019-06-14T09:09:53Z</time>
            </trkpt>
            <trkpt lat="54.814880" lon="-8.374620">
                <time>2019-06-14T09:09:54Z</time>
            </trkpt>
            <trkpt lat="54.814720" lon="-8.374650">
                <time>2019-06-14T09:09:55Z</time>
            </trkpt>
            <trkpt lat="54.814550" lon="-8.374680">
                <time>2019-06-14T09:09:56Z</time>
            </trkpt>
            <trkpt lat="54.814380" lon="-8.374700">
                <time>2019-06-14T09:09:57Z</time>
            </trkpt>
            <trkpt lat="54.814240" lon="-8.374690">
                <time>2019-06-14T09:09:58Z</time>
            </trkpt>
            <trkpt lat="54.814110" lon="-8.374640">
                <time>2019-06-14T09:09:59Z</time>
            </trkpt>
            <trkpt lat="54.814000" lon="-8.374590">
                <time>2019-06-14T09:10:00Z</time>
            </trkpt>
            <trkpt lat="54.813890" lon="-8.374550">
                <time>2019-06-14T09:10:01Z</time>
            </trkpt>
            <trkpt lat="54.813770" lon="-8.374530">
                <time>2019-06-14T09:10:02Z</time>
            </trkpt>
            <trkpt lat="54.813650" lon="-8.374530">
                <time>2019-06-14T09:10:03Z</time>
            </trkpt>
            <trkpt lat="54.813520" lon="-8.374540">
                <time>2019-06-14T09:10:04Z</time>
            </trkpt>
            <trkpt lat="54.813380" lon="-8.374580">
                <time>2019-06-14T09:10:05Z</time>
            </trkpt>
            <trkpt lat="54.813250" lon="-8.374640">
                <time>2019-06-14T09:10:06Z</time>
            </trkpt>
            <trkpt lat="54.813110" lon="-8.374710">
                <time>2019-06-14T09:10:07Z</time>
            </trkpt>
            <trkpt lat="54.812970" lon="-8.374790">
                <time>2019-06-14T09:10:08Z</time>
            </trkpt>
            <trkpt lat="54.812830" lon="-8.374890">
                <time>2019-06-14T09:10:09Z</time>
            </trkpt>
            <trkpt lat="54.812690" lon="-8.374990">
                <time>2019-06-14T09:10:10Z</time>
            </trkpt>
            <trkpt lat="54.812540" lon="-8.375080">
                <time>2019-06-14T09:10:11Z</time>
            </trkpt>
            <trkpt lat="54.812390" lon="-8.375180">
                <time>2019-06-14T09:10:12Z</time>
            </trkpt>
            <trkpt lat="54.812240" lon="-8.375270">
                <time>2019-06-14T09:10:13Z</time>
            </trkpt>
            <trkpt lat="54.812080" lon="-8.375360">
                <time>2019-06-14T09:10:14Z</time>
            </trkpt>
            <trkpt lat="54.811920" lon="-8.375450">
                <time>2019-06-14T09:10:15Z</time>
            </trkpt>
            <trkpt lat="54.811770" lon="-8.375530">
                <time>2019-06-14T09:10:16Z</time>
            </trkpt>
            <trkpt lat="54.811630" lon="-8.375610">
                <time>2019-06-14T09:10:17Z</time>
            </trkpt>
            <trkpt lat="54.811490" lon="-8.375710">
                <time>2019-06-14T09:10:18Z</time>
            </trkpt>
            <trkpt lat="54.811340" lon="-8.375830">
                <time>2019-06-14T09:10:19Z</time>
            </trkpt>
            <trkpt lat="54.811190" lon="-8.375970">
                <time>2019-06-14T09:10:20Z</time>
            </trkpt>
            <trkpt lat="54.811050" lon="-8.376100">
                <time>2019-06-14T09:10:21Z</time>
            </trkpt>
            <trkpt lat="54.810920" lon="-8.376230">
                <time>2019-06-14T09:10:22Z</time>
            </trkpt>
            <trkpt lat="54.810790" lon="-8.376360">
                <time>2019-06-14T09:10:23Z</time>
            </trkpt>
            <trkpt lat="54.810670" lon="-8.376480">
                <time>2019-06-14T09:10:24Z</time>
            </trkpt>
            <trkpt lat="54.810560" lon="-8.376590">
                <time>2019-06-14T09:10:25Z</time>
            </trkpt>
            <trkpt lat="54.810440" lon="-8.376680">
                <time>2019-06-14T09:10:26Z</time>
            </trkpt>
            <trkpt lat="54.810310" lon="-8.376750">
                <time>2019-06-14T09:10:27Z</time>
            </trkpt>
            <trkpt lat="54.810180" lon="-8.376790">
                <time>2019-06-14T09:10:28Z</time>
            </trkpt>
            <trkpt lat="54.810040" lon="-8.376800">
                <time>2019-06-14T09:10:29Z</time>
            </trkpt>
            <trkpt lat="54.809910" lon="-8.376810">
                <time>2019-06-14T09:10:30Z</time>
            </trkpt>
            <trkpt lat="54.809780" lon="-8.376810">
                <time>2019-06-14T09:10:31Z</time>
            </trkpt>
            <trkpt lat="54.809660" lon="-8.376820">
                <time>2019-06-14T09:10:32Z</time>
            </trkpt>
            <trkpt lat="54.809550" lon="-8.376850">
                <time>2019-06-14T09:10:33Z</time>
            </trkpt>
            <trkpt lat="54.809430" lon="-8.376890">
                <time>2019-06-14T09:10:34Z</time>
            </trkpt>
            <trkpt lat="54.809300" lon="-8.376940">
                <time>2019-06-14T09:10:35Z</time>
            </trkpt>
            <trkpt lat="54.809150" lon="-8.377000">
                <time>2019-06-14T09:10:36Z</time>
            </trkpt>
            <trkpt lat="54.809000" lon="-8.377040">
                <time>2019-06-14T09:10:37Z</time>
            </trkpt>
            <trkpt lat="54.808860" lon="-8.377060">
                <time>2019-06-14T09:10:38Z</time>
            </trkpt>
            <trkpt lat="54.808720" lon="-8.377060">
                <time>2019-06-14T09:10:39Z</time>
            </trkpt>
            <trkpt lat="54.808580" lon="-8.377070">
                <time>2019-06-14T09:10:40Z</time>
            </trkpt>
            <trkpt lat="54.808460" lon="-8.377090">
                <time>2019-06-14T09:10:41Z</time>
            </trkpt>
            <trkpt lat="54.808350" lon="-8.377150">
                <time>2019-06-14T09:10:42Z</time>
            </trkpt>
            <trkpt lat="54.808230" lon="-8.377240">
                <time>2019-06-14T09:10:43Z</time>
            </trkpt>
            <trkpt lat="54.808120" lon="-8.377360">
                <time>2019-06-14T09:10:44Z</time>
            </trkpt>
            <trkpt lat="54.808010" lon="-8.377500">
                <time>2019-06-14T09:10:45Z</time>
            </trkpt>
            <trkpt lat="54.807910" lon="-8.377670">
                <time>2019-06-14T09:10:46Z</time>
            </trkpt>
            <trkpt lat="54.807820" lon="-8.377860">
                <time>2019-06-14T09:10:47Z</time>
            </trkpt>
            <trkpt lat="54.807730" lon="-8.378060">
                <time>2019-06-14T09:10:48Z</time>
            </trkpt>
            <trkpt lat="54.807630" lon="-8.378280">
                <time>2019-06-14T09:10:49Z</time>
            </trkpt>
            <trkpt lat="54.807530" lon="-8.378490">
                <time>2019-06-14T09:10:50Z</time>
            </trkpt>
            <trkpt lat="54.807430" lon="-8.378690">
                <time>2019-06-14T09:10:51Z</time>
            </trkpt>
            <trkpt lat="54.807310" lon="-8.378880">
                <time>2019-06-14T09:10:52Z</time>
            </trkpt>
            <trkpt lat="54.807200" lon="-8.379060">
                <time>2019-06-14T09:10:53Z</time>
            </trkpt>
            <trkpt lat="54.807070" lon="-8.379210">
                <time>2019-06-14T09:10:54Z</time>
            </trkpt>
            <trkpt lat="54.806950" lon="-8.379360">
                <time>2019-06-14T09:10:55Z</time>
            </trkpt>
            <trkpt lat="54.806830" lon="-8.379500">
                <time>2019-06-14T09:10:56Z</time>
            </trkpt>
            <trkpt lat="54.806700" lon="-8.379630">
                <time>2019-06-14T09:10:57Z</time>
            </trkpt>
            <trkpt lat="54.806560" lon="-8.379750">
                <time>2019-06-14T09:10:58Z</time>
            </trkpt>
            <trkpt lat="54.806440" lon="-8.379850">
                <time>2019-06-14T09:10:59Z</time>
            </trkpt>
            <trkpt lat="54.806310" lon="-8.379950">
                <time>2019-06-14T09:11:00Z</time>
            </trkpt>
            <trkpt lat="54.806190" lon="-8.380040">
                <time>2019-06-14T09:11:01Z</time>
            </trkpt>
            <trkpt lat="54.806080" lon="-8.380120">
                <time>2019-06-14T09:11:02Z</time>
            </trkpt>
            <trkpt lat="54.805980" lon="-8.380220">
                <time>2019-06-14T09:11:03Z</time>
            </trkpt>
            <trkpt lat="54.805920" lon="-8.380330">
                <time>2019-06-14T09:11:04Z</time>
            </trkpt>
            <trkpt lat="54.805880" lon="-8.380450">
                <time>2019-06-14T09:11:05Z</time>
            </trkpt>
            <trkpt lat="54.805860" lon="-8.380580">
                <time>2019-06-14T09:11:06Z</time>
            </trkpt>
            <trkpt lat="54.805840" lon="-8.380740">
                <time>2019-06-14T09:11:07Z</time>
            </trkpt>
            <trkpt lat="54.805820" lon="-8.380910">
                <time>2019-06-14T09:11:08Z</time>
            </trkpt>
            <trkpt lat="54.805780" lon="-8.381090">
                <time>2019-06-14T09:11:09Z</time>
            </trkpt>
            <trkpt lat="54.805730" lon="-8.381270">
                <time>2019-06-14T09:11:10Z</time>
            </trkpt>
            <trkpt lat="54.805660" lon="-8.381450">
                <time>2019-06-14T09:11:11Z</time>
            </trkpt>
            <trkpt lat="54.805580" lon="-8.381640">
                <time>2019-06-14T09:11:12Z</time>
            </trkpt>
            <trkpt lat="54.805510" lon="-8.381820">
                <time>2019-06-14T09:11:13Z</time>
            </trkpt>
            <trkpt lat="54.805450" lon="-8.381970">
                <time>2019-06-14T09:11:14Z</time>
            </trkpt>
            <trkpt lat="54.805400" lon="-8.382060">
                <time>2019-06-14T09:11:15Z</time>
            </trkpt>
            <trkpt lat="54.805350" lon="-8.382130">
                <time>2019-06-14T09:11:16Z</time>
            </trkpt>
            <trkpt lat="54.805310" lon="-8.382160">
                <time>2019-06-14T09:11:17Z</time>
            </trkpt>
            <trkpt lat="54.805260" lon="-8.382170">
                <time>2019-06-14T09:11:18Z</time>
            </trkpt>
            <trkpt lat="54.805210" lon="-8.382130">
                <time>2019-06-14T09:11:19Z</time>
            </trkpt>
            <trkpt lat="54.805160" lon="-8.382060">
                <time>2019-06-14T09:11:20Z</time>
            </trkpt>
            <trkpt lat="54.805100" lon="-8.381950">
                <time>2019-06-14T09:11:21Z</time>
            </trkpt>
            <trkpt lat="54.805030" lon="-8.381830">
                <time>2019-06-14T09:11:22Z</time>
            </trkpt>
            <trkpt lat="54.804960" lon="-8.381710">
                <time>2019-06-14T09:11:23Z</time>
            </trkpt>
            <trkpt lat="54.804880" lon="-8.381600">
                <time>2019-06-14T09:11:24Z</time>
            </trkpt>
            <trkpt lat="54.804810" lon="-8.381500">
                <time>2019-06-14T09:11:25Z</time>
            </trkpt>
            <trkpt lat="54.804740" lon="-8.381410">
                <time>2019-06-14T09:11:26Z</time>
            </trkpt>
            <trkpt lat="54.804670" lon="-8.381320">
                <time>2019-06-14T09:11:27Z</time>
            </trkpt>
            <trkpt lat="54.804580" lon="-8.381280">
                <time>2019-06-14T09:11:28Z</time>
            </trkpt>
            <trkpt lat="54.804470" lon="-8.381270">
                <time>2019-06-14T09:11:29Z</time>
            </trkpt>
            <trkpt lat="54.804350" lon="-8.381300">
                <time>2019-06-14T09:11:30Z</time>
            </trkpt>
            <trkpt lat="54.804230" lon="-8.381330">
                <time>2019-06-14T09:11:31Z</time>
            </trkpt>
            <trkpt lat="54.804100" lon="-8.381380">
                <time>2019-06-14T09:11:32Z</time>
            </trkpt>
            <trkpt lat="54.803970" lon="-8.381440">
                <time>2019-06-14T09:11:33Z</time>
            </trkpt>
            <trkpt lat="54.803820" lon="-8.381520">
                <time>2019-06-14T09:11:34Z</time>
            </trkpt>
            <trkpt lat="54.803660" lon="-8.381600">
                <time>2019-06-14T09:11:35Z</time>
            </trkpt>
            <trkpt lat="54.803500" lon="-8.381700">
                <time>2019-06-14T09:11:36Z</time>
            </trkpt>
            <trkpt lat="54.803360" lon="-8.381780">
                <time>2019-06-14T09:11:37Z</time>
            </trkpt>
            <trkpt lat="54.803220" lon="-8.381880">
                <time>2019-06-14T09:11:38Z</time>
            </trkpt>
            <trkpt lat="54.803070" lon="-8.382000">
                <time>2019-06-14T09:11:39Z</time>
            </trkpt>
            <trkpt lat="54.802920" lon="-8.382120">
                <time>2019-06-14T09:11:40Z</time>
            </trkpt>
            <trkpt lat="54.802780" lon="-8.382270">
                <time>2019-06-14T09:11:41Z</time>
            </trkpt>
            <trkpt lat="54.802660" lon="-8.382430">
                <time>2019-06-14T09:11:42Z</time>
            </trkpt>
            <trkpt lat="54.802540" lon="-8.382600">
                <time>2019-06-14T09:11:43Z</time>
            </trkpt>
            <trkpt lat="54.802430" lon="-8.382790">
                <time>2019-06-14T09:11:44Z</time>
            </trkpt>
            <trkpt lat="54.802320" lon="-8.382970">
                <time>2019-06-14T09:11:45Z</time>
            </trkpt>
            <trkpt lat="54.802200" lon="-8.383180">
                <time>2019-06-14T09:11:46Z</time>
            </trkpt>
            <trkpt lat="54.802090" lon="-8.383390">
                <time>2019-06-14T09:11:47Z</time>
            </trkpt>
            <trkpt lat="54.801980" lon="-8.383630">
                <time>2019-06-14T09:11:48Z</time>
            </trkpt>
            <trkpt lat="54.801850" lon="-8.383900">
                <time>2019-06-14T09:11:49Z</time>
            </trkpt>
            <trkpt lat="54.801730" lon="-8.384180">
                <time>2019-06-14T09:11:50Z</time>
            </trkpt>
            <trkpt lat="54.801600" lon="-8.384450">
                <time>2019-06-14T09:11:51Z</time>
            </trkpt>
            <trkpt lat="54.801470" lon="-8.384740">
                <time>2019-06-14T09:11:52Z</time>
            </trkpt>
            <trkpt lat="54.801330" lon="-8.385030">
                <time>2019-06-14T09:11:53Z</time>
            </trkpt>
            <trkpt lat="54.801180" lon="-8.385320">
                <time>2019-06-14T09:11:54Z</time>
            </trkpt>
            <trkpt lat="54.801030" lon="-8.385610">
                <time>2019-06-14T09:11:55Z</time>
            </trkpt>
            <trkpt lat="54.800890" lon="-8.385900">
                <time>2019-06-14T09:11:56Z</time>
            </trkpt>
            <trkpt lat="54.800760" lon="-8.386160">
                <time>2019-06-14T09:11:57Z</time>
            </trkpt>
            <trkpt lat="54.800650" lon="-8.386410">
                <time>2019-06-14T09:11:58Z</time>
            </trkpt>
            <trkpt lat="54.800540" lon="-8.386640">
                <time>2019-06-14T09:11:59Z</time>
            </trkpt>
            <trkpt lat="54.800430" lon="-8.386880">
                <time>2019-06-14T09:12:00Z</time>
            </trkpt>
            <trkpt lat="54.800320" lon="-8.387120">
                <time>2019-06-14T09:12:01Z</time>
            </trkpt>
            <trkpt lat="54.800220" lon="-8.387360">
                <time>2019-06-14T09:12:02Z</time>
            </trkpt>
            <trkpt lat="54.800110" lon="-8.387610">
                <time>2019-06-14T09:12:03Z</time>
            </trkpt>
            <trkpt lat="54.799990" lon="-8.387870">
                <time>2019-06-14T09:12:04Z</time>
            </trkpt>
            <trkpt lat="54.799890" lon="-8.388150">
                <time>2019-06-14T09:12:05Z</time>
            </trkpt>
            <trkpt lat="54.799790" lon="-8.388440">
                <time>2019-06-14T09:12:06Z</time>
            </trkpt>
            <trkpt lat="54.799690" lon="-8.388740">
                <time>2019-06-14T09:12:07Z</time>
            </trkpt>
            <trkpt lat="54.799590" lon="-8.389030">
                <time>2019-06-14T09:12:08Z</time>
            </trkpt>
            <trkpt lat="54.799500" lon="-8.389330">
                <time>2019-06-14T09:12:09Z</time>
            </trkpt>
            <trkpt lat="54.799410" lon="-8.389620">
                <time>2019-06-14T09:12:10Z</time>
            </trkpt>
            <trkpt lat="54.799320" lon="-8.389890">
                <time>2019-06-14T09:12:11Z</time>
            </trkpt>
            <trkpt lat="54.799240" lon="-8.390150">
                <time>2019-06-14T09:12:12Z</time>
            </trkpt>
            <trkpt lat="54.799170" lon="-8.390400">
                <time>2019-06-14T09:12:13Z</time>
            </trkpt>
            <trkpt lat="54.799100" lon="-8.390630">
                <time>2019-06-14T09:12:14Z</time>
            </trkpt>
            <trkpt lat="54.799020" lon="-8.390850">
                <time>2019-06-14T09:12:15Z</time>
            </trkpt>
            <trkpt lat="54.798940" lon="-8.391080">
                <time>2019-06-14T09:12:16Z</time>
            </trkpt>
            <trkpt lat="54.798860" lon="-8.391300">
                <time>2019-06-14T09:12:17Z</time>
            </trkpt>
            <trkpt lat="54.798790" lon="-8.391530">
                <time>2019-06-14T09:12:18Z</time>
            </trkpt>
            <trkpt lat="54.798700" lon="-8.391750">
                <time>2019-06-14T09:12:19Z</time>
            </trkpt>
            <trkpt lat="54.798620" lon="-8.391980">
                <time>2019-06-14T09:12:20Z</time>
            </trkpt>
            <trkpt lat="54.798520" lon="-8.392220">
                <time>2019-06-14T09:12:21Z</time>
            </trkpt>
            <trkpt lat="54.798430" lon="-8.392450">
                <time>2019-06-14T09:12:22Z</time>
            </trkpt>
            <trkpt lat="54.798340" lon="-8.392670">
                <time>2019-06-14T09:12:23Z</time>
            </trkpt>
            <trkpt lat="54.798250" lon="-8.392890">
                <time>2019-06-14T09:12:24Z</time>
            </trkpt>
            <trkpt lat="54.798160" lon="-8.393110">
                <time>2019-06-14T09:12:25Z</time>
            </trkpt>
            <trkpt lat="54.798080" lon="-8.393350">
                <time>2019-06-14T09:12:26Z</time>
            </trkpt>
            <trkpt lat="54.798000" lon="-8.393590">
                <time>2019-06-14T09:12:27Z</time>
            </trkpt>
            <trkpt lat="54.797930" lon="-8.393810">
                <time>2019-06-14T09:12:28Z</time>
            </trkpt>
            <trkpt lat="54.797860" lon="-8.394030">
                <time>2019-06-14T09:12:29Z</time>
            </trkpt>
            <trkpt lat="54.797790" lon="-8.394260">
                <time>2019-06-14T09:12:30Z</time>
            </trkpt>
            <trkpt lat="54.797700" lon="-8.394490">
                <time>2019-06-14T09:12:31Z</time>
            </trkpt>
            <trkpt lat="54.797610" lon="-8.394720">
                <time>2019-06-14T09:12:32Z</time>
            </trkpt>
            <trkpt lat="54.797500" lon="-8.394940">
                <time>2019-06-14T09:12:33Z</time>
            </trkpt>
            <trkpt lat="54.797400" lon="-8.395140">
                <time>2019-06-14T09:12:34Z</time>
            </trkpt>
            <trkpt lat="54.797310" lon="-8.395320">
                <time>2019-06-14T09:12:35Z</time>
            </trkpt>
            <trkpt lat="54.797220" lon="-8.395500">
                <time>2019-06-14T09:12:36Z</time>
            </trkpt>
            <trkpt lat="54.797120" lon="-8.395690">
                <time>2019-06-14T09:12:37Z</time>
            </trkpt>
            <trkpt lat="54.797010" lon="-8.395900">
                <time>2019-06-14T09:12:38Z</time>
            </trkpt>
            <trkpt lat="54.796910" lon="-8.396120">
                <time>2019-06-14T09:12:39Z</time>
            </trkpt>
            <trkpt lat="54.796800" lon="-8.396350">
                <time>2019-06-14T09:12:40Z</time>
            </trkpt>
            <trkpt lat="54.796710" lon="-8.396580">
                <time>2019-06-14T09:12:41Z</time>
            </trkpt>
            <trkpt lat="54.796630" lon="-8.396790">
                <time>2019-06-14T09:12:42Z</time>
            </trkpt>
            <trkpt lat="54.796560" lon="-8.396990">
                <time>2019-06-14T09:12:43Z</time>
            </trkpt>
            <trkpt lat="54.796500" lon="-8.397200">
                <time>2019-06-14T09:12:44Z</time>
            </trkpt>
            <trkpt lat="54.796440" lon="-8.397390">
                <time>2019-06-14T09:12:45Z</time>
            </trkpt>
            <trkpt lat="54.796400" lon="-8.397570">
                <time>2019-06-14T09:12:46Z</time>
            </trkpt>
            <trkpt lat="54.796390" lon="-8.397730">
                <time>2019-06-14T09:12:47Z</time>
            </trkpt>
            <trkpt lat="54.796390" lon="-8.397910">
                <time>2019-06-14T09:12:48Z</time>
            </trkpt>
            <trkpt lat="54.796420" lon="-8.398100">
                <time>2019-06-14T09:12:49Z</time>
            </trkpt>
            <trkpt lat="54.796450" lon="-8.398310">
                <time>2019-06-14T09:12:50Z</time>
            </trkpt>
            <trkpt lat="54.796490" lon="-8.398550">
                <time>2019-06-14T09:12:51Z</time>
            </trkpt>
            <trkpt lat="54.796530" lon="-8.398790">
                <time>2019-06-14T09:12:52Z</time>
            </trkpt>
            <trkpt lat="54.796560" lon="-8.399010">
                <time>2019-06-14T09:12:53Z</time>
            </trkpt>
            <trkpt lat="54.796580" lon="-8.399200">
                <time>2019-06-14T09:12:54Z</time>
            </trkpt>
            <trkpt lat="54.796570" lon="-8.399360">
                <time>2019-06-14T09:12:55Z</time>
            </trkpt>
            <trkpt lat="54.796550" lon="-8.399490">
                <time>2019-06-14T09:12:56Z</time>
            </trkpt>
            <trkpt lat="54.796500" lon="-8.399600">
                <time>2019-06-14T09:12:57Z</time>
            </trkpt>
            <trkpt lat="54.796440" lon="-8.399680">
                <time>2019-06-14T09:12:58Z</time>
            </trkpt>
            <trkpt lat="54.796360" lon="-8.399730">
                <time>2019-06-14T09:12:59Z</time>
            </trkpt>
            <trkpt lat="54.796260" lon="-8.399760">
                <time>2019-06-14T09:13:00Z</time>
            </trkpt>
            <trkpt lat="54.796140" lon="-8.399800">
                <time>2019-06-14T09:13:01Z</time>
            </trkpt>
            <trkpt lat="54.796020" lon="-8.399880">
                <time>2019-06-14T09:13:02Z</time>
            </trkpt>
            <trkpt lat="54.795900" lon="-8.399970">
                <time>2019-06-14T09:13:03Z</time>
            </trkpt>
            <trkpt lat="54.795810" lon="-8.400040">
                <time>2019-06-14T09:13:04Z</time>
            </trkpt>
            <trkpt lat="54.795730" lon="-8.400100">
                <time>2019-06-14T09:13:05Z</time>
            </trkpt>
            <trkpt lat="54.795640" lon="-8.400130">
                <time>2019-06-14T09:13:06Z</time>
            </trkpt>
            <trkpt lat="54.795520" lon="-8.400120">
                <time>2019-06-14T09:13:07Z</time>
            </trkpt>
            <trkpt lat="54.795380" lon="-8.400090">
                <time>2019-06-14T09:13:08Z</time>
            </trkpt>
            <trkpt lat="54.795220" lon="-8.400070">
                <time>2019-06-14T09:13:09Z</time>
            </trkpt>
            <trkpt lat="54.795050" lon="-8.400080">
                <time>2019-06-14T09:13:10Z</time>
            </trkpt>
            <trkpt lat="54.794870" lon="-8.400100">
                <time>2019-06-14T09:13:11Z</time>
            </trkpt>
            <trkpt lat="54.794670" lon="-8.400120">
                <time>2019-06-14T09:13:12Z</time>
            </trkpt>
            <trkpt lat="54.794480" lon="-8.400130">
                <time>2019-06-14T09:13:13Z</time>
            </trkpt>
            <trkpt lat="54.794290" lon="-8.400140">
                <time>2019-06-14T09:13:14Z</time>
            </trkpt>
            <trkpt lat="54.794100" lon="-8.400140">
                <time>2019-06-14T09:13:15Z</time>
            </trkpt>
            <trkpt lat="54.793910" lon="-8.400140">
                <time>2019-06-14T09:13:16Z</time>
            </trkpt>
            <trkpt lat="54.793710" lon="-8.400140">
                <time>2019-06-14T09:13:17Z</time>
            </trkpt>
            <trkpt lat="54.793530" lon="-8.400170">
                <time>2019-06-14T09:13:18Z</time>
            </trkpt>
            <trkpt lat="54.793360" lon="-8.400210">
                <time>2019-06-14T09:13:19Z</time>
            </trkpt>
            <trkpt lat="54.793190" lon="-8.400240">
                <time>2019-06-14T09:13:20Z</time>
            </trkpt>
            <trkpt lat="54.793020" lon="-8.400250">
                <time>2019-06-14T09:13:21Z</time>
            </trkpt>
            <trkpt lat="54.792860" lon="-8.400260">
                <time>2019-06-14T09:13:22Z</time>
            </trkpt>
            <trkpt lat="54.792680" lon="-8.400270">
                <time>2019-06-14T09:13:23Z</time>
            </trkpt>
            <trkpt lat="54.792480" lon="-8.400300">
                <time>2019-06-14T09:13:24Z</time>
            </trkpt>
            <trkpt lat="54.792280" lon="-8.400370">
                <time>2019-06-14T09:13:25Z</time>
            </trkpt>
            <trkpt lat="54.792080" lon="-8.400480">
                <time>2019-06-14T09:13:26Z</time>
            </trkpt>
            <trkpt lat="54.791870" lon="-8.400620">
                <time>2019-06-14T09:13:27Z</time>
            </trkpt>
            <trkpt lat="54.791650" lon="-8.400760">
                <time>2019-06-14T09:13:28Z</time>
            </trkpt>
            <trkpt lat="54.791440" lon="-8.400900">
                <time>2019-06-14T09:13:29Z</time>
            </trkpt>
            <trkpt lat="54.791230" lon="-8.401030">
                <time>2019-06-14T09:13:30Z</time>
            </trkpt>
            <trkpt lat="54.791020" lon="-8.401170">
                <time>2019-06-14T09:13:31Z</time>
            </trkpt>
            <trkpt lat="54.790820" lon="-8.401300">
                <time>2019-06-14T09:13:32Z</time>
            </trkpt>
            <trkpt lat="54.790620" lon="-8.401420">
                <time>2019-06-14T09:13:33Z</time>
            </trkpt>
            <trkpt lat="54.790440" lon="-8.401530">
                <time>2019-06-14T09:13:34Z</time>
            </trkpt>
            <trkpt lat="54.790270" lon="-8.401620">
                <time>2019-06-14T09:13:35Z</time>
            </trkpt>
            <trkpt lat="54.790120" lon="-8.401700">
                <time>2019-06-14T09:13:36Z</time>
            </trkpt>
            <trkpt lat="54.790010" lon="-8.401770">
                <time>2019-06-14T09:13:37Z</time>
            </trkpt>
            <trkpt lat="54.789920" lon="-8.401840">
                <time>2019-06-14T09:13:38Z</time>
            </trkpt>
            <trkpt lat="54.789850" lon="-8.401940">
                <time>2019-06-14T09:13:39Z</time>
            </trkpt>
            <trkpt lat="54.789790" lon="-8.402080">
                <time>2019-06-14T09:13:40Z</time>
            </trkpt>
            <trkpt lat="54.789760" lon="-8.402250">
                <time>2019-06-14T09:13:41Z</time>
            </trkpt>
            <trkpt lat="54.789730" lon="-8.402460">
                <time>2019-06-14T09:13:42Z</time>
            </trkpt>
            <trkpt lat="54.789700" lon="-8.402670">
                <time>2019-06-14T09:13:43Z</time>
            </trkpt>
            <trkpt lat="54.789650" lon="-8.402880">
                <time>2019-06-14T09:13:44Z</time>
            </trkpt>
            <trkpt lat="54.789580" lon="-8.403090">
                <time>2019-06-14T09:13:45Z</time>
            </trkpt>
            <trkpt lat="54.789520" lon="-8.403290">
                <time>2019-06-14T09:13:46Z</time>
            </trkpt>
            <trkpt lat="54.789440" lon="-8.403480">
                <time>2019-06-14T09:13:47Z</time>
            </trkpt>
            <trkpt lat="54.789350" lon="-8.403660">
                <time>2019-06-14T09:13:48Z</time>
            </trkpt>
            <trkpt lat="54.789240" lon="-8.403840">
                <time>2019-06-14T09:13:49Z</time>
            </trkpt>
            <trkpt lat="54.789110" lon="-8.404030">
                <time>2019-06-14T09:13:50Z</time>
            </trkpt>
            <trkpt lat="54.788970" lon="-8.404220">
                <time>2019-06-14T09:13:51Z</time>
            </trkpt>
            <trkpt lat="54.788840" lon="-8.404410">
                <time>2019-06-14T09:13:52Z</time>
            </trkpt>
            <trkpt lat="54.788710" lon="-8.404590">
                <time>2019-06-14T09:13:53Z</time>
            </trkpt>
            <trkpt lat="54.788590" lon="-8.404780">
                <time>2019-06-14T09:13:54Z</time>
            </trkpt>
            <trkpt lat="54.788460" lon="-8.405000">
                <time>2019-06-14T09:13:55Z</time>
            </trkpt>
            <trkpt lat="54.788340" lon="-8.405210">
                <time>2019-06-14T09:13:56Z</time>
            </trkpt>
            <trkpt lat="54.788220" lon="-8.405440">
                <time>2019-06-14T09:13:57Z</time>
            </trkpt>
            <trkpt lat="54.788110" lon="-8.405660">
                <time>2019-06-14T09:13:58Z</time>
            </trkpt>
            <trkpt lat="54.788000" lon="-8.405900">
                <time>2019-06-14T09:13:59Z</time>
            </trkpt>
            <trkpt lat="54.787900" lon="-8.406140">
                <time>2019-06-14T09:14:00Z</time>
            </trkpt>
            <trkpt lat="54.787810" lon="-8.406380">
                <time>2019-06-14T09:14:01Z</time>
            </trkpt>
            <trkpt lat="54.787720" lon="-8.406630">
                <time>2019-06-14T09:14:02Z</time>
            </trkpt>
            <trkpt lat="54.787620" lon="-8.406870">
                <time>2019-06-14T09:14:03Z</time>
            </trkpt>
            <trkpt lat="54.787540" lon="-8.407110">
                <time>2019-06-14T09:14:04Z</time>
            </trkpt>
            <trkpt lat="54.787460" lon="-8.407330">
                <time>2019-06-14T09:14:05Z</time>
            </trkpt>
            <trkpt lat="54.787390" lon="-8.407550">
                <time>2019-06-14T09:14:06Z</time>
            </trkpt>
            <trkpt lat="54.787310" lon="-8.407760">
                <time>2019-06-14T09:14:07Z</time>
            </trkpt>
            <trkpt lat="54.787240" lon="-8.407970">
                <time>2019-06-14T09:14:08Z</time>
            </trkpt>
            <trkpt lat="54.787170" lon="-8.408190">
                <time>2019-06-14T09:14:09Z</time>
            </trkpt>
            <trkpt lat="54.787100" lon="-8.408420">
                <time>2019-06-14T09:14:10Z</time>
            </trkpt>
            <trkpt lat="54.787030" lon="-8.408640">
                <time>2019-06-14T09:14:11Z</time>
            </trkpt>
            <trkpt lat="54.786940" lon="-8.408850">
                <time>2019-06-14T09:14:12Z</time>
            </trkpt>
            <trkpt lat="54.786840" lon="-8.409050">
                <time>2019-06-14T09:14:13Z</time>
            </trkpt>
            <trkpt lat="54.786730" lon="-8.409240">
                <time>2019-06-14T09:14:14Z</time>
            </trkpt>
            <trkpt lat="54.786610" lon="-8.409410">
                <time>2019-06-14T09:14:15Z</time>
            </trkpt>
            <trkpt lat="54.786480" lon="-8.409560">
                <time>2019-06-14T09:14:16Z</time>
            </trkpt>
            <trkpt lat="54.786340" lon="-8.409680">
                <time>2019-06-14T09:14:17Z</time>
            </trkpt>
            <trkpt lat="54.786200" lon="-8.409790">
                <time>2019-06-14T09:14:18Z</time>
            </trkpt>
            <trkpt lat="54.786060" lon="-8.409900">
                <time>2019-06-14T09:14:19Z</time>
            </trkpt>
            <trkpt lat="54.785910" lon="-8.409980">
                <time>2019-06-14T09:14:20Z</time>
            </trkpt>
            <trkpt lat="54.785760" lon="-8.410010">
                <time>2019-06-14T09:14:21Z</time>
            </trkpt>
            <trkpt lat="54.785590" lon="-8.410030">
                <time>2019-06-14T09:14:22Z</time>
            </trkpt>
            <trkpt lat="54.785420" lon="-8.410050">
                <time>2019-06-14T09:14:23Z</time>
            </trkpt>
            <trkpt lat="54.785250" lon="-8.410080">
                <time>2019-06-14T09:14:24Z</time>
            </trkpt>
            <trkpt lat="54.785080" lon="-8.410130">
                <time>2019-06-14T09:14:25Z</time>
            </trkpt>
            <trkpt lat="54.784920" lon="-8.410180">
                <time>2019-06-14T09:14:26Z</time>
            </trkpt>
            <trkpt lat="54.784770" lon="-8.410220">
                <time>2019-06-14T09:14:27Z</time>
            </trkpt>
            <trkpt lat="54.784630" lon="-8.410260">
                <time>2019-06-14T09:14:28Z</time>
            </trkpt>
            <trkpt lat="54.784500" lon="-8.410290">
                <time>2019-06-14T09:14:29Z</time>
            </trkpt>
            <trkpt lat="54.784370" lon="-8.410320">
                <time>2019-06-14T09:14:30Z</time>
            </trkpt>
            <trkpt lat="54.784240" lon="-8.410350">
                <time>2019-06-14T09:14:31Z</time>
            </trkpt>
            <trkpt lat="54.784110" lon="-8.410370">
                <time>2019-06-14T09:14:32Z</time>
            </trkpt>
            <trkpt lat="54.783980" lon="-8.410390">
                <time>2019-06-14T09:14:33Z</time>
            </trkpt>
            <trkpt lat="54.783850" lon="-8.410420">
                <time>2019-06-14T09:14:34Z</time>
            </trkpt>
            <trkpt lat="54.783720" lon="-8.410440">
                <time>2019-06-14T09:14:35Z</time>
            </trkpt>
            <trkpt lat="54.783580" lon="-8.410470">
                <time>2019-06-14T09:14:36Z</time>
            </trkpt>
            <trkpt lat="54.783470" lon="-8.410490">
                <time>2019-06-14T09:14:37Z</time>
            </trkpt>
            <trkpt lat="54.783350" lon="-8.410520">
                <time>2019-06-14T09:14:38Z</time>
            </trkpt>
            <trkpt lat="54.783240" lon="-8.410540">
                <time>2019-06-14T09:14:39Z</time>
            </trkpt>
            <trkpt lat="54.783130" lon="-8.410570">
                <time>2019-06-14T09:14:40Z</time>
            </trkpt>
            <trkpt lat="54.783010" lon="-8.410590">
                <time>2019-06-14T09:14:41Z</time>
            </trkpt>
            <trkpt lat="54.782890" lon="-8.410620">
                <time>2019-06-14T09:14:42Z</time>
            </trkpt>
            <trkpt lat="54.782770" lon="-8.410650">
                <time>2019-06-14T09:14:43Z</time>
            </trkpt>
            <trkpt lat="54.782660" lon="-8.410670">
                <time>2019-06-14T09:14:44Z</time>
            </trkpt>
            <trkpt lat="54.782540" lon="-8.410690">
                <time>2019-06-14T09:14:45Z</time>
            </trkpt>
            <trkpt lat="54.782420" lon="-8.410710">
                <time>2019-06-14T09:14:46Z</time>
            </trkpt>
            <trkpt lat="54.782300" lon="-8.410730">
                <time>2019-06-14T09:14:47Z</time>
            </trkpt>
            <trkpt lat="54.782180" lon="-8.410740">
                <time>2019-06-14T09:14:48Z</time>
            </trkpt>
            <trkpt lat="54.782050" lon="-8.410740">
                <time>2019-06-14T09:14:49Z</time>
            </trkpt>
            <trkpt lat="54.781910" lon="-8.410740">
                <time>2019-06-14T09:14:50Z</time>
            </trkpt>
            <trkpt lat="54.781780" lon="-8.410730">
                <time>2019-06-14T09:14:51Z</time>
            </trkpt>
            <trkpt lat="54.781640" lon="-8.410730">
                <time>2019-06-14T09:14:52Z</time>
            </trkpt>
            <trkpt lat="54.781500" lon="-8.410730">
                <time>2019-06-14T09:14:53Z</time>
            </trkpt>
            <trkpt lat="54.781370" lon="-8.410720">
                <time>2019-06-14T09:14:54Z</time>
            </trkpt>
            <trkpt lat="54.781240" lon="-8.410720">
                <time>2019-06-14T09:14:55Z</time>
            </trkpt>
            <trkpt lat="54.781110" lon="-8.410720">
                <time>2019-06-14T09:14:56Z</time>
            </trkpt>
            <trkpt lat="54.780980" lon="-8.410720">
                <time>2019-06-14T09:14:57Z</time>
            </trkpt>
            <trkpt lat="54.780830" lon="-8.410710">
                <time>2019-06-14T09:14:58Z</time>
            </trkpt>
            <trkpt lat="54.780680" lon="-8.410710">
                <time>2019-06-14T09:14:59Z</time>
            </trkpt>
            <trkpt lat="54.780530" lon="-8.410700">
                <time>2019-06-14T09:15:00Z</time>
            </trkpt>
            <trkpt lat="54.780370" lon="-8.410680">
                <time>2019-06-14T09:15:01Z</time>
            </trkpt>
            <trkpt lat="54.780220" lon="-8.410670">
                <time>2019-06-14T09:15:02Z</time>
            </trkpt>
            <trkpt lat="54.780060" lon="-8.410660">
                <time>2019-06-14T09:15:03Z</time>
            </trkpt>
            <trkpt lat="54.779900" lon="-8.410650">
                <time>2019-06-14T09:15:04Z</time>
            </trkpt>
            <trkpt lat="54.779750" lon="-8.410640">
                <time>2019-06-14T09:15:05Z</time>
            </trkpt>
            <trkpt lat="54.779590" lon="-8.410620">
                <time>2019-06-14T09:15:06Z</time>
            </trkpt>
            <trkpt lat="54.779440" lon="-8.410610">
                <time>2019-06-14T09:15:07Z</time>
            </trkpt>
            <trkpt lat="54.779280" lon="-8.410590">
                <time>2019-06-14T09:15:08Z</time>
            </trkpt>
            <trkpt lat="54.779120" lon="-8.410570">
                <time>2019-06-14T09:15:09Z</time>
            </trkpt>
            <trkpt lat="54.778970" lon="-8.410550">
                <time>2019-06-14T09:15:10Z</time>
            </trkpt>
            <trkpt lat="54.778820" lon="-8.410530">
                <time>2019-06-14T09:15:11Z</time>
            </trkpt>
            <trkpt lat="54.778670" lon="-8.410520">
                <time>2019-06-14T09:15:12Z</time>
            </trkpt>
            <trkpt lat="54.778520" lon="-8.410490">
                <time>2019-06-14T09:15:13Z</time>
            </trkpt>
            <trkpt lat="54.778380" lon="-8.410470">
                <time>2019-06-14T09:15:14Z</time>
            </trkpt>
            <trkpt lat="54.778240" lon="-8.410450">
                <time>2019-06-14T09:15:15Z</time>
            </trkpt>
            <trkpt lat="54.778110" lon="-8.410440">
                <time>2019-06-14T09:15:16Z</time>
            </trkpt>
            <trkpt lat="54.777980" lon="-8.410440">
                <time>2019-06-14T09:15:17Z</time>
            </trkpt>
            <trkpt lat="54.777860" lon="-8.410440">
                <time>2019-06-14T09:15:18Z</time>
            </trkpt>
            <trkpt lat="54.777730" lon="-8.410440">
                <time>2019-06-14T09:15:19Z</time>
            </trkpt>
            <trkpt lat="54.777610" lon="-8.410450">
                <time>2019-06-14T09:15:20Z</time>
            </trkpt>
            <trkpt lat="54.777500" lon="-8.410460">
                <time>2019-06-14T09:15:21Z</time>
            </trkpt>
            <trkpt lat="54.777380" lon="-8.410480">
                <time>2019-06-14T09:15:22Z</time>
            </trkpt>
            <trkpt lat="54.777270" lon="-8.410490">
                <time>2019-06-14T09:15:23Z</time>
            </trkpt>
            <trkpt lat="54.777160" lon="-8.410520">
                <time>2019-06-14T09:15:24Z</time>
            </trkpt>
            <trkpt lat="54.777060" lon="-8.410550">
                <time>2019-06-14T09:15:25Z</time>
            </trkpt>
            <trkpt lat="54.776980" lon="-8.410580">
                <time>2019-06-14T09:15:26Z</time>
            </trkpt>
            <trkpt lat="54.776910" lon="-8.410610">
                <time>2019-06-14T09:15:27Z</time>
            </trkpt>
            <trkpt lat="54.776850" lon="-8.410640">
                <time>2019-06-14T09:15:28Z</time>
            </trkpt>
            <trkpt lat="54.776790" lon="-8.410670">
                <time>2019-06-14T09:15:29Z</time>
            </trkpt>
            <trkpt lat="54.776740" lon="-8.410690">
                <time>2019-06-14T09:15:30Z</time>
            </trkpt>
            <trkpt lat="54.776700" lon="-8.410720">
                <time>2019-06-14T09:15:31Z</time>
            </trkpt>
            <trkpt lat="54.776660" lon="-8.410730">
                <time>2019-06-14T09:15:32Z</time>
            </trkpt>
            <trkpt lat="54.776640" lon="-8.410750">
                <time>2019-06-14T09:15:33Z</time>
            </trkpt>
            <trkpt lat="54.776620" lon="-8.410760">
                <time>2019-06-14T09:15:34Z</time>
            </trkpt>
            <trkpt lat="54.776610" lon="-8.410770">
                <time>2019-06-14T09:15:35Z</time>
            </trkpt>
            <trkpt lat="54.776600" lon="-8.410780">
                <time>2019-06-14T09:15:36Z</time>
            </trkpt>
            <trkpt lat="54.776600" lon="-8.410770">
                <time>2019-06-14T09:15:37Z</time>
            </trkpt>
            <trkpt lat="54.776600" lon="-8.410770">
                <time>2019-06-14T09:15:38Z</time>
            </trkpt>
            <trkpt lat="54.776600" lon="-8.410770">
                <time>2019-06-14T09:15:39Z</time>
            </trkpt>
            <trkpt lat="54.776600" lon="-8.410770">
                <time>2019-06-14T09:15:40Z</time>
            </trkpt>
            <trkpt lat="54.776600" lon="-8.410770">
                <time>2019-06-14T09:15:41Z</time>
            </trkpt>
            <trkpt lat="54.776600" lon="-8.410780">
                <time>2019-06-14T09:15:42Z</time>
            </trkpt>
            <trkpt lat="54.776590" lon="-8.410780">
                <time>2019-06-14T09:15:43Z</time>
            </trkpt>
            <trkpt lat="54.776580" lon="-8.410790">
                <time>2019-06-14T09:15:44Z</time>
            </trkpt>
            <trkpt lat="54.776570" lon="-8.410800">
                <time>2019-06-14T09:15:45Z</time>
            </trkpt>
            <trkpt lat="54.776560" lon="-8.410820">
                <time>2019-06-14T09:15:46Z</time>
            </trkpt>
            <trkpt lat="54.776550" lon="-8.410860">
                <time>2019-06-14T09:15:47Z</time>
            </trkpt>
            <trkpt lat="54.776570" lon="-8.410970">
                <time>2019-06-14T09:15:48Z</time>
            </trkpt>
            <trkpt lat="54.776620" lon="-8.411090">
                <time>2019-06-14T09:15:49Z</time>
            </trkpt>
            <trkpt lat="54.776710" lon="-8.411230">
                <time>2019-06-14T09:15:50Z</time>
            </trkpt>
            <trkpt lat="54.776800" lon="-8.411390">
                <time>2019-06-14T09:15:51Z</time>
            </trkpt>
            <trkpt lat="54.776910" lon="-8.411590">
                <time>2019-06-14T09:15:52Z</time>
            </trkpt>
            <trkpt lat="54.777050" lon="-8.411820">
                <time>2019-06-14T09:15:53Z</time>
            </trkpt>
            <trkpt lat="54.777200" lon="-8.412040">
                <time>2019-06-14T09:15:54Z</time>
            </trkpt>
            <trkpt lat="54.777330" lon="-8.412260">
                <time>2019-06-14T09:15:55Z</time>
            </trkpt>
            <trkpt lat="54.777470" lon="-8.412490">
                <time>2019-06-14T09:15:56Z</time>
            </trkpt>
            <trkpt lat="54.777610" lon="-8.412730">
                <time>2019-06-14T09:15:57Z</time>
            </trkpt>
            <trkpt lat="54.777750" lon="-8.412980">
                <time>2019-06-14T09:15:58Z</time>
            </trkpt>
            <trkpt lat="54.777900" lon="-8.413230">
                <time>2019-06-14T09:15:59Z</time>
            </trkpt>
            <trkpt lat="54.778040" lon="-8.413470">
                <time>2019-06-14T09:16:00Z</time>
            </trkpt>
            <trkpt lat="54.778200" lon="-8.413700">
                <time>2019-06-14T09:16:01Z</time>
            </trkpt>
            <trkpt lat="54.778360" lon="-8.413900">
                <time>2019-06-14T09:16:02Z</time>
            </trkpt>
            <trkpt lat="54.778530" lon="-8.414100">
                <time>2019-06-14T09:16:03Z</time>
            </trkpt>
            <trkpt lat="54.778680" lon="-8.414270">
                <time>2019-06-14T09:16:04Z</time>
            </trkpt>
            <trkpt lat="54.778820" lon="-8.414460">
                <time>2019-06-14T09:16:05Z</time>
            </trkpt>
            <trkpt lat="54.778960" lon="-8.414660">
                <time>2019-06-14T09:16:06Z</time>
            </trkpt>
            <trkpt lat="54.779090" lon="-8.414880">
                <time>2019-06-14T09:16:07Z</time>
            </trkpt>
            <trkpt lat="54.779210" lon="-8.415120">
                <time>2019-06-14T09:16:08Z</time>
            </trkpt>
            <trkpt lat="54.779340" lon="-8.415370">
                <time>2019-06-14T09:16:09Z</time>
            </trkpt>
            <trkpt lat="54.779460" lon="-8.415630">
                <time>2019-06-14T09:16:10Z</time>
            </trkpt>
            <trkpt lat="54.779590" lon="-8.415910">
                <time>2019-06-14T09:16:11Z</time>
            </trkpt>
            <trkpt lat="54.779720" lon="-8.416200">
                <time>2019-06-14T09:16:12Z</time>
            </trkpt>
            <trkpt lat="54.779850" lon="-8.416500">
                <time>2019-06-14T09:16:13Z</time>
            </trkpt>
            <trkpt lat="54.779960" lon="-8.416780">
                <time>2019-06-14T09:16:14Z</time>
            </trkpt>
            <trkpt lat="54.780080" lon="-8.417050">
                <time>2019-06-14T09:16:15Z</time>
            </trkpt>
            <trkpt lat="54.780200" lon="-8.417330">
                <time>2019-06-14T09:16:16Z</time>
            </trkpt>
            <trkpt lat="54.780310" lon="-8.417600">
                <time>2019-06-14T09:16:17Z</time>
            </trkpt>
            <trkpt lat="54.780420" lon="-8.417860">
                <time>2019-06-14T09:16:18Z</time>
            </trkpt>
            <trkpt lat="54.780520" lon="-8.418110">
                <time>2019-06-14T09:16:19Z</time>
            </trkpt>
            <trkpt lat="54.780620" lon="-8.418370">
                <time>2019-06-14T09:16:20Z</time>
            </trkpt>
            <trkpt lat="54.780720" lon="-8.418630">
                <time>2019-06-14T09:16:21Z</time>
            </trkpt>
            <trkpt lat="54.780830" lon="-8.418890">
                <time>2019-06-14T09:16:22Z</time>
            </trkpt>
            <trkpt lat="54.780930" lon="-8.419150">
                <time>2019-06-14T09:16:23Z</time>
            </trkpt>
            <trkpt lat="54.781040" lon="-8.419410">
                <time>2019-06-14T09:16:24Z</time>
            </trkpt>
            <trkpt lat="54.781140" lon="-8.419670">
                <time>2019-06-14T09:16:25Z</time>
            </trkpt>
            <trkpt lat="54.781250" lon="-8.419930">
                <time>2019-06-14T09:16:26Z</time>
            </trkpt>
            <trkpt lat="54.781360" lon="-8.420180">
                <time>2019-06-14T09:16:27Z</time>
            </trkpt>
            <trkpt lat="54.781490" lon="-8.420420">
                <time>2019-06-14T09:16:28Z</time>
            </trkpt>
            <trkpt lat="54.781630" lon="-8.420630">
                <time>2019-06-14T09:16:29Z</time>
            </trkpt>
            <trkpt lat="54.781790" lon="-8.420830">
                <time>2019-06-14T09:16:30Z</time>
            </trkpt>
            <trkpt lat="54.781960" lon="-8.421040">
                <time>2019-06-14T09:16:31Z</time>
            </trkpt>
            <trkpt lat="54.782140" lon="-8.421250">
                <time>2019-06-14T09:16:32Z</time>
            </trkpt>
            <trkpt lat="54.782310" lon="-8.421450">
                <time>2019-06-14T09:16:33Z</time>
            </trkpt>
            <trkpt lat="54.782470" lon="-8.421660">
                <time>2019-06-14T09:16:34Z</time>
            </trkpt>
            <trkpt lat="54.782630" lon="-8.421850">
                <time>2019-06-14T09:16:35Z</time>
            </trkpt>
            <trkpt lat="54.782790" lon="-8.422020">
                <time>2019-06-14T09:16:36Z</time>
            </trkpt>
            <trkpt lat="54.782950" lon="-8.422180">
                <time>2019-06-14T09:16:37Z</time>
            </trkpt>
            <trkpt lat="54.783130" lon="-8.422340">
                <time>2019-06-14T09:16:38Z</time>
            </trkpt>
            <trkpt lat="54.783320" lon="-8.422510">
                <time>2019-06-14T09:16:39Z</time>
            </trkpt>
            <trkpt lat="54.783530" lon="-8.422690">
                <time>2019-06-14T09:16:40Z</time>
            </trkpt>
            <trkpt lat="54.783740" lon="-8.422870">
                <time>2019-06-14T09:16:41Z</time>
            </trkpt>
            <trkpt lat="54.783950" lon="-8.423060">
                <time>2019-06-14T09:16:42Z</time>
            </trkpt>
            <trkpt lat="54.784160" lon="-8.423240">
                <time>2019-06-14T09:16:43Z</time>
            </trkpt>
            <trkpt lat="54.784370" lon="-8.423440">
                <time>2019-06-14T09:16:44Z</time>
            </trkpt>
            <trkpt lat="54.784570" lon="-8.423640">
                <time>2019-06-14T09:16:45Z</time>
            </trkpt>
            <trkpt lat="54.784780" lon="-8.423850">
                <time>2019-06-14T09:16:46Z</time>
            </trkpt>
            <trkpt lat="54.784980" lon="-8.424070">
                <time>2019-06-14T09:16:47Z</time>
            </trkpt>
            <trkpt lat="54.785190" lon="-8.424280">
                <time>2019-06-14T09:16:48Z</time>
            </trkpt>
            <trkpt lat="54.785390" lon="-8.424500">
                <time>2019-06-14T09:16:49Z</time>
            </trkpt>
            <trkpt lat="54.785590" lon="-8.424730">
                <time>2019-06-14T09:16:50Z</time>
            </trkpt>
            <trkpt lat="54.785790" lon="-8.424950">
                <time>2019-06-14T09:16:51Z</time>
            </trkpt>
            <trkpt lat="54.785990" lon="-8.425170">
                <time>2019-06-14T09:16:52Z</time>
            </trkpt>
            <trkpt lat="54.786190" lon="-8.425380">
                <time>2019-06-14T09:16:53Z</time>
            </trkpt>
            <trkpt lat="54.786400" lon="-8.425580">
                <time>2019-06-14T09:16:54Z</time>
            </trkpt>
            <trkpt lat="54.786610" lon="-8.425750">
                <time>2019-06-14T09:16:55Z</time>
            </trkpt>
            <trkpt lat="54.786810" lon="-8.425890">
                <time>2019-06-14T09:16:56Z</time>
            </trkpt>
            <trkpt lat="54.787020" lon="-8.426040">
                <time>2019-06-14T09:16:57Z</time>
            </trkpt>
            <trkpt lat="54.787220" lon="-8.426170">
                <time>2019-06-14T09:16:58Z</time>
            </trkpt>
            <trkpt lat="54.787420" lon="-8.426300">
                <time>2019-06-14T09:16:59Z</time>
            </trkpt>
            <trkpt lat="54.787630" lon="-8.426450">
                <time>2019-06-14T09:17:00Z</time>
            </trkpt>
            <trkpt lat="54.787850" lon="-8.426630">
                <time>2019-06-14T09:17:01Z</time>
            </trkpt>
            <trkpt lat="54.788090" lon="-8.426850">
                <time>2019-06-14T09:17:02Z</time>
            </trkpt>
            <trkpt lat="54.788350" lon="-8.427080">
                <time>2019-06-14T09:17:03Z</time>
            </trkpt>
            <trkpt lat="54.788620" lon="-8.427330">
                <time>2019-06-14T09:17:04Z</time>
            </trkpt>
            <trkpt lat="54.788910" lon="-8.427600">
                <time>2019-06-14T09:17:05Z</time>
            </trkpt>
            <trkpt lat="54.789190" lon="-8.427870">
                <time>2019-06-14T09:17:06Z</time>
            </trkpt>
            <trkpt lat="54.789460" lon="-8.428130">
                <time>2019-06-14T09:17:07Z</time>
            </trkpt>
            <trkpt lat="54.789700" lon="-8.428360">
                <time>2019-06-14T09:17:08Z</time>
            </trkpt>
            <trkpt lat="54.789940" lon="-8.428570">
                <time>2019-06-14T09:17:09Z</time>
            </trkpt>
            <trkpt lat="54.790190" lon="-8.428800">
                <time>2019-06-14T09:17:10Z</time>
            </trkpt>
            <trkpt lat="54.790440" lon="-8.429050">
                <time>2019-06-14T09:17:11Z</time>
            </trkpt>
            <trkpt lat="54.790660" lon="-8.429290">
                <time>2019-06-14T09:17:12Z</time>
            </trkpt>
            <trkpt lat="54.790880" lon="-8.429500">
                <time>2019-06-14T09:17:13Z</time>
            </trkpt>
            <trkpt lat="54.791070" lon="-8.429690">
                <time>2019-06-14T09:17:14Z</time>
            </trkpt>
            <trkpt lat="54.791260" lon="-8.429850">
                <time>2019-06-14T09:17:15Z</time>
            </trkpt>
            <trkpt lat="54.791440" lon="-8.429990">
                <time>2019-06-14T09:17:16Z</time>
            </trkpt>
            <trkpt lat="54.791610" lon="-8.430120">
                <time>2019-06-14T09:17:17Z</time>
            </trkpt>
            <trkpt lat="54.791780" lon="-8.430250">
                <time>2019-06-14T09:17:18Z</time>
            </trkpt>
            <trkpt lat="54.791940" lon="-8.430370">
                <time>2019-06-14T09:17:19Z</time>
            </trkpt>
            <trkpt lat="54.792090" lon="-8.430470">
                <time>2019-06-14T09:17:20Z</time>
            </trkpt>
            <trkpt lat="54.792230" lon="-8.430570">
                <time>2019-06-14T09:17:21Z</time>
            </trkpt>
            <trkpt lat="54.792370" lon="-8.430670">
                <time>2019-06-14T09:17:22Z</time>
            </trkpt>
            <trkpt lat="54.792520" lon="-8.430770">
                <time>2019-06-14T09:17:23Z</time>
            </trkpt>
            <trkpt lat="54.792670" lon="-8.430890">
                <time>2019-06-14T09:17:24Z</time>
            </trkpt>
            <trkpt lat="54.792850" lon="-8.431010">
                <time>2019-06-14T09:17:25Z</time>
            </trkpt>
            <trkpt lat="54.793020" lon="-8.431110">
                <time>2019-06-14T09:17:26Z</time>
            </trkpt>
            <trkpt lat="54.793180" lon="-8.431190">
                <time>2019-06-14T09:17:27Z</time>
            </trkpt>
            <trkpt lat="54.793320" lon="-8.431320">
                <time>2019-06-14T09:17:28Z</time>
            </trkpt>
            <trkpt lat="54.793430" lon="-8.431500">
                <time>2019-06-14T09:17:29Z</time>
            </trkpt>
            <trkpt lat="54.793530" lon="-8.431740">
                <time>2019-06-14T09:17:30Z</time>
            </trkpt>
            <trkpt lat="54.793630" lon="-8.432030">
                <time>2019-06-14T09:17:31Z</time>
            </trkpt>
            <trkpt lat="54.793730" lon="-8.432360">
                <time>2019-06-14T09:17:32Z</time>
            </trkpt>
            <trkpt lat="54.793830" lon="-8.432660">
                <time>2019-06-14T09:17:33Z</time>
            </trkpt>
            <trkpt lat="54.793920" lon="-8.432950">
                <time>2019-06-14T09:17:34Z</time>
            </trkpt>
            <trkpt lat="54.794010" lon="-8.433250">
                <time>2019-06-14T09:17:35Z</time>
            </trkpt>
            <trkpt lat="54.794080" lon="-8.433550">
                <time>2019-06-14T09:17:36Z</time>
            </trkpt>
            <trkpt lat="54.794130" lon="-8.433840">
                <time>2019-06-14T09:17:37Z</time>
            </trkpt>
            <trkpt lat="54.794180" lon="-8.434120">
                <time>2019-06-14T09:17:38Z</time>
            </trkpt>
            <trkpt lat="54.794210" lon="-8.434390">
                <time>2019-06-14T09:17:39Z</time>
            </trkpt>
            <trkpt lat="54.794240" lon="-8.434680">
                <time>2019-06-14T09:17:40Z</time>
            </trkpt>
            <trkpt lat="54.794280" lon="-8.434970">
                <time>2019-06-14T09:17:41Z</time>
            </trkpt>
            <trkpt lat="54.794330" lon="-8.435250">
                <time>2019-06-14T09:17:42Z</time>
            </trkpt>
            <trkpt lat="54.794410" lon="-8.435540">
                <time>2019-06-14T09:17:43Z</time>
            </trkpt>
            <trkpt lat="54.794490" lon="-8.435850">
                <time>2019-06-14T09:17:44Z</time>
            </trkpt>
            <trkpt lat="54.794560" lon="-8.436150">
                <time>2019-06-14T09:17:45Z</time>
            </trkpt>
            <trkpt lat="54.794620" lon="-8.436460">
                <time>2019-06-14T09:17:46Z</time>
            </trkpt>
            <trkpt lat="54.794670" lon="-8.436780">
                <time>2019-06-14T09:17:47Z</time>
            </trkpt>
            <trkpt lat="54.794690" lon="-8.437090">
                <time>2019-06-14T09:17:48Z</time>
            </trkpt>
            <trkpt lat="54.794700" lon="-8.437390">
                <time>2019-06-14T09:17:49Z</time>
            </trkpt>
            <trkpt lat="54.794680" lon="-8.437680">
                <time>2019-06-14T09:17:50Z</time>
            </trkpt>
            <trkpt lat="54.794670" lon="-8.437940">
                <time>2019-06-14T09:17:51Z</time>
            </trkpt>
            <trkpt lat="54.794660" lon="-8.438170">
                <time>2019-06-14T09:17:52Z</time>
            </trkpt>
            <trkpt lat="54.794670" lon="-8.438360">
                <time>2019-06-14T09:17:53Z</time>
            </trkpt>
            <trkpt lat="54.794700" lon="-8.438520">
                <time>2019-06-14T09:17:54Z</time>
            </trkpt>
            <trkpt lat="54.794760" lon="-8.438640">
                <time>2019-06-14T09:17:55Z</time>
            </trkpt>
            <trkpt lat="54.794840" lon="-8.438710">
                <time>2019-06-14T09:17:56Z</time>
            </trkpt>
            <trkpt lat="54.794940" lon="-8.438730">
                <time>2019-06-14T09:17:57Z</time>
            </trkpt>
            <trkpt lat="54.795040" lon="-8.438690">
                <time>2019-06-14T09:17:58Z</time>
            </trkpt>
            <trkpt lat="54.795170" lon="-8.438610">
                <time>2019-06-14T09:17:59Z</time>
            </trkpt>
            <trkpt lat="54.795300" lon="-8.438520">
                <time>2019-06-14T09:18:00Z</time>
            </trkpt>
            <trkpt lat="54.795440" lon="-8.438430">
                <time>2019-06-14T09:18:01Z</time>
            </trkpt>
            <trkpt lat="54.795570" lon="-8.438330">
                <time>2019-06-14T09:18:02Z</time>
            </trkpt>
            <trkpt lat="54.795710" lon="-8.438240">
                <time>2019-06-14T09:18:03Z</time>
            </trkpt>
            <trkpt lat="54.795850" lon="-8.438180">
                <time>2019-06-14T09:18:04Z</time>
            </trkpt>
            <trkpt lat="54.796000" lon="-8.438110">
                <time>2019-06-14T09:18:05Z</time>
            </trkpt>
            <trkpt lat="54.796160" lon="-8.438070">
                <time>2019-06-14T09:18:06Z</time>
            </trkpt>
            <trkpt lat="54.796310" lon="-8.438010">
                <time>2019-06-14T09:18:07Z</time>
            </trkpt>
            <trkpt lat="54.796470" lon="-8.437960">
                <time>2019-06-14T09:18:08Z</time>
            </trkpt>
            <trkpt lat="54.796640" lon="-8.437940">
                <time>2019-06-14T09:18:09Z</time>
            </trkpt>
            <trkpt lat="54.796820" lon="-8.437950">
                <time>2019-06-14T09:18:10Z</time>
            </trkpt>
            <trkpt lat="54.797010" lon="-8.438010">
                <time>2019-06-14T09:18:11Z</time>
            </trkpt>
            <trkpt lat="54.797200" lon="-8.438090">
                <time>2019-06-14T09:18:12Z</time>
            </trkpt>
            <trkpt lat="54.797390" lon="-8.438160">
                <time>2019-06-14T09:18:13Z</time>
            </trkpt>
            <trkpt lat="54.797550" lon="-8.438230">
                <time>2019-06-14T09:18:14Z</time>
            </trkpt>
            <trkpt lat="54.797690" lon="-8.438310">
                <time>2019-06-14T09:18:15Z</time>
            </trkpt>
            <trkpt lat="54.797820" lon="-8.438380">
                <time>2019-06-14T09:18:16Z</time>
            </trkpt>
            <trkpt lat="54.797950" lon="-8.438460">
                <time>2019-06-14T09:18:17Z</time>
            </trkpt>
            <trkpt lat="54.798070" lon="-8.438560">
                <time>2019-06-14T09:18:18Z</time>
            </trkpt>
            <trkpt lat="54.798200" lon="-8.438660">
                <time>2019-06-14T09:18:19Z</time>
            </trkpt>
            <trkpt lat="54.798330" lon="-8.438760">
                <time>2019-06-14T09:18:20Z</time>
            </trkpt>
            <trkpt lat="54.798480" lon="-8.438870">
                <time>2019-06-14T09:18:21Z</time>
            </trkpt>
            <trkpt lat="54.798630" lon="-8.438980">
                <time>2019-06-14T09:18:22Z</time>
            </trkpt>
            <trkpt lat="54.798810" lon="-8.439100">
                <time>2019-06-14T09:18:23Z</time>
            </trkpt>
            <trkpt lat="54.798980" lon="-8.439230">
                <time>2019-06-14T09:18:24Z</time>
            </trkpt>
            <trkpt lat="54.799150" lon="-8.439340">
                <time>2019-06-14T09:18:25Z</time>
            </trkpt>
            <trkpt lat="54.799310" lon="-8.439450">
                <time>2019-06-14T09:18:26Z</time>
            </trkpt>
            <trkpt lat="54.799460" lon="-8.439530">
                <time>2019-06-14T09:18:27Z</time>
            </trkpt>
            <trkpt lat="54.799590" lon="-8.439600">
                <time>2019-06-14T09:18:28Z</time>
            </trkpt>
            <trkpt lat="54.799730" lon="-8.439660">
                <time>2019-06-14T09:18:29Z</time>
            </trkpt>
            <trkpt lat="54.799870" lon="-8.439690">
                <time>2019-06-14T09:18:30Z</time>
            </trkpt>
            <trkpt lat="54.800020" lon="-8.439730">
                <time>2019-06-14T09:18:31Z</time>
            </trkpt>
            <trkpt lat="54.800150" lon="-8.439760">
                <time>2019-06-14T09:18:32Z</time>
            </trkpt>
            <trkpt lat="54.800290" lon="-8.439810">
                <time>2019-06-14T09:18:33Z</time>
            </trkpt>
            <trkpt lat="54.800420" lon="-8.439850">
                <time>2019-06-14T09:18:34Z</time>
            </trkpt>
            <trkpt lat="54.800570" lon="-8.439890">
                <time>2019-06-14T09:18:35Z</time>
            </trkpt>
            <trkpt lat="54.800710" lon="-8.439930">
                <time>2019-06-14T09:18:36Z</time>
            </trkpt>
            <trkpt lat="54.800860" lon="-8.439970">
                <time>2019-06-14T09:18:37Z</time>
            </trkpt>
            <trkpt lat="54.801000" lon="-8.440000">
                <time>2019-06-14T09:18:38Z</time>
            </trkpt>
            <trkpt lat="54.801150" lon="-8.440040">
                <time>2019-06-14T09:18:39Z</time>
            </trkpt>
            <trkpt lat="54.801280" lon="-8.440090">
                <time>2019-06-14T09:18:40Z</time>
            </trkpt>
            <trkpt lat="54.801420" lon="-8.440120">
                <time>2019-06-14T09:18:41Z</time>
            </trkpt>
            <trkpt lat="54.801560" lon="-8.440160">
                <time>2019-06-14T09:18:42Z</time>
            </trkpt>
            <trkpt lat="54.801710" lon="-8.440210">
                <time>2019-06-14T09:18:43Z</time>
            </trkpt>
            <trkpt lat="54.801860" lon="-8.440240">
                <time>2019-06-14T09:18:44Z</time>
            </trkpt>
            <trkpt lat="54.802020" lon="-8.440280">
                <time>2019-06-14T09:18:45Z</time>
            </trkpt>
            <trkpt lat="54.802190" lon="-8.440310">
                <time>2019-06-14T09:18:46Z</time>
            </trkpt>
            <trkpt lat="54.802360" lon="-8.440350">
                <time>2019-06-14T09:18:47Z</time>
            </trkpt>
            <trkpt lat="54.802530" lon="-8.440390">
                <time>2019-06-14T09:18:48Z</time>
            </trkpt>
            <trkpt lat="54.802700" lon="-8.440430">
                <time>2019-06-14T09:18:49Z</time>
            </trkpt>
            <trkpt lat="54.802870" lon="-8.440470">
                <time>2019-06-14T09:18:50Z</time>
            </trkpt>
            <trkpt lat="54.803060" lon="-8.440530">
                <time>2019-06-14T09:18:51Z</time>
            </trkpt>
            <trkpt lat="54.803230" lon="-8.440570">
                <time>2019-06-14T09:18:52Z</time>
            </trkpt>
            <trkpt lat="54.803390" lon="-8.440610">
                <time>2019-06-14T09:18:53Z</time>
            </trkpt>
            <trkpt lat="54.803540" lon="-8.440650">
                <time>2019-06-14T09:18:54Z</time>
            </trkpt>
            <trkpt lat="54.803700" lon="-8.440690">
                <time>2019-06-14T09:18:55Z</time>
            </trkpt>
            <trkpt lat="54.803850" lon="-8.440730">
                <time>2019-06-14T09:18:56Z</time>
            </trkpt>
            <trkpt lat="54.804010" lon="-8.440760">
                <time>2019-06-14T09:18:57Z</time>
            </trkpt>
            <trkpt lat="54.804170" lon="-8.440800">
                <time>2019-06-14T09:18:58Z</time>
            </trkpt>
            <trkpt lat="54.804330" lon="-8.440830">
                <time>2019-06-14T09:18:59Z</time>
            </trkpt>
            <trkpt lat="54.804480" lon="-8.440870">
                <time>2019-06-14T09:19:00Z</time>
            </trkpt>
            <trkpt lat="54.804630" lon="-8.440930">
                <time>2019-06-14T09:19:01Z</time>
            </trkpt>
            <trkpt lat="54.804780" lon="-8.441040">
                <time>2019-06-14T09:19:02Z</time>
            </trkpt>
            <trkpt lat="54.804940" lon="-8.441160">
                <time>2019-06-14T09:19:03Z</time>
            </trkpt>
            <trkpt lat="54.805090" lon="-8.441290">
                <time>2019-06-14T09:19:04Z</time>
            </trkpt>
            <trkpt lat="54.805240" lon="-8.441420">
                <time>2019-06-14T09:19:05Z</time>
            </trkpt>
            <trkpt lat="54.805390" lon="-8.441550">
                <time>2019-06-14T09:19:06Z</time>
            </trkpt>
            <trkpt lat="54.805520" lon="-8.441680">
                <time>2019-06-14T09:19:07Z</time>
            </trkpt>
            <trkpt lat="54.805660" lon="-8.441820">
                <time>2019-06-14T09:19:08Z</time>
            </trkpt>
            <trkpt lat="54.805790" lon="-8.441980">
                <time>2019-06-14T09:19:09Z</time>
            </trkpt>
            <trkpt lat="54.805920" lon="-8.442120">
                <time>2019-06-14T09:19:10Z</time>
            </trkpt>
            <trkpt lat="54.806060" lon="-8.442230">
                <time>2019-06-14T09:19:11Z</time>
            </trkpt>
            <trkpt lat="54.806220" lon="-8.442330">
                <time>2019-06-14T09:19:12Z</time>
            </trkpt>
            <trkpt lat="54.806380" lon="-8.442420">
                <time>2019-06-14T09:19:13Z</time>
            </trkpt>
            <trkpt lat="54.806530" lon="-8.442510">
                <time>2019-06-14T09:19:14Z</time>
            </trkpt>
            <trkpt lat="54.806690" lon="-8.442580">
                <time>2019-06-14T09:19:15Z</time>
            </trkpt>
            <trkpt lat="54.806840" lon="-8.442630">
                <time>2019-06-14T09:19:16Z</time>
            </trkpt>
            <trkpt lat="54.806970" lon="-8.442680">
                <time>2019-06-14T09:19:17Z</time>
            </trkpt>
            <trkpt lat="54.807100" lon="-8.442710">
                <time>2019-06-14T09:19:18Z</time>
            </trkpt>
            <trkpt lat="54.807220" lon="-8.442700">
                <time>2019-06-14T09:19:19Z</time>
            </trkpt>
            <trkpt lat="54.807350" lon="-8.442690">
                <time>2019-06-14T09:19:20Z</time>
            </trkpt>
            <trkpt lat="54.807500" lon="-8.442670">
                <time>2019-06-14T09:19:21Z</time>
            </trkpt>
            <trkpt lat="54.807650" lon="-8.442640">
                <time>2019-06-14T09:19:22Z</time>
            </trkpt>
            <trkpt lat="54.807800" lon="-8.442610">
                <time>2019-06-14T09:19:23Z</time>
            </trkpt>
            <trkpt lat="54.807950" lon="-8.442570">
                <time>2019-06-14T09:19:24Z</time>
            </trkpt>
            <trkpt lat="54.808100" lon="-8.442540">
                <time>2019-06-14T09:19:25Z</time>
            </trkpt>
            <trkpt lat="54.808260" lon="-8.442500">
                <time>2019-06-14T09:19:26Z</time>
            </trkpt>
            <trkpt lat="54.808430" lon="-8.442460">
                <time>2019-06-14T09:19:27Z</time>
            </trkpt>
            <trkpt lat="54.808600" lon="-8.442420">
                <time>2019-06-14T09:19:28Z</time>
            </trkpt>
            <trkpt lat="54.808790" lon="-8.442370">
                <time>2019-06-14T09:19:29Z</time>
            </trkpt>
            <trkpt lat="54.808970" lon="-8.442330">
                <time>2019-06-14T09:19:30Z</time>
            </trkpt>
            <trkpt lat="54.809160" lon="-8.442280">
                <time>2019-06-14T09:19:31Z</time>
            </trkpt>
            <trkpt lat="54.809340" lon="-8.442240">
                <time>2019-06-14T09:19:32Z</time>
            </trkpt>
            <trkpt lat="54.809510" lon="-8.442200">
                <time>2019-06-14T09:19:33Z</time>
            </trkpt>
            <trkpt lat="54.809670" lon="-8.442160">
                <time>2019-06-14T09:19:34Z</time>
            </trkpt>
            <trkpt lat="54.809840" lon="-8.442110">
                <time>2019-06-14T09:19:35Z</time>
            </trkpt>
            <trkpt lat="54.810010" lon="-8.442080">
                <time>2019-06-14T09:19:36Z</time>
            </trkpt>
            <trkpt lat="54.810170" lon="-8.442050">
                <time>2019-06-14T09:19:37Z</time>
            </trkpt>
            <trkpt lat="54.810310" lon="-8.442020">
                <time>2019-06-14T09:19:38Z</time>
            </trkpt>
            <trkpt lat="54.810450" lon="-8.441990">
                <time>2019-06-14T09:19:39Z</time>
            </trkpt>
            <trkpt lat="54.810590" lon="-8.441970">
                <time>2019-06-14T09:19:40Z</time>
            </trkpt>
            <trkpt lat="54.810720" lon="-8.441950">
                <time>2019-06-14T09:19:41Z</time>
            </trkpt>
            <trkpt lat="54.810860" lon="-8.441940">
                <time>2019-06-14T09:19:42Z</time>
            </trkpt>
            <trkpt lat="54.811000" lon="-8.441920">
                <time>2019-06-14T09:19:43Z</time>
            </trkpt>
            <trkpt lat="54.811150" lon="-8.441900">
                <time>2019-06-14T09:19:44Z</time>
            </trkpt>
            <trkpt lat="54.811300" lon="-8.441870">
                <time>2019-06-14T09:19:45Z</time>
            </trkpt>
            <trkpt lat="54.811460" lon="-8.441840">
                <time>2019-06-14T09:19:46Z</time>
            </trkpt>
            <trkpt lat="54.811610" lon="-8.441810">
                <time>2019-06-14T09:19:47Z</time>
            </trkpt>
            <trkpt lat="54.811770" lon="-8.441780">
                <time>2019-06-14T09:19:48Z</time>
            </trkpt>
            <trkpt lat="54.811930" lon="-8.441750">
                <time>2019-06-14T09:19:49Z</time>
            </trkpt>
            <trkpt lat="54.812090" lon="-8.441720">
                <time>2019-06-14T09:19:50Z</time>
            </trkpt>
            <trkpt lat="54.812250" lon="-8.441680">
                <time>2019-06-14T09:19:51Z</time>
            </trkpt>
            <trkpt lat="54.812410" lon="-8.441650">
                <time>2019-06-14T09:19:52Z</time>
            </trkpt>
            <trkpt lat="54.812570" lon="-8.441610">
                <time>2019-06-14T09:19:53Z</time>
            </trkpt>
            <trkpt lat="54.812730" lon="-8.441570">
                <time>2019-06-14T09:19:54Z</time>
            </trkpt>
            <trkpt lat="54.812900" lon="-8.441530">
                <time>2019-06-14T09:19:55Z</time>
            </trkpt>
            <trkpt lat="54.813070" lon="-8.441490">
                <time>2019-06-14T09:19:56Z</time>
            </trkpt>
            <trkpt lat="54.813250" lon="-8.441460">
                <time>2019-06-14T09:19:57Z</time>
            </trkpt>
            <trkpt lat="54.813430" lon="-8.441420">
                <time>2019-06-14T09:19:58Z</time>
            </trkpt>
            <trkpt lat="54.813610" lon="-8.441370">
                <time>2019-06-14T09:19:59Z</time>
            </trkpt>
            <trkpt lat="54.813780" lon="-8.441330">
                <time>2019-06-14T09:20:00Z</time>
            </trkpt>
            <trkpt lat="54.813940" lon="-8.441290">
                <time>2019-06-14T09:20:01Z</time>
            </trkpt>
            <trkpt lat="54.814110" lon="-8.441250">
                <time>2019-06-14T09:20:02Z</time>
            </trkpt>
            <trkpt lat="54.814280" lon="-8.441210">
                <time>2019-06-14T09:20:03Z</time>
            </trkpt>
            <trkpt lat="54.814460" lon="-8.441170">
                <time>2019-06-14T09:20:04Z</time>
            </trkpt>
            <trkpt lat="54.814630" lon="-8.441130">
                <time>2019-06-14T09:20:05Z</time>
            </trkpt>
            <trkpt lat="54.814780" lon="-8.441100">
                <time>2019-06-14T09:20:06Z</time>
            </trkpt>
            <trkpt lat="54.814930" lon="-8.441070">
                <time>2019-06-14T09:20:07Z</time>
            </trkpt>
            <trkpt lat="54.815060" lon="-8.441030">
                <time>2019-06-14T09:20:08Z</time>
            </trkpt>
            <trkpt lat="54.815200" lon="-8.440990">
                <time>2019-06-14T09:20:09Z</time>
            </trkpt>
            <trkpt lat="54.815350" lon="-8.440930">
                <time>2019-06-14T09:20:10Z</time>
            </trkpt>
            <trkpt lat="54.815490" lon="-8.440870">
                <time>2019-06-14T09:20:11Z</time>
            </trkpt>
            <trkpt lat="54.815640" lon="-8.440800">
                <time>2019-06-14T09:20:12Z</time>
            </trkpt>
            <trkpt lat="54.815800" lon="-8.440720">
                <time>2019-06-14T09:20:13Z</time>
            </trkpt>
            <trkpt lat="54.815970" lon="-8.440640">
                <time>2019-06-14T09:20:14Z</time>
            </trkpt>
            <trkpt lat="54.816130" lon="-8.440550">
                <time>2019-06-14T09:20:15Z</time>
            </trkpt>
            <trkpt lat="54.816300" lon="-8.440470">
                <time>2019-06-14T09:20:16Z</time>
            </trkpt>
            <trkpt lat="54.816460" lon="-8.440380">
                <time>2019-06-14T09:20:17Z</time>
            </trkpt>
            <trkpt lat="54.816620" lon="-8.440290">
                <time>2019-06-14T09:20:18Z</time>
            </trkpt>
            <trkpt lat="54.816780" lon="-8.440200">
                <time>2019-06-14T09:20:19Z</time>
            </trkpt>
            <trkpt lat="54.816940" lon="-8.440120">
                <time>2019-06-14T09:20:20Z</time>
            </trkpt>
            <trkpt lat="54.817090" lon="-8.440030">
                <time>2019-06-14T09:20:21Z</time>
            </trkpt>
            <trkpt lat="54.817230" lon="-8.439960">
                <time>2019-06-14T09:20:22Z</time>
            </trkpt>
            <trkpt lat="54.817360" lon="-8.439890">
                <time>2019-06-14T09:20:23Z</time>
            </trkpt>
            <trkpt lat="54.817490" lon="-8.439840">
                <time>2019-06-14T09:20:24Z</time>
            </trkpt>
            <trkpt lat="54.817620" lon="-8.439770">
                <time>2019-06-14T09:20:25Z</time>
            </trkpt>
            <trkpt lat="54.817760" lon="-8.439700">
                <time>2019-06-14T09:20:26Z</time>
            </trkpt>
            <trkpt lat="54.817920" lon="-8.439620">
                <time>2019-06-14T09:20:27Z</time>
            </trkpt>
            <trkpt lat="54.818080" lon="-8.439530">
                <time>2019-06-14T09:20:28Z</time>
            </trkpt>
            <trkpt lat="54.818250" lon="-8.439440">
                <time>2019-06-14T09:20:29Z</time>
            </trkpt>
            <trkpt lat="54.818430" lon="-8.439340">
                <time>2019-06-14T09:20:30Z</time>
            </trkpt>
            <trkpt lat="54.818610" lon="-8.439260">
                <time>2019-06-14T09:20:31Z</time>
            </trkpt>
            <trkpt lat="54.818810" lon="-8.439160">
                <time>2019-06-14T09:20:32Z</time>
            </trkpt>
            <trkpt lat="54.818990" lon="-8.439080">
                <time>2019-06-14T09:20:33Z</time>
            </trkpt>
            <trkpt lat="54.819170" lon="-8.438990">
                <time>2019-06-14T09:20:34Z</time>
            </trkpt>
            <trkpt lat="54.819340" lon="-8.438910">
                <time>2019-06-14T09:20:35Z</time>
            </trkpt>
            <trkpt lat="54.819510" lon="-8.438830">
                <time>2019-06-14T09:20:36Z</time>
            </trkpt>
            <trkpt lat="54.819670" lon="-8.438760">
                <time>2019-06-14T09:20:37Z</time>
            </trkpt>
            <trkpt lat="54.819820" lon="-8.438690">
                <time>2019-06-14T09:20:38Z</time>
            </trkpt>
            <trkpt lat="54.819960" lon="-8.438620">
                <time>2019-06-14T09:20:39Z</time>
            </trkpt>
            <trkpt lat="54.820110" lon="-8.438540">
                <time>2019-06-14T09:20:40Z</time>
            </trkpt>
            <trkpt lat="54.820270" lon="-8.438470">
                <time>2019-06-14T09:20:41Z</time>
            </trkpt>
            <trkpt lat="54.820430" lon="-8.438390">
                <time>2019-06-14T09:20:42Z</time>
            </trkpt>
            <trkpt lat="54.820590" lon="-8.438320">
                <time>2019-06-14T09:20:43Z</time>
            </trkpt>
            <trkpt lat="54.820750" lon="-8.438250">
                <time>2019-06-14T09:20:44Z</time>
            </trkpt>
            <trkpt lat="54.820900" lon="-8.438180">
                <time>2019-06-14T09:20:45Z</time>
            </trkpt>
            <trkpt lat="54.821040" lon="-8.438110">
                <time>2019-06-14T09:20:46Z</time>
            </trkpt>
            <trkpt lat="54.821190" lon="-8.438030">
                <time>2019-06-14T09:20:47Z</time>
            </trkpt>
            <trkpt lat="54.821320" lon="-8.437930">
                <time>2019-06-14T09:20:48Z</time>
            </trkpt>
            <trkpt lat="54.821450" lon="-8.437810">
                <time>2019-06-14T09:20:49Z</time>
            </trkpt>
            <trkpt lat="54.821560" lon="-8.437680">
                <time>2019-06-14T09:20:50Z</time>
            </trkpt>
            <trkpt lat="54.821670" lon="-8.437550">
                <time>2019-06-14T09:20:51Z</time>
            </trkpt>
            <trkpt lat="54.821770" lon="-8.437430">
                <time>2019-06-14T09:20:52Z</time>
            </trkpt>
            <trkpt lat="54.821870" lon="-8.437320">
                <time>2019-06-14T09:20:53Z</time>
            </trkpt>
            <trkpt lat="54.821970" lon="-8.437240">
                <time>2019-06-14T09:20:54Z</time>
            </trkpt>
            <trkpt lat="54.822070" lon="-8.437200">
                <time>2019-06-14T09:20:55Z</time>
            </trkpt>
            <trkpt lat="54.822160" lon="-8.437230">
                <time>2019-06-14T09:20:56Z</time>
            </trkpt>
            <trkpt lat="54.822260" lon="-8.437300">
                <time>2019-06-14T09:20:57Z</time>
            </trkpt>
            <trkpt lat="54.822360" lon="-8.437380">
                <time>2019-06-14T09:20:58Z</time>
            </trkpt>
            <trkpt lat="54.822460" lon="-8.437460">
                <time>2019-06-14T09:20:59Z</time>
            </trkpt>
            <trkpt lat="54.822560" lon="-8.437530">
                <time>2019-06-14T09:21:00Z</time>
            </trkpt>
            <trkpt lat="54.822650" lon="-8.437610">
                <time>2019-06-14T09:21:01Z</time>
            </trkpt>
            <trkpt lat="54.822750" lon="-8.437700">
                <time>2019-06-14T09:21:02Z</time>
            </trkpt>
            <trkpt lat="54.822850" lon="-8.437790">
                <time>2019-06-14T09:21:03Z</time>
            </trkpt>
            <trkpt lat="54.822960" lon="-8.437880">
                <time>2019-06-14T09:21:04Z</time>
            </trkpt>
            <trkpt lat="54.823050" lon="-8.437960">
                <time>2019-06-14T09:21:05Z</time>
            </trkpt>
            <trkpt lat="54.823140" lon="-8.438040">
                <time>2019-06-14T09:21:06Z</time>
            </trkpt>
            <trkpt lat="54.823230" lon="-8.438130">
                <time>2019-06-14T09:21:07Z</time>
            </trkpt>
            <trkpt lat="54.823320" lon="-8.438210">
                <time>2019-06-14T09:21:08Z</time>
            </trkpt>
            <trkpt lat="54.823420" lon="-8.438280">
                <time>2019-06-14T09:21:09Z</time>
            </trkpt>
            <trkpt lat="54.823520" lon="-8.438340">
                <time>2019-06-14T09:21:10Z</time>
            </trkpt>
            <trkpt lat="54.823640" lon="-8.438370">
                <time>2019-06-14T09:21:11Z</time>
            </trkpt>
            <trkpt lat="54.823760" lon="-8.438390">
                <time>2019-06-14T09:21:12Z</time>
            </trkpt>
            <trkpt lat="54.823880" lon="-8.438400">
                <time>2019-06-14T09:21:13Z</time>
            </trkpt>
            <trkpt lat="54.824000" lon="-8.438390">
                <time>2019-06-14T09:21:14Z</time>
            </trkpt>
            <trkpt lat="54.824130" lon="-8.438400">
                <time>2019-06-14T09:21:15Z</time>
            </trkpt>
            <trkpt lat="54.824250" lon="-8.438400">
                <time>2019-06-14T09:21:16Z</time>
            </trkpt>
            <trkpt lat="54.824370" lon="-8.438400">
                <time>2019-06-14T09:21:17Z</time>
            </trkpt>
            <trkpt lat="54.824500" lon="-8.438390">
                <time>2019-06-14T09:21:18Z</time>
            </trkpt>
            <trkpt lat="54.824630" lon="-8.438390">
                <time>2019-06-14T09:21:19Z</time>
            </trkpt>
            <trkpt lat="54.824760" lon="-8.438390">
                <time>2019-06-14T09:21:20Z</time>
            </trkpt>
            <trkpt lat="54.824900" lon="-8.438390">
                <time>2019-06-14T09:21:21Z</time>
            </trkpt>
            <trkpt lat="54.825040" lon="-8.438390">
                <time>2019-06-14T09:21:22Z</time>
            </trkpt>
            <trkpt lat="54.825180" lon="-8.438390">
                <time>2019-06-14T09:21:23Z</time>
            </trkpt>
            <trkpt lat="54.825320" lon="-8.438360">
                <time>2019-06-14T09:21:24Z</time>
            </trkpt>
            <trkpt lat="54.825440" lon="-8.438280">
                <time>2019-06-14T09:21:25Z</time>
            </trkpt>
            <trkpt lat="54.825520" lon="-8.438150">
                <time>2019-06-14T09:21:26Z</time>
            </trkpt>
            <trkpt lat="54.825590" lon="-8.438020">
                <time>2019-06-14T09:21:27Z</time>
            </trkpt>
            <trkpt lat="54.825660" lon="-8.437900">
                <time>2019-06-14T09:21:28Z</time>
            </trkpt>
            <trkpt lat="54.825740" lon="-8.437790">
                <time>2019-06-14T09:21:29Z</time>
            </trkpt>
            <trkpt lat="54.825830" lon="-8.437750">
                <time>2019-06-14T09:21:30Z</time>
            </trkpt>
            <trkpt lat="54.825930" lon="-8.437720">
                <time>2019-06-14T09:21:31Z</time>
            </trkpt>
            <trkpt lat="54.826010" lon="-8.437740">
                <time>2019-06-14T09:21:32Z</time>
            </trkpt>
            <trkpt lat="54.826110" lon="-8.437810">
                <time>2019-06-14T09:21:33Z</time>
            </trkpt>
            <trkpt lat="54.826210" lon="-8.437930">
                <time>2019-06-14T09:21:34Z</time>
            </trkpt>
            <trkpt lat="54.826310" lon="-8.438070">
                <time>2019-06-14T09:21:35Z</time>
            </trkpt>
            <trkpt lat="54.826400" lon="-8.438200">
                <time>2019-06-14T09:21:36Z</time>
            </trkpt>
            <trkpt lat="54.826490" lon="-8.438280">
                <time>2019-06-14T09:21:37Z</time>
            </trkpt>
            <trkpt lat="54.826600" lon="-8.438320">
                <time>2019-06-14T09:21:38Z</time>
            </trkpt>
            <trkpt lat="54.826730" lon="-8.438320">
                <time>2019-06-14T09:21:39Z</time>
            </trkpt>
            <trkpt lat="54.826890" lon="-8.438320">
                <time>2019-06-14T09:21:40Z</time>
            </trkpt>
            <trkpt lat="54.827040" lon="-8.438320">
                <time>2019-06-14T09:21:41Z</time>
            </trkpt>
            <trkpt lat="54.827200" lon="-8.438330">
                <time>2019-06-14T09:21:42Z</time>
            </trkpt>
            <trkpt lat="54.827370" lon="-8.438340">
                <time>2019-06-14T09:21:43Z</time>
            </trkpt>
            <trkpt lat="54.827540" lon="-8.438350">
                <time>2019-06-14T09:21:44Z</time>
            </trkpt>
            <trkpt lat="54.827700" lon="-8.438360">
                <time>2019-06-14T09:21:45Z</time>
            </trkpt>
            <trkpt lat="54.827860" lon="-8.438380">
                <time>2019-06-14T09:21:46Z</time>
            </trkpt>
            <trkpt lat="54.828010" lon="-8.438410">
                <time>2019-06-14T09:21:47Z</time>
            </trkpt>
            <trkpt lat="54.828160" lon="-8.438440">
                <time>2019-06-14T09:21:48Z</time>
            </trkpt>
            <trkpt lat="54.828300" lon="-8.438460">
                <time>2019-06-14T09:21:49Z</time>
            </trkpt>
            <trkpt lat="54.828470" lon="-8.438470">
                <time>2019-06-14T09:21:50Z</time>
            </trkpt>
            <trkpt lat="54.828640" lon="-8.438460">
                <time>2019-06-14T09:21:51Z</time>
            </trkpt>
            <trkpt lat="54.828820" lon="-8.438460">
                <time>2019-06-14T09:21:52Z</time>
            </trkpt>
            <trkpt lat="54.829010" lon="-8.438460">
                <time>2019-06-14T09:21:53Z</time>
            </trkpt>
            <trkpt lat="54.829210" lon="-8.438460">
                <time>2019-06-14T09:21:54Z</time>
            </trkpt>
            <trkpt lat="54.829420" lon="-8.438460">
                <time>2019-06-14T09:21:55Z</time>
            </trkpt>
            <trkpt lat="54.829630" lon="-8.438460">
                <time>2019-06-14T09:21:56Z</time>
            </trkpt>
            <trkpt lat="54.829840" lon="-8.438460">
                <time>2019-06-14T09:21:57Z</time>
            </trkpt>
            <trkpt lat="54.830050" lon="-8.438440">
                <time>2019-06-14T09:21:58Z</time>
            </trkpt>
            <trkpt lat="54.830250" lon="-8.438420">
                <time>2019-06-14T09:21:59Z</time>
            </trkpt>
            <trkpt lat="54.830440" lon="-8.438420">
                <time>2019-06-14T09:22:00Z</time>
            </trkpt>
            <trkpt lat="54.830620" lon="-8.438410">
                <time>2019-06-14T09:22:01Z</time>
            </trkpt>
            <trkpt lat="54.830810" lon="-8.438400">
                <time>2019-06-14T09:22:02Z</time>
            </trkpt>
            <trkpt lat="54.831000" lon="-8.438390">
                <time>2019-06-14T09:22:03Z</time>
            </trkpt>
            <trkpt lat="54.831190" lon="-8.438380">
                <time>2019-06-14T09:22:04Z</time>
            </trkpt>
            <trkpt lat="54.831370" lon="-8.438380">
                <time>2019-06-14T09:22:05Z</time>
            </trkpt>
            <trkpt lat="54.831550" lon="-8.438380">
                <time>2019-06-14T09:22:06Z</time>
            </trkpt>
            <trkpt lat="54.831730" lon="-8.438380">
                <time>2019-06-14T09:22:07Z</time>
            </trkpt>
            <trkpt lat="54.831910" lon="-8.438380">
                <time>2019-06-14T09:22:08Z</time>
            </trkpt>
            <trkpt lat="54.832080" lon="-8.438360">
                <time>2019-06-14T09:22:09Z</time>
            </trkpt>
            <trkpt lat="54.832230" lon="-8.438320">
                <time>2019-06-14T09:22:10Z</time>
            </trkpt>
            <trkpt lat="54.832370" lon="-8.438280">
                <time>2019-06-14T09:22:11Z</time>
            </trkpt>
            <trkpt lat="54.832480" lon="-8.438220">
                <time>2019-06-14T09:22:12Z</time>
            </trkpt>
            <trkpt lat="54.832570" lon="-8.438150">
                <time>2019-06-14T09:22:13Z</time>
            </trkpt>
            <trkpt lat="54.832650" lon="-8.438040">
                <time>2019-06-14T09:22:14Z</time>
            </trkpt>
            <trkpt lat="54.832710" lon="-8.437930">
                <time>2019-06-14T09:22:15Z</time>
            </trkpt>
            <trkpt lat="54.832770" lon="-8.437800">
                <time>2019-06-14T09:22:16Z</time>
            </trkpt>
            <trkpt lat="54.832840" lon="-8.437650">
                <time>2019-06-14T09:22:17Z</time>
            </trkpt>
            <trkpt lat="54.832900" lon="-8.437490">
                <time>2019-06-14T09:22:18Z</time>
            </trkpt>
            <trkpt lat="54.832960" lon="-8.437320">
                <time>2019-06-14T09:22:19Z</time>
            </trkpt>
            <trkpt lat="54.833020" lon="-8.437160">
                <time>2019-06-14T09:22:20Z</time>
            </trkpt>
            <trkpt lat="54.833080" lon="-8.437010">
                <time>2019-06-14T09:22:21Z</time>
            </trkpt>
            <trkpt lat="54.833150" lon="-8.436860">
                <time>2019-06-14T09:22:22Z</time>
            </trkpt>
            <trkpt lat="54.833220" lon="-8.436700">
                <time>2019-06-14T09:22:23Z</time>
            </trkpt>
            <trkpt lat="54.833310" lon="-8.436550">
                <time>2019-06-14T09:22:24Z</time>
            </trkpt>
            <trkpt lat="54.833410" lon="-8.436420">
                <time>2019-06-14T09:22:25Z</time>
            </trkpt>
            <trkpt lat="54.833500" lon="-8.436330">
                <time>2019-06-14T09:22:26Z</time>
            </trkpt>
            <trkpt lat="54.833600" lon="-8.436260">
                <time>2019-06-14T09:22:27Z</time>
            </trkpt>
            <trkpt lat="54.833710" lon="-8.436190">
                <time>2019-06-14T09:22:28Z</time>
            </trkpt>
            <trkpt lat="54.833820" lon="-8.436100">
                <time>2019-06-14T09:22:29Z</time>
            </trkpt>
            <trkpt lat="54.833920" lon="-8.435990">
                <time>2019-06-14T09:22:30Z</time>
            </trkpt>
            <trkpt lat="54.834020" lon="-8.435870">
                <time>2019-06-14T09:22:31Z</time>
            </trkpt>
            <trkpt lat="54.834110" lon="-8.435740">
                <time>2019-06-14T09:22:32Z</time>
            </trkpt>
            <trkpt lat="54.834180" lon="-8.435580">
                <time>2019-06-14T09:22:33Z</time>
            </trkpt>
            <trkpt lat="54.834240" lon="-8.435380">
                <time>2019-06-14T09:22:34Z</time>
            </trkpt>
            <trkpt lat="54.834300" lon="-8.435170">
                <time>2019-06-14T09:22:35Z</time>
            </trkpt>
            <trkpt lat="54.834360" lon="-8.434940">
                <time>2019-06-14T09:22:36Z</time>
            </trkpt>
            <trkpt lat="54.834420" lon="-8.434730">
                <time>2019-06-14T09:22:37Z</time>
            </trkpt>
            <trkpt lat="54.834470" lon="-8.434530">
                <time>2019-06-14T09:22:38Z</time>
            </trkpt>
            <trkpt lat="54.834520" lon="-8.434330">
                <time>2019-06-14T09:22:39Z</time>
            </trkpt>
            <trkpt lat="54.834570" lon="-8.434140">
                <time>2019-06-14T09:22:40Z</time>
            </trkpt>
            <trkpt lat="54.834630" lon="-8.433940">
                <time>2019-06-14T09:22:41Z</time>
            </trkpt>
            <trkpt lat="54.834680" lon="-8.433710">
                <time>2019-06-14T09:22:42Z</time>
            </trkpt>
            <trkpt lat="54.834740" lon="-8.433470">
                <time>2019-06-14T09:22:43Z</time>
            </trkpt>
            <trkpt lat="54.834800" lon="-8.433220">
                <time>2019-06-14T09:22:44Z</time>
            </trkpt>
            <trkpt lat="54.834870" lon="-8.432950">
                <time>2019-06-14T09:22:45Z</time>
            </trkpt>
            <trkpt lat="54.834940" lon="-8.432680">
                <time>2019-06-14T09:22:46Z</time>
            </trkpt>
            <trkpt lat="54.835020" lon="-8.432430">
                <time>2019-06-14T09:22:47Z</time>
            </trkpt>
            <trkpt lat="54.835080" lon="-8.432180">
                <time>2019-06-14T09:22:48Z</time>
            </trkpt>
            <trkpt lat="54.835150" lon="-8.431950">
                <time>2019-06-14T09:22:49Z</time>
            </trkpt>
            <trkpt lat="54.835210" lon="-8.431730">
                <time>2019-06-14T09:22:50Z</time>
            </trkpt>
            <trkpt lat="54.835270" lon="-8.431520">
                <time>2019-06-14T09:22:51Z</time>
            </trkpt>
            <trkpt lat="54.835320" lon="-8.431330">
                <time>2019-06-14T09:22:52Z</time>
            </trkpt>
            <trkpt lat="54.835370" lon="-8.431130">
                <time>2019-06-14T09:22:53Z</time>
            </trkpt>
            <trkpt lat="54.835420" lon="-8.430940">
                <time>2019-06-14T09:22:54Z</time>
            </trkpt>
            <trkpt lat="54.835470" lon="-8.430740">
                <time>2019-06-14T09:22:55Z</time>
            </trkpt>
            <trkpt lat="54.835520" lon="-8.430560">
                <time>2019-06-14T09:22:56Z</time>
            </trkpt>
            <trkpt lat="54.835570" lon="-8.430370">
                <time>2019-06-14T09:22:57Z</time>
            </trkpt>
            <trkpt lat="54.835620" lon="-8.430180">
                <time>2019-06-14T09:22:58Z</time>
            </trkpt>
            <trkpt lat="54.835680" lon="-8.429990">
                <time>2019-06-14T09:22:59Z</time>
            </trkpt>
            <trkpt lat="54.835750" lon="-8.429780">
                <time>2019-06-14T09:23:00Z</time>
            </trkpt>
            <trkpt lat="54.835820" lon="-8.429560">
                <time>2019-06-14T09:23:01Z</time>
            </trkpt>
            <trkpt lat="54.835900" lon="-8.429330">
                <time>2019-06-14T09:23:02Z</time>
            </trkpt>
            <trkpt lat="54.835980" lon="-8.429090">
                <time>2019-06-14T09:23:03Z</time>
            </trkpt>
            <trkpt lat="54.836070" lon="-8.428860">
                <time>2019-06-14T09:23:04Z</time>
            </trkpt>
            <trkpt lat="54.836140" lon="-8.428630">
                <time>2019-06-14T09:23:05Z</time>
            </trkpt>
            <trkpt lat="54.836220" lon="-8.428390">
                <time>2019-06-14T09:23:06Z</time>
            </trkpt>
            <trkpt lat="54.836300" lon="-8.428160">
                <time>2019-06-14T09:23:07Z</time>
            </trkpt>
            <trkpt lat="54.836370" lon="-8.427920">
                <time>2019-06-14T09:23:08Z</time>
            </trkpt>
            <trkpt lat="54.836450" lon="-8.427690">
                <time>2019-06-14T09:23:09Z</time>
            </trkpt>
            <trkpt lat="54.836520" lon="-8.427440">
                <time>2019-06-14T09:23:10Z</time>
            </trkpt>
            <trkpt lat="54.836590" lon="-8.427190">
                <time>2019-06-14T09:23:11Z</time>
            </trkpt>
            <trkpt lat="54.836660" lon="-8.426930">
                <time>2019-06-14T09:23:12Z</time>
            </trkpt>
            <trkpt lat="54.836730" lon="-8.426690">
                <time>2019-06-14T09:23:13Z</time>
            </trkpt>
            <trkpt lat="54.836790" lon="-8.426460">
                <time>2019-06-14T09:23:14Z</time>
            </trkpt>
            <trkpt lat="54.836850" lon="-8.426230">
                <time>2019-06-14T09:23:15Z</time>
            </trkpt>
            <trkpt lat="54.836910" lon="-8.426020">
                <time>2019-06-14T09:23:16Z</time>
            </trkpt>
            <trkpt lat="54.836970" lon="-8.425800">
                <time>2019-06-14T09:23:17Z</time>
            </trkpt>
            <trkpt lat="54.837030" lon="-8.425580">
                <time>2019-06-14T09:23:18Z</time>
            </trkpt>
            <trkpt lat="54.837090" lon="-8.425360">
                <time>2019-06-14T09:23:19Z</time>
            </trkpt>
            <trkpt lat="54.837150" lon="-8.425150">
                <time>2019-06-14T09:23:20Z</time>
            </trkpt>
            <trkpt lat="54.837200" lon="-8.424950">
                <time>2019-06-14T09:23:21Z</time>
            </trkpt>
            <trkpt lat="54.837240" lon="-8.424730">
                <time>2019-06-14T09:23:22Z</time>
            </trkpt>
            <trkpt lat="54.837280" lon="-8.424510">
                <time>2019-06-14T09:23:23Z</time>
            </trkpt>
            <trkpt lat="54.837310" lon="-8.424270">
                <time>2019-06-14T09:23:24Z</time>
            </trkpt>
            <trkpt lat="54.837320" lon="-8.424030">
                <time>2019-06-14T09:23:25Z</time>
            </trkpt>
            <trkpt lat="54.837330" lon="-8.423770">
                <time>2019-06-14T09:23:26Z</time>
            </trkpt>
            <trkpt lat="54.837340" lon="-8.423510">
                <time>2019-06-14T09:23:27Z</time>
            </trkpt>
            <trkpt lat="54.837360" lon="-8.423230">
                <time>2019-06-14T09:23:28Z</time>
            </trkpt>
            <trkpt lat="54.837380" lon="-8.422950">
                <time>2019-06-14T09:23:29Z</time>
            </trkpt>
            <trkpt lat="54.837400" lon="-8.422660">
                <time>2019-06-14T09:23:30Z</time>
            </trkpt>
            <trkpt lat="54.837430" lon="-8.422380">
                <time>2019-06-14T09:23:31Z</time>
            </trkpt>
            <trkpt lat="54.837450" lon="-8.422090">
                <time>2019-06-14T09:23:32Z</time>
            </trkpt>
            <trkpt lat="54.837480" lon="-8.421800">
                <time>2019-06-14T09:23:33Z</time>
            </trkpt>
            <trkpt lat="54.837500" lon="-8.421510">
                <time>2019-06-14T09:23:34Z</time>
            </trkpt>
            <trkpt lat="54.837520" lon="-8.421220">
                <time>2019-06-14T09:23:35Z</time>
            </trkpt>
            <trkpt lat="54.837540" lon="-8.420930">
                <time>2019-06-14T09:23:36Z</time>
            </trkpt>
            <trkpt lat="54.837550" lon="-8.420650">
                <time>2019-06-14T09:23:37Z</time>
            </trkpt>
            <trkpt lat="54.837560" lon="-8.420370">
                <time>2019-06-14T09:23:38Z</time>
            </trkpt>
            <trkpt lat="54.837580" lon="-8.420090">
                <time>2019-06-14T09:23:39Z</time>
            </trkpt>
            <trkpt lat="54.837610" lon="-8.419800">
                <time>2019-06-14T09:23:40Z</time>
            </trkpt>
            <trkpt lat="54.837640" lon="-8.419520">
                <time>2019-06-14T09:23:41Z</time>
            </trkpt>
            <trkpt lat="54.837680" lon="-8.419230">
                <time>2019-06-14T09:23:42Z</time>
            </trkpt>
            <trkpt lat="54.837720" lon="-8.418940">
                <time>2019-06-14T09:23:43Z</time>
            </trkpt>
            <trkpt lat="54.837750" lon="-8.418650">
                <time>2019-06-14T09:23:44Z</time>
            </trkpt>
            <trkpt lat="54.837770" lon="-8.418340">
                <time>2019-06-14T09:23:45Z</time>
            </trkpt>
            <trkpt lat="54.837790" lon="-8.418060">
                <time>2019-06-14T09:23:46Z</time>
            </trkpt>
            <trkpt lat="54.837810" lon="-8.417770">
                <time>2019-06-14T09:23:47Z</time>
            </trkpt>
            <trkpt lat="54.837840" lon="-8.417510">
                <time>2019-06-14T09:23:48Z</time>
            </trkpt>
            <trkpt lat="54.837870" lon="-8.417260">
                <time>2019-06-14T09:23:49Z</time>
            </trkpt>
            <trkpt lat="54.837910" lon="-8.417030">
                <time>2019-06-14T09:23:50Z</time>
            </trkpt>
            <trkpt lat="54.837950" lon="-8.416810">
                <time>2019-06-14T09:23:51Z</time>
            </trkpt>
            <trkpt lat="54.837990" lon="-8.416570">
                <time>2019-06-14T09:23:52Z</time>
            </trkpt>
            <trkpt lat="54.838020" lon="-8.416330">
                <time>2019-06-14T09:23:53Z</time>
            </trkpt>
            <trkpt lat="54.838060" lon="-8.416080">
                <time>2019-06-14T09:23:54Z</time>
            </trkpt>
            <trkpt lat="54.838100" lon="-8.415820">
                <time>2019-06-14T09:23:55Z</time>
            </trkpt>
            <trkpt lat="54.838130" lon="-8.415590">
                <time>2019-06-14T09:23:56Z</time>
            </trkpt>
            <trkpt lat="54.838160" lon="-8.415350">
                <time>2019-06-14T09:23:57Z</time>
            </trkpt>
            <trkpt lat="54.838180" lon="-8.415110">
                <time>2019-06-14T09:23:58Z</time>
            </trkpt>
            <trkpt lat="54.838210" lon="-8.414850">
                <time>2019-06-14T09:23:59Z</time>
            </trkpt>
            <trkpt lat="54.838240" lon="-8.414600">
                <time>2019-06-14T09:24:00Z</time>
            </trkpt>
            <trkpt lat="54.838280" lon="-8.414360">
                <time>2019-06-14T09:24:01Z</time>
            </trkpt>
            <trkpt lat="54.838330" lon="-8.414150">
                <time>2019-06-14T09:24:02Z</time>
            </trkpt>
            <trkpt lat="54.838370" lon="-8.413940">
                <time>2019-06-14T09:24:03Z</time>
            </trkpt>
            <trkpt lat="54.838390" lon="-8.413730">
                <time>2019-06-14T09:24:04Z</time>
            </trkpt>
            <trkpt lat="54.838400" lon="-8.413500">
                <time>2019-06-14T09:24:05Z</time>
            </trkpt>
            <trkpt lat="54.838390" lon="-8.413260">
                <time>2019-06-14T09:24:06Z</time>
            </trkpt>
            <trkpt lat="54.838380" lon="-8.412990">
                <time>2019-06-14T09:24:07Z</time>
            </trkpt>
            <trkpt lat="54.838380" lon="-8.412720">
                <time>2019-06-14T09:24:08Z</time>
            </trkpt>
            <trkpt lat="54.838370" lon="-8.412450">
                <time>2019-06-14T09:24:09Z</time>
            </trkpt>
            <trkpt lat="54.838360" lon="-8.412200">
                <time>2019-06-14T09:24:10Z</time>
            </trkpt>
            <trkpt lat="54.838350" lon="-8.411930">
                <time>2019-06-14T09:24:11Z</time>
            </trkpt>
            <trkpt lat="54.838340" lon="-8.411670">
                <time>2019-06-14T09:24:12Z</time>
            </trkpt>
            <trkpt lat="54.838330" lon="-8.411420">
                <time>2019-06-14T09:24:13Z</time>
            </trkpt>
            <trkpt lat="54.838310" lon="-8.411180">
                <time>2019-06-14T09:24:14Z</time>
            </trkpt>
            <trkpt lat="54.838290" lon="-8.410950">
                <time>2019-06-14T09:24:15Z</time>
            </trkpt>
            <trkpt lat="54.838260" lon="-8.410740">
                <time>2019-06-14T09:24:16Z</time>
            </trkpt>
            <trkpt lat="54.838230" lon="-8.410530">
                <time>2019-06-14T09:24:17Z</time>
            </trkpt>
            <trkpt lat="54.838200" lon="-8.410320">
                <time>2019-06-14T09:24:18Z</time>
            </trkpt>
            <trkpt lat="54.838170" lon="-8.410100">
                <time>2019-06-14T09:24:19Z</time>
            </trkpt>
            <trkpt lat="54.838140" lon="-8.409870">
                <time>2019-06-14T09:24:20Z</time>
            </trkpt>
            <trkpt lat="54.838130" lon="-8.409620">
                <time>2019-06-14T09:24:21Z</time>
            </trkpt>
            <trkpt lat="54.838140" lon="-8.409370">
                <time>2019-06-14T09:24:22Z</time>
            </trkpt>
            <trkpt lat="54.838150" lon="-8.409110">
                <time>2019-06-14T09:24:23Z</time>
            </trkpt>
            <trkpt lat="54.838170" lon="-8.408840">
                <time>2019-06-14T09:24:24Z</time>
            </trkpt>
            <trkpt lat="54.838200" lon="-8.408580">
                <time>2019-06-14T09:24:25Z</time>
            </trkpt>
            <trkpt lat="54.838220" lon="-8.408340">
                <time>2019-06-14T09:24:26Z</time>
            </trkpt>
            <trkpt lat="54.838250" lon="-8.408080">
                <time>2019-06-14T09:24:27Z</time>
            </trkpt>
            <trkpt lat="54.838270" lon="-8.407810">
                <time>2019-06-14T09:24:28Z</time>
            </trkpt>
            <trkpt lat="54.838290" lon="-8.407530">
                <time>2019-06-14T09:24:29Z</time>
            </trkpt>
            <trkpt lat="54.838320" lon="-8.407240">
                <time>2019-06-14T09:24:30Z</time>
            </trkpt>
            <trkpt lat="54.838350" lon="-8.406970">
                <time>2019-06-14T09:24:31Z</time>
            </trkpt>
            <trkpt lat="54.838370" lon="-8.406720">
                <time>2019-06-14T09:24:32Z</time>
            </trkpt>
            <trkpt lat="54.838390" lon="-8.406470">
                <time>2019-06-14T09:24:33Z</time>
            </trkpt>
            <trkpt lat="54.838400" lon="-8.406240">
                <time>2019-06-14T09:24:34Z</time>
            </trkpt>
            <trkpt lat="54.838410" lon="-8.406000">
                <time>2019-06-14T09:24:35Z</time>
            </trkpt>
            <trkpt lat="54.838420" lon="-8.405760">
                <time>2019-06-14T09:24:36Z</time>
            </trkpt>
            <trkpt lat="54.838440" lon="-8.405510">
                <time>2019-06-14T09:24:37Z</time>
            </trkpt>
            <trkpt lat="54.838450" lon="-8.405260">
                <time>2019-06-14T09:24:38Z</time>
            </trkpt>
            <trkpt lat="54.838470" lon="-8.404980">
                <time>2019-06-14T09:24:39Z</time>
            </trkpt>
            <trkpt lat="54.838490" lon="-8.404710">
                <time>2019-06-14T09:24:40Z</time>
            </trkpt>
            <trkpt lat="54.838510" lon="-8.404440">
                <time>2019-06-14T09:24:41Z</time>
            </trkpt>
            <trkpt lat="54.838520" lon="-8.404180">
                <time>2019-06-14T09:24:42Z</time>
            </trkpt>
            <trkpt lat="54.838530" lon="-8.403930">
                <time>2019-06-14T09:24:43Z</time>
            </trkpt>
            <trkpt lat="54.838520" lon="-8.403700">
                <time>2019-06-14T09:24:44Z</time>
            </trkpt>
            <trkpt lat="54.838500" lon="-8.403480">
                <time>2019-06-14T09:24:45Z</time>
            </trkpt>
            <trkpt lat="54.838490" lon="-8.403270">
                <time>2019-06-14T09:24:46Z</time>
            </trkpt>
            <trkpt lat="54.838480" lon="-8.403050">
                <time>2019-06-14T09:24:47Z</time>
            </trkpt>
            <trkpt lat="54.838470" lon="-8.402840">
                <time>2019-06-14T09:24:48Z</time>
            </trkpt>
            <trkpt lat="54.838450" lon="-8.402620">
                <time>2019-06-14T09:24:49Z</time>
            </trkpt>
            <trkpt lat="54.838440" lon="-8.402400">
                <time>2019-06-14T09:24:50Z</time>
            </trkpt>
            <trkpt lat="54.838430" lon="-8.402180">
                <time>2019-06-14T09:24:51Z</time>
            </trkpt>
            <trkpt lat="54.838410" lon="-8.401950">
                <time>2019-06-14T09:24:52Z</time>
            </trkpt>
            <trkpt lat="54.838390" lon="-8.401710">
                <time>2019-06-14T09:24:53Z</time>
            </trkpt>
            <trkpt lat="54.838370" lon="-8.401470">
                <time>2019-06-14T09:24:54Z</time>
            </trkpt>
            <trkpt lat="54.838340" lon="-8.401210">
                <time>2019-06-14T09:24:55Z</time>
            </trkpt>
            <trkpt lat="54.838310" lon="-8.400950">
                <time>2019-06-14T09:24:56Z</time>
            </trkpt>
            <trkpt lat="54.838290" lon="-8.400670">
                <time>2019-06-14T09:24:57Z</time>
            </trkpt>
            <trkpt lat="54.838260" lon="-8.400380">
                <time>2019-06-14T09:24:58Z</time>
            </trkpt>
            <trkpt lat="54.838230" lon="-8.400080">
                <time>2019-06-14T09:24:59Z</time>
            </trkpt>
            <trkpt lat="54.838200" lon="-8.399790">
                <time>2019-06-14T09:25:00Z</time>
            </trkpt>
            <trkpt lat="54.838170" lon="-8.399500">
                <time>2019-06-14T09:25:01Z</time>
            </trkpt>
            <trkpt lat="54.838140" lon="-8.399230">
                <time>2019-06-14T09:25:02Z</time>
            </trkpt>
            <trkpt lat="54.838110" lon="-8.398950">
                <time>2019-06-14T09:25:03Z</time>
            </trkpt>
            <trkpt lat="54.838090" lon="-8.398680">
                <time>2019-06-14T09:25:04Z</time>
            </trkpt>
            <trkpt lat="54.838060" lon="-8.398420">
                <time>2019-06-14T09:25:05Z</time>
            </trkpt>
            <trkpt lat="54.838040" lon="-8.398160">
                <time>2019-06-14T09:25:06Z</time>
            </trkpt>
            <trkpt lat="54.838010" lon="-8.397900">
                <time>2019-06-14T09:25:07Z</time>
            </trkpt>
            <trkpt lat="54.837990" lon="-8.397630">
                <time>2019-06-14T09:25:08Z</time>
            </trkpt>
            <trkpt lat="54.837960" lon="-8.397340">
                <time>2019-06-14T09:25:09Z</time>
            </trkpt>
            <trkpt lat="54.837930" lon="-8.397040">
                <time>2019-06-14T09:25:10Z</time>
            </trkpt>
            <trkpt lat="54.837900" lon="-8.396730">
                <time>2019-06-14T09:25:11Z</time>
            </trkpt>
            <trkpt lat="54.837880" lon="-8.396420">
                <time>2019-06-14T09:25:12Z</time>
            </trkpt>
            <trkpt lat="54.837850" lon="-8.396110">
                <time>2019-06-14T09:25:13Z</time>
            </trkpt>
            <trkpt lat="54.837830" lon="-8.395810">
                <time>2019-06-14T09:25:14Z</time>
            </trkpt>
            <trkpt lat="54.837800" lon="-8.395520">
                <time>2019-06-14T09:25:15Z</time>
            </trkpt>
            <trkpt lat="54.837780" lon="-8.395240">
                <time>2019-06-14T09:25:16Z</time>
            </trkpt>
            <trkpt lat="54.837760" lon="-8.394970">
                <time>2019-06-14T09:25:17Z</time>
            </trkpt>
            <trkpt lat="54.837740" lon="-8.394690">
                <time>2019-06-14T09:25:18Z</time>
            </trkpt>
            <trkpt lat="54.837710" lon="-8.394410">
                <time>2019-06-14T09:25:19Z</time>
            </trkpt>
            <trkpt lat="54.837690" lon="-8.394120">
                <time>2019-06-14T09:25:20Z</time>
            </trkpt>
            <trkpt lat="54.837670" lon="-8.393830">
                <time>2019-06-14T09:25:21Z</time>
            </trkpt>
            <trkpt lat="54.837650" lon="-8.393540">
                <time>2019-06-14T09:25:22Z</time>
            </trkpt>
            <trkpt lat="54.837630" lon="-8.393250">
                <time>2019-06-14T09:25:23Z</time>
            </trkpt>
            <trkpt lat="54.837610" lon="-8.392970">
                <time>2019-06-14T09:25:24Z</time>
            </trkpt>
            <trkpt lat="54.837580" lon="-8.392690">
                <time>2019-06-14T09:25:25Z</time>
            </trkpt>
            <trkpt lat="54.837560" lon="-8.392420">
                <time>2019-06-14T09:25:26Z</time>
            </trkpt>
            <trkpt lat="54.837550" lon="-8.392170">
                <time>2019-06-14T09:25:27Z</time>
            </trkpt>
            <trkpt lat="54.837530" lon="-8.391920">
                <time>2019-06-14T09:25:28Z</time>
            </trkpt>
            <trkpt lat="54.837510" lon="-8.391670">
                <time>2019-06-14T09:25:29Z</time>
            </trkpt>
            <trkpt lat="54.837490" lon="-8.391420">
                <time>2019-06-14T09:25:30Z</time>
            </trkpt>
            <trkpt lat="54.837470" lon="-8.391160">
                <time>2019-06-14T09:25:31Z</time>
            </trkpt>
            <trkpt lat="54.837450" lon="-8.390880">
                <time>2019-06-14T09:25:32Z</time>
            </trkpt>
            <trkpt lat="54.837430" lon="-8.390580">
                <time>2019-06-14T09:25:33Z</time>
            </trkpt>
            <trkpt lat="54.837420" lon="-8.390270">
                <time>2019-06-14T09:25:34Z</time>
            </trkpt>
            <trkpt lat="54.837400" lon="-8.389960">
                <time>2019-06-14T09:25:35Z</time>
            </trkpt>
            <trkpt lat="54.837390" lon="-8.389650">
                <time>2019-06-14T09:25:36Z</time>
            </trkpt>
            <trkpt lat="54.837380" lon="-8.389360">
                <time>2019-06-14T09:25:37Z</time>
            </trkpt>
            <trkpt lat="54.837390" lon="-8.389080">
                <time>2019-06-14T09:25:38Z</time>
            </trkpt>
            <trkpt lat="54.837390" lon="-8.388800">
                <time>2019-06-14T09:25:39Z</time>
            </trkpt>
            <trkpt lat="54.837410" lon="-8.388520">
                <time>2019-06-14T09:25:40Z</time>
            </trkpt>
            <trkpt lat="54.837440" lon="-8.388240">
                <time>2019-06-14T09:25:41Z</time>
            </trkpt>
            <trkpt lat="54.837470" lon="-8.387960">
                <time>2019-06-14T09:25:42Z</time>
            </trkpt>
            <trkpt lat="54.837500" lon="-8.387680">
                <time>2019-06-14T09:25:43Z</time>
            </trkpt>
            <trkpt lat="54.837550" lon="-8.387400">
                <time>2019-06-14T09:25:44Z</time>
            </trkpt>
            <trkpt lat="54.837600" lon="-8.387140">
                <time>2019-06-14T09:25:45Z</time>
            </trkpt>
            <trkpt lat="54.837630" lon="-8.386890">
                <time>2019-06-14T09:25:46Z</time>
            </trkpt>
            <trkpt lat="54.837640" lon="-8.386640">
                <time>2019-06-14T09:25:47Z</time>
            </trkpt>
            <trkpt lat="54.837640" lon="-8.386390">
                <time>2019-06-14T09:25:48Z</time>
            </trkpt>
            <trkpt lat="54.837610" lon="-8.386130">
                <time>2019-06-14T09:25:49Z</time>
            </trkpt>
            <trkpt lat="54.837580" lon="-8.385870">
                <time>2019-06-14T09:25:50Z</time>
            </trkpt>
            <trkpt lat="54.837550" lon="-8.385600">
                <time>2019-06-14T09:25:51Z</time>
            </trkpt>
            <trkpt lat="54.837530" lon="-8.385310">
                <time>2019-06-14T09:25:52Z</time>
            </trkpt>
            <trkpt lat="54.837510" lon="-8.385000">
                <time>2019-06-14T09:25:53Z</time>
            </trkpt>
            <trkpt lat="54.837480" lon="-8.384690">
                <time>2019-06-14T09:25:54Z</time>
            </trkpt>
            <trkpt lat="54.837460" lon="-8.384400">
                <time>2019-06-14T09:25:55Z</time>
            </trkpt>
            <trkpt lat="54.837420" lon="-8.384110">
                <time>2019-06-14T09:25:56Z</time>
            </trkpt>
            <trkpt lat="54.837360" lon="-8.383850">
                <time>2019-06-14T09:25:57Z</time>
            </trkpt>
            <trkpt lat="54.837310" lon="-8.383610">
                <time>2019-06-14T09:25:58Z</time>
            </trkpt>
            <trkpt lat="54.837240" lon="-8.383390">
                <time>2019-06-14T09:25:59Z</time>
            </trkpt>
            <trkpt lat="54.837170" lon="-8.383170">
                <time>2019-06-14T09:26:00Z</time>
            </trkpt>
            <trkpt lat="54.837080" lon="-8.382930">
                <time>2019-06-14T09:26:01Z</time>
            </trkpt>
            <trkpt lat="54.837020" lon="-8.382690">
                <time>2019-06-14T09:26:02Z</time>
            </trkpt>
            <trkpt lat="54.836970" lon="-8.382440">
                <time>2019-06-14T09:26:03Z</time>
            </trkpt>
            <trkpt lat="54.836910" lon="-8.382160">
                <time>2019-06-14T09:26:04Z</time>
            </trkpt>
            <trkpt lat="54.836840" lon="-8.381900">
                <time>2019-06-14T09:26:05Z</time>
            </trkpt>
            <trkpt lat="54.836760" lon="-8.381630">
                <time>2019-06-14T09:26:06Z</time>
            </trkpt>
            <trkpt lat="54.836660" lon="-8.381340">
                <time>2019-06-14T09:26:07Z</time>
            </trkpt>
            <trkpt lat="54.836570" lon="-8.381070">
                <time>2019-06-14T09:26:08Z</time>
            </trkpt>
            <trkpt lat="54.836480" lon="-8.380800">
                <time>2019-06-14T09:26:09Z</time>
            </trkpt>
            <trkpt lat="54.836380" lon="-8.380550">
                <time>2019-06-14T09:26:10Z</time>
            </trkpt>
            <trkpt lat="54.836260" lon="-8.380320">
                <time>2019-06-14T09:26:11Z</time>
            </trkpt>
            <trkpt lat="54.836130" lon="-8.380100">
                <time>2019-06-14T09:26:12Z</time>
            </trkpt>
            <trkpt lat="54.836000" lon="-8.379860">
                <time>2019-06-14T09:26:13Z</time>
            </trkpt>
            <trkpt lat="54.835880" lon="-8.379620">
                <time>2019-06-14T09:26:14Z</time>
            </trkpt>
            <trkpt lat="54.835750" lon="-8.379380">
                <time>2019-06-14T09:26:15Z</time>
            </trkpt>
            <trkpt lat="54.835630" lon="-8.379140">
                <time>2019-06-14T09:26:16Z</time>
            </trkpt>
            <trkpt lat="54.835500" lon="-8.378880">
                <time>2019-06-14T09:26:17Z</time>
            </trkpt>
            <trkpt lat="54.835370" lon="-8.378620">
                <time>2019-06-14T09:26:18Z</time>
            </trkpt>
            <trkpt lat="54.835240" lon="-8.378380">
                <time>2019-06-14T09:26:19Z</time>
            </trkpt>
            <trkpt lat="54.835120" lon="-8.378140">
                <time>2019-06-14T09:26:20Z</time>
            </trkpt>
            <trkpt lat="54.835010" lon="-8.377920">
                <time>2019-06-14T09:26:21Z</time>
            </trkpt>
            <trkpt lat="54.834900" lon="-8.377710">
                <time>2019-06-14T09:26:22Z</time>
            </trkpt>
            <trkpt lat="54.834790" lon="-8.377490">
                <time>2019-06-14T09:26:23Z</time>
            </trkpt>
            <trkpt lat="54.834670" lon="-8.377260">
                <time>2019-06-14T09:26:24Z</time>
            </trkpt>
            <trkpt lat="54.834550" lon="-8.377030">
                <time>2019-06-14T09:26:25Z</time>
            </trkpt>
            <trkpt lat="54.834430" lon="-8.376800">
                <time>2019-06-14T09:26:26Z</time>
            </trkpt>
            <trkpt lat="54.834300" lon="-8.376540">
                <time>2019-06-14T09:26:27Z</time>
            </trkpt>
            <trkpt lat="54.834180" lon="-8.376290">
                <time>2019-06-14T09:26:28Z</time>
            </trkpt>
            <trkpt lat="54.834050" lon="-8.376020">
                <time>2019-06-14T09:26:29Z</time>
            </trkpt>
            <trkpt lat="54.833920" lon="-8.375750">
                <time>2019-06-14T09:26:30Z</time>
            </trkpt>
            <trkpt lat="54.833800" lon="-8.375500">
                <time>2019-06-14T09:26:31Z</time>
            </trkpt>
            <trkpt lat="54.833690" lon="-8.375260">
                <time>2019-06-14T09:26:32Z</time>
            </trkpt>
            <trkpt lat="54.833580" lon="-8.375010">
                <time>2019-06-14T09:26:33Z</time>
            </trkpt>
            <trkpt lat="54.833470" lon="-8.374770">
                <time>2019-06-14T09:26:34Z</time>
            </trkpt>
            <trkpt lat="54.833350" lon="-8.374520">
                <time>2019-06-14T09:26:35Z</time>
            </trkpt>
            <trkpt lat="54.833220" lon="-8.374270">
                <time>2019-06-14T09:26:36Z</time>
            </trkpt>
            <trkpt lat="54.833090" lon="-8.374000">
                <time>2019-06-14T09:26:37Z</time>
            </trkpt>
            <trkpt lat="54.832960" lon="-8.373730">
                <time>2019-06-14T09:26:38Z</time>
            </trkpt>
            <trkpt lat="54.832830" lon="-8.373460">
                <time>2019-06-14T09:26:39Z</time>
            </trkpt>
            <trkpt lat="54.832700" lon="-8.373190">
                <time>2019-06-14T09:26:40Z</time>
            </trkpt>
            <trkpt lat="54.832570" lon="-8.372930">
                <time>2019-06-14T09:26:41Z</time>
            </trkpt>
            <trkpt lat="54.832450" lon="-8.372680">
                <time>2019-06-14T09:26:42Z</time>
            </trkpt>
            <trkpt lat="54.832340" lon="-8.372440">
                <time>2019-06-14T09:26:43Z</time>
            </trkpt>
            <trkpt lat="54.832230" lon="-8.372200">
                <time>2019-06-14T09:26:44Z</time>
            </trkpt>
            <trkpt lat="54.832120" lon="-8.371970">
                <time>2019-06-14T09:26:45Z</time>
            </trkpt>
            <trkpt lat="54.832010" lon="-8.371740">
                <time>2019-06-14T09:26:46Z</time>
            </trkpt>
            <trkpt lat="54.831900" lon="-8.371510">
                <time>2019-06-14T09:26:47Z</time>
            </trkpt>
            <trkpt lat="54.831790" lon="-8.371290">
                <time>2019-06-14T09:26:48Z</time>
            </trkpt>
            <trkpt lat="54.831660" lon="-8.371060">
                <time>2019-06-14T09:26:49Z</time>
            </trkpt>
            <trkpt lat="54.831540" lon="-8.370850">
                <time>2019-06-14T09:26:50Z</time>
            </trkpt>
            <trkpt lat="54.831440" lon="-8.370660">
                <time>2019-06-14T09:26:51Z</time>
            </trkpt>
            <trkpt lat="54.831340" lon="-8.370490">
                <time>2019-06-14T09:26:52Z</time>
            </trkpt>
            <trkpt lat="54.831240" lon="-8.370320">
                <time>2019-06-14T09:26:53Z</time>
            </trkpt>
            <trkpt lat="54.831150" lon="-8.370170">
                <time>2019-06-14T09:26:54Z</time>
            </trkpt>
            <trkpt lat="54.831060" lon="-8.370020">
                <time>2019-06-14T09:26:55Z</time>
            </trkpt>
            <trkpt lat="54.830980" lon="-8.369880">
                <time>2019-06-14T09:26:56Z</time>
            </trkpt>
            <trkpt lat="54.830880" lon="-8.369740">
                <time>2019-06-14T09:26:57Z</time>
            </trkpt>
            <trkpt lat="54.830780" lon="-8.369590">
                <time>2019-06-14T09:26:58Z</time>
            </trkpt>
            <trkpt lat="54.830680" lon="-8.369460">
                <time>2019-06-14T09:26:59Z</time>
            </trkpt>
            <trkpt lat="54.830610" lon="-8.369340">
                <time>2019-06-14T09:27:00Z</time>
            </trkpt>
            <trkpt lat="54.830560" lon="-8.369250">
                <time>2019-06-14T09:27:01Z</time>
            </trkpt>
            <trkpt lat="54.830540" lon="-8.369170">
                <time>2019-06-14T09:27:02Z</time>
            </trkpt>
            <trkpt lat="54.830530" lon="-8.369090">
                <time>2019-06-14T09:27:03Z</time>
            </trkpt>
            <trkpt lat="54.830530" lon="-8.369020">
                <time>2019-06-14T09:27:04Z</time>
            </trkpt>
            <trkpt lat="54.830560" lon="-8.368930">
                <time>2019-06-14T09:27:05Z</time>
            </trkpt>
            <trkpt lat="54.830620" lon="-8.368860">
                <time>2019-06-14T09:27:06Z</time>
            </trkpt>
            <trkpt lat="54.830700" lon="-8.368790">
                <time>2019-06-14T09:27:07Z</time>
            </trkpt>
            <trkpt lat="54.830800" lon="-8.368740">
                <time>2019-06-14T09:27:08Z</time>
            </trkpt>
            <trkpt lat="54.830900" lon="-8.368660">
                <time>2019-06-14T09:27:09Z</time>
            </trkpt>
            <trkpt lat="54.831010" lon="-8.368560">
                <time>2019-06-14T09:27:10Z</time>
            </trkpt>
            <trkpt lat="54.831130" lon="-8.368430">
                <time>2019-06-14T09:27:11Z</time>
            </trkpt>
            <trkpt lat="54.831250" lon="-8.368260">
                <time>2019-06-14T09:27:12Z</time>
            </trkpt>
            <trkpt lat="54.831370" lon="-8.368060">
                <time>2019-06-14T09:27:13Z</time>
            </trkpt>
            <trkpt lat="54.831490" lon="-8.367850">
                <time>2019-06-14T09:27:14Z</time>
            </trkpt>
            <trkpt lat="54.831630" lon="-8.367650">
                <time>2019-06-14T09:27:15Z</time>
            </trkpt>
            <trkpt lat="54.831770" lon="-8.367480">
                <time>2019-06-14T09:27:16Z</time>
            </trkpt>
            <trkpt lat="54.831920" lon="-8.367330">
                <time>2019-06-14T09:27:17Z</time>
            </trkpt>
            <trkpt lat="54.832060" lon="-8.367210">
                <time>2019-06-14T09:27:18Z</time>
            </trkpt>
            <trkpt lat="54.832190" lon="-8.367110">
                <time>2019-06-14T09:27:19Z</time>
            </trkpt>
            <trkpt lat="54.832320" lon="-8.367040">
                <time>2019-06-14T09:27:20Z</time>
            </trkpt>
            <trkpt lat="54.832440" lon="-8.366970">
                <time>2019-06-14T09:27:21Z</time>
            </trkpt>
            <trkpt lat="54.832560" lon="-8.366930">
                <time>2019-06-14T09:27:22Z</time>
            </trkpt>
            <trkpt lat="54.832680" lon="-8.366890">
                <time>2019-06-14T09:27:23Z</time>
            </trkpt>
            <trkpt lat="54.832800" lon="-8.366850">
                <time>2019-06-14T09:27:24Z</time>
            </trkpt>
            <trkpt lat="54.832920" lon="-8.366810">
                <time>2019-06-14T09:27:25Z</time>
            </trkpt>
            <trkpt lat="54.833030" lon="-8.366770">
                <time>2019-06-14T09:27:26Z</time>
            </trkpt>
            <trkpt lat="54.833140" lon="-8.366740">
                <time>2019-06-14T09:27:27Z</time>
            </trkpt>
            <trkpt lat="54.833240" lon="-8.366700">
                <time>2019-06-14T09:27:28Z</time>
            </trkpt>
            <trkpt lat="54.833330" lon="-8.366650">
                <time>2019-06-14T09:27:29Z</time>
            </trkpt>
            <trkpt lat="54.833420" lon="-8.366580">
                <time>2019-06-14T09:27:30Z</time>
            </trkpt>
            <trkpt lat="54.833530" lon="-8.366480">
                <time>2019-06-14T09:27:31Z</time>
            </trkpt>
            <trkpt lat="54.833640" lon="-8.366360">
                <time>2019-06-14T09:27:32Z</time>
            </trkpt>
            <trkpt lat="54.833750" lon="-8.366220">
                <time>2019-06-14T09:27:33Z</time>
            </trkpt>
            <trkpt lat="54.833850" lon="-8.366060">
                <time>2019-06-14T09:27:34Z</time>
            </trkpt>
            <trkpt lat="54.833950" lon="-8.365890">
                <time>2019-06-14T09:27:35Z</time>
            </trkpt>
            <trkpt lat="54.834040" lon="-8.365690">
                <time>2019-06-14T09:27:36Z</time>
            </trkpt>
            <trkpt lat="54.834120" lon="-8.365490">
                <time>2019-06-14T09:27:37Z</time>
            </trkpt>
            <trkpt lat="54.834190" lon="-8.365290">
                <time>2019-06-14T09:27:38Z</time>
            </trkpt>
            <trkpt lat="54.834240" lon="-8.365090">
                <time>2019-06-14T09:27:39Z</time>
            </trkpt>
            <trkpt lat="54.834290" lon="-8.364920">
                <time>2019-06-14T09:27:40Z</time>
            </trkpt>
            <trkpt lat="54.834320" lon="-8.364750">
                <time>2019-06-14T09:27:41Z</time>
            </trkpt>
            <trkpt lat="54.834340" lon="-8.364610">
                <time>2019-06-14T09:27:42Z</time>
            </trkpt>
            <trkpt lat="54.834360" lon="-8.364460">
                <time>2019-06-14T09:27:43Z</time>
            </trkpt>
            <trkpt lat="54.834370" lon="-8.364330">
                <time>2019-06-14T09:27:44Z</time>
            </trkpt>
            <trkpt lat="54.834380" lon="-8.364220">
                <time>2019-06-14T09:27:45Z</time>
            </trkpt>
            <trkpt lat="54.834380" lon="-8.364120">
                <time>2019-06-14T09:27:46Z</time>
            </trkpt>
            <trkpt lat="54.834380" lon="-8.364030">
                <time>2019-06-14T09:27:47Z</time>
            </trkpt>
            <trkpt lat="54.834380" lon="-8.363940">
                <time>2019-06-14T09:27:48Z</time>
            </trkpt>
            <trkpt lat="54.834380" lon="-8.363860">
                <time>2019-06-14T09:27:49Z</time>
            </trkpt>
            <trkpt lat="54.834380" lon="-8.363800">
                <time>2019-06-14T09:27:50Z</time>
            </trkpt>
            <trkpt lat="54.834380" lon="-8.363760">
                <time>2019-06-14T09:27:51Z</time>
            </trkpt>
            <trkpt lat="54.834380" lon="-8.363720">
                <time>2019-06-14T09:27:52Z</time>
            </trkpt>
            <trkpt lat="54.834380" lon="-8.363700">
                <time>2019-06-14T09:27:53Z</time>
            </trkpt>
            <trkpt lat="54.834380" lon="-8.363680">
                <time>2019-06-14T09:27:54Z</time>
            </trkpt>
            <trkpt lat="54.834380" lon="-8.363670">
                <time>2019-06-14T09:27:55Z</time>
            </trkpt>
            <trkpt lat="54.834380" lon="-8.363670">
                <time>2019-06-14T09:27:56Z</time>
            </trkpt>
            <trkpt lat="54.834380" lon="-8.363670">
                <time>2019-06-14T09:27:57Z</time>
            </trkpt>
            <trkpt lat="54.834380" lon="-8.363670">
                <time>2019-06-14T09:27:58Z</time>
            </trkpt>
            <trkpt lat="54.834380" lon="-8.363670">
                <time>2019-06-14T09:27:59Z</time>
            </trkpt>
            <trkpt lat="54.834380" lon="-8.363670">
                <time>2019-06-14T09:28:00Z</time>
            </trkpt>
            <trkpt lat="54.834380" lon="-8.363670">
                <time>2019-06-14T09:28:01Z</time>
            </trkpt>
            <trkpt lat="54.834380" lon="-8.363670">
                <time>2019-06-14T09:28:02Z</time>
            </trkpt>
            <trkpt lat="54.834380" lon="-8.363670">
                <time>2019-06-14T09:28:03Z</time>
            </trkpt>
            <trkpt lat="54.834380" lon="-8.363670">
                <time>2019-06-14T09:28:04Z</time>
            </trkpt>
            <trkpt lat="54.834380" lon="-8.363670">
                <time>2019-06-14T09:28:05Z</time>
            </trkpt>
            <trkpt lat="54.834380" lon="-8.363670">
                <time>2019-06-14T09:28:06Z</time>
            </trkpt>
            <trkpt lat="54.834380" lon="-8.363670">
                <time>2019-06-14T09:28:07Z</time>
            </trkpt>
            <trkpt lat="54.834380" lon="-8.363670">
                <time>2019-06-14T09:28:08Z</time>
            </trkpt>
            <trkpt lat="54.834380" lon="-8.363670">
                <time>2019-06-14T09:28:09Z</time>
            </trkpt>
            <trkpt lat="54.834380" lon="-8.363670">
                <time>2019-06-14T09:28:10Z</time>
            </trkpt>
            <trkpt lat="54.834380" lon="-8.363670">
                <time>2019-06-14T09:28:11Z</time>
            </trkpt>
            <trkpt lat="54.834380" lon="-8.363670">
                <time>2019-06-14T09:28:12Z</time>
            </trkpt>
            <trkpt lat="54.834380" lon="-8.363670">
                <time>2019-06-14T09:28:13Z</time>
            </trkpt>
            <trkpt lat="54.834380" lon="-8.363670">
                <time>2019-06-14T09:28:14Z</time>
            </trkpt>
            <trkpt lat="54.834380" lon="-8.363670">
                <time>2019-06-14T09:28:15Z</time>
            </trkpt>
            <trkpt lat="54.834380" lon="-8.363670">
                <time>2019-06-14T09:28:16Z</time>
            </trkpt>
            <trkpt lat="54.834380" lon="-8.363670">
                <time>2019-06-14T09:28:17Z</time>
            </trkpt>
            <trkpt lat="54.834380" lon="-8.363670">
                <time>2019-06-14T09:28:18Z</time>
            </trkpt>
            <trkpt lat="54.834380" lon="-8.363670">
                <time>2019-06-14T09:28:19Z</time>
            </trkpt>
            <trkpt lat="54.834380" lon="-8.363670">
                <time>2019-06-14T09:28:20Z</time>
            </trkpt>
            <trkpt lat="54.834380" lon="-8.363670">
                <time>2019-06-14T09:28:21Z</time>
            </trkpt>
            <trkpt lat="54.834380" lon="-8.363670">
                <time>2019-06-14T09:28:22Z</time>
            </trkpt>
            <trkpt lat="54.834380" lon="-8.363670">
                <time>2019-06-14T09:28:23Z</time>
            </trkpt>
            <trkpt lat="54.834380" lon="-8.363670">
                <time>2019-06-14T09:28:24Z</time>
            </trkpt>
            <trkpt lat="54.834380" lon="-8.363670">
                <time>2019-06-14T09:28:25Z</time>
            </trkpt>
            <trkpt lat="54.834380" lon="-8.363670">
                <time>2019-06-14T09:28:26Z</time>
            </trkpt>
            <trkpt lat="54.834380" lon="-8.363670">
                <time>2019-06-14T09:28:27Z</time>
            </trkpt>
            <trkpt lat="54.834380" lon="-8.363670">
                <time>2019-06-14T09:28:28Z</time>
            </trkpt>
            <trkpt lat="54.834380" lon="-8.363670">
                <time>2019-06-14T09:28:29Z</time>
            </trkpt>
            <trkpt lat="54.834380" lon="-8.363670">
                <time>2019-06-14T09:28:30Z</time>
            </trkpt>
            <trkpt lat="54.834380" lon="-8.363670">
                <time>2019-06-14T09:28:31Z</time>
            </trkpt>
            <trkpt lat="54.834330" lon="-8.363670">
                <time>2019-06-14T09:28:57Z</time>
            </trkpt>
            <trkpt lat="54.834330" lon="-8.363670">
                <time>2019-06-14T09:28:58Z</time>
            </trkpt>
            <trkpt lat="54.834320" lon="-8.363680">
                <time>2019-06-14T09:28:59Z</time>
            </trkpt>
            <trkpt lat="54.834380" lon="-8.363660">
                <time>2019-06-14T09:29:00Z</time>
            </trkpt>
            <trkpt lat="54.834380" lon="-8.363670">
                <time>2019-06-14T09:29:01Z</time>
            </trkpt>
            <trkpt lat="54.834390" lon="-8.363650">
                <time>2019-06-14T09:29:02Z</time>
            </trkpt>
            <trkpt lat="54.834390" lon="-8.363610">
                <time>2019-06-14T09:29:03Z</time>
            </trkpt>
            <trkpt lat="54.834380" lon="-8.363540">
                <time>2019-06-14T09:29:04Z</time>
            </trkpt>
            <trkpt lat="54.834380" lon="-8.363430">
                <time>2019-06-14T09:29:05Z</time>
            </trkpt>
            <trkpt lat="54.834370" lon="-8.363330">
                <time>2019-06-14T09:29:06Z</time>
            </trkpt>
            <trkpt lat="54.834370" lon="-8.363250">
                <time>2019-06-14T09:29:07Z</time>
            </trkpt>
            <trkpt lat="54.834360" lon="-8.363160">
                <time>2019-06-14T09:29:08Z</time>
            </trkpt>
            <trkpt lat="54.834340" lon="-8.363030">
                <time>2019-06-14T09:29:09Z</time>
            </trkpt>
            <trkpt lat="54.834330" lon="-8.362890">
                <time>2019-06-14T09:29:10Z</time>
            </trkpt>
            <trkpt lat="54.834330" lon="-8.362750">
                <time>2019-06-14T09:29:11Z</time>
            </trkpt>
            <trkpt lat="54.834330" lon="-8.362640">
                <time>2019-06-14T09:29:12Z</time>
            </trkpt>
            <trkpt lat="54.834330" lon="-8.362550">
                <time>2019-06-14T09:29:13Z</time>
            </trkpt>
            <trkpt lat="54.834330" lon="-8.362440">
                <time>2019-06-14T09:29:14Z</time>
            </trkpt>
            <trkpt lat="54.834330" lon="-8.362330">
                <time>2019-06-14T09:29:15Z</time>
            </trkpt>
            <trkpt lat="54.834330" lon="-8.362220">
                <time>2019-06-14T09:29:16Z</time>
            </trkpt>
            <trkpt lat="54.834330" lon="-8.362110">
                <time>2019-06-14T09:29:17Z</time>
            </trkpt>
            <trkpt lat="54.834330" lon="-8.361990">
                <time>2019-06-14T09:29:18Z</time>
            </trkpt>
            <trkpt lat="54.834330" lon="-8.361860">
                <time>2019-06-14T09:29:19Z</time>
            </trkpt>
            <trkpt lat="54.834330" lon="-8.361720">
                <time>2019-06-14T09:29:20Z</time>
            </trkpt>
            <trkpt lat="54.834330" lon="-8.361580">
                <time>2019-06-14T09:29:21Z</time>
            </trkpt>
            <trkpt lat="54.834330" lon="-8.361440">
                <time>2019-06-14T09:29:22Z</time>
            </trkpt>
            <trkpt lat="54.834330" lon="-8.361310">
                <time>2019-06-14T09:29:23Z</time>
            </trkpt>
            <trkpt lat="54.834320" lon="-8.361190">
                <time>2019-06-14T09:29:24Z</time>
            </trkpt>
            <trkpt lat="54.834320" lon="-8.361060">
                <time>2019-06-14T09:29:25Z</time>
            </trkpt>
            <trkpt lat="54.834310" lon="-8.360910">
                <time>2019-06-14T09:29:26Z</time>
            </trkpt>
            <trkpt lat="54.834310" lon="-8.360740">
                <time>2019-06-14T09:29:27Z</time>
            </trkpt>
            <trkpt lat="54.834300" lon="-8.360570">
                <time>2019-06-14T09:29:28Z</time>
            </trkpt>
            <trkpt lat="54.834280" lon="-8.360380">
                <time>2019-06-14T09:29:29Z</time>
            </trkpt>
            <trkpt lat="54.834270" lon="-8.360200">
                <time>2019-06-14T09:29:30Z</time>
            </trkpt>
            <trkpt lat="54.834250" lon="-8.360010">
                <time>2019-06-14T09:29:31Z</time>
            </trkpt>
            <trkpt lat="54.834230" lon="-8.359820">
                <time>2019-06-14T09:29:32Z</time>
            </trkpt>
            <trkpt lat="54.834210" lon="-8.359640">
                <time>2019-06-14T09:29:33Z</time>
            </trkpt>
            <trkpt lat="54.834190" lon="-8.359460">
                <time>2019-06-14T09:29:34Z</time>
            </trkpt>
            <trkpt lat="54.834160" lon="-8.359270">
                <time>2019-06-14T09:29:35Z</time>
            </trkpt>
            <trkpt lat="54.834140" lon="-8.359070">
                <time>2019-06-14T09:29:36Z</time>
            </trkpt>
            <trkpt lat="54.834110" lon="-8.358880">
                <time>2019-06-14T09:29:37Z</time>
            </trkpt>
            <trkpt lat="54.834080" lon="-8.358690">
                <time>2019-06-14T09:29:38Z</time>
            </trkpt>
            <trkpt lat="54.834060" lon="-8.358510">
                <time>2019-06-14T09:29:39Z</time>
            </trkpt>
            <trkpt lat="54.834040" lon="-8.358330">
                <time>2019-06-14T09:29:40Z</time>
            </trkpt>
            <trkpt lat="54.834010" lon="-8.358160">
                <time>2019-06-14T09:29:41Z</time>
            </trkpt>
            <trkpt lat="54.833990" lon="-8.358000">
                <time>2019-06-14T09:29:42Z</time>
            </trkpt>
            <trkpt lat="54.833950" lon="-8.357840">
                <time>2019-06-14T09:29:43Z</time>
            </trkpt>
            <trkpt lat="54.833910" lon="-8.357660">
                <time>2019-06-14T09:29:44Z</time>
            </trkpt>
            <trkpt lat="54.833880" lon="-8.357480">
                <time>2019-06-14T09:29:45Z</time>
            </trkpt>
            <trkpt lat="54.833840" lon="-8.357290">
                <time>2019-06-14T09:29:46Z</time>
            </trkpt>
            <trkpt lat="54.833810" lon="-8.357090">
                <time>2019-06-14T09:29:47Z</time>
            </trkpt>
            <trkpt lat="54.833800" lon="-8.356890">
                <time>2019-06-14T09:29:48Z</time>
            </trkpt>
            <trkpt lat="54.833790" lon="-8.356690">
                <time>2019-06-14T09:29:49Z</time>
            </trkpt>
            <trkpt lat="54.833790" lon="-8.356510">
                <time>2019-06-14T09:29:50Z</time>
            </trkpt>
            <trkpt lat="54.833790" lon="-8.356340">
                <time>2019-06-14T09:29:51Z</time>
            </trkpt>
            <trkpt lat="54.833780" lon="-8.356170">
                <time>2019-06-14T09:29:52Z</time>
            </trkpt>
            <trkpt lat="54.833770" lon="-8.356000">
                <time>2019-06-14T09:29:53Z</time>
            </trkpt>
            <trkpt lat="54.833750" lon="-8.355830">
                <time>2019-06-14T09:29:54Z</time>
            </trkpt>
            <trkpt lat="54.833730" lon="-8.355660">
                <time>2019-06-14T09:29:55Z</time>
            </trkpt>
            <trkpt lat="54.833710" lon="-8.355500">
                <time>2019-06-14T09:29:56Z</time>
            </trkpt>
            <trkpt lat="54.833690" lon="-8.355340">
                <time>2019-06-14T09:29:57Z</time>
            </trkpt>
            <trkpt lat="54.833660" lon="-8.355190">
                <time>2019-06-14T09:29:58Z</time>
            </trkpt>
            <trkpt lat="54.833640" lon="-8.355030">
                <time>2019-06-14T09:29:59Z</time>
            </trkpt>
            <trkpt lat="54.833620" lon="-8.354870">
                <time>2019-06-14T09:30:00Z</time>
            </trkpt>
            <trkpt lat="54.833600" lon="-8.354700">
                <time>2019-06-14T09:30:01Z</time>
            </trkpt>
            <trkpt lat="54.833590" lon="-8.354530">
                <time>2019-06-14T09:30:02Z</time>
            </trkpt>
            <trkpt lat="54.833570" lon="-8.354360">
                <time>2019-06-14T09:30:03Z</time>
            </trkpt>
            <trkpt lat="54.833570" lon="-8.354210">
                <time>2019-06-14T09:30:04Z</time>
            </trkpt>
            <trkpt lat="54.833570" lon="-8.354060">
                <time>2019-06-14T09:30:05Z</time>
            </trkpt>
            <trkpt lat="54.833580" lon="-8.353910">
                <time>2019-06-14T09:30:06Z</time>
            </trkpt>
            <trkpt lat="54.833590" lon="-8.353760">
                <time>2019-06-14T09:30:07Z</time>
            </trkpt>
            <trkpt lat="54.833620" lon="-8.353600">
                <time>2019-06-14T09:30:08Z</time>
            </trkpt>
            <trkpt lat="54.833670" lon="-8.353440">
                <time>2019-06-14T09:30:09Z</time>
            </trkpt>
            <trkpt lat="54.833710" lon="-8.353290">
                <time>2019-06-14T09:30:10Z</time>
            </trkpt>
            <trkpt lat="54.833750" lon="-8.353160">
                <time>2019-06-14T09:30:11Z</time>
            </trkpt>
            <trkpt lat="54.833790" lon="-8.353030">
                <time>2019-06-14T09:30:12Z</time>
            </trkpt>
            <trkpt lat="54.833820" lon="-8.352920">
                <time>2019-06-14T09:30:13Z</time>
            </trkpt>
            <trkpt lat="54.833840" lon="-8.352810">
                <time>2019-06-14T09:30:14Z</time>
            </trkpt>
            <trkpt lat="54.833860" lon="-8.352720">
                <time>2019-06-14T09:30:15Z</time>
            </trkpt>
            <trkpt lat="54.833880" lon="-8.352620">
                <time>2019-06-14T09:30:16Z</time>
            </trkpt>
            <trkpt lat="54.833900" lon="-8.352510">
                <time>2019-06-14T09:30:17Z</time>
            </trkpt>
            <trkpt lat="54.833930" lon="-8.352370">
                <time>2019-06-14T09:30:18Z</time>
            </trkpt>
            <trkpt lat="54.833950" lon="-8.352220">
                <time>2019-06-14T09:30:19Z</time>
            </trkpt>
            <trkpt lat="54.833980" lon="-8.352040">
                <time>2019-06-14T09:30:20Z</time>
            </trkpt>
            <trkpt lat="54.833990" lon="-8.351860">
                <time>2019-06-14T09:30:21Z</time>
            </trkpt>
            <trkpt lat="54.834010" lon="-8.351700">
                <time>2019-06-14T09:30:22Z</time>
            </trkpt>
            <trkpt lat="54.834030" lon="-8.351540">
                <time>2019-06-14T09:30:23Z</time>
            </trkpt>
            <trkpt lat="54.834040" lon="-8.351370">
                <time>2019-06-14T09:30:24Z</time>
            </trkpt>
            <trkpt lat="54.834060" lon="-8.351190">
                <time>2019-06-14T09:30:25Z</time>
            </trkpt>
            <trkpt lat="54.834070" lon="-8.351010">
                <time>2019-06-14T09:30:26Z</time>
            </trkpt>
            <trkpt lat="54.834070" lon="-8.350810">
                <time>2019-06-14T09:30:27Z</time>
            </trkpt>
            <trkpt lat="54.834080" lon="-8.350580">
                <time>2019-06-14T09:30:28Z</time>
            </trkpt>
            <trkpt lat="54.834080" lon="-8.350350">
                <time>2019-06-14T09:30:29Z</time>
            </trkpt>
            <trkpt lat="54.834090" lon="-8.350110">
                <time>2019-06-14T09:30:30Z</time>
            </trkpt>
            <trkpt lat="54.834090" lon="-8.349890">
                <time>2019-06-14T09:30:31Z</time>
            </trkpt>
            <trkpt lat="54.834090" lon="-8.349690">
                <time>2019-06-14T09:30:32Z</time>
            </trkpt>
            <trkpt lat="54.834090" lon="-8.349500">
                <time>2019-06-14T09:30:33Z</time>
            </trkpt>
            <trkpt lat="54.834090" lon="-8.349310">
                <time>2019-06-14T09:30:34Z</time>
            </trkpt>
            <trkpt lat="54.834090" lon="-8.349130">
                <time>2019-06-14T09:30:35Z</time>
            </trkpt>
            <trkpt lat="54.834090" lon="-8.348950">
                <time>2019-06-14T09:30:36Z</time>
            </trkpt>
            <trkpt lat="54.834090" lon="-8.348780">
                <time>2019-06-14T09:30:37Z</time>
            </trkpt>
            <trkpt lat="54.834090" lon="-8.348610">
                <time>2019-06-14T09:30:38Z</time>
            </trkpt>
            <trkpt lat="54.834090" lon="-8.348460">
                <time>2019-06-14T09:30:39Z</time>
            </trkpt>
            <trkpt lat="54.834090" lon="-8.348300">
                <time>2019-06-14T09:30:40Z</time>
            </trkpt>
            <trkpt lat="54.834100" lon="-8.348120">
                <time>2019-06-14T09:30:41Z</time>
            </trkpt>
            <trkpt lat="54.834100" lon="-8.347940">
                <time>2019-06-14T09:30:42Z</time>
            </trkpt>
            <trkpt lat="54.834100" lon="-8.347750">
                <time>2019-06-14T09:30:43Z</time>
            </trkpt>
            <trkpt lat="54.834100" lon="-8.347550">
                <time>2019-06-14T09:30:44Z</time>
            </trkpt>
            <trkpt lat="54.834100" lon="-8.347360">
                <time>2019-06-14T09:30:45Z</time>
            </trkpt>
            <trkpt lat="54.834100" lon="-8.347160">
                <time>2019-06-14T09:30:46Z</time>
            </trkpt>
            <trkpt lat="54.834100" lon="-8.346950">
                <time>2019-06-14T09:30:47Z</time>
            </trkpt>
            <trkpt lat="54.834110" lon="-8.346720">
                <time>2019-06-14T09:30:48Z</time>
            </trkpt>
            <trkpt lat="54.834110" lon="-8.346490">
                <time>2019-06-14T09:30:49Z</time>
            </trkpt>
            <trkpt lat="54.834110" lon="-8.346250">
                <time>2019-06-14T09:30:50Z</time>
            </trkpt>
            <trkpt lat="54.834110" lon="-8.346020">
                <time>2019-06-14T09:30:51Z</time>
            </trkpt>
            <trkpt lat="54.834110" lon="-8.345790">
                <time>2019-06-14T09:30:52Z</time>
            </trkpt>
            <trkpt lat="54.834110" lon="-8.345560">
                <time>2019-06-14T09:30:53Z</time>
            </trkpt>
            <trkpt lat="54.834110" lon="-8.345310">
                <time>2019-06-14T09:30:54Z</time>
            </trkpt>
            <trkpt lat="54.834120" lon="-8.345040">
                <time>2019-06-14T09:30:55Z</time>
            </trkpt>
            <trkpt lat="54.834120" lon="-8.344770">
                <time>2019-06-14T09:30:56Z</time>
            </trkpt>
            <trkpt lat="54.834130" lon="-8.344500">
                <time>2019-06-14T09:30:57Z</time>
            </trkpt>
            <trkpt lat="54.834130" lon="-8.344240">
                <time>2019-06-14T09:30:58Z</time>
            </trkpt>
            <trkpt lat="54.834130" lon="-8.343980">
                <time>2019-06-14T09:30:59Z</time>
            </trkpt>
            <trkpt lat="54.834130" lon="-8.343690">
                <time>2019-06-14T09:31:00Z</time>
            </trkpt>
            <trkpt lat="54.834130" lon="-8.343380">
                <time>2019-06-14T09:31:01Z</time>
            </trkpt>
            <trkpt lat="54.834140" lon="-8.343050">
                <time>2019-06-14T09:31:02Z</time>
            </trkpt>
            <trkpt lat="54.834140" lon="-8.342720">
                <time>2019-06-14T09:31:03Z</time>
            </trkpt>
            <trkpt lat="54.834140" lon="-8.342400">
                <time>2019-06-14T09:31:04Z</time>
            </trkpt>
            <trkpt lat="54.834140" lon="-8.342060">
                <time>2019-06-14T09:31:05Z</time>
            </trkpt>
            <trkpt lat="54.834150" lon="-8.341710">
                <time>2019-06-14T09:31:06Z</time>
            </trkpt>
            <trkpt lat="54.834150" lon="-8.341340">
                <time>2019-06-14T09:31:07Z</time>
            </trkpt>
            <trkpt lat="54.834150" lon="-8.340980">
                <time>2019-06-14T09:31:08Z</time>
            </trkpt>
            <trkpt lat="54.834160" lon="-8.340600">
                <time>2019-06-14T09:31:09Z</time>
            </trkpt>
            <trkpt lat="54.834160" lon="-8.340230">
                <time>2019-06-14T09:31:10Z</time>
            </trkpt>
            <trkpt lat="54.834160" lon="-8.339860">
                <time>2019-06-14T09:31:11Z</time>
            </trkpt>
            <trkpt lat="54.834160" lon="-8.339490">
                <time>2019-06-14T09:31:12Z</time>
            </trkpt>
            <trkpt lat="54.834170" lon="-8.339140">
                <time>2019-06-14T09:31:13Z</time>
            </trkpt>
            <trkpt lat="54.834170" lon="-8.338810">
                <time>2019-06-14T09:31:14Z</time>
            </trkpt>
            <trkpt lat="54.834170" lon="-8.338500">
                <time>2019-06-14T09:31:15Z</time>
            </trkpt>
            <trkpt lat="54.834150" lon="-8.338180">
                <time>2019-06-14T09:31:16Z</time>
            </trkpt>
            <trkpt lat="54.834130" lon="-8.337860">
                <time>2019-06-14T09:31:17Z</time>
            </trkpt>
            <trkpt lat="54.834080" lon="-8.337540">
                <time>2019-06-14T09:31:18Z</time>
            </trkpt>
            <trkpt lat="54.834030" lon="-8.337220">
                <time>2019-06-14T09:31:19Z</time>
            </trkpt>
            <trkpt lat="54.833960" lon="-8.336930">
                <time>2019-06-14T09:31:20Z</time>
            </trkpt>
            <trkpt lat="54.833890" lon="-8.336650">
                <time>2019-06-14T09:31:21Z</time>
            </trkpt>
            <trkpt lat="54.833820" lon="-8.336380">
                <time>2019-06-14T09:31:22Z</time>
            </trkpt>
            <trkpt lat="54.833740" lon="-8.336090">
                <time>2019-06-14T09:31:23Z</time>
            </trkpt>
            <trkpt lat="54.833660" lon="-8.335800">
                <time>2019-06-14T09:31:24Z</time>
            </trkpt>
            <trkpt lat="54.833590" lon="-8.335490">
                <time>2019-06-14T09:31:25Z</time>
            </trkpt>
            <trkpt lat="54.833530" lon="-8.335200">
                <time>2019-06-14T09:31:26Z</time>
            </trkpt>
            <trkpt lat="54.833480" lon="-8.334910">
                <time>2019-06-14T09:31:27Z</time>
            </trkpt>
            <trkpt lat="54.833470" lon="-8.334600">
                <time>2019-06-14T09:31:28Z</time>
            </trkpt>
            <trkpt lat="54.833480" lon="-8.334290">
                <time>2019-06-14T09:31:29Z</time>
            </trkpt>
            <trkpt lat="54.833520" lon="-8.333990">
                <time>2019-06-14T09:31:30Z</time>
            </trkpt>
            <trkpt lat="54.833590" lon="-8.333700">
                <time>2019-06-14T09:31:31Z</time>
            </trkpt>
            <trkpt lat="54.833700" lon="-8.333410">
                <time>2019-06-14T09:31:32Z</time>
            </trkpt>
            <trkpt lat="54.833840" lon="-8.333150">
                <time>2019-06-14T09:31:33Z</time>
            </trkpt>
            <trkpt lat="54.834010" lon="-8.332940">
                <time>2019-06-14T09:31:34Z</time>
            </trkpt>
            <trkpt lat="54.834190" lon="-8.332790">
                <time>2019-06-14T09:31:35Z</time>
            </trkpt>
            <trkpt lat="54.834370" lon="-8.332690">
                <time>2019-06-14T09:31:36Z</time>
            </trkpt>
            <trkpt lat="54.834550" lon="-8.332630">
                <time>2019-06-14T09:31:37Z</time>
            </trkpt>
            <trkpt lat="54.834730" lon="-8.332560">
                <time>2019-06-14T09:31:38Z</time>
            </trkpt>
            <trkpt lat="54.834880" lon="-8.332490">
                <time>2019-06-14T09:31:39Z</time>
            </trkpt>
            <trkpt lat="54.835020" lon="-8.332430">
                <time>2019-06-14T09:31:40Z</time>
            </trkpt>
            <trkpt lat="54.835160" lon="-8.332380">
                <time>2019-06-14T09:31:41Z</time>
            </trkpt>
            <trkpt lat="54.835290" lon="-8.332330">
                <time>2019-06-14T09:31:42Z</time>
            </trkpt>
            <trkpt lat="54.835430" lon="-8.332280">
                <time>2019-06-14T09:31:43Z</time>
            </trkpt>
            <trkpt lat="54.835560" lon="-8.332230">
                <time>2019-06-14T09:31:44Z</time>
            </trkpt>
            <trkpt lat="54.835700" lon="-8.332180">
                <time>2019-06-14T09:31:45Z</time>
            </trkpt>
            <trkpt lat="54.835840" lon="-8.332130">
                <time>2019-06-14T09:31:46Z</time>
            </trkpt>
            <trkpt lat="54.836000" lon="-8.332100">
                <time>2019-06-14T09:31:47Z</time>
            </trkpt>
            <trkpt lat="54.836150" lon="-8.332120">
                <time>2019-06-14T09:31:48Z</time>
            </trkpt>
            <trkpt lat="54.836300" lon="-8.332170">
                <time>2019-06-14T09:31:49Z</time>
            </trkpt>
            <trkpt lat="54.836440" lon="-8.332240">
                <time>2019-06-14T09:31:50Z</time>
            </trkpt>
            <trkpt lat="54.836560" lon="-8.332310">
                <time>2019-06-14T09:31:51Z</time>
            </trkpt>
            <trkpt lat="54.836700" lon="-8.332380">
                <time>2019-06-14T09:31:52Z</time>
            </trkpt>
            <trkpt lat="54.836830" lon="-8.332420">
                <time>2019-06-14T09:31:53Z</time>
            </trkpt>
            <trkpt lat="54.836980" lon="-8.332420">
                <time>2019-06-14T09:31:54Z</time>
            </trkpt>
            <trkpt lat="54.837120" lon="-8.332390">
                <time>2019-06-14T09:31:55Z</time>
            </trkpt>
            <trkpt lat="54.837270" lon="-8.332330">
                <time>2019-06-14T09:31:56Z</time>
            </trkpt>
            <trkpt lat="54.837430" lon="-8.332240">
                <time>2019-06-14T09:31:57Z</time>
            </trkpt>
            <trkpt lat="54.837580" lon="-8.332100">
                <time>2019-06-14T09:31:58Z</time>
            </trkpt>
            <trkpt lat="54.837710" lon="-8.331940">
                <time>2019-06-14T09:31:59Z</time>
            </trkpt>
            <trkpt lat="54.837820" lon="-8.331750">
                <time>2019-06-14T09:32:00Z</time>
            </trkpt>
            <trkpt lat="54.837920" lon="-8.331540">
                <time>2019-06-14T09:32:01Z</time>
            </trkpt>
            <trkpt lat="54.838000" lon="-8.331310">
                <time>2019-06-14T09:32:02Z</time>
            </trkpt>
            <trkpt lat="54.838060" lon="-8.331060">
                <time>2019-06-14T09:32:03Z</time>
            </trkpt>
            <trkpt lat="54.838100" lon="-8.330790">
                <time>2019-06-14T09:32:04Z</time>
            </trkpt>
            <trkpt lat="54.838120" lon="-8.330500">
                <time>2019-06-14T09:32:05Z</time>
            </trkpt>
            <trkpt lat="54.838110" lon="-8.330220">
                <time>2019-06-14T09:32:06Z</time>
            </trkpt>
            <trkpt lat="54.838080" lon="-8.329940">
                <time>2019-06-14T09:32:07Z</time>
            </trkpt>
            <trkpt lat="54.838040" lon="-8.329670">
                <time>2019-06-14T09:32:08Z</time>
            </trkpt>
            <trkpt lat="54.837990" lon="-8.329410">
                <time>2019-06-14T09:32:09Z</time>
            </trkpt>
            <trkpt lat="54.837940" lon="-8.329150">
                <time>2019-06-14T09:32:10Z</time>
            </trkpt>
            <trkpt lat="54.837910" lon="-8.328900">
                <time>2019-06-14T09:32:11Z</time>
            </trkpt>
            <trkpt lat="54.837900" lon="-8.328630">
                <time>2019-06-14T09:32:12Z</time>
            </trkpt>
            <trkpt lat="54.837910" lon="-8.328360">
                <time>2019-06-14T09:32:13Z</time>
            </trkpt>
            <trkpt lat="54.837940" lon="-8.328110">
                <time>2019-06-14T09:32:14Z</time>
            </trkpt>
            <trkpt lat="54.837990" lon="-8.327880">
                <time>2019-06-14T09:32:15Z</time>
            </trkpt>
            <trkpt lat="54.838060" lon="-8.327660">
                <time>2019-06-14T09:32:16Z</time>
            </trkpt>
            <trkpt lat="54.838130" lon="-8.327460">
                <time>2019-06-14T09:32:17Z</time>
            </trkpt>
            <trkpt lat="54.838220" lon="-8.327270">
                <time>2019-06-14T09:32:18Z</time>
            </trkpt>
            <trkpt lat="54.838330" lon="-8.327110">
                <time>2019-06-14T09:32:19Z</time>
            </trkpt>
            <trkpt lat="54.838460" lon="-8.326960">
                <time>2019-06-14T09:32:20Z</time>
            </trkpt>
            <trkpt lat="54.838590" lon="-8.326830">
                <time>2019-06-14T09:32:21Z</time>
            </trkpt>
            <trkpt lat="54.838740" lon="-8.326740">
                <time>2019-06-14T09:32:22Z</time>
            </trkpt>
            <trkpt lat="54.838870" lon="-8.326650">
                <time>2019-06-14T09:32:23Z</time>
            </trkpt>
            <trkpt lat="54.839000" lon="-8.326550">
                <time>2019-06-14T09:32:24Z</time>
            </trkpt>
            <trkpt lat="54.839120" lon="-8.326440">
                <time>2019-06-14T09:32:25Z</time>
            </trkpt>
            <trkpt lat="54.839240" lon="-8.326320">
                <time>2019-06-14T09:32:26Z</time>
            </trkpt>
            <trkpt lat="54.839340" lon="-8.326180">
                <time>2019-06-14T09:32:27Z</time>
            </trkpt>
            <trkpt lat="54.839430" lon="-8.326010">
                <time>2019-06-14T09:32:28Z</time>
            </trkpt>
            <trkpt lat="54.839510" lon="-8.325830">
                <time>2019-06-14T09:32:29Z</time>
            </trkpt>
            <trkpt lat="54.839590" lon="-8.325630">
                <time>2019-06-14T09:32:30Z</time>
            </trkpt>
            <trkpt lat="54.839680" lon="-8.325410">
                <time>2019-06-14T09:32:31Z</time>
            </trkpt>
            <trkpt lat="54.839770" lon="-8.325180">
                <time>2019-06-14T09:32:32Z</time>
            </trkpt>
            <trkpt lat="54.839860" lon="-8.324940">
                <time>2019-06-14T09:32:33Z</time>
            </trkpt>
            <trkpt lat="54.839950" lon="-8.324700">
                <time>2019-06-14T09:32:34Z</time>
            </trkpt>
            <trkpt lat="54.840040" lon="-8.324460">
                <time>2019-06-14T09:32:35Z</time>
            </trkpt>
            <trkpt lat="54.840140" lon="-8.324210">
                <time>2019-06-14T09:32:36Z</time>
            </trkpt>
            <trkpt lat="54.840250" lon="-8.323930">
                <time>2019-06-14T09:32:37Z</time>
            </trkpt>
            <trkpt lat="54.840360" lon="-8.323650">
                <time>2019-06-14T09:32:38Z</time>
            </trkpt>
            <trkpt lat="54.840480" lon="-8.323360">
                <time>2019-06-14T09:32:39Z</time>
            </trkpt>
            <trkpt lat="54.840590" lon="-8.323070">
                <time>2019-06-14T09:32:40Z</time>
            </trkpt>
            <trkpt lat="54.840700" lon="-8.322790">
                <time>2019-06-14T09:32:41Z</time>
            </trkpt>
            <trkpt lat="54.840800" lon="-8.322520">
                <time>2019-06-14T09:32:42Z</time>
            </trkpt>
            <trkpt lat="54.840900" lon="-8.322260">
                <time>2019-06-14T09:32:43Z</time>
            </trkpt>
            <trkpt lat="54.840990" lon="-8.322010">
                <time>2019-06-14T09:32:44Z</time>
            </trkpt>
            <trkpt lat="54.841090" lon="-8.321760">
                <time>2019-06-14T09:32:45Z</time>
            </trkpt>
            <trkpt lat="54.841200" lon="-8.321510">
                <time>2019-06-14T09:32:46Z</time>
            </trkpt>
            <trkpt lat="54.841300" lon="-8.321250">
                <time>2019-06-14T09:32:47Z</time>
            </trkpt>
            <trkpt lat="54.841390" lon="-8.321000">
                <time>2019-06-14T09:32:48Z</time>
            </trkpt>
            <trkpt lat="54.841480" lon="-8.320760">
                <time>2019-06-14T09:32:49Z</time>
            </trkpt>
            <trkpt lat="54.841560" lon="-8.320520">
                <time>2019-06-14T09:32:50Z</time>
            </trkpt>
            <trkpt lat="54.841630" lon="-8.320280">
                <time>2019-06-14T09:32:51Z</time>
            </trkpt>
            <trkpt lat="54.841660" lon="-8.320020">
                <time>2019-06-14T09:32:52Z</time>
            </trkpt>
            <trkpt lat="54.841680" lon="-8.319740">
                <time>2019-06-14T09:32:53Z</time>
            </trkpt>
            <trkpt lat="54.841680" lon="-8.319450">
                <time>2019-06-14T09:32:54Z</time>
            </trkpt>
            <trkpt lat="54.841650" lon="-8.319170">
                <time>2019-06-14T09:32:55Z</time>
            </trkpt>
            <trkpt lat="54.841610" lon="-8.318900">
                <time>2019-06-14T09:32:56Z</time>
            </trkpt>
            <trkpt lat="54.841560" lon="-8.318630">
                <time>2019-06-14T09:32:57Z</time>
            </trkpt>
            <trkpt lat="54.841530" lon="-8.318360">
                <time>2019-06-14T09:32:58Z</time>
            </trkpt>
            <trkpt lat="54.841520" lon="-8.318090">
                <time>2019-06-14T09:32:59Z</time>
            </trkpt>
            <trkpt lat="54.841530" lon="-8.317800">
                <time>2019-06-14T09:33:00Z</time>
            </trkpt>
            <trkpt lat="54.841570" lon="-8.317520">
                <time>2019-06-14T09:33:01Z</time>
            </trkpt>
            <trkpt lat="54.841630" lon="-8.317260">
                <time>2019-06-14T09:33:02Z</time>
            </trkpt>
            <trkpt lat="54.841710" lon="-8.317030">
                <time>2019-06-14T09:33:03Z</time>
            </trkpt>
            <trkpt lat="54.841810" lon="-8.316820">
                <time>2019-06-14T09:33:04Z</time>
            </trkpt>
            <trkpt lat="54.841920" lon="-8.316620">
                <time>2019-06-14T09:33:05Z</time>
            </trkpt>
            <trkpt lat="54.842040" lon="-8.316460">
                <time>2019-06-14T09:33:06Z</time>
            </trkpt>
            <trkpt lat="54.842170" lon="-8.316330">
                <time>2019-06-14T09:33:07Z</time>
            </trkpt>
            <trkpt lat="54.842310" lon="-8.316240">
                <time>2019-06-14T09:33:08Z</time>
            </trkpt>
            <trkpt lat="54.842450" lon="-8.316180">
                <time>2019-06-14T09:33:09Z</time>
            </trkpt>
            <trkpt lat="54.842590" lon="-8.316160">
                <time>2019-06-14T09:33:10Z</time>
            </trkpt>
            <trkpt lat="54.842740" lon="-8.316180">
                <time>2019-06-14T09:33:11Z</time>
            </trkpt>
            <trkpt lat="54.842880" lon="-8.316210">
                <time>2019-06-14T09:33:12Z</time>
            </trkpt>
            <trkpt lat="54.843020" lon="-8.316270">
                <time>2019-06-14T09:33:13Z</time>
            </trkpt>
            <trkpt lat="54.843170" lon="-8.316340">
                <time>2019-06-14T09:33:14Z</time>
            </trkpt>
            <trkpt lat="54.843310" lon="-8.316400">
                <time>2019-06-14T09:33:15Z</time>
            </trkpt>
            <trkpt lat="54.843460" lon="-8.316480">
                <time>2019-06-14T09:33:16Z</time>
            </trkpt>
            <trkpt lat="54.843610" lon="-8.316550">
                <time>2019-06-14T09:33:17Z</time>
            </trkpt>
            <trkpt lat="54.843750" lon="-8.316630">
                <time>2019-06-14T09:33:18Z</time>
            </trkpt>
            <trkpt lat="54.843900" lon="-8.316700">
                <time>2019-06-14T09:33:19Z</time>
            </trkpt>
            <trkpt lat="54.844050" lon="-8.316770">
                <time>2019-06-14T09:33:20Z</time>
            </trkpt>
            <trkpt lat="54.844210" lon="-8.316850">
                <time>2019-06-14T09:33:21Z</time>
            </trkpt>
            <trkpt lat="54.844350" lon="-8.316920">
                <time>2019-06-14T09:33:22Z</time>
            </trkpt>
            <trkpt lat="54.844500" lon="-8.317000">
                <time>2019-06-14T09:33:23Z</time>
            </trkpt>
            <trkpt lat="54.844650" lon="-8.317080">
                <time>2019-06-14T09:33:24Z</time>
            </trkpt>
            <trkpt lat="54.844790" lon="-8.317150">
                <time>2019-06-14T09:33:25Z</time>
            </trkpt>
            <trkpt lat="54.844920" lon="-8.317220">
                <time>2019-06-14T09:33:26Z</time>
            </trkpt>
            <trkpt lat="54.845060" lon="-8.317290">
                <time>2019-06-14T09:33:27Z</time>
            </trkpt>
            <trkpt lat="54.845200" lon="-8.317360">
                <time>2019-06-14T09:33:28Z</time>
            </trkpt>
            <trkpt lat="54.845340" lon="-8.317420">
                <time>2019-06-14T09:33:29Z</time>
            </trkpt>
            <trkpt lat="54.845480" lon="-8.317450">
                <time>2019-06-14T09:33:30Z</time>
            </trkpt>
            <trkpt lat="54.845620" lon="-8.317440">
                <time>2019-06-14T09:33:31Z</time>
            </trkpt>
            <trkpt lat="54.845750" lon="-8.317410">
                <time>2019-06-14T09:33:32Z</time>
            </trkpt>
            <trkpt lat="54.845880" lon="-8.317350">
                <time>2019-06-14T09:33:33Z</time>
            </trkpt>
            <trkpt lat="54.846000" lon="-8.317260">
                <time>2019-06-14T09:33:34Z</time>
            </trkpt>
            <trkpt lat="54.846130" lon="-8.317150">
                <time>2019-06-14T09:33:35Z</time>
            </trkpt>
            <trkpt lat="54.846250" lon="-8.317000">
                <time>2019-06-14T09:33:36Z</time>
            </trkpt>
            <trkpt lat="54.846360" lon="-8.316830">
                <time>2019-06-14T09:33:37Z</time>
            </trkpt>
            <trkpt lat="54.846480" lon="-8.316640">
                <time>2019-06-14T09:33:38Z</time>
            </trkpt>
            <trkpt lat="54.846600" lon="-8.316430">
                <time>2019-06-14T09:33:39Z</time>
            </trkpt>
            <trkpt lat="54.846720" lon="-8.316220">
                <time>2019-06-14T09:33:40Z</time>
            </trkpt>
            <trkpt lat="54.846840" lon="-8.316040">
                <time>2019-06-14T09:33:41Z</time>
            </trkpt>
            <trkpt lat="54.846960" lon="-8.315870">
                <time>2019-06-14T09:33:42Z</time>
            </trkpt>
            <trkpt lat="54.847080" lon="-8.315720">
                <time>2019-06-14T09:33:43Z</time>
            </trkpt>
            <trkpt lat="54.847210" lon="-8.315580">
                <time>2019-06-14T09:33:44Z</time>
            </trkpt>
            <trkpt lat="54.847340" lon="-8.315470">
                <time>2019-06-14T09:33:45Z</time>
            </trkpt>
            <trkpt lat="54.847480" lon="-8.315400">
                <time>2019-06-14T09:33:46Z</time>
            </trkpt>
            <trkpt lat="54.847620" lon="-8.315360">
                <time>2019-06-14T09:33:47Z</time>
            </trkpt>
            <trkpt lat="54.847770" lon="-8.315370">
                <time>2019-06-14T09:33:48Z</time>
            </trkpt>
            <trkpt lat="54.847910" lon="-8.315400">
                <time>2019-06-14T09:33:49Z</time>
            </trkpt>
            <trkpt lat="54.848060" lon="-8.315470">
                <time>2019-06-14T09:33:50Z</time>
            </trkpt>
            <trkpt lat="54.848200" lon="-8.315560">
                <time>2019-06-14T09:33:51Z</time>
            </trkpt>
            <trkpt lat="54.848350" lon="-8.315660">
                <time>2019-06-14T09:33:52Z</time>
            </trkpt>
            <trkpt lat="54.848490" lon="-8.315770">
                <time>2019-06-14T09:33:53Z</time>
            </trkpt>
            <trkpt lat="54.848620" lon="-8.315870">
                <time>2019-06-14T09:33:54Z</time>
            </trkpt>
            <trkpt lat="54.848750" lon="-8.315960">
                <time>2019-06-14T09:33:55Z</time>
            </trkpt>
            <trkpt lat="54.848880" lon="-8.316060">
                <time>2019-06-14T09:33:56Z</time>
            </trkpt>
            <trkpt lat="54.849010" lon="-8.316150">
                <time>2019-06-14T09:33:57Z</time>
            </trkpt>
            <trkpt lat="54.849130" lon="-8.316240">
                <time>2019-06-14T09:33:58Z</time>
            </trkpt>
            <trkpt lat="54.849230" lon="-8.316320">
                <time>2019-06-14T09:33:59Z</time>
            </trkpt>
            <trkpt lat="54.849320" lon="-8.316390">
                <time>2019-06-14T09:34:00Z</time>
            </trkpt>
            <trkpt lat="54.849410" lon="-8.316460">
                <time>2019-06-14T09:34:01Z</time>
            </trkpt>
            <trkpt lat="54.849480" lon="-8.316520">
                <time>2019-06-14T09:34:02Z</time>
            </trkpt>
            <trkpt lat="54.849550" lon="-8.316570">
                <time>2019-06-14T09:34:03Z</time>
            </trkpt>
            <trkpt lat="54.849610" lon="-8.316610">
                <time>2019-06-14T09:34:04Z</time>
            </trkpt>
            <trkpt lat="54.849660" lon="-8.316640">
                <time>2019-06-14T09:34:05Z</time>
            </trkpt>
            <trkpt lat="54.849710" lon="-8.316670">
                <time>2019-06-14T09:34:06Z</time>
            </trkpt>
            <trkpt lat="54.849760" lon="-8.316690">
                <time>2019-06-14T09:34:07Z</time>
            </trkpt>
            <trkpt lat="54.849800" lon="-8.316700">
                <time>2019-06-14T09:34:08Z</time>
            </trkpt>
            <trkpt lat="54.849840" lon="-8.316720">
                <time>2019-06-14T09:34:09Z</time>
            </trkpt>
            <trkpt lat="54.849900" lon="-8.316740">
                <time>2019-06-14T09:34:10Z</time>
            </trkpt>
            <trkpt lat="54.849960" lon="-8.316720">
                <time>2019-06-14T09:34:11Z</time>
            </trkpt>
            <trkpt lat="54.850000" lon="-8.316670">
                <time>2019-06-14T09:34:12Z</time>
            </trkpt>
            <trkpt lat="54.850030" lon="-8.316600">
                <time>2019-06-14T09:34:13Z</time>
            </trkpt>
            <trkpt lat="54.850030" lon="-8.316540">
                <time>2019-06-14T09:34:14Z</time>
            </trkpt>
            <trkpt lat="54.850020" lon="-8.316500">
                <time>2019-06-14T09:34:15Z</time>
            </trkpt>
            <trkpt lat="54.849990" lon="-8.316440">
                <time>2019-06-14T09:34:16Z</time>
            </trkpt>
            <trkpt lat="54.849970" lon="-8.316370">
                <time>2019-06-14T09:34:17Z</time>
            </trkpt>
            <trkpt lat="54.849960" lon="-8.316300">
                <time>2019-06-14T09:34:18Z</time>
            </trkpt>
            <trkpt lat="54.849950" lon="-8.316230">
                <time>2019-06-14T09:34:19Z</time>
            </trkpt>
            <trkpt lat="54.849940" lon="-8.316160">
                <time>2019-06-14T09:34:20Z</time>
            </trkpt>
            <trkpt lat="54.849940" lon="-8.316110">
                <time>2019-06-14T09:34:21Z</time>
            </trkpt>
            <trkpt lat="54.849940" lon="-8.316060">
                <time>2019-06-14T09:34:22Z</time>
            </trkpt>
            <trkpt lat="54.849940" lon="-8.316010">
                <time>2019-06-14T09:34:23Z</time>
            </trkpt>
            <trkpt lat="54.849950" lon="-8.315960">
                <time>2019-06-14T09:34:24Z</time>
            </trkpt>
            <trkpt lat="54.849960" lon="-8.315910">
                <time>2019-06-14T09:34:25Z</time>
            </trkpt>
            <trkpt lat="54.849960" lon="-8.315850">
                <time>2019-06-14T09:34:26Z</time>
            </trkpt>
            <trkpt lat="54.849960" lon="-8.315810">
                <time>2019-06-14T09:34:27Z</time>
            </trkpt>
            <trkpt lat="54.849960" lon="-8.315770">
                <time>2019-06-14T09:34:28Z</time>
            </trkpt>
            <trkpt lat="54.849960" lon="-8.315740">
                <time>2019-06-14T09:34:29Z</time>
            </trkpt>
            <trkpt lat="54.849970" lon="-8.315700">
                <time>2019-06-14T09:34:30Z</time>
            </trkpt>
            <trkpt lat="54.849980" lon="-8.315670">
                <time>2019-06-14T09:34:31Z</time>
            </trkpt>
            <trkpt lat="54.849980" lon="-8.315650">
                <time>2019-06-14T09:34:32Z</time>
            </trkpt>
            <trkpt lat="54.849980" lon="-8.315640">
                <time>2019-06-14T09:34:33Z</time>
            </trkpt>
            <trkpt lat="54.849980" lon="-8.315630">
                <time>2019-06-14T09:34:34Z</time>
            </trkpt>
            <trkpt lat="54.849980" lon="-8.315610">
                <time>2019-06-14T09:34:35Z</time>
            </trkpt>
            <trkpt lat="54.849990" lon="-8.315560">
                <time>2019-06-14T09:34:36Z</time>
            </trkpt>
            <trkpt lat="54.849990" lon="-8.315510">
                <time>2019-06-14T09:34:37Z</time>
            </trkpt>
            <trkpt lat="54.850000" lon="-8.315460">
                <time>2019-06-14T09:34:38Z</time>
            </trkpt>
            <trkpt lat="54.850010" lon="-8.315430">
                <time>2019-06-14T09:34:39Z</time>
            </trkpt>
            <trkpt lat="54.850030" lon="-8.315430">
                <time>2019-06-14T09:34:40Z</time>
            </trkpt>
            <trkpt lat="54.850040" lon="-8.315440">
                <time>2019-06-14T09:34:41Z</time>
            </trkpt>
            <trkpt lat="54.850050" lon="-8.315450">
                <time>2019-06-14T09:34:42Z</time>
            </trkpt>
            <trkpt lat="54.850050" lon="-8.315460">
                <time>2019-06-14T09:34:43Z</time>
            </trkpt>
            <trkpt lat="54.850050" lon="-8.315480">
                <time>2019-06-14T09:34:44Z</time>
            </trkpt>
            <trkpt lat="54.850050" lon="-8.315490">
                <time>2019-06-14T09:34:45Z</time>
            </trkpt>
            <trkpt lat="54.850060" lon="-8.315500">
                <time>2019-06-14T09:34:46Z</time>
            </trkpt>
            <trkpt lat="54.850060" lon="-8.315500">
                <time>2019-06-14T09:34:47Z</time>
            </trkpt>
            <trkpt lat="54.850060" lon="-8.315500">
                <time>2019-06-14T09:34:48Z</time>
            </trkpt>
            <trkpt lat="54.850050" lon="-8.315510">
                <time>2019-06-14T09:34:49Z</time>
            </trkpt>
            <trkpt lat="54.850050" lon="-8.315510">
                <time>2019-06-14T09:34:50Z</time>
            </trkpt>
            <trkpt lat="54.850050" lon="-8.315520">
                <time>2019-06-14T09:34:51Z</time>
            </trkpt>
            <trkpt lat="54.850050" lon="-8.315520">
                <time>2019-06-14T09:34:52Z</time>
            </trkpt>
            <trkpt lat="54.850050" lon="-8.315520">
                <time>2019-06-14T09:34:53Z</time>
            </trkpt>
            <trkpt lat="54.850050" lon="-8.315520">
                <time>2019-06-14T09:34:54Z</time>
            </trkpt>
            <trkpt lat="54.850050" lon="-8.315520">
                <time>2019-06-14T09:34:55Z</time>
            </trkpt>
            <trkpt lat="54.850050" lon="-8.315520">
                <time>2019-06-14T09:34:56Z</time>
            </trkpt>
            <trkpt lat="54.850050" lon="-8.315520">
                <time>2019-06-14T09:34:57Z</time>
            </trkpt>
            <trkpt lat="54.850050" lon="-8.315520">
                <time>2019-06-14T09:34:58Z</time>
            </trkpt>
            <trkpt lat="54.850040" lon="-8.315520">
                <time>2019-06-14T09:34:59Z</time>
            </trkpt>
            <trkpt lat="54.850040" lon="-8.315520">
                <time>2019-06-14T09:35:00Z</time>
            </trkpt>
            <trkpt lat="54.850040" lon="-8.315520">
                <time>2019-06-14T09:35:01Z</time>
            </trkpt>
            <trkpt lat="54.850040" lon="-8.315520">
                <time>2019-06-14T09:35:02Z</time>
            </trkpt>
            <trkpt lat="54.850040" lon="-8.315520">
                <time>2019-06-14T09:35:03Z</time>
            </trkpt>
            <trkpt lat="54.850040" lon="-8.315520">
                <time>2019-06-14T09:35:04Z</time>
            </trkpt>
            <trkpt lat="54.850040" lon="-8.315520">
                <time>2019-06-14T09:35:05Z</time>
            </trkpt>
            <trkpt lat="54.850040" lon="-8.315520">
                <time>2019-06-14T09:35:06Z</time>
            </trkpt>
            <trkpt lat="54.850050" lon="-8.315520">
                <time>2019-06-14T09:35:07Z</time>
            </trkpt>
            <trkpt lat="54.850050" lon="-8.315520">
                <time>2019-06-14T09:35:08Z</time>
            </trkpt>
            <trkpt lat="54.850050" lon="-8.315520">
                <time>2019-06-14T09:35:09Z</time>
            </trkpt>
            <trkpt lat="54.850050" lon="-8.315520">
                <time>2019-06-14T09:35:10Z</time>
            </trkpt>
            <trkpt lat="54.850050" lon="-8.315520">
                <time>2019-06-14T09:35:12Z</time>
            </trkpt>
            <trkpt lat="54.850050" lon="-8.315520">
                <time>2019-06-14T09:35:13Z</time>
            </trkpt>
            <trkpt lat="54.850050" lon="-8.315520">
                <time>2019-06-14T09:35:14Z</time>
            </trkpt>
            <trkpt lat="54.850050" lon="-8.315520">
                <time>2019-06-14T09:35:15Z</time>
            </trkpt>
            <trkpt lat="54.850050" lon="-8.315520">
                <time>2019-06-14T09:35:16Z</time>
            </trkpt>
            <trkpt lat="54.850050" lon="-8.315510">
                <time>2019-06-14T09:35:17Z</time>
            </trkpt>
            <trkpt lat="54.850050" lon="-8.315510">
                <time>2019-06-14T09:35:18Z</time>
            </trkpt>
            <trkpt lat="54.850050" lon="-8.315510">
                <time>2019-06-14T09:35:19Z</time>
            </trkpt>
            <trkpt lat="54.850050" lon="-8.315510">
                <time>2019-06-14T09:35:20Z</time>
            </trkpt>
            <trkpt lat="54.850050" lon="-8.315510">
                <time>2019-06-14T09:35:21Z</time>
            </trkpt>
            <trkpt lat="54.850050" lon="-8.315510">
                <time>2019-06-14T09:35:22Z</time>
            </trkpt>
            <trkpt lat="54.850050" lon="-8.315510">
                <time>2019-06-14T09:35:23Z</time>
            </trkpt>
            <trkpt lat="54.850050" lon="-8.315510">
                <time>2019-06-14T09:35:24Z</time>
            </trkpt>
            <trkpt lat="54.850050" lon="-8.315510">
                <time>2019-06-14T09:35:25Z</time>
            </trkpt>
            <trkpt lat="54.850050" lon="-8.315510">
                <time>2019-06-14T09:35:26Z</time>
            </trkpt>
            <trkpt lat="54.850050" lon="-8.315510">
                <time>2019-06-14T09:35:27Z</time>
            </trkpt>
            <trkpt lat="54.850050" lon="-8.315510">
                <time>2019-06-14T09:35:28Z</time>
            </trkpt>
            <trkpt lat="54.850050" lon="-8.315510">
                <time>2019-06-14T09:35:29Z</time>
            </trkpt>
            <trkpt lat="54.850050" lon="-8.315510">
                <time>2019-06-14T09:35:30Z</time>
            </trkpt>
            <trkpt lat="54.850050" lon="-8.315510">
                <time>2019-06-14T09:35:31Z</time>
            </trkpt>
            <trkpt lat="54.850050" lon="-8.315510">
                <time>2019-06-14T09:35:32Z</time>
            </trkpt>
            <trkpt lat="54.850050" lon="-8.315510">
                <time>2019-06-14T09:35:33Z</time>
            </trkpt>
            <trkpt lat="54.850050" lon="-8.315510">
                <time>2019-06-14T09:35:34Z</time>
            </trkpt>
            <trkpt lat="54.850050" lon="-8.315510">
                <time>2019-06-14T09:35:35Z</time>
            </trkpt>
            <trkpt lat="54.850050" lon="-8.315510">
                <time>2019-06-14T09:35:36Z</time>
            </trkpt>
            <trkpt lat="54.850050" lon="-8.315510">
                <time>2019-06-14T09:35:37Z</time>
            </trkpt>
            <trkpt lat="54.850050" lon="-8.315510">
                <time>2019-06-14T09:35:38Z</time>
            </trkpt>
            <trkpt lat="54.850050" lon="-8.315510">
                <time>2019-06-14T09:35:39Z</time>
            </trkpt>
            <trkpt lat="54.850060" lon="-8.315530">
                <time>2019-06-14T09:35:40Z</time>
            </trkpt>
            <trkpt lat="54.850080" lon="-8.315580">
                <time>2019-06-14T09:35:41Z</time>
            </trkpt>
            <trkpt lat="54.850130" lon="-8.315670">
                <time>2019-06-14T09:35:42Z</time>
            </trkpt>
            <trkpt lat="54.850160" lon="-8.315720">
                <time>2019-06-14T09:35:43Z</time>
            </trkpt>
            <trkpt lat="54.850200" lon="-8.315760">
                <time>2019-06-14T09:35:44Z</time>
            </trkpt>
            <trkpt lat="54.850240" lon="-8.315790">
                <time>2019-06-14T09:35:45Z</time>
            </trkpt>
            <trkpt lat="54.850280" lon="-8.315830">
                <time>2019-06-14T09:35:46Z</time>
            </trkpt>
            <trkpt lat="54.850330" lon="-8.315880">
                <time>2019-06-14T09:35:47Z</time>
            </trkpt>
            <trkpt lat="54.850390" lon="-8.315920">
                <time>2019-06-14T09:35:48Z</time>
            </trkpt>
            <trkpt lat="54.850430" lon="-8.315950">
                <time>2019-06-14T09:35:49Z</time>
            </trkpt>
            <trkpt lat="54.850460" lon="-8.315970">
                <time>2019-06-14T09:35:50Z</time>
            </trkpt>
            <trkpt lat="54.850480" lon="-8.315980">
                <time>2019-06-14T09:35:51Z</time>
            </trkpt>
            <trkpt lat="54.850500" lon="-8.315990">
                <time>2019-06-14T09:35:52Z</time>
            </trkpt>
            <trkpt lat="54.850520" lon="-8.316010">
                <time>2019-06-14T09:35:53Z</time>
            </trkpt>
            <trkpt lat="54.850530" lon="-8.316020">
                <time>2019-06-14T09:35:54Z</time>
            </trkpt>
            <trkpt lat="54.850540" lon="-8.316030">
                <time>2019-06-14T09:35:55Z</time>
            </trkpt>
            <trkpt lat="54.850550" lon="-8.316030">
                <time>2019-06-14T09:35:56Z</time>
            </trkpt>
            <trkpt lat="54.850540" lon="-8.316040">
                <time>2019-06-14T09:35:57Z</time>
            </trkpt>
            <trkpt lat="54.850540" lon="-8.316030">
                <time>2019-06-14T09:35:58Z</time>
            </trkpt>
            <trkpt lat="54.850550" lon="-8.316040">
                <time>2019-06-14T09:35:59Z</time>
            </trkpt>
            <trkpt lat="54.850560" lon="-8.316060">
                <time>2019-06-14T09:36:00Z</time>
            </trkpt>
            <trkpt lat="54.850580" lon="-8.316100">
                <time>2019-06-14T09:36:01Z</time>
            </trkpt>
            <trkpt lat="54.850610" lon="-8.316130">
                <time>2019-06-14T09:36:02Z</time>
            </trkpt>
            <trkpt lat="54.850650" lon="-8.316170">
                <time>2019-06-14T09:36:03Z</time>
            </trkpt>
            <trkpt lat="54.850720" lon="-8.316190">
                <time>2019-06-14T09:36:04Z</time>
            </trkpt>
            <trkpt lat="54.850790" lon="-8.316160">
                <time>2019-06-14T09:36:05Z</time>
            </trkpt>
            <trkpt lat="54.850890" lon="-8.316080">
                <time>2019-06-14T09:36:06Z</time>
            </trkpt>
            <trkpt lat="54.850990" lon="-8.315980">
                <time>2019-06-14T09:36:07Z</time>
            </trkpt>
            <trkpt lat="54.851100" lon="-8.315890">
                <time>2019-06-14T09:36:08Z</time>
            </trkpt>
            <trkpt lat="54.851230" lon="-8.315810">
                <time>2019-06-14T09:36:09Z</time>
            </trkpt>
            <trkpt lat="54.851350" lon="-8.315740">
                <time>2019-06-14T09:36:10Z</time>
            </trkpt>
            <trkpt lat="54.851470" lon="-8.315700">
                <time>2019-06-14T09:36:11Z</time>
            </trkpt>
            <trkpt lat="54.851600" lon="-8.315650">
                <time>2019-06-14T09:36:12Z</time>
            </trkpt>
            <trkpt lat="54.851750" lon="-8.315610">
                <time>2019-06-14T09:36:13Z</time>
            </trkpt>
            <trkpt lat="54.851910" lon="-8.315560">
                <time>2019-06-14T09:36:14Z</time>
            </trkpt>
            <trkpt lat="54.852070" lon="-8.315510">
                <time>2019-06-14T09:36:15Z</time>
            </trkpt>
            <trkpt lat="54.852220" lon="-8.315470">
                <time>2019-06-14T09:36:16Z</time>
            </trkpt>
            <trkpt lat="54.852380" lon="-8.315420">
                <time>2019-06-14T09:36:17Z</time>
            </trkpt>
            <trkpt lat="54.852540" lon="-8.315370">
                <time>2019-06-14T09:36:18Z</time>
            </trkpt>
            <trkpt lat="54.852710" lon="-8.315310">
                <time>2019-06-14T09:36:19Z</time>
            </trkpt>
            <trkpt lat="54.852870" lon="-8.315250">
                <time>2019-06-14T09:36:20Z</time>
            </trkpt>
            <trkpt lat="54.853030" lon="-8.315170">
                <time>2019-06-14T09:36:21Z</time>
            </trkpt>
            <trkpt lat="54.853190" lon="-8.315080">
                <time>2019-06-14T09:36:22Z</time>
            </trkpt>
            <trkpt lat="54.853340" lon="-8.314970">
                <time>2019-06-14T09:36:23Z</time>
            </trkpt>
            <trkpt lat="54.853490" lon="-8.314840">
                <time>2019-06-14T09:36:24Z</time>
            </trkpt>
            <trkpt lat="54.853650" lon="-8.314700">
                <time>2019-06-14T09:36:25Z</time>
            </trkpt>
            <trkpt lat="54.853800" lon="-8.314530">
                <time>2019-06-14T09:36:26Z</time>
            </trkpt>
            <trkpt lat="54.853950" lon="-8.314350">
                <time>2019-06-14T09:36:27Z</time>
            </trkpt>
            <trkpt lat="54.854090" lon="-8.314180">
                <time>2019-06-14T09:36:28Z</time>
            </trkpt>
            <trkpt lat="54.854220" lon="-8.314010">
                <time>2019-06-14T09:36:29Z</time>
            </trkpt>
            <trkpt lat="54.854340" lon="-8.313820">
                <time>2019-06-14T09:36:30Z</time>
            </trkpt>
            <trkpt lat="54.854450" lon="-8.313580">
                <time>2019-06-14T09:36:31Z</time>
            </trkpt>
            <trkpt lat="54.854550" lon="-8.313270">
                <time>2019-06-14T09:36:32Z</time>
            </trkpt>
            <trkpt lat="54.854630" lon="-8.312950">
                <time>2019-06-14T09:36:33Z</time>
            </trkpt>
            <trkpt lat="54.854700" lon="-8.312650">
                <time>2019-06-14T09:36:34Z</time>
            </trkpt>
            <trkpt lat="54.854770" lon="-8.312370">
                <time>2019-06-14T09:36:35Z</time>
            </trkpt>
            <trkpt lat="54.854840" lon="-8.312100">
                <time>2019-06-14T09:36:36Z</time>
            </trkpt>
            <trkpt lat="54.854910" lon="-8.311830">
                <time>2019-06-14T09:36:37Z</time>
            </trkpt>
            <trkpt lat="54.854980" lon="-8.311550">
                <time>2019-06-14T09:36:38Z</time>
            </trkpt>
            <trkpt lat="54.855060" lon="-8.311270">
                <time>2019-06-14T09:36:39Z</time>
            </trkpt>
            <trkpt lat="54.855140" lon="-8.311000">
                <time>2019-06-14T09:36:40Z</time>
            </trkpt>
            <trkpt lat="54.855210" lon="-8.310740">
                <time>2019-06-14T09:36:41Z</time>
            </trkpt>
            <trkpt lat="54.855270" lon="-8.310480">
                <time>2019-06-14T09:36:42Z</time>
            </trkpt>
            <trkpt lat="54.855330" lon="-8.310230">
                <time>2019-06-14T09:36:43Z</time>
            </trkpt>
            <trkpt lat="54.855380" lon="-8.309990">
                <time>2019-06-14T09:36:44Z</time>
            </trkpt>
            <trkpt lat="54.855420" lon="-8.309760">
                <time>2019-06-14T09:36:45Z</time>
            </trkpt>
            <trkpt lat="54.855470" lon="-8.309550">
                <time>2019-06-14T09:36:46Z</time>
            </trkpt>
            <trkpt lat="54.855510" lon="-8.309340">
                <time>2019-06-14T09:36:47Z</time>
            </trkpt>
            <trkpt lat="54.855550" lon="-8.309130">
                <time>2019-06-14T09:36:48Z</time>
            </trkpt>
            <trkpt lat="54.855590" lon="-8.308920">
                <time>2019-06-14T09:36:49Z</time>
            </trkpt>
            <trkpt lat="54.855640" lon="-8.308720">
                <time>2019-06-14T09:36:50Z</time>
            </trkpt>
            <trkpt lat="54.855670" lon="-8.308520">
                <time>2019-06-14T09:36:51Z</time>
            </trkpt>
            <trkpt lat="54.855710" lon="-8.308340">
                <time>2019-06-14T09:36:52Z</time>
            </trkpt>
            <trkpt lat="54.855740" lon="-8.308160">
                <time>2019-06-14T09:36:53Z</time>
            </trkpt>
            <trkpt lat="54.855770" lon="-8.307980">
                <time>2019-06-14T09:36:54Z</time>
            </trkpt>
            <trkpt lat="54.855810" lon="-8.307800">
                <time>2019-06-14T09:36:55Z</time>
            </trkpt>
            <trkpt lat="54.855850" lon="-8.307630">
                <time>2019-06-14T09:36:56Z</time>
            </trkpt>
            <trkpt lat="54.855880" lon="-8.307460">
                <time>2019-06-14T09:36:57Z</time>
            </trkpt>
            <trkpt lat="54.855910" lon="-8.307300">
                <time>2019-06-14T09:36:58Z</time>
            </trkpt>
            <trkpt lat="54.855950" lon="-8.307140">
                <time>2019-06-14T09:36:59Z</time>
            </trkpt>
            <trkpt lat="54.855990" lon="-8.306990">
                <time>2019-06-14T09:37:00Z</time>
            </trkpt>
            <trkpt lat="54.856020" lon="-8.306860">
                <time>2019-06-14T09:37:01Z</time>
            </trkpt>
            <trkpt lat="54.856050" lon="-8.306790">
                <time>2019-06-14T09:37:02Z</time>
            </trkpt>
            <trkpt lat="54.856060" lon="-8.306740">
                <time>2019-06-14T09:37:03Z</time>
            </trkpt>
            <trkpt lat="54.856070" lon="-8.306690">
                <time>2019-06-14T09:37:04Z</time>
            </trkpt>
            <trkpt lat="54.856090" lon="-8.306650">
                <time>2019-06-14T09:37:05Z</time>
            </trkpt>
            <trkpt lat="54.856100" lon="-8.306610">
                <time>2019-06-14T09:37:06Z</time>
            </trkpt>
            <trkpt lat="54.856110" lon="-8.306550">
                <time>2019-06-14T09:37:07Z</time>
            </trkpt>
            <trkpt lat="54.856120" lon="-8.306470">
                <time>2019-06-14T09:37:08Z</time>
            </trkpt>
            <trkpt lat="54.856120" lon="-8.306400">
                <time>2019-06-14T09:37:09Z</time>
            </trkpt>
            <trkpt lat="54.856110" lon="-8.306340">
                <time>2019-06-14T09:37:10Z</time>
            </trkpt>
            <trkpt lat="54.856110" lon="-8.306290">
                <time>2019-06-14T09:37:11Z</time>
            </trkpt>
            <trkpt lat="54.856110" lon="-8.306260">
                <time>2019-06-14T09:37:12Z</time>
            </trkpt>
            <trkpt lat="54.856100" lon="-8.306220">
                <time>2019-06-14T09:37:13Z</time>
            </trkpt>
            <trkpt lat="54.856100" lon="-8.306180">
                <time>2019-06-14T09:37:14Z</time>
            </trkpt>
            <trkpt lat="54.856100" lon="-8.306150">
                <time>2019-06-14T09:37:15Z</time>
            </trkpt>
            <trkpt lat="54.856100" lon="-8.306120">
                <time>2019-06-14T09:37:16Z</time>
            </trkpt>
            <trkpt lat="54.856100" lon="-8.306100">
                <time>2019-06-14T09:37:17Z</time>
            </trkpt>
            <trkpt lat="54.856100" lon="-8.306090">
                <time>2019-06-14T09:37:18Z</time>
            </trkpt>
            <trkpt lat="54.856100" lon="-8.306090">
                <time>2019-06-14T09:37:19Z</time>
            </trkpt>
            <trkpt lat="54.856100" lon="-8.306090">
                <time>2019-06-14T09:37:20Z</time>
            </trkpt>
            <trkpt lat="54.856110" lon="-8.306100">
                <time>2019-06-14T09:37:21Z</time>
            </trkpt>
            <trkpt lat="54.856110" lon="-8.306100">
                <time>2019-06-14T09:37:22Z</time>
            </trkpt>
            <trkpt lat="54.856110" lon="-8.306090">
                <time>2019-06-14T09:37:23Z</time>
            </trkpt>
            <trkpt lat="54.856100" lon="-8.306070">
                <time>2019-06-14T09:37:24Z</time>
            </trkpt>
            <trkpt lat="54.856100" lon="-8.306040">
                <time>2019-06-14T09:37:25Z</time>
            </trkpt>
            <trkpt lat="54.856110" lon="-8.306010">
                <time>2019-06-14T09:37:26Z</time>
            </trkpt>
            <trkpt lat="54.856110" lon="-8.305990">
                <time>2019-06-14T09:37:27Z</time>
            </trkpt>
            <trkpt lat="54.856110" lon="-8.305980">
                <time>2019-06-14T09:37:28Z</time>
            </trkpt>
            <trkpt lat="54.856110" lon="-8.305970">
                <time>2019-06-14T09:37:29Z</time>
            </trkpt>
            <trkpt lat="54.856120" lon="-8.305970">
                <time>2019-06-14T09:37:30Z</time>
            </trkpt>
            <trkpt lat="54.856120" lon="-8.305970">
                <time>2019-06-14T09:37:31Z</time>
            </trkpt>
            <trkpt lat="54.856110" lon="-8.305970">
                <time>2019-06-14T09:37:32Z</time>
            </trkpt>
            <trkpt lat="54.856110" lon="-8.305970">
                <time>2019-06-14T09:37:33Z</time>
            </trkpt>
            <trkpt lat="54.856110" lon="-8.305970">
                <time>2019-06-14T09:37:34Z</time>
            </trkpt>
            <trkpt lat="54.856120" lon="-8.305970">
                <time>2019-06-14T09:37:35Z</time>
            </trkpt>
            <trkpt lat="54.856120" lon="-8.305970">
                <time>2019-06-14T09:37:36Z</time>
            </trkpt>
            <trkpt lat="54.856120" lon="-8.305970">
                <time>2019-06-14T09:37:37Z</time>
            </trkpt>
            <trkpt lat="54.856120" lon="-8.305970">
                <time>2019-06-14T09:37:38Z</time>
            </trkpt>
            <trkpt lat="54.856120" lon="-8.305970">
                <time>2019-06-14T09:37:39Z</time>
            </trkpt>
            <trkpt lat="54.856120" lon="-8.305980">
                <time>2019-06-14T09:37:40Z</time>
            </trkpt>
            <trkpt lat="54.856120" lon="-8.305980">
                <time>2019-06-14T09:37:41Z</time>
            </trkpt>
            <trkpt lat="54.856120" lon="-8.305980">
                <time>2019-06-14T09:37:42Z</time>
            </trkpt>
            <trkpt lat="54.856120" lon="-8.305980">
                <time>2019-06-14T09:37:43Z</time>
            </trkpt>
            <trkpt lat="54.856120" lon="-8.305980">
                <time>2019-06-14T09:37:44Z</time>
            </trkpt>
            <trkpt lat="54.856120" lon="-8.305980">
                <time>2019-06-14T09:37:45Z</time>
            </trkpt>
            <trkpt lat="54.856120" lon="-8.305980">
                <time>2019-06-14T09:37:46Z</time>
            </trkpt>
            <trkpt lat="54.856120" lon="-8.305980">
                <time>2019-06-14T09:37:47Z</time>
            </trkpt>
            <trkpt lat="54.856120" lon="-8.305980">
                <time>2019-06-14T09:37:48Z</time>
            </trkpt>
            <trkpt lat="54.856120" lon="-8.305980">
                <time>2019-06-14T09:37:49Z</time>
            </trkpt>
            <trkpt lat="54.856120" lon="-8.305980">
                <time>2019-06-14T09:37:50Z</time>
            </trkpt>
            <trkpt lat="54.856260" lon="-8.305970">
                <time>2019-06-14T09:49:36Z</time>
            </trkpt>
            <trkpt lat="54.856230" lon="-8.305840">
                <time>2019-06-14T09:49:37Z</time>
            </trkpt>
            <trkpt lat="54.856210" lon="-8.305810">
                <time>2019-06-14T09:49:38Z</time>
            </trkpt>
            <trkpt lat="54.856250" lon="-8.305760">
                <time>2019-06-14T09:49:39Z</time>
            </trkpt>
            <trkpt lat="54.856260" lon="-8.305720">
                <time>2019-06-14T09:49:40Z</time>
            </trkpt>
            <trkpt lat="54.856280" lon="-8.305690">
                <time>2019-06-14T09:49:41Z</time>
            </trkpt>
            <trkpt lat="54.856300" lon="-8.305650">
                <time>2019-06-14T09:49:42Z</time>
            </trkpt>
            <trkpt lat="54.856300" lon="-8.305610">
                <time>2019-06-14T09:49:43Z</time>
            </trkpt>
            <trkpt lat="54.856300" lon="-8.305560">
                <time>2019-06-14T09:49:44Z</time>
            </trkpt>
            <trkpt lat="54.856270" lon="-8.305520">
                <time>2019-06-14T09:49:45Z</time>
            </trkpt>
            <trkpt lat="54.856260" lon="-8.305480">
                <time>2019-06-14T09:49:46Z</time>
            </trkpt>
            <trkpt lat="54.856270" lon="-8.305430">
                <time>2019-06-14T09:49:47Z</time>
            </trkpt>
            <trkpt lat="54.856280" lon="-8.305410">
                <time>2019-06-14T09:49:48Z</time>
            </trkpt>
            <trkpt lat="54.856290" lon="-8.305400">
                <time>2019-06-14T09:49:49Z</time>
            </trkpt>
            <trkpt lat="54.856300" lon="-8.305390">
                <time>2019-06-14T09:49:50Z</time>
            </trkpt>
            <trkpt lat="54.856300" lon="-8.305390">
                <time>2019-06-14T09:49:51Z</time>
            </trkpt>
            <trkpt lat="54.856300" lon="-8.305400">
                <time>2019-06-14T09:49:52Z</time>
            </trkpt>
            <trkpt lat="54.856300" lon="-8.305410">
                <time>2019-06-14T09:49:53Z</time>
            </trkpt>
            <trkpt lat="54.856300" lon="-8.305410">
                <time>2019-06-14T09:49:54Z</time>
            </trkpt>
            <trkpt lat="54.856290" lon="-8.305410">
                <time>2019-06-14T09:49:55Z</time>
            </trkpt>
            <trkpt lat="54.856290" lon="-8.305420">
                <time>2019-06-14T09:49:56Z</time>
            </trkpt>
            <trkpt lat="54.856290" lon="-8.305430">
                <time>2019-06-14T09:49:57Z</time>
            </trkpt>
            <trkpt lat="54.856290" lon="-8.305440">
                <time>2019-06-14T09:49:58Z</time>
            </trkpt>
            <trkpt lat="54.856290" lon="-8.305440">
                <time>2019-06-14T09:49:59Z</time>
            </trkpt>
            <trkpt lat="54.856290" lon="-8.305440">
                <time>2019-06-14T09:50:00Z</time>
            </trkpt>
            <trkpt lat="54.856290" lon="-8.305440">
                <time>2019-06-14T09:50:01Z</time>
            </trkpt>
            <trkpt lat="54.856290" lon="-8.305440">
                <time>2019-06-14T09:50:02Z</time>
            </trkpt>
            <trkpt lat="54.856290" lon="-8.305440">
                <time>2019-06-14T09:50:03Z</time>
            </trkpt>
            <trkpt lat="54.856300" lon="-8.305440">
                <time>2019-06-14T09:50:04Z</time>
            </trkpt>
            <trkpt lat="54.856300" lon="-8.305440">
                <time>2019-06-14T09:50:05Z</time>
            </trkpt>
            <trkpt lat="54.856300" lon="-8.305440">
                <time>2019-06-14T09:50:06Z</time>
            </trkpt>
            <trkpt lat="54.856300" lon="-8.305440">
                <time>2019-06-14T09:50:07Z</time>
            </trkpt>
            <trkpt lat="54.856300" lon="-8.305440">
                <time>2019-06-14T09:50:08Z</time>
            </trkpt>
            <trkpt lat="54.856300" lon="-8.305440">
                <time>2019-06-14T09:50:09Z</time>
            </trkpt>
            <trkpt lat="54.856300" lon="-8.305440">
                <time>2019-06-14T09:50:10Z</time>
            </trkpt>
            <trkpt lat="54.856300" lon="-8.305440">
                <time>2019-06-14T09:50:11Z</time>
            </trkpt>
            <trkpt lat="54.856300" lon="-8.305440">
                <time>2019-06-14T09:50:12Z</time>
            </trkpt>
            <trkpt lat="54.856300" lon="-8.305440">
                <time>2019-06-14T09:50:13Z</time>
            </trkpt>
            <trkpt lat="54.856300" lon="-8.305440">
                <time>2019-06-14T09:50:14Z</time>
            </trkpt>
            <trkpt lat="54.856300" lon="-8.305440">
                <time>2019-06-14T09:50:15Z</time>
            </trkpt>
            <trkpt lat="54.856300" lon="-8.305440">
                <time>2019-06-14T09:50:16Z</time>
            </trkpt>
            <trkpt lat="54.856300" lon="-8.305440">
                <time>2019-06-14T09:50:17Z</time>
            </trkpt>
            <trkpt lat="54.856300" lon="-8.305440">
                <time>2019-06-14T09:50:18Z</time>
            </trkpt>
            <trkpt lat="54.856300" lon="-8.305440">
                <time>2019-06-14T09:50:19Z</time>
            </trkpt>
            <trkpt lat="54.856300" lon="-8.305440">
                <time>2019-06-14T09:50:20Z</time>
            </trkpt>
            <trkpt lat="54.856300" lon="-8.305440">
                <time>2019-06-14T09:50:21Z</time>
            </trkpt>
            <trkpt lat="54.856300" lon="-8.305440">
                <time>2019-06-14T09:50:22Z</time>
            </trkpt>
            <trkpt lat="54.856300" lon="-8.305440">
                <time>2019-06-14T09:50:23Z</time>
            </trkpt>
            <trkpt lat="54.856300" lon="-8.305440">
                <time>2019-06-14T09:50:24Z</time>
            </trkpt>
            <trkpt lat="54.856300" lon="-8.305440">
                <time>2019-06-14T09:50:25Z</time>
            </trkpt>
            <trkpt lat="54.856300" lon="-8.305440">
                <time>2019-06-14T09:50:26Z</time>
            </trkpt>
            <trkpt lat="54.856300" lon="-8.305440">
                <time>2019-06-14T09:50:27Z</time>
            </trkpt>
            <trkpt lat="54.856300" lon="-8.305440">
                <time>2019-06-14T09:50:28Z</time>
            </trkpt>
            <trkpt lat="54.856300" lon="-8.305440">
                <time>2019-06-14T09:50:29Z</time>
            </trkpt>
            <trkpt lat="54.856300" lon="-8.305440">
                <time>2019-06-14T09:50:30Z</time>
            </trkpt>
            <trkpt lat="54.856300" lon="-8.305440">
                <time>2019-06-14T09:50:31Z</time>
            </trkpt>
            <trkpt lat="54.856300" lon="-8.305440">
                <time>2019-06-14T09:50:32Z</time>
            </trkpt>
            <trkpt lat="54.856300" lon="-8.305440">
                <time>2019-06-14T09:50:33Z</time>
            </trkpt>
            <trkpt lat="54.856300" lon="-8.305440">
                <time>2019-06-14T09:50:34Z</time>
            </trkpt>
            <trkpt lat="54.856300" lon="-8.305440">
                <time>2019-06-14T09:50:35Z</time>
            </trkpt>
            <trkpt lat="54.856300" lon="-8.305440">
                <time>2019-06-14T09:50:36Z</time>
            </trkpt>
            <trkpt lat="54.856300" lon="-8.305440">
                <time>2019-06-14T09:50:37Z</time>
            </trkpt>
            <trkpt lat="54.856300" lon="-8.305440">
                <time>2019-06-14T09:50:38Z</time>
            </trkpt>
            <trkpt lat="54.856300" lon="-8.305440">
                <time>2019-06-14T09:50:39Z</time>
            </trkpt>
            <trkpt lat="54.856300" lon="-8.305440">
                <time>2019-06-14T09:50:40Z</time>
            </trkpt>
            <trkpt lat="54.856300" lon="-8.305440">
                <time>2019-06-14T09:50:41Z</time>
            </trkpt>
            <trkpt lat="54.856300" lon="-8.305440">
                <time>2019-06-14T09:50:42Z</time>
            </trkpt>
            <trkpt lat="54.856300" lon="-8.305440">
                <time>2019-06-14T09:50:43Z</time>
            </trkpt>
            <trkpt lat="54.856300" lon="-8.305440">
                <time>2019-06-14T09:50:44Z</time>
            </trkpt>
            <trkpt lat="54.856300" lon="-8.305440">
                <time>2019-06-14T09:50:45Z</time>
            </trkpt>
            <trkpt lat="54.856300" lon="-8.305440">
                <time>2019-06-14T09:50:46Z</time>
            </trkpt>
            <trkpt lat="54.856300" lon="-8.305440">
                <time>2019-06-14T09:50:47Z</time>
            </trkpt>
            <trkpt lat="54.856300" lon="-8.305440">
                <time>2019-06-14T09:50:48Z</time>
            </trkpt>
            <trkpt lat="54.856300" lon="-8.305440">
                <time>2019-06-14T09:50:49Z</time>
            </trkpt>
            <trkpt lat="54.856300" lon="-8.305440">
                <time>2019-06-14T09:50:50Z</time>
            </trkpt>
            <trkpt lat="54.856300" lon="-8.305440">
                <time>2019-06-14T09:50:51Z</time>
            </trkpt>
            <trkpt lat="54.856300" lon="-8.305440">
                <time>2019-06-14T09:50:52Z</time>
            </trkpt>
            <trkpt lat="54.856300" lon="-8.305440">
                <time>2019-06-14T09:50:53Z</time>
            </trkpt>
            <trkpt lat="54.856300" lon="-8.305440">
                <time>2019-06-14T09:50:54Z</time>
            </trkpt>
            <trkpt lat="54.856300" lon="-8.305440">
                <time>2019-06-14T09:50:55Z</time>
            </trkpt>
            <trkpt lat="54.856300" lon="-8.305440">
                <time>2019-06-14T09:50:56Z</time>
            </trkpt>
            <trkpt lat="54.856300" lon="-8.305440">
                <time>2019-06-14T09:50:57Z</time>
            </trkpt>
            <trkpt lat="54.856300" lon="-8.305440">
                <time>2019-06-14T09:50:58Z</time>
            </trkpt>
            <trkpt lat="54.856300" lon="-8.305440">
                <time>2019-06-14T09:50:59Z</time>
            </trkpt>
            <trkpt lat="54.856300" lon="-8.305440">
                <time>2019-06-14T09:51:00Z</time>
            </trkpt>
            <trkpt lat="54.856300" lon="-8.305440">
                <time>2019-06-14T09:51:01Z</time>
            </trkpt>
            <trkpt lat="54.856300" lon="-8.305440">
                <time>2019-06-14T09:51:02Z</time>
            </trkpt>
            <trkpt lat="54.856300" lon="-8.305440">
                <time>2019-06-14T09:51:03Z</time>
            </trkpt>
            <trkpt lat="54.856300" lon="-8.305440">
                <time>2019-06-14T09:51:04Z</time>
            </trkpt>
            <trkpt lat="54.856300" lon="-8.305440">
                <time>2019-06-14T09:51:05Z</time>
            </trkpt>
            <trkpt lat="54.856300" lon="-8.305440">
                <time>2019-06-14T09:51:06Z</time>
            </trkpt>
            <trkpt lat="54.856300" lon="-8.305440">
                <time>2019-06-14T09:51:07Z</time>
            </trkpt>
            <trkpt lat="54.856300" lon="-8.305440">
                <time>2019-06-14T09:51:08Z</time>
            </trkpt>
            <trkpt lat="54.856300" lon="-8.305440">
                <time>2019-06-14T09:51:09Z</time>
            </trkpt>
            <trkpt lat="54.856300" lon="-8.305440">
                <time>2019-06-14T09:51:10Z</time>
            </trkpt>
            <trkpt lat="54.856300" lon="-8.305440">
                <time>2019-06-14T09:51:11Z</time>
            </trkpt>
            <trkpt lat="54.856300" lon="-8.305440">
                <time>2019-06-14T09:51:12Z</time>
            </trkpt>
            <trkpt lat="54.856300" lon="-8.305440">
                <time>2019-06-14T09:51:13Z</time>
            </trkpt>
            <trkpt lat="54.856300" lon="-8.305440">
                <time>2019-06-14T09:51:14Z</time>
            </trkpt>
            <trkpt lat="54.856300" lon="-8.305440">
                <time>2019-06-14T09:51:15Z</time>
            </trkpt>
            <trkpt lat="54.856300" lon="-8.305440">
                <time>2019-06-14T09:51:16Z</time>
            </trkpt>
            <trkpt lat="54.856300" lon="-8.305440">
                <time>2019-06-14T09:51:17Z</time>
            </trkpt>
            <trkpt lat="54.856300" lon="-8.305440">
                <time>2019-06-14T09:51:18Z</time>
            </trkpt>
            <trkpt lat="54.856300" lon="-8.305440">
                <time>2019-06-14T09:51:19Z</time>
            </trkpt>
            <trkpt lat="54.856300" lon="-8.305440">
                <time>2019-06-14T09:51:20Z</time>
            </trkpt>
            <trkpt lat="54.856300" lon="-8.305440">
                <time>2019-06-14T09:51:21Z</time>
            </trkpt>
            <trkpt lat="54.856300" lon="-8.305440">
                <time>2019-06-14T09:51:22Z</time>
            </trkpt>
            <trkpt lat="54.856300" lon="-8.305440">
                <time>2019-06-14T09:51:23Z</time>
            </trkpt>
            <trkpt lat="54.856300" lon="-8.305440">
                <time>2019-06-14T09:51:24Z</time>
            </trkpt>
            <trkpt lat="54.856300" lon="-8.305440">
                <time>2019-06-14T09:51:25Z</time>
            </trkpt>
            <trkpt lat="54.856300" lon="-8.305440">
                <time>2019-06-14T09:51:26Z</time>
            </trkpt>
            <trkpt lat="54.856300" lon="-8.305440">
                <time>2019-06-14T09:51:27Z</time>
            </trkpt>
            <trkpt lat="54.856300" lon="-8.305440">
                <time>2019-06-14T09:51:28Z</time>
            </trkpt>
            <trkpt lat="54.856300" lon="-8.305440">
                <time>2019-06-14T09:51:29Z</time>
            </trkpt>
            <trkpt lat="54.856300" lon="-8.305440">
                <time>2019-06-14T09:51:30Z</time>
            </trkpt>
            <trkpt lat="54.856300" lon="-8.305440">
                <time>2019-06-14T09:51:31Z</time>
            </trkpt>
            <trkpt lat="54.856300" lon="-8.305440">
                <time>2019-06-14T09:51:32Z</time>
            </trkpt>
            <trkpt lat="54.856300" lon="-8.305440">
                <time>2019-06-14T09:51:33Z</time>
            </trkpt>
            <trkpt lat="54.856300" lon="-8.305440">
                <time>2019-06-14T09:51:34Z</time>
            </trkpt>
            <trkpt lat="54.856300" lon="-8.305440">
                <time>2019-06-14T09:51:35Z</time>
            </trkpt>
            <trkpt lat="54.856300" lon="-8.305440">
                <time>2019-06-14T09:51:36Z</time>
            </trkpt>
            <trkpt lat="54.856300" lon="-8.305440">
                <time>2019-06-14T09:51:37Z</time>
            </trkpt>
            <trkpt lat="54.856300" lon="-8.305440">
                <time>2019-06-14T09:51:38Z</time>
            </trkpt>
            <trkpt lat="54.856300" lon="-8.305440">
                <time>2019-06-14T09:51:39Z</time>
            </trkpt>
            <trkpt lat="54.856300" lon="-8.305440">
                <time>2019-06-14T09:51:40Z</time>
            </trkpt>
            <trkpt lat="54.856300" lon="-8.305440">
                <time>2019-06-14T09:51:41Z</time>
            </trkpt>
            <trkpt lat="54.856300" lon="-8.305440">
                <time>2019-06-14T09:51:42Z</time>
            </trkpt>
            <trkpt lat="54.856300" lon="-8.305440">
                <time>2019-06-14T09:51:43Z</time>
            </trkpt>
            <trkpt lat="54.856300" lon="-8.305440">
                <time>2019-06-14T09:51:44Z</time>
            </trkpt>
            <trkpt lat="54.856300" lon="-8.305440">
                <time>2019-06-14T09:51:45Z</time>
            </trkpt>
            <trkpt lat="54.856300" lon="-8.305440">
                <time>2019-06-14T09:51:46Z</time>
            </trkpt>
            <trkpt lat="54.856300" lon="-8.305440">
                <time>2019-06-14T09:51:47Z</time>
            </trkpt>
            <trkpt lat="54.856300" lon="-8.305440">
                <time>2019-06-14T09:51:48Z</time>
            </trkpt>
            <trkpt lat="54.856300" lon="-8.305440">
                <time>2019-06-14T09:51:49Z</time>
            </trkpt>
            <trkpt lat="54.856300" lon="-8.305440">
                <time>2019-06-14T09:51:50Z</time>
            </trkpt>
            <trkpt lat="54.856300" lon="-8.305440">
                <time>2019-06-14T09:51:51Z</time>
            </trkpt>
            <trkpt lat="54.856300" lon="-8.305440">
                <time>2019-06-14T09:51:52Z</time>
            </trkpt>
            <trkpt lat="54.856300" lon="-8.305440">
                <time>2019-06-14T09:51:53Z</time>
            </trkpt>
            <trkpt lat="54.856300" lon="-8.305440">
                <time>2019-06-14T09:51:54Z</time>
            </trkpt>
            <trkpt lat="54.856300" lon="-8.305440">
                <time>2019-06-14T09:51:55Z</time>
            </trkpt>
            <trkpt lat="54.856300" lon="-8.305440">
                <time>2019-06-14T09:51:56Z</time>
            </trkpt>
            <trkpt lat="54.856300" lon="-8.305440">
                <time>2019-06-14T09:51:57Z</time>
            </trkpt>
            <trkpt lat="54.856300" lon="-8.305440">
                <time>2019-06-14T09:51:58Z</time>
            </trkpt>
            <trkpt lat="54.856300" lon="-8.305440">
                <time>2019-06-14T09:51:59Z</time>
            </trkpt>
            <trkpt lat="54.856300" lon="-8.305440">
                <time>2019-06-14T09:52:00Z</time>
            </trkpt>
            <trkpt lat="54.856300" lon="-8.305440">
                <time>2019-06-14T09:52:01Z</time>
            </trkpt>
            <trkpt lat="54.856300" lon="-8.305440">
                <time>2019-06-14T09:52:02Z</time>
            </trkpt>
            <trkpt lat="54.856300" lon="-8.305440">
                <time>2019-06-14T09:52:03Z</time>
            </trkpt>
            <trkpt lat="54.856300" lon="-8.305440">
                <time>2019-06-14T09:52:04Z</time>
            </trkpt>
            <trkpt lat="54.856300" lon="-8.305440">
                <time>2019-06-14T09:52:05Z</time>
            </trkpt>
            <trkpt lat="54.856300" lon="-8.305440">
                <time>2019-06-14T09:52:06Z</time>
            </trkpt>
            <trkpt lat="54.856300" lon="-8.305440">
                <time>2019-06-14T09:52:07Z</time>
            </trkpt>
            <trkpt lat="54.856300" lon="-8.305440">
                <time>2019-06-14T09:52:08Z</time>
            </trkpt>
            <trkpt lat="54.856300" lon="-8.305440">
                <time>2019-06-14T09:52:09Z</time>
            </trkpt>
            <trkpt lat="54.856300" lon="-8.305440">
                <time>2019-06-14T09:52:10Z</time>
            </trkpt>
            <trkpt lat="54.856300" lon="-8.305440">
                <time>2019-06-14T09:52:11Z</time>
            </trkpt>
            <trkpt lat="54.856300" lon="-8.305440">
                <time>2019-06-14T09:52:12Z</time>
            </trkpt>
            <trkpt lat="54.856300" lon="-8.305440">
                <time>2019-06-14T09:52:13Z</time>
            </trkpt>
            <trkpt lat="54.856300" lon="-8.305440">
                <time>2019-06-14T09:52:14Z</time>
            </trkpt>
            <trkpt lat="54.856300" lon="-8.305440">
                <time>2019-06-14T09:52:15Z</time>
            </trkpt>
            <trkpt lat="54.856300" lon="-8.305440">
                <time>2019-06-14T09:52:16Z</time>
            </trkpt>
            <trkpt lat="54.856300" lon="-8.305440">
                <time>2019-06-14T09:52:17Z</time>
            </trkpt>
            <trkpt lat="54.856300" lon="-8.305440">
                <time>2019-06-14T09:52:18Z</time>
            </trkpt>
            <trkpt lat="54.856300" lon="-8.305440">
                <time>2019-06-14T09:52:19Z</time>
            </trkpt>
            <trkpt lat="54.856300" lon="-8.305440">
                <time>2019-06-14T09:52:20Z</time>
            </trkpt>
            <trkpt lat="54.856300" lon="-8.305440">
                <time>2019-06-14T09:52:21Z</time>
            </trkpt>
            <trkpt lat="54.856300" lon="-8.305440">
                <time>2019-06-14T09:52:22Z</time>
            </trkpt>
            <trkpt lat="54.856300" lon="-8.305440">
                <time>2019-06-14T09:52:23Z</time>
            </trkpt>
            <trkpt lat="54.856300" lon="-8.305440">
                <time>2019-06-14T09:52:24Z</time>
            </trkpt>
            <trkpt lat="54.856300" lon="-8.305440">
                <time>2019-06-14T09:52:25Z</time>
            </trkpt>
            <trkpt lat="54.856300" lon="-8.305440">
                <time>2019-06-14T09:52:26Z</time>
            </trkpt>
            <trkpt lat="54.856300" lon="-8.305440">
                <time>2019-06-14T09:52:27Z</time>
            </trkpt>
            <trkpt lat="54.856300" lon="-8.305440">
                <time>2019-06-14T09:52:28Z</time>
            </trkpt>
            <trkpt lat="54.856300" lon="-8.305440">
                <time>2019-06-14T09:52:29Z</time>
            </trkpt>
            <trkpt lat="54.856300" lon="-8.305440">
                <time>2019-06-14T09:52:30Z</time>
            </trkpt>
            <trkpt lat="54.856300" lon="-8.305440">
                <time>2019-06-14T09:52:31Z</time>
            </trkpt>
            <trkpt lat="54.856300" lon="-8.305440">
                <time>2019-06-14T09:52:32Z</time>
            </trkpt>
            <trkpt lat="54.856300" lon="-8.305440">
                <time>2019-06-14T09:52:33Z</time>
            </trkpt>
            <trkpt lat="54.856300" lon="-8.305440">
                <time>2019-06-14T09:52:34Z</time>
            </trkpt>
            <trkpt lat="54.856300" lon="-8.305440">
                <time>2019-06-14T09:52:35Z</time>
            </trkpt>
            <trkpt lat="54.856300" lon="-8.305440">
                <time>2019-06-14T09:52:36Z</time>
            </trkpt>
            <trkpt lat="54.856300" lon="-8.305440">
                <time>2019-06-14T09:52:37Z</time>
            </trkpt>
            <trkpt lat="54.856320" lon="-8.305510">
                <time>2019-06-14T09:57:29Z</time>
            </trkpt>
            <trkpt lat="54.856320" lon="-8.305510">
                <time>2019-06-14T09:57:30Z</time>
            </trkpt>
            <trkpt lat="54.856320" lon="-8.305390">
                <time>2019-06-14T09:57:31Z</time>
            </trkpt>
            <trkpt lat="54.856260" lon="-8.305330">
                <time>2019-06-14T09:57:32Z</time>
            </trkpt>
            <trkpt lat="54.856290" lon="-8.305340">
                <time>2019-06-14T09:57:33Z</time>
            </trkpt>
            <trkpt lat="54.856310" lon="-8.305370">
                <time>2019-06-14T09:57:34Z</time>
            </trkpt>
            <trkpt lat="54.856300" lon="-8.305370">
                <time>2019-06-14T09:57:35Z</time>
            </trkpt>
            <trkpt lat="54.856300" lon="-8.305360">
                <time>2019-06-14T09:57:36Z</time>
            </trkpt>
            <trkpt lat="54.856300" lon="-8.305330">
                <time>2019-06-14T09:57:37Z</time>
            </trkpt>
            <trkpt lat="54.856290" lon="-8.305380">
                <time>2019-06-14T09:57:38Z</time>
            </trkpt>
            <trkpt lat="54.856300" lon="-8.305450">
                <time>2019-06-14T09:57:39Z</time>
            </trkpt>
            <trkpt lat="54.856300" lon="-8.305440">
                <time>2019-06-14T09:57:40Z</time>
            </trkpt>
            <trkpt lat="54.856300" lon="-8.305440">
                <time>2019-06-14T09:57:41Z</time>
            </trkpt>
            <trkpt lat="54.856300" lon="-8.305440">
                <time>2019-06-14T09:57:42Z</time>
            </trkpt>
            <trkpt lat="54.856300" lon="-8.305440">
                <time>2019-06-14T09:57:43Z</time>
            </trkpt>
            <trkpt lat="54.856290" lon="-8.305440">
                <time>2019-06-14T09:57:44Z</time>
            </trkpt>
            <trkpt lat="54.856290" lon="-8.305430">
                <time>2019-06-14T09:57:45Z</time>
            </trkpt>
            <trkpt lat="54.856290" lon="-8.305430">
                <time>2019-06-14T09:57:46Z</time>
            </trkpt>
            <trkpt lat="54.856290" lon="-8.305430">
                <time>2019-06-14T09:57:47Z</time>
            </trkpt>
            <trkpt lat="54.856290" lon="-8.305430">
                <time>2019-06-14T09:57:48Z</time>
            </trkpt>
            <trkpt lat="54.856290" lon="-8.305430">
                <time>2019-06-14T09:57:49Z</time>
            </trkpt>
            <trkpt lat="54.856290" lon="-8.305420">
                <time>2019-06-14T09:57:50Z</time>
            </trkpt>
            <trkpt lat="54.856290" lon="-8.305420">
                <time>2019-06-14T09:57:51Z</time>
            </trkpt>
            <trkpt lat="54.856290" lon="-8.305420">
                <time>2019-06-14T09:57:52Z</time>
            </trkpt>
            <trkpt lat="54.856290" lon="-8.305420">
                <time>2019-06-14T09:57:53Z</time>
            </trkpt>
            <trkpt lat="54.856290" lon="-8.305420">
                <time>2019-06-14T09:57:54Z</time>
            </trkpt>
            <trkpt lat="54.856290" lon="-8.305420">
                <time>2019-06-14T09:57:55Z</time>
            </trkpt>
            <trkpt lat="54.856290" lon="-8.305420">
                <time>2019-06-14T09:57:56Z</time>
            </trkpt>
            <trkpt lat="54.856290" lon="-8.305420">
                <time>2019-06-14T09:57:57Z</time>
            </trkpt>
            <trkpt lat="54.856290" lon="-8.305420">
                <time>2019-06-14T09:57:58Z</time>
            </trkpt>
            <trkpt lat="54.856290" lon="-8.305420">
                <time>2019-06-14T09:57:59Z</time>
            </trkpt>
            <trkpt lat="54.856290" lon="-8.305420">
                <time>2019-06-14T09:58:00Z</time>
            </trkpt>
            <trkpt lat="54.856290" lon="-8.305420">
                <time>2019-06-14T09:58:01Z</time>
            </trkpt>
            <trkpt lat="54.856290" lon="-8.305420">
                <time>2019-06-14T09:58:02Z</time>
            </trkpt>
            <trkpt lat="54.856290" lon="-8.305420">
                <time>2019-06-14T09:58:03Z</time>
            </trkpt>
            <trkpt lat="54.856290" lon="-8.305420">
                <time>2019-06-14T09:58:04Z</time>
            </trkpt>
            <trkpt lat="54.856290" lon="-8.305420">
                <time>2019-06-14T09:58:05Z</time>
            </trkpt>
            <trkpt lat="54.856290" lon="-8.305420">
                <time>2019-06-14T09:58:06Z</time>
            </trkpt>
            <trkpt lat="54.856290" lon="-8.305420">
                <time>2019-06-14T09:58:07Z</time>
            </trkpt>
            <trkpt lat="54.856290" lon="-8.305420">
                <time>2019-06-14T09:58:08Z</time>
            </trkpt>
            <trkpt lat="54.856290" lon="-8.305420">
                <time>2019-06-14T09:58:09Z</time>
            </trkpt>
            <trkpt lat="54.856290" lon="-8.305420">
                <time>2019-06-14T09:58:10Z</time>
            </trkpt>
            <trkpt lat="54.856290" lon="-8.305420">
                <time>2019-06-14T09:58:11Z</time>
            </trkpt>
            <trkpt lat="54.856290" lon="-8.305420">
                <time>2019-06-14T09:58:12Z</time>
            </trkpt>
            <trkpt lat="54.856290" lon="-8.305420">
                <time>2019-06-14T09:58:13Z</time>
            </trkpt>
            <trkpt lat="54.856290" lon="-8.305420">
                <time>2019-06-14T09:58:14Z</time>
            </trkpt>
            <trkpt lat="54.856290" lon="-8.305420">
                <time>2019-06-14T09:58:15Z</time>
            </trkpt>
            <trkpt lat="54.856290" lon="-8.305420">
                <time>2019-06-14T09:58:16Z</time>
            </trkpt>
            <trkpt lat="54.856290" lon="-8.305420">
                <time>2019-06-14T09:58:17Z</time>
            </trkpt>
            <trkpt lat="54.856290" lon="-8.305420">
                <time>2019-06-14T09:58:18Z</time>
            </trkpt>
            <trkpt lat="54.856290" lon="-8.305420">
                <time>2019-06-14T09:58:19Z</time>
            </trkpt>
            <trkpt lat="54.856290" lon="-8.305420">
                <time>2019-06-14T09:58:20Z</time>
            </trkpt>
            <trkpt lat="54.856290" lon="-8.305420">
                <time>2019-06-14T09:58:21Z</time>
            </trkpt>
            <trkpt lat="54.856290" lon="-8.305420">
                <time>2019-06-14T09:58:22Z</time>
            </trkpt>
            <trkpt lat="54.856290" lon="-8.305420">
                <time>2019-06-14T09:58:23Z</time>
            </trkpt>
            <trkpt lat="54.856290" lon="-8.305420">
                <time>2019-06-14T09:58:24Z</time>
            </trkpt>
            <trkpt lat="54.856290" lon="-8.305420">
                <time>2019-06-14T09:58:25Z</time>
            </trkpt>
            <trkpt lat="54.856290" lon="-8.305420">
                <time>2019-06-14T09:58:26Z</time>
            </trkpt>
            <trkpt lat="54.856290" lon="-8.305420">
                <time>2019-06-14T09:58:27Z</time>
            </trkpt>
            <trkpt lat="54.856290" lon="-8.305420">
                <time>2019-06-14T09:58:28Z</time>
            </trkpt>
            <trkpt lat="54.856290" lon="-8.305420">
                <time>2019-06-14T09:58:29Z</time>
            </trkpt>
            <trkpt lat="54.856290" lon="-8.305420">
                <time>2019-06-14T09:58:30Z</time>
            </trkpt>
            <trkpt lat="54.856290" lon="-8.305420">
                <time>2019-06-14T09:58:31Z</time>
            </trkpt>
            <trkpt lat="54.856290" lon="-8.305420">
                <time>2019-06-14T09:58:32Z</time>
            </trkpt>
            <trkpt lat="54.856290" lon="-8.305420">
                <time>2019-06-14T09:58:33Z</time>
            </trkpt>
            <trkpt lat="54.856290" lon="-8.305420">
                <time>2019-06-14T09:58:34Z</time>
            </trkpt>
            <trkpt lat="54.856290" lon="-8.305420">
                <time>2019-06-14T09:58:35Z</time>
            </trkpt>
            <trkpt lat="54.856290" lon="-8.305420">
                <time>2019-06-14T09:58:36Z</time>
            </trkpt>
            <trkpt lat="54.856290" lon="-8.305420">
                <time>2019-06-14T09:58:37Z</time>
            </trkpt>
            <trkpt lat="54.856290" lon="-8.305420">
                <time>2019-06-14T09:58:38Z</time>
            </trkpt>
            <trkpt lat="54.856290" lon="-8.305420">
                <time>2019-06-14T09:58:39Z</time>
            </trkpt>
            <trkpt lat="54.856290" lon="-8.305420">
                <time>2019-06-14T09:58:40Z</time>
            </trkpt>
            <trkpt lat="54.856290" lon="-8.305420">
                <time>2019-06-14T09:58:41Z</time>
            </trkpt>
            <trkpt lat="54.856300" lon="-8.305420">
                <time>2019-06-14T09:58:42Z</time>
            </trkpt>
            <trkpt lat="54.856310" lon="-8.305410">
                <time>2019-06-14T09:58:43Z</time>
            </trkpt>
            <trkpt lat="54.856340" lon="-8.305420">
                <time>2019-06-14T09:58:44Z</time>
            </trkpt>
            <trkpt lat="54.856380" lon="-8.305430">
                <time>2019-06-14T09:58:45Z</time>
            </trkpt>
            <trkpt lat="54.856420" lon="-8.305430">
                <time>2019-06-14T09:58:46Z</time>
            </trkpt>
            <trkpt lat="54.856470" lon="-8.305370">
                <time>2019-06-14T09:58:47Z</time>
            </trkpt>
            <trkpt lat="54.856520" lon="-8.305240">
                <time>2019-06-14T09:58:48Z</time>
            </trkpt>
            <trkpt lat="54.856570" lon="-8.305070">
                <time>2019-06-14T09:58:49Z</time>
            </trkpt>
            <trkpt lat="54.856620" lon="-8.304870">
                <time>2019-06-14T09:58:50Z</time>
            </trkpt>
            <trkpt lat="54.856690" lon="-8.304650">
                <time>2019-06-14T09:58:51Z</time>
            </trkpt>
            <trkpt lat="54.856760" lon="-8.304420">
                <time>2019-06-14T09:58:52Z</time>
            </trkpt>
            <trkpt lat="54.856830" lon="-8.304190">
                <time>2019-06-14T09:58:53Z</time>
            </trkpt>
            <trkpt lat="54.856900" lon="-8.303950">
                <time>2019-06-14T09:58:54Z</time>
            </trkpt>
            <trkpt lat="54.856960" lon="-8.303740">
                <time>2019-06-14T09:58:55Z</time>
            </trkpt>
            <trkpt lat="54.857020" lon="-8.303550">
                <time>2019-06-14T09:58:56Z</time>
            </trkpt>
            <trkpt lat="54.857080" lon="-8.303380">
                <time>2019-06-14T09:58:57Z</time>
            </trkpt>
            <trkpt lat="54.857140" lon="-8.303190">
                <time>2019-06-14T09:58:58Z</time>
            </trkpt>
            <trkpt lat="54.857200" lon="-8.303000">
                <time>2019-06-14T09:58:59Z</time>
            </trkpt>
            <trkpt lat="54.857260" lon="-8.302800">
                <time>2019-06-14T09:59:00Z</time>
            </trkpt>
            <trkpt lat="54.857320" lon="-8.302590">
                <time>2019-06-14T09:59:01Z</time>
            </trkpt>
            <trkpt lat="54.857390" lon="-8.302370">
                <time>2019-06-14T09:59:02Z</time>
            </trkpt>
            <trkpt lat="54.857450" lon="-8.302150">
                <time>2019-06-14T09:59:03Z</time>
            </trkpt>
            <trkpt lat="54.857530" lon="-8.301940">
                <time>2019-06-14T09:59:04Z</time>
            </trkpt>
            <trkpt lat="54.857600" lon="-8.301740">
                <time>2019-06-14T09:59:05Z</time>
            </trkpt>
            <trkpt lat="54.857710" lon="-8.301550">
                <time>2019-06-14T09:59:06Z</time>
            </trkpt>
            <trkpt lat="54.857850" lon="-8.301400">
                <time>2019-06-14T09:59:07Z</time>
            </trkpt>
            <trkpt lat="54.858010" lon="-8.301290">
                <time>2019-06-14T09:59:08Z</time>
            </trkpt>
            <trkpt lat="54.858190" lon="-8.301190">
                <time>2019-06-14T09:59:09Z</time>
            </trkpt>
            <trkpt lat="54.858370" lon="-8.301080">
                <time>2019-06-14T09:59:10Z</time>
            </trkpt>
            <trkpt lat="54.858570" lon="-8.300960">
                <time>2019-06-14T09:59:11Z</time>
            </trkpt>
            <trkpt lat="54.858750" lon="-8.300850">
                <time>2019-06-14T09:59:12Z</time>
            </trkpt>
            <trkpt lat="54.858900" lon="-8.300770">
                <time>2019-06-14T09:59:13Z</time>
            </trkpt>
            <trkpt lat="54.859020" lon="-8.300700">
                <time>2019-06-14T09:59:14Z</time>
            </trkpt>
            <trkpt lat="54.859150" lon="-8.300650">
                <time>2019-06-14T09:59:15Z</time>
            </trkpt>
            <trkpt lat="54.859270" lon="-8.300610">
                <time>2019-06-14T09:59:16Z</time>
            </trkpt>
            <trkpt lat="54.859390" lon="-8.300580">
                <time>2019-06-14T09:59:17Z</time>
            </trkpt>
            <trkpt lat="54.859510" lon="-8.300540">
                <time>2019-06-14T09:59:18Z</time>
            </trkpt>
            <trkpt lat="54.859630" lon="-8.300520">
                <time>2019-06-14T09:59:19Z</time>
            </trkpt>
            <trkpt lat="54.859760" lon="-8.300530">
                <time>2019-06-14T09:59:20Z</time>
            </trkpt>
            <trkpt lat="54.859900" lon="-8.300560">
                <time>2019-06-14T09:59:21Z</time>
            </trkpt>
            <trkpt lat="54.860050" lon="-8.300630">
                <time>2019-06-14T09:59:22Z</time>
            </trkpt>
            <trkpt lat="54.860210" lon="-8.300750">
                <time>2019-06-14T09:59:23Z</time>
            </trkpt>
            <trkpt lat="54.860360" lon="-8.300910">
                <time>2019-06-14T09:59:24Z</time>
            </trkpt>
            <trkpt lat="54.860500" lon="-8.301130">
                <time>2019-06-14T09:59:25Z</time>
            </trkpt>
            <trkpt lat="54.860620" lon="-8.301380">
                <time>2019-06-14T09:59:26Z</time>
            </trkpt>
            <trkpt lat="54.860730" lon="-8.301610">
                <time>2019-06-14T09:59:27Z</time>
            </trkpt>
            <trkpt lat="54.860840" lon="-8.301820">
                <time>2019-06-14T09:59:28Z</time>
            </trkpt>
            <trkpt lat="54.860930" lon="-8.302010">
                <time>2019-06-14T09:59:29Z</time>
            </trkpt>
            <trkpt lat="54.861030" lon="-8.302210">
                <time>2019-06-14T09:59:30Z</time>
            </trkpt>
            <trkpt lat="54.861140" lon="-8.302400">
                <time>2019-06-14T09:59:31Z</time>
            </trkpt>
            <trkpt lat="54.861260" lon="-8.302570">
                <time>2019-06-14T09:59:32Z</time>
            </trkpt>
            <trkpt lat="54.861390" lon="-8.302720">
                <time>2019-06-14T09:59:33Z</time>
            </trkpt>
            <trkpt lat="54.861510" lon="-8.302850">
                <time>2019-06-14T09:59:34Z</time>
            </trkpt>
            <trkpt lat="54.861630" lon="-8.302970">
                <time>2019-06-14T09:59:35Z</time>
            </trkpt>
            <trkpt lat="54.861760" lon="-8.303080">
                <time>2019-06-14T09:59:36Z</time>
            </trkpt>
            <trkpt lat="54.861910" lon="-8.303190">
                <time>2019-06-14T09:59:37Z</time>
            </trkpt>
            <trkpt lat="54.862060" lon="-8.303280">
                <time>2019-06-14T09:59:38Z</time>
            </trkpt>
            <trkpt lat="54.862210" lon="-8.303380">
                <time>2019-06-14T09:59:39Z</time>
            </trkpt>
            <trkpt lat="54.862370" lon="-8.303470">
                <time>2019-06-14T09:59:40Z</time>
            </trkpt>
            <trkpt lat="54.862520" lon="-8.303570">
                <time>2019-06-14T09:59:41Z</time>
            </trkpt>
            <trkpt lat="54.862680" lon="-8.303660">
                <time>2019-06-14T09:59:42Z</time>
            </trkpt>
            <trkpt lat="54.862840" lon="-8.303750">
                <time>2019-06-14T09:59:43Z</time>
            </trkpt>
            <trkpt lat="54.863000" lon="-8.303840">
                <time>2019-06-14T09:59:44Z</time>
            </trkpt>
            <trkpt lat="54.863170" lon="-8.303940">
                <time>2019-06-14T09:59:45Z</time>
            </trkpt>
            <trkpt lat="54.863340" lon="-8.304040">
                <time>2019-06-14T09:59:46Z</time>
            </trkpt>
            <trkpt lat="54.863520" lon="-8.304150">
                <time>2019-06-14T09:59:47Z</time>
            </trkpt>
            <trkpt lat="54.863700" lon="-8.304250">
                <time>2019-06-14T09:59:48Z</time>
            </trkpt>
            <trkpt lat="54.863880" lon="-8.304360">
                <time>2019-06-14T09:59:49Z</time>
            </trkpt>
            <trkpt lat="54.864070" lon="-8.304470">
                <time>2019-06-14T09:59:50Z</time>
            </trkpt>
            <trkpt lat="54.864260" lon="-8.304580">
                <time>2019-06-14T09:59:51Z</time>
            </trkpt>
            <trkpt lat="54.864440" lon="-8.304690">
                <time>2019-06-14T09:59:52Z</time>
            </trkpt>
            <trkpt lat="54.864640" lon="-8.304790">
                <time>2019-06-14T09:59:53Z</time>
            </trkpt>
            <trkpt lat="54.864840" lon="-8.304900">
                <time>2019-06-14T09:59:54Z</time>
            </trkpt>
            <trkpt lat="54.865060" lon="-8.305020">
                <time>2019-06-14T09:59:55Z</time>
            </trkpt>
            <trkpt lat="54.865270" lon="-8.305130">
                <time>2019-06-14T09:59:56Z</time>
            </trkpt>
            <trkpt lat="54.865470" lon="-8.305250">
                <time>2019-06-14T09:59:57Z</time>
            </trkpt>
            <trkpt lat="54.865670" lon="-8.305360">
                <time>2019-06-14T09:59:58Z</time>
            </trkpt>
            <trkpt lat="54.865860" lon="-8.305470">
                <time>2019-06-14T09:59:59Z</time>
            </trkpt>
            <trkpt lat="54.866060" lon="-8.305590">
                <time>2019-06-14T10:00:00Z</time>
            </trkpt>
            <trkpt lat="54.866250" lon="-8.305710">
                <time>2019-06-14T10:00:01Z</time>
            </trkpt>
            <trkpt lat="54.866450" lon="-8.305820">
                <time>2019-06-14T10:00:02Z</time>
            </trkpt>
            <trkpt lat="54.866650" lon="-8.305940">
                <time>2019-06-14T10:00:03Z</time>
            </trkpt>
            <trkpt lat="54.866850" lon="-8.306060">
                <time>2019-06-14T10:00:04Z</time>
            </trkpt>
            <trkpt lat="54.867040" lon="-8.306170">
                <time>2019-06-14T10:00:05Z</time>
            </trkpt>
            <trkpt lat="54.867240" lon="-8.306290">
                <time>2019-06-14T10:00:06Z</time>
            </trkpt>
            <trkpt lat="54.867430" lon="-8.306400">
                <time>2019-06-14T10:00:07Z</time>
            </trkpt>
            <trkpt lat="54.867630" lon="-8.306520">
                <time>2019-06-14T10:00:08Z</time>
            </trkpt>
            <trkpt lat="54.867830" lon="-8.306630">
                <time>2019-06-14T10:00:09Z</time>
            </trkpt>
            <trkpt lat="54.868030" lon="-8.306730">
                <time>2019-06-14T10:00:10Z</time>
            </trkpt>
            <trkpt lat="54.868230" lon="-8.306820">
                <time>2019-06-14T10:00:11Z</time>
            </trkpt>
            <trkpt lat="54.868430" lon="-8.306910">
                <time>2019-06-14T10:00:12Z</time>
            </trkpt>
            <trkpt lat="54.868630" lon="-8.307000">
                <time>2019-06-14T10:00:13Z</time>
            </trkpt>
            <trkpt lat="54.868820" lon="-8.307070">
                <time>2019-06-14T10:00:14Z</time>
            </trkpt>
            <trkpt lat="54.868990" lon="-8.307130">
                <time>2019-06-14T10:00:15Z</time>
            </trkpt>
            <trkpt lat="54.869160" lon="-8.307180">
                <time>2019-06-14T10:00:16Z</time>
            </trkpt>
            <trkpt lat="54.869320" lon="-8.307230">
                <time>2019-06-14T10:00:17Z</time>
            </trkpt>
            <trkpt lat="54.869490" lon="-8.307290">
                <time>2019-06-14T10:00:18Z</time>
            </trkpt>
            <trkpt lat="54.869660" lon="-8.307350">
                <time>2019-06-14T10:00:19Z</time>
            </trkpt>
            <trkpt lat="54.869840" lon="-8.307400">
                <time>2019-06-14T10:00:20Z</time>
            </trkpt>
            <trkpt lat="54.870020" lon="-8.307460">
                <time>2019-06-14T10:00:21Z</time>
            </trkpt>
            <trkpt lat="54.870210" lon="-8.307510">
                <time>2019-06-14T10:00:22Z</time>
            </trkpt>
            <trkpt lat="54.870410" lon="-8.307570">
                <time>2019-06-14T10:00:23Z</time>
            </trkpt>
            <trkpt lat="54.870620" lon="-8.307630">
                <time>2019-06-14T10:00:24Z</time>
            </trkpt>
            <trkpt lat="54.870820" lon="-8.307690">
                <time>2019-06-14T10:00:25Z</time>
            </trkpt>
            <trkpt lat="54.871010" lon="-8.307750">
                <time>2019-06-14T10:00:26Z</time>
            </trkpt>
            <trkpt lat="54.871200" lon="-8.307810">
                <time>2019-06-14T10:00:27Z</time>
            </trkpt>
            <trkpt lat="54.871380" lon="-8.307860">
                <time>2019-06-14T10:00:28Z</time>
            </trkpt>
            <trkpt lat="54.871560" lon="-8.307920">
                <time>2019-06-14T10:00:29Z</time>
            </trkpt>
            <trkpt lat="54.871730" lon="-8.307970">
                <time>2019-06-14T10:00:30Z</time>
            </trkpt>
            <trkpt lat="54.871890" lon="-8.308020">
                <time>2019-06-14T10:00:31Z</time>
            </trkpt>
            <trkpt lat="54.872060" lon="-8.308070">
                <time>2019-06-14T10:00:32Z</time>
            </trkpt>
            <trkpt lat="54.872220" lon="-8.308120">
                <time>2019-06-14T10:00:33Z</time>
            </trkpt>
            <trkpt lat="54.872390" lon="-8.308160">
                <time>2019-06-14T10:00:34Z</time>
            </trkpt>
            <trkpt lat="54.872560" lon="-8.308210">
                <time>2019-06-14T10:00:35Z</time>
            </trkpt>
            <trkpt lat="54.872730" lon="-8.308270">
                <time>2019-06-14T10:00:36Z</time>
            </trkpt>
            <trkpt lat="54.872910" lon="-8.308320">
                <time>2019-06-14T10:00:37Z</time>
            </trkpt>
            <trkpt lat="54.873100" lon="-8.308380">
                <time>2019-06-14T10:00:38Z</time>
            </trkpt>
            <trkpt lat="54.873290" lon="-8.308440">
                <time>2019-06-14T10:00:39Z</time>
            </trkpt>
            <trkpt lat="54.873470" lon="-8.308500">
                <time>2019-06-14T10:00:40Z</time>
            </trkpt>
            <trkpt lat="54.873660" lon="-8.308560">
                <time>2019-06-14T10:00:41Z</time>
            </trkpt>
            <trkpt lat="54.873840" lon="-8.308620">
                <time>2019-06-14T10:00:42Z</time>
            </trkpt>
            <trkpt lat="54.874020" lon="-8.308680">
                <time>2019-06-14T10:00:43Z</time>
            </trkpt>
            <trkpt lat="54.874210" lon="-8.308740">
                <time>2019-06-14T10:00:44Z</time>
            </trkpt>
            <trkpt lat="54.874390" lon="-8.308800">
                <time>2019-06-14T10:00:45Z</time>
            </trkpt>
            <trkpt lat="54.874570" lon="-8.308870">
                <time>2019-06-14T10:00:46Z</time>
            </trkpt>
            <trkpt lat="54.874760" lon="-8.308930">
                <time>2019-06-14T10:00:47Z</time>
            </trkpt>
            <trkpt lat="54.874960" lon="-8.308990">
                <time>2019-06-14T10:00:48Z</time>
            </trkpt>
            <trkpt lat="54.875160" lon="-8.309060">
                <time>2019-06-14T10:00:49Z</time>
            </trkpt>
            <trkpt lat="54.875360" lon="-8.309120">
                <time>2019-06-14T10:00:50Z</time>
            </trkpt>
            <trkpt lat="54.875550" lon="-8.309180">
                <time>2019-06-14T10:00:51Z</time>
            </trkpt>
            <trkpt lat="54.875730" lon="-8.309230">
                <time>2019-06-14T10:00:52Z</time>
            </trkpt>
            <trkpt lat="54.875910" lon="-8.309270">
                <time>2019-06-14T10:00:53Z</time>
            </trkpt>
            <trkpt lat="54.876090" lon="-8.309300">
                <time>2019-06-14T10:00:54Z</time>
            </trkpt>
            <trkpt lat="54.876270" lon="-8.309300">
                <time>2019-06-14T10:00:55Z</time>
            </trkpt>
            <trkpt lat="54.876470" lon="-8.309280">
                <time>2019-06-14T10:00:56Z</time>
            </trkpt>
            <trkpt lat="54.876670" lon="-8.309250">
                <time>2019-06-14T10:00:57Z</time>
            </trkpt>
            <trkpt lat="54.876870" lon="-8.309200">
                <time>2019-06-14T10:00:58Z</time>
            </trkpt>
            <trkpt lat="54.877080" lon="-8.309110">
                <time>2019-06-14T10:00:59Z</time>
            </trkpt>
            <trkpt lat="54.877290" lon="-8.309010">
                <time>2019-06-14T10:01:00Z</time>
            </trkpt>
            <trkpt lat="54.877500" lon="-8.308880">
                <time>2019-06-14T10:01:01Z</time>
            </trkpt>
            <trkpt lat="54.877710" lon="-8.308720">
                <time>2019-06-14T10:01:02Z</time>
            </trkpt>
            <trkpt lat="54.877910" lon="-8.308540">
                <time>2019-06-14T10:01:03Z</time>
            </trkpt>
            <trkpt lat="54.878120" lon="-8.308330">
                <time>2019-06-14T10:01:04Z</time>
            </trkpt>
            <trkpt lat="54.878320" lon="-8.308130">
                <time>2019-06-14T10:01:05Z</time>
            </trkpt>
            <trkpt lat="54.878510" lon="-8.307940">
                <time>2019-06-14T10:01:06Z</time>
            </trkpt>
            <trkpt lat="54.878700" lon="-8.307760">
                <time>2019-06-14T10:01:07Z</time>
            </trkpt>
            <trkpt lat="54.878900" lon="-8.307590">
                <time>2019-06-14T10:01:08Z</time>
            </trkpt>
            <trkpt lat="54.879100" lon="-8.307440">
                <time>2019-06-14T10:01:09Z</time>
            </trkpt>
            <trkpt lat="54.879300" lon="-8.307310">
                <time>2019-06-14T10:01:10Z</time>
            </trkpt>
            <trkpt lat="54.879500" lon="-8.307220">
                <time>2019-06-14T10:01:11Z</time>
            </trkpt>
            <trkpt lat="54.879700" lon="-8.307160">
                <time>2019-06-14T10:01:12Z</time>
            </trkpt>
            <trkpt lat="54.879900" lon="-8.307110">
                <time>2019-06-14T10:01:13Z</time>
            </trkpt>
            <trkpt lat="54.880100" lon="-8.307090">
                <time>2019-06-14T10:01:14Z</time>
            </trkpt>
            <trkpt lat="54.880310" lon="-8.307070">
                <time>2019-06-14T10:01:15Z</time>
            </trkpt>
            <trkpt lat="54.880520" lon="-8.307070">
                <time>2019-06-14T10:01:16Z</time>
            </trkpt>
            <trkpt lat="54.880750" lon="-8.307070">
                <time>2019-06-14T10:01:17Z</time>
            </trkpt>
            <trkpt lat="54.880970" lon="-8.307080">
                <time>2019-06-14T10:01:18Z</time>
            </trkpt>
            <trkpt lat="54.881200" lon="-8.307080">
                <time>2019-06-14T10:01:19Z</time>
            </trkpt>
            <trkpt lat="54.881420" lon="-8.307080">
                <time>2019-06-14T10:01:20Z</time>
            </trkpt>
            <trkpt lat="54.881640" lon="-8.307090">
                <time>2019-06-14T10:01:21Z</time>
            </trkpt>
            <trkpt lat="54.881860" lon="-8.307100">
                <time>2019-06-14T10:01:22Z</time>
            </trkpt>
            <trkpt lat="54.882080" lon="-8.307100">
                <time>2019-06-14T10:01:23Z</time>
            </trkpt>
            <trkpt lat="54.882300" lon="-8.307110">
                <time>2019-06-14T10:01:24Z</time>
            </trkpt>
            <trkpt lat="54.882520" lon="-8.307110">
                <time>2019-06-14T10:01:25Z</time>
            </trkpt>
            <trkpt lat="54.882740" lon="-8.307120">
                <time>2019-06-14T10:01:26Z</time>
            </trkpt>
            <trkpt lat="54.882960" lon="-8.307120">
                <time>2019-06-14T10:01:27Z</time>
            </trkpt>
            <trkpt lat="54.883170" lon="-8.307130">
                <time>2019-06-14T10:01:28Z</time>
            </trkpt>
            <trkpt lat="54.883380" lon="-8.307120">
                <time>2019-06-14T10:01:29Z</time>
            </trkpt>
            <trkpt lat="54.883590" lon="-8.307130">
                <time>2019-06-14T10:01:30Z</time>
            </trkpt>
            <trkpt lat="54.883800" lon="-8.307130">
                <time>2019-06-14T10:01:31Z</time>
            </trkpt>
            <trkpt lat="54.884020" lon="-8.307140">
                <time>2019-06-14T10:01:32Z</time>
            </trkpt>
            <trkpt lat="54.884230" lon="-8.307140">
                <time>2019-06-14T10:01:33Z</time>
            </trkpt>
            <trkpt lat="54.884430" lon="-8.307140">
                <time>2019-06-14T10:01:34Z</time>
            </trkpt>
            <trkpt lat="54.884630" lon="-8.307150">
                <time>2019-06-14T10:01:35Z</time>
            </trkpt>
            <trkpt lat="54.884820" lon="-8.307150">
                <time>2019-06-14T10:01:36Z</time>
            </trkpt>
            <trkpt lat="54.885020" lon="-8.307150">
                <time>2019-06-14T10:01:37Z</time>
            </trkpt>
            <trkpt lat="54.885220" lon="-8.307140">
                <time>2019-06-14T10:01:38Z</time>
            </trkpt>
            <trkpt lat="54.885410" lon="-8.307110">
                <time>2019-06-14T10:01:39Z</time>
            </trkpt>
            <trkpt lat="54.885590" lon="-8.307060">
                <time>2019-06-14T10:01:40Z</time>
            </trkpt>
            <trkpt lat="54.885770" lon="-8.306990">
                <time>2019-06-14T10:01:41Z</time>
            </trkpt>
            <trkpt lat="54.885950" lon="-8.306910">
                <time>2019-06-14T10:01:42Z</time>
            </trkpt>
            <trkpt lat="54.886120" lon="-8.306810">
                <time>2019-06-14T10:01:43Z</time>
            </trkpt>
            <trkpt lat="54.886290" lon="-8.306700">
                <time>2019-06-14T10:01:44Z</time>
            </trkpt>
            <trkpt lat="54.886470" lon="-8.306570">
                <time>2019-06-14T10:01:45Z</time>
            </trkpt>
            <trkpt lat="54.886640" lon="-8.306410">
                <time>2019-06-14T10:01:46Z</time>
            </trkpt>
            <trkpt lat="54.886810" lon="-8.306220">
                <time>2019-06-14T10:01:47Z</time>
            </trkpt>
            <trkpt lat="54.886980" lon="-8.306020">
                <time>2019-06-14T10:01:48Z</time>
            </trkpt>
            <trkpt lat="54.887140" lon="-8.305790">
                <time>2019-06-14T10:01:49Z</time>
            </trkpt>
            <trkpt lat="54.887300" lon="-8.305550">
                <time>2019-06-14T10:01:50Z</time>
            </trkpt>
            <trkpt lat="54.887450" lon="-8.305280">
                <time>2019-06-14T10:01:51Z</time>
            </trkpt>
            <trkpt lat="54.887600" lon="-8.304990">
                <time>2019-06-14T10:01:52Z</time>
            </trkpt>
            <trkpt lat="54.887730" lon="-8.304710">
                <time>2019-06-14T10:01:53Z</time>
            </trkpt>
            <trkpt lat="54.887870" lon="-8.304440">
                <time>2019-06-14T10:01:54Z</time>
            </trkpt>
            <trkpt lat="54.888010" lon="-8.304190">
                <time>2019-06-14T10:01:55Z</time>
            </trkpt>
            <trkpt lat="54.888150" lon="-8.303950">
                <time>2019-06-14T10:01:56Z</time>
            </trkpt>
            <trkpt lat="54.888330" lon="-8.303750">
                <time>2019-06-14T10:01:57Z</time>
            </trkpt>
            <trkpt lat="54.888510" lon="-8.303610">
                <time>2019-06-14T10:01:58Z</time>
            </trkpt>
            <trkpt lat="54.888690" lon="-8.303530">
                <time>2019-06-14T10:01:59Z</time>
            </trkpt>
            <trkpt lat="54.888860" lon="-8.303510">
                <time>2019-06-14T10:02:00Z</time>
            </trkpt>
            <trkpt lat="54.889030" lon="-8.303550">
                <time>2019-06-14T10:02:01Z</time>
            </trkpt>
            <trkpt lat="54.889190" lon="-8.303620">
                <time>2019-06-14T10:02:02Z</time>
            </trkpt>
            <trkpt lat="54.889350" lon="-8.303730">
                <time>2019-06-14T10:02:03Z</time>
            </trkpt>
            <trkpt lat="54.889500" lon="-8.303880">
                <time>2019-06-14T10:02:04Z</time>
            </trkpt>
            <trkpt lat="54.889620" lon="-8.304050">
                <time>2019-06-14T10:02:05Z</time>
            </trkpt>
            <trkpt lat="54.889730" lon="-8.304250">
                <time>2019-06-14T10:02:06Z</time>
            </trkpt>
            <trkpt lat="54.889840" lon="-8.304460">
                <time>2019-06-14T10:02:07Z</time>
            </trkpt>
            <trkpt lat="54.889940" lon="-8.304680">
                <time>2019-06-14T10:02:08Z</time>
            </trkpt>
            <trkpt lat="54.890030" lon="-8.304910">
                <time>2019-06-14T10:02:09Z</time>
            </trkpt>
            <trkpt lat="54.890140" lon="-8.305140">
                <time>2019-06-14T10:02:10Z</time>
            </trkpt>
            <trkpt lat="54.890250" lon="-8.305350">
                <time>2019-06-14T10:02:11Z</time>
            </trkpt>
            <trkpt lat="54.890350" lon="-8.305550">
                <time>2019-06-14T10:02:12Z</time>
            </trkpt>
            <trkpt lat="54.890460" lon="-8.305730">
                <time>2019-06-14T10:02:13Z</time>
            </trkpt>
            <trkpt lat="54.890560" lon="-8.305890">
                <time>2019-06-14T10:02:14Z</time>
            </trkpt>
            <trkpt lat="54.890670" lon="-8.306030">
                <time>2019-06-14T10:02:15Z</time>
            </trkpt>
            <trkpt lat="54.890770" lon="-8.306160">
                <time>2019-06-14T10:02:16Z</time>
            </trkpt>
            <trkpt lat="54.890870" lon="-8.306280">
                <time>2019-06-14T10:02:17Z</time>
            </trkpt>
            <trkpt lat="54.890950" lon="-8.306380">
                <time>2019-06-14T10:02:18Z</time>
            </trkpt>
            <trkpt lat="54.891030" lon="-8.306460">
                <time>2019-06-14T10:02:19Z</time>
            </trkpt>
            <trkpt lat="54.891110" lon="-8.306550">
                <time>2019-06-14T10:02:20Z</time>
            </trkpt>
            <trkpt lat="54.891210" lon="-8.306640">
                <time>2019-06-14T10:02:21Z</time>
            </trkpt>
            <trkpt lat="54.891310" lon="-8.306740">
                <time>2019-06-14T10:02:22Z</time>
            </trkpt>
            <trkpt lat="54.891420" lon="-8.306840">
                <time>2019-06-14T10:02:23Z</time>
            </trkpt>
            <trkpt lat="54.891530" lon="-8.306940">
                <time>2019-06-14T10:02:24Z</time>
            </trkpt>
            <trkpt lat="54.891630" lon="-8.307040">
                <time>2019-06-14T10:02:25Z</time>
            </trkpt>
            <trkpt lat="54.891730" lon="-8.307140">
                <time>2019-06-14T10:02:26Z</time>
            </trkpt>
            <trkpt lat="54.891830" lon="-8.307230">
                <time>2019-06-14T10:02:27Z</time>
            </trkpt>
            <trkpt lat="54.891930" lon="-8.307320">
                <time>2019-06-14T10:02:28Z</time>
            </trkpt>
            <trkpt lat="54.892040" lon="-8.307430">
                <time>2019-06-14T10:02:29Z</time>
            </trkpt>
            <trkpt lat="54.892140" lon="-8.307540">
                <time>2019-06-14T10:02:30Z</time>
            </trkpt>
            <trkpt lat="54.892260" lon="-8.307670">
                <time>2019-06-14T10:02:31Z</time>
            </trkpt>
            <trkpt lat="54.892390" lon="-8.307790">
                <time>2019-06-14T10:02:32Z</time>
            </trkpt>
            <trkpt lat="54.892520" lon="-8.307920">
                <time>2019-06-14T10:02:33Z</time>
            </trkpt>
            <trkpt lat="54.892650" lon="-8.308020">
                <time>2019-06-14T10:02:34Z</time>
            </trkpt>
            <trkpt lat="54.892790" lon="-8.308110">
                <time>2019-06-14T10:02:35Z</time>
            </trkpt>
            <trkpt lat="54.892940" lon="-8.308190">
                <time>2019-06-14T10:02:36Z</time>
            </trkpt>
            <trkpt lat="54.893090" lon="-8.308270">
                <time>2019-06-14T10:02:37Z</time>
            </trkpt>
            <trkpt lat="54.893250" lon="-8.308350">
                <time>2019-06-14T10:02:38Z</time>
            </trkpt>
            <trkpt lat="54.893400" lon="-8.308410">
                <time>2019-06-14T10:02:39Z</time>
            </trkpt>
            <trkpt lat="54.893560" lon="-8.308460">
                <time>2019-06-14T10:02:40Z</time>
            </trkpt>
            <trkpt lat="54.893710" lon="-8.308530">
                <time>2019-06-14T10:02:41Z</time>
            </trkpt>
            <trkpt lat="54.893870" lon="-8.308590">
                <time>2019-06-14T10:02:42Z</time>
            </trkpt>
            <trkpt lat="54.894020" lon="-8.308650">
                <time>2019-06-14T10:02:43Z</time>
            </trkpt>
            <trkpt lat="54.894180" lon="-8.308700">
                <time>2019-06-14T10:02:44Z</time>
            </trkpt>
            <trkpt lat="54.894330" lon="-8.308760">
                <time>2019-06-14T10:02:45Z</time>
            </trkpt>
            <trkpt lat="54.894490" lon="-8.308810">
                <time>2019-06-14T10:02:46Z</time>
            </trkpt>
            <trkpt lat="54.894650" lon="-8.308850">
                <time>2019-06-14T10:02:47Z</time>
            </trkpt>
            <trkpt lat="54.894830" lon="-8.308880">
                <time>2019-06-14T10:02:48Z</time>
            </trkpt>
            <trkpt lat="54.895000" lon="-8.308910">
                <time>2019-06-14T10:02:49Z</time>
            </trkpt>
            <trkpt lat="54.895180" lon="-8.308940">
                <time>2019-06-14T10:02:50Z</time>
            </trkpt>
            <trkpt lat="54.895360" lon="-8.308970">
                <time>2019-06-14T10:02:51Z</time>
            </trkpt>
            <trkpt lat="54.895540" lon="-8.308990">
                <time>2019-06-14T10:02:52Z</time>
            </trkpt>
            <trkpt lat="54.895720" lon="-8.309010">
                <time>2019-06-14T10:02:53Z</time>
            </trkpt>
            <trkpt lat="54.895910" lon="-8.309040">
                <time>2019-06-14T10:02:54Z</time>
            </trkpt>
            <trkpt lat="54.896090" lon="-8.309060">
                <time>2019-06-14T10:02:55Z</time>
            </trkpt>
            <trkpt lat="54.896290" lon="-8.309080">
                <time>2019-06-14T10:02:56Z</time>
            </trkpt>
            <trkpt lat="54.896490" lon="-8.309080">
                <time>2019-06-14T10:02:57Z</time>
            </trkpt>
            <trkpt lat="54.896690" lon="-8.309080">
                <time>2019-06-14T10:02:58Z</time>
            </trkpt>
            <trkpt lat="54.896900" lon="-8.309070">
                <time>2019-06-14T10:02:59Z</time>
            </trkpt>
            <trkpt lat="54.897110" lon="-8.309050">
                <time>2019-06-14T10:03:00Z</time>
            </trkpt>
            <trkpt lat="54.897310" lon="-8.309030">
                <time>2019-06-14T10:03:01Z</time>
            </trkpt>
            <trkpt lat="54.897510" lon="-8.309010">
                <time>2019-06-14T10:03:02Z</time>
            </trkpt>
            <trkpt lat="54.897710" lon="-8.308990">
                <time>2019-06-14T10:03:03Z</time>
            </trkpt>
            <trkpt lat="54.897910" lon="-8.308980">
                <time>2019-06-14T10:03:04Z</time>
            </trkpt>
            <trkpt lat="54.898120" lon="-8.308980">
                <time>2019-06-14T10:03:05Z</time>
            </trkpt>
            <trkpt lat="54.898330" lon="-8.308980">
                <time>2019-06-14T10:03:06Z</time>
            </trkpt>
            <trkpt lat="54.898550" lon="-8.308990">
                <time>2019-06-14T10:03:07Z</time>
            </trkpt>
            <trkpt lat="54.898760" lon="-8.309000">
                <time>2019-06-14T10:03:08Z</time>
            </trkpt>
            <trkpt lat="54.898980" lon="-8.309000">
                <time>2019-06-14T10:03:09Z</time>
            </trkpt>
            <trkpt lat="54.899190" lon="-8.309010">
                <time>2019-06-14T10:03:10Z</time>
            </trkpt>
            <trkpt lat="54.899410" lon="-8.309020">
                <time>2019-06-14T10:03:11Z</time>
            </trkpt>
            <trkpt lat="54.899620" lon="-8.309040">
                <time>2019-06-14T10:03:12Z</time>
            </trkpt>
            <trkpt lat="54.899820" lon="-8.309060">
                <time>2019-06-14T10:03:13Z</time>
            </trkpt>
            <trkpt lat="54.900010" lon="-8.309090">
                <time>2019-06-14T10:03:14Z</time>
            </trkpt>
            <trkpt lat="54.900200" lon="-8.309130">
                <time>2019-06-14T10:03:15Z</time>
            </trkpt>
            <trkpt lat="54.900400" lon="-8.309180">
                <time>2019-06-14T10:03:16Z</time>
            </trkpt>
            <trkpt lat="54.900610" lon="-8.309230">
                <time>2019-06-14T10:03:17Z</time>
            </trkpt>
            <trkpt lat="54.900820" lon="-8.309280">
                <time>2019-06-14T10:03:18Z</time>
            </trkpt>
            <trkpt lat="54.901050" lon="-8.309330">
                <time>2019-06-14T10:03:19Z</time>
            </trkpt>
            <trkpt lat="54.901270" lon="-8.309390">
                <time>2019-06-14T10:03:20Z</time>
            </trkpt>
            <trkpt lat="54.901490" lon="-8.309440">
                <time>2019-06-14T10:03:21Z</time>
            </trkpt>
            <trkpt lat="54.901690" lon="-8.309490">
                <time>2019-06-14T10:03:22Z</time>
            </trkpt>
            <trkpt lat="54.901880" lon="-8.309550">
                <time>2019-06-14T10:03:23Z</time>
            </trkpt>
            <trkpt lat="54.902070" lon="-8.309600">
                <time>2019-06-14T10:03:24Z</time>
            </trkpt>
            <trkpt lat="54.902260" lon="-8.309650">
                <time>2019-06-14T10:03:25Z</time>
            </trkpt>
            <trkpt lat="54.902460" lon="-8.309700">
                <time>2019-06-14T10:03:26Z</time>
            </trkpt>
            <trkpt lat="54.902660" lon="-8.309740">
                <time>2019-06-14T10:03:27Z</time>
            </trkpt>
            <trkpt lat="54.902870" lon="-8.309790">
                <time>2019-06-14T10:03:28Z</time>
            </trkpt>
            <trkpt lat="54.903080" lon="-8.309830">
                <time>2019-06-14T10:03:29Z</time>
            </trkpt>
            <trkpt lat="54.903290" lon="-8.309870">
                <time>2019-06-14T10:03:30Z</time>
            </trkpt>
            <trkpt lat="54.903500" lon="-8.309920">
                <time>2019-06-14T10:03:31Z</time>
            </trkpt>
            <trkpt lat="54.903720" lon="-8.309960">
                <time>2019-06-14T10:03:32Z</time>
            </trkpt>
            <trkpt lat="54.903940" lon="-8.310010">
                <time>2019-06-14T10:03:33Z</time>
            </trkpt>
            <trkpt lat="54.904160" lon="-8.310060">
                <time>2019-06-14T10:03:34Z</time>
            </trkpt>
            <trkpt lat="54.904370" lon="-8.310090">
                <time>2019-06-14T10:03:35Z</time>
            </trkpt>
            <trkpt lat="54.904580" lon="-8.310100">
                <time>2019-06-14T10:03:36Z</time>
            </trkpt>
            <trkpt lat="54.904790" lon="-8.310050">
                <time>2019-06-14T10:03:37Z</time>
            </trkpt>
            <trkpt lat="54.904990" lon="-8.309980">
                <time>2019-06-14T10:03:38Z</time>
            </trkpt>
            <trkpt lat="54.905200" lon="-8.309900">
                <time>2019-06-14T10:03:39Z</time>
            </trkpt>
            <trkpt lat="54.905410" lon="-8.309840">
                <time>2019-06-14T10:03:40Z</time>
            </trkpt>
            <trkpt lat="54.905630" lon="-8.309810">
                <time>2019-06-14T10:03:41Z</time>
            </trkpt>
            <trkpt lat="54.905850" lon="-8.309810">
                <time>2019-06-14T10:03:42Z</time>
            </trkpt>
            <trkpt lat="54.906080" lon="-8.309850">
                <time>2019-06-14T10:03:43Z</time>
            </trkpt>
            <trkpt lat="54.906290" lon="-8.309890">
                <time>2019-06-14T10:03:44Z</time>
            </trkpt>
            <trkpt lat="54.906510" lon="-8.309930">
                <time>2019-06-14T10:03:45Z</time>
            </trkpt>
            <trkpt lat="54.906730" lon="-8.309960">
                <time>2019-06-14T10:03:46Z</time>
            </trkpt>
            <trkpt lat="54.906950" lon="-8.310000">
                <time>2019-06-14T10:03:47Z</time>
            </trkpt>
            <trkpt lat="54.907170" lon="-8.310050">
                <time>2019-06-14T10:03:48Z</time>
            </trkpt>
            <trkpt lat="54.907390" lon="-8.310100">
                <time>2019-06-14T10:03:49Z</time>
            </trkpt>
            <trkpt lat="54.907620" lon="-8.310150">
                <time>2019-06-14T10:03:50Z</time>
            </trkpt>
            <trkpt lat="54.907850" lon="-8.310190">
                <time>2019-06-14T10:03:51Z</time>
            </trkpt>
            <trkpt lat="54.908080" lon="-8.310230">
                <time>2019-06-14T10:03:52Z</time>
            </trkpt>
            <trkpt lat="54.908320" lon="-8.310270">
                <time>2019-06-14T10:03:53Z</time>
            </trkpt>
            <trkpt lat="54.908540" lon="-8.310310">
                <time>2019-06-14T10:03:54Z</time>
            </trkpt>
            <trkpt lat="54.908760" lon="-8.310350">
                <time>2019-06-14T10:03:55Z</time>
            </trkpt>
            <trkpt lat="54.908970" lon="-8.310400">
                <time>2019-06-14T10:03:56Z</time>
            </trkpt>
            <trkpt lat="54.909180" lon="-8.310440">
                <time>2019-06-14T10:03:57Z</time>
            </trkpt>
            <trkpt lat="54.909400" lon="-8.310490">
                <time>2019-06-14T10:03:58Z</time>
            </trkpt>
            <trkpt lat="54.909610" lon="-8.310530">
                <time>2019-06-14T10:03:59Z</time>
            </trkpt>
            <trkpt lat="54.909820" lon="-8.310580">
                <time>2019-06-14T10:04:00Z</time>
            </trkpt>
            <trkpt lat="54.910010" lon="-8.310610">
                <time>2019-06-14T10:04:01Z</time>
            </trkpt>
            <trkpt lat="54.910200" lon="-8.310650">
                <time>2019-06-14T10:04:02Z</time>
            </trkpt>
            <trkpt lat="54.910370" lon="-8.310690">
                <time>2019-06-14T10:04:03Z</time>
            </trkpt>
            <trkpt lat="54.910540" lon="-8.310720">
                <time>2019-06-14T10:04:04Z</time>
            </trkpt>
            <trkpt lat="54.910690" lon="-8.310750">
                <time>2019-06-14T10:04:05Z</time>
            </trkpt>
            <trkpt lat="54.910850" lon="-8.310770">
                <time>2019-06-14T10:04:06Z</time>
            </trkpt>
            <trkpt lat="54.911010" lon="-8.310780">
                <time>2019-06-14T10:04:07Z</time>
            </trkpt>
            <trkpt lat="54.911160" lon="-8.310780">
                <time>2019-06-14T10:04:08Z</time>
            </trkpt>
            <trkpt lat="54.911330" lon="-8.310760">
                <time>2019-06-14T10:04:09Z</time>
            </trkpt>
            <trkpt lat="54.911490" lon="-8.310720">
                <time>2019-06-14T10:04:10Z</time>
            </trkpt>
            <trkpt lat="54.911660" lon="-8.310650">
                <time>2019-06-14T10:04:11Z</time>
            </trkpt>
            <trkpt lat="54.911840" lon="-8.310570">
                <time>2019-06-14T10:04:12Z</time>
            </trkpt>
            <trkpt lat="54.912030" lon="-8.310480">
                <time>2019-06-14T10:04:13Z</time>
            </trkpt>
            <trkpt lat="54.912210" lon="-8.310360">
                <time>2019-06-14T10:04:14Z</time>
            </trkpt>
            <trkpt lat="54.912400" lon="-8.310230">
                <time>2019-06-14T10:04:15Z</time>
            </trkpt>
            <trkpt lat="54.912580" lon="-8.310110">
                <time>2019-06-14T10:04:16Z</time>
            </trkpt>
            <trkpt lat="54.912760" lon="-8.310000">
                <time>2019-06-14T10:04:17Z</time>
            </trkpt>
            <trkpt lat="54.912940" lon="-8.309890">
                <time>2019-06-14T10:04:18Z</time>
            </trkpt>
            <trkpt lat="54.913120" lon="-8.309800">
                <time>2019-06-14T10:04:19Z</time>
            </trkpt>
            <trkpt lat="54.913310" lon="-8.309730">
                <time>2019-06-14T10:04:20Z</time>
            </trkpt>
            <trkpt lat="54.913500" lon="-8.309690">
                <time>2019-06-14T10:04:21Z</time>
            </trkpt>
            <trkpt lat="54.913690" lon="-8.309710">
                <time>2019-06-14T10:04:22Z</time>
            </trkpt>
            <trkpt lat="54.913870" lon="-8.309770">
                <time>2019-06-14T10:04:23Z</time>
            </trkpt>
            <trkpt lat="54.914030" lon="-8.309880">
                <time>2019-06-14T10:04:24Z</time>
            </trkpt>
            <trkpt lat="54.914180" lon="-8.310010">
                <time>2019-06-14T10:04:25Z</time>
            </trkpt>
            <trkpt lat="54.914330" lon="-8.310160">
                <time>2019-06-14T10:04:26Z</time>
            </trkpt>
            <trkpt lat="54.914470" lon="-8.310320">
                <time>2019-06-14T10:04:27Z</time>
            </trkpt>
            <trkpt lat="54.914620" lon="-8.310500">
                <time>2019-06-14T10:04:28Z</time>
            </trkpt>
            <trkpt lat="54.914770" lon="-8.310680">
                <time>2019-06-14T10:04:29Z</time>
            </trkpt>
            <trkpt lat="54.914930" lon="-8.310860">
                <time>2019-06-14T10:04:30Z</time>
            </trkpt>
            <trkpt lat="54.915090" lon="-8.311030">
                <time>2019-06-14T10:04:31Z</time>
            </trkpt>
            <trkpt lat="54.915240" lon="-8.311190">
                <time>2019-06-14T10:04:32Z</time>
            </trkpt>
            <trkpt lat="54.915400" lon="-8.311340">
                <time>2019-06-14T10:04:33Z</time>
            </trkpt>
            <trkpt lat="54.915550" lon="-8.311480">
                <time>2019-06-14T10:04:34Z</time>
            </trkpt>
            <trkpt lat="54.915710" lon="-8.311620">
                <time>2019-06-14T10:04:35Z</time>
            </trkpt>
            <trkpt lat="54.915880" lon="-8.311750">
                <time>2019-06-14T10:04:36Z</time>
            </trkpt>
            <trkpt lat="54.916060" lon="-8.311880">
                <time>2019-06-14T10:04:37Z</time>
            </trkpt>
            <trkpt lat="54.916230" lon="-8.312010">
                <time>2019-06-14T10:04:38Z</time>
            </trkpt>
            <trkpt lat="54.916410" lon="-8.312130">
                <time>2019-06-14T10:04:39Z</time>
            </trkpt>
            <trkpt lat="54.916570" lon="-8.312240">
                <time>2019-06-14T10:04:40Z</time>
            </trkpt>
            <trkpt lat="54.916730" lon="-8.312340">
                <time>2019-06-14T10:04:41Z</time>
            </trkpt>
            <trkpt lat="54.916900" lon="-8.312440">
                <time>2019-06-14T10:04:42Z</time>
            </trkpt>
            <trkpt lat="54.917060" lon="-8.312540">
                <time>2019-06-14T10:04:43Z</time>
            </trkpt>
            <trkpt lat="54.917220" lon="-8.312630">
                <time>2019-06-14T10:04:44Z</time>
            </trkpt>
            <trkpt lat="54.917390" lon="-8.312730">
                <time>2019-06-14T10:04:45Z</time>
            </trkpt>
            <trkpt lat="54.917560" lon="-8.312840">
                <time>2019-06-14T10:04:46Z</time>
            </trkpt>
            <trkpt lat="54.917730" lon="-8.312960">
                <time>2019-06-14T10:04:47Z</time>
            </trkpt>
            <trkpt lat="54.917910" lon="-8.313070">
                <time>2019-06-14T10:04:48Z</time>
            </trkpt>
            <trkpt lat="54.918090" lon="-8.313190">
                <time>2019-06-14T10:04:49Z</time>
            </trkpt>
            <trkpt lat="54.918260" lon="-8.313290">
                <time>2019-06-14T10:04:50Z</time>
            </trkpt>
            <trkpt lat="54.918440" lon="-8.313400">
                <time>2019-06-14T10:04:51Z</time>
            </trkpt>
            <trkpt lat="54.918610" lon="-8.313510">
                <time>2019-06-14T10:04:52Z</time>
            </trkpt>
            <trkpt lat="54.918790" lon="-8.313610">
                <time>2019-06-14T10:04:53Z</time>
            </trkpt>
            <trkpt lat="54.918970" lon="-8.313710">
                <time>2019-06-14T10:04:54Z</time>
            </trkpt>
            <trkpt lat="54.919150" lon="-8.313810">
                <time>2019-06-14T10:04:55Z</time>
            </trkpt>
            <trkpt lat="54.919340" lon="-8.313920">
                <time>2019-06-14T10:04:56Z</time>
            </trkpt>
            <trkpt lat="54.919530" lon="-8.314030">
                <time>2019-06-14T10:04:57Z</time>
            </trkpt>
            <trkpt lat="54.919730" lon="-8.314130">
                <time>2019-06-14T10:04:58Z</time>
            </trkpt>
            <trkpt lat="54.919930" lon="-8.314220">
                <time>2019-06-14T10:04:59Z</time>
            </trkpt>
            <trkpt lat="54.920110" lon="-8.314260">
                <time>2019-06-14T10:05:00Z</time>
            </trkpt>
            <trkpt lat="54.920300" lon="-8.314270">
                <time>2019-06-14T10:05:01Z</time>
            </trkpt>
            <trkpt lat="54.920490" lon="-8.314240">
                <time>2019-06-14T10:05:02Z</time>
            </trkpt>
            <trkpt lat="54.920680" lon="-8.314200">
                <time>2019-06-14T10:05:03Z</time>
            </trkpt>
            <trkpt lat="54.920870" lon="-8.314170">
                <time>2019-06-14T10:05:04Z</time>
            </trkpt>
            <trkpt lat="54.921060" lon="-8.314160">
                <time>2019-06-14T10:05:05Z</time>
            </trkpt>
            <trkpt lat="54.921250" lon="-8.314160">
                <time>2019-06-14T10:05:06Z</time>
            </trkpt>
            <trkpt lat="54.921450" lon="-8.314180">
                <time>2019-06-14T10:05:07Z</time>
            </trkpt>
            <trkpt lat="54.921650" lon="-8.314200">
                <time>2019-06-14T10:05:08Z</time>
            </trkpt>
            <trkpt lat="54.921840" lon="-8.314220">
                <time>2019-06-14T10:05:09Z</time>
            </trkpt>
            <trkpt lat="54.922040" lon="-8.314230">
                <time>2019-06-14T10:05:10Z</time>
            </trkpt>
            <trkpt lat="54.922240" lon="-8.314240">
                <time>2019-06-14T10:05:11Z</time>
            </trkpt>
            <trkpt lat="54.922430" lon="-8.314250">
                <time>2019-06-14T10:05:12Z</time>
            </trkpt>
            <trkpt lat="54.922630" lon="-8.314250">
                <time>2019-06-14T10:05:13Z</time>
            </trkpt>
            <trkpt lat="54.922820" lon="-8.314250">
                <time>2019-06-14T10:05:14Z</time>
            </trkpt>
            <trkpt lat="54.922990" lon="-8.314250">
                <time>2019-06-14T10:05:15Z</time>
            </trkpt>
            <trkpt lat="54.923170" lon="-8.314260">
                <time>2019-06-14T10:05:16Z</time>
            </trkpt>
            <trkpt lat="54.923350" lon="-8.314280">
                <time>2019-06-14T10:05:17Z</time>
            </trkpt>
            <trkpt lat="54.923530" lon="-8.314330">
                <time>2019-06-14T10:05:18Z</time>
            </trkpt>
            <trkpt lat="54.923700" lon="-8.314430">
                <time>2019-06-14T10:05:19Z</time>
            </trkpt>
            <trkpt lat="54.923870" lon="-8.314550">
                <time>2019-06-14T10:05:20Z</time>
            </trkpt>
            <trkpt lat="54.924030" lon="-8.314690">
                <time>2019-06-14T10:05:21Z</time>
            </trkpt>
            <trkpt lat="54.924200" lon="-8.314840">
                <time>2019-06-14T10:05:22Z</time>
            </trkpt>
            <trkpt lat="54.924360" lon="-8.314990">
                <time>2019-06-14T10:05:23Z</time>
            </trkpt>
            <trkpt lat="54.924530" lon="-8.315150">
                <time>2019-06-14T10:05:24Z</time>
            </trkpt>
            <trkpt lat="54.924690" lon="-8.315310">
                <time>2019-06-14T10:05:25Z</time>
            </trkpt>
            <trkpt lat="54.924860" lon="-8.315490">
                <time>2019-06-14T10:05:26Z</time>
            </trkpt>
            <trkpt lat="54.925000" lon="-8.315690">
                <time>2019-06-14T10:05:27Z</time>
            </trkpt>
            <trkpt lat="54.925130" lon="-8.315910">
                <time>2019-06-14T10:05:28Z</time>
            </trkpt>
            <trkpt lat="54.925250" lon="-8.316140">
                <time>2019-06-14T10:05:29Z</time>
            </trkpt>
            <trkpt lat="54.925360" lon="-8.316370">
                <time>2019-06-14T10:05:30Z</time>
            </trkpt>
            <trkpt lat="54.925460" lon="-8.316590">
                <time>2019-06-14T10:05:31Z</time>
            </trkpt>
            <trkpt lat="54.925580" lon="-8.316810">
                <time>2019-06-14T10:05:32Z</time>
            </trkpt>
            <trkpt lat="54.925700" lon="-8.317020">
                <time>2019-06-14T10:05:33Z</time>
            </trkpt>
            <trkpt lat="54.925840" lon="-8.317220">
                <time>2019-06-14T10:05:34Z</time>
            </trkpt>
            <trkpt lat="54.925990" lon="-8.317400">
                <time>2019-06-14T10:05:35Z</time>
            </trkpt>
            <trkpt lat="54.926140" lon="-8.317550">
                <time>2019-06-14T10:05:36Z</time>
            </trkpt>
            <trkpt lat="54.926300" lon="-8.317690">
                <time>2019-06-14T10:05:37Z</time>
            </trkpt>
            <trkpt lat="54.926460" lon="-8.317820">
                <time>2019-06-14T10:05:38Z</time>
            </trkpt>
            <trkpt lat="54.926620" lon="-8.317930">
                <time>2019-06-14T10:05:39Z</time>
            </trkpt>
            <trkpt lat="54.926780" lon="-8.318050">
                <time>2019-06-14T10:05:40Z</time>
            </trkpt>
            <trkpt lat="54.926950" lon="-8.318160">
                <time>2019-06-14T10:05:41Z</time>
            </trkpt>
            <trkpt lat="54.927110" lon="-8.318270">
                <time>2019-06-14T10:05:42Z</time>
            </trkpt>
            <trkpt lat="54.927270" lon="-8.318380">
                <time>2019-06-14T10:05:43Z</time>
            </trkpt>
            <trkpt lat="54.927430" lon="-8.318490">
                <time>2019-06-14T10:05:44Z</time>
            </trkpt>
            <trkpt lat="54.927600" lon="-8.318600">
                <time>2019-06-14T10:05:45Z</time>
            </trkpt>
            <trkpt lat="54.927760" lon="-8.318700">
                <time>2019-06-14T10:05:46Z</time>
            </trkpt>
            <trkpt lat="54.927920" lon="-8.318790">
                <time>2019-06-14T10:05:47Z</time>
            </trkpt>
            <trkpt lat="54.928090" lon="-8.318870">
                <time>2019-06-14T10:05:48Z</time>
            </trkpt>
            <trkpt lat="54.928270" lon="-8.318920">
                <time>2019-06-14T10:05:49Z</time>
            </trkpt>
            <trkpt lat="54.928450" lon="-8.318950">
                <time>2019-06-14T10:05:50Z</time>
            </trkpt>
            <trkpt lat="54.928630" lon="-8.318950">
                <time>2019-06-14T10:05:51Z</time>
            </trkpt>
            <trkpt lat="54.928810" lon="-8.318920">
                <time>2019-06-14T10:05:52Z</time>
            </trkpt>
            <trkpt lat="54.928970" lon="-8.318870">
                <time>2019-06-14T10:05:53Z</time>
            </trkpt>
            <trkpt lat="54.929120" lon="-8.318830">
                <time>2019-06-14T10:05:54Z</time>
            </trkpt>
            <trkpt lat="54.929270" lon="-8.318810">
                <time>2019-06-14T10:05:55Z</time>
            </trkpt>
            <trkpt lat="54.929410" lon="-8.318790">
                <time>2019-06-14T10:05:56Z</time>
            </trkpt>
            <trkpt lat="54.929550" lon="-8.318790">
                <time>2019-06-14T10:05:57Z</time>
            </trkpt>
            <trkpt lat="54.929690" lon="-8.318800">
                <time>2019-06-14T10:05:58Z</time>
            </trkpt>
            <trkpt lat="54.929830" lon="-8.318820">
                <time>2019-06-14T10:05:59Z</time>
            </trkpt>
            <trkpt lat="54.929970" lon="-8.318830">
                <time>2019-06-14T10:06:00Z</time>
            </trkpt>
            <trkpt lat="54.930120" lon="-8.318860">
                <time>2019-06-14T10:06:01Z</time>
            </trkpt>
            <trkpt lat="54.930270" lon="-8.318910">
                <time>2019-06-14T10:06:02Z</time>
            </trkpt>
            <trkpt lat="54.930420" lon="-8.318960">
                <time>2019-06-14T10:06:03Z</time>
            </trkpt>
            <trkpt lat="54.930580" lon="-8.318990">
                <time>2019-06-14T10:06:04Z</time>
            </trkpt>
            <trkpt lat="54.930750" lon="-8.319010">
                <time>2019-06-14T10:06:05Z</time>
            </trkpt>
            <trkpt lat="54.930930" lon="-8.319010">
                <time>2019-06-14T10:06:06Z</time>
            </trkpt>
            <trkpt lat="54.931120" lon="-8.319010">
                <time>2019-06-14T10:06:07Z</time>
            </trkpt>
            <trkpt lat="54.931310" lon="-8.319000">
                <time>2019-06-14T10:06:08Z</time>
            </trkpt>
            <trkpt lat="54.931490" lon="-8.319000">
                <time>2019-06-14T10:06:09Z</time>
            </trkpt>
            <trkpt lat="54.931660" lon="-8.319020">
                <time>2019-06-14T10:06:10Z</time>
            </trkpt>
            <trkpt lat="54.931840" lon="-8.319070">
                <time>2019-06-14T10:06:11Z</time>
            </trkpt>
            <trkpt lat="54.932000" lon="-8.319140">
                <time>2019-06-14T10:06:12Z</time>
            </trkpt>
            <trkpt lat="54.932140" lon="-8.319220">
                <time>2019-06-14T10:06:13Z</time>
            </trkpt>
            <trkpt lat="54.932280" lon="-8.319310">
                <time>2019-06-14T10:06:14Z</time>
            </trkpt>
            <trkpt lat="54.932400" lon="-8.319410">
                <time>2019-06-14T10:06:15Z</time>
            </trkpt>
            <trkpt lat="54.932520" lon="-8.319540">
                <time>2019-06-14T10:06:16Z</time>
            </trkpt>
            <trkpt lat="54.932640" lon="-8.319700">
                <time>2019-06-14T10:06:17Z</time>
            </trkpt>
            <trkpt lat="54.932750" lon="-8.319870">
                <time>2019-06-14T10:06:18Z</time>
            </trkpt>
            <trkpt lat="54.932860" lon="-8.320060">
                <time>2019-06-14T10:06:19Z</time>
            </trkpt>
            <trkpt lat="54.932970" lon="-8.320270">
                <time>2019-06-14T10:06:20Z</time>
            </trkpt>
            <trkpt lat="54.933070" lon="-8.320490">
                <time>2019-06-14T10:06:21Z</time>
            </trkpt>
            <trkpt lat="54.933170" lon="-8.320720">
                <time>2019-06-14T10:06:22Z</time>
            </trkpt>
            <trkpt lat="54.933270" lon="-8.320960">
                <time>2019-06-14T10:06:23Z</time>
            </trkpt>
            <trkpt lat="54.933370" lon="-8.321220">
                <time>2019-06-14T10:06:24Z</time>
            </trkpt>
            <trkpt lat="54.933470" lon="-8.321470">
                <time>2019-06-14T10:06:25Z</time>
            </trkpt>
            <trkpt lat="54.933580" lon="-8.321720">
                <time>2019-06-14T10:06:26Z</time>
            </trkpt>
            <trkpt lat="54.933680" lon="-8.321960">
                <time>2019-06-14T10:06:27Z</time>
            </trkpt>
            <trkpt lat="54.933780" lon="-8.322190">
                <time>2019-06-14T10:06:28Z</time>
            </trkpt>
            <trkpt lat="54.933890" lon="-8.322420">
                <time>2019-06-14T10:06:29Z</time>
            </trkpt>
            <trkpt lat="54.933990" lon="-8.322650">
                <time>2019-06-14T10:06:30Z</time>
            </trkpt>
            <trkpt lat="54.934100" lon="-8.322870">
                <time>2019-06-14T10:06:31Z</time>
            </trkpt>
            <trkpt lat="54.934200" lon="-8.323090">
                <time>2019-06-14T10:06:32Z</time>
            </trkpt>
            <trkpt lat="54.934300" lon="-8.323310">
                <time>2019-06-14T10:06:33Z</time>
            </trkpt>
            <trkpt lat="54.934400" lon="-8.323540">
                <time>2019-06-14T10:06:34Z</time>
            </trkpt>
            <trkpt lat="54.934520" lon="-8.323770">
                <time>2019-06-14T10:06:35Z</time>
            </trkpt>
            <trkpt lat="54.934630" lon="-8.324000">
                <time>2019-06-14T10:06:36Z</time>
            </trkpt>
            <trkpt lat="54.934750" lon="-8.324250">
                <time>2019-06-14T10:06:37Z</time>
            </trkpt>
            <trkpt lat="54.934870" lon="-8.324490">
                <time>2019-06-14T10:06:38Z</time>
            </trkpt>
            <trkpt lat="54.934990" lon="-8.324760">
                <time>2019-06-14T10:06:39Z</time>
            </trkpt>
            <trkpt lat="54.935110" lon="-8.325030">
                <time>2019-06-14T10:06:40Z</time>
            </trkpt>
            <trkpt lat="54.935240" lon="-8.325310">
                <time>2019-06-14T10:06:41Z</time>
            </trkpt>
            <trkpt lat="54.935370" lon="-8.325580">
                <time>2019-06-14T10:06:42Z</time>
            </trkpt>
            <trkpt lat="54.935510" lon="-8.325840">
                <time>2019-06-14T10:06:43Z</time>
            </trkpt>
            <trkpt lat="54.935650" lon="-8.326080">
                <time>2019-06-14T10:06:44Z</time>
            </trkpt>
            <trkpt lat="54.935790" lon="-8.326310">
                <time>2019-06-14T10:06:45Z</time>
            </trkpt>
            <trkpt lat="54.935930" lon="-8.326530">
                <time>2019-06-14T10:06:46Z</time>
            </trkpt>
            <trkpt lat="54.936070" lon="-8.326730">
                <time>2019-06-14T10:06:47Z</time>
            </trkpt>
            <trkpt lat="54.936200" lon="-8.326920">
                <time>2019-06-14T10:06:48Z</time>
            </trkpt>
            <trkpt lat="54.936330" lon="-8.327100">
                <time>2019-06-14T10:06:49Z</time>
            </trkpt>
            <trkpt lat="54.936460" lon="-8.327300">
                <time>2019-06-14T10:06:50Z</time>
            </trkpt>
            <trkpt lat="54.936570" lon="-8.327490">
                <time>2019-06-14T10:06:51Z</time>
            </trkpt>
            <trkpt lat="54.936690" lon="-8.327690">
                <time>2019-06-14T10:06:52Z</time>
            </trkpt>
            <trkpt lat="54.936810" lon="-8.327890">
                <time>2019-06-14T10:06:53Z</time>
            </trkpt>
            <trkpt lat="54.936950" lon="-8.328100">
                <time>2019-06-14T10:06:54Z</time>
            </trkpt>
            <trkpt lat="54.937090" lon="-8.328340">
                <time>2019-06-14T10:06:55Z</time>
            </trkpt>
            <trkpt lat="54.937240" lon="-8.328580">
                <time>2019-06-14T10:06:56Z</time>
            </trkpt>
            <trkpt lat="54.937370" lon="-8.328810">
                <time>2019-06-14T10:06:57Z</time>
            </trkpt>
            <trkpt lat="54.937500" lon="-8.329030">
                <time>2019-06-14T10:06:58Z</time>
            </trkpt>
            <trkpt lat="54.937640" lon="-8.329260">
                <time>2019-06-14T10:06:59Z</time>
            </trkpt>
            <trkpt lat="54.937770" lon="-8.329490">
                <time>2019-06-14T10:07:00Z</time>
            </trkpt>
            <trkpt lat="54.937910" lon="-8.329720">
                <time>2019-06-14T10:07:01Z</time>
            </trkpt>
            <trkpt lat="54.938040" lon="-8.329950">
                <time>2019-06-14T10:07:02Z</time>
            </trkpt>
            <trkpt lat="54.938180" lon="-8.330180">
                <time>2019-06-14T10:07:03Z</time>
            </trkpt>
            <trkpt lat="54.938310" lon="-8.330410">
                <time>2019-06-14T10:07:04Z</time>
            </trkpt>
            <trkpt lat="54.938450" lon="-8.330630">
                <time>2019-06-14T10:07:05Z</time>
            </trkpt>
            <trkpt lat="54.938570" lon="-8.330840">
                <time>2019-06-14T10:07:06Z</time>
            </trkpt>
            <trkpt lat="54.938690" lon="-8.331030">
                <time>2019-06-14T10:07:07Z</time>
            </trkpt>
            <trkpt lat="54.938810" lon="-8.331200">
                <time>2019-06-14T10:07:08Z</time>
            </trkpt>
            <trkpt lat="54.938920" lon="-8.331360">
                <time>2019-06-14T10:07:09Z</time>
            </trkpt>
            <trkpt lat="54.939040" lon="-8.331510">
                <time>2019-06-14T10:07:10Z</time>
            </trkpt>
            <trkpt lat="54.939160" lon="-8.331670">
                <time>2019-06-14T10:07:11Z</time>
            </trkpt>
            <trkpt lat="54.939290" lon="-8.331830">
                <time>2019-06-14T10:07:12Z</time>
            </trkpt>
            <trkpt lat="54.939420" lon="-8.331980">
                <time>2019-06-14T10:07:13Z</time>
            </trkpt>
            <trkpt lat="54.939550" lon="-8.332140">
                <time>2019-06-14T10:07:14Z</time>
            </trkpt>
            <trkpt lat="54.939680" lon="-8.332290">
                <time>2019-06-14T10:07:15Z</time>
            </trkpt>
            <trkpt lat="54.939810" lon="-8.332440">
                <time>2019-06-14T10:07:16Z</time>
            </trkpt>
            <trkpt lat="54.939920" lon="-8.332570">
                <time>2019-06-14T10:07:17Z</time>
            </trkpt>
            <trkpt lat="54.940040" lon="-8.332700">
                <time>2019-06-14T10:07:18Z</time>
            </trkpt>
            <trkpt lat="54.940150" lon="-8.332830">
                <time>2019-06-14T10:07:19Z</time>
            </trkpt>
            <trkpt lat="54.940260" lon="-8.332970">
                <time>2019-06-14T10:07:20Z</time>
            </trkpt>
            <trkpt lat="54.940380" lon="-8.333100">
                <time>2019-06-14T10:07:21Z</time>
            </trkpt>
            <trkpt lat="54.940490" lon="-8.333240">
                <time>2019-06-14T10:07:22Z</time>
            </trkpt>
            <trkpt lat="54.940610" lon="-8.333370">
                <time>2019-06-14T10:07:23Z</time>
            </trkpt>
            <trkpt lat="54.940740" lon="-8.333530">
                <time>2019-06-14T10:07:24Z</time>
            </trkpt>
            <trkpt lat="54.940870" lon="-8.333690">
                <time>2019-06-14T10:07:25Z</time>
            </trkpt>
            <trkpt lat="54.940990" lon="-8.333850">
                <time>2019-06-14T10:07:26Z</time>
            </trkpt>
            <trkpt lat="54.941110" lon="-8.333990">
                <time>2019-06-14T10:07:27Z</time>
            </trkpt>
            <trkpt lat="54.941220" lon="-8.334130">
                <time>2019-06-14T10:07:28Z</time>
            </trkpt>
            <trkpt lat="54.941320" lon="-8.334270">
                <time>2019-06-14T10:07:29Z</time>
            </trkpt>
            <trkpt lat="54.941430" lon="-8.334430">
                <time>2019-06-14T10:07:30Z</time>
            </trkpt>
            <trkpt lat="54.941530" lon="-8.334610">
                <time>2019-06-14T10:07:31Z</time>
            </trkpt>
            <trkpt lat="54.941630" lon="-8.334810">
                <time>2019-06-14T10:07:32Z</time>
            </trkpt>
            <trkpt lat="54.941720" lon="-8.335010">
                <time>2019-06-14T10:07:33Z</time>
            </trkpt>
            <trkpt lat="54.941820" lon="-8.335210">
                <time>2019-06-14T10:07:34Z</time>
            </trkpt>
            <trkpt lat="54.941920" lon="-8.335410">
                <time>2019-06-14T10:07:35Z</time>
            </trkpt>
            <trkpt lat="54.942010" lon="-8.335610">
                <time>2019-06-14T10:07:36Z</time>
            </trkpt>
            <trkpt lat="54.942100" lon="-8.335810">
                <time>2019-06-14T10:07:37Z</time>
            </trkpt>
            <trkpt lat="54.942200" lon="-8.336010">
                <time>2019-06-14T10:07:38Z</time>
            </trkpt>
            <trkpt lat="54.942310" lon="-8.336220">
                <time>2019-06-14T10:07:39Z</time>
            </trkpt>
            <trkpt lat="54.942420" lon="-8.336440">
                <time>2019-06-14T10:07:40Z</time>
            </trkpt>
            <trkpt lat="54.942530" lon="-8.336680">
                <time>2019-06-14T10:07:41Z</time>
            </trkpt>
            <trkpt lat="54.942650" lon="-8.336930">
                <time>2019-06-14T10:07:42Z</time>
            </trkpt>
            <trkpt lat="54.942760" lon="-8.337170">
                <time>2019-06-14T10:07:43Z</time>
            </trkpt>
            <trkpt lat="54.942870" lon="-8.337390">
                <time>2019-06-14T10:07:44Z</time>
            </trkpt>
            <trkpt lat="54.942980" lon="-8.337590">
                <time>2019-06-14T10:07:45Z</time>
            </trkpt>
            <trkpt lat="54.943110" lon="-8.337760">
                <time>2019-06-14T10:07:46Z</time>
            </trkpt>
            <trkpt lat="54.943230" lon="-8.337910">
                <time>2019-06-14T10:07:47Z</time>
            </trkpt>
            <trkpt lat="54.943370" lon="-8.338020">
                <time>2019-06-14T10:07:48Z</time>
            </trkpt>
            <trkpt lat="54.943500" lon="-8.338130">
                <time>2019-06-14T10:07:49Z</time>
            </trkpt>
            <trkpt lat="54.943640" lon="-8.338210">
                <time>2019-06-14T10:07:50Z</time>
            </trkpt>
            <trkpt lat="54.943780" lon="-8.338310">
                <time>2019-06-14T10:07:51Z</time>
            </trkpt>
            <trkpt lat="54.943930" lon="-8.338400">
                <time>2019-06-14T10:07:52Z</time>
            </trkpt>
            <trkpt lat="54.944080" lon="-8.338490">
                <time>2019-06-14T10:07:53Z</time>
            </trkpt>
            <trkpt lat="54.944230" lon="-8.338590">
                <time>2019-06-14T10:07:54Z</time>
            </trkpt>
            <trkpt lat="54.944380" lon="-8.338680">
                <time>2019-06-14T10:07:55Z</time>
            </trkpt>
            <trkpt lat="54.944530" lon="-8.338770">
                <time>2019-06-14T10:07:56Z</time>
            </trkpt>
            <trkpt lat="54.944690" lon="-8.338870">
                <time>2019-06-14T10:07:57Z</time>
            </trkpt>
            <trkpt lat="54.944850" lon="-8.338980">
                <time>2019-06-14T10:07:58Z</time>
            </trkpt>
            <trkpt lat="54.945020" lon="-8.339090">
                <time>2019-06-14T10:07:59Z</time>
            </trkpt>
            <trkpt lat="54.945190" lon="-8.339190">
                <time>2019-06-14T10:08:00Z</time>
            </trkpt>
            <trkpt lat="54.945340" lon="-8.339290">
                <time>2019-06-14T10:08:01Z</time>
            </trkpt>
            <trkpt lat="54.945480" lon="-8.339380">
                <time>2019-06-14T10:08:02Z</time>
            </trkpt>
            <trkpt lat="54.945620" lon="-8.339470">
                <time>2019-06-14T10:08:03Z</time>
            </trkpt>
            <trkpt lat="54.945770" lon="-8.339560">
                <time>2019-06-14T10:08:04Z</time>
            </trkpt>
            <trkpt lat="54.945900" lon="-8.339650">
                <time>2019-06-14T10:08:05Z</time>
            </trkpt>
            <trkpt lat="54.946040" lon="-8.339730">
                <time>2019-06-14T10:08:06Z</time>
            </trkpt>
            <trkpt lat="54.946170" lon="-8.339820">
                <time>2019-06-14T10:08:07Z</time>
            </trkpt>
            <trkpt lat="54.946300" lon="-8.339900">
                <time>2019-06-14T10:08:08Z</time>
            </trkpt>
            <trkpt lat="54.946440" lon="-8.339990">
                <time>2019-06-14T10:08:09Z</time>
            </trkpt>
            <trkpt lat="54.946580" lon="-8.340080">
                <time>2019-06-14T10:08:10Z</time>
            </trkpt>
            <trkpt lat="54.946720" lon="-8.340170">
                <time>2019-06-14T10:08:11Z</time>
            </trkpt>
            <trkpt lat="54.946860" lon="-8.340260">
                <time>2019-06-14T10:08:12Z</time>
            </trkpt>
            <trkpt lat="54.947000" lon="-8.340360">
                <time>2019-06-14T10:08:13Z</time>
            </trkpt>
            <trkpt lat="54.947130" lon="-8.340450">
                <time>2019-06-14T10:08:14Z</time>
            </trkpt>
            <trkpt lat="54.947250" lon="-8.340530">
                <time>2019-06-14T10:08:15Z</time>
            </trkpt>
            <trkpt lat="54.947360" lon="-8.340620">
                <time>2019-06-14T10:08:16Z</time>
            </trkpt>
            <trkpt lat="54.947470" lon="-8.340690">
                <time>2019-06-14T10:08:17Z</time>
            </trkpt>
            <trkpt lat="54.947570" lon="-8.340770">
                <time>2019-06-14T10:08:18Z</time>
            </trkpt>
            <trkpt lat="54.947680" lon="-8.340870">
                <time>2019-06-14T10:08:19Z</time>
            </trkpt>
            <trkpt lat="54.947780" lon="-8.340960">
                <time>2019-06-14T10:08:20Z</time>
            </trkpt>
            <trkpt lat="54.947880" lon="-8.341060">
                <time>2019-06-14T10:08:21Z</time>
            </trkpt>
            <trkpt lat="54.947960" lon="-8.341150">
                <time>2019-06-14T10:08:22Z</time>
            </trkpt>
            <trkpt lat="54.948040" lon="-8.341240">
                <time>2019-06-14T10:08:23Z</time>
            </trkpt>
            <trkpt lat="54.948110" lon="-8.341320">
                <time>2019-06-14T10:08:24Z</time>
            </trkpt>
            <trkpt lat="54.948170" lon="-8.341380">
                <time>2019-06-14T10:08:25Z</time>
            </trkpt>
            <trkpt lat="54.948220" lon="-8.341460">
                <time>2019-06-14T10:08:26Z</time>
            </trkpt>
            <trkpt lat="54.948270" lon="-8.341560">
                <time>2019-06-14T10:08:27Z</time>
            </trkpt>
            <trkpt lat="54.948300" lon="-8.341700">
                <time>2019-06-14T10:08:28Z</time>
            </trkpt>
            <trkpt lat="54.948310" lon="-8.341850">
                <time>2019-06-14T10:08:29Z</time>
            </trkpt>
            <trkpt lat="54.948310" lon="-8.342020">
                <time>2019-06-14T10:08:30Z</time>
            </trkpt>
            <trkpt lat="54.948300" lon="-8.342200">
                <time>2019-06-14T10:08:31Z</time>
            </trkpt>
            <trkpt lat="54.948300" lon="-8.342370">
                <time>2019-06-14T10:08:32Z</time>
            </trkpt>
            <trkpt lat="54.948290" lon="-8.342550">
                <time>2019-06-14T10:08:33Z</time>
            </trkpt>
            <trkpt lat="54.948290" lon="-8.342740">
                <time>2019-06-14T10:08:34Z</time>
            </trkpt>
            <trkpt lat="54.948290" lon="-8.342930">
                <time>2019-06-14T10:08:35Z</time>
            </trkpt>
            <trkpt lat="54.948290" lon="-8.343120">
                <time>2019-06-14T10:08:36Z</time>
            </trkpt>
            <trkpt lat="54.948290" lon="-8.343330">
                <time>2019-06-14T10:08:37Z</time>
            </trkpt>
            <trkpt lat="54.948290" lon="-8.343540">
                <time>2019-06-14T10:08:38Z</time>
            </trkpt>
            <trkpt lat="54.948300" lon="-8.343760">
                <time>2019-06-14T10:08:39Z</time>
            </trkpt>
            <trkpt lat="54.948310" lon="-8.343990">
                <time>2019-06-14T10:08:40Z</time>
            </trkpt>
            <trkpt lat="54.948320" lon="-8.344240">
                <time>2019-06-14T10:08:41Z</time>
            </trkpt>
            <trkpt lat="54.948330" lon="-8.344500">
                <time>2019-06-14T10:08:42Z</time>
            </trkpt>
            <trkpt lat="54.948330" lon="-8.344760">
                <time>2019-06-14T10:08:43Z</time>
            </trkpt>
            <trkpt lat="54.948340" lon="-8.345000">
                <time>2019-06-14T10:08:44Z</time>
            </trkpt>
            <trkpt lat="54.948350" lon="-8.345230">
                <time>2019-06-14T10:08:45Z</time>
            </trkpt>
            <trkpt lat="54.948360" lon="-8.345460">
                <time>2019-06-14T10:08:46Z</time>
            </trkpt>
            <trkpt lat="54.948360" lon="-8.345690">
                <time>2019-06-14T10:08:47Z</time>
            </trkpt>
            <trkpt lat="54.948370" lon="-8.345930">
                <time>2019-06-14T10:08:48Z</time>
            </trkpt>
            <trkpt lat="54.948380" lon="-8.346160">
                <time>2019-06-14T10:08:49Z</time>
            </trkpt>
            <trkpt lat="54.948380" lon="-8.346390">
                <time>2019-06-14T10:08:50Z</time>
            </trkpt>
            <trkpt lat="54.948390" lon="-8.346620">
                <time>2019-06-14T10:08:51Z</time>
            </trkpt>
            <trkpt lat="54.948400" lon="-8.346870">
                <time>2019-06-14T10:08:52Z</time>
            </trkpt>
            <trkpt lat="54.948410" lon="-8.347110">
                <time>2019-06-14T10:08:53Z</time>
            </trkpt>
            <trkpt lat="54.948420" lon="-8.347340">
                <time>2019-06-14T10:08:54Z</time>
            </trkpt>
            <trkpt lat="54.948430" lon="-8.347570">
                <time>2019-06-14T10:08:55Z</time>
            </trkpt>
            <trkpt lat="54.948430" lon="-8.347780">
                <time>2019-06-14T10:08:56Z</time>
            </trkpt>
            <trkpt lat="54.948440" lon="-8.347970">
                <time>2019-06-14T10:08:57Z</time>
            </trkpt>
            <trkpt lat="54.948440" lon="-8.348160">
                <time>2019-06-14T10:08:58Z</time>
            </trkpt>
            <trkpt lat="54.948450" lon="-8.348360">
                <time>2019-06-14T10:08:59Z</time>
            </trkpt>
            <trkpt lat="54.948460" lon="-8.348550">
                <time>2019-06-14T10:09:00Z</time>
            </trkpt>
            <trkpt lat="54.948460" lon="-8.348740">
                <time>2019-06-14T10:09:01Z</time>
            </trkpt>
            <trkpt lat="54.948470" lon="-8.348900">
                <time>2019-06-14T10:09:02Z</time>
            </trkpt>
            <trkpt lat="54.948480" lon="-8.349060">
                <time>2019-06-14T10:09:03Z</time>
            </trkpt>
            <trkpt lat="54.948480" lon="-8.349210">
                <time>2019-06-14T10:09:04Z</time>
            </trkpt>
            <trkpt lat="54.948490" lon="-8.349360">
                <time>2019-06-14T10:09:05Z</time>
            </trkpt>
            <trkpt lat="54.948500" lon="-8.349510">
                <time>2019-06-14T10:09:06Z</time>
            </trkpt>
            <trkpt lat="54.948500" lon="-8.349640">
                <time>2019-06-14T10:09:07Z</time>
            </trkpt>
            <trkpt lat="54.948510" lon="-8.349750">
                <time>2019-06-14T10:09:08Z</time>
            </trkpt>
            <trkpt lat="54.948520" lon="-8.349850">
                <time>2019-06-14T10:09:09Z</time>
            </trkpt>
            <trkpt lat="54.948560" lon="-8.349930">
                <time>2019-06-14T10:09:10Z</time>
            </trkpt>
            <trkpt lat="54.948620" lon="-8.349960">
                <time>2019-06-14T10:09:11Z</time>
            </trkpt>
            <trkpt lat="54.948680" lon="-8.349970">
                <time>2019-06-14T10:09:12Z</time>
            </trkpt>
            <trkpt lat="54.948740" lon="-8.349980">
                <time>2019-06-14T10:09:13Z</time>
            </trkpt>
            <trkpt lat="54.948820" lon="-8.350020">
                <time>2019-06-14T10:09:14Z</time>
            </trkpt>
            <trkpt lat="54.948910" lon="-8.350060">
                <time>2019-06-14T10:09:15Z</time>
            </trkpt>
            <trkpt lat="54.949010" lon="-8.350080">
                <time>2019-06-14T10:09:16Z</time>
            </trkpt>
            <trkpt lat="54.949100" lon="-8.350080">
                <time>2019-06-14T10:09:17Z</time>
            </trkpt>
            <trkpt lat="54.949190" lon="-8.350070">
                <time>2019-06-14T10:09:18Z</time>
            </trkpt>
            <trkpt lat="54.949270" lon="-8.350050">
                <time>2019-06-14T10:09:19Z</time>
            </trkpt>
            <trkpt lat="54.949370" lon="-8.350040">
                <time>2019-06-14T10:09:20Z</time>
            </trkpt>
            <trkpt lat="54.949470" lon="-8.350010">
                <time>2019-06-14T10:09:21Z</time>
            </trkpt>
            <trkpt lat="54.949560" lon="-8.349980">
                <time>2019-06-14T10:09:22Z</time>
            </trkpt>
            <trkpt lat="54.949660" lon="-8.349950">
                <time>2019-06-14T10:09:23Z</time>
            </trkpt>
            <trkpt lat="54.949760" lon="-8.349920">
                <time>2019-06-14T10:09:24Z</time>
            </trkpt>
            <trkpt lat="54.949870" lon="-8.349900">
                <time>2019-06-14T10:09:25Z</time>
            </trkpt>
            <trkpt lat="54.949970" lon="-8.349890">
                <time>2019-06-14T10:09:26Z</time>
            </trkpt>
            <trkpt lat="54.950070" lon="-8.349880">
                <time>2019-06-14T10:09:27Z</time>
            </trkpt>
            <trkpt lat="54.950170" lon="-8.349870">
                <time>2019-06-14T10:09:28Z</time>
            </trkpt>
            <trkpt lat="54.950260" lon="-8.349870">
                <time>2019-06-14T10:09:29Z</time>
            </trkpt>
            <trkpt lat="54.950340" lon="-8.349870">
                <time>2019-06-14T10:09:30Z</time>
            </trkpt>
            <trkpt lat="54.950420" lon="-8.349880">
                <time>2019-06-14T10:09:31Z</time>
            </trkpt>
            <trkpt lat="54.950510" lon="-8.349900">
                <time>2019-06-14T10:09:32Z</time>
            </trkpt>
            <trkpt lat="54.950590" lon="-8.349940">
                <time>2019-06-14T10:09:33Z</time>
            </trkpt>
            <trkpt lat="54.950670" lon="-8.349980">
                <time>2019-06-14T10:09:34Z</time>
            </trkpt>
            <trkpt lat="54.950740" lon="-8.350010">
                <time>2019-06-14T10:09:35Z</time>
            </trkpt>
            <trkpt lat="54.950790" lon="-8.350060">
                <time>2019-06-14T10:09:36Z</time>
            </trkpt>
            <trkpt lat="54.950840" lon="-8.350130">
                <time>2019-06-14T10:09:37Z</time>
            </trkpt>
            <trkpt lat="54.950870" lon="-8.350220">
                <time>2019-06-14T10:09:38Z</time>
            </trkpt>
            <trkpt lat="54.950880" lon="-8.350360">
                <time>2019-06-14T10:09:39Z</time>
            </trkpt>
            <trkpt lat="54.950890" lon="-8.350540">
                <time>2019-06-14T10:09:40Z</time>
            </trkpt>
            <trkpt lat="54.950890" lon="-8.350730">
                <time>2019-06-14T10:09:41Z</time>
            </trkpt>
            <trkpt lat="54.950900" lon="-8.350930">
                <time>2019-06-14T10:09:42Z</time>
            </trkpt>
            <trkpt lat="54.950910" lon="-8.351150">
                <time>2019-06-14T10:09:43Z</time>
            </trkpt>
            <trkpt lat="54.950920" lon="-8.351360">
                <time>2019-06-14T10:09:44Z</time>
            </trkpt>
            <trkpt lat="54.950930" lon="-8.351550">
                <time>2019-06-14T10:09:45Z</time>
            </trkpt>
            <trkpt lat="54.950940" lon="-8.351730">
                <time>2019-06-14T10:09:46Z</time>
            </trkpt>
            <trkpt lat="54.950950" lon="-8.351900">
                <time>2019-06-14T10:09:47Z</time>
            </trkpt>
            <trkpt lat="54.950960" lon="-8.352060">
                <time>2019-06-14T10:09:48Z</time>
            </trkpt>
            <trkpt lat="54.950970" lon="-8.352200">
                <time>2019-06-14T10:09:49Z</time>
            </trkpt>
            <trkpt lat="54.950960" lon="-8.352300">
                <time>2019-06-14T10:09:50Z</time>
            </trkpt>
            <trkpt lat="54.950950" lon="-8.352390">
                <time>2019-06-14T10:09:51Z</time>
            </trkpt>
            <trkpt lat="54.950950" lon="-8.352450">
                <time>2019-06-14T10:09:52Z</time>
            </trkpt>
            <trkpt lat="54.950950" lon="-8.352500">
                <time>2019-06-14T10:09:53Z</time>
            </trkpt>
            <trkpt lat="54.950940" lon="-8.352550">
                <time>2019-06-14T10:09:54Z</time>
            </trkpt>
            <trkpt lat="54.950940" lon="-8.352620">
                <time>2019-06-14T10:09:55Z</time>
            </trkpt>
            <trkpt lat="54.950930" lon="-8.352690">
                <time>2019-06-14T10:09:56Z</time>
            </trkpt>
            <trkpt lat="54.950920" lon="-8.352790">
                <time>2019-06-14T10:09:57Z</time>
            </trkpt>
            <trkpt lat="54.950910" lon="-8.352910">
                <time>2019-06-14T10:09:58Z</time>
            </trkpt>
            <trkpt lat="54.950890" lon="-8.353010">
                <time>2019-06-14T10:09:59Z</time>
            </trkpt>
            <trkpt lat="54.950870" lon="-8.353120">
                <time>2019-06-14T10:10:00Z</time>
            </trkpt>
            <trkpt lat="54.950850" lon="-8.353260">
                <time>2019-06-14T10:10:01Z</time>
            </trkpt>
            <trkpt lat="54.950830" lon="-8.353420">
                <time>2019-06-14T10:10:02Z</time>
            </trkpt>
            <trkpt lat="54.950800" lon="-8.353590">
                <time>2019-06-14T10:10:03Z</time>
            </trkpt>
            <trkpt lat="54.950780" lon="-8.353750">
                <time>2019-06-14T10:10:04Z</time>
            </trkpt>
            <trkpt lat="54.950750" lon="-8.353940">
                <time>2019-06-14T10:10:05Z</time>
            </trkpt>
            <trkpt lat="54.950730" lon="-8.354130">
                <time>2019-06-14T10:10:06Z</time>
            </trkpt>
            <trkpt lat="54.950700" lon="-8.354320">
                <time>2019-06-14T10:10:07Z</time>
            </trkpt>
            <trkpt lat="54.950680" lon="-8.354510">
                <time>2019-06-14T10:10:08Z</time>
            </trkpt>
            <trkpt lat="54.950650" lon="-8.354700">
                <time>2019-06-14T10:10:09Z</time>
            </trkpt>
            <trkpt lat="54.950620" lon="-8.354890">
                <time>2019-06-14T10:10:10Z</time>
            </trkpt>
            <trkpt lat="54.950590" lon="-8.355070">
                <time>2019-06-14T10:10:11Z</time>
            </trkpt>
            <trkpt lat="54.950570" lon="-8.355240">
                <time>2019-06-14T10:10:12Z</time>
            </trkpt>
            <trkpt lat="54.950550" lon="-8.355400">
                <time>2019-06-14T10:10:13Z</time>
            </trkpt>
            <trkpt lat="54.950520" lon="-8.355590">
                <time>2019-06-14T10:10:14Z</time>
            </trkpt>
            <trkpt lat="54.950490" lon="-8.355800">
                <time>2019-06-14T10:10:15Z</time>
            </trkpt>
            <trkpt lat="54.950460" lon="-8.356020">
                <time>2019-06-14T10:10:16Z</time>
            </trkpt>
            <trkpt lat="54.950430" lon="-8.356220">
                <time>2019-06-14T10:10:17Z</time>
            </trkpt>
            <trkpt lat="54.950400" lon="-8.356400">
                <time>2019-06-14T10:10:18Z</time>
            </trkpt>
            <trkpt lat="54.950380" lon="-8.356560">
                <time>2019-06-14T10:10:19Z</time>
            </trkpt>
            <trkpt lat="54.950360" lon="-8.356720">
                <time>2019-06-14T10:10:20Z</time>
            </trkpt>
            <trkpt lat="54.950340" lon="-8.356890">
                <time>2019-06-14T10:10:21Z</time>
            </trkpt>
            <trkpt lat="54.950310" lon="-8.357060">
                <time>2019-06-14T10:10:22Z</time>
            </trkpt>
            <trkpt lat="54.950290" lon="-8.357220">
                <time>2019-06-14T10:10:23Z</time>
            </trkpt>
            <trkpt lat="54.950270" lon="-8.357370">
                <time>2019-06-14T10:10:24Z</time>
            </trkpt>
            <trkpt lat="54.950250" lon="-8.357490">
                <time>2019-06-14T10:10:25Z</time>
            </trkpt>
            <trkpt lat="54.950230" lon="-8.357600">
                <time>2019-06-14T10:10:26Z</time>
            </trkpt>
            <trkpt lat="54.950220" lon="-8.357680">
                <time>2019-06-14T10:10:27Z</time>
            </trkpt>
            <trkpt lat="54.950210" lon="-8.357740">
                <time>2019-06-14T10:10:28Z</time>
            </trkpt>
            <trkpt lat="54.950200" lon="-8.357810">
                <time>2019-06-14T10:10:29Z</time>
            </trkpt>
            <trkpt lat="54.950180" lon="-8.357870">
                <time>2019-06-14T10:10:30Z</time>
            </trkpt>
            <trkpt lat="54.950170" lon="-8.357940">
                <time>2019-06-14T10:10:31Z</time>
            </trkpt>
            <trkpt lat="54.950170" lon="-8.358010">
                <time>2019-06-14T10:10:32Z</time>
            </trkpt>
            <trkpt lat="54.950160" lon="-8.358090">
                <time>2019-06-14T10:10:33Z</time>
            </trkpt>
            <trkpt lat="54.950150" lon="-8.358180">
                <time>2019-06-14T10:10:34Z</time>
            </trkpt>
            <trkpt lat="54.950130" lon="-8.358280">
                <time>2019-06-14T10:10:35Z</time>
            </trkpt>
            <trkpt lat="54.950120" lon="-8.358370">
                <time>2019-06-14T10:10:36Z</time>
            </trkpt>
            <trkpt lat="54.950110" lon="-8.358440">
                <time>2019-06-14T10:10:37Z</time>
            </trkpt>
            <trkpt lat="54.950110" lon="-8.358510">
                <time>2019-06-14T10:10:38Z</time>
            </trkpt>
            <trkpt lat="54.950090" lon="-8.358590">
                <time>2019-06-14T10:10:39Z</time>
            </trkpt>
            <trkpt lat="54.950090" lon="-8.358660">
                <time>2019-06-14T10:10:40Z</time>
            </trkpt>
            <trkpt lat="54.950080" lon="-8.358740">
                <time>2019-06-14T10:10:41Z</time>
            </trkpt>
            <trkpt lat="54.950070" lon="-8.358830">
                <time>2019-06-14T10:10:42Z</time>
            </trkpt>
            <trkpt lat="54.950070" lon="-8.358930">
                <time>2019-06-14T10:10:43Z</time>
            </trkpt>
            <trkpt lat="54.950060" lon="-8.359040">
                <time>2019-06-14T10:10:44Z</time>
            </trkpt>
            <trkpt lat="54.950040" lon="-8.359160">
                <time>2019-06-14T10:10:45Z</time>
            </trkpt>
            <trkpt lat="54.950020" lon="-8.359280">
                <time>2019-06-14T10:10:46Z</time>
            </trkpt>
            <trkpt lat="54.950000" lon="-8.359380">
                <time>2019-06-14T10:10:47Z</time>
            </trkpt>
            <trkpt lat="54.949990" lon="-8.359480">
                <time>2019-06-14T10:10:48Z</time>
            </trkpt>
            <trkpt lat="54.949980" lon="-8.359580">
                <time>2019-06-14T10:10:49Z</time>
            </trkpt>
            <trkpt lat="54.949960" lon="-8.359680">
                <time>2019-06-14T10:10:50Z</time>
            </trkpt>
            <trkpt lat="54.949950" lon="-8.359780">
                <time>2019-06-14T10:10:51Z</time>
            </trkpt>
            <trkpt lat="54.949930" lon="-8.359870">
                <time>2019-06-14T10:10:52Z</time>
            </trkpt>
            <trkpt lat="54.949930" lon="-8.359940">
                <time>2019-06-14T10:10:53Z</time>
            </trkpt>
            <trkpt lat="54.949920" lon="-8.359990">
                <time>2019-06-14T10:10:54Z</time>
            </trkpt>
            <trkpt lat="54.949910" lon="-8.360030">
                <time>2019-06-14T10:10:55Z</time>
            </trkpt>
            <trkpt lat="54.949900" lon="-8.360050">
                <time>2019-06-14T10:10:56Z</time>
            </trkpt>
            <trkpt lat="54.949900" lon="-8.360050">
                <time>2019-06-14T10:10:57Z</time>
            </trkpt>
            <trkpt lat="54.949900" lon="-8.360050">
                <time>2019-06-14T10:10:58Z</time>
            </trkpt>
            <trkpt lat="54.949900" lon="-8.360060">
                <time>2019-06-14T10:10:59Z</time>
            </trkpt>
            <trkpt lat="54.949900" lon="-8.360060">
                <time>2019-06-14T10:11:00Z</time>
            </trkpt>
            <trkpt lat="54.949900" lon="-8.360090">
                <time>2019-06-14T10:11:01Z</time>
            </trkpt>
            <trkpt lat="54.949890" lon="-8.360150">
                <time>2019-06-14T10:11:02Z</time>
            </trkpt>
            <trkpt lat="54.949880" lon="-8.360220">
                <time>2019-06-14T10:11:03Z</time>
            </trkpt>
            <trkpt lat="54.949880" lon="-8.360270">
                <time>2019-06-14T10:11:04Z</time>
            </trkpt>
            <trkpt lat="54.949870" lon="-8.360320">
                <time>2019-06-14T10:11:05Z</time>
            </trkpt>
            <trkpt lat="54.949860" lon="-8.360360">
                <time>2019-06-14T10:11:06Z</time>
            </trkpt>
            <trkpt lat="54.949860" lon="-8.360390">
                <time>2019-06-14T10:11:07Z</time>
            </trkpt>
            <trkpt lat="54.949860" lon="-8.360420">
                <time>2019-06-14T10:11:08Z</time>
            </trkpt>
            <trkpt lat="54.949850" lon="-8.360450">
                <time>2019-06-14T10:11:09Z</time>
            </trkpt>
            <trkpt lat="54.949840" lon="-8.360490">
                <time>2019-06-14T10:11:10Z</time>
            </trkpt>
            <trkpt lat="54.949820" lon="-8.360530">
                <time>2019-06-14T10:11:11Z</time>
            </trkpt>
            <trkpt lat="54.949780" lon="-8.360550">
                <time>2019-06-14T10:11:12Z</time>
            </trkpt>
            <trkpt lat="54.949750" lon="-8.360550">
                <time>2019-06-14T10:11:13Z</time>
            </trkpt>
            <trkpt lat="54.949740" lon="-8.360540">
                <time>2019-06-14T10:11:14Z</time>
            </trkpt>
            <trkpt lat="54.949740" lon="-8.360540">
                <time>2019-06-14T10:11:15Z</time>
            </trkpt>
            <trkpt lat="54.949740" lon="-8.360520">
                <time>2019-06-14T10:11:16Z</time>
            </trkpt>
            <trkpt lat="54.949740" lon="-8.360510">
                <time>2019-06-14T10:11:17Z</time>
            </trkpt>
            <trkpt lat="54.949740" lon="-8.360510">
                <time>2019-06-14T10:11:18Z</time>
            </trkpt>
            <trkpt lat="54.949740" lon="-8.360510">
                <time>2019-06-14T10:11:19Z</time>
            </trkpt>
            <trkpt lat="54.949740" lon="-8.360510">
                <time>2019-06-14T10:11:20Z</time>
            </trkpt>
            <trkpt lat="54.949740" lon="-8.360510">
                <time>2019-06-14T10:11:21Z</time>
            </trkpt>
            <trkpt lat="54.949740" lon="-8.360510">
                <time>2019-06-14T10:11:22Z</time>
            </trkpt>
            <trkpt lat="54.949740" lon="-8.360510">
                <time>2019-06-14T10:11:23Z</time>
            </trkpt>
            <trkpt lat="54.949720" lon="-8.360500">
                <time>2019-06-14T10:11:24Z</time>
            </trkpt>
            <trkpt lat="54.949700" lon="-8.360490">
                <time>2019-06-14T10:11:25Z</time>
            </trkpt>
            <trkpt lat="54.949670" lon="-8.360470">
                <time>2019-06-14T10:11:26Z</time>
            </trkpt>
            <trkpt lat="54.949650" lon="-8.360460">
                <time>2019-06-14T10:11:27Z</time>
            </trkpt>
            <trkpt lat="54.949620" lon="-8.360440">
                <time>2019-06-14T10:11:28Z</time>
            </trkpt>
            <trkpt lat="54.949580" lon="-8.360420">
                <time>2019-06-14T10:11:29Z</time>
            </trkpt>
            <trkpt lat="54.949540" lon="-8.360400">
                <time>2019-06-14T10:11:30Z</time>
            </trkpt>
            <trkpt lat="54.949510" lon="-8.360390">
                <time>2019-06-14T10:11:31Z</time>
            </trkpt>
            <trkpt lat="54.949480" lon="-8.360380">
                <time>2019-06-14T10:11:32Z</time>
            </trkpt>
            <trkpt lat="54.949460" lon="-8.360370">
                <time>2019-06-14T10:11:33Z</time>
            </trkpt>
            <trkpt lat="54.949440" lon="-8.360360">
                <time>2019-06-14T10:11:34Z</time>
            </trkpt>
            <trkpt lat="54.949430" lon="-8.360350">
                <time>2019-06-14T10:11:35Z</time>
            </trkpt>
            <trkpt lat="54.949410" lon="-8.360340">
                <time>2019-06-14T10:11:36Z</time>
            </trkpt>
            <trkpt lat="54.949400" lon="-8.360320">
                <time>2019-06-14T10:11:37Z</time>
            </trkpt>
            <trkpt lat="54.949390" lon="-8.360320">
                <time>2019-06-14T10:11:38Z</time>
            </trkpt>
            <trkpt lat="54.949390" lon="-8.360310">
                <time>2019-06-14T10:11:39Z</time>
            </trkpt>
            <trkpt lat="54.949370" lon="-8.360310">
                <time>2019-06-14T10:11:40Z</time>
            </trkpt>
            <trkpt lat="54.949340" lon="-8.360290">
                <time>2019-06-14T10:11:41Z</time>
            </trkpt>
            <trkpt lat="54.949290" lon="-8.360280">
                <time>2019-06-14T10:11:42Z</time>
            </trkpt>
            <trkpt lat="54.949250" lon="-8.360260">
                <time>2019-06-14T10:11:43Z</time>
            </trkpt>
            <trkpt lat="54.949230" lon="-8.360250">
                <time>2019-06-14T10:11:44Z</time>
            </trkpt>
            <trkpt lat="54.949200" lon="-8.360240">
                <time>2019-06-14T10:11:45Z</time>
            </trkpt>
            <trkpt lat="54.949170" lon="-8.360230">
                <time>2019-06-14T10:11:46Z</time>
            </trkpt>
            <trkpt lat="54.949140" lon="-8.360220">
                <time>2019-06-14T10:11:47Z</time>
            </trkpt>
            <trkpt lat="54.949110" lon="-8.360210">
                <time>2019-06-14T10:11:48Z</time>
            </trkpt>
            <trkpt lat="54.949060" lon="-8.360200">
                <time>2019-06-14T10:11:49Z</time>
            </trkpt>
            <trkpt lat="54.949020" lon="-8.360180">
                <time>2019-06-14T10:11:50Z</time>
            </trkpt>
            <trkpt lat="54.948980" lon="-8.360170">
                <time>2019-06-14T10:11:51Z</time>
            </trkpt>
            <trkpt lat="54.948940" lon="-8.360150">
                <time>2019-06-14T10:11:52Z</time>
            </trkpt>
            <trkpt lat="54.948910" lon="-8.360130">
                <time>2019-06-14T10:11:53Z</time>
            </trkpt>
            <trkpt lat="54.948880" lon="-8.360110">
                <time>2019-06-14T10:11:54Z</time>
            </trkpt>
            <trkpt lat="54.948850" lon="-8.360090">
                <time>2019-06-14T10:11:55Z</time>
            </trkpt>
            <trkpt lat="54.948810" lon="-8.360060">
                <time>2019-06-14T10:11:56Z</time>
            </trkpt>
            <trkpt lat="54.948770" lon="-8.360050">
                <time>2019-06-14T10:11:57Z</time>
            </trkpt>
            <trkpt lat="54.948740" lon="-8.360030">
                <time>2019-06-14T10:11:58Z</time>
            </trkpt>
            <trkpt lat="54.948710" lon="-8.360020">
                <time>2019-06-14T10:11:59Z</time>
            </trkpt>
            <trkpt lat="54.948680" lon="-8.360010">
                <time>2019-06-14T10:12:00Z</time>
            </trkpt>
            <trkpt lat="54.948640" lon="-8.359990">
                <time>2019-06-14T10:12:01Z</time>
            </trkpt>
            <trkpt lat="54.948600" lon="-8.359960">
                <time>2019-06-14T10:12:02Z</time>
            </trkpt>
            <trkpt lat="54.948560" lon="-8.359940">
                <time>2019-06-14T10:12:03Z</time>
            </trkpt>
            <trkpt lat="54.948520" lon="-8.359920">
                <time>2019-06-14T10:12:04Z</time>
            </trkpt>
            <trkpt lat="54.948480" lon="-8.359910">
                <time>2019-06-14T10:12:05Z</time>
            </trkpt>
            <trkpt lat="54.948440" lon="-8.359890">
                <time>2019-06-14T10:12:06Z</time>
            </trkpt>
            <trkpt lat="54.948400" lon="-8.359870">
                <time>2019-06-14T10:12:07Z</time>
            </trkpt>
            <trkpt lat="54.948360" lon="-8.359850">
                <time>2019-06-14T10:12:08Z</time>
            </trkpt>
            <trkpt lat="54.948310" lon="-8.359850">
                <time>2019-06-14T10:12:09Z</time>
            </trkpt>
            <trkpt lat="54.948250" lon="-8.359810">
                <time>2019-06-14T10:12:10Z</time>
            </trkpt>
            <trkpt lat="54.948180" lon="-8.359790">
                <time>2019-06-14T10:12:11Z</time>
            </trkpt>
            <trkpt lat="54.948110" lon="-8.359750">
                <time>2019-06-14T10:12:12Z</time>
            </trkpt>
            <trkpt lat="54.948050" lon="-8.359740">
                <time>2019-06-14T10:12:13Z</time>
            </trkpt>
            <trkpt lat="54.948010" lon="-8.359720">
                <time>2019-06-14T10:12:14Z</time>
            </trkpt>
            <trkpt lat="54.947980" lon="-8.359700">
                <time>2019-06-14T10:12:15Z</time>
            </trkpt>
            <trkpt lat="54.947940" lon="-8.359670">
                <time>2019-06-14T10:12:16Z</time>
            </trkpt>
            <trkpt lat="54.947920" lon="-8.359590">
                <time>2019-06-14T10:12:17Z</time>
            </trkpt>
            <trkpt lat="54.947930" lon="-8.359500">
                <time>2019-06-14T10:12:18Z</time>
            </trkpt>
            <trkpt lat="54.947930" lon="-8.359400">
                <time>2019-06-14T10:12:19Z</time>
            </trkpt>
            <trkpt lat="54.947940" lon="-8.359310">
                <time>2019-06-14T10:12:20Z</time>
            </trkpt>
            <trkpt lat="54.947950" lon="-8.359230">
                <time>2019-06-14T10:12:21Z</time>
            </trkpt>
            <trkpt lat="54.947960" lon="-8.359180">
                <time>2019-06-14T10:12:22Z</time>
            </trkpt>
            <trkpt lat="54.947960" lon="-8.359140">
                <time>2019-06-14T10:12:23Z</time>
            </trkpt>
            <trkpt lat="54.947970" lon="-8.359120">
                <time>2019-06-14T10:12:24Z</time>
            </trkpt>
            <trkpt lat="54.947970" lon="-8.359100">
                <time>2019-06-14T10:12:25Z</time>
            </trkpt>
            <trkpt lat="54.947970" lon="-8.359090">
                <time>2019-06-14T10:12:26Z</time>
            </trkpt>
            <trkpt lat="54.947970" lon="-8.359090">
                <time>2019-06-14T10:12:27Z</time>
            </trkpt>
            <trkpt lat="54.947970" lon="-8.359100">
                <time>2019-06-14T10:12:28Z</time>
            </trkpt>
            <trkpt lat="54.947970" lon="-8.359100">
                <time>2019-06-14T10:12:29Z</time>
            </trkpt>
            <trkpt lat="54.947970" lon="-8.359100">
                <time>2019-06-14T10:12:30Z</time>
            </trkpt>
            <trkpt lat="54.947980" lon="-8.359100">
                <time>2019-06-14T10:12:31Z</time>
            </trkpt>
            <trkpt lat="54.947980" lon="-8.359100">
                <time>2019-06-14T10:12:32Z</time>
            </trkpt>
            <trkpt lat="54.947980" lon="-8.359100">
                <time>2019-06-14T10:12:33Z</time>
            </trkpt>
            <trkpt lat="54.947980" lon="-8.359100">
                <time>2019-06-14T10:12:34Z</time>
            </trkpt>
            <trkpt lat="54.947980" lon="-8.359110">
                <time>2019-06-14T10:12:35Z</time>
            </trkpt>
            <trkpt lat="54.947980" lon="-8.359110">
                <time>2019-06-14T10:12:36Z</time>
            </trkpt>
            <trkpt lat="54.947980" lon="-8.359110">
                <time>2019-06-14T10:12:37Z</time>
            </trkpt>
            <trkpt lat="54.947980" lon="-8.359110">
                <time>2019-06-14T10:12:38Z</time>
            </trkpt>
            <trkpt lat="54.947980" lon="-8.359100">
                <time>2019-06-14T10:12:39Z</time>
            </trkpt>
            <trkpt lat="54.947990" lon="-8.359050">
                <time>2019-06-14T10:12:40Z</time>
            </trkpt>
            <trkpt lat="54.947990" lon="-8.358980">
                <time>2019-06-14T10:12:41Z</time>
            </trkpt>
            <trkpt lat="54.948000" lon="-8.358900">
                <time>2019-06-14T10:12:42Z</time>
            </trkpt>
            <trkpt lat="54.948010" lon="-8.358810">
                <time>2019-06-14T10:12:43Z</time>
            </trkpt>
            <trkpt lat="54.948020" lon="-8.358720">
                <time>2019-06-14T10:12:44Z</time>
            </trkpt>
            <trkpt lat="54.948030" lon="-8.358630">
                <time>2019-06-14T10:12:45Z</time>
            </trkpt>
            <trkpt lat="54.948050" lon="-8.358540">
                <time>2019-06-14T10:12:46Z</time>
            </trkpt>
            <trkpt lat="54.948060" lon="-8.358470">
                <time>2019-06-14T10:12:47Z</time>
            </trkpt>
            <trkpt lat="54.948070" lon="-8.358390">
                <time>2019-06-14T10:12:48Z</time>
            </trkpt>
            <trkpt lat="54.948070" lon="-8.358320">
                <time>2019-06-14T10:12:49Z</time>
            </trkpt>
            <trkpt lat="54.948080" lon="-8.358260">
                <time>2019-06-14T10:12:50Z</time>
            </trkpt>
            <trkpt lat="54.948080" lon="-8.358210">
                <time>2019-06-14T10:12:51Z</time>
            </trkpt>
            <trkpt lat="54.948090" lon="-8.358160">
                <time>2019-06-14T10:12:52Z</time>
            </trkpt>
            <trkpt lat="54.948100" lon="-8.358110">
                <time>2019-06-14T10:12:53Z</time>
            </trkpt>
            <trkpt lat="54.948100" lon="-8.358070">
                <time>2019-06-14T10:12:54Z</time>
            </trkpt>
            <trkpt lat="54.948110" lon="-8.358030">
                <time>2019-06-14T10:12:55Z</time>
            </trkpt>
            <trkpt lat="54.948130" lon="-8.357990">
                <time>2019-06-14T10:12:56Z</time>
            </trkpt>
            <trkpt lat="54.948170" lon="-8.357970">
                <time>2019-06-14T10:12:57Z</time>
            </trkpt>
            <trkpt lat="54.948210" lon="-8.357980">
                <time>2019-06-14T10:12:58Z</time>
            </trkpt>
            <trkpt lat="54.948250" lon="-8.357990">
                <time>2019-06-14T10:12:59Z</time>
            </trkpt>
            <trkpt lat="54.948280" lon="-8.358010">
                <time>2019-06-14T10:13:00Z</time>
            </trkpt>
            <trkpt lat="54.948330" lon="-8.358030">
                <time>2019-06-14T10:13:01Z</time>
            </trkpt>
            <trkpt lat="54.948370" lon="-8.358050">
                <time>2019-06-14T10:13:02Z</time>
            </trkpt>
            <trkpt lat="54.948410" lon="-8.358070">
                <time>2019-06-14T10:13:03Z</time>
            </trkpt>
            <trkpt lat="54.948450" lon="-8.358090">
                <time>2019-06-14T10:13:04Z</time>
            </trkpt>
            <trkpt lat="54.948500" lon="-8.358110">
                <time>2019-06-14T10:13:05Z</time>
            </trkpt>
            <trkpt lat="54.948540" lon="-8.358130">
                <time>2019-06-14T10:13:06Z</time>
            </trkpt>
            <trkpt lat="54.948570" lon="-8.358160">
                <time>2019-06-14T10:13:07Z</time>
            </trkpt>
            <trkpt lat="54.948600" lon="-8.358210">
                <time>2019-06-14T10:13:08Z</time>
            </trkpt>
            <trkpt lat="54.948620" lon="-8.358280">
                <time>2019-06-14T10:13:09Z</time>
            </trkpt>
            <trkpt lat="54.948620" lon="-8.358360">
                <time>2019-06-14T10:13:10Z</time>
            </trkpt>
            <trkpt lat="54.948610" lon="-8.358440">
                <time>2019-06-14T10:13:11Z</time>
            </trkpt>
            <trkpt lat="54.948590" lon="-8.358510">
                <time>2019-06-14T10:13:12Z</time>
            </trkpt>
            <trkpt lat="54.948590" lon="-8.358570">
                <time>2019-06-14T10:13:13Z</time>
            </trkpt>
            <trkpt lat="54.948590" lon="-8.358640">
                <time>2019-06-14T10:13:14Z</time>
            </trkpt>
            <trkpt lat="54.948610" lon="-8.358690">
                <time>2019-06-14T10:13:15Z</time>
            </trkpt>
            <trkpt lat="54.948650" lon="-8.358720">
                <time>2019-06-14T10:13:16Z</time>
            </trkpt>
            <trkpt lat="54.948690" lon="-8.358720">
                <time>2019-06-14T10:13:17Z</time>
            </trkpt>
            <trkpt lat="54.948730" lon="-8.358720">
                <time>2019-06-14T10:13:18Z</time>
            </trkpt>
            <trkpt lat="54.948770" lon="-8.358720">
                <time>2019-06-14T10:13:19Z</time>
            </trkpt>
            <trkpt lat="54.948800" lon="-8.358720">
                <time>2019-06-14T10:13:20Z</time>
            </trkpt>
            <trkpt lat="54.948840" lon="-8.358720">
                <time>2019-06-14T10:13:21Z</time>
            </trkpt>
            <trkpt lat="54.948870" lon="-8.358730">
                <time>2019-06-14T10:13:22Z</time>
            </trkpt>
            <trkpt lat="54.948910" lon="-8.358740">
                <time>2019-06-14T10:13:23Z</time>
            </trkpt>
            <trkpt lat="54.948950" lon="-8.358750">
                <time>2019-06-14T10:13:24Z</time>
            </trkpt>
            <trkpt lat="54.948980" lon="-8.358770">
                <time>2019-06-14T10:13:25Z</time>
            </trkpt>
            <trkpt lat="54.949020" lon="-8.358790">
                <time>2019-06-14T10:13:26Z</time>
            </trkpt>
            <trkpt lat="54.949070" lon="-8.358820">
                <time>2019-06-14T10:13:27Z</time>
            </trkpt>
            <trkpt lat="54.949130" lon="-8.358860">
                <time>2019-06-14T10:13:28Z</time>
            </trkpt>
            <trkpt lat="54.949190" lon="-8.358890">
                <time>2019-06-14T10:13:29Z</time>
            </trkpt>
            <trkpt lat="54.949240" lon="-8.358920">
                <time>2019-06-14T10:13:30Z</time>
            </trkpt>
            <trkpt lat="54.949280" lon="-8.358940">
                <time>2019-06-14T10:13:31Z</time>
            </trkpt>
            <trkpt lat="54.949330" lon="-8.358950">
                <time>2019-06-14T10:13:32Z</time>
            </trkpt>
            <trkpt lat="54.949370" lon="-8.358910">
                <time>2019-06-14T10:13:33Z</time>
            </trkpt>
            <trkpt lat="54.949380" lon="-8.358850">
                <time>2019-06-14T10:13:34Z</time>
            </trkpt>
            <trkpt lat="54.949380" lon="-8.358770">
                <time>2019-06-14T10:13:35Z</time>
            </trkpt>
            <trkpt lat="54.949360" lon="-8.358710">
                <time>2019-06-14T10:13:36Z</time>
            </trkpt>
            <trkpt lat="54.949320" lon="-8.358670">
                <time>2019-06-14T10:13:37Z</time>
            </trkpt>
            <trkpt lat="54.949280" lon="-8.358650">
                <time>2019-06-14T10:13:38Z</time>
            </trkpt>
            <trkpt lat="54.949240" lon="-8.358630">
                <time>2019-06-14T10:13:39Z</time>
            </trkpt>
            <trkpt lat="54.949200" lon="-8.358610">
                <time>2019-06-14T10:13:40Z</time>
            </trkpt>
            <trkpt lat="54.949170" lon="-8.358610">
                <time>2019-06-14T10:13:41Z</time>
            </trkpt>
            <trkpt lat="54.949130" lon="-8.358600">
                <time>2019-06-14T10:13:42Z</time>
            </trkpt>
            <trkpt lat="54.949090" lon="-8.358600">
                <time>2019-06-14T10:13:43Z</time>
            </trkpt>
            <trkpt lat="54.949050" lon="-8.358590">
                <time>2019-06-14T10:13:44Z</time>
            </trkpt>
            <trkpt lat="54.949020" lon="-8.358570">
                <time>2019-06-14T10:13:45Z</time>
            </trkpt>
            <trkpt lat="54.948990" lon="-8.358560">
                <time>2019-06-14T10:13:46Z</time>
            </trkpt>
            <trkpt lat="54.948950" lon="-8.358540">
                <time>2019-06-14T10:13:47Z</time>
            </trkpt>
            <trkpt lat="54.948920" lon="-8.358530">
                <time>2019-06-14T10:13:48Z</time>
            </trkpt>
            <trkpt lat="54.948900" lon="-8.358520">
                <time>2019-06-14T10:13:49Z</time>
            </trkpt>
            <trkpt lat="54.948880" lon="-8.358510">
                <time>2019-06-14T10:13:50Z</time>
            </trkpt>
            <trkpt lat="54.948860" lon="-8.358490">
                <time>2019-06-14T10:13:51Z</time>
            </trkpt>
            <trkpt lat="54.948840" lon="-8.358470">
                <time>2019-06-14T10:13:52Z</time>
            </trkpt>
            <trkpt lat="54.948830" lon="-8.358430">
                <time>2019-06-14T10:13:53Z</time>
            </trkpt>
            <trkpt lat="54.948830" lon="-8.358400">
                <time>2019-06-14T10:13:54Z</time>
            </trkpt>
            <trkpt lat="54.948830" lon="-8.358380">
                <time>2019-06-14T10:13:55Z</time>
            </trkpt>
            <trkpt lat="54.948840" lon="-8.358370">
                <time>2019-06-14T10:13:56Z</time>
            </trkpt>
            <trkpt lat="54.948840" lon="-8.358360">
                <time>2019-06-14T10:13:57Z</time>
            </trkpt>
            <trkpt lat="54.948850" lon="-8.358360">
                <time>2019-06-14T10:13:58Z</time>
            </trkpt>
            <trkpt lat="54.948850" lon="-8.358360">
                <time>2019-06-14T10:13:59Z</time>
            </trkpt>
            <trkpt lat="54.948860" lon="-8.358360">
                <time>2019-06-14T10:14:00Z</time>
            </trkpt>
            <trkpt lat="54.948860" lon="-8.358350">
                <time>2019-06-14T10:14:01Z</time>
            </trkpt>
            <trkpt lat="54.948860" lon="-8.358350">
                <time>2019-06-14T10:14:02Z</time>
            </trkpt>
            <trkpt lat="54.948860" lon="-8.358350">
                <time>2019-06-14T10:14:03Z</time>
            </trkpt>
            <trkpt lat="54.948860" lon="-8.358350">
                <time>2019-06-14T10:14:04Z</time>
            </trkpt>
            <trkpt lat="54.948860" lon="-8.358350">
                <time>2019-06-14T10:14:05Z</time>
            </trkpt>
            <trkpt lat="54.948860" lon="-8.358350">
                <time>2019-06-14T10:14:06Z</time>
            </trkpt>
            <trkpt lat="54.948860" lon="-8.358350">
                <time>2019-06-14T10:14:07Z</time>
            </trkpt>
            <trkpt lat="54.948860" lon="-8.358350">
                <time>2019-06-14T10:14:08Z</time>
            </trkpt>
            <trkpt lat="54.948860" lon="-8.358350">
                <time>2019-06-14T10:14:09Z</time>
            </trkpt>
            <trkpt lat="54.948860" lon="-8.358350">
                <time>2019-06-14T10:14:10Z</time>
            </trkpt>
            <trkpt lat="54.948860" lon="-8.358350">
                <time>2019-06-14T10:14:11Z</time>
            </trkpt>
            <trkpt lat="54.948860" lon="-8.358350">
                <time>2019-06-14T10:14:12Z</time>
            </trkpt>
            <trkpt lat="54.948860" lon="-8.358350">
                <time>2019-06-14T10:14:13Z</time>
            </trkpt>
            <trkpt lat="54.948860" lon="-8.358350">
                <time>2019-06-14T10:14:14Z</time>
            </trkpt>
            <trkpt lat="54.948860" lon="-8.358350">
                <time>2019-06-14T10:14:15Z</time>
            </trkpt>
            <trkpt lat="54.948860" lon="-8.358350">
                <time>2019-06-14T10:14:16Z</time>
            </trkpt>
            <trkpt lat="54.948860" lon="-8.358350">
                <time>2019-06-14T10:14:17Z</time>
            </trkpt>
            <trkpt lat="54.948860" lon="-8.358350">
                <time>2019-06-14T10:14:18Z</time>
            </trkpt>
            <trkpt lat="54.948860" lon="-8.358350">
                <time>2019-06-14T10:14:19Z</time>
            </trkpt>
            <trkpt lat="54.948860" lon="-8.358350">
                <time>2019-06-14T10:14:20Z</time>
            </trkpt>
            <trkpt lat="54.948850" lon="-8.358300">
                <time>2019-06-14T10:48:49Z</time>
            </trkpt>
            <trkpt lat="54.948850" lon="-8.358310">
                <time>2019-06-14T10:48:51Z</time>
            </trkpt>
            <trkpt lat="54.948850" lon="-8.358330">
                <time>2019-06-14T10:48:52Z</time>
            </trkpt>
            <trkpt lat="54.948850" lon="-8.358350">
                <time>2019-06-14T10:48:53Z</time>
            </trkpt>
            <trkpt lat="54.948850" lon="-8.358360">
                <time>2019-06-14T10:48:54Z</time>
            </trkpt>
            <trkpt lat="54.948840" lon="-8.358400">
                <time>2019-06-14T10:48:55Z</time>
            </trkpt>
            <trkpt lat="54.948840" lon="-8.358420">
                <time>2019-06-14T10:48:56Z</time>
            </trkpt>
            <trkpt lat="54.948840" lon="-8.358420">
                <time>2019-06-14T10:48:57Z</time>
            </trkpt>
            <trkpt lat="54.948850" lon="-8.358420">
                <time>2019-06-14T10:48:58Z</time>
            </trkpt>
            <trkpt lat="54.948850" lon="-8.358430">
                <time>2019-06-14T10:48:59Z</time>
            </trkpt>
            <trkpt lat="54.948850" lon="-8.358440">
                <time>2019-06-14T10:49:00Z</time>
            </trkpt>
            <trkpt lat="54.948860" lon="-8.358450">
                <time>2019-06-14T10:49:01Z</time>
            </trkpt>
            <trkpt lat="54.948860" lon="-8.358460">
                <time>2019-06-14T10:49:02Z</time>
            </trkpt>
            <trkpt lat="54.948860" lon="-8.358460">
                <time>2019-06-14T10:49:03Z</time>
            </trkpt>
            <trkpt lat="54.948870" lon="-8.358460">
                <time>2019-06-14T10:49:04Z</time>
            </trkpt>
            <trkpt lat="54.948870" lon="-8.358450">
                <time>2019-06-14T10:49:05Z</time>
            </trkpt>
            <trkpt lat="54.948870" lon="-8.358450">
                <time>2019-06-14T10:49:06Z</time>
            </trkpt>
            <trkpt lat="54.948870" lon="-8.358460">
                <time>2019-06-14T10:49:07Z</time>
            </trkpt>
            <trkpt lat="54.948870" lon="-8.358450">
                <time>2019-06-14T10:49:08Z</time>
            </trkpt>
            <trkpt lat="54.948870" lon="-8.358460">
                <time>2019-06-14T10:49:09Z</time>
            </trkpt>
            <trkpt lat="54.948870" lon="-8.358460">
                <time>2019-06-14T10:49:10Z</time>
            </trkpt>
            <trkpt lat="54.948870" lon="-8.358460">
                <time>2019-06-14T10:49:11Z</time>
            </trkpt>
            <trkpt lat="54.948870" lon="-8.358460">
                <time>2019-06-14T10:49:12Z</time>
            </trkpt>
            <trkpt lat="54.948870" lon="-8.358460">
                <time>2019-06-14T10:49:13Z</time>
            </trkpt>
            <trkpt lat="54.948870" lon="-8.358460">
                <time>2019-06-14T10:49:14Z</time>
            </trkpt>
            <trkpt lat="54.948870" lon="-8.358460">
                <time>2019-06-14T10:49:15Z</time>
            </trkpt>
            <trkpt lat="54.948870" lon="-8.358460">
                <time>2019-06-14T10:49:16Z</time>
            </trkpt>
            <trkpt lat="54.948870" lon="-8.358460">
                <time>2019-06-14T10:49:17Z</time>
            </trkpt>
            <trkpt lat="54.948870" lon="-8.358460">
                <time>2019-06-14T10:49:18Z</time>
            </trkpt>
            <trkpt lat="54.948880" lon="-8.358460">
                <time>2019-06-14T10:49:19Z</time>
            </trkpt>
            <trkpt lat="54.948880" lon="-8.358460">
                <time>2019-06-14T10:49:20Z</time>
            </trkpt>
            <trkpt lat="54.948890" lon="-8.358460">
                <time>2019-06-14T10:49:21Z</time>
            </trkpt>
            <trkpt lat="54.948890" lon="-8.358460">
                <time>2019-06-14T10:49:22Z</time>
            </trkpt>
            <trkpt lat="54.948890" lon="-8.358460">
                <time>2019-06-14T10:49:23Z</time>
            </trkpt>
            <trkpt lat="54.948890" lon="-8.358460">
                <time>2019-06-14T10:49:24Z</time>
            </trkpt>
            <trkpt lat="54.948890" lon="-8.358460">
                <time>2019-06-14T10:49:25Z</time>
            </trkpt>
            <trkpt lat="54.948900" lon="-8.358460">
                <time>2019-06-14T10:49:26Z</time>
            </trkpt>
            <trkpt lat="54.948900" lon="-8.358460">
                <time>2019-06-14T10:49:27Z</time>
            </trkpt>
            <trkpt lat="54.948900" lon="-8.358450">
                <time>2019-06-14T10:49:28Z</time>
            </trkpt>
            <trkpt lat="54.948900" lon="-8.358450">
                <time>2019-06-14T10:49:29Z</time>
            </trkpt>
            <trkpt lat="54.948900" lon="-8.358450">
                <time>2019-06-14T10:49:30Z</time>
            </trkpt>
            <trkpt lat="54.948900" lon="-8.358450">
                <time>2019-06-14T10:49:31Z</time>
            </trkpt>
            <trkpt lat="54.948910" lon="-8.358450">
                <time>2019-06-14T10:49:32Z</time>
            </trkpt>
            <trkpt lat="54.948910" lon="-8.358450">
                <time>2019-06-14T10:49:33Z</time>
            </trkpt>
            <trkpt lat="54.948910" lon="-8.358450">
                <time>2019-06-14T10:49:34Z</time>
            </trkpt>
            <trkpt lat="54.948910" lon="-8.358450">
                <time>2019-06-14T10:49:35Z</time>
            </trkpt>
            <trkpt lat="54.948910" lon="-8.358450">
                <time>2019-06-14T10:49:36Z</time>
            </trkpt>
            <trkpt lat="54.948910" lon="-8.358450">
                <time>2019-06-14T10:49:37Z</time>
            </trkpt>
            <trkpt lat="54.948910" lon="-8.358450">
                <time>2019-06-14T10:49:38Z</time>
            </trkpt>
            <trkpt lat="54.948910" lon="-8.358450">
                <time>2019-06-14T10:49:39Z</time>
            </trkpt>
            <trkpt lat="54.948910" lon="-8.358450">
                <time>2019-06-14T10:49:40Z</time>
            </trkpt>
            <trkpt lat="54.948910" lon="-8.358450">
                <time>2019-06-14T10:49:41Z</time>
            </trkpt>
            <trkpt lat="54.948910" lon="-8.358450">
                <time>2019-06-14T10:49:42Z</time>
            </trkpt>
            <trkpt lat="54.948900" lon="-8.358440">
                <time>2019-06-14T10:49:43Z</time>
            </trkpt>
            <trkpt lat="54.948900" lon="-8.358440">
                <time>2019-06-14T10:49:44Z</time>
            </trkpt>
            <trkpt lat="54.948890" lon="-8.358430">
                <time>2019-06-14T10:49:45Z</time>
            </trkpt>
            <trkpt lat="54.948890" lon="-8.358420">
                <time>2019-06-14T10:49:46Z</time>
            </trkpt>
            <trkpt lat="54.948890" lon="-8.358420">
                <time>2019-06-14T10:49:47Z</time>
            </trkpt>
            <trkpt lat="54.948890" lon="-8.358410">
                <time>2019-06-14T10:49:48Z</time>
            </trkpt>
            <trkpt lat="54.948880" lon="-8.358410">
                <time>2019-06-14T10:49:49Z</time>
            </trkpt>
            <trkpt lat="54.948860" lon="-8.358410">
                <time>2019-06-14T10:49:50Z</time>
            </trkpt>
            <trkpt lat="54.948830" lon="-8.358400">
                <time>2019-06-14T10:49:51Z</time>
            </trkpt>
            <trkpt lat="54.948800" lon="-8.358390">
                <time>2019-06-14T10:49:52Z</time>
            </trkpt>
            <trkpt lat="54.948770" lon="-8.358380">
                <time>2019-06-14T10:49:53Z</time>
            </trkpt>
            <trkpt lat="54.948730" lon="-8.358360">
                <time>2019-06-14T10:49:54Z</time>
            </trkpt>
            <trkpt lat="54.948690" lon="-8.358340">
                <time>2019-06-14T10:49:55Z</time>
            </trkpt>
            <trkpt lat="54.948660" lon="-8.358300">
                <time>2019-06-14T10:49:56Z</time>
            </trkpt>
            <trkpt lat="54.948630" lon="-8.358240">
                <time>2019-06-14T10:49:57Z</time>
            </trkpt>
            <trkpt lat="54.948590" lon="-8.358150">
                <time>2019-06-14T10:49:58Z</time>
            </trkpt>
            <trkpt lat="54.948550" lon="-8.358100">
                <time>2019-06-14T10:49:59Z</time>
            </trkpt>
            <trkpt lat="54.948510" lon="-8.358080">
                <time>2019-06-14T10:50:00Z</time>
            </trkpt>
            <trkpt lat="54.948490" lon="-8.358060">
                <time>2019-06-14T10:50:01Z</time>
            </trkpt>
            <trkpt lat="54.948470" lon="-8.358040">
                <time>2019-06-14T10:50:02Z</time>
            </trkpt>
            <trkpt lat="54.948440" lon="-8.358030">
                <time>2019-06-14T10:50:03Z</time>
            </trkpt>
            <trkpt lat="54.948410" lon="-8.358020">
                <time>2019-06-14T10:50:04Z</time>
            </trkpt>
            <trkpt lat="54.948390" lon="-8.358010">
                <time>2019-06-14T10:50:05Z</time>
            </trkpt>
            <trkpt lat="54.948390" lon="-8.358010">
                <time>2019-06-14T10:50:06Z</time>
            </trkpt>
            <trkpt lat="54.948390" lon="-8.358010">
                <time>2019-06-14T10:50:07Z</time>
            </trkpt>
            <trkpt lat="54.948390" lon="-8.358010">
                <time>2019-06-14T10:50:08Z</time>
            </trkpt>
            <trkpt lat="54.948390" lon="-8.358010">
                <time>2019-06-14T10:50:09Z</time>
            </trkpt>
            <trkpt lat="54.948390" lon="-8.358010">
                <time>2019-06-14T10:50:10Z</time>
            </trkpt>
            <trkpt lat="54.948370" lon="-8.358010">
                <time>2019-06-14T10:50:11Z</time>
            </trkpt>
            <trkpt lat="54.948340" lon="-8.358000">
                <time>2019-06-14T10:50:12Z</time>
            </trkpt>
            <trkpt lat="54.948310" lon="-8.357980">
                <time>2019-06-14T10:50:13Z</time>
            </trkpt>
            <trkpt lat="54.948290" lon="-8.357970">
                <time>2019-06-14T10:50:14Z</time>
            </trkpt>
            <trkpt lat="54.948270" lon="-8.357960">
                <time>2019-06-14T10:50:15Z</time>
            </trkpt>
            <trkpt lat="54.948250" lon="-8.357950">
                <time>2019-06-14T10:50:16Z</time>
            </trkpt>
            <trkpt lat="54.948240" lon="-8.357940">
                <time>2019-06-14T10:50:17Z</time>
            </trkpt>
            <trkpt lat="54.948230" lon="-8.357930">
                <time>2019-06-14T10:50:18Z</time>
            </trkpt>
            <trkpt lat="54.948220" lon="-8.357930">
                <time>2019-06-14T10:50:19Z</time>
            </trkpt>
            <trkpt lat="54.948210" lon="-8.357920">
                <time>2019-06-14T10:50:20Z</time>
            </trkpt>
            <trkpt lat="54.948200" lon="-8.357920">
                <time>2019-06-14T10:50:21Z</time>
            </trkpt>
            <trkpt lat="54.948180" lon="-8.357910">
                <time>2019-06-14T10:50:22Z</time>
            </trkpt>
            <trkpt lat="54.948160" lon="-8.357910">
                <time>2019-06-14T10:50:23Z</time>
            </trkpt>
            <trkpt lat="54.948130" lon="-8.357930">
                <time>2019-06-14T10:50:24Z</time>
            </trkpt>
            <trkpt lat="54.948100" lon="-8.358050">
                <time>2019-06-14T10:50:25Z</time>
            </trkpt>
            <trkpt lat="54.948080" lon="-8.358170">
                <time>2019-06-14T10:50:26Z</time>
            </trkpt>
            <trkpt lat="54.948060" lon="-8.358300">
                <time>2019-06-14T10:50:27Z</time>
            </trkpt>
            <trkpt lat="54.948040" lon="-8.358440">
                <time>2019-06-14T10:50:28Z</time>
            </trkpt>
            <trkpt lat="54.948020" lon="-8.358570">
                <time>2019-06-14T10:50:29Z</time>
            </trkpt>
            <trkpt lat="54.948000" lon="-8.358690">
                <time>2019-06-14T10:50:30Z</time>
            </trkpt>
            <trkpt lat="54.947990" lon="-8.358790">
                <time>2019-06-14T10:50:31Z</time>
            </trkpt>
            <trkpt lat="54.947980" lon="-8.358890">
                <time>2019-06-14T10:50:32Z</time>
            </trkpt>
            <trkpt lat="54.947970" lon="-8.358960">
                <time>2019-06-14T10:50:33Z</time>
            </trkpt>
            <trkpt lat="54.947960" lon="-8.359010">
                <time>2019-06-14T10:50:34Z</time>
            </trkpt>
            <trkpt lat="54.947950" lon="-8.359050">
                <time>2019-06-14T10:50:35Z</time>
            </trkpt>
            <trkpt lat="54.947940" lon="-8.359080">
                <time>2019-06-14T10:50:36Z</time>
            </trkpt>
            <trkpt lat="54.947930" lon="-8.359110">
                <time>2019-06-14T10:50:37Z</time>
            </trkpt>
            <trkpt lat="54.947930" lon="-8.359130">
                <time>2019-06-14T10:50:38Z</time>
            </trkpt>
            <trkpt lat="54.947920" lon="-8.359140">
                <time>2019-06-14T10:50:39Z</time>
            </trkpt>
            <trkpt lat="54.947920" lon="-8.359150">
                <time>2019-06-14T10:50:40Z</time>
            </trkpt>
            <trkpt lat="54.947920" lon="-8.359150">
                <time>2019-06-14T10:50:41Z</time>
            </trkpt>
            <trkpt lat="54.947930" lon="-8.359160">
                <time>2019-06-14T10:50:42Z</time>
            </trkpt>
            <trkpt lat="54.947930" lon="-8.359160">
                <time>2019-06-14T10:50:43Z</time>
            </trkpt>
            <trkpt lat="54.947930" lon="-8.359150">
                <time>2019-06-14T10:50:44Z</time>
            </trkpt>
            <trkpt lat="54.947930" lon="-8.359160">
                <time>2019-06-14T10:50:45Z</time>
            </trkpt>
            <trkpt lat="54.947930" lon="-8.359200">
                <time>2019-06-14T10:50:46Z</time>
            </trkpt>
            <trkpt lat="54.947920" lon="-8.359260">
                <time>2019-06-14T10:50:47Z</time>
            </trkpt>
            <trkpt lat="54.947920" lon="-8.359320">
                <time>2019-06-14T10:50:48Z</time>
            </trkpt>
            <trkpt lat="54.947910" lon="-8.359370">
                <time>2019-06-14T10:50:49Z</time>
            </trkpt>
            <trkpt lat="54.947910" lon="-8.359390">
                <time>2019-06-14T10:50:50Z</time>
            </trkpt>
            <trkpt lat="54.947900" lon="-8.359400">
                <time>2019-06-14T10:50:51Z</time>
            </trkpt>
            <trkpt lat="54.947900" lon="-8.359420">
                <time>2019-06-14T10:50:52Z</time>
            </trkpt>
            <trkpt lat="54.947900" lon="-8.359440">
                <time>2019-06-14T10:50:53Z</time>
            </trkpt>
            <trkpt lat="54.947890" lon="-8.359470">
                <time>2019-06-14T10:50:54Z</time>
            </trkpt>
            <trkpt lat="54.947890" lon="-8.359490">
                <time>2019-06-14T10:50:55Z</time>
            </trkpt>
            <trkpt lat="54.947890" lon="-8.359510">
                <time>2019-06-14T10:50:56Z</time>
            </trkpt>
            <trkpt lat="54.947890" lon="-8.359520">
                <time>2019-06-14T10:50:57Z</time>
            </trkpt>
            <trkpt lat="54.947890" lon="-8.359530">
                <time>2019-06-14T10:50:58Z</time>
            </trkpt>
            <trkpt lat="54.947890" lon="-8.359550">
                <time>2019-06-14T10:50:59Z</time>
            </trkpt>
            <trkpt lat="54.947890" lon="-8.359570">
                <time>2019-06-14T10:51:00Z</time>
            </trkpt>
            <trkpt lat="54.947890" lon="-8.359610">
                <time>2019-06-14T10:51:01Z</time>
            </trkpt>
            <trkpt lat="54.947890" lon="-8.359670">
                <time>2019-06-14T10:51:02Z</time>
            </trkpt>
            <trkpt lat="54.947960" lon="-8.359720">
                <time>2019-06-14T10:51:03Z</time>
            </trkpt>
            <trkpt lat="54.948010" lon="-8.359750">
                <time>2019-06-14T10:51:04Z</time>
            </trkpt>
            <trkpt lat="54.948090" lon="-8.359780">
                <time>2019-06-14T10:51:05Z</time>
            </trkpt>
            <trkpt lat="54.948170" lon="-8.359820">
                <time>2019-06-14T10:51:06Z</time>
            </trkpt>
            <trkpt lat="54.948250" lon="-8.359860">
                <time>2019-06-14T10:51:07Z</time>
            </trkpt>
            <trkpt lat="54.948340" lon="-8.359910">
                <time>2019-06-14T10:51:08Z</time>
            </trkpt>
            <trkpt lat="54.948420" lon="-8.359950">
                <time>2019-06-14T10:51:09Z</time>
            </trkpt>
            <trkpt lat="54.948490" lon="-8.359990">
                <time>2019-06-14T10:51:10Z</time>
            </trkpt>
            <trkpt lat="54.948570" lon="-8.360020">
                <time>2019-06-14T10:51:11Z</time>
            </trkpt>
            <trkpt lat="54.948640" lon="-8.360050">
                <time>2019-06-14T10:51:12Z</time>
            </trkpt>
            <trkpt lat="54.948720" lon="-8.360090">
                <time>2019-06-14T10:51:13Z</time>
            </trkpt>
            <trkpt lat="54.948800" lon="-8.360120">
                <time>2019-06-14T10:51:14Z</time>
            </trkpt>
            <trkpt lat="54.948880" lon="-8.360170">
                <time>2019-06-14T10:51:15Z</time>
            </trkpt>
            <trkpt lat="54.948970" lon="-8.360210">
                <time>2019-06-14T10:51:16Z</time>
            </trkpt>
            <trkpt lat="54.949060" lon="-8.360250">
                <time>2019-06-14T10:51:17Z</time>
            </trkpt>
            <trkpt lat="54.949140" lon="-8.360290">
                <time>2019-06-14T10:51:18Z</time>
            </trkpt>
            <trkpt lat="54.949220" lon="-8.360330">
                <time>2019-06-14T10:51:19Z</time>
            </trkpt>
            <trkpt lat="54.949310" lon="-8.360360">
                <time>2019-06-14T10:51:20Z</time>
            </trkpt>
            <trkpt lat="54.949380" lon="-8.360400">
                <time>2019-06-14T10:51:21Z</time>
            </trkpt>
            <trkpt lat="54.949450" lon="-8.360430">
                <time>2019-06-14T10:51:22Z</time>
            </trkpt>
            <trkpt lat="54.949490" lon="-8.360450">
                <time>2019-06-14T10:51:23Z</time>
            </trkpt>
            <trkpt lat="54.949520" lon="-8.360460">
                <time>2019-06-14T10:51:24Z</time>
            </trkpt>
            <trkpt lat="54.949540" lon="-8.360470">
                <time>2019-06-14T10:51:25Z</time>
            </trkpt>
            <trkpt lat="54.949550" lon="-8.360480">
                <time>2019-06-14T10:51:26Z</time>
            </trkpt>
            <trkpt lat="54.949560" lon="-8.360480">
                <time>2019-06-14T10:51:27Z</time>
            </trkpt>
            <trkpt lat="54.949560" lon="-8.360480">
                <time>2019-06-14T10:51:28Z</time>
            </trkpt>
            <trkpt lat="54.949560" lon="-8.360480">
                <time>2019-06-14T10:51:29Z</time>
            </trkpt>
            <trkpt lat="54.949560" lon="-8.360480">
                <time>2019-06-14T10:51:30Z</time>
            </trkpt>
            <trkpt lat="54.949560" lon="-8.360480">
                <time>2019-06-14T10:51:31Z</time>
            </trkpt>
            <trkpt lat="54.949560" lon="-8.360480">
                <time>2019-06-14T10:51:32Z</time>
            </trkpt>
            <trkpt lat="54.949560" lon="-8.360480">
                <time>2019-06-14T10:51:33Z</time>
            </trkpt>
            <trkpt lat="54.949560" lon="-8.360480">
                <time>2019-06-14T10:51:34Z</time>
            </trkpt>
            <trkpt lat="54.949560" lon="-8.360480">
                <time>2019-06-14T10:51:35Z</time>
            </trkpt>
            <trkpt lat="54.949570" lon="-8.360480">
                <time>2019-06-14T10:51:36Z</time>
            </trkpt>
            <trkpt lat="54.949570" lon="-8.360480">
                <time>2019-06-14T10:51:37Z</time>
            </trkpt>
            <trkpt lat="54.949570" lon="-8.360480">
                <time>2019-06-14T10:51:38Z</time>
            </trkpt>
            <trkpt lat="54.949560" lon="-8.360480">
                <time>2019-06-14T10:51:39Z</time>
            </trkpt>
            <trkpt lat="54.949560" lon="-8.360480">
                <time>2019-06-14T10:51:40Z</time>
            </trkpt>
            <trkpt lat="54.949560" lon="-8.360480">
                <time>2019-06-14T10:51:41Z</time>
            </trkpt>
            <trkpt lat="54.949560" lon="-8.360480">
                <time>2019-06-14T10:51:42Z</time>
            </trkpt>
            <trkpt lat="54.949570" lon="-8.360490">
                <time>2019-06-14T10:51:43Z</time>
            </trkpt>
            <trkpt lat="54.949590" lon="-8.360500">
                <time>2019-06-14T10:51:44Z</time>
            </trkpt>
            <trkpt lat="54.949610" lon="-8.360510">
                <time>2019-06-14T10:51:45Z</time>
            </trkpt>
            <trkpt lat="54.949650" lon="-8.360530">
                <time>2019-06-14T10:51:46Z</time>
            </trkpt>
            <trkpt lat="54.949680" lon="-8.360540">
                <time>2019-06-14T10:51:47Z</time>
            </trkpt>
            <trkpt lat="54.949710" lon="-8.360560">
                <time>2019-06-14T10:51:48Z</time>
            </trkpt>
            <trkpt lat="54.949740" lon="-8.360570">
                <time>2019-06-14T10:51:49Z</time>
            </trkpt>
            <trkpt lat="54.949770" lon="-8.360580">
                <time>2019-06-14T10:51:50Z</time>
            </trkpt>
            <trkpt lat="54.949800" lon="-8.360580">
                <time>2019-06-14T10:51:51Z</time>
            </trkpt>
            <trkpt lat="54.949820" lon="-8.360550">
                <time>2019-06-14T10:51:52Z</time>
            </trkpt>
            <trkpt lat="54.949850" lon="-8.360490">
                <time>2019-06-14T10:51:53Z</time>
            </trkpt>
            <trkpt lat="54.949860" lon="-8.360420">
                <time>2019-06-14T10:51:54Z</time>
            </trkpt>
            <trkpt lat="54.949850" lon="-8.360260">
                <time>2019-06-14T10:51:55Z</time>
            </trkpt>
            <trkpt lat="54.949870" lon="-8.360150">
                <time>2019-06-14T10:51:56Z</time>
            </trkpt>
            <trkpt lat="54.949890" lon="-8.360050">
                <time>2019-06-14T10:51:57Z</time>
            </trkpt>
            <trkpt lat="54.949910" lon="-8.359950">
                <time>2019-06-14T10:51:58Z</time>
            </trkpt>
            <trkpt lat="54.949920" lon="-8.359830">
                <time>2019-06-14T10:51:59Z</time>
            </trkpt>
            <trkpt lat="54.949940" lon="-8.359710">
                <time>2019-06-14T10:52:00Z</time>
            </trkpt>
            <trkpt lat="54.949950" lon="-8.359590">
                <time>2019-06-14T10:52:01Z</time>
            </trkpt>
            <trkpt lat="54.949970" lon="-8.359470">
                <time>2019-06-14T10:52:02Z</time>
            </trkpt>
            <trkpt lat="54.949990" lon="-8.359340">
                <time>2019-06-14T10:52:03Z</time>
            </trkpt>
            <trkpt lat="54.950010" lon="-8.359210">
                <time>2019-06-14T10:52:04Z</time>
            </trkpt>
            <trkpt lat="54.950030" lon="-8.359060">
                <time>2019-06-14T10:52:05Z</time>
            </trkpt>
            <trkpt lat="54.950050" lon="-8.358910">
                <time>2019-06-14T10:52:06Z</time>
            </trkpt>
            <trkpt lat="54.950070" lon="-8.358780">
                <time>2019-06-14T10:52:07Z</time>
            </trkpt>
            <trkpt lat="54.950090" lon="-8.358650">
                <time>2019-06-14T10:52:08Z</time>
            </trkpt>
            <trkpt lat="54.950110" lon="-8.358540">
                <time>2019-06-14T10:52:09Z</time>
            </trkpt>
            <trkpt lat="54.950120" lon="-8.358430">
                <time>2019-06-14T10:52:10Z</time>
            </trkpt>
            <trkpt lat="54.950140" lon="-8.358320">
                <time>2019-06-14T10:52:11Z</time>
            </trkpt>
            <trkpt lat="54.950160" lon="-8.358240">
                <time>2019-06-14T10:52:12Z</time>
            </trkpt>
            <trkpt lat="54.950180" lon="-8.358160">
                <time>2019-06-14T10:52:13Z</time>
            </trkpt>
            <trkpt lat="54.950200" lon="-8.358050">
                <time>2019-06-14T10:52:14Z</time>
            </trkpt>
            <trkpt lat="54.950210" lon="-8.357910">
                <time>2019-06-14T10:52:15Z</time>
            </trkpt>
            <trkpt lat="54.950230" lon="-8.357760">
                <time>2019-06-14T10:52:16Z</time>
            </trkpt>
            <trkpt lat="54.950240" lon="-8.357600">
                <time>2019-06-14T10:52:17Z</time>
            </trkpt>
            <trkpt lat="54.950260" lon="-8.357440">
                <time>2019-06-14T10:52:18Z</time>
            </trkpt>
            <trkpt lat="54.950280" lon="-8.357270">
                <time>2019-06-14T10:52:19Z</time>
            </trkpt>
            <trkpt lat="54.950310" lon="-8.357090">
                <time>2019-06-14T10:52:20Z</time>
            </trkpt>
            <trkpt lat="54.950340" lon="-8.356890">
                <time>2019-06-14T10:52:21Z</time>
            </trkpt>
            <trkpt lat="54.950380" lon="-8.356670">
                <time>2019-06-14T10:52:22Z</time>
            </trkpt>
            <trkpt lat="54.950410" lon="-8.356450">
                <time>2019-06-14T10:52:23Z</time>
            </trkpt>
            <trkpt lat="54.950440" lon="-8.356240">
                <time>2019-06-14T10:52:24Z</time>
            </trkpt>
            <trkpt lat="54.950470" lon="-8.356060">
                <time>2019-06-14T10:52:25Z</time>
            </trkpt>
            <trkpt lat="54.950500" lon="-8.355870">
                <time>2019-06-14T10:52:26Z</time>
            </trkpt>
            <trkpt lat="54.950530" lon="-8.355670">
                <time>2019-06-14T10:52:27Z</time>
            </trkpt>
            <trkpt lat="54.950560" lon="-8.355480">
                <time>2019-06-14T10:52:28Z</time>
            </trkpt>
            <trkpt lat="54.950590" lon="-8.355260">
                <time>2019-06-14T10:52:29Z</time>
            </trkpt>
            <trkpt lat="54.950620" lon="-8.355040">
                <time>2019-06-14T10:52:30Z</time>
            </trkpt>
            <trkpt lat="54.950650" lon="-8.354820">
                <time>2019-06-14T10:52:31Z</time>
            </trkpt>
            <trkpt lat="54.950680" lon="-8.354620">
                <time>2019-06-14T10:52:32Z</time>
            </trkpt>
            <trkpt lat="54.950710" lon="-8.354420">
                <time>2019-06-14T10:52:33Z</time>
            </trkpt>
            <trkpt lat="54.950740" lon="-8.354220">
                <time>2019-06-14T10:52:34Z</time>
            </trkpt>
            <trkpt lat="54.950770" lon="-8.354030">
                <time>2019-06-14T10:52:35Z</time>
            </trkpt>
            <trkpt lat="54.950800" lon="-8.353830">
                <time>2019-06-14T10:52:36Z</time>
            </trkpt>
            <trkpt lat="54.950820" lon="-8.353630">
                <time>2019-06-14T10:52:37Z</time>
            </trkpt>
            <trkpt lat="54.950850" lon="-8.353420">
                <time>2019-06-14T10:52:38Z</time>
            </trkpt>
            <trkpt lat="54.950880" lon="-8.353210">
                <time>2019-06-14T10:52:39Z</time>
            </trkpt>
            <trkpt lat="54.950910" lon="-8.353010">
                <time>2019-06-14T10:52:40Z</time>
            </trkpt>
            <trkpt lat="54.950930" lon="-8.352800">
                <time>2019-06-14T10:52:41Z</time>
            </trkpt>
            <trkpt lat="54.950960" lon="-8.352590">
                <time>2019-06-14T10:52:42Z</time>
            </trkpt>
            <trkpt lat="54.950970" lon="-8.352380">
                <time>2019-06-14T10:52:43Z</time>
            </trkpt>
            <trkpt lat="54.950980" lon="-8.352180">
                <time>2019-06-14T10:52:44Z</time>
            </trkpt>
            <trkpt lat="54.950990" lon="-8.352000">
                <time>2019-06-14T10:52:45Z</time>
            </trkpt>
            <trkpt lat="54.950980" lon="-8.351830">
                <time>2019-06-14T10:52:46Z</time>
            </trkpt>
            <trkpt lat="54.950980" lon="-8.351690">
                <time>2019-06-14T10:52:47Z</time>
            </trkpt>
            <trkpt lat="54.950970" lon="-8.351560">
                <time>2019-06-14T10:52:48Z</time>
            </trkpt>
            <trkpt lat="54.950960" lon="-8.351430">
                <time>2019-06-14T10:52:49Z</time>
            </trkpt>
            <trkpt lat="54.950950" lon="-8.351290">
                <time>2019-06-14T10:52:50Z</time>
            </trkpt>
            <trkpt lat="54.950940" lon="-8.351160">
                <time>2019-06-14T10:52:51Z</time>
            </trkpt>
            <trkpt lat="54.950930" lon="-8.351030">
                <time>2019-06-14T10:52:52Z</time>
            </trkpt>
            <trkpt lat="54.950920" lon="-8.350890">
                <time>2019-06-14T10:52:53Z</time>
            </trkpt>
            <trkpt lat="54.950910" lon="-8.350780">
                <time>2019-06-14T10:52:54Z</time>
            </trkpt>
            <trkpt lat="54.950910" lon="-8.350680">
                <time>2019-06-14T10:52:55Z</time>
            </trkpt>
            <trkpt lat="54.950900" lon="-8.350590">
                <time>2019-06-14T10:52:56Z</time>
            </trkpt>
            <trkpt lat="54.950900" lon="-8.350510">
                <time>2019-06-14T10:52:57Z</time>
            </trkpt>
            <trkpt lat="54.950900" lon="-8.350430">
                <time>2019-06-14T10:52:58Z</time>
            </trkpt>
            <trkpt lat="54.950890" lon="-8.350370">
                <time>2019-06-14T10:52:59Z</time>
            </trkpt>
            <trkpt lat="54.950890" lon="-8.350290">
                <time>2019-06-14T10:53:00Z</time>
            </trkpt>
            <trkpt lat="54.950870" lon="-8.350180">
                <time>2019-06-14T10:53:01Z</time>
            </trkpt>
            <trkpt lat="54.950850" lon="-8.350090">
                <time>2019-06-14T10:53:02Z</time>
            </trkpt>
            <trkpt lat="54.950810" lon="-8.350030">
                <time>2019-06-14T10:53:03Z</time>
            </trkpt>
            <trkpt lat="54.950770" lon="-8.349990">
                <time>2019-06-14T10:53:04Z</time>
            </trkpt>
            <trkpt lat="54.950710" lon="-8.349960">
                <time>2019-06-14T10:53:05Z</time>
            </trkpt>
            <trkpt lat="54.950640" lon="-8.349920">
                <time>2019-06-14T10:53:06Z</time>
            </trkpt>
            <trkpt lat="54.950570" lon="-8.349890">
                <time>2019-06-14T10:53:07Z</time>
            </trkpt>
            <trkpt lat="54.950490" lon="-8.349850">
                <time>2019-06-14T10:53:08Z</time>
            </trkpt>
            <trkpt lat="54.950400" lon="-8.349820">
                <time>2019-06-14T10:53:09Z</time>
            </trkpt>
            <trkpt lat="54.950310" lon="-8.349790">
                <time>2019-06-14T10:53:10Z</time>
            </trkpt>
            <trkpt lat="54.950210" lon="-8.349790">
                <time>2019-06-14T10:53:11Z</time>
            </trkpt>
            <trkpt lat="54.950100" lon="-8.349800">
                <time>2019-06-14T10:53:12Z</time>
            </trkpt>
            <trkpt lat="54.950000" lon="-8.349820">
                <time>2019-06-14T10:53:13Z</time>
            </trkpt>
            <trkpt lat="54.949890" lon="-8.349830">
                <time>2019-06-14T10:53:14Z</time>
            </trkpt>
            <trkpt lat="54.949780" lon="-8.349840">
                <time>2019-06-14T10:53:15Z</time>
            </trkpt>
            <trkpt lat="54.949670" lon="-8.349870">
                <time>2019-06-14T10:53:16Z</time>
            </trkpt>
            <trkpt lat="54.949550" lon="-8.349910">
                <time>2019-06-14T10:53:17Z</time>
            </trkpt>
            <trkpt lat="54.949440" lon="-8.349960">
                <time>2019-06-14T10:53:18Z</time>
            </trkpt>
            <trkpt lat="54.949340" lon="-8.349990">
                <time>2019-06-14T10:53:19Z</time>
            </trkpt>
            <trkpt lat="54.949240" lon="-8.350020">
                <time>2019-06-14T10:53:20Z</time>
            </trkpt>
            <trkpt lat="54.949150" lon="-8.350030">
                <time>2019-06-14T10:53:21Z</time>
            </trkpt>
            <trkpt lat="54.949080" lon="-8.350030">
                <time>2019-06-14T10:53:22Z</time>
            </trkpt>
            <trkpt lat="54.949010" lon="-8.350030">
                <time>2019-06-14T10:53:23Z</time>
            </trkpt>
            <trkpt lat="54.948940" lon="-8.350010">
                <time>2019-06-14T10:53:24Z</time>
            </trkpt>
            <trkpt lat="54.948890" lon="-8.349990">
                <time>2019-06-14T10:53:25Z</time>
            </trkpt>
            <trkpt lat="54.948840" lon="-8.349970">
                <time>2019-06-14T10:53:26Z</time>
            </trkpt>
            <trkpt lat="54.948800" lon="-8.349950">
                <time>2019-06-14T10:53:27Z</time>
            </trkpt>
            <trkpt lat="54.948780" lon="-8.349940">
                <time>2019-06-14T10:53:28Z</time>
            </trkpt>
            <trkpt lat="54.948740" lon="-8.349920">
                <time>2019-06-14T10:53:29Z</time>
            </trkpt>
            <trkpt lat="54.948700" lon="-8.349900">
                <time>2019-06-14T10:53:30Z</time>
            </trkpt>
            <trkpt lat="54.948670" lon="-8.349900">
                <time>2019-06-14T10:53:31Z</time>
            </trkpt>
            <trkpt lat="54.948630" lon="-8.349890">
                <time>2019-06-14T10:53:32Z</time>
            </trkpt>
            <trkpt lat="54.948590" lon="-8.349860">
                <time>2019-06-14T10:53:33Z</time>
            </trkpt>
            <trkpt lat="54.948540" lon="-8.349780">
                <time>2019-06-14T10:53:34Z</time>
            </trkpt>
            <trkpt lat="54.948520" lon="-8.349630">
                <time>2019-06-14T10:53:35Z</time>
            </trkpt>
            <trkpt lat="54.948520" lon="-8.349460">
                <time>2019-06-14T10:53:36Z</time>
            </trkpt>
            <trkpt lat="54.948510" lon="-8.349250">
                <time>2019-06-14T10:53:37Z</time>
            </trkpt>
            <trkpt lat="54.948500" lon="-8.349010">
                <time>2019-06-14T10:53:38Z</time>
            </trkpt>
            <trkpt lat="54.948490" lon="-8.348790">
                <time>2019-06-14T10:53:39Z</time>
            </trkpt>
            <trkpt lat="54.948480" lon="-8.348550">
                <time>2019-06-14T10:53:40Z</time>
            </trkpt>
            <trkpt lat="54.948470" lon="-8.348280">
                <time>2019-06-14T10:53:41Z</time>
            </trkpt>
            <trkpt lat="54.948460" lon="-8.348020">
                <time>2019-06-14T10:53:42Z</time>
            </trkpt>
            <trkpt lat="54.948450" lon="-8.347770">
                <time>2019-06-14T10:53:43Z</time>
            </trkpt>
            <trkpt lat="54.948440" lon="-8.347530">
                <time>2019-06-14T10:53:44Z</time>
            </trkpt>
            <trkpt lat="54.948440" lon="-8.347290">
                <time>2019-06-14T10:53:45Z</time>
            </trkpt>
            <trkpt lat="54.948430" lon="-8.347050">
                <time>2019-06-14T10:53:46Z</time>
            </trkpt>
            <trkpt lat="54.948420" lon="-8.346790">
                <time>2019-06-14T10:53:47Z</time>
            </trkpt>
            <trkpt lat="54.948410" lon="-8.346530">
                <time>2019-06-14T10:53:48Z</time>
            </trkpt>
            <trkpt lat="54.948400" lon="-8.346280">
                <time>2019-06-14T10:53:49Z</time>
            </trkpt>
            <trkpt lat="54.948400" lon="-8.346030">
                <time>2019-06-14T10:53:50Z</time>
            </trkpt>
            <trkpt lat="54.948390" lon="-8.345770">
                <time>2019-06-14T10:53:51Z</time>
            </trkpt>
            <trkpt lat="54.948380" lon="-8.345510">
                <time>2019-06-14T10:53:52Z</time>
            </trkpt>
            <trkpt lat="54.948370" lon="-8.345250">
                <time>2019-06-14T10:53:53Z</time>
            </trkpt>
            <trkpt lat="54.948360" lon="-8.344990">
                <time>2019-06-14T10:53:54Z</time>
            </trkpt>
            <trkpt lat="54.948360" lon="-8.344740">
                <time>2019-06-14T10:53:55Z</time>
            </trkpt>
            <trkpt lat="54.948350" lon="-8.344500">
                <time>2019-06-14T10:53:56Z</time>
            </trkpt>
            <trkpt lat="54.948340" lon="-8.344250">
                <time>2019-06-14T10:53:57Z</time>
            </trkpt>
            <trkpt lat="54.948330" lon="-8.344020">
                <time>2019-06-14T10:53:58Z</time>
            </trkpt>
            <trkpt lat="54.948320" lon="-8.343790">
                <time>2019-06-14T10:53:59Z</time>
            </trkpt>
            <trkpt lat="54.948320" lon="-8.343570">
                <time>2019-06-14T10:54:00Z</time>
            </trkpt>
            <trkpt lat="54.948310" lon="-8.343350">
                <time>2019-06-14T10:54:01Z</time>
            </trkpt>
            <trkpt lat="54.948310" lon="-8.343150">
                <time>2019-06-14T10:54:02Z</time>
            </trkpt>
            <trkpt lat="54.948310" lon="-8.342940">
                <time>2019-06-14T10:54:03Z</time>
            </trkpt>
            <trkpt lat="54.948310" lon="-8.342760">
                <time>2019-06-14T10:54:04Z</time>
            </trkpt>
            <trkpt lat="54.948310" lon="-8.342600">
                <time>2019-06-14T10:54:05Z</time>
            </trkpt>
            <trkpt lat="54.948310" lon="-8.342460">
                <time>2019-06-14T10:54:06Z</time>
            </trkpt>
            <trkpt lat="54.948320" lon="-8.342340">
                <time>2019-06-14T10:54:07Z</time>
            </trkpt>
            <trkpt lat="54.948320" lon="-8.342250">
                <time>2019-06-14T10:54:08Z</time>
            </trkpt>
            <trkpt lat="54.948320" lon="-8.342180">
                <time>2019-06-14T10:54:09Z</time>
            </trkpt>
            <trkpt lat="54.948320" lon="-8.342130">
                <time>2019-06-14T10:54:10Z</time>
            </trkpt>
            <trkpt lat="54.948320" lon="-8.342060">
                <time>2019-06-14T10:54:11Z</time>
            </trkpt>
            <trkpt lat="54.948330" lon="-8.341990">
                <time>2019-06-14T10:54:12Z</time>
            </trkpt>
            <trkpt lat="54.948330" lon="-8.341920">
                <time>2019-06-14T10:54:13Z</time>
            </trkpt>
            <trkpt lat="54.948330" lon="-8.341870">
                <time>2019-06-14T10:54:14Z</time>
            </trkpt>
            <trkpt lat="54.948330" lon="-8.341820">
                <time>2019-06-14T10:54:15Z</time>
            </trkpt>
            <trkpt lat="54.948330" lon="-8.341770">
                <time>2019-06-14T10:54:16Z</time>
            </trkpt>
            <trkpt lat="54.948330" lon="-8.341730">
                <time>2019-06-14T10:54:17Z</time>
            </trkpt>
            <trkpt lat="54.948330" lon="-8.341700">
                <time>2019-06-14T10:54:18Z</time>
            </trkpt>
            <trkpt lat="54.948330" lon="-8.341640">
                <time>2019-06-14T10:54:19Z</time>
            </trkpt>
            <trkpt lat="54.948310" lon="-8.341540">
                <time>2019-06-14T10:54:20Z</time>
            </trkpt>
            <trkpt lat="54.948260" lon="-8.341450">
                <time>2019-06-14T10:54:21Z</time>
            </trkpt>
            <trkpt lat="54.948180" lon="-8.341360">
                <time>2019-06-14T10:54:22Z</time>
            </trkpt>
            <trkpt lat="54.948090" lon="-8.341260">
                <time>2019-06-14T10:54:23Z</time>
            </trkpt>
            <trkpt lat="54.948000" lon="-8.341160">
                <time>2019-06-14T10:54:24Z</time>
            </trkpt>
            <trkpt lat="54.947900" lon="-8.341060">
                <time>2019-06-14T10:54:25Z</time>
            </trkpt>
            <trkpt lat="54.947810" lon="-8.340950">
                <time>2019-06-14T10:54:26Z</time>
            </trkpt>
            <trkpt lat="54.947710" lon="-8.340850">
                <time>2019-06-14T10:54:27Z</time>
            </trkpt>
            <trkpt lat="54.947600" lon="-8.340740">
                <time>2019-06-14T10:54:28Z</time>
            </trkpt>
            <trkpt lat="54.947470" lon="-8.340640">
                <time>2019-06-14T10:54:29Z</time>
            </trkpt>
            <trkpt lat="54.947340" lon="-8.340550">
                <time>2019-06-14T10:54:30Z</time>
            </trkpt>
            <trkpt lat="54.947210" lon="-8.340460">
                <time>2019-06-14T10:54:31Z</time>
            </trkpt>
            <trkpt lat="54.947080" lon="-8.340370">
                <time>2019-06-14T10:54:32Z</time>
            </trkpt>
            <trkpt lat="54.946950" lon="-8.340270">
                <time>2019-06-14T10:54:33Z</time>
            </trkpt>
            <trkpt lat="54.946820" lon="-8.340190">
                <time>2019-06-14T10:54:34Z</time>
            </trkpt>
            <trkpt lat="54.946700" lon="-8.340110">
                <time>2019-06-14T10:54:35Z</time>
            </trkpt>
            <trkpt lat="54.946580" lon="-8.340040">
                <time>2019-06-14T10:54:36Z</time>
            </trkpt>
            <trkpt lat="54.946470" lon="-8.339970">
                <time>2019-06-14T10:54:37Z</time>
            </trkpt>
            <trkpt lat="54.946360" lon="-8.339900">
                <time>2019-06-14T10:54:38Z</time>
            </trkpt>
            <trkpt lat="54.946240" lon="-8.339830">
                <time>2019-06-14T10:54:39Z</time>
            </trkpt>
            <trkpt lat="54.946120" lon="-8.339740">
                <time>2019-06-14T10:54:40Z</time>
            </trkpt>
            <trkpt lat="54.945980" lon="-8.339660">
                <time>2019-06-14T10:54:41Z</time>
            </trkpt>
            <trkpt lat="54.945840" lon="-8.339560">
                <time>2019-06-14T10:54:42Z</time>
            </trkpt>
            <trkpt lat="54.945670" lon="-8.339460">
                <time>2019-06-14T10:54:43Z</time>
            </trkpt>
            <trkpt lat="54.945510" lon="-8.339360">
                <time>2019-06-14T10:54:44Z</time>
            </trkpt>
            <trkpt lat="54.945360" lon="-8.339260">
                <time>2019-06-14T10:54:45Z</time>
            </trkpt>
            <trkpt lat="54.945210" lon="-8.339160">
                <time>2019-06-14T10:54:46Z</time>
            </trkpt>
            <trkpt lat="54.945060" lon="-8.339070">
                <time>2019-06-14T10:54:47Z</time>
            </trkpt>
            <trkpt lat="54.944920" lon="-8.338980">
                <time>2019-06-14T10:54:48Z</time>
            </trkpt>
            <trkpt lat="54.944770" lon="-8.338890">
                <time>2019-06-14T10:54:49Z</time>
            </trkpt>
            <trkpt lat="54.944610" lon="-8.338790">
                <time>2019-06-14T10:54:50Z</time>
            </trkpt>
            <trkpt lat="54.944450" lon="-8.338680">
                <time>2019-06-14T10:54:51Z</time>
            </trkpt>
            <trkpt lat="54.944290" lon="-8.338580">
                <time>2019-06-14T10:54:52Z</time>
            </trkpt>
            <trkpt lat="54.944140" lon="-8.338490">
                <time>2019-06-14T10:54:53Z</time>
            </trkpt>
            <trkpt lat="54.943990" lon="-8.338400">
                <time>2019-06-14T10:54:54Z</time>
            </trkpt>
            <trkpt lat="54.943820" lon="-8.338300">
                <time>2019-06-14T10:54:55Z</time>
            </trkpt>
            <trkpt lat="54.943660" lon="-8.338200">
                <time>2019-06-14T10:54:56Z</time>
            </trkpt>
            <trkpt lat="54.943490" lon="-8.338080">
                <time>2019-06-14T10:54:57Z</time>
            </trkpt>
            <trkpt lat="54.943330" lon="-8.337950">
                <time>2019-06-14T10:54:58Z</time>
            </trkpt>
            <trkpt lat="54.943160" lon="-8.337800">
                <time>2019-06-14T10:54:59Z</time>
            </trkpt>
            <trkpt lat="54.943010" lon="-8.337600">
                <time>2019-06-14T10:55:00Z</time>
            </trkpt>
            <trkpt lat="54.942870" lon="-8.337370">
                <time>2019-06-14T10:55:01Z</time>
            </trkpt>
            <trkpt lat="54.942730" lon="-8.337110">
                <time>2019-06-14T10:55:02Z</time>
            </trkpt>
            <trkpt lat="54.942610" lon="-8.336840">
                <time>2019-06-14T10:55:03Z</time>
            </trkpt>
            <trkpt lat="54.942490" lon="-8.336590">
                <time>2019-06-14T10:55:04Z</time>
            </trkpt>
            <trkpt lat="54.942380" lon="-8.336370">
                <time>2019-06-14T10:55:05Z</time>
            </trkpt>
            <trkpt lat="54.942280" lon="-8.336140">
                <time>2019-06-14T10:55:06Z</time>
            </trkpt>
            <trkpt lat="54.942170" lon="-8.335920">
                <time>2019-06-14T10:55:07Z</time>
            </trkpt>
            <trkpt lat="54.942060" lon="-8.335690">
                <time>2019-06-14T10:55:08Z</time>
            </trkpt>
            <trkpt lat="54.941950" lon="-8.335460">
                <time>2019-06-14T10:55:09Z</time>
            </trkpt>
            <trkpt lat="54.941830" lon="-8.335220">
                <time>2019-06-14T10:55:10Z</time>
            </trkpt>
            <trkpt lat="54.941710" lon="-8.334970">
                <time>2019-06-14T10:55:11Z</time>
            </trkpt>
            <trkpt lat="54.941590" lon="-8.334720">
                <time>2019-06-14T10:55:12Z</time>
            </trkpt>
            <trkpt lat="54.941450" lon="-8.334460">
                <time>2019-06-14T10:55:13Z</time>
            </trkpt>
            <trkpt lat="54.941300" lon="-8.334220">
                <time>2019-06-14T10:55:14Z</time>
            </trkpt>
            <trkpt lat="54.941140" lon="-8.333990">
                <time>2019-06-14T10:55:15Z</time>
            </trkpt>
            <trkpt lat="54.940960" lon="-8.333770">
                <time>2019-06-14T10:55:16Z</time>
            </trkpt>
            <trkpt lat="54.940790" lon="-8.333550">
                <time>2019-06-14T10:55:17Z</time>
            </trkpt>
            <trkpt lat="54.940610" lon="-8.333350">
                <time>2019-06-14T10:55:18Z</time>
            </trkpt>
            <trkpt lat="54.940430" lon="-8.333140">
                <time>2019-06-14T10:55:19Z</time>
            </trkpt>
            <trkpt lat="54.940270" lon="-8.332940">
                <time>2019-06-14T10:55:20Z</time>
            </trkpt>
            <trkpt lat="54.940110" lon="-8.332760">
                <time>2019-06-14T10:55:21Z</time>
            </trkpt>
            <trkpt lat="54.939950" lon="-8.332560">
                <time>2019-06-14T10:55:22Z</time>
            </trkpt>
            <trkpt lat="54.939790" lon="-8.332370">
                <time>2019-06-14T10:55:23Z</time>
            </trkpt>
            <trkpt lat="54.939630" lon="-8.332180">
                <time>2019-06-14T10:55:24Z</time>
            </trkpt>
            <trkpt lat="54.939470" lon="-8.331990">
                <time>2019-06-14T10:55:25Z</time>
            </trkpt>
            <trkpt lat="54.939320" lon="-8.331810">
                <time>2019-06-14T10:55:26Z</time>
            </trkpt>
            <trkpt lat="54.939160" lon="-8.331620">
                <time>2019-06-14T10:55:27Z</time>
            </trkpt>
            <trkpt lat="54.939010" lon="-8.331420">
                <time>2019-06-14T10:55:28Z</time>
            </trkpt>
            <trkpt lat="54.938870" lon="-8.331230">
                <time>2019-06-14T10:55:29Z</time>
            </trkpt>
            <trkpt lat="54.938730" lon="-8.331010">
                <time>2019-06-14T10:55:30Z</time>
            </trkpt>
            <trkpt lat="54.938580" lon="-8.330780">
                <time>2019-06-14T10:55:31Z</time>
            </trkpt>
            <trkpt lat="54.938430" lon="-8.330540">
                <time>2019-06-14T10:55:32Z</time>
            </trkpt>
            <trkpt lat="54.938260" lon="-8.330270">
                <time>2019-06-14T10:55:33Z</time>
            </trkpt>
            <trkpt lat="54.938090" lon="-8.329970">
                <time>2019-06-14T10:55:34Z</time>
            </trkpt>
            <trkpt lat="54.937910" lon="-8.329670">
                <time>2019-06-14T10:55:35Z</time>
            </trkpt>
            <trkpt lat="54.937720" lon="-8.329340">
                <time>2019-06-14T10:55:36Z</time>
            </trkpt>
            <trkpt lat="54.937510" lon="-8.329000">
                <time>2019-06-14T10:55:37Z</time>
            </trkpt>
            <trkpt lat="54.937300" lon="-8.328650">
                <time>2019-06-14T10:55:38Z</time>
            </trkpt>
            <trkpt lat="54.937090" lon="-8.328300">
                <time>2019-06-14T10:55:39Z</time>
            </trkpt>
            <trkpt lat="54.936880" lon="-8.327950">
                <time>2019-06-14T10:55:40Z</time>
            </trkpt>
            <trkpt lat="54.936680" lon="-8.327620">
                <time>2019-06-14T10:55:41Z</time>
            </trkpt>
            <trkpt lat="54.936500" lon="-8.327330">
                <time>2019-06-14T10:55:42Z</time>
            </trkpt>
            <trkpt lat="54.936340" lon="-8.327080">
                <time>2019-06-14T10:55:43Z</time>
            </trkpt>
            <trkpt lat="54.936190" lon="-8.326870">
                <time>2019-06-14T10:55:44Z</time>
            </trkpt>
            <trkpt lat="54.936060" lon="-8.326690">
                <time>2019-06-14T10:55:45Z</time>
            </trkpt>
            <trkpt lat="54.935950" lon="-8.326520">
                <time>2019-06-14T10:55:46Z</time>
            </trkpt>
            <trkpt lat="54.935850" lon="-8.326370">
                <time>2019-06-14T10:55:47Z</time>
            </trkpt>
            <trkpt lat="54.935750" lon="-8.326220">
                <time>2019-06-14T10:55:48Z</time>
            </trkpt>
            <trkpt lat="54.935650" lon="-8.326060">
                <time>2019-06-14T10:55:49Z</time>
            </trkpt>
            <trkpt lat="54.935550" lon="-8.325890">
                <time>2019-06-14T10:55:50Z</time>
            </trkpt>
            <trkpt lat="54.935460" lon="-8.325710">
                <time>2019-06-14T10:55:51Z</time>
            </trkpt>
            <trkpt lat="54.935360" lon="-8.325520">
                <time>2019-06-14T10:55:52Z</time>
            </trkpt>
            <trkpt lat="54.935270" lon="-8.325320">
                <time>2019-06-14T10:55:53Z</time>
            </trkpt>
            <trkpt lat="54.935170" lon="-8.325120">
                <time>2019-06-14T10:55:54Z</time>
            </trkpt>
            <trkpt lat="54.935070" lon="-8.324910">
                <time>2019-06-14T10:55:55Z</time>
            </trkpt>
            <trkpt lat="54.934970" lon="-8.324700">
                <time>2019-06-14T10:55:56Z</time>
            </trkpt>
            <trkpt lat="54.934870" lon="-8.324480">
                <time>2019-06-14T10:55:57Z</time>
            </trkpt>
            <trkpt lat="54.934780" lon="-8.324270">
                <time>2019-06-14T10:55:58Z</time>
            </trkpt>
            <trkpt lat="54.934680" lon="-8.324060">
                <time>2019-06-14T10:55:59Z</time>
            </trkpt>
            <trkpt lat="54.934570" lon="-8.323840">
                <time>2019-06-14T10:56:00Z</time>
            </trkpt>
            <trkpt lat="54.934460" lon="-8.323620">
                <time>2019-06-14T10:56:01Z</time>
            </trkpt>
            <trkpt lat="54.934350" lon="-8.323390">
                <time>2019-06-14T10:56:02Z</time>
            </trkpt>
            <trkpt lat="54.934240" lon="-8.323140">
                <time>2019-06-14T10:56:03Z</time>
            </trkpt>
            <trkpt lat="54.934100" lon="-8.322870">
                <time>2019-06-14T10:56:04Z</time>
            </trkpt>
            <trkpt lat="54.933950" lon="-8.322550">
                <time>2019-06-14T10:56:05Z</time>
            </trkpt>
            <trkpt lat="54.933780" lon="-8.322200">
                <time>2019-06-14T10:56:06Z</time>
            </trkpt>
            <trkpt lat="54.933610" lon="-8.321820">
                <time>2019-06-14T10:56:07Z</time>
            </trkpt>
            <trkpt lat="54.933470" lon="-8.321440">
                <time>2019-06-14T10:56:08Z</time>
            </trkpt>
            <trkpt lat="54.933330" lon="-8.321090">
                <time>2019-06-14T10:56:09Z</time>
            </trkpt>
            <trkpt lat="54.933210" lon="-8.320770">
                <time>2019-06-14T10:56:10Z</time>
            </trkpt>
            <trkpt lat="54.933090" lon="-8.320470">
                <time>2019-06-14T10:56:11Z</time>
            </trkpt>
            <trkpt lat="54.932960" lon="-8.320190">
                <time>2019-06-14T10:56:12Z</time>
            </trkpt>
            <trkpt lat="54.932810" lon="-8.319910">
                <time>2019-06-14T10:56:13Z</time>
            </trkpt>
            <trkpt lat="54.932640" lon="-8.319660">
                <time>2019-06-14T10:56:14Z</time>
            </trkpt>
            <trkpt lat="54.932470" lon="-8.319440">
                <time>2019-06-14T10:56:15Z</time>
            </trkpt>
            <trkpt lat="54.932280" lon="-8.319260">
                <time>2019-06-14T10:56:16Z</time>
            </trkpt>
            <trkpt lat="54.932090" lon="-8.319140">
                <time>2019-06-14T10:56:17Z</time>
            </trkpt>
            <trkpt lat="54.931890" lon="-8.319050">
                <time>2019-06-14T10:56:18Z</time>
            </trkpt>
            <trkpt lat="54.931680" lon="-8.318970">
                <time>2019-06-14T10:56:19Z</time>
            </trkpt>
            <trkpt lat="54.931470" lon="-8.318940">
                <time>2019-06-14T10:56:20Z</time>
            </trkpt>
            <trkpt lat="54.931250" lon="-8.318940">
                <time>2019-06-14T10:56:21Z</time>
            </trkpt>
            <trkpt lat="54.931010" lon="-8.318970">
                <time>2019-06-14T10:56:22Z</time>
            </trkpt>
            <trkpt lat="54.930770" lon="-8.318970">
                <time>2019-06-14T10:56:23Z</time>
            </trkpt>
            <trkpt lat="54.930520" lon="-8.318930">
                <time>2019-06-14T10:56:24Z</time>
            </trkpt>
            <trkpt lat="54.930270" lon="-8.318880">
                <time>2019-06-14T10:56:25Z</time>
            </trkpt>
            <trkpt lat="54.930030" lon="-8.318820">
                <time>2019-06-14T10:56:26Z</time>
            </trkpt>
            <trkpt lat="54.929790" lon="-8.318770">
                <time>2019-06-14T10:56:27Z</time>
            </trkpt>
            <trkpt lat="54.929550" lon="-8.318750">
                <time>2019-06-14T10:56:28Z</time>
            </trkpt>
            <trkpt lat="54.929310" lon="-8.318770">
                <time>2019-06-14T10:56:29Z</time>
            </trkpt>
            <trkpt lat="54.929060" lon="-8.318820">
                <time>2019-06-14T10:56:30Z</time>
            </trkpt>
            <trkpt lat="54.928820" lon="-8.318870">
                <time>2019-06-14T10:56:31Z</time>
            </trkpt>
            <trkpt lat="54.928580" lon="-8.318900">
                <time>2019-06-14T10:56:32Z</time>
            </trkpt>
            <trkpt lat="54.928350" lon="-8.318900">
                <time>2019-06-14T10:56:33Z</time>
            </trkpt>
            <trkpt lat="54.928110" lon="-8.318840">
                <time>2019-06-14T10:56:34Z</time>
            </trkpt>
            <trkpt lat="54.927870" lon="-8.318730">
                <time>2019-06-14T10:56:35Z</time>
            </trkpt>
            <trkpt lat="54.927630" lon="-8.318580">
                <time>2019-06-14T10:56:36Z</time>
            </trkpt>
            <trkpt lat="54.927390" lon="-8.318420">
                <time>2019-06-14T10:56:37Z</time>
            </trkpt>
            <trkpt lat="54.927170" lon="-8.318270">
                <time>2019-06-14T10:56:38Z</time>
            </trkpt>
            <trkpt lat="54.926930" lon="-8.318120">
                <time>2019-06-14T10:56:39Z</time>
            </trkpt>
            <trkpt lat="54.926700" lon="-8.317960">
                <time>2019-06-14T10:56:40Z</time>
            </trkpt>
            <trkpt lat="54.926460" lon="-8.317780">
                <time>2019-06-14T10:56:41Z</time>
            </trkpt>
            <trkpt lat="54.926220" lon="-8.317590">
                <time>2019-06-14T10:56:42Z</time>
            </trkpt>
            <trkpt lat="54.926000" lon="-8.317370">
                <time>2019-06-14T10:56:43Z</time>
            </trkpt>
            <trkpt lat="54.925790" lon="-8.317110">
                <time>2019-06-14T10:56:44Z</time>
            </trkpt>
            <trkpt lat="54.925600" lon="-8.316810">
                <time>2019-06-14T10:56:45Z</time>
            </trkpt>
            <trkpt lat="54.925430" lon="-8.316490">
                <time>2019-06-14T10:56:46Z</time>
            </trkpt>
            <trkpt lat="54.925280" lon="-8.316150">
                <time>2019-06-14T10:56:47Z</time>
            </trkpt>
            <trkpt lat="54.925120" lon="-8.315850">
                <time>2019-06-14T10:56:48Z</time>
            </trkpt>
            <trkpt lat="54.924950" lon="-8.315570">
                <time>2019-06-14T10:56:49Z</time>
            </trkpt>
            <trkpt lat="54.924750" lon="-8.315330">
                <time>2019-06-14T10:56:50Z</time>
            </trkpt>
            <trkpt lat="54.924540" lon="-8.315120">
                <time>2019-06-14T10:56:51Z</time>
            </trkpt>
            <trkpt lat="54.924320" lon="-8.314910">
                <time>2019-06-14T10:56:52Z</time>
            </trkpt>
            <trkpt lat="54.924080" lon="-8.314700">
                <time>2019-06-14T10:56:53Z</time>
            </trkpt>
            <trkpt lat="54.923840" lon="-8.314490">
                <time>2019-06-14T10:56:54Z</time>
            </trkpt>
            <trkpt lat="54.923600" lon="-8.314330">
                <time>2019-06-14T10:56:55Z</time>
            </trkpt>
            <trkpt lat="54.923360" lon="-8.314230">
                <time>2019-06-14T10:56:56Z</time>
            </trkpt>
            <trkpt lat="54.923120" lon="-8.314200">
                <time>2019-06-14T10:56:57Z</time>
            </trkpt>
            <trkpt lat="54.922880" lon="-8.314210">
                <time>2019-06-14T10:56:58Z</time>
            </trkpt>
            <trkpt lat="54.922640" lon="-8.314210">
                <time>2019-06-14T10:56:59Z</time>
            </trkpt>
            <trkpt lat="54.922370" lon="-8.314200">
                <time>2019-06-14T10:57:00Z</time>
            </trkpt>
            <trkpt lat="54.922090" lon="-8.314190">
                <time>2019-06-14T10:57:01Z</time>
            </trkpt>
            <trkpt lat="54.921790" lon="-8.314160">
                <time>2019-06-14T10:57:02Z</time>
            </trkpt>
            <trkpt lat="54.921490" lon="-8.314120">
                <time>2019-06-14T10:57:03Z</time>
            </trkpt>
            <trkpt lat="54.921190" lon="-8.314100">
                <time>2019-06-14T10:57:04Z</time>
            </trkpt>
            <trkpt lat="54.920890" lon="-8.314110">
                <time>2019-06-14T10:57:05Z</time>
            </trkpt>
            <trkpt lat="54.920620" lon="-8.314170">
                <time>2019-06-14T10:57:06Z</time>
            </trkpt>
            <trkpt lat="54.920360" lon="-8.314220">
                <time>2019-06-14T10:57:07Z</time>
            </trkpt>
            <trkpt lat="54.920120" lon="-8.314220">
                <time>2019-06-14T10:57:08Z</time>
            </trkpt>
            <trkpt lat="54.919870" lon="-8.314170">
                <time>2019-06-14T10:57:09Z</time>
            </trkpt>
            <trkpt lat="54.919630" lon="-8.314060">
                <time>2019-06-14T10:57:10Z</time>
            </trkpt>
            <trkpt lat="54.919390" lon="-8.313930">
                <time>2019-06-14T10:57:11Z</time>
            </trkpt>
            <trkpt lat="54.919140" lon="-8.313780">
                <time>2019-06-14T10:57:12Z</time>
            </trkpt>
            <trkpt lat="54.918880" lon="-8.313630">
                <time>2019-06-14T10:57:13Z</time>
            </trkpt>
            <trkpt lat="54.918600" lon="-8.313460">
                <time>2019-06-14T10:57:14Z</time>
            </trkpt>
            <trkpt lat="54.918310" lon="-8.313290">
                <time>2019-06-14T10:57:15Z</time>
            </trkpt>
            <trkpt lat="54.918000" lon="-8.313090">
                <time>2019-06-14T10:57:16Z</time>
            </trkpt>
            <trkpt lat="54.917690" lon="-8.312900">
                <time>2019-06-14T10:57:17Z</time>
            </trkpt>
            <trkpt lat="54.917380" lon="-8.312700">
                <time>2019-06-14T10:57:18Z</time>
            </trkpt>
            <trkpt lat="54.917070" lon="-8.312510">
                <time>2019-06-14T10:57:19Z</time>
            </trkpt>
            <trkpt lat="54.916770" lon="-8.312320">
                <time>2019-06-14T10:57:20Z</time>
            </trkpt>
            <trkpt lat="54.916490" lon="-8.312140">
                <time>2019-06-14T10:57:21Z</time>
            </trkpt>
            <trkpt lat="54.916210" lon="-8.311950">
                <time>2019-06-14T10:57:22Z</time>
            </trkpt>
            <trkpt lat="54.915940" lon="-8.311760">
                <time>2019-06-14T10:57:23Z</time>
            </trkpt>
            <trkpt lat="54.915670" lon="-8.311540">
                <time>2019-06-14T10:57:24Z</time>
            </trkpt>
            <trkpt lat="54.915410" lon="-8.311310">
                <time>2019-06-14T10:57:25Z</time>
            </trkpt>
            <trkpt lat="54.915150" lon="-8.311060">
                <time>2019-06-14T10:57:26Z</time>
            </trkpt>
            <trkpt lat="54.914900" lon="-8.310790">
                <time>2019-06-14T10:57:27Z</time>
            </trkpt>
            <trkpt lat="54.914660" lon="-8.310510">
                <time>2019-06-14T10:57:28Z</time>
            </trkpt>
            <trkpt lat="54.914430" lon="-8.310240">
                <time>2019-06-14T10:57:29Z</time>
            </trkpt>
            <trkpt lat="54.914210" lon="-8.310000">
                <time>2019-06-14T10:57:30Z</time>
            </trkpt>
            <trkpt lat="54.914000" lon="-8.309830">
                <time>2019-06-14T10:57:31Z</time>
            </trkpt>
            <trkpt lat="54.913770" lon="-8.309720">
                <time>2019-06-14T10:57:32Z</time>
            </trkpt>
            <trkpt lat="54.913540" lon="-8.309680">
                <time>2019-06-14T10:57:33Z</time>
            </trkpt>
            <trkpt lat="54.913320" lon="-8.309700">
                <time>2019-06-14T10:57:34Z</time>
            </trkpt>
            <trkpt lat="54.913110" lon="-8.309770">
                <time>2019-06-14T10:57:35Z</time>
            </trkpt>
            <trkpt lat="54.912910" lon="-8.309860">
                <time>2019-06-14T10:57:36Z</time>
            </trkpt>
            <trkpt lat="54.912710" lon="-8.309970">
                <time>2019-06-14T10:57:37Z</time>
            </trkpt>
            <trkpt lat="54.912520" lon="-8.310100">
                <time>2019-06-14T10:57:38Z</time>
            </trkpt>
            <trkpt lat="54.912320" lon="-8.310240">
                <time>2019-06-14T10:57:39Z</time>
            </trkpt>
            <trkpt lat="54.912120" lon="-8.310370">
                <time>2019-06-14T10:57:40Z</time>
            </trkpt>
            <trkpt lat="54.911920" lon="-8.310510">
                <time>2019-06-14T10:57:41Z</time>
            </trkpt>
            <trkpt lat="54.911700" lon="-8.310620">
                <time>2019-06-14T10:57:42Z</time>
            </trkpt>
            <trkpt lat="54.911490" lon="-8.310690">
                <time>2019-06-14T10:57:43Z</time>
            </trkpt>
            <trkpt lat="54.911280" lon="-8.310730">
                <time>2019-06-14T10:57:44Z</time>
            </trkpt>
            <trkpt lat="54.911070" lon="-8.310750">
                <time>2019-06-14T10:57:45Z</time>
            </trkpt>
            <trkpt lat="54.910870" lon="-8.310750">
                <time>2019-06-14T10:57:46Z</time>
            </trkpt>
            <trkpt lat="54.910670" lon="-8.310720">
                <time>2019-06-14T10:57:47Z</time>
            </trkpt>
            <trkpt lat="54.910460" lon="-8.310690">
                <time>2019-06-14T10:57:48Z</time>
            </trkpt>
            <trkpt lat="54.910250" lon="-8.310640">
                <time>2019-06-14T10:57:49Z</time>
            </trkpt>
            <trkpt lat="54.910030" lon="-8.310600">
                <time>2019-06-14T10:57:50Z</time>
            </trkpt>
            <trkpt lat="54.909800" lon="-8.310550">
                <time>2019-06-14T10:57:51Z</time>
            </trkpt>
            <trkpt lat="54.909570" lon="-8.310490">
                <time>2019-06-14T10:57:52Z</time>
            </trkpt>
            <trkpt lat="54.909320" lon="-8.310440">
                <time>2019-06-14T10:57:53Z</time>
            </trkpt>
            <trkpt lat="54.909080" lon="-8.310400">
                <time>2019-06-14T10:57:54Z</time>
            </trkpt>
            <trkpt lat="54.908830" lon="-8.310350">
                <time>2019-06-14T10:57:55Z</time>
            </trkpt>
            <trkpt lat="54.908600" lon="-8.310300">
                <time>2019-06-14T10:57:56Z</time>
            </trkpt>
            <trkpt lat="54.908370" lon="-8.310260">
                <time>2019-06-14T10:57:57Z</time>
            </trkpt>
            <trkpt lat="54.908140" lon="-8.310220">
                <time>2019-06-14T10:57:58Z</time>
            </trkpt>
            <trkpt lat="54.907910" lon="-8.310180">
                <time>2019-06-14T10:57:59Z</time>
            </trkpt>
            <trkpt lat="54.907670" lon="-8.310130">
                <time>2019-06-14T10:58:00Z</time>
            </trkpt>
            <trkpt lat="54.907440" lon="-8.310090">
                <time>2019-06-14T10:58:01Z</time>
            </trkpt>
            <trkpt lat="54.907200" lon="-8.310040">
                <time>2019-06-14T10:58:02Z</time>
            </trkpt>
            <trkpt lat="54.906960" lon="-8.309990">
                <time>2019-06-14T10:58:03Z</time>
            </trkpt>
            <trkpt lat="54.906710" lon="-8.309940">
                <time>2019-06-14T10:58:04Z</time>
            </trkpt>
            <trkpt lat="54.906460" lon="-8.309890">
                <time>2019-06-14T10:58:05Z</time>
            </trkpt>
            <trkpt lat="54.906210" lon="-8.309850">
                <time>2019-06-14T10:58:06Z</time>
            </trkpt>
            <trkpt lat="54.905970" lon="-8.309810">
                <time>2019-06-14T10:58:07Z</time>
            </trkpt>
            <trkpt lat="54.905750" lon="-8.309790">
                <time>2019-06-14T10:58:08Z</time>
            </trkpt>
            <trkpt lat="54.905520" lon="-8.309800">
                <time>2019-06-14T10:58:09Z</time>
            </trkpt>
            <trkpt lat="54.905310" lon="-8.309840">
                <time>2019-06-14T10:58:10Z</time>
            </trkpt>
            <trkpt lat="54.905100" lon="-8.309910">
                <time>2019-06-14T10:58:11Z</time>
            </trkpt>
            <trkpt lat="54.904890" lon="-8.309980">
                <time>2019-06-14T10:58:12Z</time>
            </trkpt>
            <trkpt lat="54.904670" lon="-8.310050">
                <time>2019-06-14T10:58:13Z</time>
            </trkpt>
            <trkpt lat="54.904430" lon="-8.310070">
                <time>2019-06-14T10:58:14Z</time>
            </trkpt>
            <trkpt lat="54.904180" lon="-8.310040">
                <time>2019-06-14T10:58:15Z</time>
            </trkpt>
            <trkpt lat="54.903920" lon="-8.309990">
                <time>2019-06-14T10:58:16Z</time>
            </trkpt>
            <trkpt lat="54.903660" lon="-8.309930">
                <time>2019-06-14T10:58:17Z</time>
            </trkpt>
            <trkpt lat="54.903390" lon="-8.309880">
                <time>2019-06-14T10:58:18Z</time>
            </trkpt>
            <trkpt lat="54.903130" lon="-8.309830">
                <time>2019-06-14T10:58:19Z</time>
            </trkpt>
            <trkpt lat="54.902860" lon="-8.309770">
                <time>2019-06-14T10:58:20Z</time>
            </trkpt>
            <trkpt lat="54.902590" lon="-8.309720">
                <time>2019-06-14T10:58:21Z</time>
            </trkpt>
            <trkpt lat="54.902320" lon="-8.309650">
                <time>2019-06-14T10:58:22Z</time>
            </trkpt>
            <trkpt lat="54.902050" lon="-8.309590">
                <time>2019-06-14T10:58:23Z</time>
            </trkpt>
            <trkpt lat="54.901790" lon="-8.309510">
                <time>2019-06-14T10:58:24Z</time>
            </trkpt>
            <trkpt lat="54.901530" lon="-8.309440">
                <time>2019-06-14T10:58:25Z</time>
            </trkpt>
            <trkpt lat="54.901270" lon="-8.309370">
                <time>2019-06-14T10:58:26Z</time>
            </trkpt>
            <trkpt lat="54.901010" lon="-8.309310">
                <time>2019-06-14T10:58:27Z</time>
            </trkpt>
            <trkpt lat="54.900770" lon="-8.309250">
                <time>2019-06-14T10:58:28Z</time>
            </trkpt>
            <trkpt lat="54.900540" lon="-8.309200">
                <time>2019-06-14T10:58:29Z</time>
            </trkpt>
            <trkpt lat="54.900310" lon="-8.309140">
                <time>2019-06-14T10:58:30Z</time>
            </trkpt>
            <trkpt lat="54.900080" lon="-8.309090">
                <time>2019-06-14T10:58:31Z</time>
            </trkpt>
            <trkpt lat="54.899850" lon="-8.309040">
                <time>2019-06-14T10:58:32Z</time>
            </trkpt>
            <trkpt lat="54.899610" lon="-8.309010">
                <time>2019-06-14T10:58:33Z</time>
            </trkpt>
            <trkpt lat="54.899380" lon="-8.309000">
                <time>2019-06-14T10:58:34Z</time>
            </trkpt>
            <trkpt lat="54.899140" lon="-8.308990">
                <time>2019-06-14T10:58:35Z</time>
            </trkpt>
            <trkpt lat="54.898900" lon="-8.308980">
                <time>2019-06-14T10:58:36Z</time>
            </trkpt>
            <trkpt lat="54.898680" lon="-8.308970">
                <time>2019-06-14T10:58:37Z</time>
            </trkpt>
            <trkpt lat="54.898460" lon="-8.308960">
                <time>2019-06-14T10:58:38Z</time>
            </trkpt>
            <trkpt lat="54.898240" lon="-8.308960">
                <time>2019-06-14T10:58:39Z</time>
            </trkpt>
            <trkpt lat="54.898020" lon="-8.308960">
                <time>2019-06-14T10:58:40Z</time>
            </trkpt>
            <trkpt lat="54.897820" lon="-8.308970">
                <time>2019-06-14T10:58:41Z</time>
            </trkpt>
            <trkpt lat="54.897630" lon="-8.308980">
                <time>2019-06-14T10:58:42Z</time>
            </trkpt>
            <trkpt lat="54.897440" lon="-8.308990">
                <time>2019-06-14T10:58:43Z</time>
            </trkpt>
            <trkpt lat="54.897260" lon="-8.309010">
                <time>2019-06-14T10:58:44Z</time>
            </trkpt>
            <trkpt lat="54.897080" lon="-8.309030">
                <time>2019-06-14T10:58:45Z</time>
            </trkpt>
            <trkpt lat="54.896880" lon="-8.309050">
                <time>2019-06-14T10:58:46Z</time>
            </trkpt>
            <trkpt lat="54.896670" lon="-8.309060">
                <time>2019-06-14T10:58:47Z</time>
            </trkpt>
            <trkpt lat="54.896470" lon="-8.309070">
                <time>2019-06-14T10:58:48Z</time>
            </trkpt>
            <trkpt lat="54.896260" lon="-8.309060">
                <time>2019-06-14T10:58:49Z</time>
            </trkpt>
            <trkpt lat="54.896040" lon="-8.309040">
                <time>2019-06-14T10:58:50Z</time>
            </trkpt>
            <trkpt lat="54.895830" lon="-8.309010">
                <time>2019-06-14T10:58:51Z</time>
            </trkpt>
            <trkpt lat="54.895640" lon="-8.308990">
                <time>2019-06-14T10:58:52Z</time>
            </trkpt>
            <trkpt lat="54.895440" lon="-8.308960">
                <time>2019-06-14T10:58:53Z</time>
            </trkpt>
            <trkpt lat="54.895250" lon="-8.308930">
                <time>2019-06-14T10:58:54Z</time>
            </trkpt>
            <trkpt lat="54.895050" lon="-8.308900">
                <time>2019-06-14T10:58:55Z</time>
            </trkpt>
            <trkpt lat="54.894860" lon="-8.308880">
                <time>2019-06-14T10:58:56Z</time>
            </trkpt>
            <trkpt lat="54.894660" lon="-8.308840">
                <time>2019-06-14T10:58:57Z</time>
            </trkpt>
            <trkpt lat="54.894470" lon="-8.308800">
                <time>2019-06-14T10:58:58Z</time>
            </trkpt>
            <trkpt lat="54.894270" lon="-8.308730">
                <time>2019-06-14T10:58:59Z</time>
            </trkpt>
            <trkpt lat="54.894070" lon="-8.308660">
                <time>2019-06-14T10:59:00Z</time>
            </trkpt>
            <trkpt lat="54.893880" lon="-8.308580">
                <time>2019-06-14T10:59:01Z</time>
            </trkpt>
            <trkpt lat="54.893700" lon="-8.308510">
                <time>2019-06-14T10:59:02Z</time>
            </trkpt>
            <trkpt lat="54.893530" lon="-8.308440">
                <time>2019-06-14T10:59:03Z</time>
            </trkpt>
            <trkpt lat="54.893360" lon="-8.308370">
                <time>2019-06-14T10:59:04Z</time>
            </trkpt>
            <trkpt lat="54.893210" lon="-8.308310">
                <time>2019-06-14T10:59:05Z</time>
            </trkpt>
            <trkpt lat="54.893050" lon="-8.308240">
                <time>2019-06-14T10:59:06Z</time>
            </trkpt>
            <trkpt lat="54.892890" lon="-8.308150">
                <time>2019-06-14T10:59:07Z</time>
            </trkpt>
            <trkpt lat="54.892730" lon="-8.308060">
                <time>2019-06-14T10:59:08Z</time>
            </trkpt>
            <trkpt lat="54.892580" lon="-8.307950">
                <time>2019-06-14T10:59:09Z</time>
            </trkpt>
            <trkpt lat="54.892450" lon="-8.307830">
                <time>2019-06-14T10:59:10Z</time>
            </trkpt>
            <trkpt lat="54.892310" lon="-8.307710">
                <time>2019-06-14T10:59:11Z</time>
            </trkpt>
            <trkpt lat="54.892190" lon="-8.307580">
                <time>2019-06-14T10:59:12Z</time>
            </trkpt>
            <trkpt lat="54.892070" lon="-8.307460">
                <time>2019-06-14T10:59:13Z</time>
            </trkpt>
            <trkpt lat="54.891960" lon="-8.307350">
                <time>2019-06-14T10:59:14Z</time>
            </trkpt>
            <trkpt lat="54.891860" lon="-8.307240">
                <time>2019-06-14T10:59:15Z</time>
            </trkpt>
            <trkpt lat="54.891760" lon="-8.307150">
                <time>2019-06-14T10:59:16Z</time>
            </trkpt>
            <trkpt lat="54.891680" lon="-8.307060">
                <time>2019-06-14T10:59:17Z</time>
            </trkpt>
            <trkpt lat="54.891600" lon="-8.306980">
                <time>2019-06-14T10:59:18Z</time>
            </trkpt>
            <trkpt lat="54.891520" lon="-8.306900">
                <time>2019-06-14T10:59:19Z</time>
            </trkpt>
            <trkpt lat="54.891450" lon="-8.306840">
                <time>2019-06-14T10:59:20Z</time>
            </trkpt>
            <trkpt lat="54.891390" lon="-8.306780">
                <time>2019-06-14T10:59:21Z</time>
            </trkpt>
            <trkpt lat="54.891320" lon="-8.306720">
                <time>2019-06-14T10:59:22Z</time>
            </trkpt>
            <trkpt lat="54.891260" lon="-8.306650">
                <time>2019-06-14T10:59:23Z</time>
            </trkpt>
            <trkpt lat="54.891200" lon="-8.306600">
                <time>2019-06-14T10:59:24Z</time>
            </trkpt>
            <trkpt lat="54.891150" lon="-8.306550">
                <time>2019-06-14T10:59:25Z</time>
            </trkpt>
            <trkpt lat="54.891110" lon="-8.306500">
                <time>2019-06-14T10:59:26Z</time>
            </trkpt>
            <trkpt lat="54.891070" lon="-8.306470">
                <time>2019-06-14T10:59:27Z</time>
            </trkpt>
            <trkpt lat="54.891040" lon="-8.306440">
                <time>2019-06-14T10:59:28Z</time>
            </trkpt>
            <trkpt lat="54.891010" lon="-8.306420">
                <time>2019-06-14T10:59:29Z</time>
            </trkpt>
            <trkpt lat="54.890970" lon="-8.306410">
                <time>2019-06-14T10:59:30Z</time>
            </trkpt>
            <trkpt lat="54.890940" lon="-8.306420">
                <time>2019-06-14T10:59:31Z</time>
            </trkpt>
            <trkpt lat="54.890900" lon="-8.306460">
                <time>2019-06-14T10:59:32Z</time>
            </trkpt>
            <trkpt lat="54.890860" lon="-8.306520">
                <time>2019-06-14T10:59:33Z</time>
            </trkpt>
            <trkpt lat="54.890830" lon="-8.306590">
                <time>2019-06-14T10:59:34Z</time>
            </trkpt>
            <trkpt lat="54.890810" lon="-8.306670">
                <time>2019-06-14T10:59:35Z</time>
            </trkpt>
            <trkpt lat="54.890790" lon="-8.306790">
                <time>2019-06-14T10:59:36Z</time>
            </trkpt>
            <trkpt lat="54.890780" lon="-8.306920">
                <time>2019-06-14T10:59:37Z</time>
            </trkpt>
            <trkpt lat="54.890790" lon="-8.307090">
                <time>2019-06-14T10:59:38Z</time>
            </trkpt>
            <trkpt lat="54.890810" lon="-8.307250">
                <time>2019-06-14T10:59:39Z</time>
            </trkpt>
            <trkpt lat="54.890860" lon="-8.307410">
                <time>2019-06-14T10:59:40Z</time>
            </trkpt>
            <trkpt lat="54.890910" lon="-8.307550">
                <time>2019-06-14T10:59:41Z</time>
            </trkpt>
            <trkpt lat="54.890980" lon="-8.307710">
                <time>2019-06-14T10:59:42Z</time>
            </trkpt>
            <trkpt lat="54.891040" lon="-8.307870">
                <time>2019-06-14T10:59:43Z</time>
            </trkpt>
            <trkpt lat="54.891090" lon="-8.308010">
                <time>2019-06-14T10:59:44Z</time>
            </trkpt>
            <trkpt lat="54.891150" lon="-8.308140">
                <time>2019-06-14T10:59:45Z</time>
            </trkpt>
            <trkpt lat="54.891200" lon="-8.308270">
                <time>2019-06-14T10:59:46Z</time>
            </trkpt>
            <trkpt lat="54.891250" lon="-8.308390">
                <time>2019-06-14T10:59:47Z</time>
            </trkpt>
            <trkpt lat="54.891300" lon="-8.308520">
                <time>2019-06-14T10:59:48Z</time>
            </trkpt>
            <trkpt lat="54.891360" lon="-8.308650">
                <time>2019-06-14T10:59:49Z</time>
            </trkpt>
            <trkpt lat="54.891420" lon="-8.308780">
                <time>2019-06-14T10:59:50Z</time>
            </trkpt>
            <trkpt lat="54.891480" lon="-8.308930">
                <time>2019-06-14T10:59:51Z</time>
            </trkpt>
            <trkpt lat="54.891540" lon="-8.309070">
                <time>2019-06-14T10:59:52Z</time>
            </trkpt>
            <trkpt lat="54.891600" lon="-8.309210">
                <time>2019-06-14T10:59:53Z</time>
            </trkpt>
            <trkpt lat="54.891650" lon="-8.309330">
                <time>2019-06-14T10:59:54Z</time>
            </trkpt>
            <trkpt lat="54.891700" lon="-8.309450">
                <time>2019-06-14T10:59:55Z</time>
            </trkpt>
            <trkpt lat="54.891750" lon="-8.309570">
                <time>2019-06-14T10:59:56Z</time>
            </trkpt>
            <trkpt lat="54.891800" lon="-8.309680">
                <time>2019-06-14T10:59:57Z</time>
            </trkpt>
            <trkpt lat="54.891840" lon="-8.309780">
                <time>2019-06-14T10:59:58Z</time>
            </trkpt>
            <trkpt lat="54.891880" lon="-8.309870">
                <time>2019-06-14T10:59:59Z</time>
            </trkpt>
            <trkpt lat="54.891920" lon="-8.309970">
                <time>2019-06-14T11:00:00Z</time>
            </trkpt>
            <trkpt lat="54.891960" lon="-8.310060">
                <time>2019-06-14T11:00:01Z</time>
            </trkpt>
            <trkpt lat="54.892000" lon="-8.310160">
                <time>2019-06-14T11:00:02Z</time>
            </trkpt>
            <trkpt lat="54.892040" lon="-8.310260">
                <time>2019-06-14T11:00:03Z</time>
            </trkpt>
            <trkpt lat="54.892090" lon="-8.310360">
                <time>2019-06-14T11:00:04Z</time>
            </trkpt>
            <trkpt lat="54.892130" lon="-8.310450">
                <time>2019-06-14T11:00:05Z</time>
            </trkpt>
            <trkpt lat="54.892160" lon="-8.310540">
                <time>2019-06-14T11:00:06Z</time>
            </trkpt>
            <trkpt lat="54.892200" lon="-8.310630">
                <time>2019-06-14T11:00:07Z</time>
            </trkpt>
            <trkpt lat="54.892230" lon="-8.310710">
                <time>2019-06-14T11:00:08Z</time>
            </trkpt>
            <trkpt lat="54.892270" lon="-8.310790">
                <time>2019-06-14T11:00:09Z</time>
            </trkpt>
            <trkpt lat="54.892320" lon="-8.310890">
                <time>2019-06-14T11:00:10Z</time>
            </trkpt>
            <trkpt lat="54.892360" lon="-8.310990">
                <time>2019-06-14T11:00:11Z</time>
            </trkpt>
            <trkpt lat="54.892420" lon="-8.311120">
                <time>2019-06-14T11:00:12Z</time>
            </trkpt>
            <trkpt lat="54.892480" lon="-8.311240">
                <time>2019-06-14T11:00:13Z</time>
            </trkpt>
            <trkpt lat="54.892530" lon="-8.311370">
                <time>2019-06-14T11:00:14Z</time>
            </trkpt>
            <trkpt lat="54.892580" lon="-8.311490">
                <time>2019-06-14T11:00:15Z</time>
            </trkpt>
            <trkpt lat="54.892630" lon="-8.311610">
                <time>2019-06-14T11:00:16Z</time>
            </trkpt>
            <trkpt lat="54.892680" lon="-8.311710">
                <time>2019-06-14T11:00:17Z</time>
            </trkpt>
            <trkpt lat="54.892730" lon="-8.311810">
                <time>2019-06-14T11:00:18Z</time>
            </trkpt>
            <trkpt lat="54.892780" lon="-8.311910">
                <time>2019-06-14T11:00:19Z</time>
            </trkpt>
            <trkpt lat="54.892830" lon="-8.312010">
                <time>2019-06-14T11:00:20Z</time>
            </trkpt>
            <trkpt lat="54.892860" lon="-8.312120">
                <time>2019-06-14T11:00:21Z</time>
            </trkpt>
            <trkpt lat="54.892870" lon="-8.312230">
                <time>2019-06-14T11:00:22Z</time>
            </trkpt>
            <trkpt lat="54.892870" lon="-8.312360">
                <time>2019-06-14T11:00:23Z</time>
            </trkpt>
            <trkpt lat="54.892850" lon="-8.312480">
                <time>2019-06-14T11:00:24Z</time>
            </trkpt>
            <trkpt lat="54.892820" lon="-8.312610">
                <time>2019-06-14T11:00:25Z</time>
            </trkpt>
            <trkpt lat="54.892800" lon="-8.312730">
                <time>2019-06-14T11:00:26Z</time>
            </trkpt>
            <trkpt lat="54.892790" lon="-8.312850">
                <time>2019-06-14T11:00:27Z</time>
            </trkpt>
            <trkpt lat="54.892810" lon="-8.312950">
                <time>2019-06-14T11:00:28Z</time>
            </trkpt>
            <trkpt lat="54.892840" lon="-8.313040">
                <time>2019-06-14T11:00:29Z</time>
            </trkpt>
            <trkpt lat="54.892880" lon="-8.313090">
                <time>2019-06-14T11:00:30Z</time>
            </trkpt>
            <trkpt lat="54.892920" lon="-8.313120">
                <time>2019-06-14T11:00:31Z</time>
            </trkpt>
            <trkpt lat="54.892950" lon="-8.313130">
                <time>2019-06-14T11:00:32Z</time>
            </trkpt>
            <trkpt lat="54.892990" lon="-8.313140">
                <time>2019-06-14T11:00:33Z</time>
            </trkpt>
            <trkpt lat="54.893030" lon="-8.313130">
                <time>2019-06-14T11:00:34Z</time>
            </trkpt>
            <trkpt lat="54.893090" lon="-8.313120">
                <time>2019-06-14T11:00:35Z</time>
            </trkpt>
            <trkpt lat="54.893150" lon="-8.313100">
                <time>2019-06-14T11:00:36Z</time>
            </trkpt>
            <trkpt lat="54.893220" lon="-8.313090">
                <time>2019-06-14T11:00:37Z</time>
            </trkpt>
            <trkpt lat="54.893290" lon="-8.313110">
                <time>2019-06-14T11:00:38Z</time>
            </trkpt>
            <trkpt lat="54.893360" lon="-8.313150">
                <time>2019-06-14T11:00:39Z</time>
            </trkpt>
            <trkpt lat="54.893420" lon="-8.313220">
                <time>2019-06-14T11:00:40Z</time>
            </trkpt>
            <trkpt lat="54.893480" lon="-8.313310">
                <time>2019-06-14T11:00:41Z</time>
            </trkpt>
            <trkpt lat="54.893530" lon="-8.313440">
                <time>2019-06-14T11:00:42Z</time>
            </trkpt>
            <trkpt lat="54.893590" lon="-8.313580">
                <time>2019-06-14T11:00:43Z</time>
            </trkpt>
            <trkpt lat="54.893650" lon="-8.313720">
                <time>2019-06-14T11:00:44Z</time>
            </trkpt>
            <trkpt lat="54.893710" lon="-8.313840">
                <time>2019-06-14T11:00:45Z</time>
            </trkpt>
            <trkpt lat="54.893770" lon="-8.313970">
                <time>2019-06-14T11:00:46Z</time>
            </trkpt>
            <trkpt lat="54.893830" lon="-8.314110">
                <time>2019-06-14T11:00:47Z</time>
            </trkpt>
            <trkpt lat="54.893900" lon="-8.314260">
                <time>2019-06-14T11:00:48Z</time>
            </trkpt>
            <trkpt lat="54.893970" lon="-8.314400">
                <time>2019-06-14T11:00:49Z</time>
            </trkpt>
            <trkpt lat="54.894030" lon="-8.314530">
                <time>2019-06-14T11:00:50Z</time>
            </trkpt>
            <trkpt lat="54.894090" lon="-8.314660">
                <time>2019-06-14T11:00:51Z</time>
            </trkpt>
            <trkpt lat="54.894150" lon="-8.314780">
                <time>2019-06-14T11:00:52Z</time>
            </trkpt>
            <trkpt lat="54.894210" lon="-8.314910">
                <time>2019-06-14T11:00:53Z</time>
            </trkpt>
            <trkpt lat="54.894270" lon="-8.315040">
                <time>2019-06-14T11:00:54Z</time>
            </trkpt>
            <trkpt lat="54.894340" lon="-8.315180">
                <time>2019-06-14T11:00:55Z</time>
            </trkpt>
            <trkpt lat="54.894400" lon="-8.315320">
                <time>2019-06-14T11:00:56Z</time>
            </trkpt>
            <trkpt lat="54.894470" lon="-8.315460">
                <time>2019-06-14T11:00:57Z</time>
            </trkpt>
            <trkpt lat="54.894520" lon="-8.315590">
                <time>2019-06-14T11:00:58Z</time>
            </trkpt>
            <trkpt lat="54.894580" lon="-8.315710">
                <time>2019-06-14T11:00:59Z</time>
            </trkpt>
            <trkpt lat="54.894640" lon="-8.315830">
                <time>2019-06-14T11:01:00Z</time>
            </trkpt>
            <trkpt lat="54.894700" lon="-8.315960">
                <time>2019-06-14T11:01:01Z</time>
            </trkpt>
            <trkpt lat="54.894760" lon="-8.316080">
                <time>2019-06-14T11:01:02Z</time>
            </trkpt>
            <trkpt lat="54.894830" lon="-8.316220">
                <time>2019-06-14T11:01:03Z</time>
            </trkpt>
            <trkpt lat="54.894900" lon="-8.316370">
                <time>2019-06-14T11:01:04Z</time>
            </trkpt>
            <trkpt lat="54.894970" lon="-8.316530">
                <time>2019-06-14T11:01:05Z</time>
            </trkpt>
            <trkpt lat="54.895050" lon="-8.316700">
                <time>2019-06-14T11:01:06Z</time>
            </trkpt>
            <trkpt lat="54.895130" lon="-8.316860">
                <time>2019-06-14T11:01:07Z</time>
            </trkpt>
            <trkpt lat="54.895210" lon="-8.317030">
                <time>2019-06-14T11:01:08Z</time>
            </trkpt>
            <trkpt lat="54.895300" lon="-8.317200">
                <time>2019-06-14T11:01:09Z</time>
            </trkpt>
            <trkpt lat="54.895380" lon="-8.317370">
                <time>2019-06-14T11:01:10Z</time>
            </trkpt>
            <trkpt lat="54.895470" lon="-8.317550">
                <time>2019-06-14T11:01:11Z</time>
            </trkpt>
            <trkpt lat="54.895560" lon="-8.317720">
                <time>2019-06-14T11:01:12Z</time>
            </trkpt>
            <trkpt lat="54.895640" lon="-8.317890">
                <time>2019-06-14T11:01:13Z</time>
            </trkpt>
            <trkpt lat="54.895710" lon="-8.318050">
                <time>2019-06-14T11:01:14Z</time>
            </trkpt>
            <trkpt lat="54.895790" lon="-8.318210">
                <time>2019-06-14T11:01:15Z</time>
            </trkpt>
            <trkpt lat="54.895870" lon="-8.318370">
                <time>2019-06-14T11:01:16Z</time>
            </trkpt>
            <trkpt lat="54.895940" lon="-8.318540">
                <time>2019-06-14T11:01:17Z</time>
            </trkpt>
            <trkpt lat="54.896020" lon="-8.318700">
                <time>2019-06-14T11:01:18Z</time>
            </trkpt>
            <trkpt lat="54.896100" lon="-8.318870">
                <time>2019-06-14T11:01:19Z</time>
            </trkpt>
            <trkpt lat="54.896190" lon="-8.319040">
                <time>2019-06-14T11:01:20Z</time>
            </trkpt>
            <trkpt lat="54.896270" lon="-8.319220">
                <time>2019-06-14T11:01:21Z</time>
            </trkpt>
            <trkpt lat="54.896360" lon="-8.319410">
                <time>2019-06-14T11:01:22Z</time>
            </trkpt>
            <trkpt lat="54.896450" lon="-8.319600">
                <time>2019-06-14T11:01:23Z</time>
            </trkpt>
            <trkpt lat="54.896530" lon="-8.319790">
                <time>2019-06-14T11:01:24Z</time>
            </trkpt>
            <trkpt lat="54.896620" lon="-8.319980">
                <time>2019-06-14T11:01:25Z</time>
            </trkpt>
            <trkpt lat="54.896710" lon="-8.320170">
                <time>2019-06-14T11:01:26Z</time>
            </trkpt>
            <trkpt lat="54.896790" lon="-8.320350">
                <time>2019-06-14T11:01:27Z</time>
            </trkpt>
            <trkpt lat="54.896870" lon="-8.320530">
                <time>2019-06-14T11:01:28Z</time>
            </trkpt>
            <trkpt lat="54.896950" lon="-8.320720">
                <time>2019-06-14T11:01:29Z</time>
            </trkpt>
            <trkpt lat="54.897020" lon="-8.320900">
                <time>2019-06-14T11:01:30Z</time>
            </trkpt>
            <trkpt lat="54.897110" lon="-8.321110">
                <time>2019-06-14T11:01:31Z</time>
            </trkpt>
            <trkpt lat="54.897210" lon="-8.321320">
                <time>2019-06-14T11:01:32Z</time>
            </trkpt>
            <trkpt lat="54.897290" lon="-8.321500">
                <time>2019-06-14T11:01:33Z</time>
            </trkpt>
            <trkpt lat="54.897360" lon="-8.321660">
                <time>2019-06-14T11:01:34Z</time>
            </trkpt>
            <trkpt lat="54.897420" lon="-8.321800">
                <time>2019-06-14T11:01:35Z</time>
            </trkpt>
            <trkpt lat="54.897460" lon="-8.321910">
                <time>2019-06-14T11:01:36Z</time>
            </trkpt>
            <trkpt lat="54.897510" lon="-8.322010">
                <time>2019-06-14T11:01:37Z</time>
            </trkpt>
            <trkpt lat="54.897560" lon="-8.322090">
                <time>2019-06-14T11:01:38Z</time>
            </trkpt>
            <trkpt lat="54.897620" lon="-8.322170">
                <time>2019-06-14T11:01:39Z</time>
            </trkpt>
            <trkpt lat="54.897690" lon="-8.322270">
                <time>2019-06-14T11:01:40Z</time>
            </trkpt>
            <trkpt lat="54.897770" lon="-8.322370">
                <time>2019-06-14T11:01:41Z</time>
            </trkpt>
            <trkpt lat="54.897860" lon="-8.322480">
                <time>2019-06-14T11:01:42Z</time>
            </trkpt>
            <trkpt lat="54.897970" lon="-8.322610">
                <time>2019-06-14T11:01:43Z</time>
            </trkpt>
            <trkpt lat="54.898070" lon="-8.322730">
                <time>2019-06-14T11:01:44Z</time>
            </trkpt>
            <trkpt lat="54.898180" lon="-8.322860">
                <time>2019-06-14T11:01:45Z</time>
            </trkpt>
            <trkpt lat="54.898290" lon="-8.323000">
                <time>2019-06-14T11:01:46Z</time>
            </trkpt>
            <trkpt lat="54.898400" lon="-8.323130">
                <time>2019-06-14T11:01:47Z</time>
            </trkpt>
            <trkpt lat="54.898510" lon="-8.323260">
                <time>2019-06-14T11:01:48Z</time>
            </trkpt>
            <trkpt lat="54.898630" lon="-8.323380">
                <time>2019-06-14T11:01:49Z</time>
            </trkpt>
            <trkpt lat="54.898760" lon="-8.323510">
                <time>2019-06-14T11:01:50Z</time>
            </trkpt>
            <trkpt lat="54.898890" lon="-8.323650">
                <time>2019-06-14T11:01:51Z</time>
            </trkpt>
            <trkpt lat="54.899020" lon="-8.323770">
                <time>2019-06-14T11:01:52Z</time>
            </trkpt>
            <trkpt lat="54.899150" lon="-8.323880">
                <time>2019-06-14T11:01:53Z</time>
            </trkpt>
            <trkpt lat="54.899280" lon="-8.324000">
                <time>2019-06-14T11:01:54Z</time>
            </trkpt>
            <trkpt lat="54.899400" lon="-8.324120">
                <time>2019-06-14T11:01:55Z</time>
            </trkpt>
            <trkpt lat="54.899520" lon="-8.324250">
                <time>2019-06-14T11:01:56Z</time>
            </trkpt>
            <trkpt lat="54.899620" lon="-8.324380">
                <time>2019-06-14T11:01:57Z</time>
            </trkpt>
            <trkpt lat="54.899720" lon="-8.324520">
                <time>2019-06-14T11:01:58Z</time>
            </trkpt>
            <trkpt lat="54.899820" lon="-8.324660">
                <time>2019-06-14T11:01:59Z</time>
            </trkpt>
            <trkpt lat="54.899920" lon="-8.324810">
                <time>2019-06-14T11:02:00Z</time>
            </trkpt>
            <trkpt lat="54.900020" lon="-8.324960">
                <time>2019-06-14T11:02:01Z</time>
            </trkpt>
            <trkpt lat="54.900100" lon="-8.325110">
                <time>2019-06-14T11:02:02Z</time>
            </trkpt>
            <trkpt lat="54.900190" lon="-8.325260">
                <time>2019-06-14T11:02:03Z</time>
            </trkpt>
            <trkpt lat="54.900270" lon="-8.325400">
                <time>2019-06-14T11:02:04Z</time>
            </trkpt>
            <trkpt lat="54.900340" lon="-8.325530">
                <time>2019-06-14T11:02:05Z</time>
            </trkpt>
            <trkpt lat="54.900410" lon="-8.325650">
                <time>2019-06-14T11:02:06Z</time>
            </trkpt>
            <trkpt lat="54.900480" lon="-8.325780">
                <time>2019-06-14T11:02:07Z</time>
            </trkpt>
            <trkpt lat="54.900540" lon="-8.325900">
                <time>2019-06-14T11:02:08Z</time>
            </trkpt>
            <trkpt lat="54.900610" lon="-8.326030">
                <time>2019-06-14T11:02:09Z</time>
            </trkpt>
            <trkpt lat="54.900680" lon="-8.326180">
                <time>2019-06-14T11:02:10Z</time>
            </trkpt>
            <trkpt lat="54.900750" lon="-8.326330">
                <time>2019-06-14T11:02:11Z</time>
            </trkpt>
            <trkpt lat="54.900840" lon="-8.326470">
                <time>2019-06-14T11:02:12Z</time>
            </trkpt>
            <trkpt lat="54.900930" lon="-8.326600">
                <time>2019-06-14T11:02:13Z</time>
            </trkpt>
            <trkpt lat="54.901020" lon="-8.326730">
                <time>2019-06-14T11:02:14Z</time>
            </trkpt>
            <trkpt lat="54.901110" lon="-8.326870">
                <time>2019-06-14T11:02:15Z</time>
            </trkpt>
            <trkpt lat="54.901200" lon="-8.326990">
                <time>2019-06-14T11:02:16Z</time>
            </trkpt>
            <trkpt lat="54.901280" lon="-8.327120">
                <time>2019-06-14T11:02:17Z</time>
            </trkpt>
            <trkpt lat="54.901370" lon="-8.327250">
                <time>2019-06-14T11:02:18Z</time>
            </trkpt>
            <trkpt lat="54.901460" lon="-8.327380">
                <time>2019-06-14T11:02:19Z</time>
            </trkpt>
            <trkpt lat="54.901550" lon="-8.327510">
                <time>2019-06-14T11:02:20Z</time>
            </trkpt>
            <trkpt lat="54.901630" lon="-8.327640">
                <time>2019-06-14T11:02:21Z</time>
            </trkpt>
            <trkpt lat="54.901720" lon="-8.327760">
                <time>2019-06-14T11:02:22Z</time>
            </trkpt>
            <trkpt lat="54.901800" lon="-8.327890">
                <time>2019-06-14T11:02:23Z</time>
            </trkpt>
            <trkpt lat="54.901880" lon="-8.328010">
                <time>2019-06-14T11:02:24Z</time>
            </trkpt>
            <trkpt lat="54.901970" lon="-8.328140">
                <time>2019-06-14T11:02:25Z</time>
            </trkpt>
            <trkpt lat="54.902050" lon="-8.328250">
                <time>2019-06-14T11:02:26Z</time>
            </trkpt>
            <trkpt lat="54.902120" lon="-8.328360">
                <time>2019-06-14T11:02:27Z</time>
            </trkpt>
            <trkpt lat="54.902190" lon="-8.328470">
                <time>2019-06-14T11:02:28Z</time>
            </trkpt>
            <trkpt lat="54.902260" lon="-8.328610">
                <time>2019-06-14T11:02:29Z</time>
            </trkpt>
            <trkpt lat="54.902340" lon="-8.328750">
                <time>2019-06-14T11:02:30Z</time>
            </trkpt>
            <trkpt lat="54.902410" lon="-8.328890">
                <time>2019-06-14T11:02:31Z</time>
            </trkpt>
            <trkpt lat="54.902470" lon="-8.329030">
                <time>2019-06-14T11:02:32Z</time>
            </trkpt>
            <trkpt lat="54.902550" lon="-8.329170">
                <time>2019-06-14T11:02:33Z</time>
            </trkpt>
            <trkpt lat="54.902630" lon="-8.329310">
                <time>2019-06-14T11:02:34Z</time>
            </trkpt>
            <trkpt lat="54.902710" lon="-8.329480">
                <time>2019-06-14T11:02:35Z</time>
            </trkpt>
            <trkpt lat="54.902810" lon="-8.329660">
                <time>2019-06-14T11:02:36Z</time>
            </trkpt>
            <trkpt lat="54.902910" lon="-8.329850">
                <time>2019-06-14T11:02:37Z</time>
            </trkpt>
            <trkpt lat="54.903010" lon="-8.330050">
                <time>2019-06-14T11:02:38Z</time>
            </trkpt>
            <trkpt lat="54.903110" lon="-8.330240">
                <time>2019-06-14T11:02:39Z</time>
            </trkpt>
            <trkpt lat="54.903210" lon="-8.330420">
                <time>2019-06-14T11:02:40Z</time>
            </trkpt>
            <trkpt lat="54.903300" lon="-8.330590">
                <time>2019-06-14T11:02:41Z</time>
            </trkpt>
            <trkpt lat="54.903390" lon="-8.330750">
                <time>2019-06-14T11:02:42Z</time>
            </trkpt>
            <trkpt lat="54.903470" lon="-8.330910">
                <time>2019-06-14T11:02:43Z</time>
            </trkpt>
            <trkpt lat="54.903550" lon="-8.331060">
                <time>2019-06-14T11:02:44Z</time>
            </trkpt>
            <trkpt lat="54.903620" lon="-8.331210">
                <time>2019-06-14T11:02:45Z</time>
            </trkpt>
            <trkpt lat="54.903680" lon="-8.331340">
                <time>2019-06-14T11:02:46Z</time>
            </trkpt>
            <trkpt lat="54.903740" lon="-8.331470">
                <time>2019-06-14T11:02:47Z</time>
            </trkpt>
            <trkpt lat="54.903810" lon="-8.331600">
                <time>2019-06-14T11:02:48Z</time>
            </trkpt>
            <trkpt lat="54.903870" lon="-8.331730">
                <time>2019-06-14T11:02:49Z</time>
            </trkpt>
            <trkpt lat="54.903950" lon="-8.331870">
                <time>2019-06-14T11:02:50Z</time>
            </trkpt>
            <trkpt lat="54.904030" lon="-8.332020">
                <time>2019-06-14T11:02:51Z</time>
            </trkpt>
            <trkpt lat="54.904110" lon="-8.332180">
                <time>2019-06-14T11:02:52Z</time>
            </trkpt>
            <trkpt lat="54.904200" lon="-8.332340">
                <time>2019-06-14T11:02:53Z</time>
            </trkpt>
            <trkpt lat="54.904290" lon="-8.332510">
                <time>2019-06-14T11:02:54Z</time>
            </trkpt>
            <trkpt lat="54.904370" lon="-8.332680">
                <time>2019-06-14T11:02:55Z</time>
            </trkpt>
            <trkpt lat="54.904450" lon="-8.332840">
                <time>2019-06-14T11:02:56Z</time>
            </trkpt>
            <trkpt lat="54.904540" lon="-8.332990">
                <time>2019-06-14T11:02:57Z</time>
            </trkpt>
            <trkpt lat="54.904620" lon="-8.333130">
                <time>2019-06-14T11:02:58Z</time>
            </trkpt>
            <trkpt lat="54.904700" lon="-8.333290">
                <time>2019-06-14T11:02:59Z</time>
            </trkpt>
            <trkpt lat="54.904780" lon="-8.333450">
                <time>2019-06-14T11:03:00Z</time>
            </trkpt>
            <trkpt lat="54.904870" lon="-8.333640">
                <time>2019-06-14T11:03:01Z</time>
            </trkpt>
            <trkpt lat="54.904980" lon="-8.333850">
                <time>2019-06-14T11:03:02Z</time>
            </trkpt>
            <trkpt lat="54.905090" lon="-8.334060">
                <time>2019-06-14T11:03:03Z</time>
            </trkpt>
            <trkpt lat="54.905190" lon="-8.334260">
                <time>2019-06-14T11:03:04Z</time>
            </trkpt>
            <trkpt lat="54.905290" lon="-8.334450">
                <time>2019-06-14T11:03:05Z</time>
            </trkpt>
            <trkpt lat="54.905390" lon="-8.334630">
                <time>2019-06-14T11:03:06Z</time>
            </trkpt>
            <trkpt lat="54.905500" lon="-8.334820">
                <time>2019-06-14T11:03:07Z</time>
            </trkpt>
            <trkpt lat="54.905600" lon="-8.335010">
                <time>2019-06-14T11:03:08Z</time>
            </trkpt>
            <trkpt lat="54.905710" lon="-8.335200">
                <time>2019-06-14T11:03:09Z</time>
            </trkpt>
            <trkpt lat="54.905800" lon="-8.335390">
                <time>2019-06-14T11:03:10Z</time>
            </trkpt>
            <trkpt lat="54.905890" lon="-8.335560">
                <time>2019-06-14T11:03:11Z</time>
            </trkpt>
            <trkpt lat="54.905980" lon="-8.335710">
                <time>2019-06-14T11:03:12Z</time>
            </trkpt>
            <trkpt lat="54.906070" lon="-8.335830">
                <time>2019-06-14T11:03:13Z</time>
            </trkpt>
            <trkpt lat="54.906180" lon="-8.335920">
                <time>2019-06-14T11:03:14Z</time>
            </trkpt>
            <trkpt lat="54.906300" lon="-8.335990">
                <time>2019-06-14T11:03:15Z</time>
            </trkpt>
            <trkpt lat="54.906420" lon="-8.336050">
                <time>2019-06-14T11:03:16Z</time>
            </trkpt>
            <trkpt lat="54.906540" lon="-8.336100">
                <time>2019-06-14T11:03:17Z</time>
            </trkpt>
            <trkpt lat="54.906660" lon="-8.336140">
                <time>2019-06-14T11:03:18Z</time>
            </trkpt>
            <trkpt lat="54.906790" lon="-8.336190">
                <time>2019-06-14T11:03:19Z</time>
            </trkpt>
            <trkpt lat="54.906930" lon="-8.336240">
                <time>2019-06-14T11:03:20Z</time>
            </trkpt>
            <trkpt lat="54.907060" lon="-8.336280">
                <time>2019-06-14T11:03:21Z</time>
            </trkpt>
            <trkpt lat="54.907200" lon="-8.336330">
                <time>2019-06-14T11:03:22Z</time>
            </trkpt>
            <trkpt lat="54.907330" lon="-8.336380">
                <time>2019-06-14T11:03:23Z</time>
            </trkpt>
            <trkpt lat="54.907470" lon="-8.336430">
                <time>2019-06-14T11:03:24Z</time>
            </trkpt>
            <trkpt lat="54.907590" lon="-8.336470">
                <time>2019-06-14T11:03:25Z</time>
            </trkpt>
            <trkpt lat="54.907710" lon="-8.336520">
                <time>2019-06-14T11:03:26Z</time>
            </trkpt>
            <trkpt lat="54.907840" lon="-8.336560">
                <time>2019-06-14T11:03:27Z</time>
            </trkpt>
            <trkpt lat="54.907980" lon="-8.336610">
                <time>2019-06-14T11:03:28Z</time>
            </trkpt>
            <trkpt lat="54.908090" lon="-8.336650">
                <time>2019-06-14T11:03:29Z</time>
            </trkpt>
            <trkpt lat="54.908190" lon="-8.336680">
                <time>2019-06-14T11:03:30Z</time>
            </trkpt>
            <trkpt lat="54.908250" lon="-8.336700">
                <time>2019-06-14T11:03:31Z</time>
            </trkpt>
            <trkpt lat="54.908310" lon="-8.336710">
                <time>2019-06-14T11:03:32Z</time>
            </trkpt>
            <trkpt lat="54.908360" lon="-8.336730">
                <time>2019-06-14T11:03:33Z</time>
            </trkpt>
            <trkpt lat="54.908410" lon="-8.336760">
                <time>2019-06-14T11:03:34Z</time>
            </trkpt>
            <trkpt lat="54.908480" lon="-8.336790">
                <time>2019-06-14T11:03:35Z</time>
            </trkpt>
            <trkpt lat="54.908550" lon="-8.336850">
                <time>2019-06-14T11:03:36Z</time>
            </trkpt>
            <trkpt lat="54.908640" lon="-8.336930">
                <time>2019-06-14T11:03:37Z</time>
            </trkpt>
            <trkpt lat="54.908720" lon="-8.337020">
                <time>2019-06-14T11:03:38Z</time>
            </trkpt>
            <trkpt lat="54.908810" lon="-8.337110">
                <time>2019-06-14T11:03:39Z</time>
            </trkpt>
            <trkpt lat="54.908900" lon="-8.337220">
                <time>2019-06-14T11:03:40Z</time>
            </trkpt>
            <trkpt lat="54.909000" lon="-8.337340">
                <time>2019-06-14T11:03:41Z</time>
            </trkpt>
            <trkpt lat="54.909110" lon="-8.337450">
                <time>2019-06-14T11:03:42Z</time>
            </trkpt>
            <trkpt lat="54.909220" lon="-8.337570">
                <time>2019-06-14T11:03:43Z</time>
            </trkpt>
            <trkpt lat="54.909340" lon="-8.337690">
                <time>2019-06-14T11:03:44Z</time>
            </trkpt>
            <trkpt lat="54.909460" lon="-8.337810">
                <time>2019-06-14T11:03:45Z</time>
            </trkpt>
            <trkpt lat="54.909580" lon="-8.337940">
                <time>2019-06-14T11:03:46Z</time>
            </trkpt>
            <trkpt lat="54.909710" lon="-8.338090">
                <time>2019-06-14T11:03:47Z</time>
            </trkpt>
            <trkpt lat="54.909830" lon="-8.338230">
                <time>2019-06-14T11:03:48Z</time>
            </trkpt>
            <trkpt lat="54.909950" lon="-8.338360">
                <time>2019-06-14T11:03:49Z</time>
            </trkpt>
            <trkpt lat="54.910060" lon="-8.338490">
                <time>2019-06-14T11:03:50Z</time>
            </trkpt>
            <trkpt lat="54.910160" lon="-8.338600">
                <time>2019-06-14T11:03:51Z</time>
            </trkpt>
            <trkpt lat="54.910240" lon="-8.338690">
                <time>2019-06-14T11:03:52Z</time>
            </trkpt>
            <trkpt lat="54.910310" lon="-8.338770">
                <time>2019-06-14T11:03:53Z</time>
            </trkpt>
            <trkpt lat="54.910390" lon="-8.338850">
                <time>2019-06-14T11:03:54Z</time>
            </trkpt>
            <trkpt lat="54.910480" lon="-8.338960">
                <time>2019-06-14T11:03:55Z</time>
            </trkpt>
            <trkpt lat="54.910570" lon="-8.339080">
                <time>2019-06-14T11:03:56Z</time>
            </trkpt>
            <trkpt lat="54.910650" lon="-8.339190">
                <time>2019-06-14T11:03:57Z</time>
            </trkpt>
            <trkpt lat="54.910730" lon="-8.339300">
                <time>2019-06-14T11:03:58Z</time>
            </trkpt>
            <trkpt lat="54.910820" lon="-8.339420">
                <time>2019-06-14T11:03:59Z</time>
            </trkpt>
            <trkpt lat="54.910900" lon="-8.339520">
                <time>2019-06-14T11:04:00Z</time>
            </trkpt>
            <trkpt lat="54.910980" lon="-8.339620">
                <time>2019-06-14T11:04:01Z</time>
            </trkpt>
            <trkpt lat="54.911060" lon="-8.339730">
                <time>2019-06-14T11:04:02Z</time>
            </trkpt>
            <trkpt lat="54.911160" lon="-8.339850">
                <time>2019-06-14T11:04:03Z</time>
            </trkpt>
            <trkpt lat="54.911250" lon="-8.339970">
                <time>2019-06-14T11:04:04Z</time>
            </trkpt>
            <trkpt lat="54.911340" lon="-8.340080">
                <time>2019-06-14T11:04:05Z</time>
            </trkpt>
            <trkpt lat="54.911410" lon="-8.340200">
                <time>2019-06-14T11:04:06Z</time>
            </trkpt>
            <trkpt lat="54.911470" lon="-8.340330">
                <time>2019-06-14T11:04:07Z</time>
            </trkpt>
            <trkpt lat="54.911510" lon="-8.340490">
                <time>2019-06-14T11:04:08Z</time>
            </trkpt>
            <trkpt lat="54.911550" lon="-8.340670">
                <time>2019-06-14T11:04:09Z</time>
            </trkpt>
            <trkpt lat="54.911570" lon="-8.340860">
                <time>2019-06-14T11:04:10Z</time>
            </trkpt>
            <trkpt lat="54.911600" lon="-8.341050">
                <time>2019-06-14T11:04:11Z</time>
            </trkpt>
            <trkpt lat="54.911620" lon="-8.341260">
                <time>2019-06-14T11:04:12Z</time>
            </trkpt>
            <trkpt lat="54.911630" lon="-8.341490">
                <time>2019-06-14T11:04:13Z</time>
            </trkpt>
            <trkpt lat="54.911650" lon="-8.341720">
                <time>2019-06-14T11:04:14Z</time>
            </trkpt>
            <trkpt lat="54.911660" lon="-8.341940">
                <time>2019-06-14T11:04:15Z</time>
            </trkpt>
            <trkpt lat="54.911690" lon="-8.342160">
                <time>2019-06-14T11:04:16Z</time>
            </trkpt>
            <trkpt lat="54.911710" lon="-8.342360">
                <time>2019-06-14T11:04:17Z</time>
            </trkpt>
            <trkpt lat="54.911750" lon="-8.342550">
                <time>2019-06-14T11:04:18Z</time>
            </trkpt>
            <trkpt lat="54.911800" lon="-8.342740">
                <time>2019-06-14T11:04:19Z</time>
            </trkpt>
            <trkpt lat="54.911850" lon="-8.342920">
                <time>2019-06-14T11:04:20Z</time>
            </trkpt>
            <trkpt lat="54.911910" lon="-8.343070">
                <time>2019-06-14T11:04:21Z</time>
            </trkpt>
            <trkpt lat="54.911970" lon="-8.343220">
                <time>2019-06-14T11:04:22Z</time>
            </trkpt>
            <trkpt lat="54.912050" lon="-8.343360">
                <time>2019-06-14T11:04:23Z</time>
            </trkpt>
            <trkpt lat="54.912160" lon="-8.343520">
                <time>2019-06-14T11:04:24Z</time>
            </trkpt>
            <trkpt lat="54.912280" lon="-8.343680">
                <time>2019-06-14T11:04:25Z</time>
            </trkpt>
            <trkpt lat="54.912410" lon="-8.343830">
                <time>2019-06-14T11:04:26Z</time>
            </trkpt>
            <trkpt lat="54.912540" lon="-8.343970">
                <time>2019-06-14T11:04:27Z</time>
            </trkpt>
            <trkpt lat="54.912670" lon="-8.344100">
                <time>2019-06-14T11:04:28Z</time>
            </trkpt>
            <trkpt lat="54.912810" lon="-8.344240">
                <time>2019-06-14T11:04:29Z</time>
            </trkpt>
            <trkpt lat="54.912950" lon="-8.344380">
                <time>2019-06-14T11:04:30Z</time>
            </trkpt>
            <trkpt lat="54.913090" lon="-8.344520">
                <time>2019-06-14T11:04:31Z</time>
            </trkpt>
            <trkpt lat="54.913230" lon="-8.344650">
                <time>2019-06-14T11:04:32Z</time>
            </trkpt>
            <trkpt lat="54.913380" lon="-8.344790">
                <time>2019-06-14T11:04:33Z</time>
            </trkpt>
            <trkpt lat="54.913540" lon="-8.344940">
                <time>2019-06-14T11:04:34Z</time>
            </trkpt>
            <trkpt lat="54.913710" lon="-8.345090">
                <time>2019-06-14T11:04:35Z</time>
            </trkpt>
            <trkpt lat="54.913890" lon="-8.345240">
                <time>2019-06-14T11:04:36Z</time>
            </trkpt>
            <trkpt lat="54.914080" lon="-8.345390">
                <time>2019-06-14T11:04:37Z</time>
            </trkpt>
            <trkpt lat="54.914260" lon="-8.345540">
                <time>2019-06-14T11:04:38Z</time>
            </trkpt>
            <trkpt lat="54.914440" lon="-8.345690">
                <time>2019-06-14T11:04:39Z</time>
            </trkpt>
            <trkpt lat="54.914620" lon="-8.345830">
                <time>2019-06-14T11:04:40Z</time>
            </trkpt>
            <trkpt lat="54.914800" lon="-8.345970">
                <time>2019-06-14T11:04:41Z</time>
            </trkpt>
            <trkpt lat="54.914970" lon="-8.346090">
                <time>2019-06-14T11:04:42Z</time>
            </trkpt>
            <trkpt lat="54.915130" lon="-8.346220">
                <time>2019-06-14T11:04:43Z</time>
            </trkpt>
            <trkpt lat="54.915280" lon="-8.346350">
                <time>2019-06-14T11:04:44Z</time>
            </trkpt>
            <trkpt lat="54.915440" lon="-8.346470">
                <time>2019-06-14T11:04:45Z</time>
            </trkpt>
            <trkpt lat="54.915580" lon="-8.346590">
                <time>2019-06-14T11:04:46Z</time>
            </trkpt>
            <trkpt lat="54.915730" lon="-8.346700">
                <time>2019-06-14T11:04:47Z</time>
            </trkpt>
            <trkpt lat="54.915860" lon="-8.346810">
                <time>2019-06-14T11:04:48Z</time>
            </trkpt>
            <trkpt lat="54.915980" lon="-8.346910">
                <time>2019-06-14T11:04:49Z</time>
            </trkpt>
            <trkpt lat="54.916100" lon="-8.347010">
                <time>2019-06-14T11:04:50Z</time>
            </trkpt>
            <trkpt lat="54.916220" lon="-8.347100">
                <time>2019-06-14T11:04:51Z</time>
            </trkpt>
            <trkpt lat="54.916350" lon="-8.347200">
                <time>2019-06-14T11:04:52Z</time>
            </trkpt>
            <trkpt lat="54.916470" lon="-8.347300">
                <time>2019-06-14T11:04:53Z</time>
            </trkpt>
            <trkpt lat="54.916600" lon="-8.347400">
                <time>2019-06-14T11:04:54Z</time>
            </trkpt>
            <trkpt lat="54.916730" lon="-8.347500">
                <time>2019-06-14T11:04:55Z</time>
            </trkpt>
            <trkpt lat="54.916860" lon="-8.347610">
                <time>2019-06-14T11:04:56Z</time>
            </trkpt>
            <trkpt lat="54.916990" lon="-8.347720">
                <time>2019-06-14T11:04:57Z</time>
            </trkpt>
            <trkpt lat="54.917130" lon="-8.347830">
                <time>2019-06-14T11:04:58Z</time>
            </trkpt>
            <trkpt lat="54.917260" lon="-8.347940">
                <time>2019-06-14T11:04:59Z</time>
            </trkpt>
            <trkpt lat="54.917400" lon="-8.348050">
                <time>2019-06-14T11:05:00Z</time>
            </trkpt>
            <trkpt lat="54.917530" lon="-8.348160">
                <time>2019-06-14T11:05:01Z</time>
            </trkpt>
            <trkpt lat="54.917670" lon="-8.348270">
                <time>2019-06-14T11:05:02Z</time>
            </trkpt>
            <trkpt lat="54.917800" lon="-8.348380">
                <time>2019-06-14T11:05:03Z</time>
            </trkpt>
            <trkpt lat="54.917930" lon="-8.348490">
                <time>2019-06-14T11:05:04Z</time>
            </trkpt>
            <trkpt lat="54.918060" lon="-8.348590">
                <time>2019-06-14T11:05:05Z</time>
            </trkpt>
            <trkpt lat="54.918190" lon="-8.348700">
                <time>2019-06-14T11:05:06Z</time>
            </trkpt>
            <trkpt lat="54.918320" lon="-8.348810">
                <time>2019-06-14T11:05:07Z</time>
            </trkpt>
            <trkpt lat="54.918450" lon="-8.348910">
                <time>2019-06-14T11:05:08Z</time>
            </trkpt>
            <trkpt lat="54.918570" lon="-8.349020">
                <time>2019-06-14T11:05:09Z</time>
            </trkpt>
            <trkpt lat="54.918700" lon="-8.349120">
                <time>2019-06-14T11:05:10Z</time>
            </trkpt>
            <trkpt lat="54.918820" lon="-8.349230">
                <time>2019-06-14T11:05:11Z</time>
            </trkpt>
            <trkpt lat="54.918950" lon="-8.349340">
                <time>2019-06-14T11:05:12Z</time>
            </trkpt>
            <trkpt lat="54.919090" lon="-8.349450">
                <time>2019-06-14T11:05:13Z</time>
            </trkpt>
            <trkpt lat="54.919220" lon="-8.349550">
                <time>2019-06-14T11:05:14Z</time>
            </trkpt>
            <trkpt lat="54.919360" lon="-8.349660">
                <time>2019-06-14T11:05:15Z</time>
            </trkpt>
            <trkpt lat="54.919510" lon="-8.349770">
                <time>2019-06-14T11:05:16Z</time>
            </trkpt>
            <trkpt lat="54.919660" lon="-8.349890">
                <time>2019-06-14T11:05:17Z</time>
            </trkpt>
            <trkpt lat="54.919810" lon="-8.350020">
                <time>2019-06-14T11:05:18Z</time>
            </trkpt>
            <trkpt lat="54.919970" lon="-8.350150">
                <time>2019-06-14T11:05:19Z</time>
            </trkpt>
            <trkpt lat="54.920120" lon="-8.350270">
                <time>2019-06-14T11:05:20Z</time>
            </trkpt>
            <trkpt lat="54.920270" lon="-8.350390">
                <time>2019-06-14T11:05:21Z</time>
            </trkpt>
            <trkpt lat="54.920410" lon="-8.350510">
                <time>2019-06-14T11:05:22Z</time>
            </trkpt>
            <trkpt lat="54.920540" lon="-8.350610">
                <time>2019-06-14T11:05:23Z</time>
            </trkpt>
            <trkpt lat="54.920680" lon="-8.350720">
                <time>2019-06-14T11:05:24Z</time>
            </trkpt>
            <trkpt lat="54.920810" lon="-8.350840">
                <time>2019-06-14T11:05:25Z</time>
            </trkpt>
            <trkpt lat="54.920950" lon="-8.350950">
                <time>2019-06-14T11:05:26Z</time>
            </trkpt>
            <trkpt lat="54.921090" lon="-8.351060">
                <time>2019-06-14T11:05:27Z</time>
            </trkpt>
            <trkpt lat="54.921230" lon="-8.351180">
                <time>2019-06-14T11:05:28Z</time>
            </trkpt>
            <trkpt lat="54.921370" lon="-8.351290">
                <time>2019-06-14T11:05:29Z</time>
            </trkpt>
            <trkpt lat="54.921510" lon="-8.351400">
                <time>2019-06-14T11:05:30Z</time>
            </trkpt>
            <trkpt lat="54.921650" lon="-8.351520">
                <time>2019-06-14T11:05:31Z</time>
            </trkpt>
            <trkpt lat="54.921800" lon="-8.351640">
                <time>2019-06-14T11:05:32Z</time>
            </trkpt>
            <trkpt lat="54.921940" lon="-8.351760">
                <time>2019-06-14T11:05:33Z</time>
            </trkpt>
            <trkpt lat="54.922080" lon="-8.351880">
                <time>2019-06-14T11:05:34Z</time>
            </trkpt>
            <trkpt lat="54.922220" lon="-8.351990">
                <time>2019-06-14T11:05:35Z</time>
            </trkpt>
            <trkpt lat="54.922370" lon="-8.352110">
                <time>2019-06-14T11:05:36Z</time>
            </trkpt>
            <trkpt lat="54.922510" lon="-8.352220">
                <time>2019-06-14T11:05:37Z</time>
            </trkpt>
            <trkpt lat="54.922640" lon="-8.352320">
                <time>2019-06-14T11:05:38Z</time>
            </trkpt>
            <trkpt lat="54.922760" lon="-8.352420">
                <time>2019-06-14T11:05:39Z</time>
            </trkpt>
            <trkpt lat="54.922890" lon="-8.352520">
                <time>2019-06-14T11:05:40Z</time>
            </trkpt>
            <trkpt lat="54.923020" lon="-8.352620">
                <time>2019-06-14T11:05:41Z</time>
            </trkpt>
            <trkpt lat="54.923140" lon="-8.352730">
                <time>2019-06-14T11:05:42Z</time>
            </trkpt>
            <trkpt lat="54.923270" lon="-8.352830">
                <time>2019-06-14T11:05:43Z</time>
            </trkpt>
            <trkpt lat="54.923390" lon="-8.352920">
                <time>2019-06-14T11:05:44Z</time>
            </trkpt>
            <trkpt lat="54.923510" lon="-8.353020">
                <time>2019-06-14T11:05:45Z</time>
            </trkpt>
            <trkpt lat="54.923630" lon="-8.353110">
                <time>2019-06-14T11:05:46Z</time>
            </trkpt>
            <trkpt lat="54.923750" lon="-8.353210">
                <time>2019-06-14T11:05:47Z</time>
            </trkpt>
            <trkpt lat="54.923870" lon="-8.353310">
                <time>2019-06-14T11:05:48Z</time>
            </trkpt>
            <trkpt lat="54.923990" lon="-8.353410">
                <time>2019-06-14T11:05:49Z</time>
            </trkpt>
            <trkpt lat="54.924120" lon="-8.353510">
                <time>2019-06-14T11:05:50Z</time>
            </trkpt>
            <trkpt lat="54.924240" lon="-8.353620">
                <time>2019-06-14T11:05:51Z</time>
            </trkpt>
            <trkpt lat="54.924370" lon="-8.353720">
                <time>2019-06-14T11:05:52Z</time>
            </trkpt>
            <trkpt lat="54.924510" lon="-8.353830">
                <time>2019-06-14T11:05:53Z</time>
            </trkpt>
            <trkpt lat="54.924640" lon="-8.353950">
                <time>2019-06-14T11:05:54Z</time>
            </trkpt>
            <trkpt lat="54.924770" lon="-8.354050">
                <time>2019-06-14T11:05:55Z</time>
            </trkpt>
            <trkpt lat="54.924890" lon="-8.354150">
                <time>2019-06-14T11:05:56Z</time>
            </trkpt>
            <trkpt lat="54.925010" lon="-8.354240">
                <time>2019-06-14T11:05:57Z</time>
            </trkpt>
            <trkpt lat="54.925120" lon="-8.354340">
                <time>2019-06-14T11:05:58Z</time>
            </trkpt>
            <trkpt lat="54.925250" lon="-8.354440">
                <time>2019-06-14T11:05:59Z</time>
            </trkpt>
            <trkpt lat="54.925380" lon="-8.354550">
                <time>2019-06-14T11:06:00Z</time>
            </trkpt>
            <trkpt lat="54.925510" lon="-8.354650">
                <time>2019-06-14T11:06:01Z</time>
            </trkpt>
            <trkpt lat="54.925650" lon="-8.354760">
                <time>2019-06-14T11:06:02Z</time>
            </trkpt>
            <trkpt lat="54.925790" lon="-8.354870">
                <time>2019-06-14T11:06:03Z</time>
            </trkpt>
            <trkpt lat="54.925930" lon="-8.354990">
                <time>2019-06-14T11:06:04Z</time>
            </trkpt>
            <trkpt lat="54.926070" lon="-8.355100">
                <time>2019-06-14T11:06:05Z</time>
            </trkpt>
            <trkpt lat="54.926220" lon="-8.355210">
                <time>2019-06-14T11:06:06Z</time>
            </trkpt>
            <trkpt lat="54.926350" lon="-8.355320">
                <time>2019-06-14T11:06:07Z</time>
            </trkpt>
            <trkpt lat="54.926480" lon="-8.355430">
                <time>2019-06-14T11:06:08Z</time>
            </trkpt>
            <trkpt lat="54.926620" lon="-8.355540">
                <time>2019-06-14T11:06:09Z</time>
            </trkpt>
            <trkpt lat="54.926750" lon="-8.355640">
                <time>2019-06-14T11:06:10Z</time>
            </trkpt>
            <trkpt lat="54.926890" lon="-8.355750">
                <time>2019-06-14T11:06:11Z</time>
            </trkpt>
            <trkpt lat="54.927020" lon="-8.355860">
                <time>2019-06-14T11:06:12Z</time>
            </trkpt>
            <trkpt lat="54.927160" lon="-8.355970">
                <time>2019-06-14T11:06:13Z</time>
            </trkpt>
            <trkpt lat="54.927300" lon="-8.356090">
                <time>2019-06-14T11:06:14Z</time>
            </trkpt>
            <trkpt lat="54.927450" lon="-8.356210">
                <time>2019-06-14T11:06:15Z</time>
            </trkpt>
            <trkpt lat="54.927590" lon="-8.356330">
                <time>2019-06-14T11:06:16Z</time>
            </trkpt>
            <trkpt lat="54.927730" lon="-8.356450">
                <time>2019-06-14T11:06:17Z</time>
            </trkpt>
            <trkpt lat="54.927880" lon="-8.356570">
                <time>2019-06-14T11:06:18Z</time>
            </trkpt>
            <trkpt lat="54.928020" lon="-8.356690">
                <time>2019-06-14T11:06:19Z</time>
            </trkpt>
            <trkpt lat="54.928160" lon="-8.356810">
                <time>2019-06-14T11:06:20Z</time>
            </trkpt>
            <trkpt lat="54.928290" lon="-8.356920">
                <time>2019-06-14T11:06:21Z</time>
            </trkpt>
            <trkpt lat="54.928420" lon="-8.357030">
                <time>2019-06-14T11:06:22Z</time>
            </trkpt>
            <trkpt lat="54.928550" lon="-8.357130">
                <time>2019-06-14T11:06:23Z</time>
            </trkpt>
            <trkpt lat="54.928670" lon="-8.357240">
                <time>2019-06-14T11:06:24Z</time>
            </trkpt>
            <trkpt lat="54.928810" lon="-8.357350">
                <time>2019-06-14T11:06:25Z</time>
            </trkpt>
            <trkpt lat="54.928950" lon="-8.357460">
                <time>2019-06-14T11:06:26Z</time>
            </trkpt>
            <trkpt lat="54.929090" lon="-8.357570">
                <time>2019-06-14T11:06:27Z</time>
            </trkpt>
            <trkpt lat="54.929240" lon="-8.357700">
                <time>2019-06-14T11:06:28Z</time>
            </trkpt>
            <trkpt lat="54.929400" lon="-8.357830">
                <time>2019-06-14T11:06:29Z</time>
            </trkpt>
            <trkpt lat="54.929550" lon="-8.357950">
                <time>2019-06-14T11:06:30Z</time>
            </trkpt>
            <trkpt lat="54.929690" lon="-8.358070">
                <time>2019-06-14T11:06:31Z</time>
            </trkpt>
            <trkpt lat="54.929830" lon="-8.358170">
                <time>2019-06-14T11:06:32Z</time>
            </trkpt>
            <trkpt lat="54.929950" lon="-8.358270">
                <time>2019-06-14T11:06:33Z</time>
            </trkpt>
            <trkpt lat="54.930060" lon="-8.358370">
                <time>2019-06-14T11:06:34Z</time>
            </trkpt>
            <trkpt lat="54.930180" lon="-8.358450">
                <time>2019-06-14T11:06:35Z</time>
            </trkpt>
            <trkpt lat="54.930280" lon="-8.358540">
                <time>2019-06-14T11:06:36Z</time>
            </trkpt>
            <trkpt lat="54.930400" lon="-8.358620">
                <time>2019-06-14T11:06:37Z</time>
            </trkpt>
            <trkpt lat="54.930510" lon="-8.358690">
                <time>2019-06-14T11:06:38Z</time>
            </trkpt>
            <trkpt lat="54.930640" lon="-8.358730">
                <time>2019-06-14T11:06:39Z</time>
            </trkpt>
            <trkpt lat="54.930780" lon="-8.358750">
                <time>2019-06-14T11:06:40Z</time>
            </trkpt>
            <trkpt lat="54.930940" lon="-8.358760">
                <time>2019-06-14T11:06:41Z</time>
            </trkpt>
            <trkpt lat="54.931100" lon="-8.358770">
                <time>2019-06-14T11:06:42Z</time>
            </trkpt>
            <trkpt lat="54.931270" lon="-8.358770">
                <time>2019-06-14T11:06:43Z</time>
            </trkpt>
            <trkpt lat="54.931420" lon="-8.358780">
                <time>2019-06-14T11:06:44Z</time>
            </trkpt>
            <trkpt lat="54.931570" lon="-8.358780">
                <time>2019-06-14T11:06:45Z</time>
            </trkpt>
            <trkpt lat="54.931720" lon="-8.358780">
                <time>2019-06-14T11:06:46Z</time>
            </trkpt>
            <trkpt lat="54.931880" lon="-8.358790">
                <time>2019-06-14T11:06:47Z</time>
            </trkpt>
            <trkpt lat="54.932040" lon="-8.358790">
                <time>2019-06-14T11:06:48Z</time>
            </trkpt>
            <trkpt lat="54.932190" lon="-8.358800">
                <time>2019-06-14T11:06:49Z</time>
            </trkpt>
            <trkpt lat="54.932330" lon="-8.358810">
                <time>2019-06-14T11:06:50Z</time>
            </trkpt>
            <trkpt lat="54.932460" lon="-8.358810">
                <time>2019-06-14T11:06:51Z</time>
            </trkpt>
            <trkpt lat="54.932610" lon="-8.358810">
                <time>2019-06-14T11:06:52Z</time>
            </trkpt>
            <trkpt lat="54.932750" lon="-8.358820">
                <time>2019-06-14T11:06:53Z</time>
            </trkpt>
            <trkpt lat="54.932900" lon="-8.358820">
                <time>2019-06-14T11:06:54Z</time>
            </trkpt>
            <trkpt lat="54.933040" lon="-8.358830">
                <time>2019-06-14T11:06:55Z</time>
            </trkpt>
            <trkpt lat="54.933190" lon="-8.358830">
                <time>2019-06-14T11:06:56Z</time>
            </trkpt>
            <trkpt lat="54.933340" lon="-8.358830">
                <time>2019-06-14T11:06:57Z</time>
            </trkpt>
            <trkpt lat="54.933490" lon="-8.358830">
                <time>2019-06-14T11:06:58Z</time>
            </trkpt>
            <trkpt lat="54.933630" lon="-8.358820">
                <time>2019-06-14T11:06:59Z</time>
            </trkpt>
            <trkpt lat="54.933770" lon="-8.358810">
                <time>2019-06-14T11:07:00Z</time>
            </trkpt>
            <trkpt lat="54.933900" lon="-8.358750">
                <time>2019-06-14T11:07:01Z</time>
            </trkpt>
            <trkpt lat="54.934010" lon="-8.358650">
                <time>2019-06-14T11:07:02Z</time>
            </trkpt>
            <trkpt lat="54.934120" lon="-8.358500">
                <time>2019-06-14T11:07:03Z</time>
            </trkpt>
            <trkpt lat="54.934240" lon="-8.358360">
                <time>2019-06-14T11:07:04Z</time>
            </trkpt>
            <trkpt lat="54.934370" lon="-8.358260">
                <time>2019-06-14T11:07:05Z</time>
            </trkpt>
            <trkpt lat="54.934500" lon="-8.358190">
                <time>2019-06-14T11:07:06Z</time>
            </trkpt>
            <trkpt lat="54.934630" lon="-8.358140">
                <time>2019-06-14T11:07:07Z</time>
            </trkpt>
            <trkpt lat="54.934760" lon="-8.358090">
                <time>2019-06-14T11:07:08Z</time>
            </trkpt>
            <trkpt lat="54.934900" lon="-8.358040">
                <time>2019-06-14T11:07:09Z</time>
            </trkpt>
            <trkpt lat="54.935040" lon="-8.357980">
                <time>2019-06-14T11:07:10Z</time>
            </trkpt>
            <trkpt lat="54.935170" lon="-8.357900">
                <time>2019-06-14T11:07:11Z</time>
            </trkpt>
            <trkpt lat="54.935300" lon="-8.357820">
                <time>2019-06-14T11:07:12Z</time>
            </trkpt>
            <trkpt lat="54.935440" lon="-8.357750">
                <time>2019-06-14T11:07:13Z</time>
            </trkpt>
            <trkpt lat="54.935570" lon="-8.357670">
                <time>2019-06-14T11:07:14Z</time>
            </trkpt>
            <trkpt lat="54.935700" lon="-8.357560">
                <time>2019-06-14T11:07:15Z</time>
            </trkpt>
            <trkpt lat="54.935810" lon="-8.357430">
                <time>2019-06-14T11:07:16Z</time>
            </trkpt>
            <trkpt lat="54.935920" lon="-8.357300">
                <time>2019-06-14T11:07:17Z</time>
            </trkpt>
            <trkpt lat="54.936040" lon="-8.357180">
                <time>2019-06-14T11:07:18Z</time>
            </trkpt>
            <trkpt lat="54.936160" lon="-8.357080">
                <time>2019-06-14T11:07:19Z</time>
            </trkpt>
            <trkpt lat="54.936280" lon="-8.357020">
                <time>2019-06-14T11:07:20Z</time>
            </trkpt>
            <trkpt lat="54.936410" lon="-8.357000">
                <time>2019-06-14T11:07:21Z</time>
            </trkpt>
            <trkpt lat="54.936540" lon="-8.357030">
                <time>2019-06-14T11:07:22Z</time>
            </trkpt>
            <trkpt lat="54.936670" lon="-8.357080">
                <time>2019-06-14T11:07:23Z</time>
            </trkpt>
            <trkpt lat="54.936800" lon="-8.357140">
                <time>2019-06-14T11:07:24Z</time>
            </trkpt>
            <trkpt lat="54.936940" lon="-8.357200">
                <time>2019-06-14T11:07:25Z</time>
            </trkpt>
            <trkpt lat="54.937070" lon="-8.357280">
                <time>2019-06-14T11:07:26Z</time>
            </trkpt>
            <trkpt lat="54.937200" lon="-8.357380">
                <time>2019-06-14T11:07:27Z</time>
            </trkpt>
            <trkpt lat="54.937330" lon="-8.357500">
                <time>2019-06-14T11:07:28Z</time>
            </trkpt>
            <trkpt lat="54.937430" lon="-8.357630">
                <time>2019-06-14T11:07:29Z</time>
            </trkpt>
            <trkpt lat="54.937530" lon="-8.357770">
                <time>2019-06-14T11:07:30Z</time>
            </trkpt>
            <trkpt lat="54.937630" lon="-8.357920">
                <time>2019-06-14T11:07:31Z</time>
            </trkpt>
            <trkpt lat="54.937730" lon="-8.358070">
                <time>2019-06-14T11:07:32Z</time>
            </trkpt>
            <trkpt lat="54.937820" lon="-8.358240">
                <time>2019-06-14T11:07:33Z</time>
            </trkpt>
            <trkpt lat="54.937890" lon="-8.358410">
                <time>2019-06-14T11:07:34Z</time>
            </trkpt>
            <trkpt lat="54.937950" lon="-8.358600">
                <time>2019-06-14T11:07:35Z</time>
            </trkpt>
            <trkpt lat="54.938000" lon="-8.358800">
                <time>2019-06-14T11:07:36Z</time>
            </trkpt>
            <trkpt lat="54.938030" lon="-8.359010">
                <time>2019-06-14T11:07:37Z</time>
            </trkpt>
            <trkpt lat="54.938070" lon="-8.359210">
                <time>2019-06-14T11:07:38Z</time>
            </trkpt>
            <trkpt lat="54.938110" lon="-8.359370">
                <time>2019-06-14T11:07:39Z</time>
            </trkpt>
            <trkpt lat="54.938170" lon="-8.359480">
                <time>2019-06-14T11:07:40Z</time>
            </trkpt>
            <trkpt lat="54.938230" lon="-8.359560">
                <time>2019-06-14T11:07:41Z</time>
            </trkpt>
            <trkpt lat="54.938280" lon="-8.359600">
                <time>2019-06-14T11:07:42Z</time>
            </trkpt>
            <trkpt lat="54.938350" lon="-8.359630">
                <time>2019-06-14T11:07:43Z</time>
            </trkpt>
            <trkpt lat="54.938430" lon="-8.359650">
                <time>2019-06-14T11:07:44Z</time>
            </trkpt>
            <trkpt lat="54.938510" lon="-8.359670">
                <time>2019-06-14T11:07:45Z</time>
            </trkpt>
            <trkpt lat="54.938600" lon="-8.359670">
                <time>2019-06-14T11:07:46Z</time>
            </trkpt>
            <trkpt lat="54.938700" lon="-8.359630">
                <time>2019-06-14T11:07:47Z</time>
            </trkpt>
            <trkpt lat="54.938810" lon="-8.359580">
                <time>2019-06-14T11:07:48Z</time>
            </trkpt>
            <trkpt lat="54.938920" lon="-8.359530">
                <time>2019-06-14T11:07:49Z</time>
            </trkpt>
            <trkpt lat="54.939010" lon="-8.359470">
                <time>2019-06-14T11:07:50Z</time>
            </trkpt>
            <trkpt lat="54.939110" lon="-8.359390">
                <time>2019-06-14T11:07:51Z</time>
            </trkpt>
            <trkpt lat="54.939210" lon="-8.359310">
                <time>2019-06-14T11:07:52Z</time>
            </trkpt>
            <trkpt lat="54.939330" lon="-8.359260">
                <time>2019-06-14T11:07:53Z</time>
            </trkpt>
            <trkpt lat="54.939450" lon="-8.359230">
                <time>2019-06-14T11:07:54Z</time>
            </trkpt>
            <trkpt lat="54.939580" lon="-8.359220">
                <time>2019-06-14T11:07:55Z</time>
            </trkpt>
            <trkpt lat="54.939720" lon="-8.359210">
                <time>2019-06-14T11:07:56Z</time>
            </trkpt>
            <trkpt lat="54.939870" lon="-8.359210">
                <time>2019-06-14T11:07:57Z</time>
            </trkpt>
            <trkpt lat="54.940010" lon="-8.359210">
                <time>2019-06-14T11:07:58Z</time>
            </trkpt>
            <trkpt lat="54.940140" lon="-8.359210">
                <time>2019-06-14T11:07:59Z</time>
            </trkpt>
            <trkpt lat="54.940260" lon="-8.359220">
                <time>2019-06-14T11:08:00Z</time>
            </trkpt>
            <trkpt lat="54.940380" lon="-8.359240">
                <time>2019-06-14T11:08:01Z</time>
            </trkpt>
            <trkpt lat="54.940510" lon="-8.359260">
                <time>2019-06-14T11:08:02Z</time>
            </trkpt>
            <trkpt lat="54.940640" lon="-8.359270">
                <time>2019-06-14T11:08:03Z</time>
            </trkpt>
            <trkpt lat="54.940780" lon="-8.359270">
                <time>2019-06-14T11:08:04Z</time>
            </trkpt>
            <trkpt lat="54.940900" lon="-8.359260">
                <time>2019-06-14T11:08:05Z</time>
            </trkpt>
            <trkpt lat="54.941020" lon="-8.359240">
                <time>2019-06-14T11:08:06Z</time>
            </trkpt>
            <trkpt lat="54.941160" lon="-8.359210">
                <time>2019-06-14T11:08:07Z</time>
            </trkpt>
            <trkpt lat="54.941300" lon="-8.359160">
                <time>2019-06-14T11:08:08Z</time>
            </trkpt>
            <trkpt lat="54.941450" lon="-8.359100">
                <time>2019-06-14T11:08:09Z</time>
            </trkpt>
            <trkpt lat="54.941590" lon="-8.359050">
                <time>2019-06-14T11:08:10Z</time>
            </trkpt>
            <trkpt lat="54.941720" lon="-8.359000">
                <time>2019-06-14T11:08:11Z</time>
            </trkpt>
            <trkpt lat="54.941850" lon="-8.358940">
                <time>2019-06-14T11:08:12Z</time>
            </trkpt>
            <trkpt lat="54.941980" lon="-8.358890">
                <time>2019-06-14T11:08:13Z</time>
            </trkpt>
            <trkpt lat="54.942120" lon="-8.358840">
                <time>2019-06-14T11:08:14Z</time>
            </trkpt>
            <trkpt lat="54.942280" lon="-8.358790">
                <time>2019-06-14T11:08:15Z</time>
            </trkpt>
            <trkpt lat="54.942430" lon="-8.358740">
                <time>2019-06-14T11:08:16Z</time>
            </trkpt>
            <trkpt lat="54.942590" lon="-8.358690">
                <time>2019-06-14T11:08:17Z</time>
            </trkpt>
            <trkpt lat="54.942750" lon="-8.358620">
                <time>2019-06-14T11:08:18Z</time>
            </trkpt>
            <trkpt lat="54.942910" lon="-8.358550">
                <time>2019-06-14T11:08:19Z</time>
            </trkpt>
            <trkpt lat="54.943070" lon="-8.358480">
                <time>2019-06-14T11:08:20Z</time>
            </trkpt>
            <trkpt lat="54.943220" lon="-8.358410">
                <time>2019-06-14T11:08:21Z</time>
            </trkpt>
            <trkpt lat="54.943350" lon="-8.358350">
                <time>2019-06-14T11:08:22Z</time>
            </trkpt>
            <trkpt lat="54.943460" lon="-8.358300">
                <time>2019-06-14T11:08:23Z</time>
            </trkpt>
            <trkpt lat="54.943570" lon="-8.358270">
                <time>2019-06-14T11:08:24Z</time>
            </trkpt>
            <trkpt lat="54.943680" lon="-8.358260">
                <time>2019-06-14T11:08:25Z</time>
            </trkpt>
            <trkpt lat="54.943810" lon="-8.358270">
                <time>2019-06-14T11:08:26Z</time>
            </trkpt>
            <trkpt lat="54.943950" lon="-8.358300">
                <time>2019-06-14T11:08:27Z</time>
            </trkpt>
            <trkpt lat="54.944100" lon="-8.358340">
                <time>2019-06-14T11:08:28Z</time>
            </trkpt>
            <trkpt lat="54.944250" lon="-8.358380">
                <time>2019-06-14T11:08:29Z</time>
            </trkpt>
            <trkpt lat="54.944400" lon="-8.358430">
                <time>2019-06-14T11:08:30Z</time>
            </trkpt>
            <trkpt lat="54.944540" lon="-8.358480">
                <time>2019-06-14T11:08:31Z</time>
            </trkpt>
            <trkpt lat="54.944670" lon="-8.358520">
                <time>2019-06-14T11:08:32Z</time>
            </trkpt>
            <trkpt lat="54.944800" lon="-8.358570">
                <time>2019-06-14T11:08:33Z</time>
            </trkpt>
            <trkpt lat="54.944920" lon="-8.358620">
                <time>2019-06-14T11:08:34Z</time>
            </trkpt>
            <trkpt lat="54.945060" lon="-8.358670">
                <time>2019-06-14T11:08:35Z</time>
            </trkpt>
            <trkpt lat="54.945200" lon="-8.358720">
                <time>2019-06-14T11:08:36Z</time>
            </trkpt>
            <trkpt lat="54.945330" lon="-8.358770">
                <time>2019-06-14T11:08:37Z</time>
            </trkpt>
            <trkpt lat="54.945460" lon="-8.358820">
                <time>2019-06-14T11:08:38Z</time>
            </trkpt>
            <trkpt lat="54.945580" lon="-8.358860">
                <time>2019-06-14T11:08:39Z</time>
            </trkpt>
            <trkpt lat="54.945710" lon="-8.358910">
                <time>2019-06-14T11:08:40Z</time>
            </trkpt>
            <trkpt lat="54.945820" lon="-8.358950">
                <time>2019-06-14T11:08:41Z</time>
            </trkpt>
            <trkpt lat="54.945940" lon="-8.358990">
                <time>2019-06-14T11:08:42Z</time>
            </trkpt>
            <trkpt lat="54.946050" lon="-8.359030">
                <time>2019-06-14T11:08:43Z</time>
            </trkpt>
            <trkpt lat="54.946170" lon="-8.359070">
                <time>2019-06-14T11:08:44Z</time>
            </trkpt>
            <trkpt lat="54.946280" lon="-8.359100">
                <time>2019-06-14T11:08:45Z</time>
            </trkpt>
            <trkpt lat="54.946400" lon="-8.359140">
                <time>2019-06-14T11:08:46Z</time>
            </trkpt>
            <trkpt lat="54.946510" lon="-8.359180">
                <time>2019-06-14T11:08:47Z</time>
            </trkpt>
            <trkpt lat="54.946620" lon="-8.359220">
                <time>2019-06-14T11:08:48Z</time>
            </trkpt>
            <trkpt lat="54.946720" lon="-8.359260">
                <time>2019-06-14T11:08:49Z</time>
            </trkpt>
            <trkpt lat="54.946830" lon="-8.359310">
                <time>2019-06-14T11:08:50Z</time>
            </trkpt>
            <trkpt lat="54.946920" lon="-8.359350">
                <time>2019-06-14T11:08:51Z</time>
            </trkpt>
            <trkpt lat="54.947020" lon="-8.359380">
                <time>2019-06-14T11:08:52Z</time>
            </trkpt>
            <trkpt lat="54.947130" lon="-8.359410">
                <time>2019-06-14T11:08:53Z</time>
            </trkpt>
            <trkpt lat="54.947240" lon="-8.359450">
                <time>2019-06-14T11:08:54Z</time>
            </trkpt>
            <trkpt lat="54.947350" lon="-8.359490">
                <time>2019-06-14T11:08:55Z</time>
            </trkpt>
            <trkpt lat="54.947450" lon="-8.359520">
                <time>2019-06-14T11:08:56Z</time>
            </trkpt>
            <trkpt lat="54.947550" lon="-8.359560">
                <time>2019-06-14T11:08:57Z</time>
            </trkpt>
            <trkpt lat="54.947650" lon="-8.359590">
                <time>2019-06-14T11:08:58Z</time>
            </trkpt>
            <trkpt lat="54.947740" lon="-8.359630">
                <time>2019-06-14T11:08:59Z</time>
            </trkpt>
            <trkpt lat="54.947840" lon="-8.359670">
                <time>2019-06-14T11:09:00Z</time>
            </trkpt>
            <trkpt lat="54.947930" lon="-8.359720">
                <time>2019-06-14T11:09:01Z</time>
            </trkpt>
            <trkpt lat="54.948020" lon="-8.359770">
                <time>2019-06-14T11:09:02Z</time>
            </trkpt>
            <trkpt lat="54.948100" lon="-8.359810">
                <time>2019-06-14T11:09:03Z</time>
            </trkpt>
            <trkpt lat="54.948190" lon="-8.359850">
                <time>2019-06-14T11:09:04Z</time>
            </trkpt>
            <trkpt lat="54.948280" lon="-8.359900">
                <time>2019-06-14T11:09:05Z</time>
            </trkpt>
            <trkpt lat="54.948370" lon="-8.359930">
                <time>2019-06-14T11:09:06Z</time>
            </trkpt>
            <trkpt lat="54.948450" lon="-8.359960">
                <time>2019-06-14T11:09:07Z</time>
            </trkpt>
            <trkpt lat="54.948540" lon="-8.360000">
                <time>2019-06-14T11:09:08Z</time>
            </trkpt>
            <trkpt lat="54.948630" lon="-8.360040">
                <time>2019-06-14T11:09:09Z</time>
            </trkpt>
            <trkpt lat="54.948720" lon="-8.360080">
                <time>2019-06-14T11:09:10Z</time>
            </trkpt>
            <trkpt lat="54.948810" lon="-8.360120">
                <time>2019-06-14T11:09:11Z</time>
            </trkpt>
            <trkpt lat="54.948910" lon="-8.360170">
                <time>2019-06-14T11:09:12Z</time>
            </trkpt>
            <trkpt lat="54.949010" lon="-8.360220">
                <time>2019-06-14T11:09:13Z</time>
            </trkpt>
            <trkpt lat="54.949100" lon="-8.360260">
                <time>2019-06-14T11:09:14Z</time>
            </trkpt>
            <trkpt lat="54.949180" lon="-8.360300">
                <time>2019-06-14T11:09:15Z</time>
            </trkpt>
            <trkpt lat="54.949270" lon="-8.360340">
                <time>2019-06-14T11:09:16Z</time>
            </trkpt>
            <trkpt lat="54.949350" lon="-8.360380">
                <time>2019-06-14T11:09:17Z</time>
            </trkpt>
            <trkpt lat="54.949430" lon="-8.360410">
                <time>2019-06-14T11:09:18Z</time>
            </trkpt>
            <trkpt lat="54.949510" lon="-8.360450">
                <time>2019-06-14T11:09:19Z</time>
            </trkpt>
            <trkpt lat="54.949580" lon="-8.360480">
                <time>2019-06-14T11:09:20Z</time>
            </trkpt>
            <trkpt lat="54.949650" lon="-8.360510">
                <time>2019-06-14T11:09:21Z</time>
            </trkpt>
            <trkpt lat="54.949720" lon="-8.360530">
                <time>2019-06-14T11:09:22Z</time>
            </trkpt>
            <trkpt lat="54.949780" lon="-8.360570">
                <time>2019-06-14T11:09:23Z</time>
            </trkpt>
            <trkpt lat="54.949840" lon="-8.360600">
                <time>2019-06-14T11:09:24Z</time>
            </trkpt>
            <trkpt lat="54.949880" lon="-8.360630">
                <time>2019-06-14T11:09:25Z</time>
            </trkpt>
            <trkpt lat="54.949930" lon="-8.360650">
                <time>2019-06-14T11:09:26Z</time>
            </trkpt>
            <trkpt lat="54.949970" lon="-8.360680">
                <time>2019-06-14T11:09:27Z</time>
            </trkpt>
            <trkpt lat="54.950010" lon="-8.360690">
                <time>2019-06-14T11:09:28Z</time>
            </trkpt>
            <trkpt lat="54.950050" lon="-8.360710">
                <time>2019-06-14T11:09:29Z</time>
            </trkpt>
            <trkpt lat="54.950090" lon="-8.360730">
                <time>2019-06-14T11:09:30Z</time>
            </trkpt>
            <trkpt lat="54.950140" lon="-8.360740">
                <time>2019-06-14T11:09:31Z</time>
            </trkpt>
            <trkpt lat="54.950190" lon="-8.360760">
                <time>2019-06-14T11:09:32Z</time>
            </trkpt>
            <trkpt lat="54.950250" lon="-8.360770">
                <time>2019-06-14T11:09:33Z</time>
            </trkpt>
            <trkpt lat="54.950300" lon="-8.360800">
                <time>2019-06-14T11:09:34Z</time>
            </trkpt>
            <trkpt lat="54.950340" lon="-8.360820">
                <time>2019-06-14T11:09:35Z</time>
            </trkpt>
            <trkpt lat="54.950390" lon="-8.360840">
                <time>2019-06-14T11:09:36Z</time>
            </trkpt>
            <trkpt lat="54.950430" lon="-8.360860">
                <time>2019-06-14T11:09:37Z</time>
            </trkpt>
            <trkpt lat="54.950490" lon="-8.360880">
                <time>2019-06-14T11:09:38Z</time>
            </trkpt>
            <trkpt lat="54.950550" lon="-8.360910">
                <time>2019-06-14T11:09:39Z</time>
            </trkpt>
            <trkpt lat="54.950610" lon="-8.360940">
                <time>2019-06-14T11:09:40Z</time>
            </trkpt>
            <trkpt lat="54.950680" lon="-8.360960">
                <time>2019-06-14T11:09:41Z</time>
            </trkpt>
            <trkpt lat="54.950740" lon="-8.360990">
                <time>2019-06-14T11:09:42Z</time>
            </trkpt>
            <trkpt lat="54.950800" lon="-8.361020">
                <time>2019-06-14T11:09:43Z</time>
            </trkpt>
            <trkpt lat="54.950860" lon="-8.361040">
                <time>2019-06-14T11:09:44Z</time>
            </trkpt>
            <trkpt lat="54.950920" lon="-8.361080">
                <time>2019-06-14T11:09:45Z</time>
            </trkpt>
            <trkpt lat="54.951000" lon="-8.361130">
                <time>2019-06-14T11:09:46Z</time>
            </trkpt>
            <trkpt lat="54.951070" lon="-8.361170">
                <time>2019-06-14T11:09:47Z</time>
            </trkpt>
            <trkpt lat="54.951130" lon="-8.361210">
                <time>2019-06-14T11:09:48Z</time>
            </trkpt>
            <trkpt lat="54.951190" lon="-8.361240">
                <time>2019-06-14T11:09:49Z</time>
            </trkpt>
            <trkpt lat="54.951240" lon="-8.361290">
                <time>2019-06-14T11:09:50Z</time>
            </trkpt>
            <trkpt lat="54.951300" lon="-8.361340">
                <time>2019-06-14T11:09:51Z</time>
            </trkpt>
            <trkpt lat="54.951350" lon="-8.361390">
                <time>2019-06-14T11:09:52Z</time>
            </trkpt>
            <trkpt lat="54.951400" lon="-8.361450">
                <time>2019-06-14T11:09:53Z</time>
            </trkpt>
            <trkpt lat="54.951440" lon="-8.361530">
                <time>2019-06-14T11:09:54Z</time>
            </trkpt>
            <trkpt lat="54.951480" lon="-8.361640">
                <time>2019-06-14T11:09:55Z</time>
            </trkpt>
            <trkpt lat="54.951510" lon="-8.361790">
                <time>2019-06-14T11:09:56Z</time>
            </trkpt>
            <trkpt lat="54.951530" lon="-8.361960">
                <time>2019-06-14T11:09:57Z</time>
            </trkpt>
            <trkpt lat="54.951550" lon="-8.362120">
                <time>2019-06-14T11:09:58Z</time>
            </trkpt>
            <trkpt lat="54.951570" lon="-8.362300">
                <time>2019-06-14T11:09:59Z</time>
            </trkpt>
            <trkpt lat="54.951590" lon="-8.362480">
                <time>2019-06-14T11:10:00Z</time>
            </trkpt>
            <trkpt lat="54.951600" lon="-8.362680">
                <time>2019-06-14T11:10:01Z</time>
            </trkpt>
            <trkpt lat="54.951600" lon="-8.362870">
                <time>2019-06-14T11:10:02Z</time>
            </trkpt>
            <trkpt lat="54.951590" lon="-8.363070">
                <time>2019-06-14T11:10:03Z</time>
            </trkpt>
            <trkpt lat="54.951580" lon="-8.363270">
                <time>2019-06-14T11:10:04Z</time>
            </trkpt>
            <trkpt lat="54.951580" lon="-8.363450">
                <time>2019-06-14T11:10:05Z</time>
            </trkpt>
            <trkpt lat="54.951580" lon="-8.363640">
                <time>2019-06-14T11:10:06Z</time>
            </trkpt>
            <trkpt lat="54.951600" lon="-8.363830">
                <time>2019-06-14T11:10:07Z</time>
            </trkpt>
            <trkpt lat="54.951610" lon="-8.364030">
                <time>2019-06-14T11:10:08Z</time>
            </trkpt>
            <trkpt lat="54.951630" lon="-8.364230">
                <time>2019-06-14T11:10:09Z</time>
            </trkpt>
            <trkpt lat="54.951640" lon="-8.364440">
                <time>2019-06-14T11:10:10Z</time>
            </trkpt>
            <trkpt lat="54.951660" lon="-8.364650">
                <time>2019-06-14T11:10:11Z</time>
            </trkpt>
            <trkpt lat="54.951670" lon="-8.364850">
                <time>2019-06-14T11:10:12Z</time>
            </trkpt>
            <trkpt lat="54.951670" lon="-8.365060">
                <time>2019-06-14T11:10:13Z</time>
            </trkpt>
            <trkpt lat="54.951670" lon="-8.365280">
                <time>2019-06-14T11:10:14Z</time>
            </trkpt>
            <trkpt lat="54.951650" lon="-8.365490">
                <time>2019-06-14T11:10:15Z</time>
            </trkpt>
            <trkpt lat="54.951630" lon="-8.365690">
                <time>2019-06-14T11:10:16Z</time>
            </trkpt>
            <trkpt lat="54.951620" lon="-8.365880">
                <time>2019-06-14T11:10:17Z</time>
            </trkpt>
            <trkpt lat="54.951600" lon="-8.366060">
                <time>2019-06-14T11:10:18Z</time>
            </trkpt>
            <trkpt lat="54.951590" lon="-8.366230">
                <time>2019-06-14T11:10:19Z</time>
            </trkpt>
            <trkpt lat="54.951570" lon="-8.366410">
                <time>2019-06-14T11:10:20Z</time>
            </trkpt>
            <trkpt lat="54.951570" lon="-8.366590">
                <time>2019-06-14T11:10:21Z</time>
            </trkpt>
            <trkpt lat="54.951560" lon="-8.366790">
                <time>2019-06-14T11:10:22Z</time>
            </trkpt>
            <trkpt lat="54.951570" lon="-8.367000">
                <time>2019-06-14T11:10:23Z</time>
            </trkpt>
            <trkpt lat="54.951580" lon="-8.367220">
                <time>2019-06-14T11:10:24Z</time>
            </trkpt>
            <trkpt lat="54.951590" lon="-8.367440">
                <time>2019-06-14T11:10:25Z</time>
            </trkpt>
            <trkpt lat="54.951630" lon="-8.367670">
                <time>2019-06-14T11:10:26Z</time>
            </trkpt>
            <trkpt lat="54.951670" lon="-8.367890">
                <time>2019-06-14T11:10:27Z</time>
            </trkpt>
            <trkpt lat="54.951710" lon="-8.368110">
                <time>2019-06-14T11:10:28Z</time>
            </trkpt>
            <trkpt lat="54.951750" lon="-8.368330">
                <time>2019-06-14T11:10:29Z</time>
            </trkpt>
            <trkpt lat="54.951800" lon="-8.368540">
                <time>2019-06-14T11:10:30Z</time>
            </trkpt>
            <trkpt lat="54.951850" lon="-8.368740">
                <time>2019-06-14T11:10:31Z</time>
            </trkpt>
            <trkpt lat="54.951910" lon="-8.368940">
                <time>2019-06-14T11:10:32Z</time>
            </trkpt>
            <trkpt lat="54.951980" lon="-8.369140">
                <time>2019-06-14T11:10:33Z</time>
            </trkpt>
            <trkpt lat="54.952040" lon="-8.369320">
                <time>2019-06-14T11:10:34Z</time>
            </trkpt>
            <trkpt lat="54.952110" lon="-8.369470">
                <time>2019-06-14T11:10:35Z</time>
            </trkpt>
            <trkpt lat="54.952180" lon="-8.369600">
                <time>2019-06-14T11:10:36Z</time>
            </trkpt>
            <trkpt lat="54.952240" lon="-8.369750">
                <time>2019-06-14T11:10:37Z</time>
            </trkpt>
            <trkpt lat="54.952310" lon="-8.369900">
                <time>2019-06-14T11:10:38Z</time>
            </trkpt>
            <trkpt lat="54.952380" lon="-8.370060">
                <time>2019-06-14T11:10:39Z</time>
            </trkpt>
            <trkpt lat="54.952460" lon="-8.370220">
                <time>2019-06-14T11:10:40Z</time>
            </trkpt>
            <trkpt lat="54.952540" lon="-8.370370">
                <time>2019-06-14T11:10:41Z</time>
            </trkpt>
            <trkpt lat="54.952630" lon="-8.370500">
                <time>2019-06-14T11:10:42Z</time>
            </trkpt>
            <trkpt lat="54.952720" lon="-8.370610">
                <time>2019-06-14T11:10:43Z</time>
            </trkpt>
            <trkpt lat="54.952810" lon="-8.370690">
                <time>2019-06-14T11:10:44Z</time>
            </trkpt>
            <trkpt lat="54.952900" lon="-8.370750">
                <time>2019-06-14T11:10:45Z</time>
            </trkpt>
            <trkpt lat="54.952990" lon="-8.370820">
                <time>2019-06-14T11:10:46Z</time>
            </trkpt>
            <trkpt lat="54.953060" lon="-8.370930">
                <time>2019-06-14T11:10:47Z</time>
            </trkpt>
            <trkpt lat="54.953120" lon="-8.371060">
                <time>2019-06-14T11:10:48Z</time>
            </trkpt>
            <trkpt lat="54.953170" lon="-8.371220">
                <time>2019-06-14T11:10:49Z</time>
            </trkpt>
            <trkpt lat="54.953190" lon="-8.371400">
                <time>2019-06-14T11:10:50Z</time>
            </trkpt>
            <trkpt lat="54.953200" lon="-8.371610">
                <time>2019-06-14T11:10:51Z</time>
            </trkpt>
            <trkpt lat="54.953210" lon="-8.371840">
                <time>2019-06-14T11:10:52Z</time>
            </trkpt>
            <trkpt lat="54.953210" lon="-8.372080">
                <time>2019-06-14T11:10:53Z</time>
            </trkpt>
            <trkpt lat="54.953220" lon="-8.372320">
                <time>2019-06-14T11:10:54Z</time>
            </trkpt>
            <trkpt lat="54.953240" lon="-8.372550">
                <time>2019-06-14T11:10:55Z</time>
            </trkpt>
            <trkpt lat="54.953270" lon="-8.372760">
                <time>2019-06-14T11:10:56Z</time>
            </trkpt>
            <trkpt lat="54.953320" lon="-8.372960">
                <time>2019-06-14T11:10:57Z</time>
            </trkpt>
            <trkpt lat="54.953390" lon="-8.373140">
                <time>2019-06-14T11:10:58Z</time>
            </trkpt>
            <trkpt lat="54.953470" lon="-8.373290">
                <time>2019-06-14T11:10:59Z</time>
            </trkpt>
            <trkpt lat="54.953560" lon="-8.373420">
                <time>2019-06-14T11:11:00Z</time>
            </trkpt>
            <trkpt lat="54.953650" lon="-8.373570">
                <time>2019-06-14T11:11:01Z</time>
            </trkpt>
            <trkpt lat="54.953750" lon="-8.373740">
                <time>2019-06-14T11:11:02Z</time>
            </trkpt>
            <trkpt lat="54.953840" lon="-8.373930">
                <time>2019-06-14T11:11:03Z</time>
            </trkpt>
            <trkpt lat="54.953930" lon="-8.374150">
                <time>2019-06-14T11:11:04Z</time>
            </trkpt>
            <trkpt lat="54.954010" lon="-8.374380">
                <time>2019-06-14T11:11:05Z</time>
            </trkpt>
            <trkpt lat="54.954090" lon="-8.374630">
                <time>2019-06-14T11:11:06Z</time>
            </trkpt>
            <trkpt lat="54.954170" lon="-8.374880">
                <time>2019-06-14T11:11:07Z</time>
            </trkpt>
            <trkpt lat="54.954240" lon="-8.375130">
                <time>2019-06-14T11:11:08Z</time>
            </trkpt>
            <trkpt lat="54.954310" lon="-8.375350">
                <time>2019-06-14T11:11:09Z</time>
            </trkpt>
            <trkpt lat="54.954370" lon="-8.375570">
                <time>2019-06-14T11:11:10Z</time>
            </trkpt>
            <trkpt lat="54.954410" lon="-8.375760">
                <time>2019-06-14T11:11:11Z</time>
            </trkpt>
            <trkpt lat="54.954450" lon="-8.375910">
                <time>2019-06-14T11:11:12Z</time>
            </trkpt>
            <trkpt lat="54.954490" lon="-8.376040">
                <time>2019-06-14T11:11:13Z</time>
            </trkpt>
            <trkpt lat="54.954520" lon="-8.376160">
                <time>2019-06-14T11:11:14Z</time>
            </trkpt>
            <trkpt lat="54.954550" lon="-8.376270">
                <time>2019-06-14T11:11:15Z</time>
            </trkpt>
            <trkpt lat="54.954580" lon="-8.376380">
                <time>2019-06-14T11:11:16Z</time>
            </trkpt>
            <trkpt lat="54.954600" lon="-8.376520">
                <time>2019-06-14T11:11:17Z</time>
            </trkpt>
            <trkpt lat="54.954640" lon="-8.376680">
                <time>2019-06-14T11:11:18Z</time>
            </trkpt>
            <trkpt lat="54.954670" lon="-8.376840">
                <time>2019-06-14T11:11:19Z</time>
            </trkpt>
            <trkpt lat="54.954700" lon="-8.377000">
                <time>2019-06-14T11:11:20Z</time>
            </trkpt>
            <trkpt lat="54.954730" lon="-8.377150">
                <time>2019-06-14T11:11:21Z</time>
            </trkpt>
            <trkpt lat="54.954770" lon="-8.377300">
                <time>2019-06-14T11:11:22Z</time>
            </trkpt>
            <trkpt lat="54.954800" lon="-8.377470">
                <time>2019-06-14T11:11:23Z</time>
            </trkpt>
            <trkpt lat="54.954840" lon="-8.377630">
                <time>2019-06-14T11:11:24Z</time>
            </trkpt>
            <trkpt lat="54.954870" lon="-8.377790">
                <time>2019-06-14T11:11:25Z</time>
            </trkpt>
            <trkpt lat="54.954900" lon="-8.377970">
                <time>2019-06-14T11:11:26Z</time>
            </trkpt>
            <trkpt lat="54.954940" lon="-8.378140">
                <time>2019-06-14T11:11:27Z</time>
            </trkpt>
            <trkpt lat="54.954980" lon="-8.378330">
                <time>2019-06-14T11:11:28Z</time>
            </trkpt>
            <trkpt lat="54.955020" lon="-8.378540">
                <time>2019-06-14T11:11:29Z</time>
            </trkpt>
            <trkpt lat="54.955060" lon="-8.378740">
                <time>2019-06-14T11:11:30Z</time>
            </trkpt>
            <trkpt lat="54.955100" lon="-8.378950">
                <time>2019-06-14T11:11:31Z</time>
            </trkpt>
            <trkpt lat="54.955140" lon="-8.379160">
                <time>2019-06-14T11:11:32Z</time>
            </trkpt>
            <trkpt lat="54.955180" lon="-8.379370">
                <time>2019-06-14T11:11:33Z</time>
            </trkpt>
            <trkpt lat="54.955220" lon="-8.379590">
                <time>2019-06-14T11:11:34Z</time>
            </trkpt>
            <trkpt lat="54.955260" lon="-8.379810">
                <time>2019-06-14T11:11:35Z</time>
            </trkpt>
            <trkpt lat="54.955300" lon="-8.380020">
                <time>2019-06-14T11:11:36Z</time>
            </trkpt>
            <trkpt lat="54.955340" lon="-8.380210">
                <time>2019-06-14T11:11:37Z</time>
            </trkpt>
            <trkpt lat="54.955370" lon="-8.380420">
                <time>2019-06-14T11:11:38Z</time>
            </trkpt>
            <trkpt lat="54.955410" lon="-8.380640">
                <time>2019-06-14T11:11:39Z</time>
            </trkpt>
            <trkpt lat="54.955450" lon="-8.380880">
                <time>2019-06-14T11:11:40Z</time>
            </trkpt>
            <trkpt lat="54.955480" lon="-8.381120">
                <time>2019-06-14T11:11:41Z</time>
            </trkpt>
            <trkpt lat="54.955510" lon="-8.381350">
                <time>2019-06-14T11:11:42Z</time>
            </trkpt>
            <trkpt lat="54.955540" lon="-8.381570">
                <time>2019-06-14T11:11:43Z</time>
            </trkpt>
            <trkpt lat="54.955570" lon="-8.381800">
                <time>2019-06-14T11:11:44Z</time>
            </trkpt>
            <trkpt lat="54.955590" lon="-8.382030">
                <time>2019-06-14T11:11:45Z</time>
            </trkpt>
            <trkpt lat="54.955620" lon="-8.382260">
                <time>2019-06-14T11:11:46Z</time>
            </trkpt>
            <trkpt lat="54.955640" lon="-8.382500">
                <time>2019-06-14T11:11:47Z</time>
            </trkpt>
            <trkpt lat="54.955670" lon="-8.382730">
                <time>2019-06-14T11:11:48Z</time>
            </trkpt>
            <trkpt lat="54.955690" lon="-8.382970">
                <time>2019-06-14T11:11:49Z</time>
            </trkpt>
            <trkpt lat="54.955710" lon="-8.383210">
                <time>2019-06-14T11:11:50Z</time>
            </trkpt>
            <trkpt lat="54.955740" lon="-8.383460">
                <time>2019-06-14T11:11:51Z</time>
            </trkpt>
            <trkpt lat="54.955760" lon="-8.383700">
                <time>2019-06-14T11:11:52Z</time>
            </trkpt>
            <trkpt lat="54.955780" lon="-8.383950">
                <time>2019-06-14T11:11:53Z</time>
            </trkpt>
            <trkpt lat="54.955800" lon="-8.384200">
                <time>2019-06-14T11:11:54Z</time>
            </trkpt>
            <trkpt lat="54.955820" lon="-8.384440">
                <time>2019-06-14T11:11:55Z</time>
            </trkpt>
            <trkpt lat="54.955840" lon="-8.384680">
                <time>2019-06-14T11:11:56Z</time>
            </trkpt>
            <trkpt lat="54.955870" lon="-8.384920">
                <time>2019-06-14T11:11:57Z</time>
            </trkpt>
            <trkpt lat="54.955890" lon="-8.385160">
                <time>2019-06-14T11:11:58Z</time>
            </trkpt>
            <trkpt lat="54.955910" lon="-8.385410">
                <time>2019-06-14T11:11:59Z</time>
            </trkpt>
            <trkpt lat="54.955950" lon="-8.385670">
                <time>2019-06-14T11:12:00Z</time>
            </trkpt>
            <trkpt lat="54.955990" lon="-8.385930">
                <time>2019-06-14T11:12:01Z</time>
            </trkpt>
            <trkpt lat="54.956050" lon="-8.386190">
                <time>2019-06-14T11:12:02Z</time>
            </trkpt>
            <trkpt lat="54.956120" lon="-8.386420">
                <time>2019-06-14T11:12:03Z</time>
            </trkpt>
            <trkpt lat="54.956180" lon="-8.386650">
                <time>2019-06-14T11:12:04Z</time>
            </trkpt>
            <trkpt lat="54.956250" lon="-8.386870">
                <time>2019-06-14T11:12:05Z</time>
            </trkpt>
            <trkpt lat="54.956320" lon="-8.387090">
                <time>2019-06-14T11:12:06Z</time>
            </trkpt>
            <trkpt lat="54.956380" lon="-8.387300">
                <time>2019-06-14T11:12:07Z</time>
            </trkpt>
            <trkpt lat="54.956430" lon="-8.387510">
                <time>2019-06-14T11:12:08Z</time>
            </trkpt>
            <trkpt lat="54.956490" lon="-8.387720">
                <time>2019-06-14T11:12:09Z</time>
            </trkpt>
            <trkpt lat="54.956530" lon="-8.387930">
                <time>2019-06-14T11:12:10Z</time>
            </trkpt>
            <trkpt lat="54.956570" lon="-8.388150">
                <time>2019-06-14T11:12:11Z</time>
            </trkpt>
            <trkpt lat="54.956610" lon="-8.388360">
                <time>2019-06-14T11:12:12Z</time>
            </trkpt>
            <trkpt lat="54.956640" lon="-8.388580">
                <time>2019-06-14T11:12:13Z</time>
            </trkpt>
            <trkpt lat="54.956680" lon="-8.388800">
                <time>2019-06-14T11:12:14Z</time>
            </trkpt>
            <trkpt lat="54.956710" lon="-8.389020">
                <time>2019-06-14T11:12:15Z</time>
            </trkpt>
            <trkpt lat="54.956740" lon="-8.389230">
                <time>2019-06-14T11:12:16Z</time>
            </trkpt>
            <trkpt lat="54.956760" lon="-8.389420">
                <time>2019-06-14T11:12:17Z</time>
            </trkpt>
            <trkpt lat="54.956780" lon="-8.389600">
                <time>2019-06-14T11:12:18Z</time>
            </trkpt>
            <trkpt lat="54.956800" lon="-8.389780">
                <time>2019-06-14T11:12:19Z</time>
            </trkpt>
            <trkpt lat="54.956820" lon="-8.389970">
                <time>2019-06-14T11:12:20Z</time>
            </trkpt>
            <trkpt lat="54.956830" lon="-8.390160">
                <time>2019-06-14T11:12:21Z</time>
            </trkpt>
            <trkpt lat="54.956840" lon="-8.390370">
                <time>2019-06-14T11:12:22Z</time>
            </trkpt>
            <trkpt lat="54.956850" lon="-8.390590">
                <time>2019-06-14T11:12:23Z</time>
            </trkpt>
            <trkpt lat="54.956870" lon="-8.390820">
                <time>2019-06-14T11:12:24Z</time>
            </trkpt>
            <trkpt lat="54.956890" lon="-8.391060">
                <time>2019-06-14T11:12:25Z</time>
            </trkpt>
            <trkpt lat="54.956920" lon="-8.391310">
                <time>2019-06-14T11:12:26Z</time>
            </trkpt>
            <trkpt lat="54.956950" lon="-8.391540">
                <time>2019-06-14T11:12:27Z</time>
            </trkpt>
            <trkpt lat="54.956980" lon="-8.391780">
                <time>2019-06-14T11:12:28Z</time>
            </trkpt>
            <trkpt lat="54.957010" lon="-8.392000">
                <time>2019-06-14T11:12:29Z</time>
            </trkpt>
            <trkpt lat="54.957030" lon="-8.392230">
                <time>2019-06-14T11:12:30Z</time>
            </trkpt>
            <trkpt lat="54.957060" lon="-8.392470">
                <time>2019-06-14T11:12:31Z</time>
            </trkpt>
            <trkpt lat="54.957090" lon="-8.392730">
                <time>2019-06-14T11:12:32Z</time>
            </trkpt>
            <trkpt lat="54.957120" lon="-8.392990">
                <time>2019-06-14T11:12:33Z</time>
            </trkpt>
            <trkpt lat="54.957150" lon="-8.393250">
                <time>2019-06-14T11:12:34Z</time>
            </trkpt>
            <trkpt lat="54.957190" lon="-8.393510">
                <time>2019-06-14T11:12:35Z</time>
            </trkpt>
            <trkpt lat="54.957230" lon="-8.393760">
                <time>2019-06-14T11:12:36Z</time>
            </trkpt>
            <trkpt lat="54.957270" lon="-8.393990">
                <time>2019-06-14T11:12:37Z</time>
            </trkpt>
            <trkpt lat="54.957310" lon="-8.394220">
                <time>2019-06-14T11:12:38Z</time>
            </trkpt>
            <trkpt lat="54.957350" lon="-8.394440">
                <time>2019-06-14T11:12:39Z</time>
            </trkpt>
            <trkpt lat="54.957390" lon="-8.394670">
                <time>2019-06-14T11:12:40Z</time>
            </trkpt>
            <trkpt lat="54.957440" lon="-8.394890">
                <time>2019-06-14T11:12:41Z</time>
            </trkpt>
            <trkpt lat="54.957480" lon="-8.395120">
                <time>2019-06-14T11:12:42Z</time>
            </trkpt>
            <trkpt lat="54.957530" lon="-8.395360">
                <time>2019-06-14T11:12:43Z</time>
            </trkpt>
            <trkpt lat="54.957580" lon="-8.395580">
                <time>2019-06-14T11:12:44Z</time>
            </trkpt>
            <trkpt lat="54.957640" lon="-8.395800">
                <time>2019-06-14T11:12:45Z</time>
            </trkpt>
            <trkpt lat="54.957710" lon="-8.396020">
                <time>2019-06-14T11:12:46Z</time>
            </trkpt>
            <trkpt lat="54.957780" lon="-8.396230">
                <time>2019-06-14T11:12:47Z</time>
            </trkpt>
            <trkpt lat="54.957860" lon="-8.396450">
                <time>2019-06-14T11:12:48Z</time>
            </trkpt>
            <trkpt lat="54.957950" lon="-8.396660">
                <time>2019-06-14T11:12:49Z</time>
            </trkpt>
            <trkpt lat="54.958040" lon="-8.396880">
                <time>2019-06-14T11:12:50Z</time>
            </trkpt>
            <trkpt lat="54.958130" lon="-8.397110">
                <time>2019-06-14T11:12:51Z</time>
            </trkpt>
            <trkpt lat="54.958220" lon="-8.397330">
                <time>2019-06-14T11:12:52Z</time>
            </trkpt>
            <trkpt lat="54.958300" lon="-8.397540">
                <time>2019-06-14T11:12:53Z</time>
            </trkpt>
            <trkpt lat="54.958370" lon="-8.397740">
                <time>2019-06-14T11:12:54Z</time>
            </trkpt>
            <trkpt lat="54.958430" lon="-8.397960">
                <time>2019-06-14T11:12:55Z</time>
            </trkpt>
            <trkpt lat="54.958490" lon="-8.398180">
                <time>2019-06-14T11:12:56Z</time>
            </trkpt>
            <trkpt lat="54.958550" lon="-8.398380">
                <time>2019-06-14T11:12:57Z</time>
            </trkpt>
            <trkpt lat="54.958600" lon="-8.398580">
                <time>2019-06-14T11:12:58Z</time>
            </trkpt>
            <trkpt lat="54.958660" lon="-8.398800">
                <time>2019-06-14T11:12:59Z</time>
            </trkpt>
            <trkpt lat="54.958730" lon="-8.399020">
                <time>2019-06-14T11:13:00Z</time>
            </trkpt>
            <trkpt lat="54.958800" lon="-8.399240">
                <time>2019-06-14T11:13:01Z</time>
            </trkpt>
            <trkpt lat="54.958860" lon="-8.399460">
                <time>2019-06-14T11:13:02Z</time>
            </trkpt>
            <trkpt lat="54.958930" lon="-8.399670">
                <time>2019-06-14T11:13:03Z</time>
            </trkpt>
            <trkpt lat="54.958990" lon="-8.399880">
                <time>2019-06-14T11:13:04Z</time>
            </trkpt>
            <trkpt lat="54.959060" lon="-8.400090">
                <time>2019-06-14T11:13:05Z</time>
            </trkpt>
            <trkpt lat="54.959130" lon="-8.400300">
                <time>2019-06-14T11:13:06Z</time>
            </trkpt>
            <trkpt lat="54.959200" lon="-8.400520">
                <time>2019-06-14T11:13:07Z</time>
            </trkpt>
            <trkpt lat="54.959280" lon="-8.400750">
                <time>2019-06-14T11:13:08Z</time>
            </trkpt>
            <trkpt lat="54.959370" lon="-8.400990">
                <time>2019-06-14T11:13:09Z</time>
            </trkpt>
            <trkpt lat="54.959450" lon="-8.401220">
                <time>2019-06-14T11:13:10Z</time>
            </trkpt>
            <trkpt lat="54.959550" lon="-8.401430">
                <time>2019-06-14T11:13:11Z</time>
            </trkpt>
            <trkpt lat="54.959650" lon="-8.401620">
                <time>2019-06-14T11:13:12Z</time>
            </trkpt>
            <trkpt lat="54.959780" lon="-8.401780">
                <time>2019-06-14T11:13:13Z</time>
            </trkpt>
            <trkpt lat="54.959920" lon="-8.401900">
                <time>2019-06-14T11:13:14Z</time>
            </trkpt>
            <trkpt lat="54.960070" lon="-8.402000">
                <time>2019-06-14T11:13:15Z</time>
            </trkpt>
            <trkpt lat="54.960230" lon="-8.402090">
                <time>2019-06-14T11:13:16Z</time>
            </trkpt>
            <trkpt lat="54.960400" lon="-8.402170">
                <time>2019-06-14T11:13:17Z</time>
            </trkpt>
            <trkpt lat="54.960570" lon="-8.402250">
                <time>2019-06-14T11:13:18Z</time>
            </trkpt>
            <trkpt lat="54.960740" lon="-8.402330">
                <time>2019-06-14T11:13:19Z</time>
            </trkpt>
            <trkpt lat="54.960900" lon="-8.402400">
                <time>2019-06-14T11:13:20Z</time>
            </trkpt>
            <trkpt lat="54.961060" lon="-8.402480">
                <time>2019-06-14T11:13:21Z</time>
            </trkpt>
            <trkpt lat="54.961220" lon="-8.402550">
                <time>2019-06-14T11:13:22Z</time>
            </trkpt>
            <trkpt lat="54.961380" lon="-8.402640">
                <time>2019-06-14T11:13:23Z</time>
            </trkpt>
            <trkpt lat="54.961540" lon="-8.402740">
                <time>2019-06-14T11:13:24Z</time>
            </trkpt>
            <trkpt lat="54.961680" lon="-8.402860">
                <time>2019-06-14T11:13:25Z</time>
            </trkpt>
            <trkpt lat="54.961800" lon="-8.403000">
                <time>2019-06-14T11:13:26Z</time>
            </trkpt>
            <trkpt lat="54.961910" lon="-8.403140">
                <time>2019-06-14T11:13:27Z</time>
            </trkpt>
            <trkpt lat="54.962020" lon="-8.403310">
                <time>2019-06-14T11:13:28Z</time>
            </trkpt>
            <trkpt lat="54.962130" lon="-8.403480">
                <time>2019-06-14T11:13:29Z</time>
            </trkpt>
            <trkpt lat="54.962240" lon="-8.403660">
                <time>2019-06-14T11:13:30Z</time>
            </trkpt>
            <trkpt lat="54.962360" lon="-8.403850">
                <time>2019-06-14T11:13:31Z</time>
            </trkpt>
            <trkpt lat="54.962490" lon="-8.404060">
                <time>2019-06-14T11:13:32Z</time>
            </trkpt>
            <trkpt lat="54.962610" lon="-8.404280">
                <time>2019-06-14T11:13:33Z</time>
            </trkpt>
            <trkpt lat="54.962730" lon="-8.404480">
                <time>2019-06-14T11:13:34Z</time>
            </trkpt>
            <trkpt lat="54.962840" lon="-8.404690">
                <time>2019-06-14T11:13:35Z</time>
            </trkpt>
            <trkpt lat="54.962960" lon="-8.404900">
                <time>2019-06-14T11:13:36Z</time>
            </trkpt>
            <trkpt lat="54.963080" lon="-8.405110">
                <time>2019-06-14T11:13:37Z</time>
            </trkpt>
            <trkpt lat="54.963200" lon="-8.405320">
                <time>2019-06-14T11:13:38Z</time>
            </trkpt>
            <trkpt lat="54.963330" lon="-8.405530">
                <time>2019-06-14T11:13:39Z</time>
            </trkpt>
            <trkpt lat="54.963450" lon="-8.405740">
                <time>2019-06-14T11:13:40Z</time>
            </trkpt>
            <trkpt lat="54.963570" lon="-8.405950">
                <time>2019-06-14T11:13:41Z</time>
            </trkpt>
            <trkpt lat="54.963690" lon="-8.406150">
                <time>2019-06-14T11:13:42Z</time>
            </trkpt>
            <trkpt lat="54.963810" lon="-8.406350">
                <time>2019-06-14T11:13:43Z</time>
            </trkpt>
            <trkpt lat="54.963920" lon="-8.406540">
                <time>2019-06-14T11:13:44Z</time>
            </trkpt>
            <trkpt lat="54.964030" lon="-8.406750">
                <time>2019-06-14T11:13:45Z</time>
            </trkpt>
            <trkpt lat="54.964140" lon="-8.406950">
                <time>2019-06-14T11:13:46Z</time>
            </trkpt>
            <trkpt lat="54.964240" lon="-8.407160">
                <time>2019-06-14T11:13:47Z</time>
            </trkpt>
            <trkpt lat="54.964340" lon="-8.407370">
                <time>2019-06-14T11:13:48Z</time>
            </trkpt>
            <trkpt lat="54.964440" lon="-8.407610">
                <time>2019-06-14T11:13:49Z</time>
            </trkpt>
            <trkpt lat="54.964540" lon="-8.407860">
                <time>2019-06-14T11:13:50Z</time>
            </trkpt>
            <trkpt lat="54.964630" lon="-8.408110">
                <time>2019-06-14T11:13:51Z</time>
            </trkpt>
            <trkpt lat="54.964730" lon="-8.408370">
                <time>2019-06-14T11:13:52Z</time>
            </trkpt>
            <trkpt lat="54.964810" lon="-8.408610">
                <time>2019-06-14T11:13:53Z</time>
            </trkpt>
            <trkpt lat="54.964890" lon="-8.408840">
                <time>2019-06-14T11:13:54Z</time>
            </trkpt>
            <trkpt lat="54.964970" lon="-8.409090">
                <time>2019-06-14T11:13:55Z</time>
            </trkpt>
            <trkpt lat="54.965040" lon="-8.409340">
                <time>2019-06-14T11:13:56Z</time>
            </trkpt>
            <trkpt lat="54.965110" lon="-8.409600">
                <time>2019-06-14T11:13:57Z</time>
            </trkpt>
            <trkpt lat="54.965190" lon="-8.409860">
                <time>2019-06-14T11:13:58Z</time>
            </trkpt>
            <trkpt lat="54.965270" lon="-8.410110">
                <time>2019-06-14T11:13:59Z</time>
            </trkpt>
            <trkpt lat="54.965360" lon="-8.410340">
                <time>2019-06-14T11:14:00Z</time>
            </trkpt>
            <trkpt lat="54.965450" lon="-8.410580">
                <time>2019-06-14T11:14:01Z</time>
            </trkpt>
            <trkpt lat="54.965550" lon="-8.410820">
                <time>2019-06-14T11:14:02Z</time>
            </trkpt>
            <trkpt lat="54.965640" lon="-8.411080">
                <time>2019-06-14T11:14:03Z</time>
            </trkpt>
            <trkpt lat="54.965740" lon="-8.411340">
                <time>2019-06-14T11:14:04Z</time>
            </trkpt>
            <trkpt lat="54.965850" lon="-8.411610">
                <time>2019-06-14T11:14:05Z</time>
            </trkpt>
            <trkpt lat="54.965950" lon="-8.411890">
                <time>2019-06-14T11:14:06Z</time>
            </trkpt>
            <trkpt lat="54.966050" lon="-8.412150">
                <time>2019-06-14T11:14:07Z</time>
            </trkpt>
            <trkpt lat="54.966140" lon="-8.412400">
                <time>2019-06-14T11:14:08Z</time>
            </trkpt>
            <trkpt lat="54.966240" lon="-8.412650">
                <time>2019-06-14T11:14:09Z</time>
            </trkpt>
            <trkpt lat="54.966340" lon="-8.412890">
                <time>2019-06-14T11:14:10Z</time>
            </trkpt>
            <trkpt lat="54.966440" lon="-8.413130">
                <time>2019-06-14T11:14:11Z</time>
            </trkpt>
            <trkpt lat="54.966530" lon="-8.413370">
                <time>2019-06-14T11:14:12Z</time>
            </trkpt>
            <trkpt lat="54.966630" lon="-8.413610">
                <time>2019-06-14T11:14:13Z</time>
            </trkpt>
            <trkpt lat="54.966730" lon="-8.413850">
                <time>2019-06-14T11:14:14Z</time>
            </trkpt>
            <trkpt lat="54.966830" lon="-8.414070">
                <time>2019-06-14T11:14:15Z</time>
            </trkpt>
            <trkpt lat="54.966930" lon="-8.414280">
                <time>2019-06-14T11:14:16Z</time>
            </trkpt>
            <trkpt lat="54.967050" lon="-8.414500">
                <time>2019-06-14T11:14:17Z</time>
            </trkpt>
            <trkpt lat="54.967170" lon="-8.414690">
                <time>2019-06-14T11:14:18Z</time>
            </trkpt>
            <trkpt lat="54.967290" lon="-8.414880">
                <time>2019-06-14T11:14:19Z</time>
            </trkpt>
            <trkpt lat="54.967410" lon="-8.415070">
                <time>2019-06-14T11:14:20Z</time>
            </trkpt>
            <trkpt lat="54.967530" lon="-8.415250">
                <time>2019-06-14T11:14:21Z</time>
            </trkpt>
            <trkpt lat="54.967650" lon="-8.415430">
                <time>2019-06-14T11:14:22Z</time>
            </trkpt>
            <trkpt lat="54.967770" lon="-8.415610">
                <time>2019-06-14T11:14:23Z</time>
            </trkpt>
            <trkpt lat="54.967890" lon="-8.415780">
                <time>2019-06-14T11:14:24Z</time>
            </trkpt>
            <trkpt lat="54.968010" lon="-8.415940">
                <time>2019-06-14T11:14:25Z</time>
            </trkpt>
            <trkpt lat="54.968150" lon="-8.416080">
                <time>2019-06-14T11:14:26Z</time>
            </trkpt>
            <trkpt lat="54.968300" lon="-8.416210">
                <time>2019-06-14T11:14:27Z</time>
            </trkpt>
            <trkpt lat="54.968450" lon="-8.416350">
                <time>2019-06-14T11:14:28Z</time>
            </trkpt>
            <trkpt lat="54.968590" lon="-8.416480">
                <time>2019-06-14T11:14:29Z</time>
            </trkpt>
            <trkpt lat="54.968730" lon="-8.416600">
                <time>2019-06-14T11:14:30Z</time>
            </trkpt>
            <trkpt lat="54.968870" lon="-8.416710">
                <time>2019-06-14T11:14:31Z</time>
            </trkpt>
            <trkpt lat="54.969020" lon="-8.416790">
                <time>2019-06-14T11:14:32Z</time>
            </trkpt>
            <trkpt lat="54.969180" lon="-8.416840">
                <time>2019-06-14T11:14:33Z</time>
            </trkpt>
            <trkpt lat="54.969340" lon="-8.416860">
                <time>2019-06-14T11:14:34Z</time>
            </trkpt>
            <trkpt lat="54.969500" lon="-8.416840">
                <time>2019-06-14T11:14:35Z</time>
            </trkpt>
            <trkpt lat="54.969660" lon="-8.416790">
                <time>2019-06-14T11:14:36Z</time>
            </trkpt>
            <trkpt lat="54.969810" lon="-8.416710">
                <time>2019-06-14T11:14:37Z</time>
            </trkpt>
            <trkpt lat="54.969960" lon="-8.416590">
                <time>2019-06-14T11:14:38Z</time>
            </trkpt>
            <trkpt lat="54.970100" lon="-8.416430">
                <time>2019-06-14T11:14:39Z</time>
            </trkpt>
            <trkpt lat="54.970240" lon="-8.416260">
                <time>2019-06-14T11:14:40Z</time>
            </trkpt>
            <trkpt lat="54.970370" lon="-8.416070">
                <time>2019-06-14T11:14:41Z</time>
            </trkpt>
            <trkpt lat="54.970480" lon="-8.415870">
                <time>2019-06-14T11:14:42Z</time>
            </trkpt>
            <trkpt lat="54.970600" lon="-8.415690">
                <time>2019-06-14T11:14:43Z</time>
            </trkpt>
            <trkpt lat="54.970720" lon="-8.415540">
                <time>2019-06-14T11:14:44Z</time>
            </trkpt>
            <trkpt lat="54.970840" lon="-8.415430">
                <time>2019-06-14T11:14:45Z</time>
            </trkpt>
            <trkpt lat="54.970970" lon="-8.415380">
                <time>2019-06-14T11:14:46Z</time>
            </trkpt>
            <trkpt lat="54.971110" lon="-8.415370">
                <time>2019-06-14T11:14:47Z</time>
            </trkpt>
            <trkpt lat="54.971240" lon="-8.415400">
                <time>2019-06-14T11:14:48Z</time>
            </trkpt>
            <trkpt lat="54.971370" lon="-8.415440">
                <time>2019-06-14T11:14:49Z</time>
            </trkpt>
            <trkpt lat="54.971520" lon="-8.415480">
                <time>2019-06-14T11:14:50Z</time>
            </trkpt>
            <trkpt lat="54.971670" lon="-8.415510">
                <time>2019-06-14T11:14:51Z</time>
            </trkpt>
            <trkpt lat="54.971830" lon="-8.415540">
                <time>2019-06-14T11:14:52Z</time>
            </trkpt>
            <trkpt lat="54.972000" lon="-8.415550">
                <time>2019-06-14T11:14:53Z</time>
            </trkpt>
            <trkpt lat="54.972160" lon="-8.415550">
                <time>2019-06-14T11:14:54Z</time>
            </trkpt>
            <trkpt lat="54.972320" lon="-8.415560">
                <time>2019-06-14T11:14:55Z</time>
            </trkpt>
            <trkpt lat="54.972460" lon="-8.415580">
                <time>2019-06-14T11:14:56Z</time>
            </trkpt>
            <trkpt lat="54.972590" lon="-8.415610">
                <time>2019-06-14T11:14:57Z</time>
            </trkpt>
            <trkpt lat="54.972710" lon="-8.415650">
                <time>2019-06-14T11:14:58Z</time>
            </trkpt>
            <trkpt lat="54.972830" lon="-8.415700">
                <time>2019-06-14T11:14:59Z</time>
            </trkpt>
            <trkpt lat="54.972940" lon="-8.415750">
                <time>2019-06-14T11:15:00Z</time>
            </trkpt>
            <trkpt lat="54.973050" lon="-8.415800">
                <time>2019-06-14T11:15:01Z</time>
            </trkpt>
            <trkpt lat="54.973150" lon="-8.415850">
                <time>2019-06-14T11:15:02Z</time>
            </trkpt>
            <trkpt lat="54.973260" lon="-8.415900">
                <time>2019-06-14T11:15:03Z</time>
            </trkpt>
            <trkpt lat="54.973370" lon="-8.415950">
                <time>2019-06-14T11:15:04Z</time>
            </trkpt>
            <trkpt lat="54.973470" lon="-8.415990">
                <time>2019-06-14T11:15:05Z</time>
            </trkpt>
            <trkpt lat="54.973570" lon="-8.416030">
                <time>2019-06-14T11:15:06Z</time>
            </trkpt>
            <trkpt lat="54.973670" lon="-8.416070">
                <time>2019-06-14T11:15:07Z</time>
            </trkpt>
            <trkpt lat="54.973760" lon="-8.416110">
                <time>2019-06-14T11:15:08Z</time>
            </trkpt>
            <trkpt lat="54.973850" lon="-8.416150">
                <time>2019-06-14T11:15:09Z</time>
            </trkpt>
            <trkpt lat="54.973930" lon="-8.416190">
                <time>2019-06-14T11:15:10Z</time>
            </trkpt>
            <trkpt lat="54.974030" lon="-8.416230">
                <time>2019-06-14T11:15:11Z</time>
            </trkpt>
            <trkpt lat="54.974130" lon="-8.416280">
                <time>2019-06-14T11:15:12Z</time>
            </trkpt>
            <trkpt lat="54.974230" lon="-8.416320">
                <time>2019-06-14T11:15:13Z</time>
            </trkpt>
            <trkpt lat="54.974350" lon="-8.416380">
                <time>2019-06-14T11:15:14Z</time>
            </trkpt>
            <trkpt lat="54.974470" lon="-8.416440">
                <time>2019-06-14T11:15:15Z</time>
            </trkpt>
            <trkpt lat="54.974580" lon="-8.416500">
                <time>2019-06-14T11:15:16Z</time>
            </trkpt>
            <trkpt lat="54.974690" lon="-8.416550">
                <time>2019-06-14T11:15:17Z</time>
            </trkpt>
            <trkpt lat="54.974800" lon="-8.416600">
                <time>2019-06-14T11:15:18Z</time>
            </trkpt>
            <trkpt lat="54.974910" lon="-8.416650">
                <time>2019-06-14T11:15:19Z</time>
            </trkpt>
            <trkpt lat="54.975020" lon="-8.416710">
                <time>2019-06-14T11:15:20Z</time>
            </trkpt>
            <trkpt lat="54.975140" lon="-8.416780">
                <time>2019-06-14T11:15:21Z</time>
            </trkpt>
            <trkpt lat="54.975260" lon="-8.416840">
                <time>2019-06-14T11:15:22Z</time>
            </trkpt>
            <trkpt lat="54.975390" lon="-8.416910">
                <time>2019-06-14T11:15:23Z</time>
            </trkpt>
            <trkpt lat="54.975510" lon="-8.416970">
                <time>2019-06-14T11:15:24Z</time>
            </trkpt>
            <trkpt lat="54.975630" lon="-8.417040">
                <time>2019-06-14T11:15:25Z</time>
            </trkpt>
            <trkpt lat="54.975760" lon="-8.417110">
                <time>2019-06-14T11:15:26Z</time>
            </trkpt>
            <trkpt lat="54.975880" lon="-8.417170">
                <time>2019-06-14T11:15:27Z</time>
            </trkpt>
            <trkpt lat="54.975990" lon="-8.417240">
                <time>2019-06-14T11:15:28Z</time>
            </trkpt>
            <trkpt lat="54.976110" lon="-8.417310">
                <time>2019-06-14T11:15:29Z</time>
            </trkpt>
            <trkpt lat="54.976240" lon="-8.417390">
                <time>2019-06-14T11:15:30Z</time>
            </trkpt>
            <trkpt lat="54.976370" lon="-8.417480">
                <time>2019-06-14T11:15:31Z</time>
            </trkpt>
            <trkpt lat="54.976510" lon="-8.417570">
                <time>2019-06-14T11:15:32Z</time>
            </trkpt>
            <trkpt lat="54.976660" lon="-8.417660">
                <time>2019-06-14T11:15:33Z</time>
            </trkpt>
            <trkpt lat="54.976810" lon="-8.417740">
                <time>2019-06-14T11:15:34Z</time>
            </trkpt>
            <trkpt lat="54.976970" lon="-8.417820">
                <time>2019-06-14T11:15:35Z</time>
            </trkpt>
            <trkpt lat="54.977130" lon="-8.417890">
                <time>2019-06-14T11:15:36Z</time>
            </trkpt>
            <trkpt lat="54.977280" lon="-8.417960">
                <time>2019-06-14T11:15:37Z</time>
            </trkpt>
            <trkpt lat="54.977430" lon="-8.418030">
                <time>2019-06-14T11:15:38Z</time>
            </trkpt>
            <trkpt lat="54.977570" lon="-8.418100">
                <time>2019-06-14T11:15:39Z</time>
            </trkpt>
            <trkpt lat="54.977710" lon="-8.418160">
                <time>2019-06-14T11:15:40Z</time>
            </trkpt>
            <trkpt lat="54.977850" lon="-8.418230">
                <time>2019-06-14T11:15:41Z</time>
            </trkpt>
            <trkpt lat="54.977990" lon="-8.418300">
                <time>2019-06-14T11:15:42Z</time>
            </trkpt>
            <trkpt lat="54.978140" lon="-8.418380">
                <time>2019-06-14T11:15:43Z</time>
            </trkpt>
            <trkpt lat="54.978290" lon="-8.418450">
                <time>2019-06-14T11:15:44Z</time>
            </trkpt>
            <trkpt lat="54.978420" lon="-8.418520">
                <time>2019-06-14T11:15:45Z</time>
            </trkpt>
            <trkpt lat="54.978550" lon="-8.418590">
                <time>2019-06-14T11:15:46Z</time>
            </trkpt>
            <trkpt lat="54.978680" lon="-8.418650">
                <time>2019-06-14T11:15:47Z</time>
            </trkpt>
            <trkpt lat="54.978820" lon="-8.418720">
                <time>2019-06-14T11:15:48Z</time>
            </trkpt>
            <trkpt lat="54.978970" lon="-8.418790">
                <time>2019-06-14T11:15:49Z</time>
            </trkpt>
            <trkpt lat="54.979110" lon="-8.418870">
                <time>2019-06-14T11:15:50Z</time>
            </trkpt>
            <trkpt lat="54.979240" lon="-8.418940">
                <time>2019-06-14T11:15:51Z</time>
            </trkpt>
            <trkpt lat="54.979370" lon="-8.419010">
                <time>2019-06-14T11:15:52Z</time>
            </trkpt>
            <trkpt lat="54.979500" lon="-8.419080">
                <time>2019-06-14T11:15:53Z</time>
            </trkpt>
            <trkpt lat="54.979640" lon="-8.419160">
                <time>2019-06-14T11:15:54Z</time>
            </trkpt>
            <trkpt lat="54.979780" lon="-8.419230">
                <time>2019-06-14T11:15:55Z</time>
            </trkpt>
            <trkpt lat="54.979920" lon="-8.419310">
                <time>2019-06-14T11:15:56Z</time>
            </trkpt>
            <trkpt lat="54.980070" lon="-8.419390">
                <time>2019-06-14T11:15:57Z</time>
            </trkpt>
            <trkpt lat="54.980210" lon="-8.419470">
                <time>2019-06-14T11:15:58Z</time>
            </trkpt>
            <trkpt lat="54.980340" lon="-8.419560">
                <time>2019-06-14T11:15:59Z</time>
            </trkpt>
            <trkpt lat="54.980460" lon="-8.419670">
                <time>2019-06-14T11:16:00Z</time>
            </trkpt>
            <trkpt lat="54.980560" lon="-8.419790">
                <time>2019-06-14T11:16:01Z</time>
            </trkpt>
            <trkpt lat="54.980650" lon="-8.419950">
                <time>2019-06-14T11:16:02Z</time>
            </trkpt>
            <trkpt lat="54.980720" lon="-8.420130">
                <time>2019-06-14T11:16:03Z</time>
            </trkpt>
            <trkpt lat="54.980770" lon="-8.420330">
                <time>2019-06-14T11:16:04Z</time>
            </trkpt>
            <trkpt lat="54.980820" lon="-8.420540">
                <time>2019-06-14T11:16:05Z</time>
            </trkpt>
            <trkpt lat="54.980880" lon="-8.420760">
                <time>2019-06-14T11:16:06Z</time>
            </trkpt>
            <trkpt lat="54.980930" lon="-8.421000">
                <time>2019-06-14T11:16:07Z</time>
            </trkpt>
            <trkpt lat="54.981000" lon="-8.421250">
                <time>2019-06-14T11:16:08Z</time>
            </trkpt>
            <trkpt lat="54.981060" lon="-8.421500">
                <time>2019-06-14T11:16:09Z</time>
            </trkpt>
            <trkpt lat="54.981120" lon="-8.421750">
                <time>2019-06-14T11:16:10Z</time>
            </trkpt>
            <trkpt lat="54.981180" lon="-8.422000">
                <time>2019-06-14T11:16:11Z</time>
            </trkpt>
            <trkpt lat="54.981240" lon="-8.422250">
                <time>2019-06-14T11:16:12Z</time>
            </trkpt>
            <trkpt lat="54.981300" lon="-8.422510">
                <time>2019-06-14T11:16:13Z</time>
            </trkpt>
            <trkpt lat="54.981360" lon="-8.422760">
                <time>2019-06-14T11:16:14Z</time>
            </trkpt>
            <trkpt lat="54.981420" lon="-8.423000">
                <time>2019-06-14T11:16:15Z</time>
            </trkpt>
            <trkpt lat="54.981480" lon="-8.423230">
                <time>2019-06-14T11:16:16Z</time>
            </trkpt>
            <trkpt lat="54.981530" lon="-8.423460">
                <time>2019-06-14T11:16:17Z</time>
            </trkpt>
            <trkpt lat="54.981600" lon="-8.423710">
                <time>2019-06-14T11:16:18Z</time>
            </trkpt>
            <trkpt lat="54.981670" lon="-8.423960">
                <time>2019-06-14T11:16:19Z</time>
            </trkpt>
            <trkpt lat="54.981750" lon="-8.424210">
                <time>2019-06-14T11:16:20Z</time>
            </trkpt>
            <trkpt lat="54.981840" lon="-8.424440">
                <time>2019-06-14T11:16:21Z</time>
            </trkpt>
            <trkpt lat="54.981950" lon="-8.424650">
                <time>2019-06-14T11:16:22Z</time>
            </trkpt>
            <trkpt lat="54.982060" lon="-8.424850">
                <time>2019-06-14T11:16:23Z</time>
            </trkpt>
            <trkpt lat="54.982180" lon="-8.425040">
                <time>2019-06-14T11:16:24Z</time>
            </trkpt>
            <trkpt lat="54.982300" lon="-8.425220">
                <time>2019-06-14T11:16:25Z</time>
            </trkpt>
            <trkpt lat="54.982430" lon="-8.425400">
                <time>2019-06-14T11:16:26Z</time>
            </trkpt>
            <trkpt lat="54.982550" lon="-8.425570">
                <time>2019-06-14T11:16:27Z</time>
            </trkpt>
            <trkpt lat="54.982680" lon="-8.425720">
                <time>2019-06-14T11:16:28Z</time>
            </trkpt>
            <trkpt lat="54.982790" lon="-8.425860">
                <time>2019-06-14T11:16:29Z</time>
            </trkpt>
            <trkpt lat="54.982900" lon="-8.425990">
                <time>2019-06-14T11:16:30Z</time>
            </trkpt>
            <trkpt lat="54.983010" lon="-8.426110">
                <time>2019-06-14T11:16:31Z</time>
            </trkpt>
            <trkpt lat="54.983110" lon="-8.426230">
                <time>2019-06-14T11:16:32Z</time>
            </trkpt>
            <trkpt lat="54.983220" lon="-8.426350">
                <time>2019-06-14T11:16:33Z</time>
            </trkpt>
            <trkpt lat="54.983330" lon="-8.426470">
                <time>2019-06-14T11:16:34Z</time>
            </trkpt>
            <trkpt lat="54.983440" lon="-8.426590">
                <time>2019-06-14T11:16:35Z</time>
            </trkpt>
            <trkpt lat="54.983540" lon="-8.426710">
                <time>2019-06-14T11:16:36Z</time>
            </trkpt>
            <trkpt lat="54.983640" lon="-8.426820">
                <time>2019-06-14T11:16:37Z</time>
            </trkpt>
            <trkpt lat="54.983740" lon="-8.426940">
                <time>2019-06-14T11:16:38Z</time>
            </trkpt>
            <trkpt lat="54.983830" lon="-8.427050">
                <time>2019-06-14T11:16:39Z</time>
            </trkpt>
            <trkpt lat="54.983920" lon="-8.427150">
                <time>2019-06-14T11:16:40Z</time>
            </trkpt>
            <trkpt lat="54.984000" lon="-8.427230">
                <time>2019-06-14T11:16:41Z</time>
            </trkpt>
            <trkpt lat="54.984080" lon="-8.427310">
                <time>2019-06-14T11:16:42Z</time>
            </trkpt>
            <trkpt lat="54.984150" lon="-8.427370">
                <time>2019-06-14T11:16:43Z</time>
            </trkpt>
            <trkpt lat="54.984210" lon="-8.427450">
                <time>2019-06-14T11:16:44Z</time>
            </trkpt>
            <trkpt lat="54.984260" lon="-8.427570">
                <time>2019-06-14T11:16:45Z</time>
            </trkpt>
            <trkpt lat="54.984290" lon="-8.427720">
                <time>2019-06-14T11:16:46Z</time>
            </trkpt>
            <trkpt lat="54.984300" lon="-8.427860">
                <time>2019-06-14T11:16:47Z</time>
            </trkpt>
            <trkpt lat="54.984300" lon="-8.427990">
                <time>2019-06-14T11:16:48Z</time>
            </trkpt>
            <trkpt lat="54.984300" lon="-8.428140">
                <time>2019-06-14T11:16:49Z</time>
            </trkpt>
            <trkpt lat="54.984300" lon="-8.428340">
                <time>2019-06-14T11:16:50Z</time>
            </trkpt>
            <trkpt lat="54.984310" lon="-8.428560">
                <time>2019-06-14T11:16:51Z</time>
            </trkpt>
            <trkpt lat="54.984310" lon="-8.428770">
                <time>2019-06-14T11:16:52Z</time>
            </trkpt>
            <trkpt lat="54.984320" lon="-8.429000">
                <time>2019-06-14T11:16:53Z</time>
            </trkpt>
            <trkpt lat="54.984320" lon="-8.429230">
                <time>2019-06-14T11:16:54Z</time>
            </trkpt>
            <trkpt lat="54.984330" lon="-8.429460">
                <time>2019-06-14T11:16:55Z</time>
            </trkpt>
            <trkpt lat="54.984330" lon="-8.429700">
                <time>2019-06-14T11:16:56Z</time>
            </trkpt>
            <trkpt lat="54.984340" lon="-8.429950">
                <time>2019-06-14T11:16:57Z</time>
            </trkpt>
            <trkpt lat="54.984340" lon="-8.430220">
                <time>2019-06-14T11:16:58Z</time>
            </trkpt>
            <trkpt lat="54.984340" lon="-8.430500">
                <time>2019-06-14T11:16:59Z</time>
            </trkpt>
            <trkpt lat="54.984350" lon="-8.430800">
                <time>2019-06-14T11:17:00Z</time>
            </trkpt>
            <trkpt lat="54.984360" lon="-8.431100">
                <time>2019-06-14T11:17:01Z</time>
            </trkpt>
            <trkpt lat="54.984390" lon="-8.431430">
                <time>2019-06-14T11:17:02Z</time>
            </trkpt>
            <trkpt lat="54.984430" lon="-8.431750">
                <time>2019-06-14T11:17:03Z</time>
            </trkpt>
            <trkpt lat="54.984460" lon="-8.432050">
                <time>2019-06-14T11:17:04Z</time>
            </trkpt>
            <trkpt lat="54.984490" lon="-8.432360">
                <time>2019-06-14T11:17:05Z</time>
            </trkpt>
            <trkpt lat="54.984520" lon="-8.432670">
                <time>2019-06-14T11:17:06Z</time>
            </trkpt>
            <trkpt lat="54.984550" lon="-8.432960">
                <time>2019-06-14T11:17:07Z</time>
            </trkpt>
            <trkpt lat="54.984570" lon="-8.433240">
                <time>2019-06-14T11:17:08Z</time>
            </trkpt>
            <trkpt lat="54.984590" lon="-8.433500">
                <time>2019-06-14T11:17:09Z</time>
            </trkpt>
            <trkpt lat="54.984600" lon="-8.433740">
                <time>2019-06-14T11:17:10Z</time>
            </trkpt>
            <trkpt lat="54.984620" lon="-8.433960">
                <time>2019-06-14T11:17:11Z</time>
            </trkpt>
            <trkpt lat="54.984640" lon="-8.434160">
                <time>2019-06-14T11:17:12Z</time>
            </trkpt>
            <trkpt lat="54.984650" lon="-8.434360">
                <time>2019-06-14T11:17:13Z</time>
            </trkpt>
            <trkpt lat="54.984670" lon="-8.434540">
                <time>2019-06-14T11:17:14Z</time>
            </trkpt>
            <trkpt lat="54.984680" lon="-8.434730">
                <time>2019-06-14T11:17:15Z</time>
            </trkpt>
            <trkpt lat="54.984690" lon="-8.434910">
                <time>2019-06-14T11:17:16Z</time>
            </trkpt>
            <trkpt lat="54.984690" lon="-8.435080">
                <time>2019-06-14T11:17:17Z</time>
            </trkpt>
            <trkpt lat="54.984700" lon="-8.435250">
                <time>2019-06-14T11:17:18Z</time>
            </trkpt>
            <trkpt lat="54.984710" lon="-8.435410">
                <time>2019-06-14T11:17:19Z</time>
            </trkpt>
            <trkpt lat="54.984720" lon="-8.435580">
                <time>2019-06-14T11:17:20Z</time>
            </trkpt>
            <trkpt lat="54.984730" lon="-8.435750">
                <time>2019-06-14T11:17:21Z</time>
            </trkpt>
            <trkpt lat="54.984740" lon="-8.435930">
                <time>2019-06-14T11:17:22Z</time>
            </trkpt>
            <trkpt lat="54.984760" lon="-8.436100">
                <time>2019-06-14T11:17:23Z</time>
            </trkpt>
            <trkpt lat="54.984770" lon="-8.436260">
                <time>2019-06-14T11:17:24Z</time>
            </trkpt>
            <trkpt lat="54.984780" lon="-8.436410">
                <time>2019-06-14T11:17:25Z</time>
            </trkpt>
            <trkpt lat="54.984780" lon="-8.436550">
                <time>2019-06-14T11:17:26Z</time>
            </trkpt>
            <trkpt lat="54.984780" lon="-8.436680">
                <time>2019-06-14T11:17:27Z</time>
            </trkpt>
            <trkpt lat="54.984780" lon="-8.436810">
                <time>2019-06-14T11:17:28Z</time>
            </trkpt>
            <trkpt lat="54.984780" lon="-8.436950">
                <time>2019-06-14T11:17:29Z</time>
            </trkpt>
            <trkpt lat="54.984780" lon="-8.437080">
                <time>2019-06-14T11:17:30Z</time>
            </trkpt>
            <trkpt lat="54.984780" lon="-8.437230">
                <time>2019-06-14T11:17:31Z</time>
            </trkpt>
            <trkpt lat="54.984780" lon="-8.437380">
                <time>2019-06-14T11:17:32Z</time>
            </trkpt>
            <trkpt lat="54.984790" lon="-8.437540">
                <time>2019-06-14T11:17:33Z</time>
            </trkpt>
            <trkpt lat="54.984790" lon="-8.437680">
                <time>2019-06-14T11:17:34Z</time>
            </trkpt>
            <trkpt lat="54.984810" lon="-8.437840">
                <time>2019-06-14T11:17:35Z</time>
            </trkpt>
            <trkpt lat="54.984820" lon="-8.438020">
                <time>2019-06-14T11:17:36Z</time>
            </trkpt>
            <trkpt lat="54.984810" lon="-8.438200">
                <time>2019-06-14T11:17:37Z</time>
            </trkpt>
            <trkpt lat="54.984780" lon="-8.438370">
                <time>2019-06-14T11:17:38Z</time>
            </trkpt>
            <trkpt lat="54.984730" lon="-8.438510">
                <time>2019-06-14T11:17:39Z</time>
            </trkpt>
            <trkpt lat="54.984680" lon="-8.438630">
                <time>2019-06-14T11:17:40Z</time>
            </trkpt>
            <trkpt lat="54.984620" lon="-8.438750">
                <time>2019-06-14T11:17:41Z</time>
            </trkpt>
            <trkpt lat="54.984560" lon="-8.438880">
                <time>2019-06-14T11:17:42Z</time>
            </trkpt>
            <trkpt lat="54.984490" lon="-8.439020">
                <time>2019-06-14T11:17:43Z</time>
            </trkpt>
            <trkpt lat="54.984420" lon="-8.439150">
                <time>2019-06-14T11:17:44Z</time>
            </trkpt>
            <trkpt lat="54.984350" lon="-8.439270">
                <time>2019-06-14T11:17:45Z</time>
            </trkpt>
            <trkpt lat="54.984280" lon="-8.439400">
                <time>2019-06-14T11:17:46Z</time>
            </trkpt>
            <trkpt lat="54.984220" lon="-8.439490">
                <time>2019-06-14T11:17:47Z</time>
            </trkpt>
            <trkpt lat="54.984190" lon="-8.439560">
                <time>2019-06-14T11:17:48Z</time>
            </trkpt>
            <trkpt lat="54.984160" lon="-8.439620">
                <time>2019-06-14T11:17:49Z</time>
            </trkpt>
            <trkpt lat="54.984130" lon="-8.439690">
                <time>2019-06-14T11:17:50Z</time>
            </trkpt>
            <trkpt lat="54.984090" lon="-8.439750">
                <time>2019-06-14T11:17:51Z</time>
            </trkpt>
            <trkpt lat="54.984060" lon="-8.439800">
                <time>2019-06-14T11:17:52Z</time>
            </trkpt>
            <trkpt lat="54.984030" lon="-8.439860">
                <time>2019-06-14T11:17:53Z</time>
            </trkpt>
            <trkpt lat="54.984000" lon="-8.439920">
                <time>2019-06-14T11:17:54Z</time>
            </trkpt>
            <trkpt lat="54.983970" lon="-8.439980">
                <time>2019-06-14T11:17:55Z</time>
            </trkpt>
            <trkpt lat="54.983940" lon="-8.440050">
                <time>2019-06-14T11:17:56Z</time>
            </trkpt>
            <trkpt lat="54.983900" lon="-8.440120">
                <time>2019-06-14T11:17:57Z</time>
            </trkpt>
            <trkpt lat="54.983860" lon="-8.440180">
                <time>2019-06-14T11:17:58Z</time>
            </trkpt>
            <trkpt lat="54.983810" lon="-8.440260">
                <time>2019-06-14T11:17:59Z</time>
            </trkpt>
            <trkpt lat="54.983770" lon="-8.440350">
                <time>2019-06-14T11:18:00Z</time>
            </trkpt>
            <trkpt lat="54.983720" lon="-8.440450">
                <time>2019-06-14T11:18:01Z</time>
            </trkpt>
            <trkpt lat="54.983660" lon="-8.440540">
                <time>2019-06-14T11:18:02Z</time>
            </trkpt>
            <trkpt lat="54.983610" lon="-8.440630">
                <time>2019-06-14T11:18:03Z</time>
            </trkpt>
            <trkpt lat="54.983570" lon="-8.440720">
                <time>2019-06-14T11:18:04Z</time>
            </trkpt>
            <trkpt lat="54.983530" lon="-8.440800">
                <time>2019-06-14T11:18:05Z</time>
            </trkpt>
            <trkpt lat="54.983490" lon="-8.440880">
                <time>2019-06-14T11:18:06Z</time>
            </trkpt>
            <trkpt lat="54.983450" lon="-8.440970">
                <time>2019-06-14T11:18:07Z</time>
            </trkpt>
            <trkpt lat="54.983410" lon="-8.441060">
                <time>2019-06-14T11:18:08Z</time>
            </trkpt>
            <trkpt lat="54.983380" lon="-8.441130">
                <time>2019-06-14T11:18:09Z</time>
            </trkpt>
            <trkpt lat="54.983370" lon="-8.441190">
                <time>2019-06-14T11:18:10Z</time>
            </trkpt>
            <trkpt lat="54.983370" lon="-8.441240">
                <time>2019-06-14T11:18:11Z</time>
            </trkpt>
            <trkpt lat="54.983380" lon="-8.441280">
                <time>2019-06-14T11:18:12Z</time>
            </trkpt>
            <trkpt lat="54.983390" lon="-8.441310">
                <time>2019-06-14T11:18:13Z</time>
            </trkpt>
            <trkpt lat="54.983410" lon="-8.441340">
                <time>2019-06-14T11:18:14Z</time>
            </trkpt>
            <trkpt lat="54.983430" lon="-8.441360">
                <time>2019-06-14T11:18:15Z</time>
            </trkpt>
            <trkpt lat="54.983460" lon="-8.441370">
                <time>2019-06-14T11:18:16Z</time>
            </trkpt>
            <trkpt lat="54.983480" lon="-8.441380">
                <time>2019-06-14T11:18:17Z</time>
            </trkpt>
            <trkpt lat="54.983510" lon="-8.441390">
                <time>2019-06-14T11:18:18Z</time>
            </trkpt>
            <trkpt lat="54.983530" lon="-8.441390">
                <time>2019-06-14T11:18:19Z</time>
            </trkpt>
            <trkpt lat="54.983550" lon="-8.441380">
                <time>2019-06-14T11:18:20Z</time>
            </trkpt>
            <trkpt lat="54.983570" lon="-8.441350">
                <time>2019-06-14T11:18:21Z</time>
            </trkpt>
            <trkpt lat="54.983580" lon="-8.441320">
                <time>2019-06-14T11:18:22Z</time>
            </trkpt>
            <trkpt lat="54.983600" lon="-8.441290">
                <time>2019-06-14T11:18:23Z</time>
            </trkpt>
            <trkpt lat="54.983600" lon="-8.441250">
                <time>2019-06-14T11:18:24Z</time>
            </trkpt>
            <trkpt lat="54.983600" lon="-8.441210">
                <time>2019-06-14T11:18:25Z</time>
            </trkpt>
            <trkpt lat="54.983590" lon="-8.441180">
                <time>2019-06-14T11:18:26Z</time>
            </trkpt>
            <trkpt lat="54.983580" lon="-8.441150">
                <time>2019-06-14T11:18:27Z</time>
            </trkpt>
            <trkpt lat="54.983560" lon="-8.441130">
                <time>2019-06-14T11:18:28Z</time>
            </trkpt>
            <trkpt lat="54.983540" lon="-8.441110">
                <time>2019-06-14T11:18:29Z</time>
            </trkpt>
            <trkpt lat="54.983510" lon="-8.441100">
                <time>2019-06-14T11:18:30Z</time>
            </trkpt>
            <trkpt lat="54.983490" lon="-8.441080">
                <time>2019-06-14T11:18:31Z</time>
            </trkpt>
            <trkpt lat="54.983460" lon="-8.441040">
                <time>2019-06-14T11:18:32Z</time>
            </trkpt>
            <trkpt lat="54.983490" lon="-8.440930">
                <time>2019-06-14T11:18:33Z</time>
            </trkpt>
            <trkpt lat="54.983530" lon="-8.440850">
                <time>2019-06-14T11:18:34Z</time>
            </trkpt>
            <trkpt lat="54.983570" lon="-8.440770">
                <time>2019-06-14T11:18:35Z</time>
            </trkpt>
            <trkpt lat="54.983620" lon="-8.440680">
                <time>2019-06-14T11:18:36Z</time>
            </trkpt>
            <trkpt lat="54.983660" lon="-8.440590">
                <time>2019-06-14T11:18:37Z</time>
            </trkpt>
            <trkpt lat="54.983710" lon="-8.440500">
                <time>2019-06-14T11:18:38Z</time>
            </trkpt>
            <trkpt lat="54.983750" lon="-8.440420">
                <time>2019-06-14T11:18:39Z</time>
            </trkpt>
            <trkpt lat="54.983780" lon="-8.440360">
                <time>2019-06-14T11:18:40Z</time>
            </trkpt>
            <trkpt lat="54.983820" lon="-8.440300">
                <time>2019-06-14T11:18:41Z</time>
            </trkpt>
            <trkpt lat="54.983840" lon="-8.440260">
                <time>2019-06-14T11:18:42Z</time>
            </trkpt>
            <trkpt lat="54.983850" lon="-8.440230">
                <time>2019-06-14T11:18:43Z</time>
            </trkpt>
            <trkpt lat="54.983870" lon="-8.440220">
                <time>2019-06-14T11:18:44Z</time>
            </trkpt>
            <trkpt lat="54.983890" lon="-8.440220">
                <time>2019-06-14T11:18:45Z</time>
            </trkpt>
            <trkpt lat="54.983910" lon="-8.440240">
                <time>2019-06-14T11:18:46Z</time>
            </trkpt>
            <trkpt lat="54.983930" lon="-8.440250">
                <time>2019-06-14T11:18:47Z</time>
            </trkpt>
            <trkpt lat="54.983930" lon="-8.440270">
                <time>2019-06-14T11:18:48Z</time>
            </trkpt>
            <trkpt lat="54.983930" lon="-8.440270">
                <time>2019-06-14T11:18:49Z</time>
            </trkpt>
            <trkpt lat="54.983930" lon="-8.440270">
                <time>2019-06-14T11:18:50Z</time>
            </trkpt>
            <trkpt lat="54.983930" lon="-8.440270">
                <time>2019-06-14T11:18:51Z</time>
            </trkpt>
            <trkpt lat="54.983930" lon="-8.440260">
                <time>2019-06-14T11:18:52Z</time>
            </trkpt>
            <trkpt lat="54.983940" lon="-8.440260">
                <time>2019-06-14T11:18:53Z</time>
            </trkpt>
            <trkpt lat="54.983940" lon="-8.440260">
                <time>2019-06-14T11:18:54Z</time>
            </trkpt>
            <trkpt lat="54.983940" lon="-8.440260">
                <time>2019-06-14T11:18:55Z</time>
            </trkpt>
            <trkpt lat="54.983940" lon="-8.440260">
                <time>2019-06-14T11:18:56Z</time>
            </trkpt>
            <trkpt lat="54.983940" lon="-8.440270">
                <time>2019-06-14T11:18:57Z</time>
            </trkpt>
            <trkpt lat="54.983950" lon="-8.440270">
                <time>2019-06-14T11:18:58Z</time>
            </trkpt>
            <trkpt lat="54.983970" lon="-8.440280">
                <time>2019-06-14T11:18:59Z</time>
            </trkpt>
            <trkpt lat="54.983990" lon="-8.440270">
                <time>2019-06-14T11:19:00Z</time>
            </trkpt>
            <trkpt lat="54.984020" lon="-8.440240">
                <time>2019-06-14T11:19:01Z</time>
            </trkpt>
            <trkpt lat="54.984040" lon="-8.440220">
                <time>2019-06-14T11:19:02Z</time>
            </trkpt>
            <trkpt lat="54.984050" lon="-8.440190">
                <time>2019-06-14T11:19:03Z</time>
            </trkpt>
            <trkpt lat="54.984050" lon="-8.440170">
                <time>2019-06-14T11:19:04Z</time>
            </trkpt>
            <trkpt lat="54.984050" lon="-8.440150">
                <time>2019-06-14T11:19:05Z</time>
            </trkpt>
            <trkpt lat="54.984050" lon="-8.440150">
                <time>2019-06-14T11:19:06Z</time>
            </trkpt>
            <trkpt lat="54.984050" lon="-8.440150">
                <time>2019-06-14T11:19:07Z</time>
            </trkpt>
            <trkpt lat="54.984050" lon="-8.440150">
                <time>2019-06-14T11:19:08Z</time>
            </trkpt>
            <trkpt lat="54.984050" lon="-8.440150">
                <time>2019-06-14T11:19:09Z</time>
            </trkpt>
            <trkpt lat="54.984050" lon="-8.440150">
                <time>2019-06-14T11:19:10Z</time>
            </trkpt>
            <trkpt lat="54.984060" lon="-8.440150">
                <time>2019-06-14T11:19:11Z</time>
            </trkpt>
            <trkpt lat="54.984070" lon="-8.440140">
                <time>2019-06-14T11:19:12Z</time>
            </trkpt>
            <trkpt lat="54.984070" lon="-8.440150">
                <time>2019-06-14T11:19:13Z</time>
            </trkpt>
            <trkpt lat="54.984070" lon="-8.440150">
                <time>2019-06-14T11:19:14Z</time>
            </trkpt>
            <trkpt lat="54.984080" lon="-8.440150">
                <time>2019-06-14T11:19:15Z</time>
            </trkpt>
            <trkpt lat="54.984080" lon="-8.440160">
                <time>2019-06-14T11:19:16Z</time>
            </trkpt>
            <trkpt lat="54.984080" lon="-8.440160">
                <time>2019-06-14T11:19:17Z</time>
            </trkpt>
            <trkpt lat="54.984080" lon="-8.440160">
                <time>2019-06-14T11:19:18Z</time>
            </trkpt>
            <trkpt lat="54.984080" lon="-8.440160">
                <time>2019-06-14T11:19:19Z</time>
            </trkpt>
            <trkpt lat="54.984080" lon="-8.440160">
                <time>2019-06-14T11:19:20Z</time>
            </trkpt>
            <trkpt lat="54.984080" lon="-8.440160">
                <time>2019-06-14T11:19:21Z</time>
            </trkpt>
            <trkpt lat="54.984070" lon="-8.440170">
                <time>2019-06-14T11:19:22Z</time>
            </trkpt>
            <trkpt lat="54.984070" lon="-8.440170">
                <time>2019-06-14T11:19:23Z</time>
            </trkpt>
            <trkpt lat="54.984070" lon="-8.440170">
                <time>2019-06-14T11:19:24Z</time>
            </trkpt>
            <trkpt lat="54.984070" lon="-8.440170">
                <time>2019-06-14T11:19:25Z</time>
            </trkpt>
            <trkpt lat="54.984070" lon="-8.440170">
                <time>2019-06-14T11:19:26Z</time>
            </trkpt>
            <trkpt lat="54.984070" lon="-8.440170">
                <time>2019-06-14T11:19:27Z</time>
            </trkpt>
            <trkpt lat="54.984070" lon="-8.440170">
                <time>2019-06-14T11:19:28Z</time>
            </trkpt>
            <trkpt lat="54.984070" lon="-8.440170">
                <time>2019-06-14T11:19:29Z</time>
            </trkpt>
            <trkpt lat="54.984070" lon="-8.440170">
                <time>2019-06-14T11:19:30Z</time>
            </trkpt>
            <trkpt lat="54.984070" lon="-8.440170">
                <time>2019-06-14T11:19:31Z</time>
            </trkpt>
            <trkpt lat="54.984070" lon="-8.440170">
                <time>2019-06-14T11:19:32Z</time>
            </trkpt>
            <trkpt lat="54.984070" lon="-8.440170">
                <time>2019-06-14T11:19:33Z</time>
            </trkpt>
            <trkpt lat="54.984060" lon="-8.440160">
                <time>2019-06-14T11:19:34Z</time>
            </trkpt>
            <trkpt lat="54.984060" lon="-8.440160">
                <time>2019-06-14T11:19:35Z</time>
            </trkpt>
            <trkpt lat="54.984060" lon="-8.440160">
                <time>2019-06-14T11:19:36Z</time>
            </trkpt>
            <trkpt lat="54.984060" lon="-8.440160">
                <time>2019-06-14T11:19:37Z</time>
            </trkpt>
            <trkpt lat="54.984060" lon="-8.440160">
                <time>2019-06-14T11:19:38Z</time>
            </trkpt>
            <trkpt lat="54.984060" lon="-8.440160">
                <time>2019-06-14T11:19:39Z</time>
            </trkpt>
            <trkpt lat="54.984060" lon="-8.440170">
                <time>2019-06-14T11:19:40Z</time>
            </trkpt>
            <trkpt lat="54.984070" lon="-8.440180">
                <time>2019-06-14T11:19:41Z</time>
            </trkpt>
            <trkpt lat="54.984070" lon="-8.440200">
                <time>2019-06-14T11:19:42Z</time>
            </trkpt>
            <trkpt lat="54.984070" lon="-8.440210">
                <time>2019-06-14T11:19:43Z</time>
            </trkpt>
            <trkpt lat="54.984080" lon="-8.440210">
                <time>2019-06-14T11:19:44Z</time>
            </trkpt>
            <trkpt lat="54.984080" lon="-8.440210">
                <time>2019-06-14T11:19:45Z</time>
            </trkpt>
            <trkpt lat="54.984070" lon="-8.440210">
                <time>2019-06-14T11:19:46Z</time>
            </trkpt>
            <trkpt lat="54.984070" lon="-8.440200">
                <time>2019-06-14T11:19:47Z</time>
            </trkpt>
            <trkpt lat="54.984070" lon="-8.440200">
                <time>2019-06-14T11:19:48Z</time>
            </trkpt>
            <trkpt lat="54.984070" lon="-8.440190">
                <time>2019-06-14T11:19:49Z</time>
            </trkpt>
            <trkpt lat="54.984060" lon="-8.440190">
                <time>2019-06-14T11:19:50Z</time>
            </trkpt>
            <trkpt lat="54.984060" lon="-8.440200">
                <time>2019-06-14T11:19:51Z</time>
            </trkpt>
            <trkpt lat="54.984060" lon="-8.440210">
                <time>2019-06-14T11:19:52Z</time>
            </trkpt>
            <trkpt lat="54.984050" lon="-8.440220">
                <time>2019-06-14T11:19:53Z</time>
            </trkpt>
            <trkpt lat="54.984050" lon="-8.440230">
                <time>2019-06-14T11:19:54Z</time>
            </trkpt>
            <trkpt lat="54.984040" lon="-8.440240">
                <time>2019-06-14T11:19:55Z</time>
            </trkpt>
            <trkpt lat="54.984030" lon="-8.440250">
                <time>2019-06-14T11:19:56Z</time>
            </trkpt>
            <trkpt lat="54.984020" lon="-8.440270">
                <time>2019-06-14T11:19:57Z</time>
            </trkpt>
            <trkpt lat="54.984010" lon="-8.440290">
                <time>2019-06-14T11:19:58Z</time>
            </trkpt>
            <trkpt lat="54.984000" lon="-8.440300">
                <time>2019-06-14T11:19:59Z</time>
            </trkpt>
            <trkpt lat="54.984000" lon="-8.440300">
                <time>2019-06-14T11:20:00Z</time>
            </trkpt>
            <trkpt lat="54.984000" lon="-8.440300">
                <time>2019-06-14T11:20:01Z</time>
            </trkpt>
            <trkpt lat="54.984000" lon="-8.440300">
                <time>2019-06-14T11:20:02Z</time>
            </trkpt>
            <trkpt lat="54.984000" lon="-8.440300">
                <time>2019-06-14T11:20:03Z</time>
            </trkpt>
            <trkpt lat="54.984000" lon="-8.440300">
                <time>2019-06-14T11:20:04Z</time>
            </trkpt>
            <trkpt lat="54.984000" lon="-8.440300">
                <time>2019-06-14T11:20:05Z</time>
            </trkpt>
            <trkpt lat="54.984000" lon="-8.440290">
                <time>2019-06-14T11:20:06Z</time>
            </trkpt>
            <trkpt lat="54.984000" lon="-8.440290">
                <time>2019-06-14T11:20:07Z</time>
            </trkpt>
            <trkpt lat="54.984000" lon="-8.440290">
                <time>2019-06-14T11:20:08Z</time>
            </trkpt>
            <trkpt lat="54.983990" lon="-8.440290">
                <time>2019-06-14T11:20:09Z</time>
            </trkpt>
            <trkpt lat="54.983990" lon="-8.440290">
                <time>2019-06-14T11:20:10Z</time>
            </trkpt>
            <trkpt lat="54.983990" lon="-8.440300">
                <time>2019-06-14T11:20:11Z</time>
            </trkpt>
            <trkpt lat="54.983990" lon="-8.440300">
                <time>2019-06-14T11:20:12Z</time>
            </trkpt>
            <trkpt lat="54.983990" lon="-8.440300">
                <time>2019-06-14T11:20:13Z</time>
            </trkpt>
            <trkpt lat="54.983990" lon="-8.440300">
                <time>2019-06-14T11:20:14Z</time>
            </trkpt>
            <trkpt lat="54.983990" lon="-8.440300">
                <time>2019-06-14T11:20:15Z</time>
            </trkpt>
            <trkpt lat="54.983990" lon="-8.440300">
                <time>2019-06-14T11:20:16Z</time>
            </trkpt>
            <trkpt lat="54.983990" lon="-8.440300">
                <time>2019-06-14T11:20:17Z</time>
            </trkpt>
            <trkpt lat="54.983990" lon="-8.440300">
                <time>2019-06-14T11:20:18Z</time>
            </trkpt>
            <trkpt lat="54.983990" lon="-8.440300">
                <time>2019-06-14T11:20:19Z</time>
            </trkpt>
            <trkpt lat="54.983990" lon="-8.440300">
                <time>2019-06-14T11:20:20Z</time>
            </trkpt>
            <trkpt lat="54.983990" lon="-8.440300">
                <time>2019-06-14T11:20:21Z</time>
            </trkpt>
            <trkpt lat="54.983990" lon="-8.440300">
                <time>2019-06-14T11:20:22Z</time>
            </trkpt>
            <trkpt lat="54.983990" lon="-8.440300">
                <time>2019-06-14T11:20:23Z</time>
            </trkpt>
            <trkpt lat="54.983990" lon="-8.440300">
                <time>2019-06-14T11:20:24Z</time>
            </trkpt>
            <trkpt lat="54.983990" lon="-8.440300">
                <time>2019-06-14T11:20:25Z</time>
            </trkpt>
            <trkpt lat="54.983920" lon="-8.440140">
                <time>2019-06-14T12:58:05Z</time>
            </trkpt>
            <trkpt lat="54.983930" lon="-8.440270">
                <time>2019-06-14T12:58:06Z</time>
            </trkpt>
            <trkpt lat="54.983920" lon="-8.440270">
                <time>2019-06-14T12:58:07Z</time>
            </trkpt>
            <trkpt lat="54.983960" lon="-8.440260">
                <time>2019-06-14T12:58:08Z</time>
            </trkpt>
            <trkpt lat="54.983920" lon="-8.440280">
                <time>2019-06-14T12:58:09Z</time>
            </trkpt>
            <trkpt lat="54.983920" lon="-8.440280">
                <time>2019-06-14T12:58:10Z</time>
            </trkpt>
            <trkpt lat="54.983920" lon="-8.440280">
                <time>2019-06-14T12:58:11Z</time>
            </trkpt>
            <trkpt lat="54.983930" lon="-8.440290">
                <time>2019-06-14T12:58:12Z</time>
            </trkpt>
            <trkpt lat="54.983930" lon="-8.440280">
                <time>2019-06-14T12:58:13Z</time>
            </trkpt>
            <trkpt lat="54.983920" lon="-8.440280">
                <time>2019-06-14T12:58:14Z</time>
            </trkpt>
            <trkpt lat="54.983920" lon="-8.440270">
                <time>2019-06-14T12:58:15Z</time>
            </trkpt>
            <trkpt lat="54.983920" lon="-8.440270">
                <time>2019-06-14T12:58:16Z</time>
            </trkpt>
            <trkpt lat="54.983920" lon="-8.440270">
                <time>2019-06-14T12:58:17Z</time>
            </trkpt>
            <trkpt lat="54.983920" lon="-8.440270">
                <time>2019-06-14T12:58:18Z</time>
            </trkpt>
            <trkpt lat="54.983920" lon="-8.440270">
                <time>2019-06-14T12:58:19Z</time>
            </trkpt>
            <trkpt lat="54.983920" lon="-8.440280">
                <time>2019-06-14T12:58:20Z</time>
            </trkpt>
            <trkpt lat="54.983910" lon="-8.440280">
                <time>2019-06-14T12:58:21Z</time>
            </trkpt>
            <trkpt lat="54.983910" lon="-8.440280">
                <time>2019-06-14T12:58:22Z</time>
            </trkpt>
            <trkpt lat="54.983910" lon="-8.440280">
                <time>2019-06-14T12:58:23Z</time>
            </trkpt>
            <trkpt lat="54.983910" lon="-8.440280">
                <time>2019-06-14T12:58:24Z</time>
            </trkpt>
            <trkpt lat="54.983910" lon="-8.440280">
                <time>2019-06-14T12:58:25Z</time>
            </trkpt>
            <trkpt lat="54.983910" lon="-8.440280">
                <time>2019-06-14T12:58:26Z</time>
            </trkpt>
            <trkpt lat="54.983910" lon="-8.440280">
                <time>2019-06-14T12:58:27Z</time>
            </trkpt>
            <trkpt lat="54.983910" lon="-8.440280">
                <time>2019-06-14T12:58:28Z</time>
            </trkpt>
            <trkpt lat="54.983910" lon="-8.440280">
                <time>2019-06-14T12:58:29Z</time>
            </trkpt>
            <trkpt lat="54.983910" lon="-8.440280">
                <time>2019-06-14T12:58:30Z</time>
            </trkpt>
            <trkpt lat="54.983910" lon="-8.440280">
                <time>2019-06-14T12:58:31Z</time>
            </trkpt>
            <trkpt lat="54.983910" lon="-8.440280">
                <time>2019-06-14T12:58:32Z</time>
            </trkpt>
            <trkpt lat="54.983910" lon="-8.440280">
                <time>2019-06-14T12:58:33Z</time>
            </trkpt>
            <trkpt lat="54.983910" lon="-8.440280">
                <time>2019-06-14T12:58:34Z</time>
            </trkpt>
            <trkpt lat="54.983910" lon="-8.440280">
                <time>2019-06-14T12:58:35Z</time>
            </trkpt>
            <trkpt lat="54.983910" lon="-8.440280">
                <time>2019-06-14T12:58:36Z</time>
            </trkpt>
            <trkpt lat="54.983910" lon="-8.440280">
                <time>2019-06-14T12:58:37Z</time>
            </trkpt>
            <trkpt lat="54.983910" lon="-8.440280">
                <time>2019-06-14T12:58:38Z</time>
            </trkpt>
            <trkpt lat="54.983910" lon="-8.440280">
                <time>2019-06-14T12:58:39Z</time>
            </trkpt>
            <trkpt lat="54.983910" lon="-8.440280">
                <time>2019-06-14T12:58:40Z</time>
            </trkpt>
            <trkpt lat="54.983910" lon="-8.440280">
                <time>2019-06-14T12:58:41Z</time>
            </trkpt>
            <trkpt lat="54.983910" lon="-8.440280">
                <time>2019-06-14T12:58:42Z</time>
            </trkpt>
            <trkpt lat="54.983910" lon="-8.440280">
                <time>2019-06-14T12:58:43Z</time>
            </trkpt>
            <trkpt lat="54.983910" lon="-8.440280">
                <time>2019-06-14T12:58:44Z</time>
            </trkpt>
            <trkpt lat="54.983910" lon="-8.440280">
                <time>2019-06-14T12:58:45Z</time>
            </trkpt>
            <trkpt lat="54.983910" lon="-8.440280">
                <time>2019-06-14T12:58:46Z</time>
            </trkpt>
            <trkpt lat="54.983910" lon="-8.440280">
                <time>2019-06-14T12:58:47Z</time>
            </trkpt>
            <trkpt lat="54.983910" lon="-8.440280">
                <time>2019-06-14T12:58:48Z</time>
            </trkpt>
            <trkpt lat="54.983910" lon="-8.440280">
                <time>2019-06-14T12:58:49Z</time>
            </trkpt>
            <trkpt lat="54.983910" lon="-8.440280">
                <time>2019-06-14T12:58:50Z</time>
            </trkpt>
            <trkpt lat="54.983910" lon="-8.440280">
                <time>2019-06-14T12:58:51Z</time>
            </trkpt>
            <trkpt lat="54.983910" lon="-8.440280">
                <time>2019-06-14T12:58:52Z</time>
            </trkpt>
            <trkpt lat="54.983910" lon="-8.440280">
                <time>2019-06-14T12:58:53Z</time>
            </trkpt>
            <trkpt lat="54.983910" lon="-8.440280">
                <time>2019-06-14T12:58:54Z</time>
            </trkpt>
            <trkpt lat="54.983910" lon="-8.440280">
                <time>2019-06-14T12:58:55Z</time>
            </trkpt>
            <trkpt lat="54.983910" lon="-8.440280">
                <time>2019-06-14T12:58:56Z</time>
            </trkpt>
            <trkpt lat="54.983910" lon="-8.440280">
                <time>2019-06-14T12:58:57Z</time>
            </trkpt>
            <trkpt lat="54.983910" lon="-8.440280">
                <time>2019-06-14T12:58:58Z</time>
            </trkpt>
            <trkpt lat="54.983910" lon="-8.440280">
                <time>2019-06-14T12:58:59Z</time>
            </trkpt>
            <trkpt lat="54.983910" lon="-8.440280">
                <time>2019-06-14T12:59:00Z</time>
            </trkpt>
            <trkpt lat="54.983920" lon="-8.440280">
                <time>2019-06-14T12:59:01Z</time>
            </trkpt>
            <trkpt lat="54.983920" lon="-8.440280">
                <time>2019-06-14T12:59:02Z</time>
            </trkpt>
            <trkpt lat="54.983920" lon="-8.440280">
                <time>2019-06-14T12:59:03Z</time>
            </trkpt>
            <trkpt lat="54.983920" lon="-8.440280">
                <time>2019-06-14T12:59:04Z</time>
            </trkpt>
            <trkpt lat="54.983920" lon="-8.440280">
                <time>2019-06-14T12:59:05Z</time>
            </trkpt>
            <trkpt lat="54.983920" lon="-8.440280">
                <time>2019-06-14T12:59:06Z</time>
            </trkpt>
            <trkpt lat="54.983920" lon="-8.440280">
                <time>2019-06-14T12:59:07Z</time>
            </trkpt>
            <trkpt lat="54.983920" lon="-8.440280">
                <time>2019-06-14T12:59:08Z</time>
            </trkpt>
            <trkpt lat="54.983920" lon="-8.440280">
                <time>2019-06-14T12:59:09Z</time>
            </trkpt>
            <trkpt lat="54.983920" lon="-8.440280">
                <time>2019-06-14T12:59:10Z</time>
            </trkpt>
            <trkpt lat="54.983920" lon="-8.440280">
                <time>2019-06-14T12:59:11Z</time>
            </trkpt>
            <trkpt lat="54.983920" lon="-8.440280">
                <time>2019-06-14T12:59:12Z</time>
            </trkpt>
            <trkpt lat="54.983920" lon="-8.440280">
                <time>2019-06-14T12:59:13Z</time>
            </trkpt>
            <trkpt lat="54.983920" lon="-8.440280">
                <time>2019-06-14T12:59:14Z</time>
            </trkpt>
            <trkpt lat="54.983920" lon="-8.440280">
                <time>2019-06-14T12:59:15Z</time>
            </trkpt>
            <trkpt lat="54.983920" lon="-8.440280">
                <time>2019-06-14T12:59:16Z</time>
            </trkpt>
            <trkpt lat="54.983920" lon="-8.440280">
                <time>2019-06-14T12:59:17Z</time>
            </trkpt>
            <trkpt lat="54.983920" lon="-8.440280">
                <time>2019-06-14T12:59:18Z</time>
            </trkpt>
            <trkpt lat="54.983920" lon="-8.440280">
                <time>2019-06-14T12:59:19Z</time>
            </trkpt>
            <trkpt lat="54.983920" lon="-8.440280">
                <time>2019-06-14T12:59:20Z</time>
            </trkpt>
            <trkpt lat="54.983920" lon="-8.440290">
                <time>2019-06-14T12:59:21Z</time>
            </trkpt>
            <trkpt lat="54.983920" lon="-8.440290">
                <time>2019-06-14T12:59:22Z</time>
            </trkpt>
            <trkpt lat="54.983910" lon="-8.440290">
                <time>2019-06-14T12:59:23Z</time>
            </trkpt>
            <trkpt lat="54.983900" lon="-8.440300">
                <time>2019-06-14T12:59:24Z</time>
            </trkpt>
            <trkpt lat="54.983890" lon="-8.440330">
                <time>2019-06-14T12:59:25Z</time>
            </trkpt>
            <trkpt lat="54.983880" lon="-8.440330">
                <time>2019-06-14T12:59:26Z</time>
            </trkpt>
            <trkpt lat="54.983870" lon="-8.440330">
                <time>2019-06-14T12:59:27Z</time>
            </trkpt>
            <trkpt lat="54.983860" lon="-8.440310">
                <time>2019-06-14T12:59:28Z</time>
            </trkpt>
            <trkpt lat="54.983860" lon="-8.440310">
                <time>2019-06-14T12:59:29Z</time>
            </trkpt>
            <trkpt lat="54.983860" lon="-8.440300">
                <time>2019-06-14T12:59:30Z</time>
            </trkpt>
            <trkpt lat="54.983860" lon="-8.440310">
                <time>2019-06-14T12:59:31Z</time>
            </trkpt>
            <trkpt lat="54.983870" lon="-8.440310">
                <time>2019-06-14T12:59:32Z</time>
            </trkpt>
            <trkpt lat="54.983870" lon="-8.440320">
                <time>2019-06-14T12:59:33Z</time>
            </trkpt>
            <trkpt lat="54.983870" lon="-8.440320">
                <time>2019-06-14T12:59:34Z</time>
            </trkpt>
            <trkpt lat="54.983870" lon="-8.440330">
                <time>2019-06-14T12:59:35Z</time>
            </trkpt>
            <trkpt lat="54.983870" lon="-8.440330">
                <time>2019-06-14T12:59:36Z</time>
            </trkpt>
            <trkpt lat="54.983870" lon="-8.440330">
                <time>2019-06-14T12:59:37Z</time>
            </trkpt>
            <trkpt lat="54.983870" lon="-8.440340">
                <time>2019-06-14T12:59:38Z</time>
            </trkpt>
            <trkpt lat="54.983870" lon="-8.440340">
                <time>2019-06-14T12:59:39Z</time>
            </trkpt>
            <trkpt lat="54.983870" lon="-8.440340">
                <time>2019-06-14T12:59:40Z</time>
            </trkpt>
            <trkpt lat="54.983870" lon="-8.440340">
                <time>2019-06-14T12:59:41Z</time>
            </trkpt>
            <trkpt lat="54.983870" lon="-8.440340">
                <time>2019-06-14T12:59:42Z</time>
            </trkpt>
            <trkpt lat="54.983880" lon="-8.440340">
                <time>2019-06-14T12:59:43Z</time>
            </trkpt>
            <trkpt lat="54.983880" lon="-8.440340">
                <time>2019-06-14T12:59:44Z</time>
            </trkpt>
            <trkpt lat="54.983880" lon="-8.440340">
                <time>2019-06-14T12:59:45Z</time>
            </trkpt>
            <trkpt lat="54.983880" lon="-8.440340">
                <time>2019-06-14T12:59:46Z</time>
            </trkpt>
            <trkpt lat="54.983880" lon="-8.440340">
                <time>2019-06-14T12:59:47Z</time>
            </trkpt>
            <trkpt lat="54.983900" lon="-8.440400">
                <time>2019-06-14T13:00:45Z</time>
            </trkpt>
            <trkpt lat="54.983900" lon="-8.440400">
                <time>2019-06-14T13:00:46Z</time>
            </trkpt>
            <trkpt lat="54.983900" lon="-8.440400">
                <time>2019-06-14T13:00:47Z</time>
            </trkpt>
            <trkpt lat="54.983920" lon="-8.440440">
                <time>2019-06-14T13:00:48Z</time>
            </trkpt>
            <trkpt lat="54.983920" lon="-8.440360">
                <time>2019-06-14T13:00:49Z</time>
            </trkpt>
            <trkpt lat="54.983920" lon="-8.440360">
                <time>2019-06-14T13:00:50Z</time>
            </trkpt>
            <trkpt lat="54.983920" lon="-8.440350">
                <time>2019-06-14T13:00:51Z</time>
            </trkpt>
            <trkpt lat="54.983920" lon="-8.440350">
                <time>2019-06-14T13:00:52Z</time>
            </trkpt>
            <trkpt lat="54.983920" lon="-8.440350">
                <time>2019-06-14T13:00:53Z</time>
            </trkpt>
            <trkpt lat="54.983920" lon="-8.440360">
                <time>2019-06-14T13:00:54Z</time>
            </trkpt>
            <trkpt lat="54.983920" lon="-8.440360">
                <time>2019-06-14T13:00:55Z</time>
            </trkpt>
            <trkpt lat="54.983920" lon="-8.440360">
                <time>2019-06-14T13:00:56Z</time>
            </trkpt>
            <trkpt lat="54.983920" lon="-8.440370">
                <time>2019-06-14T13:00:57Z</time>
            </trkpt>
            <trkpt lat="54.983920" lon="-8.440370">
                <time>2019-06-14T13:00:58Z</time>
            </trkpt>
            <trkpt lat="54.983920" lon="-8.440370">
                <time>2019-06-14T13:00:59Z</time>
            </trkpt>
            <trkpt lat="54.983920" lon="-8.440360">
                <time>2019-06-14T13:01:00Z</time>
            </trkpt>
            <trkpt lat="54.983920" lon="-8.440350">
                <time>2019-06-14T13:01:01Z</time>
            </trkpt>
            <trkpt lat="54.983910" lon="-8.440330">
                <time>2019-06-14T13:01:02Z</time>
            </trkpt>
            <trkpt lat="54.983900" lon="-8.440320">
                <time>2019-06-14T13:01:03Z</time>
            </trkpt>
            <trkpt lat="54.983900" lon="-8.440320">
                <time>2019-06-14T13:01:04Z</time>
            </trkpt>
            <trkpt lat="54.983890" lon="-8.440300">
                <time>2019-06-14T13:01:05Z</time>
            </trkpt>
            <trkpt lat="54.983880" lon="-8.440280">
                <time>2019-06-14T13:01:06Z</time>
            </trkpt>
            <trkpt lat="54.983880" lon="-8.440240">
                <time>2019-06-14T13:01:07Z</time>
            </trkpt>
            <trkpt lat="54.983910" lon="-8.440150">
                <time>2019-06-14T13:01:08Z</time>
            </trkpt>
            <trkpt lat="54.983980" lon="-8.440040">
                <time>2019-06-14T13:01:09Z</time>
            </trkpt>
            <trkpt lat="54.984050" lon="-8.439930">
                <time>2019-06-14T13:01:10Z</time>
            </trkpt>
            <trkpt lat="54.984120" lon="-8.439790">
                <time>2019-06-14T13:01:11Z</time>
            </trkpt>
            <trkpt lat="54.984190" lon="-8.439650">
                <time>2019-06-14T13:01:12Z</time>
            </trkpt>
            <trkpt lat="54.984260" lon="-8.439520">
                <time>2019-06-14T13:01:13Z</time>
            </trkpt>
            <trkpt lat="54.984330" lon="-8.439380">
                <time>2019-06-14T13:01:14Z</time>
            </trkpt>
            <trkpt lat="54.984400" lon="-8.439230">
                <time>2019-06-14T13:01:15Z</time>
            </trkpt>
            <trkpt lat="54.984490" lon="-8.439060">
                <time>2019-06-14T13:01:16Z</time>
            </trkpt>
            <trkpt lat="54.984580" lon="-8.438890">
                <time>2019-06-14T13:01:17Z</time>
            </trkpt>
            <trkpt lat="54.984660" lon="-8.438740">
                <time>2019-06-14T13:01:18Z</time>
            </trkpt>
            <trkpt lat="54.984730" lon="-8.438590">
                <time>2019-06-14T13:01:19Z</time>
            </trkpt>
            <trkpt lat="54.984780" lon="-8.438430">
                <time>2019-06-14T13:01:20Z</time>
            </trkpt>
            <trkpt lat="54.984830" lon="-8.438250">
                <time>2019-06-14T13:01:21Z</time>
            </trkpt>
            <trkpt lat="54.984840" lon="-8.438050">
                <time>2019-06-14T13:01:22Z</time>
            </trkpt>
            <trkpt lat="54.984840" lon="-8.437860">
                <time>2019-06-14T13:01:23Z</time>
            </trkpt>
            <trkpt lat="54.984820" lon="-8.437670">
                <time>2019-06-14T13:01:24Z</time>
            </trkpt>
            <trkpt lat="54.984800" lon="-8.437480">
                <time>2019-06-14T13:01:25Z</time>
            </trkpt>
            <trkpt lat="54.984790" lon="-8.437280">
                <time>2019-06-14T13:01:26Z</time>
            </trkpt>
            <trkpt lat="54.984790" lon="-8.437070">
                <time>2019-06-14T13:01:27Z</time>
            </trkpt>
            <trkpt lat="54.984790" lon="-8.436850">
                <time>2019-06-14T13:01:28Z</time>
            </trkpt>
            <trkpt lat="54.984790" lon="-8.436620">
                <time>2019-06-14T13:01:29Z</time>
            </trkpt>
            <trkpt lat="54.984790" lon="-8.436360">
                <time>2019-06-14T13:01:30Z</time>
            </trkpt>
            <trkpt lat="54.984780" lon="-8.436110">
                <time>2019-06-14T13:01:31Z</time>
            </trkpt>
            <trkpt lat="54.984760" lon="-8.435870">
                <time>2019-06-14T13:01:32Z</time>
            </trkpt>
            <trkpt lat="54.984740" lon="-8.435620">
                <time>2019-06-14T13:01:33Z</time>
            </trkpt>
            <trkpt lat="54.984720" lon="-8.435370">
                <time>2019-06-14T13:01:34Z</time>
            </trkpt>
            <trkpt lat="54.984700" lon="-8.435110">
                <time>2019-06-14T13:01:35Z</time>
            </trkpt>
            <trkpt lat="54.984690" lon="-8.434830">
                <time>2019-06-14T13:01:36Z</time>
            </trkpt>
            <trkpt lat="54.984670" lon="-8.434560">
                <time>2019-06-14T13:01:37Z</time>
            </trkpt>
            <trkpt lat="54.984660" lon="-8.434290">
                <time>2019-06-14T13:01:38Z</time>
            </trkpt>
            <trkpt lat="54.984640" lon="-8.434020">
                <time>2019-06-14T13:01:39Z</time>
            </trkpt>
            <trkpt lat="54.984620" lon="-8.433780">
                <time>2019-06-14T13:01:40Z</time>
            </trkpt>
            <trkpt lat="54.984600" lon="-8.433540">
                <time>2019-06-14T13:01:41Z</time>
            </trkpt>
            <trkpt lat="54.984580" lon="-8.433290">
                <time>2019-06-14T13:01:42Z</time>
            </trkpt>
            <trkpt lat="54.984560" lon="-8.433030">
                <time>2019-06-14T13:01:43Z</time>
            </trkpt>
            <trkpt lat="54.984540" lon="-8.432780">
                <time>2019-06-14T13:01:44Z</time>
            </trkpt>
            <trkpt lat="54.984520" lon="-8.432540">
                <time>2019-06-14T13:01:45Z</time>
            </trkpt>
            <trkpt lat="54.984500" lon="-8.432300">
                <time>2019-06-14T13:01:46Z</time>
            </trkpt>
            <trkpt lat="54.984470" lon="-8.432080">
                <time>2019-06-14T13:01:47Z</time>
            </trkpt>
            <trkpt lat="54.984450" lon="-8.431880">
                <time>2019-06-14T13:01:48Z</time>
            </trkpt>
            <trkpt lat="54.984430" lon="-8.431700">
                <time>2019-06-14T13:01:49Z</time>
            </trkpt>
            <trkpt lat="54.984410" lon="-8.431530">
                <time>2019-06-14T13:01:50Z</time>
            </trkpt>
            <trkpt lat="54.984390" lon="-8.431370">
                <time>2019-06-14T13:01:51Z</time>
            </trkpt>
            <trkpt lat="54.984380" lon="-8.431200">
                <time>2019-06-14T13:01:52Z</time>
            </trkpt>
            <trkpt lat="54.984370" lon="-8.431010">
                <time>2019-06-14T13:01:53Z</time>
            </trkpt>
            <trkpt lat="54.984360" lon="-8.430800">
                <time>2019-06-14T13:01:54Z</time>
            </trkpt>
            <trkpt lat="54.984360" lon="-8.430580">
                <time>2019-06-14T13:01:55Z</time>
            </trkpt>
            <trkpt lat="54.984350" lon="-8.430350">
                <time>2019-06-14T13:01:56Z</time>
            </trkpt>
            <trkpt lat="54.984340" lon="-8.430120">
                <time>2019-06-14T13:01:57Z</time>
            </trkpt>
            <trkpt lat="54.984340" lon="-8.429880">
                <time>2019-06-14T13:01:58Z</time>
            </trkpt>
            <trkpt lat="54.984330" lon="-8.429660">
                <time>2019-06-14T13:01:59Z</time>
            </trkpt>
            <trkpt lat="54.984330" lon="-8.429450">
                <time>2019-06-14T13:02:00Z</time>
            </trkpt>
            <trkpt lat="54.984320" lon="-8.429240">
                <time>2019-06-14T13:02:01Z</time>
            </trkpt>
            <trkpt lat="54.984320" lon="-8.429030">
                <time>2019-06-14T13:02:02Z</time>
            </trkpt>
            <trkpt lat="54.984310" lon="-8.428830">
                <time>2019-06-14T13:02:03Z</time>
            </trkpt>
            <trkpt lat="54.984310" lon="-8.428630">
                <time>2019-06-14T13:02:04Z</time>
            </trkpt>
            <trkpt lat="54.984300" lon="-8.428450">
                <time>2019-06-14T13:02:05Z</time>
            </trkpt>
            <trkpt lat="54.984300" lon="-8.428270">
                <time>2019-06-14T13:02:06Z</time>
            </trkpt>
            <trkpt lat="54.984300" lon="-8.428100">
                <time>2019-06-14T13:02:07Z</time>
            </trkpt>
            <trkpt lat="54.984300" lon="-8.427970">
                <time>2019-06-14T13:02:08Z</time>
            </trkpt>
            <trkpt lat="54.984310" lon="-8.427850">
                <time>2019-06-14T13:02:09Z</time>
            </trkpt>
            <trkpt lat="54.984310" lon="-8.427760">
                <time>2019-06-14T13:02:10Z</time>
            </trkpt>
            <trkpt lat="54.984320" lon="-8.427690">
                <time>2019-06-14T13:02:11Z</time>
            </trkpt>
            <trkpt lat="54.984330" lon="-8.427640">
                <time>2019-06-14T13:02:12Z</time>
            </trkpt>
            <trkpt lat="54.984370" lon="-8.427580">
                <time>2019-06-14T13:02:13Z</time>
            </trkpt>
            <trkpt lat="54.984420" lon="-8.427530">
                <time>2019-06-14T13:02:14Z</time>
            </trkpt>
            <trkpt lat="54.984480" lon="-8.427490">
                <time>2019-06-14T13:02:15Z</time>
            </trkpt>
            <trkpt lat="54.984570" lon="-8.427470">
                <time>2019-06-14T13:02:16Z</time>
            </trkpt>
            <trkpt lat="54.984680" lon="-8.427450">
                <time>2019-06-14T13:02:17Z</time>
            </trkpt>
            <trkpt lat="54.984790" lon="-8.427420">
                <time>2019-06-14T13:02:18Z</time>
            </trkpt>
            <trkpt lat="54.984900" lon="-8.427390">
                <time>2019-06-14T13:02:19Z</time>
            </trkpt>
            <trkpt lat="54.985010" lon="-8.427360">
                <time>2019-06-14T13:02:20Z</time>
            </trkpt>
            <trkpt lat="54.985130" lon="-8.427330">
                <time>2019-06-14T13:02:21Z</time>
            </trkpt>
            <trkpt lat="54.985260" lon="-8.427290">
                <time>2019-06-14T13:02:22Z</time>
            </trkpt>
            <trkpt lat="54.985390" lon="-8.427260">
                <time>2019-06-14T13:02:23Z</time>
            </trkpt>
            <trkpt lat="54.985530" lon="-8.427230">
                <time>2019-06-14T13:02:24Z</time>
            </trkpt>
            <trkpt lat="54.985680" lon="-8.427190">
                <time>2019-06-14T13:02:25Z</time>
            </trkpt>
            <trkpt lat="54.985810" lon="-8.427150">
                <time>2019-06-14T13:02:26Z</time>
            </trkpt>
            <trkpt lat="54.985920" lon="-8.427120">
                <time>2019-06-14T13:02:27Z</time>
            </trkpt>
            <trkpt lat="54.986030" lon="-8.427090">
                <time>2019-06-14T13:02:28Z</time>
            </trkpt>
            <trkpt lat="54.986130" lon="-8.427040">
                <time>2019-06-14T13:02:29Z</time>
            </trkpt>
            <trkpt lat="54.986240" lon="-8.427000">
                <time>2019-06-14T13:02:30Z</time>
            </trkpt>
            <trkpt lat="54.986340" lon="-8.426960">
                <time>2019-06-14T13:02:31Z</time>
            </trkpt>
            <trkpt lat="54.986430" lon="-8.426940">
                <time>2019-06-14T13:02:32Z</time>
            </trkpt>
            <trkpt lat="54.986520" lon="-8.426970">
                <time>2019-06-14T13:02:33Z</time>
            </trkpt>
            <trkpt lat="54.986600" lon="-8.427040">
                <time>2019-06-14T13:02:34Z</time>
            </trkpt>
            <trkpt lat="54.986690" lon="-8.427140">
                <time>2019-06-14T13:02:35Z</time>
            </trkpt>
            <trkpt lat="54.986810" lon="-8.427270">
                <time>2019-06-14T13:02:36Z</time>
            </trkpt>
            <trkpt lat="54.986940" lon="-8.427400">
                <time>2019-06-14T13:02:37Z</time>
            </trkpt>
            <trkpt lat="54.987080" lon="-8.427490">
                <time>2019-06-14T13:02:38Z</time>
            </trkpt>
            <trkpt lat="54.987220" lon="-8.427540">
                <time>2019-06-14T13:02:39Z</time>
            </trkpt>
            <trkpt lat="54.987330" lon="-8.427590">
                <time>2019-06-14T13:02:40Z</time>
            </trkpt>
            <trkpt lat="54.987420" lon="-8.427630">
                <time>2019-06-14T13:02:41Z</time>
            </trkpt>
            <trkpt lat="54.987520" lon="-8.427690">
                <time>2019-06-14T13:02:42Z</time>
            </trkpt>
            <trkpt lat="54.987630" lon="-8.427810">
                <time>2019-06-14T13:02:43Z</time>
            </trkpt>
            <trkpt lat="54.987750" lon="-8.427970">
                <time>2019-06-14T13:02:44Z</time>
            </trkpt>
            <trkpt lat="54.987860" lon="-8.428130">
                <time>2019-06-14T13:02:45Z</time>
            </trkpt>
            <trkpt lat="54.987980" lon="-8.428290">
                <time>2019-06-14T13:02:46Z</time>
            </trkpt>
            <trkpt lat="54.988110" lon="-8.428430">
                <time>2019-06-14T13:02:47Z</time>
            </trkpt>
            <trkpt lat="54.988240" lon="-8.428580">
                <time>2019-06-14T13:02:48Z</time>
            </trkpt>
            <trkpt lat="54.988380" lon="-8.428750">
                <time>2019-06-14T13:02:49Z</time>
            </trkpt>
            <trkpt lat="54.988530" lon="-8.428910">
                <time>2019-06-14T13:02:50Z</time>
            </trkpt>
            <trkpt lat="54.988660" lon="-8.429060">
                <time>2019-06-14T13:02:51Z</time>
            </trkpt>
            <trkpt lat="54.988790" lon="-8.429190">
                <time>2019-06-14T13:02:52Z</time>
            </trkpt>
            <trkpt lat="54.988920" lon="-8.429310">
                <time>2019-06-14T13:02:53Z</time>
            </trkpt>
            <trkpt lat="54.989040" lon="-8.429430">
                <time>2019-06-14T13:02:54Z</time>
            </trkpt>
            <trkpt lat="54.989170" lon="-8.429560">
                <time>2019-06-14T13:02:55Z</time>
            </trkpt>
            <trkpt lat="54.989300" lon="-8.429670">
                <time>2019-06-14T13:02:56Z</time>
            </trkpt>
            <trkpt lat="54.989430" lon="-8.429790">
                <time>2019-06-14T13:02:57Z</time>
            </trkpt>
            <trkpt lat="54.989560" lon="-8.429900">
                <time>2019-06-14T13:02:58Z</time>
            </trkpt>
            <trkpt lat="54.989700" lon="-8.430030">
                <time>2019-06-14T13:02:59Z</time>
            </trkpt>
            <trkpt lat="54.989840" lon="-8.430160">
                <time>2019-06-14T13:03:00Z</time>
            </trkpt>
            <trkpt lat="54.989980" lon="-8.430290">
                <time>2019-06-14T13:03:01Z</time>
            </trkpt>
            <trkpt lat="54.990120" lon="-8.430430">
                <time>2019-06-14T13:03:02Z</time>
            </trkpt>
            <trkpt lat="54.990260" lon="-8.430550">
                <time>2019-06-14T13:03:03Z</time>
            </trkpt>
            <trkpt lat="54.990400" lon="-8.430670">
                <time>2019-06-14T13:03:04Z</time>
            </trkpt>
            <trkpt lat="54.990550" lon="-8.430790">
                <time>2019-06-14T13:03:05Z</time>
            </trkpt>
            <trkpt lat="54.990700" lon="-8.430920">
                <time>2019-06-14T13:03:06Z</time>
            </trkpt>
            <trkpt lat="54.990860" lon="-8.431040">
                <time>2019-06-14T13:03:07Z</time>
            </trkpt>
            <trkpt lat="54.991010" lon="-8.431160">
                <time>2019-06-14T13:03:08Z</time>
            </trkpt>
            <trkpt lat="54.991150" lon="-8.431290">
                <time>2019-06-14T13:03:09Z</time>
            </trkpt>
            <trkpt lat="54.991280" lon="-8.431410">
                <time>2019-06-14T13:03:10Z</time>
            </trkpt>
            <trkpt lat="54.991420" lon="-8.431520">
                <time>2019-06-14T13:03:11Z</time>
            </trkpt>
            <trkpt lat="54.991560" lon="-8.431610">
                <time>2019-06-14T13:03:12Z</time>
            </trkpt>
            <trkpt lat="54.991690" lon="-8.431670">
                <time>2019-06-14T13:03:13Z</time>
            </trkpt>
            <trkpt lat="54.991830" lon="-8.431700">
                <time>2019-06-14T13:03:14Z</time>
            </trkpt>
            <trkpt lat="54.991970" lon="-8.431690">
                <time>2019-06-14T13:03:15Z</time>
            </trkpt>
            <trkpt lat="54.992120" lon="-8.431670">
                <time>2019-06-14T13:03:16Z</time>
            </trkpt>
            <trkpt lat="54.992260" lon="-8.431640">
                <time>2019-06-14T13:03:17Z</time>
            </trkpt>
            <trkpt lat="54.992400" lon="-8.431610">
                <time>2019-06-14T13:03:18Z</time>
            </trkpt>
            <trkpt lat="54.992530" lon="-8.431560">
                <time>2019-06-14T13:03:19Z</time>
            </trkpt>
            <trkpt lat="54.992650" lon="-8.431500">
                <time>2019-06-14T13:03:20Z</time>
            </trkpt>
            <trkpt lat="54.992750" lon="-8.431400">
                <time>2019-06-14T13:03:21Z</time>
            </trkpt>
            <trkpt lat="54.992870" lon="-8.431270">
                <time>2019-06-14T13:03:22Z</time>
            </trkpt>
            <trkpt lat="54.993000" lon="-8.431130">
                <time>2019-06-14T13:03:23Z</time>
            </trkpt>
            <trkpt lat="54.993150" lon="-8.431010">
                <time>2019-06-14T13:03:24Z</time>
            </trkpt>
            <trkpt lat="54.993320" lon="-8.430900">
                <time>2019-06-14T13:03:25Z</time>
            </trkpt>
            <trkpt lat="54.993510" lon="-8.430800">
                <time>2019-06-14T13:03:26Z</time>
            </trkpt>
            <trkpt lat="54.993700" lon="-8.430690">
                <time>2019-06-14T13:03:27Z</time>
            </trkpt>
            <trkpt lat="54.993890" lon="-8.430570">
                <time>2019-06-14T13:03:28Z</time>
            </trkpt>
            <trkpt lat="54.994090" lon="-8.430460">
                <time>2019-06-14T13:03:29Z</time>
            </trkpt>
            <trkpt lat="54.994280" lon="-8.430340">
                <time>2019-06-14T13:03:30Z</time>
            </trkpt>
            <trkpt lat="54.994470" lon="-8.430210">
                <time>2019-06-14T13:03:31Z</time>
            </trkpt>
            <trkpt lat="54.994640" lon="-8.430070">
                <time>2019-06-14T13:03:32Z</time>
            </trkpt>
            <trkpt lat="54.994790" lon="-8.429910">
                <time>2019-06-14T13:03:33Z</time>
            </trkpt>
            <trkpt lat="54.994890" lon="-8.429760">
                <time>2019-06-14T13:03:34Z</time>
            </trkpt>
            <trkpt lat="54.994950" lon="-8.429620">
                <time>2019-06-14T13:03:35Z</time>
            </trkpt>
            <trkpt lat="54.994980" lon="-8.429470">
                <time>2019-06-14T13:03:36Z</time>
            </trkpt>
            <trkpt lat="54.995000" lon="-8.429310">
                <time>2019-06-14T13:03:37Z</time>
            </trkpt>
            <trkpt lat="54.995020" lon="-8.429130">
                <time>2019-06-14T13:03:38Z</time>
            </trkpt>
            <trkpt lat="54.995040" lon="-8.428920">
                <time>2019-06-14T13:03:39Z</time>
            </trkpt>
            <trkpt lat="54.995080" lon="-8.428670">
                <time>2019-06-14T13:03:40Z</time>
            </trkpt>
            <trkpt lat="54.995120" lon="-8.428410">
                <time>2019-06-14T13:03:41Z</time>
            </trkpt>
            <trkpt lat="54.995150" lon="-8.428140">
                <time>2019-06-14T13:03:42Z</time>
            </trkpt>
            <trkpt lat="54.995190" lon="-8.427840">
                <time>2019-06-14T13:03:43Z</time>
            </trkpt>
            <trkpt lat="54.995240" lon="-8.427540">
                <time>2019-06-14T13:03:44Z</time>
            </trkpt>
            <trkpt lat="54.995280" lon="-8.427220">
                <time>2019-06-14T13:03:45Z</time>
            </trkpt>
            <trkpt lat="54.995320" lon="-8.426940">
                <time>2019-06-14T13:03:46Z</time>
            </trkpt>
            <trkpt lat="54.995350" lon="-8.426690">
                <time>2019-06-14T13:03:47Z</time>
            </trkpt>
            <trkpt lat="54.995410" lon="-8.426520">
                <time>2019-06-14T13:03:48Z</time>
            </trkpt>
            <trkpt lat="54.995490" lon="-8.426410">
                <time>2019-06-14T13:03:49Z</time>
            </trkpt>
            <trkpt lat="54.995580" lon="-8.426360">
                <time>2019-06-14T13:03:50Z</time>
            </trkpt>
            <trkpt lat="54.995690" lon="-8.426330">
                <time>2019-06-14T13:03:51Z</time>
            </trkpt>
            <trkpt lat="54.995790" lon="-8.426290">
                <time>2019-06-14T13:03:52Z</time>
            </trkpt>
            <trkpt lat="54.995890" lon="-8.426240">
                <time>2019-06-14T13:03:53Z</time>
            </trkpt>
            <trkpt lat="54.995980" lon="-8.426180">
                <time>2019-06-14T13:03:54Z</time>
            </trkpt>
            <trkpt lat="54.996060" lon="-8.426070">
                <time>2019-06-14T13:03:55Z</time>
            </trkpt>
            <trkpt lat="54.996100" lon="-8.425950">
                <time>2019-06-14T13:03:56Z</time>
            </trkpt>
            <trkpt lat="54.996110" lon="-8.425810">
                <time>2019-06-14T13:03:57Z</time>
            </trkpt>
            <trkpt lat="54.996100" lon="-8.425650">
                <time>2019-06-14T13:03:58Z</time>
            </trkpt>
            <trkpt lat="54.996050" lon="-8.425460">
                <time>2019-06-14T13:03:59Z</time>
            </trkpt>
            <trkpt lat="54.995980" lon="-8.425270">
                <time>2019-06-14T13:04:00Z</time>
            </trkpt>
            <trkpt lat="54.995920" lon="-8.425060">
                <time>2019-06-14T13:04:01Z</time>
            </trkpt>
            <trkpt lat="54.995870" lon="-8.424850">
                <time>2019-06-14T13:04:02Z</time>
            </trkpt>
            <trkpt lat="54.995840" lon="-8.424640">
                <time>2019-06-14T13:04:03Z</time>
            </trkpt>
            <trkpt lat="54.995850" lon="-8.424420">
                <time>2019-06-14T13:04:04Z</time>
            </trkpt>
            <trkpt lat="54.995890" lon="-8.424210">
                <time>2019-06-14T13:04:05Z</time>
            </trkpt>
            <trkpt lat="54.995940" lon="-8.424010">
                <time>2019-06-14T13:04:06Z</time>
            </trkpt>
            <trkpt lat="54.995990" lon="-8.423800">
                <time>2019-06-14T13:04:07Z</time>
            </trkpt>
            <trkpt lat="54.996060" lon="-8.423610">
                <time>2019-06-14T13:04:08Z</time>
            </trkpt>
            <trkpt lat="54.996130" lon="-8.423470">
                <time>2019-06-14T13:04:09Z</time>
            </trkpt>
            <trkpt lat="54.996220" lon="-8.423360">
                <time>2019-06-14T13:04:10Z</time>
            </trkpt>
            <trkpt lat="54.996340" lon="-8.423270">
                <time>2019-06-14T13:04:11Z</time>
            </trkpt>
            <trkpt lat="54.996470" lon="-8.423200">
                <time>2019-06-14T13:04:12Z</time>
            </trkpt>
            <trkpt lat="54.996600" lon="-8.423110">
                <time>2019-06-14T13:04:13Z</time>
            </trkpt>
            <trkpt lat="54.996710" lon="-8.423000">
                <time>2019-06-14T13:04:14Z</time>
            </trkpt>
            <trkpt lat="54.996790" lon="-8.422870">
                <time>2019-06-14T13:04:15Z</time>
            </trkpt>
            <trkpt lat="54.996830" lon="-8.422720">
                <time>2019-06-14T13:04:16Z</time>
            </trkpt>
            <trkpt lat="54.996840" lon="-8.422560">
                <time>2019-06-14T13:04:17Z</time>
            </trkpt>
            <trkpt lat="54.996820" lon="-8.422380">
                <time>2019-06-14T13:04:18Z</time>
            </trkpt>
            <trkpt lat="54.996800" lon="-8.422160">
                <time>2019-06-14T13:04:19Z</time>
            </trkpt>
            <trkpt lat="54.996790" lon="-8.421920">
                <time>2019-06-14T13:04:20Z</time>
            </trkpt>
            <trkpt lat="54.996780" lon="-8.421680">
                <time>2019-06-14T13:04:21Z</time>
            </trkpt>
            <trkpt lat="54.996790" lon="-8.421470">
                <time>2019-06-14T13:04:22Z</time>
            </trkpt>
            <trkpt lat="54.996820" lon="-8.421270">
                <time>2019-06-14T13:04:23Z</time>
            </trkpt>
            <trkpt lat="54.996880" lon="-8.421080">
                <time>2019-06-14T13:04:24Z</time>
            </trkpt>
            <trkpt lat="54.996930" lon="-8.420870">
                <time>2019-06-14T13:04:25Z</time>
            </trkpt>
            <trkpt lat="54.996950" lon="-8.420660">
                <time>2019-06-14T13:04:26Z</time>
            </trkpt>
            <trkpt lat="54.996960" lon="-8.420440">
                <time>2019-06-14T13:04:27Z</time>
            </trkpt>
            <trkpt lat="54.996970" lon="-8.420190">
                <time>2019-06-14T13:04:28Z</time>
            </trkpt>
            <trkpt lat="54.996980" lon="-8.419940">
                <time>2019-06-14T13:04:29Z</time>
            </trkpt>
            <trkpt lat="54.997030" lon="-8.419690">
                <time>2019-06-14T13:04:30Z</time>
            </trkpt>
            <trkpt lat="54.997080" lon="-8.419430">
                <time>2019-06-14T13:04:31Z</time>
            </trkpt>
            <trkpt lat="54.997150" lon="-8.419140">
                <time>2019-06-14T13:04:32Z</time>
            </trkpt>
            <trkpt lat="54.997220" lon="-8.418810">
                <time>2019-06-14T13:04:33Z</time>
            </trkpt>
            <trkpt lat="54.997290" lon="-8.418450">
                <time>2019-06-14T13:04:34Z</time>
            </trkpt>
            <trkpt lat="54.997370" lon="-8.418090">
                <time>2019-06-14T13:04:35Z</time>
            </trkpt>
            <trkpt lat="54.997460" lon="-8.417720">
                <time>2019-06-14T13:04:36Z</time>
            </trkpt>
            <trkpt lat="54.997540" lon="-8.417360">
                <time>2019-06-14T13:04:37Z</time>
            </trkpt>
            <trkpt lat="54.997620" lon="-8.417010">
                <time>2019-06-14T13:04:38Z</time>
            </trkpt>
            <trkpt lat="54.997700" lon="-8.416670">
                <time>2019-06-14T13:04:39Z</time>
            </trkpt>
            <trkpt lat="54.997780" lon="-8.416320">
                <time>2019-06-14T13:04:40Z</time>
            </trkpt>
            <trkpt lat="54.997850" lon="-8.415970">
                <time>2019-06-14T13:04:41Z</time>
            </trkpt>
            <trkpt lat="54.997930" lon="-8.415610">
                <time>2019-06-14T13:04:42Z</time>
            </trkpt>
            <trkpt lat="54.998010" lon="-8.415270">
                <time>2019-06-14T13:04:43Z</time>
            </trkpt>
            <trkpt lat="54.998090" lon="-8.414940">
                <time>2019-06-14T13:04:44Z</time>
            </trkpt>
            <trkpt lat="54.998160" lon="-8.414640">
                <time>2019-06-14T13:04:45Z</time>
            </trkpt>
            <trkpt lat="54.998220" lon="-8.414350">
                <time>2019-06-14T13:04:46Z</time>
            </trkpt>
            <trkpt lat="54.998290" lon="-8.414080">
                <time>2019-06-14T13:04:47Z</time>
            </trkpt>
            <trkpt lat="54.998350" lon="-8.413830">
                <time>2019-06-14T13:04:48Z</time>
            </trkpt>
            <trkpt lat="54.998400" lon="-8.413600">
                <time>2019-06-14T13:04:49Z</time>
            </trkpt>
            <trkpt lat="54.998460" lon="-8.413360">
                <time>2019-06-14T13:04:50Z</time>
            </trkpt>
            <trkpt lat="54.998520" lon="-8.413120">
                <time>2019-06-14T13:04:51Z</time>
            </trkpt>
            <trkpt lat="54.998600" lon="-8.412900">
                <time>2019-06-14T13:04:52Z</time>
            </trkpt>
            <trkpt lat="54.998700" lon="-8.412680">
                <time>2019-06-14T13:04:53Z</time>
            </trkpt>
            <trkpt lat="54.998830" lon="-8.412470">
                <time>2019-06-14T13:04:54Z</time>
            </trkpt>
            <trkpt lat="54.998970" lon="-8.412250">
                <time>2019-06-14T13:04:55Z</time>
            </trkpt>
            <trkpt lat="54.999130" lon="-8.412020">
                <time>2019-06-14T13:04:56Z</time>
            </trkpt>
            <trkpt lat="54.999280" lon="-8.411790">
                <time>2019-06-14T13:04:57Z</time>
            </trkpt>
            <trkpt lat="54.999420" lon="-8.411570">
                <time>2019-06-14T13:04:58Z</time>
            </trkpt>
            <trkpt lat="54.999560" lon="-8.411340">
                <time>2019-06-14T13:04:59Z</time>
            </trkpt>
            <trkpt lat="54.999700" lon="-8.411140">
                <time>2019-06-14T13:05:00Z</time>
            </trkpt>
            <trkpt lat="54.999860" lon="-8.410950">
                <time>2019-06-14T13:05:01Z</time>
            </trkpt>
            <trkpt lat="55.000020" lon="-8.410810">
                <time>2019-06-14T13:05:02Z</time>
            </trkpt>
            <trkpt lat="55.000180" lon="-8.410700">
                <time>2019-06-14T13:05:03Z</time>
            </trkpt>
            <trkpt lat="55.000340" lon="-8.410620">
                <time>2019-06-14T13:05:04Z</time>
            </trkpt>
            <trkpt lat="55.000480" lon="-8.410550">
                <time>2019-06-14T13:05:05Z</time>
            </trkpt>
            <trkpt lat="55.000620" lon="-8.410470">
                <time>2019-06-14T13:05:06Z</time>
            </trkpt>
            <trkpt lat="55.000750" lon="-8.410370">
                <time>2019-06-14T13:05:07Z</time>
            </trkpt>
            <trkpt lat="55.000890" lon="-8.410240">
                <time>2019-06-14T13:05:08Z</time>
            </trkpt>
            <trkpt lat="55.001030" lon="-8.410110">
                <time>2019-06-14T13:05:09Z</time>
            </trkpt>
            <trkpt lat="55.001180" lon="-8.410010">
                <time>2019-06-14T13:05:10Z</time>
            </trkpt>
            <trkpt lat="55.001330" lon="-8.409920">
                <time>2019-06-14T13:05:11Z</time>
            </trkpt>
            <trkpt lat="55.001470" lon="-8.409850">
                <time>2019-06-14T13:05:12Z</time>
            </trkpt>
            <trkpt lat="55.001610" lon="-8.409760">
                <time>2019-06-14T13:05:13Z</time>
            </trkpt>
            <trkpt lat="55.001720" lon="-8.409660">
                <time>2019-06-14T13:05:14Z</time>
            </trkpt>
            <trkpt lat="55.001790" lon="-8.409540">
                <time>2019-06-14T13:05:15Z</time>
            </trkpt>
            <trkpt lat="55.001830" lon="-8.409390">
                <time>2019-06-14T13:05:16Z</time>
            </trkpt>
            <trkpt lat="55.001830" lon="-8.409220">
                <time>2019-06-14T13:05:17Z</time>
            </trkpt>
            <trkpt lat="55.001790" lon="-8.409010">
                <time>2019-06-14T13:05:18Z</time>
            </trkpt>
            <trkpt lat="55.001720" lon="-8.408780">
                <time>2019-06-14T13:05:19Z</time>
            </trkpt>
            <trkpt lat="55.001630" lon="-8.408540">
                <time>2019-06-14T13:05:20Z</time>
            </trkpt>
            <trkpt lat="55.001540" lon="-8.408270">
                <time>2019-06-14T13:05:21Z</time>
            </trkpt>
            <trkpt lat="55.001450" lon="-8.407980">
                <time>2019-06-14T13:05:22Z</time>
            </trkpt>
            <trkpt lat="55.001360" lon="-8.407690">
                <time>2019-06-14T13:05:23Z</time>
            </trkpt>
            <trkpt lat="55.001270" lon="-8.407390">
                <time>2019-06-14T13:05:24Z</time>
            </trkpt>
            <trkpt lat="55.001200" lon="-8.407080">
                <time>2019-06-14T13:05:25Z</time>
            </trkpt>
            <trkpt lat="55.001150" lon="-8.406750">
                <time>2019-06-14T13:05:26Z</time>
            </trkpt>
            <trkpt lat="55.001130" lon="-8.406380">
                <time>2019-06-14T13:05:27Z</time>
            </trkpt>
            <trkpt lat="55.001110" lon="-8.405960">
                <time>2019-06-14T13:05:28Z</time>
            </trkpt>
            <trkpt lat="55.001090" lon="-8.405490">
                <time>2019-06-14T13:05:29Z</time>
            </trkpt>
            <trkpt lat="55.001060" lon="-8.404990">
                <time>2019-06-14T13:05:30Z</time>
            </trkpt>
            <trkpt lat="55.001040" lon="-8.404450">
                <time>2019-06-14T13:05:31Z</time>
            </trkpt>
            <trkpt lat="55.001010" lon="-8.403900">
                <time>2019-06-14T13:05:32Z</time>
            </trkpt>
            <trkpt lat="55.000980" lon="-8.403330">
                <time>2019-06-14T13:05:33Z</time>
            </trkpt>
            <trkpt lat="55.000960" lon="-8.402750">
                <time>2019-06-14T13:05:34Z</time>
            </trkpt>
            <trkpt lat="55.000940" lon="-8.402220">
                <time>2019-06-14T13:05:35Z</time>
            </trkpt>
            <trkpt lat="55.000920" lon="-8.401810">
                <time>2019-06-14T13:05:36Z</time>
            </trkpt>
            <trkpt lat="55.000910" lon="-8.401470">
                <time>2019-06-14T13:05:37Z</time>
            </trkpt>
            <trkpt lat="55.000870" lon="-8.401180">
                <time>2019-06-14T13:05:38Z</time>
            </trkpt>
            <trkpt lat="55.000800" lon="-8.400940">
                <time>2019-06-14T13:05:39Z</time>
            </trkpt>
            <trkpt lat="55.000700" lon="-8.400730">
                <time>2019-06-14T13:05:40Z</time>
            </trkpt>
            <trkpt lat="55.000610" lon="-8.400530">
                <time>2019-06-14T13:05:41Z</time>
            </trkpt>
            <trkpt lat="55.000530" lon="-8.400320">
                <time>2019-06-14T13:05:42Z</time>
            </trkpt>
            <trkpt lat="55.000480" lon="-8.400100">
                <time>2019-06-14T13:05:43Z</time>
            </trkpt>
            <trkpt lat="55.000450" lon="-8.399870">
                <time>2019-06-14T13:05:44Z</time>
            </trkpt>
            <trkpt lat="55.000440" lon="-8.399630">
                <time>2019-06-14T13:05:45Z</time>
            </trkpt>
            <trkpt lat="55.000430" lon="-8.399390">
                <time>2019-06-14T13:05:46Z</time>
            </trkpt>
            <trkpt lat="55.000430" lon="-8.399140">
                <time>2019-06-14T13:05:47Z</time>
            </trkpt>
            <trkpt lat="55.000440" lon="-8.398890">
                <time>2019-06-14T13:05:48Z</time>
            </trkpt>
            <trkpt lat="55.000460" lon="-8.398640">
                <time>2019-06-14T13:05:49Z</time>
            </trkpt>
            <trkpt lat="55.000520" lon="-8.398400">
                <time>2019-06-14T13:05:50Z</time>
            </trkpt>
            <trkpt lat="55.000600" lon="-8.398210">
                <time>2019-06-14T13:05:51Z</time>
            </trkpt>
            <trkpt lat="55.000690" lon="-8.398050">
                <time>2019-06-14T13:05:52Z</time>
            </trkpt>
            <trkpt lat="55.000780" lon="-8.397890">
                <time>2019-06-14T13:05:53Z</time>
            </trkpt>
            <trkpt lat="55.000870" lon="-8.397730">
                <time>2019-06-14T13:05:54Z</time>
            </trkpt>
            <trkpt lat="55.000970" lon="-8.397600">
                <time>2019-06-14T13:05:55Z</time>
            </trkpt>
            <trkpt lat="55.001070" lon="-8.397550">
                <time>2019-06-14T13:05:56Z</time>
            </trkpt>
            <trkpt lat="55.001170" lon="-8.397580">
                <time>2019-06-14T13:05:57Z</time>
            </trkpt>
            <trkpt lat="55.001270" lon="-8.397650">
                <time>2019-06-14T13:05:58Z</time>
            </trkpt>
            <trkpt lat="55.001400" lon="-8.397740">
                <time>2019-06-14T13:05:59Z</time>
            </trkpt>
            <trkpt lat="55.001560" lon="-8.397840">
                <time>2019-06-14T13:06:00Z</time>
            </trkpt>
            <trkpt lat="55.001760" lon="-8.397970">
                <time>2019-06-14T13:06:01Z</time>
            </trkpt>
            <trkpt lat="55.001970" lon="-8.398100">
                <time>2019-06-14T13:06:02Z</time>
            </trkpt>
            <trkpt lat="55.002190" lon="-8.398240">
                <time>2019-06-14T13:06:03Z</time>
            </trkpt>
            <trkpt lat="55.002410" lon="-8.398370">
                <time>2019-06-14T13:06:04Z</time>
            </trkpt>
            <trkpt lat="55.002640" lon="-8.398490">
                <time>2019-06-14T13:06:05Z</time>
            </trkpt>
            <trkpt lat="55.002860" lon="-8.398580">
                <time>2019-06-14T13:06:06Z</time>
            </trkpt>
            <trkpt lat="55.003080" lon="-8.398630">
                <time>2019-06-14T13:06:07Z</time>
            </trkpt>
            <trkpt lat="55.003290" lon="-8.398630">
                <time>2019-06-14T13:06:08Z</time>
            </trkpt>
            <trkpt lat="55.003490" lon="-8.398610">
                <time>2019-06-14T13:06:09Z</time>
            </trkpt>
            <trkpt lat="55.003700" lon="-8.398610">
                <time>2019-06-14T13:06:10Z</time>
            </trkpt>
            <trkpt lat="55.003930" lon="-8.398640">
                <time>2019-06-14T13:06:11Z</time>
            </trkpt>
            <trkpt lat="55.004180" lon="-8.398670">
                <time>2019-06-14T13:06:12Z</time>
            </trkpt>
            <trkpt lat="55.004440" lon="-8.398700">
                <time>2019-06-14T13:06:13Z</time>
            </trkpt>
            <trkpt lat="55.004700" lon="-8.398740">
                <time>2019-06-14T13:06:14Z</time>
            </trkpt>
            <trkpt lat="55.004950" lon="-8.398780">
                <time>2019-06-14T13:06:15Z</time>
            </trkpt>
            <trkpt lat="55.005190" lon="-8.398820">
                <time>2019-06-14T13:06:16Z</time>
            </trkpt>
            <trkpt lat="55.005410" lon="-8.398850">
                <time>2019-06-14T13:06:17Z</time>
            </trkpt>
            <trkpt lat="55.005620" lon="-8.398830">
                <time>2019-06-14T13:06:18Z</time>
            </trkpt>
            <trkpt lat="55.005810" lon="-8.398790">
                <time>2019-06-14T13:06:19Z</time>
            </trkpt>
            <trkpt lat="55.006000" lon="-8.398730">
                <time>2019-06-14T13:06:20Z</time>
            </trkpt>
            <trkpt lat="55.006190" lon="-8.398680">
                <time>2019-06-14T13:06:21Z</time>
            </trkpt>
            <trkpt lat="55.006360" lon="-8.398630">
                <time>2019-06-14T13:06:22Z</time>
            </trkpt>
            <trkpt lat="55.006530" lon="-8.398600">
                <time>2019-06-14T13:06:23Z</time>
            </trkpt>
            <trkpt lat="55.006700" lon="-8.398590">
                <time>2019-06-14T13:06:24Z</time>
            </trkpt>
            <trkpt lat="55.006850" lon="-8.398600">
                <time>2019-06-14T13:06:25Z</time>
            </trkpt>
            <trkpt lat="55.007010" lon="-8.398610">
                <time>2019-06-14T13:06:26Z</time>
            </trkpt>
            <trkpt lat="55.007160" lon="-8.398640">
                <time>2019-06-14T13:06:27Z</time>
            </trkpt>
            <trkpt lat="55.007320" lon="-8.398670">
                <time>2019-06-14T13:06:28Z</time>
            </trkpt>
            <trkpt lat="55.007480" lon="-8.398720">
                <time>2019-06-14T13:06:29Z</time>
            </trkpt>
            <trkpt lat="55.007650" lon="-8.398760">
                <time>2019-06-14T13:06:30Z</time>
            </trkpt>
            <trkpt lat="55.007820" lon="-8.398810">
                <time>2019-06-14T13:06:31Z</time>
            </trkpt>
            <trkpt lat="55.007990" lon="-8.398860">
                <time>2019-06-14T13:06:32Z</time>
            </trkpt>
            <trkpt lat="55.008180" lon="-8.398910">
                <time>2019-06-14T13:06:33Z</time>
            </trkpt>
            <trkpt lat="55.008360" lon="-8.398960">
                <time>2019-06-14T13:06:34Z</time>
            </trkpt>
            <trkpt lat="55.008540" lon="-8.399010">
                <time>2019-06-14T13:06:35Z</time>
            </trkpt>
            <trkpt lat="55.008740" lon="-8.399050">
                <time>2019-06-14T13:06:36Z</time>
            </trkpt>
            <trkpt lat="55.008930" lon="-8.399090">
                <time>2019-06-14T13:06:37Z</time>
            </trkpt>
            <trkpt lat="55.009130" lon="-8.399130">
                <time>2019-06-14T13:06:38Z</time>
            </trkpt>
            <trkpt lat="55.009310" lon="-8.399170">
                <time>2019-06-14T13:06:39Z</time>
            </trkpt>
            <trkpt lat="55.009490" lon="-8.399200">
                <time>2019-06-14T13:06:40Z</time>
            </trkpt>
            <trkpt lat="55.009660" lon="-8.399240">
                <time>2019-06-14T13:06:41Z</time>
            </trkpt>
            <trkpt lat="55.009820" lon="-8.399280">
                <time>2019-06-14T13:06:42Z</time>
            </trkpt>
            <trkpt lat="55.010000" lon="-8.399340">
                <time>2019-06-14T13:06:43Z</time>
            </trkpt>
            <trkpt lat="55.010170" lon="-8.399440">
                <time>2019-06-14T13:06:44Z</time>
            </trkpt>
            <trkpt lat="55.010340" lon="-8.399560">
                <time>2019-06-14T13:06:45Z</time>
            </trkpt>
            <trkpt lat="55.010500" lon="-8.399690">
                <time>2019-06-14T13:06:46Z</time>
            </trkpt>
            <trkpt lat="55.010670" lon="-8.399820">
                <time>2019-06-14T13:06:47Z</time>
            </trkpt>
            <trkpt lat="55.010830" lon="-8.399950">
                <time>2019-06-14T13:06:48Z</time>
            </trkpt>
            <trkpt lat="55.010980" lon="-8.400080">
                <time>2019-06-14T13:06:49Z</time>
            </trkpt>
            <trkpt lat="55.011140" lon="-8.400220">
                <time>2019-06-14T13:06:50Z</time>
            </trkpt>
            <trkpt lat="55.011280" lon="-8.400390">
                <time>2019-06-14T13:06:51Z</time>
            </trkpt>
            <trkpt lat="55.011400" lon="-8.400560">
                <time>2019-06-14T13:06:52Z</time>
            </trkpt>
            <trkpt lat="55.011520" lon="-8.400720">
                <time>2019-06-14T13:06:53Z</time>
            </trkpt>
            <trkpt lat="55.011660" lon="-8.400850">
                <time>2019-06-14T13:06:54Z</time>
            </trkpt>
            <trkpt lat="55.011790" lon="-8.400930">
                <time>2019-06-14T13:06:55Z</time>
            </trkpt>
            <trkpt lat="55.011920" lon="-8.400930">
                <time>2019-06-14T13:06:56Z</time>
            </trkpt>
            <trkpt lat="55.012050" lon="-8.400870">
                <time>2019-06-14T13:06:57Z</time>
            </trkpt>
            <trkpt lat="55.012170" lon="-8.400780">
                <time>2019-06-14T13:06:58Z</time>
            </trkpt>
            <trkpt lat="55.012300" lon="-8.400730">
                <time>2019-06-14T13:06:59Z</time>
            </trkpt>
            <trkpt lat="55.012450" lon="-8.400740">
                <time>2019-06-14T13:07:00Z</time>
            </trkpt>
            <trkpt lat="55.012580" lon="-8.400780">
                <time>2019-06-14T13:07:01Z</time>
            </trkpt>
            <trkpt lat="55.012700" lon="-8.400840">
                <time>2019-06-14T13:07:02Z</time>
            </trkpt>
            <trkpt lat="55.012820" lon="-8.400880">
                <time>2019-06-14T13:07:03Z</time>
            </trkpt>
            <trkpt lat="55.012950" lon="-8.400890">
                <time>2019-06-14T13:07:04Z</time>
            </trkpt>
            <trkpt lat="55.013090" lon="-8.400840">
                <time>2019-06-14T13:07:05Z</time>
            </trkpt>
            <trkpt lat="55.013220" lon="-8.400750">
                <time>2019-06-14T13:07:06Z</time>
            </trkpt>
            <trkpt lat="55.013360" lon="-8.400610">
                <time>2019-06-14T13:07:07Z</time>
            </trkpt>
            <trkpt lat="55.013480" lon="-8.400430">
                <time>2019-06-14T13:07:08Z</time>
            </trkpt>
            <trkpt lat="55.013590" lon="-8.400210">
                <time>2019-06-14T13:07:09Z</time>
            </trkpt>
            <trkpt lat="55.013710" lon="-8.399970">
                <time>2019-06-14T13:07:10Z</time>
            </trkpt>
            <trkpt lat="55.013820" lon="-8.399720">
                <time>2019-06-14T13:07:11Z</time>
            </trkpt>
            <trkpt lat="55.013920" lon="-8.399490">
                <time>2019-06-14T13:07:12Z</time>
            </trkpt>
            <trkpt lat="55.014020" lon="-8.399290">
                <time>2019-06-14T13:07:13Z</time>
            </trkpt>
            <trkpt lat="55.014130" lon="-8.399110">
                <time>2019-06-14T13:07:14Z</time>
            </trkpt>
            <trkpt lat="55.014250" lon="-8.398920">
                <time>2019-06-14T13:07:15Z</time>
            </trkpt>
            <trkpt lat="55.014390" lon="-8.398730">
                <time>2019-06-14T13:07:16Z</time>
            </trkpt>
            <trkpt lat="55.014520" lon="-8.398530">
                <time>2019-06-14T13:07:17Z</time>
            </trkpt>
            <trkpt lat="55.014630" lon="-8.398320">
                <time>2019-06-14T13:07:18Z</time>
            </trkpt>
            <trkpt lat="55.014720" lon="-8.398090">
                <time>2019-06-14T13:07:19Z</time>
            </trkpt>
            <trkpt lat="55.014790" lon="-8.397840">
                <time>2019-06-14T13:07:20Z</time>
            </trkpt>
            <trkpt lat="55.014850" lon="-8.397580">
                <time>2019-06-14T13:07:21Z</time>
            </trkpt>
            <trkpt lat="55.014930" lon="-8.397340">
                <time>2019-06-14T13:07:22Z</time>
            </trkpt>
            <trkpt lat="55.015030" lon="-8.397140">
                <time>2019-06-14T13:07:23Z</time>
            </trkpt>
            <trkpt lat="55.015130" lon="-8.396970">
                <time>2019-06-14T13:07:24Z</time>
            </trkpt>
            <trkpt lat="55.015230" lon="-8.396810">
                <time>2019-06-14T13:07:25Z</time>
            </trkpt>
            <trkpt lat="55.015320" lon="-8.396670">
                <time>2019-06-14T13:07:26Z</time>
            </trkpt>
            <trkpt lat="55.015420" lon="-8.396540">
                <time>2019-06-14T13:07:27Z</time>
            </trkpt>
            <trkpt lat="55.015530" lon="-8.396440">
                <time>2019-06-14T13:07:28Z</time>
            </trkpt>
            <trkpt lat="55.015660" lon="-8.396340">
                <time>2019-06-14T13:07:29Z</time>
            </trkpt>
            <trkpt lat="55.015810" lon="-8.396230">
                <time>2019-06-14T13:07:30Z</time>
            </trkpt>
            <trkpt lat="55.015950" lon="-8.396130">
                <time>2019-06-14T13:07:31Z</time>
            </trkpt>
            <trkpt lat="55.016090" lon="-8.396030">
                <time>2019-06-14T13:07:32Z</time>
            </trkpt>
            <trkpt lat="55.016200" lon="-8.395970">
                <time>2019-06-14T13:07:33Z</time>
            </trkpt>
            <trkpt lat="55.016310" lon="-8.395950">
                <time>2019-06-14T13:07:34Z</time>
            </trkpt>
            <trkpt lat="55.016420" lon="-8.395990">
                <time>2019-06-14T13:07:35Z</time>
            </trkpt>
            <trkpt lat="55.016510" lon="-8.396080">
                <time>2019-06-14T13:07:36Z</time>
            </trkpt>
            <trkpt lat="55.016590" lon="-8.396210">
                <time>2019-06-14T13:07:37Z</time>
            </trkpt>
            <trkpt lat="55.016680" lon="-8.396350">
                <time>2019-06-14T13:07:38Z</time>
            </trkpt>
            <trkpt lat="55.016790" lon="-8.396480">
                <time>2019-06-14T13:07:39Z</time>
            </trkpt>
            <trkpt lat="55.016920" lon="-8.396590">
                <time>2019-06-14T13:07:40Z</time>
            </trkpt>
            <trkpt lat="55.017050" lon="-8.396650">
                <time>2019-06-14T13:07:41Z</time>
            </trkpt>
            <trkpt lat="55.017190" lon="-8.396690">
                <time>2019-06-14T13:07:42Z</time>
            </trkpt>
            <trkpt lat="55.017320" lon="-8.396680">
                <time>2019-06-14T13:07:43Z</time>
            </trkpt>
            <trkpt lat="55.017440" lon="-8.396640">
                <time>2019-06-14T13:07:44Z</time>
            </trkpt>
            <trkpt lat="55.017530" lon="-8.396560">
                <time>2019-06-14T13:07:45Z</time>
            </trkpt>
            <trkpt lat="55.017620" lon="-8.396420">
                <time>2019-06-14T13:07:46Z</time>
            </trkpt>
            <trkpt lat="55.017700" lon="-8.396240">
                <time>2019-06-14T13:07:47Z</time>
            </trkpt>
            <trkpt lat="55.017800" lon="-8.396060">
                <time>2019-06-14T13:07:48Z</time>
            </trkpt>
            <trkpt lat="55.017930" lon="-8.395880">
                <time>2019-06-14T13:07:49Z</time>
            </trkpt>
            <trkpt lat="55.018100" lon="-8.395710">
                <time>2019-06-14T13:07:50Z</time>
            </trkpt>
            <trkpt lat="55.018270" lon="-8.395550">
                <time>2019-06-14T13:07:51Z</time>
            </trkpt>
            <trkpt lat="55.018430" lon="-8.395390">
                <time>2019-06-14T13:07:52Z</time>
            </trkpt>
            <trkpt lat="55.018590" lon="-8.395210">
                <time>2019-06-14T13:07:53Z</time>
            </trkpt>
            <trkpt lat="55.018760" lon="-8.395040">
                <time>2019-06-14T13:07:54Z</time>
            </trkpt>
            <trkpt lat="55.018920" lon="-8.394870">
                <time>2019-06-14T13:07:55Z</time>
            </trkpt>
            <trkpt lat="55.019070" lon="-8.394710">
                <time>2019-06-14T13:07:56Z</time>
            </trkpt>
            <trkpt lat="55.019200" lon="-8.394560">
                <time>2019-06-14T13:07:57Z</time>
            </trkpt>
            <trkpt lat="55.019320" lon="-8.394390">
                <time>2019-06-14T13:07:58Z</time>
            </trkpt>
            <trkpt lat="55.019440" lon="-8.394220">
                <time>2019-06-14T13:07:59Z</time>
            </trkpt>
            <trkpt lat="55.019570" lon="-8.394050">
                <time>2019-06-14T13:08:00Z</time>
            </trkpt>
            <trkpt lat="55.019710" lon="-8.393870">
                <time>2019-06-14T13:08:01Z</time>
            </trkpt>
            <trkpt lat="55.019840" lon="-8.393680">
                <time>2019-06-14T13:08:02Z</time>
            </trkpt>
            <trkpt lat="55.019990" lon="-8.393500">
                <time>2019-06-14T13:08:03Z</time>
            </trkpt>
            <trkpt lat="55.020120" lon="-8.393320">
                <time>2019-06-14T13:08:04Z</time>
            </trkpt>
            <trkpt lat="55.020250" lon="-8.393140">
                <time>2019-06-14T13:08:05Z</time>
            </trkpt>
            <trkpt lat="55.020390" lon="-8.392940">
                <time>2019-06-14T13:08:06Z</time>
            </trkpt>
            <trkpt lat="55.020510" lon="-8.392720">
                <time>2019-06-14T13:08:07Z</time>
            </trkpt>
            <trkpt lat="55.020610" lon="-8.392480">
                <time>2019-06-14T13:08:08Z</time>
            </trkpt>
            <trkpt lat="55.020700" lon="-8.392260">
                <time>2019-06-14T13:08:09Z</time>
            </trkpt>
            <trkpt lat="55.020780" lon="-8.392080">
                <time>2019-06-14T13:08:10Z</time>
            </trkpt>
            <trkpt lat="55.020870" lon="-8.391970">
                <time>2019-06-14T13:08:11Z</time>
            </trkpt>
            <trkpt lat="55.020960" lon="-8.391920">
                <time>2019-06-14T13:08:12Z</time>
            </trkpt>
            <trkpt lat="55.021060" lon="-8.391900">
                <time>2019-06-14T13:08:13Z</time>
            </trkpt>
            <trkpt lat="55.021180" lon="-8.391910">
                <time>2019-06-14T13:08:14Z</time>
            </trkpt>
            <trkpt lat="55.021310" lon="-8.391920">
                <time>2019-06-14T13:08:15Z</time>
            </trkpt>
            <trkpt lat="55.021450" lon="-8.391900">
                <time>2019-06-14T13:08:16Z</time>
            </trkpt>
            <trkpt lat="55.021590" lon="-8.391830">
                <time>2019-06-14T13:08:17Z</time>
            </trkpt>
            <trkpt lat="55.021700" lon="-8.391710">
                <time>2019-06-14T13:08:18Z</time>
            </trkpt>
            <trkpt lat="55.021800" lon="-8.391610">
                <time>2019-06-14T13:08:19Z</time>
            </trkpt>
            <trkpt lat="55.021900" lon="-8.391570">
                <time>2019-06-14T13:08:20Z</time>
            </trkpt>
            <trkpt lat="55.021990" lon="-8.391570">
                <time>2019-06-14T13:08:21Z</time>
            </trkpt>
            <trkpt lat="55.022080" lon="-8.391610">
                <time>2019-06-14T13:08:22Z</time>
            </trkpt>
            <trkpt lat="55.022170" lon="-8.391680">
                <time>2019-06-14T13:08:23Z</time>
            </trkpt>
            <trkpt lat="55.022280" lon="-8.391740">
                <time>2019-06-14T13:08:24Z</time>
            </trkpt>
            <trkpt lat="55.022400" lon="-8.391780">
                <time>2019-06-14T13:08:25Z</time>
            </trkpt>
            <trkpt lat="55.022520" lon="-8.391820">
                <time>2019-06-14T13:08:26Z</time>
            </trkpt>
            <trkpt lat="55.022660" lon="-8.391840">
                <time>2019-06-14T13:08:27Z</time>
            </trkpt>
            <trkpt lat="55.022800" lon="-8.391870">
                <time>2019-06-14T13:08:28Z</time>
            </trkpt>
            <trkpt lat="55.022950" lon="-8.391910">
                <time>2019-06-14T13:08:29Z</time>
            </trkpt>
            <trkpt lat="55.023090" lon="-8.391940">
                <time>2019-06-14T13:08:30Z</time>
            </trkpt>
            <trkpt lat="55.023210" lon="-8.391960">
                <time>2019-06-14T13:08:31Z</time>
            </trkpt>
            <trkpt lat="55.023340" lon="-8.391970">
                <time>2019-06-14T13:08:32Z</time>
            </trkpt>
            <trkpt lat="55.023470" lon="-8.391970">
                <time>2019-06-14T13:08:33Z</time>
            </trkpt>
            <trkpt lat="55.023600" lon="-8.391930">
                <time>2019-06-14T13:08:34Z</time>
            </trkpt>
            <trkpt lat="55.023740" lon="-8.391890">
                <time>2019-06-14T13:08:35Z</time>
            </trkpt>
            <trkpt lat="55.023890" lon="-8.391860">
                <time>2019-06-14T13:08:36Z</time>
            </trkpt>
            <trkpt lat="55.024040" lon="-8.391870">
                <time>2019-06-14T13:08:37Z</time>
            </trkpt>
            <trkpt lat="55.024200" lon="-8.391910">
                <time>2019-06-14T13:08:38Z</time>
            </trkpt>
            <trkpt lat="55.024340" lon="-8.391960">
                <time>2019-06-14T13:08:39Z</time>
            </trkpt>
            <trkpt lat="55.024480" lon="-8.392010">
                <time>2019-06-14T13:08:40Z</time>
            </trkpt>
            <trkpt lat="55.024620" lon="-8.392090">
                <time>2019-06-14T13:08:41Z</time>
            </trkpt>
            <trkpt lat="55.024760" lon="-8.392200">
                <time>2019-06-14T13:08:42Z</time>
            </trkpt>
            <trkpt lat="55.024910" lon="-8.392320">
                <time>2019-06-14T13:08:43Z</time>
            </trkpt>
            <trkpt lat="55.025050" lon="-8.392430">
                <time>2019-06-14T13:08:44Z</time>
            </trkpt>
            <trkpt lat="55.025180" lon="-8.392530">
                <time>2019-06-14T13:08:45Z</time>
            </trkpt>
            <trkpt lat="55.025320" lon="-8.392600">
                <time>2019-06-14T13:08:46Z</time>
            </trkpt>
            <trkpt lat="55.025450" lon="-8.392660">
                <time>2019-06-14T13:08:47Z</time>
            </trkpt>
            <trkpt lat="55.025580" lon="-8.392710">
                <time>2019-06-14T13:08:48Z</time>
            </trkpt>
            <trkpt lat="55.025690" lon="-8.392750">
                <time>2019-06-14T13:08:49Z</time>
            </trkpt>
            <trkpt lat="55.025780" lon="-8.392730">
                <time>2019-06-14T13:08:50Z</time>
            </trkpt>
            <trkpt lat="55.025860" lon="-8.392690">
                <time>2019-06-14T13:08:51Z</time>
            </trkpt>
            <trkpt lat="55.025950" lon="-8.392600">
                <time>2019-06-14T13:08:52Z</time>
            </trkpt>
            <trkpt lat="55.026040" lon="-8.392470">
                <time>2019-06-14T13:08:53Z</time>
            </trkpt>
            <trkpt lat="55.026150" lon="-8.392350">
                <time>2019-06-14T13:08:54Z</time>
            </trkpt>
            <trkpt lat="55.026270" lon="-8.392250">
                <time>2019-06-14T13:08:55Z</time>
            </trkpt>
            <trkpt lat="55.026390" lon="-8.392120">
                <time>2019-06-14T13:08:56Z</time>
            </trkpt>
            <trkpt lat="55.026490" lon="-8.391980">
                <time>2019-06-14T13:08:57Z</time>
            </trkpt>
            <trkpt lat="55.026580" lon="-8.391800">
                <time>2019-06-14T13:08:58Z</time>
            </trkpt>
            <trkpt lat="55.026680" lon="-8.391630">
                <time>2019-06-14T13:08:59Z</time>
            </trkpt>
            <trkpt lat="55.026780" lon="-8.391490">
                <time>2019-06-14T13:09:00Z</time>
            </trkpt>
            <trkpt lat="55.026890" lon="-8.391380">
                <time>2019-06-14T13:09:01Z</time>
            </trkpt>
            <trkpt lat="55.027030" lon="-8.391310">
                <time>2019-06-14T13:09:02Z</time>
            </trkpt>
            <trkpt lat="55.027190" lon="-8.391260">
                <time>2019-06-14T13:09:03Z</time>
            </trkpt>
            <trkpt lat="55.027340" lon="-8.391240">
                <time>2019-06-14T13:09:04Z</time>
            </trkpt>
            <trkpt lat="55.027470" lon="-8.391220">
                <time>2019-06-14T13:09:05Z</time>
            </trkpt>
            <trkpt lat="55.027610" lon="-8.391170">
                <time>2019-06-14T13:09:06Z</time>
            </trkpt>
            <trkpt lat="55.027760" lon="-8.391090">
                <time>2019-06-14T13:09:07Z</time>
            </trkpt>
            <trkpt lat="55.027910" lon="-8.390990">
                <time>2019-06-14T13:09:08Z</time>
            </trkpt>
            <trkpt lat="55.028060" lon="-8.390890">
                <time>2019-06-14T13:09:09Z</time>
            </trkpt>
            <trkpt lat="55.028210" lon="-8.390790">
                <time>2019-06-14T13:09:10Z</time>
            </trkpt>
            <trkpt lat="55.028320" lon="-8.390660">
                <time>2019-06-14T13:09:11Z</time>
            </trkpt>
            <trkpt lat="55.028420" lon="-8.390520">
                <time>2019-06-14T13:09:12Z</time>
            </trkpt>
            <trkpt lat="55.028540" lon="-8.390350">
                <time>2019-06-14T13:09:13Z</time>
            </trkpt>
            <trkpt lat="55.028680" lon="-8.390170">
                <time>2019-06-14T13:09:14Z</time>
            </trkpt>
            <trkpt lat="55.028820" lon="-8.389980">
                <time>2019-06-14T13:09:15Z</time>
            </trkpt>
            <trkpt lat="55.028960" lon="-8.389750">
                <time>2019-06-14T13:09:16Z</time>
            </trkpt>
            <trkpt lat="55.029110" lon="-8.389470">
                <time>2019-06-14T13:09:17Z</time>
            </trkpt>
            <trkpt lat="55.029260" lon="-8.389180">
                <time>2019-06-14T13:09:18Z</time>
            </trkpt>
            <trkpt lat="55.029390" lon="-8.388900">
                <time>2019-06-14T13:09:19Z</time>
            </trkpt>
            <trkpt lat="55.029510" lon="-8.388640">
                <time>2019-06-14T13:09:20Z</time>
            </trkpt>
            <trkpt lat="55.029630" lon="-8.388390">
                <time>2019-06-14T13:09:21Z</time>
            </trkpt>
            <trkpt lat="55.029730" lon="-8.388140">
                <time>2019-06-14T13:09:22Z</time>
            </trkpt>
            <trkpt lat="55.029820" lon="-8.387900">
                <time>2019-06-14T13:09:23Z</time>
            </trkpt>
            <trkpt lat="55.029910" lon="-8.387680">
                <time>2019-06-14T13:09:24Z</time>
            </trkpt>
            <trkpt lat="55.030010" lon="-8.387510">
                <time>2019-06-14T13:09:25Z</time>
            </trkpt>
            <trkpt lat="55.030120" lon="-8.387400">
                <time>2019-06-14T13:09:26Z</time>
            </trkpt>
            <trkpt lat="55.030230" lon="-8.387310">
                <time>2019-06-14T13:09:27Z</time>
            </trkpt>
            <trkpt lat="55.030320" lon="-8.387210">
                <time>2019-06-14T13:09:28Z</time>
            </trkpt>
            <trkpt lat="55.030390" lon="-8.387090">
                <time>2019-06-14T13:09:29Z</time>
            </trkpt>
            <trkpt lat="55.030430" lon="-8.386910">
                <time>2019-06-14T13:09:30Z</time>
            </trkpt>
            <trkpt lat="55.030430" lon="-8.386660">
                <time>2019-06-14T13:09:31Z</time>
            </trkpt>
            <trkpt lat="55.030410" lon="-8.386410">
                <time>2019-06-14T13:09:32Z</time>
            </trkpt>
            <trkpt lat="55.030390" lon="-8.386150">
                <time>2019-06-14T13:09:33Z</time>
            </trkpt>
            <trkpt lat="55.030380" lon="-8.385900">
                <time>2019-06-14T13:09:34Z</time>
            </trkpt>
            <trkpt lat="55.030390" lon="-8.385680">
                <time>2019-06-14T13:09:35Z</time>
            </trkpt>
            <trkpt lat="55.030430" lon="-8.385480">
                <time>2019-06-14T13:09:36Z</time>
            </trkpt>
            <trkpt lat="55.030480" lon="-8.385320">
                <time>2019-06-14T13:09:37Z</time>
            </trkpt>
            <trkpt lat="55.030530" lon="-8.385130">
                <time>2019-06-14T13:09:38Z</time>
            </trkpt>
            <trkpt lat="55.030570" lon="-8.384920">
                <time>2019-06-14T13:09:39Z</time>
            </trkpt>
            <trkpt lat="55.030580" lon="-8.384690">
                <time>2019-06-14T13:09:40Z</time>
            </trkpt>
            <trkpt lat="55.030530" lon="-8.384470">
                <time>2019-06-14T13:09:41Z</time>
            </trkpt>
            <trkpt lat="55.030460" lon="-8.384260">
                <time>2019-06-14T13:09:42Z</time>
            </trkpt>
            <trkpt lat="55.030360" lon="-8.384070">
                <time>2019-06-14T13:09:43Z</time>
            </trkpt>
            <trkpt lat="55.030250" lon="-8.383870">
                <time>2019-06-14T13:09:44Z</time>
            </trkpt>
            <trkpt lat="55.030150" lon="-8.383690">
                <time>2019-06-14T13:09:45Z</time>
            </trkpt>
            <trkpt lat="55.030080" lon="-8.383510">
                <time>2019-06-14T13:09:46Z</time>
            </trkpt>
            <trkpt lat="55.030040" lon="-8.383330">
                <time>2019-06-14T13:09:47Z</time>
            </trkpt>
            <trkpt lat="55.030020" lon="-8.383130">
                <time>2019-06-14T13:09:48Z</time>
            </trkpt>
            <trkpt lat="55.030030" lon="-8.382920">
                <time>2019-06-14T13:09:49Z</time>
            </trkpt>
            <trkpt lat="55.030070" lon="-8.382740">
                <time>2019-06-14T13:09:50Z</time>
            </trkpt>
            <trkpt lat="55.030130" lon="-8.382630">
                <time>2019-06-14T13:09:51Z</time>
            </trkpt>
            <trkpt lat="55.030210" lon="-8.382560">
                <time>2019-06-14T13:09:52Z</time>
            </trkpt>
            <trkpt lat="55.030330" lon="-8.382510">
                <time>2019-06-14T13:09:53Z</time>
            </trkpt>
            <trkpt lat="55.030480" lon="-8.382450">
                <time>2019-06-14T13:09:54Z</time>
            </trkpt>
            <trkpt lat="55.030630" lon="-8.382370">
                <time>2019-06-14T13:09:55Z</time>
            </trkpt>
            <trkpt lat="55.030760" lon="-8.382270">
                <time>2019-06-14T13:09:56Z</time>
            </trkpt>
            <trkpt lat="55.030860" lon="-8.382130">
                <time>2019-06-14T13:09:57Z</time>
            </trkpt>
            <trkpt lat="55.030910" lon="-8.381980">
                <time>2019-06-14T13:09:58Z</time>
            </trkpt>
            <trkpt lat="55.030920" lon="-8.381810">
                <time>2019-06-14T13:09:59Z</time>
            </trkpt>
            <trkpt lat="55.030920" lon="-8.381600">
                <time>2019-06-14T13:10:00Z</time>
            </trkpt>
            <trkpt lat="55.030910" lon="-8.381380">
                <time>2019-06-14T13:10:01Z</time>
            </trkpt>
            <trkpt lat="55.030870" lon="-8.381140">
                <time>2019-06-14T13:10:02Z</time>
            </trkpt>
            <trkpt lat="55.030810" lon="-8.380860">
                <time>2019-06-14T13:10:03Z</time>
            </trkpt>
            <trkpt lat="55.030730" lon="-8.380550">
                <time>2019-06-14T13:10:04Z</time>
            </trkpt>
            <trkpt lat="55.030650" lon="-8.380230">
                <time>2019-06-14T13:10:05Z</time>
            </trkpt>
            <trkpt lat="55.030580" lon="-8.379940">
                <time>2019-06-14T13:10:06Z</time>
            </trkpt>
            <trkpt lat="55.030520" lon="-8.379620">
                <time>2019-06-14T13:10:07Z</time>
            </trkpt>
            <trkpt lat="55.030480" lon="-8.379280">
                <time>2019-06-14T13:10:08Z</time>
            </trkpt>
            <trkpt lat="55.030440" lon="-8.378880">
                <time>2019-06-14T13:10:09Z</time>
            </trkpt>
            <trkpt lat="55.030390" lon="-8.378440">
                <time>2019-06-14T13:10:10Z</time>
            </trkpt>
            <trkpt lat="55.030330" lon="-8.377960">
                <time>2019-06-14T13:10:11Z</time>
            </trkpt>
            <trkpt lat="55.030280" lon="-8.377460">
                <time>2019-06-14T13:10:12Z</time>
            </trkpt>
            <trkpt lat="55.030230" lon="-8.376970">
                <time>2019-06-14T13:10:13Z</time>
            </trkpt>
            <trkpt lat="55.030180" lon="-8.376500">
                <time>2019-06-14T13:10:14Z</time>
            </trkpt>
            <trkpt lat="55.030130" lon="-8.376050">
                <time>2019-06-14T13:10:15Z</time>
            </trkpt>
            <trkpt lat="55.030090" lon="-8.375640">
                <time>2019-06-14T13:10:16Z</time>
            </trkpt>
            <trkpt lat="55.030050" lon="-8.375270">
                <time>2019-06-14T13:10:17Z</time>
            </trkpt>
            <trkpt lat="55.030030" lon="-8.374910">
                <time>2019-06-14T13:10:18Z</time>
            </trkpt>
            <trkpt lat="55.030020" lon="-8.374590">
                <time>2019-06-14T13:10:19Z</time>
            </trkpt>
            <trkpt lat="55.030060" lon="-8.374280">
                <time>2019-06-14T13:10:20Z</time>
            </trkpt>
            <trkpt lat="55.030140" lon="-8.373990">
                <time>2019-06-14T13:10:21Z</time>
            </trkpt>
            <trkpt lat="55.030220" lon="-8.373690">
                <time>2019-06-14T13:10:22Z</time>
            </trkpt>
            <trkpt lat="55.030290" lon="-8.373410">
                <time>2019-06-14T13:10:23Z</time>
            </trkpt>
            <trkpt lat="55.030350" lon="-8.373140">
                <time>2019-06-14T13:10:24Z</time>
            </trkpt>
            <trkpt lat="55.030420" lon="-8.372870">
                <time>2019-06-14T13:10:25Z</time>
            </trkpt>
            <trkpt lat="55.030500" lon="-8.372610">
                <time>2019-06-14T13:10:26Z</time>
            </trkpt>
            <trkpt lat="55.030600" lon="-8.372340">
                <time>2019-06-14T13:10:27Z</time>
            </trkpt>
            <trkpt lat="55.030700" lon="-8.372070">
                <time>2019-06-14T13:10:28Z</time>
            </trkpt>
            <trkpt lat="55.030790" lon="-8.371760">
                <time>2019-06-14T13:10:29Z</time>
            </trkpt>
            <trkpt lat="55.030880" lon="-8.371420">
                <time>2019-06-14T13:10:30Z</time>
            </trkpt>
            <trkpt lat="55.030960" lon="-8.371070">
                <time>2019-06-14T13:10:31Z</time>
            </trkpt>
            <trkpt lat="55.031040" lon="-8.370740">
                <time>2019-06-14T13:10:32Z</time>
            </trkpt>
            <trkpt lat="55.031120" lon="-8.370440">
                <time>2019-06-14T13:10:33Z</time>
            </trkpt>
            <trkpt lat="55.031210" lon="-8.370180">
                <time>2019-06-14T13:10:34Z</time>
            </trkpt>
            <trkpt lat="55.031320" lon="-8.369980">
                <time>2019-06-14T13:10:35Z</time>
            </trkpt>
            <trkpt lat="55.031420" lon="-8.369820">
                <time>2019-06-14T13:10:36Z</time>
            </trkpt>
            <trkpt lat="55.031490" lon="-8.369660">
                <time>2019-06-14T13:10:37Z</time>
            </trkpt>
            <trkpt lat="55.031550" lon="-8.369480">
                <time>2019-06-14T13:10:38Z</time>
            </trkpt>
            <trkpt lat="55.031580" lon="-8.369240">
                <time>2019-06-14T13:10:39Z</time>
            </trkpt>
            <trkpt lat="55.031600" lon="-8.368960">
                <time>2019-06-14T13:10:40Z</time>
            </trkpt>
            <trkpt lat="55.031610" lon="-8.368640">
                <time>2019-06-14T13:10:41Z</time>
            </trkpt>
            <trkpt lat="55.031630" lon="-8.368310">
                <time>2019-06-14T13:10:42Z</time>
            </trkpt>
            <trkpt lat="55.031640" lon="-8.368000">
                <time>2019-06-14T13:10:43Z</time>
            </trkpt>
            <trkpt lat="55.031640" lon="-8.367710">
                <time>2019-06-14T13:10:44Z</time>
            </trkpt>
            <trkpt lat="55.031630" lon="-8.367440">
                <time>2019-06-14T13:10:45Z</time>
            </trkpt>
            <trkpt lat="55.031630" lon="-8.367150">
                <time>2019-06-14T13:10:46Z</time>
            </trkpt>
            <trkpt lat="55.031660" lon="-8.366850">
                <time>2019-06-14T13:10:47Z</time>
            </trkpt>
            <trkpt lat="55.031690" lon="-8.366540">
                <time>2019-06-14T13:10:48Z</time>
            </trkpt>
            <trkpt lat="55.031730" lon="-8.366250">
                <time>2019-06-14T13:10:49Z</time>
            </trkpt>
            <trkpt lat="55.031790" lon="-8.366000">
                <time>2019-06-14T13:10:50Z</time>
            </trkpt>
            <trkpt lat="55.031840" lon="-8.365780">
                <time>2019-06-14T13:10:51Z</time>
            </trkpt>
            <trkpt lat="55.031860" lon="-8.365540">
                <time>2019-06-14T13:10:52Z</time>
            </trkpt>
            <trkpt lat="55.031850" lon="-8.365290">
                <time>2019-06-14T13:10:53Z</time>
            </trkpt>
            <trkpt lat="55.031830" lon="-8.365040">
                <time>2019-06-14T13:10:54Z</time>
            </trkpt>
            <trkpt lat="55.031820" lon="-8.364800">
                <time>2019-06-14T13:10:55Z</time>
            </trkpt>
            <trkpt lat="55.031850" lon="-8.364560">
                <time>2019-06-14T13:10:56Z</time>
            </trkpt>
            <trkpt lat="55.031910" lon="-8.364320">
                <time>2019-06-14T13:10:57Z</time>
            </trkpt>
            <trkpt lat="55.031980" lon="-8.364060">
                <time>2019-06-14T13:10:58Z</time>
            </trkpt>
            <trkpt lat="55.032050" lon="-8.363790">
                <time>2019-06-14T13:10:59Z</time>
            </trkpt>
            <trkpt lat="55.032130" lon="-8.363510">
                <time>2019-06-14T13:11:00Z</time>
            </trkpt>
            <trkpt lat="55.032210" lon="-8.363210">
                <time>2019-06-14T13:11:01Z</time>
            </trkpt>
            <trkpt lat="55.032300" lon="-8.362900">
                <time>2019-06-14T13:11:02Z</time>
            </trkpt>
            <trkpt lat="55.032380" lon="-8.362600">
                <time>2019-06-14T13:11:03Z</time>
            </trkpt>
            <trkpt lat="55.032470" lon="-8.362320">
                <time>2019-06-14T13:11:04Z</time>
            </trkpt>
            <trkpt lat="55.032550" lon="-8.362070">
                <time>2019-06-14T13:11:05Z</time>
            </trkpt>
            <trkpt lat="55.032630" lon="-8.361800">
                <time>2019-06-14T13:11:06Z</time>
            </trkpt>
            <trkpt lat="55.032700" lon="-8.361500">
                <time>2019-06-14T13:11:07Z</time>
            </trkpt>
            <trkpt lat="55.032770" lon="-8.361210">
                <time>2019-06-14T13:11:08Z</time>
            </trkpt>
            <trkpt lat="55.032840" lon="-8.360950">
                <time>2019-06-14T13:11:09Z</time>
            </trkpt>
            <trkpt lat="55.032900" lon="-8.360730">
                <time>2019-06-14T13:11:10Z</time>
            </trkpt>
            <trkpt lat="55.032950" lon="-8.360510">
                <time>2019-06-14T13:11:11Z</time>
            </trkpt>
            <trkpt lat="55.032970" lon="-8.360300">
                <time>2019-06-14T13:11:12Z</time>
            </trkpt>
            <trkpt lat="55.032970" lon="-8.360040">
                <time>2019-06-14T13:11:13Z</time>
            </trkpt>
            <trkpt lat="55.032940" lon="-8.359770">
                <time>2019-06-14T13:11:14Z</time>
            </trkpt>
            <trkpt lat="55.032920" lon="-8.359470">
                <time>2019-06-14T13:11:15Z</time>
            </trkpt>
            <trkpt lat="55.032900" lon="-8.359210">
                <time>2019-06-14T13:11:16Z</time>
            </trkpt>
            <trkpt lat="55.032840" lon="-8.358970">
                <time>2019-06-14T13:11:17Z</time>
            </trkpt>
            <trkpt lat="55.032760" lon="-8.358730">
                <time>2019-06-14T13:11:18Z</time>
            </trkpt>
            <trkpt lat="55.032650" lon="-8.358480">
                <time>2019-06-14T13:11:19Z</time>
            </trkpt>
            <trkpt lat="55.032540" lon="-8.358220">
                <time>2019-06-14T13:11:20Z</time>
            </trkpt>
            <trkpt lat="55.032410" lon="-8.357950">
                <time>2019-06-14T13:11:21Z</time>
            </trkpt>
            <trkpt lat="55.032300" lon="-8.357680">
                <time>2019-06-14T13:11:22Z</time>
            </trkpt>
            <trkpt lat="55.032190" lon="-8.357430">
                <time>2019-06-14T13:11:23Z</time>
            </trkpt>
            <trkpt lat="55.032090" lon="-8.357190">
                <time>2019-06-14T13:11:24Z</time>
            </trkpt>
            <trkpt lat="55.031990" lon="-8.356950">
                <time>2019-06-14T13:11:25Z</time>
            </trkpt>
            <trkpt lat="55.031900" lon="-8.356710">
                <time>2019-06-14T13:11:26Z</time>
            </trkpt>
            <trkpt lat="55.031800" lon="-8.356510">
                <time>2019-06-14T13:11:27Z</time>
            </trkpt>
            <trkpt lat="55.031690" lon="-8.356330">
                <time>2019-06-14T13:11:28Z</time>
            </trkpt>
            <trkpt lat="55.031590" lon="-8.356160">
                <time>2019-06-14T13:11:29Z</time>
            </trkpt>
            <trkpt lat="55.031490" lon="-8.356040">
                <time>2019-06-14T13:11:30Z</time>
            </trkpt>
            <trkpt lat="55.031380" lon="-8.355960">
                <time>2019-06-14T13:11:31Z</time>
            </trkpt>
            <trkpt lat="55.031290" lon="-8.355880">
                <time>2019-06-14T13:11:32Z</time>
            </trkpt>
            <trkpt lat="55.031200" lon="-8.355770">
                <time>2019-06-14T13:11:33Z</time>
            </trkpt>
            <trkpt lat="55.031110" lon="-8.355610">
                <time>2019-06-14T13:11:34Z</time>
            </trkpt>
            <trkpt lat="55.031020" lon="-8.355430">
                <time>2019-06-14T13:11:35Z</time>
            </trkpt>
            <trkpt lat="55.030940" lon="-8.355250">
                <time>2019-06-14T13:11:36Z</time>
            </trkpt>
            <trkpt lat="55.030860" lon="-8.355060">
                <time>2019-06-14T13:11:37Z</time>
            </trkpt>
            <trkpt lat="55.030790" lon="-8.354860">
                <time>2019-06-14T13:11:38Z</time>
            </trkpt>
            <trkpt lat="55.030720" lon="-8.354630">
                <time>2019-06-14T13:11:39Z</time>
            </trkpt>
            <trkpt lat="55.030660" lon="-8.354390">
                <time>2019-06-14T13:11:40Z</time>
            </trkpt>
            <trkpt lat="55.030610" lon="-8.354140">
                <time>2019-06-14T13:11:41Z</time>
            </trkpt>
            <trkpt lat="55.030550" lon="-8.353880">
                <time>2019-06-14T13:11:42Z</time>
            </trkpt>
            <trkpt lat="55.030500" lon="-8.353610">
                <time>2019-06-14T13:11:43Z</time>
            </trkpt>
            <trkpt lat="55.030450" lon="-8.353350">
                <time>2019-06-14T13:11:44Z</time>
            </trkpt>
            <trkpt lat="55.030410" lon="-8.353070">
                <time>2019-06-14T13:11:45Z</time>
            </trkpt>
            <trkpt lat="55.030360" lon="-8.352790">
                <time>2019-06-14T13:11:46Z</time>
            </trkpt>
            <trkpt lat="55.030310" lon="-8.352500">
                <time>2019-06-14T13:11:47Z</time>
            </trkpt>
            <trkpt lat="55.030250" lon="-8.352210">
                <time>2019-06-14T13:11:48Z</time>
            </trkpt>
            <trkpt lat="55.030200" lon="-8.351930">
                <time>2019-06-14T13:11:49Z</time>
            </trkpt>
            <trkpt lat="55.030140" lon="-8.351670">
                <time>2019-06-14T13:11:50Z</time>
            </trkpt>
            <trkpt lat="55.030090" lon="-8.351420">
                <time>2019-06-14T13:11:51Z</time>
            </trkpt>
            <trkpt lat="55.030020" lon="-8.351170">
                <time>2019-06-14T13:11:52Z</time>
            </trkpt>
            <trkpt lat="55.029960" lon="-8.350940">
                <time>2019-06-14T13:11:53Z</time>
            </trkpt>
            <trkpt lat="55.029890" lon="-8.350710">
                <time>2019-06-14T13:11:54Z</time>
            </trkpt>
            <trkpt lat="55.029810" lon="-8.350490">
                <time>2019-06-14T13:11:55Z</time>
            </trkpt>
            <trkpt lat="55.029740" lon="-8.350280">
                <time>2019-06-14T13:11:56Z</time>
            </trkpt>
            <trkpt lat="55.029660" lon="-8.350070">
                <time>2019-06-14T13:11:57Z</time>
            </trkpt>
            <trkpt lat="55.029590" lon="-8.349880">
                <time>2019-06-14T13:11:58Z</time>
            </trkpt>
            <trkpt lat="55.029520" lon="-8.349680">
                <time>2019-06-14T13:11:59Z</time>
            </trkpt>
            <trkpt lat="55.029450" lon="-8.349490">
                <time>2019-06-14T13:12:00Z</time>
            </trkpt>
            <trkpt lat="55.029370" lon="-8.349300">
                <time>2019-06-14T13:12:01Z</time>
            </trkpt>
            <trkpt lat="55.029290" lon="-8.349090">
                <time>2019-06-14T13:12:02Z</time>
            </trkpt>
            <trkpt lat="55.029200" lon="-8.348880">
                <time>2019-06-14T13:12:03Z</time>
            </trkpt>
            <trkpt lat="55.029110" lon="-8.348660">
                <time>2019-06-14T13:12:04Z</time>
            </trkpt>
            <trkpt lat="55.029010" lon="-8.348430">
                <time>2019-06-14T13:12:05Z</time>
            </trkpt>
            <trkpt lat="55.028920" lon="-8.348200">
                <time>2019-06-14T13:12:06Z</time>
            </trkpt>
            <trkpt lat="55.028830" lon="-8.347980">
                <time>2019-06-14T13:12:07Z</time>
            </trkpt>
            <trkpt lat="55.028740" lon="-8.347770">
                <time>2019-06-14T13:12:08Z</time>
            </trkpt>
            <trkpt lat="55.028650" lon="-8.347590">
                <time>2019-06-14T13:12:09Z</time>
            </trkpt>
            <trkpt lat="55.028580" lon="-8.347430">
                <time>2019-06-14T13:12:10Z</time>
            </trkpt>
            <trkpt lat="55.028500" lon="-8.347280">
                <time>2019-06-14T13:12:11Z</time>
            </trkpt>
            <trkpt lat="55.028430" lon="-8.347140">
                <time>2019-06-14T13:12:12Z</time>
            </trkpt>
            <trkpt lat="55.028350" lon="-8.346990">
                <time>2019-06-14T13:12:13Z</time>
            </trkpt>
            <trkpt lat="55.028270" lon="-8.346860">
                <time>2019-06-14T13:12:14Z</time>
            </trkpt>
            <trkpt lat="55.028200" lon="-8.346740">
                <time>2019-06-14T13:12:15Z</time>
            </trkpt>
            <trkpt lat="55.028130" lon="-8.346620">
                <time>2019-06-14T13:12:16Z</time>
            </trkpt>
            <trkpt lat="55.028060" lon="-8.346490">
                <time>2019-06-14T13:12:17Z</time>
            </trkpt>
            <trkpt lat="55.028000" lon="-8.346310">
                <time>2019-06-14T13:12:18Z</time>
            </trkpt>
            <trkpt lat="55.027950" lon="-8.346130">
                <time>2019-06-14T13:12:19Z</time>
            </trkpt>
            <trkpt lat="55.027900" lon="-8.345940">
                <time>2019-06-14T13:12:20Z</time>
            </trkpt>
            <trkpt lat="55.027860" lon="-8.345750">
                <time>2019-06-14T13:12:21Z</time>
            </trkpt>
            <trkpt lat="55.027820" lon="-8.345560">
                <time>2019-06-14T13:12:22Z</time>
            </trkpt>
            <trkpt lat="55.027780" lon="-8.345360">
                <time>2019-06-14T13:12:23Z</time>
            </trkpt>
            <trkpt lat="55.027740" lon="-8.345150">
                <time>2019-06-14T13:12:24Z</time>
            </trkpt>
            <trkpt lat="55.027700" lon="-8.344920">
                <time>2019-06-14T13:12:25Z</time>
            </trkpt>
            <trkpt lat="55.027660" lon="-8.344680">
                <time>2019-06-14T13:12:26Z</time>
            </trkpt>
            <trkpt lat="55.027620" lon="-8.344430">
                <time>2019-06-14T13:12:27Z</time>
            </trkpt>
            <trkpt lat="55.027580" lon="-8.344170">
                <time>2019-06-14T13:12:28Z</time>
            </trkpt>
            <trkpt lat="55.027530" lon="-8.343880">
                <time>2019-06-14T13:12:29Z</time>
            </trkpt>
            <trkpt lat="55.027490" lon="-8.343600">
                <time>2019-06-14T13:12:30Z</time>
            </trkpt>
            <trkpt lat="55.027450" lon="-8.343320">
                <time>2019-06-14T13:12:31Z</time>
            </trkpt>
            <trkpt lat="55.027410" lon="-8.343050">
                <time>2019-06-14T13:12:32Z</time>
            </trkpt>
            <trkpt lat="55.027380" lon="-8.342760">
                <time>2019-06-14T13:12:33Z</time>
            </trkpt>
            <trkpt lat="55.027360" lon="-8.342480">
                <time>2019-06-14T13:12:34Z</time>
            </trkpt>
            <trkpt lat="55.027330" lon="-8.342220">
                <time>2019-06-14T13:12:35Z</time>
            </trkpt>
            <trkpt lat="55.027330" lon="-8.341980">
                <time>2019-06-14T13:12:36Z</time>
            </trkpt>
            <trkpt lat="55.027330" lon="-8.341740">
                <time>2019-06-14T13:12:37Z</time>
            </trkpt>
            <trkpt lat="55.027340" lon="-8.341500">
                <time>2019-06-14T13:12:38Z</time>
            </trkpt>
            <trkpt lat="55.027360" lon="-8.341250">
                <time>2019-06-14T13:12:39Z</time>
            </trkpt>
            <trkpt lat="55.027370" lon="-8.340990">
                <time>2019-06-14T13:12:40Z</time>
            </trkpt>
            <trkpt lat="55.027380" lon="-8.340720">
                <time>2019-06-14T13:12:41Z</time>
            </trkpt>
            <trkpt lat="55.027390" lon="-8.340450">
                <time>2019-06-14T13:12:42Z</time>
            </trkpt>
            <trkpt lat="55.027400" lon="-8.340160">
                <time>2019-06-14T13:12:43Z</time>
            </trkpt>
            <trkpt lat="55.027400" lon="-8.339860">
                <time>2019-06-14T13:12:44Z</time>
            </trkpt>
            <trkpt lat="55.027390" lon="-8.339550">
                <time>2019-06-14T13:12:45Z</time>
            </trkpt>
            <trkpt lat="55.027380" lon="-8.339240">
                <time>2019-06-14T13:12:46Z</time>
            </trkpt>
            <trkpt lat="55.027360" lon="-8.338950">
                <time>2019-06-14T13:12:47Z</time>
            </trkpt>
            <trkpt lat="55.027330" lon="-8.338680">
                <time>2019-06-14T13:12:48Z</time>
            </trkpt>
            <trkpt lat="55.027280" lon="-8.338440">
                <time>2019-06-14T13:12:49Z</time>
            </trkpt>
            <trkpt lat="55.027210" lon="-8.338230">
                <time>2019-06-14T13:12:50Z</time>
            </trkpt>
            <trkpt lat="55.027130" lon="-8.338010">
                <time>2019-06-14T13:12:51Z</time>
            </trkpt>
            <trkpt lat="55.027030" lon="-8.337780">
                <time>2019-06-14T13:12:52Z</time>
            </trkpt>
            <trkpt lat="55.026920" lon="-8.337550">
                <time>2019-06-14T13:12:53Z</time>
            </trkpt>
            <trkpt lat="55.026800" lon="-8.337320">
                <time>2019-06-14T13:12:54Z</time>
            </trkpt>
            <trkpt lat="55.026680" lon="-8.337090">
                <time>2019-06-14T13:12:55Z</time>
            </trkpt>
            <trkpt lat="55.026560" lon="-8.336860">
                <time>2019-06-14T13:12:56Z</time>
            </trkpt>
            <trkpt lat="55.026440" lon="-8.336640">
                <time>2019-06-14T13:12:57Z</time>
            </trkpt>
            <trkpt lat="55.026330" lon="-8.336400">
                <time>2019-06-14T13:12:58Z</time>
            </trkpt>
            <trkpt lat="55.026220" lon="-8.336150">
                <time>2019-06-14T13:12:59Z</time>
            </trkpt>
            <trkpt lat="55.026120" lon="-8.335890">
                <time>2019-06-14T13:13:00Z</time>
            </trkpt>
            <trkpt lat="55.026010" lon="-8.335630">
                <time>2019-06-14T13:13:01Z</time>
            </trkpt>
            <trkpt lat="55.025910" lon="-8.335380">
                <time>2019-06-14T13:13:02Z</time>
            </trkpt>
            <trkpt lat="55.025820" lon="-8.335140">
                <time>2019-06-14T13:13:03Z</time>
            </trkpt>
            <trkpt lat="55.025730" lon="-8.334900">
                <time>2019-06-14T13:13:04Z</time>
            </trkpt>
            <trkpt lat="55.025650" lon="-8.334690">
                <time>2019-06-14T13:13:05Z</time>
            </trkpt>
            <trkpt lat="55.025540" lon="-8.334520">
                <time>2019-06-14T13:13:06Z</time>
            </trkpt>
            <trkpt lat="55.025430" lon="-8.334410">
                <time>2019-06-14T13:13:07Z</time>
            </trkpt>
            <trkpt lat="55.025310" lon="-8.334360">
                <time>2019-06-14T13:13:08Z</time>
            </trkpt>
            <trkpt lat="55.025190" lon="-8.334350">
                <time>2019-06-14T13:13:09Z</time>
            </trkpt>
            <trkpt lat="55.025070" lon="-8.334330">
                <time>2019-06-14T13:13:10Z</time>
            </trkpt>
            <trkpt lat="55.024950" lon="-8.334310">
                <time>2019-06-14T13:13:11Z</time>
            </trkpt>
            <trkpt lat="55.024820" lon="-8.334280">
                <time>2019-06-14T13:13:12Z</time>
            </trkpt>
            <trkpt lat="55.024690" lon="-8.334240">
                <time>2019-06-14T13:13:13Z</time>
            </trkpt>
            <trkpt lat="55.024580" lon="-8.334160">
                <time>2019-06-14T13:13:14Z</time>
            </trkpt>
            <trkpt lat="55.024460" lon="-8.334080">
                <time>2019-06-14T13:13:15Z</time>
            </trkpt>
            <trkpt lat="55.024340" lon="-8.334000">
                <time>2019-06-14T13:13:16Z</time>
            </trkpt>
            <trkpt lat="55.024200" lon="-8.333970">
                <time>2019-06-14T13:13:17Z</time>
            </trkpt>
            <trkpt lat="55.024060" lon="-8.333970">
                <time>2019-06-14T13:13:18Z</time>
            </trkpt>
            <trkpt lat="55.023920" lon="-8.333990">
                <time>2019-06-14T13:13:19Z</time>
            </trkpt>
            <trkpt lat="55.023790" lon="-8.334020">
                <time>2019-06-14T13:13:20Z</time>
            </trkpt>
            <trkpt lat="55.023660" lon="-8.334060">
                <time>2019-06-14T13:13:21Z</time>
            </trkpt>
            <trkpt lat="55.023520" lon="-8.334090">
                <time>2019-06-14T13:13:22Z</time>
            </trkpt>
            <trkpt lat="55.023370" lon="-8.334120">
                <time>2019-06-14T13:13:23Z</time>
            </trkpt>
            <trkpt lat="55.023200" lon="-8.334150">
                <time>2019-06-14T13:13:24Z</time>
            </trkpt>
            <trkpt lat="55.023020" lon="-8.334190">
                <time>2019-06-14T13:13:25Z</time>
            </trkpt>
            <trkpt lat="55.022850" lon="-8.334220">
                <time>2019-06-14T13:13:26Z</time>
            </trkpt>
            <trkpt lat="55.022680" lon="-8.334290">
                <time>2019-06-14T13:13:27Z</time>
            </trkpt>
            <trkpt lat="55.022520" lon="-8.334390">
                <time>2019-06-14T13:13:28Z</time>
            </trkpt>
            <trkpt lat="55.022380" lon="-8.334510">
                <time>2019-06-14T13:13:29Z</time>
            </trkpt>
            <trkpt lat="55.022250" lon="-8.334620">
                <time>2019-06-14T13:13:30Z</time>
            </trkpt>
            <trkpt lat="55.022120" lon="-8.334740">
                <time>2019-06-14T13:13:31Z</time>
            </trkpt>
            <trkpt lat="55.021970" lon="-8.334860">
                <time>2019-06-14T13:13:32Z</time>
            </trkpt>
            <trkpt lat="55.021810" lon="-8.334990">
                <time>2019-06-14T13:13:33Z</time>
            </trkpt>
            <trkpt lat="55.021660" lon="-8.335130">
                <time>2019-06-14T13:13:34Z</time>
            </trkpt>
            <trkpt lat="55.021500" lon="-8.335270">
                <time>2019-06-14T13:13:35Z</time>
            </trkpt>
            <trkpt lat="55.021360" lon="-8.335420">
                <time>2019-06-14T13:13:36Z</time>
            </trkpt>
            <trkpt lat="55.021220" lon="-8.335570">
                <time>2019-06-14T13:13:37Z</time>
            </trkpt>
            <trkpt lat="55.021080" lon="-8.335710">
                <time>2019-06-14T13:13:38Z</time>
            </trkpt>
            <trkpt lat="55.020930" lon="-8.335850">
                <time>2019-06-14T13:13:39Z</time>
            </trkpt>
            <trkpt lat="55.020770" lon="-8.336000">
                <time>2019-06-14T13:13:40Z</time>
            </trkpt>
            <trkpt lat="55.020610" lon="-8.336150">
                <time>2019-06-14T13:13:41Z</time>
            </trkpt>
            <trkpt lat="55.020440" lon="-8.336300">
                <time>2019-06-14T13:13:42Z</time>
            </trkpt>
            <trkpt lat="55.020290" lon="-8.336440">
                <time>2019-06-14T13:13:43Z</time>
            </trkpt>
            <trkpt lat="55.020130" lon="-8.336570">
                <time>2019-06-14T13:13:44Z</time>
            </trkpt>
            <trkpt lat="55.020000" lon="-8.336690">
                <time>2019-06-14T13:13:45Z</time>
            </trkpt>
            <trkpt lat="55.019880" lon="-8.336800">
                <time>2019-06-14T13:13:46Z</time>
            </trkpt>
            <trkpt lat="55.019760" lon="-8.336870">
                <time>2019-06-14T13:13:47Z</time>
            </trkpt>
            <trkpt lat="55.019640" lon="-8.336890">
                <time>2019-06-14T13:13:48Z</time>
            </trkpt>
            <trkpt lat="55.019510" lon="-8.336840">
                <time>2019-06-14T13:13:49Z</time>
            </trkpt>
            <trkpt lat="55.019390" lon="-8.336760">
                <time>2019-06-14T13:13:50Z</time>
            </trkpt>
            <trkpt lat="55.019260" lon="-8.336670">
                <time>2019-06-14T13:13:51Z</time>
            </trkpt>
            <trkpt lat="55.019130" lon="-8.336580">
                <time>2019-06-14T13:13:52Z</time>
            </trkpt>
            <trkpt lat="55.018980" lon="-8.336490">
                <time>2019-06-14T13:13:53Z</time>
            </trkpt>
            <trkpt lat="55.018820" lon="-8.336410">
                <time>2019-06-14T13:13:54Z</time>
            </trkpt>
            <trkpt lat="55.018660" lon="-8.336310">
                <time>2019-06-14T13:13:55Z</time>
            </trkpt>
            <trkpt lat="55.018500" lon="-8.336220">
                <time>2019-06-14T13:13:56Z</time>
            </trkpt>
            <trkpt lat="55.018350" lon="-8.336140">
                <time>2019-06-14T13:13:57Z</time>
            </trkpt>
            <trkpt lat="55.018200" lon="-8.336050">
                <time>2019-06-14T13:13:58Z</time>
            </trkpt>
            <trkpt lat="55.018070" lon="-8.335910">
                <time>2019-06-14T13:13:59Z</time>
            </trkpt>
            <trkpt lat="55.017960" lon="-8.335750">
                <time>2019-06-14T13:14:00Z</time>
            </trkpt>
            <trkpt lat="55.017860" lon="-8.335590">
                <time>2019-06-14T13:14:01Z</time>
            </trkpt>
            <trkpt lat="55.017760" lon="-8.335420">
                <time>2019-06-14T13:14:02Z</time>
            </trkpt>
            <trkpt lat="55.017660" lon="-8.335240">
                <time>2019-06-14T13:14:03Z</time>
            </trkpt>
            <trkpt lat="55.017580" lon="-8.335050">
                <time>2019-06-14T13:14:04Z</time>
            </trkpt>
            <trkpt lat="55.017540" lon="-8.334840">
                <time>2019-06-14T13:14:05Z</time>
            </trkpt>
            <trkpt lat="55.017550" lon="-8.334620">
                <time>2019-06-14T13:14:06Z</time>
            </trkpt>
            <trkpt lat="55.017570" lon="-8.334410">
                <time>2019-06-14T13:14:07Z</time>
            </trkpt>
            <trkpt lat="55.017600" lon="-8.334190">
                <time>2019-06-14T13:14:08Z</time>
            </trkpt>
            <trkpt lat="55.017600" lon="-8.333940">
                <time>2019-06-14T13:14:09Z</time>
            </trkpt>
            <trkpt lat="55.017590" lon="-8.333650">
                <time>2019-06-14T13:14:10Z</time>
            </trkpt>
            <trkpt lat="55.017560" lon="-8.333330">
                <time>2019-06-14T13:14:11Z</time>
            </trkpt>
            <trkpt lat="55.017530" lon="-8.333000">
                <time>2019-06-14T13:14:12Z</time>
            </trkpt>
            <trkpt lat="55.017490" lon="-8.332660">
                <time>2019-06-14T13:14:13Z</time>
            </trkpt>
            <trkpt lat="55.017450" lon="-8.332340">
                <time>2019-06-14T13:14:14Z</time>
            </trkpt>
            <trkpt lat="55.017430" lon="-8.332080">
                <time>2019-06-14T13:14:15Z</time>
            </trkpt>
            <trkpt lat="55.017450" lon="-8.331890">
                <time>2019-06-14T13:14:16Z</time>
            </trkpt>
            <trkpt lat="55.017510" lon="-8.331740">
                <time>2019-06-14T13:14:17Z</time>
            </trkpt>
            <trkpt lat="55.017590" lon="-8.331640">
                <time>2019-06-14T13:14:18Z</time>
            </trkpt>
            <trkpt lat="55.017700" lon="-8.331570">
                <time>2019-06-14T13:14:19Z</time>
            </trkpt>
            <trkpt lat="55.017820" lon="-8.331520">
                <time>2019-06-14T13:14:20Z</time>
            </trkpt>
            <trkpt lat="55.017960" lon="-8.331480">
                <time>2019-06-14T13:14:21Z</time>
            </trkpt>
            <trkpt lat="55.018080" lon="-8.331430">
                <time>2019-06-14T13:14:22Z</time>
            </trkpt>
            <trkpt lat="55.018170" lon="-8.331350">
                <time>2019-06-14T13:14:23Z</time>
            </trkpt>
            <trkpt lat="55.018240" lon="-8.331230">
                <time>2019-06-14T13:14:24Z</time>
            </trkpt>
            <trkpt lat="55.018290" lon="-8.331070">
                <time>2019-06-14T13:14:25Z</time>
            </trkpt>
            <trkpt lat="55.018330" lon="-8.330860">
                <time>2019-06-14T13:14:26Z</time>
            </trkpt>
            <trkpt lat="55.018360" lon="-8.330600">
                <time>2019-06-14T13:14:27Z</time>
            </trkpt>
            <trkpt lat="55.018400" lon="-8.330340">
                <time>2019-06-14T13:14:28Z</time>
            </trkpt>
            <trkpt lat="55.018440" lon="-8.330100">
                <time>2019-06-14T13:14:29Z</time>
            </trkpt>
            <trkpt lat="55.018500" lon="-8.329890">
                <time>2019-06-14T13:14:30Z</time>
            </trkpt>
            <trkpt lat="55.018600" lon="-8.329730">
                <time>2019-06-14T13:14:31Z</time>
            </trkpt>
            <trkpt lat="55.018720" lon="-8.329630">
                <time>2019-06-14T13:14:32Z</time>
            </trkpt>
            <trkpt lat="55.018860" lon="-8.329570">
                <time>2019-06-14T13:14:33Z</time>
            </trkpt>
            <trkpt lat="55.019020" lon="-8.329520">
                <time>2019-06-14T13:14:34Z</time>
            </trkpt>
            <trkpt lat="55.019200" lon="-8.329470">
                <time>2019-06-14T13:14:35Z</time>
            </trkpt>
            <trkpt lat="55.019400" lon="-8.329410">
                <time>2019-06-14T13:14:36Z</time>
            </trkpt>
            <trkpt lat="55.019590" lon="-8.329330">
                <time>2019-06-14T13:14:37Z</time>
            </trkpt>
            <trkpt lat="55.019790" lon="-8.329240">
                <time>2019-06-14T13:14:38Z</time>
            </trkpt>
            <trkpt lat="55.019970" lon="-8.329190">
                <time>2019-06-14T13:14:39Z</time>
            </trkpt>
            <trkpt lat="55.020160" lon="-8.329160">
                <time>2019-06-14T13:14:40Z</time>
            </trkpt>
            <trkpt lat="55.020330" lon="-8.329150">
                <time>2019-06-14T13:14:41Z</time>
            </trkpt>
            <trkpt lat="55.020490" lon="-8.329140">
                <time>2019-06-14T13:14:42Z</time>
            </trkpt>
            <trkpt lat="55.020620" lon="-8.329070">
                <time>2019-06-14T13:14:43Z</time>
            </trkpt>
            <trkpt lat="55.020720" lon="-8.328950">
                <time>2019-06-14T13:14:44Z</time>
            </trkpt>
            <trkpt lat="55.020790" lon="-8.328780">
                <time>2019-06-14T13:14:45Z</time>
            </trkpt>
            <trkpt lat="55.020850" lon="-8.328590">
                <time>2019-06-14T13:14:46Z</time>
            </trkpt>
            <trkpt lat="55.020900" lon="-8.328370">
                <time>2019-06-14T13:14:47Z</time>
            </trkpt>
            <trkpt lat="55.020960" lon="-8.328140">
                <time>2019-06-14T13:14:48Z</time>
            </trkpt>
            <trkpt lat="55.021020" lon="-8.327900">
                <time>2019-06-14T13:14:49Z</time>
            </trkpt>
            <trkpt lat="55.021070" lon="-8.327640">
                <time>2019-06-14T13:14:50Z</time>
            </trkpt>
            <trkpt lat="55.021110" lon="-8.327380">
                <time>2019-06-14T13:14:51Z</time>
            </trkpt>
            <trkpt lat="55.021140" lon="-8.327140">
                <time>2019-06-14T13:14:52Z</time>
            </trkpt>
            <trkpt lat="55.021180" lon="-8.326920">
                <time>2019-06-14T13:14:53Z</time>
            </trkpt>
            <trkpt lat="55.021230" lon="-8.326720">
                <time>2019-06-14T13:14:54Z</time>
            </trkpt>
            <trkpt lat="55.021260" lon="-8.326520">
                <time>2019-06-14T13:14:55Z</time>
            </trkpt>
            <trkpt lat="55.021280" lon="-8.326300">
                <time>2019-06-14T13:14:56Z</time>
            </trkpt>
            <trkpt lat="55.021260" lon="-8.326070">
                <time>2019-06-14T13:14:57Z</time>
            </trkpt>
            <trkpt lat="55.021220" lon="-8.325820">
                <time>2019-06-14T13:14:58Z</time>
            </trkpt>
            <trkpt lat="55.021150" lon="-8.325540">
                <time>2019-06-14T13:14:59Z</time>
            </trkpt>
            <trkpt lat="55.021090" lon="-8.325250">
                <time>2019-06-14T13:15:00Z</time>
            </trkpt>
            <trkpt lat="55.021020" lon="-8.324950">
                <time>2019-06-14T13:15:01Z</time>
            </trkpt>
            <trkpt lat="55.020960" lon="-8.324660">
                <time>2019-06-14T13:15:02Z</time>
            </trkpt>
            <trkpt lat="55.020900" lon="-8.324380">
                <time>2019-06-14T13:15:03Z</time>
            </trkpt>
            <trkpt lat="55.020850" lon="-8.324110">
                <time>2019-06-14T13:15:04Z</time>
            </trkpt>
            <trkpt lat="55.020840" lon="-8.323860">
                <time>2019-06-14T13:15:05Z</time>
            </trkpt>
            <trkpt lat="55.020860" lon="-8.323620">
                <time>2019-06-14T13:15:06Z</time>
            </trkpt>
            <trkpt lat="55.020900" lon="-8.323380">
                <time>2019-06-14T13:15:07Z</time>
            </trkpt>
            <trkpt lat="55.020940" lon="-8.323130">
                <time>2019-06-14T13:15:08Z</time>
            </trkpt>
            <trkpt lat="55.020990" lon="-8.322880">
                <time>2019-06-14T13:15:09Z</time>
            </trkpt>
            <trkpt lat="55.021040" lon="-8.322640">
                <time>2019-06-14T13:15:10Z</time>
            </trkpt>
            <trkpt lat="55.021100" lon="-8.322420">
                <time>2019-06-14T13:15:11Z</time>
            </trkpt>
            <trkpt lat="55.021180" lon="-8.322220">
                <time>2019-06-14T13:15:12Z</time>
            </trkpt>
            <trkpt lat="55.021280" lon="-8.322030">
                <time>2019-06-14T13:15:13Z</time>
            </trkpt>
            <trkpt lat="55.021390" lon="-8.321870">
                <time>2019-06-14T13:15:14Z</time>
            </trkpt>
            <trkpt lat="55.021510" lon="-8.321710">
                <time>2019-06-14T13:15:15Z</time>
            </trkpt>
            <trkpt lat="55.021640" lon="-8.321530">
                <time>2019-06-14T13:15:16Z</time>
            </trkpt>
            <trkpt lat="55.021750" lon="-8.321360">
                <time>2019-06-14T13:15:17Z</time>
            </trkpt>
            <trkpt lat="55.021850" lon="-8.321200">
                <time>2019-06-14T13:15:18Z</time>
            </trkpt>
            <trkpt lat="55.021930" lon="-8.321030">
                <time>2019-06-14T13:15:19Z</time>
            </trkpt>
            <trkpt lat="55.021980" lon="-8.320830">
                <time>2019-06-14T13:15:20Z</time>
            </trkpt>
            <trkpt lat="55.022010" lon="-8.320600">
                <time>2019-06-14T13:15:21Z</time>
            </trkpt>
            <trkpt lat="55.022020" lon="-8.320350">
                <time>2019-06-14T13:15:22Z</time>
            </trkpt>
            <trkpt lat="55.022020" lon="-8.320080">
                <time>2019-06-14T13:15:23Z</time>
            </trkpt>
            <trkpt lat="55.022010" lon="-8.319790">
                <time>2019-06-14T13:15:24Z</time>
            </trkpt>
            <trkpt lat="55.022010" lon="-8.319520">
                <time>2019-06-14T13:15:25Z</time>
            </trkpt>
            <trkpt lat="55.022000" lon="-8.319260">
                <time>2019-06-14T13:15:26Z</time>
            </trkpt>
            <trkpt lat="55.022000" lon="-8.318990">
                <time>2019-06-14T13:15:27Z</time>
            </trkpt>
            <trkpt lat="55.021990" lon="-8.318720">
                <time>2019-06-14T13:15:28Z</time>
            </trkpt>
            <trkpt lat="55.021980" lon="-8.318450">
                <time>2019-06-14T13:15:29Z</time>
            </trkpt>
            <trkpt lat="55.021970" lon="-8.318170">
                <time>2019-06-14T13:15:30Z</time>
            </trkpt>
            <trkpt lat="55.021940" lon="-8.317900">
                <time>2019-06-14T13:15:31Z</time>
            </trkpt>
            <trkpt lat="55.021890" lon="-8.317640">
                <time>2019-06-14T13:15:32Z</time>
            </trkpt>
            <trkpt lat="55.021830" lon="-8.317380">
                <time>2019-06-14T13:15:33Z</time>
            </trkpt>
            <trkpt lat="55.021770" lon="-8.317110">
                <time>2019-06-14T13:15:34Z</time>
            </trkpt>
            <trkpt lat="55.021720" lon="-8.316840">
                <time>2019-06-14T13:15:35Z</time>
            </trkpt>
            <trkpt lat="55.021660" lon="-8.316570">
                <time>2019-06-14T13:15:36Z</time>
            </trkpt>
            <trkpt lat="55.021600" lon="-8.316310">
                <time>2019-06-14T13:15:37Z</time>
            </trkpt>
            <trkpt lat="55.021540" lon="-8.316060">
                <time>2019-06-14T13:15:38Z</time>
            </trkpt>
            <trkpt lat="55.021470" lon="-8.315810">
                <time>2019-06-14T13:15:39Z</time>
            </trkpt>
            <trkpt lat="55.021400" lon="-8.315560">
                <time>2019-06-14T13:15:40Z</time>
            </trkpt>
            <trkpt lat="55.021340" lon="-8.315330">
                <time>2019-06-14T13:15:41Z</time>
            </trkpt>
            <trkpt lat="55.021280" lon="-8.315130">
                <time>2019-06-14T13:15:42Z</time>
            </trkpt>
            <trkpt lat="55.021220" lon="-8.314960">
                <time>2019-06-14T13:15:43Z</time>
            </trkpt>
            <trkpt lat="55.021150" lon="-8.314780">
                <time>2019-06-14T13:15:44Z</time>
            </trkpt>
            <trkpt lat="55.021090" lon="-8.314580">
                <time>2019-06-14T13:15:45Z</time>
            </trkpt>
            <trkpt lat="55.021020" lon="-8.314380">
                <time>2019-06-14T13:15:46Z</time>
            </trkpt>
            <trkpt lat="55.020960" lon="-8.314170">
                <time>2019-06-14T13:15:47Z</time>
            </trkpt>
            <trkpt lat="55.020930" lon="-8.313960">
                <time>2019-06-14T13:15:48Z</time>
            </trkpt>
            <trkpt lat="55.020920" lon="-8.313790">
                <time>2019-06-14T13:15:49Z</time>
            </trkpt>
            <trkpt lat="55.020920" lon="-8.313690">
                <time>2019-06-14T13:15:50Z</time>
            </trkpt>
            <trkpt lat="55.020920" lon="-8.313650">
                <time>2019-06-14T13:15:51Z</time>
            </trkpt>
            <trkpt lat="55.020920" lon="-8.313620">
                <time>2019-06-14T13:15:52Z</time>
            </trkpt>
            <trkpt lat="55.020920" lon="-8.313590">
                <time>2019-06-14T13:15:53Z</time>
            </trkpt>
            <trkpt lat="55.020920" lon="-8.313570">
                <time>2019-06-14T13:15:54Z</time>
            </trkpt>
            <trkpt lat="55.020920" lon="-8.313540">
                <time>2019-06-14T13:15:55Z</time>
            </trkpt>
            <trkpt lat="55.020910" lon="-8.313490">
                <time>2019-06-14T13:15:56Z</time>
            </trkpt>
            <trkpt lat="55.020900" lon="-8.313400">
                <time>2019-06-14T13:15:57Z</time>
            </trkpt>
            <trkpt lat="55.020900" lon="-8.313270">
                <time>2019-06-14T13:15:58Z</time>
            </trkpt>
            <trkpt lat="55.020890" lon="-8.313120">
                <time>2019-06-14T13:15:59Z</time>
            </trkpt>
            <trkpt lat="55.020890" lon="-8.312960">
                <time>2019-06-14T13:16:00Z</time>
            </trkpt>
            <trkpt lat="55.020890" lon="-8.312790">
                <time>2019-06-14T13:16:01Z</time>
            </trkpt>
            <trkpt lat="55.020890" lon="-8.312610">
                <time>2019-06-14T13:16:02Z</time>
            </trkpt>
            <trkpt lat="55.020880" lon="-8.312400">
                <time>2019-06-14T13:16:03Z</time>
            </trkpt>
            <trkpt lat="55.020870" lon="-8.312160">
                <time>2019-06-14T13:16:04Z</time>
            </trkpt>
            <trkpt lat="55.020860" lon="-8.311910">
                <time>2019-06-14T13:16:05Z</time>
            </trkpt>
            <trkpt lat="55.020840" lon="-8.311640">
                <time>2019-06-14T13:16:06Z</time>
            </trkpt>
            <trkpt lat="55.020830" lon="-8.311380">
                <time>2019-06-14T13:16:07Z</time>
            </trkpt>
            <trkpt lat="55.020820" lon="-8.311140">
                <time>2019-06-14T13:16:08Z</time>
            </trkpt>
            <trkpt lat="55.020810" lon="-8.310900">
                <time>2019-06-14T13:16:09Z</time>
            </trkpt>
            <trkpt lat="55.020800" lon="-8.310660">
                <time>2019-06-14T13:16:10Z</time>
            </trkpt>
            <trkpt lat="55.020790" lon="-8.310420">
                <time>2019-06-14T13:16:11Z</time>
            </trkpt>
            <trkpt lat="55.020780" lon="-8.310190">
                <time>2019-06-14T13:16:12Z</time>
            </trkpt>
            <trkpt lat="55.020760" lon="-8.309950">
                <time>2019-06-14T13:16:13Z</time>
            </trkpt>
            <trkpt lat="55.020750" lon="-8.309710">
                <time>2019-06-14T13:16:14Z</time>
            </trkpt>
            <trkpt lat="55.020740" lon="-8.309460">
                <time>2019-06-14T13:16:15Z</time>
            </trkpt>
            <trkpt lat="55.020730" lon="-8.309210">
                <time>2019-06-14T13:16:16Z</time>
            </trkpt>
            <trkpt lat="55.020720" lon="-8.308970">
                <time>2019-06-14T13:16:17Z</time>
            </trkpt>
            <trkpt lat="55.020710" lon="-8.308760">
                <time>2019-06-14T13:16:18Z</time>
            </trkpt>
            <trkpt lat="55.020700" lon="-8.308560">
                <time>2019-06-14T13:16:19Z</time>
            </trkpt>
            <trkpt lat="55.020690" lon="-8.308370">
                <time>2019-06-14T13:16:20Z</time>
            </trkpt>
            <trkpt lat="55.020690" lon="-8.308190">
                <time>2019-06-14T13:16:21Z</time>
            </trkpt>
            <trkpt lat="55.020680" lon="-8.307990">
                <time>2019-06-14T13:16:22Z</time>
            </trkpt>
            <trkpt lat="55.020680" lon="-8.307790">
                <time>2019-06-14T13:16:23Z</time>
            </trkpt>
            <trkpt lat="55.020680" lon="-8.307560">
                <time>2019-06-14T13:16:24Z</time>
            </trkpt>
            <trkpt lat="55.020700" lon="-8.307310">
                <time>2019-06-14T13:16:25Z</time>
            </trkpt>
            <trkpt lat="55.020730" lon="-8.307050">
                <time>2019-06-14T13:16:26Z</time>
            </trkpt>
            <trkpt lat="55.020780" lon="-8.306770">
                <time>2019-06-14T13:16:27Z</time>
            </trkpt>
            <trkpt lat="55.020820" lon="-8.306520">
                <time>2019-06-14T13:16:28Z</time>
            </trkpt>
            <trkpt lat="55.020860" lon="-8.306280">
                <time>2019-06-14T13:16:29Z</time>
            </trkpt>
            <trkpt lat="55.020910" lon="-8.306030">
                <time>2019-06-14T13:16:30Z</time>
            </trkpt>
            <trkpt lat="55.020950" lon="-8.305780">
                <time>2019-06-14T13:16:31Z</time>
            </trkpt>
            <trkpt lat="55.021000" lon="-8.305530">
                <time>2019-06-14T13:16:32Z</time>
            </trkpt>
            <trkpt lat="55.021070" lon="-8.305320">
                <time>2019-06-14T13:16:33Z</time>
            </trkpt>
            <trkpt lat="55.021150" lon="-8.305140">
                <time>2019-06-14T13:16:34Z</time>
            </trkpt>
            <trkpt lat="55.021260" lon="-8.304970">
                <time>2019-06-14T13:16:35Z</time>
            </trkpt>
            <trkpt lat="55.021370" lon="-8.304800">
                <time>2019-06-14T13:16:36Z</time>
            </trkpt>
            <trkpt lat="55.021490" lon="-8.304620">
                <time>2019-06-14T13:16:37Z</time>
            </trkpt>
            <trkpt lat="55.021610" lon="-8.304430">
                <time>2019-06-14T13:16:38Z</time>
            </trkpt>
            <trkpt lat="55.021720" lon="-8.304260">
                <time>2019-06-14T13:16:39Z</time>
            </trkpt>
            <trkpt lat="55.021810" lon="-8.304070">
                <time>2019-06-14T13:16:40Z</time>
            </trkpt>
            <trkpt lat="55.021900" lon="-8.303880">
                <time>2019-06-14T13:16:41Z</time>
            </trkpt>
            <trkpt lat="55.021960" lon="-8.303680">
                <time>2019-06-14T13:16:42Z</time>
            </trkpt>
            <trkpt lat="55.022010" lon="-8.303450">
                <time>2019-06-14T13:16:43Z</time>
            </trkpt>
            <trkpt lat="55.022050" lon="-8.303210">
                <time>2019-06-14T13:16:44Z</time>
            </trkpt>
            <trkpt lat="55.022090" lon="-8.302970">
                <time>2019-06-14T13:16:45Z</time>
            </trkpt>
            <trkpt lat="55.022120" lon="-8.302730">
                <time>2019-06-14T13:16:46Z</time>
            </trkpt>
            <trkpt lat="55.022160" lon="-8.302490">
                <time>2019-06-14T13:16:47Z</time>
            </trkpt>
            <trkpt lat="55.022180" lon="-8.302220">
                <time>2019-06-14T13:16:48Z</time>
            </trkpt>
            <trkpt lat="55.022210" lon="-8.301950">
                <time>2019-06-14T13:16:49Z</time>
            </trkpt>
            <trkpt lat="55.022230" lon="-8.301650">
                <time>2019-06-14T13:16:50Z</time>
            </trkpt>
            <trkpt lat="55.022260" lon="-8.301340">
                <time>2019-06-14T13:16:51Z</time>
            </trkpt>
            <trkpt lat="55.022300" lon="-8.301050">
                <time>2019-06-14T13:16:52Z</time>
            </trkpt>
            <trkpt lat="55.022330" lon="-8.300780">
                <time>2019-06-14T13:16:53Z</time>
            </trkpt>
            <trkpt lat="55.022360" lon="-8.300530">
                <time>2019-06-14T13:16:54Z</time>
            </trkpt>
            <trkpt lat="55.022400" lon="-8.300290">
                <time>2019-06-14T13:16:55Z</time>
            </trkpt>
            <trkpt lat="55.022440" lon="-8.300020">
                <time>2019-06-14T13:16:56Z</time>
            </trkpt>
            <trkpt lat="55.022490" lon="-8.299750">
                <time>2019-06-14T13:16:57Z</time>
            </trkpt>
            <trkpt lat="55.022530" lon="-8.299460">
                <time>2019-06-14T13:16:58Z</time>
            </trkpt>
            <trkpt lat="55.022570" lon="-8.299170">
                <time>2019-06-14T13:16:59Z</time>
            </trkpt>
            <trkpt lat="55.022610" lon="-8.298850">
                <time>2019-06-14T13:17:00Z</time>
            </trkpt>
            <trkpt lat="55.022650" lon="-8.298530">
                <time>2019-06-14T13:17:01Z</time>
            </trkpt>
            <trkpt lat="55.022680" lon="-8.298210">
                <time>2019-06-14T13:17:02Z</time>
            </trkpt>
            <trkpt lat="55.022710" lon="-8.297910">
                <time>2019-06-14T13:17:03Z</time>
            </trkpt>
            <trkpt lat="55.022730" lon="-8.297610">
                <time>2019-06-14T13:17:04Z</time>
            </trkpt>
            <trkpt lat="55.022750" lon="-8.297320">
                <time>2019-06-14T13:17:05Z</time>
            </trkpt>
            <trkpt lat="55.022770" lon="-8.297020">
                <time>2019-06-14T13:17:06Z</time>
            </trkpt>
            <trkpt lat="55.022780" lon="-8.296720">
                <time>2019-06-14T13:17:07Z</time>
            </trkpt>
            <trkpt lat="55.022800" lon="-8.296400">
                <time>2019-06-14T13:17:08Z</time>
            </trkpt>
            <trkpt lat="55.022830" lon="-8.296080">
                <time>2019-06-14T13:17:09Z</time>
            </trkpt>
            <trkpt lat="55.022880" lon="-8.295750">
                <time>2019-06-14T13:17:10Z</time>
            </trkpt>
            <trkpt lat="55.022920" lon="-8.295460">
                <time>2019-06-14T13:17:11Z</time>
            </trkpt>
            <trkpt lat="55.022970" lon="-8.295170">
                <time>2019-06-14T13:17:12Z</time>
            </trkpt>
            <trkpt lat="55.023030" lon="-8.294870">
                <time>2019-06-14T13:17:13Z</time>
            </trkpt>
            <trkpt lat="55.023100" lon="-8.294590">
                <time>2019-06-14T13:17:14Z</time>
            </trkpt>
            <trkpt lat="55.023190" lon="-8.294320">
                <time>2019-06-14T13:17:15Z</time>
            </trkpt>
            <trkpt lat="55.023280" lon="-8.294040">
                <time>2019-06-14T13:17:16Z</time>
            </trkpt>
            <trkpt lat="55.023360" lon="-8.293750">
                <time>2019-06-14T13:17:17Z</time>
            </trkpt>
            <trkpt lat="55.023420" lon="-8.293460">
                <time>2019-06-14T13:17:18Z</time>
            </trkpt>
            <trkpt lat="55.023480" lon="-8.293170">
                <time>2019-06-14T13:17:19Z</time>
            </trkpt>
            <trkpt lat="55.023540" lon="-8.292900">
                <time>2019-06-14T13:17:20Z</time>
            </trkpt>
            <trkpt lat="55.023600" lon="-8.292650">
                <time>2019-06-14T13:17:21Z</time>
            </trkpt>
            <trkpt lat="55.023670" lon="-8.292390">
                <time>2019-06-14T13:17:22Z</time>
            </trkpt>
            <trkpt lat="55.023720" lon="-8.292130">
                <time>2019-06-14T13:17:23Z</time>
            </trkpt>
            <trkpt lat="55.023750" lon="-8.291860">
                <time>2019-06-14T13:17:24Z</time>
            </trkpt>
            <trkpt lat="55.023770" lon="-8.291580">
                <time>2019-06-14T13:17:25Z</time>
            </trkpt>
            <trkpt lat="55.023770" lon="-8.291310">
                <time>2019-06-14T13:17:26Z</time>
            </trkpt>
            <trkpt lat="55.023790" lon="-8.291050">
                <time>2019-06-14T13:17:27Z</time>
            </trkpt>
            <trkpt lat="55.023830" lon="-8.290790">
                <time>2019-06-14T13:17:28Z</time>
            </trkpt>
            <trkpt lat="55.023880" lon="-8.290560">
                <time>2019-06-14T13:17:29Z</time>
            </trkpt>
            <trkpt lat="55.023940" lon="-8.290350">
                <time>2019-06-14T13:17:30Z</time>
            </trkpt>
            <trkpt lat="55.024000" lon="-8.290160">
                <time>2019-06-14T13:17:31Z</time>
            </trkpt>
            <trkpt lat="55.024070" lon="-8.289980">
                <time>2019-06-14T13:17:32Z</time>
            </trkpt>
            <trkpt lat="55.024150" lon="-8.289780">
                <time>2019-06-14T13:17:33Z</time>
            </trkpt>
            <trkpt lat="55.024200" lon="-8.289580">
                <time>2019-06-14T13:17:34Z</time>
            </trkpt>
            <trkpt lat="55.024250" lon="-8.289380">
                <time>2019-06-14T13:17:35Z</time>
            </trkpt>
            <trkpt lat="55.024290" lon="-8.289180">
                <time>2019-06-14T13:17:36Z</time>
            </trkpt>
            <trkpt lat="55.024320" lon="-8.288980">
                <time>2019-06-14T13:17:37Z</time>
            </trkpt>
            <trkpt lat="55.024350" lon="-8.288770">
                <time>2019-06-14T13:17:38Z</time>
            </trkpt>
            <trkpt lat="55.024370" lon="-8.288560">
                <time>2019-06-14T13:17:39Z</time>
            </trkpt>
            <trkpt lat="55.024390" lon="-8.288350">
                <time>2019-06-14T13:17:40Z</time>
            </trkpt>
            <trkpt lat="55.024410" lon="-8.288120">
                <time>2019-06-14T13:17:41Z</time>
            </trkpt>
            <trkpt lat="55.024420" lon="-8.287910">
                <time>2019-06-14T13:17:42Z</time>
            </trkpt>
            <trkpt lat="55.024430" lon="-8.287690">
                <time>2019-06-14T13:17:43Z</time>
            </trkpt>
            <trkpt lat="55.024430" lon="-8.287460">
                <time>2019-06-14T13:17:44Z</time>
            </trkpt>
            <trkpt lat="55.024430" lon="-8.287220">
                <time>2019-06-14T13:17:45Z</time>
            </trkpt>
            <trkpt lat="55.024430" lon="-8.286980">
                <time>2019-06-14T13:17:46Z</time>
            </trkpt>
            <trkpt lat="55.024420" lon="-8.286760">
                <time>2019-06-14T13:17:47Z</time>
            </trkpt>
            <trkpt lat="55.024420" lon="-8.286520">
                <time>2019-06-14T13:17:48Z</time>
            </trkpt>
            <trkpt lat="55.024420" lon="-8.286280">
                <time>2019-06-14T13:17:49Z</time>
            </trkpt>
            <trkpt lat="55.024450" lon="-8.286050">
                <time>2019-06-14T13:17:50Z</time>
            </trkpt>
            <trkpt lat="55.024490" lon="-8.285830">
                <time>2019-06-14T13:17:51Z</time>
            </trkpt>
            <trkpt lat="55.024540" lon="-8.285620">
                <time>2019-06-14T13:17:52Z</time>
            </trkpt>
            <trkpt lat="55.024600" lon="-8.285420">
                <time>2019-06-14T13:17:53Z</time>
            </trkpt>
            <trkpt lat="55.024670" lon="-8.285210">
                <time>2019-06-14T13:17:54Z</time>
            </trkpt>
            <trkpt lat="55.024740" lon="-8.285000">
                <time>2019-06-14T13:17:55Z</time>
            </trkpt>
            <trkpt lat="55.024800" lon="-8.284780">
                <time>2019-06-14T13:17:56Z</time>
            </trkpt>
            <trkpt lat="55.024850" lon="-8.284550">
                <time>2019-06-14T13:17:57Z</time>
            </trkpt>
            <trkpt lat="55.024900" lon="-8.284320">
                <time>2019-06-14T13:17:58Z</time>
            </trkpt>
            <trkpt lat="55.024950" lon="-8.284100">
                <time>2019-06-14T13:17:59Z</time>
            </trkpt>
            <trkpt lat="55.025010" lon="-8.283870">
                <time>2019-06-14T13:18:00Z</time>
            </trkpt>
            <trkpt lat="55.025090" lon="-8.283660">
                <time>2019-06-14T13:18:01Z</time>
            </trkpt>
            <trkpt lat="55.025170" lon="-8.283460">
                <time>2019-06-14T13:18:02Z</time>
            </trkpt>
            <trkpt lat="55.025270" lon="-8.283260">
                <time>2019-06-14T13:18:03Z</time>
            </trkpt>
            <trkpt lat="55.025350" lon="-8.283050">
                <time>2019-06-14T13:18:04Z</time>
            </trkpt>
            <trkpt lat="55.025400" lon="-8.282820">
                <time>2019-06-14T13:18:05Z</time>
            </trkpt>
            <trkpt lat="55.025420" lon="-8.282580">
                <time>2019-06-14T13:18:06Z</time>
            </trkpt>
            <trkpt lat="55.025430" lon="-8.282340">
                <time>2019-06-14T13:18:07Z</time>
            </trkpt>
            <trkpt lat="55.025450" lon="-8.282090">
                <time>2019-06-14T13:18:08Z</time>
            </trkpt>
            <trkpt lat="55.025490" lon="-8.281830">
                <time>2019-06-14T13:18:09Z</time>
            </trkpt>
            <trkpt lat="55.025550" lon="-8.281560">
                <time>2019-06-14T13:18:10Z</time>
            </trkpt>
            <trkpt lat="55.025630" lon="-8.281310">
                <time>2019-06-14T13:18:11Z</time>
            </trkpt>
            <trkpt lat="55.025720" lon="-8.281110">
                <time>2019-06-14T13:18:12Z</time>
            </trkpt>
            <trkpt lat="55.025810" lon="-8.280900">
                <time>2019-06-14T13:18:13Z</time>
            </trkpt>
            <trkpt lat="55.025890" lon="-8.280680">
                <time>2019-06-14T13:18:14Z</time>
            </trkpt>
            <trkpt lat="55.025950" lon="-8.280440">
                <time>2019-06-14T13:18:15Z</time>
            </trkpt>
            <trkpt lat="55.026000" lon="-8.280180">
                <time>2019-06-14T13:18:16Z</time>
            </trkpt>
            <trkpt lat="55.026040" lon="-8.279910">
                <time>2019-06-14T13:18:17Z</time>
            </trkpt>
            <trkpt lat="55.026070" lon="-8.279640">
                <time>2019-06-14T13:18:18Z</time>
            </trkpt>
            <trkpt lat="55.026120" lon="-8.279370">
                <time>2019-06-14T13:18:19Z</time>
            </trkpt>
            <trkpt lat="55.026170" lon="-8.279100">
                <time>2019-06-14T13:18:20Z</time>
            </trkpt>
            <trkpt lat="55.026210" lon="-8.278830">
                <time>2019-06-14T13:18:21Z</time>
            </trkpt>
            <trkpt lat="55.026250" lon="-8.278580">
                <time>2019-06-14T13:18:22Z</time>
            </trkpt>
            <trkpt lat="55.026280" lon="-8.278350">
                <time>2019-06-14T13:18:23Z</time>
            </trkpt>
            <trkpt lat="55.026310" lon="-8.278120">
                <time>2019-06-14T13:18:24Z</time>
            </trkpt>
            <trkpt lat="55.026350" lon="-8.277900">
                <time>2019-06-14T13:18:25Z</time>
            </trkpt>
            <trkpt lat="55.026390" lon="-8.277670">
                <time>2019-06-14T13:18:26Z</time>
            </trkpt>
            <trkpt lat="55.026430" lon="-8.277440">
                <time>2019-06-14T13:18:27Z</time>
            </trkpt>
            <trkpt lat="55.026460" lon="-8.277200">
                <time>2019-06-14T13:18:28Z</time>
            </trkpt>
            <trkpt lat="55.026500" lon="-8.276950">
                <time>2019-06-14T13:18:29Z</time>
            </trkpt>
            <trkpt lat="55.026530" lon="-8.276710">
                <time>2019-06-14T13:18:30Z</time>
            </trkpt>
            <trkpt lat="55.026550" lon="-8.276460">
                <time>2019-06-14T13:18:31Z</time>
            </trkpt>
            <trkpt lat="55.026560" lon="-8.276210">
                <time>2019-06-14T13:18:32Z</time>
            </trkpt>
            <trkpt lat="55.026570" lon="-8.275970">
                <time>2019-06-14T13:18:33Z</time>
            </trkpt>
            <trkpt lat="55.026590" lon="-8.275720">
                <time>2019-06-14T13:18:34Z</time>
            </trkpt>
            <trkpt lat="55.026600" lon="-8.275470">
                <time>2019-06-14T13:18:35Z</time>
            </trkpt>
            <trkpt lat="55.026620" lon="-8.275250">
                <time>2019-06-14T13:18:36Z</time>
            </trkpt>
            <trkpt lat="55.026630" lon="-8.275040">
                <time>2019-06-14T13:18:37Z</time>
            </trkpt>
            <trkpt lat="55.026650" lon="-8.274830">
                <time>2019-06-14T13:18:38Z</time>
            </trkpt>
            <trkpt lat="55.026670" lon="-8.274640">
                <time>2019-06-14T13:18:39Z</time>
            </trkpt>
            <trkpt lat="55.026690" lon="-8.274480">
                <time>2019-06-14T13:18:40Z</time>
            </trkpt>
            <trkpt lat="55.026710" lon="-8.274330">
                <time>2019-06-14T13:18:41Z</time>
            </trkpt>
            <trkpt lat="55.026740" lon="-8.274150">
                <time>2019-06-14T13:18:42Z</time>
            </trkpt>
            <trkpt lat="55.026760" lon="-8.273950">
                <time>2019-06-14T13:18:43Z</time>
            </trkpt>
            <trkpt lat="55.026780" lon="-8.273730">
                <time>2019-06-14T13:18:44Z</time>
            </trkpt>
            <trkpt lat="55.026800" lon="-8.273500">
                <time>2019-06-14T13:18:45Z</time>
            </trkpt>
            <trkpt lat="55.026790" lon="-8.273280">
                <time>2019-06-14T13:18:46Z</time>
            </trkpt>
            <trkpt lat="55.026780" lon="-8.273070">
                <time>2019-06-14T13:18:47Z</time>
            </trkpt>
            <trkpt lat="55.026750" lon="-8.272880">
                <time>2019-06-14T13:18:48Z</time>
            </trkpt>
            <trkpt lat="55.026710" lon="-8.272700">
                <time>2019-06-14T13:18:49Z</time>
            </trkpt>
            <trkpt lat="55.026660" lon="-8.272520">
                <time>2019-06-14T13:18:50Z</time>
            </trkpt>
            <trkpt lat="55.026600" lon="-8.272320">
                <time>2019-06-14T13:18:51Z</time>
            </trkpt>
            <trkpt lat="55.026520" lon="-8.272120">
                <time>2019-06-14T13:18:52Z</time>
            </trkpt>
            <trkpt lat="55.026430" lon="-8.271940">
                <time>2019-06-14T13:18:53Z</time>
            </trkpt>
            <trkpt lat="55.026320" lon="-8.271810">
                <time>2019-06-14T13:18:54Z</time>
            </trkpt>
            <trkpt lat="55.026210" lon="-8.271690">
                <time>2019-06-14T13:18:55Z</time>
            </trkpt>
            <trkpt lat="55.026090" lon="-8.271580">
                <time>2019-06-14T13:18:56Z</time>
            </trkpt>
            <trkpt lat="55.025980" lon="-8.271470">
                <time>2019-06-14T13:18:57Z</time>
            </trkpt>
            <trkpt lat="55.025870" lon="-8.271360">
                <time>2019-06-14T13:18:58Z</time>
            </trkpt>
            <trkpt lat="55.025760" lon="-8.271260">
                <time>2019-06-14T13:18:59Z</time>
            </trkpt>
            <trkpt lat="55.025650" lon="-8.271160">
                <time>2019-06-14T13:19:00Z</time>
            </trkpt>
            <trkpt lat="55.025520" lon="-8.271050">
                <time>2019-06-14T13:19:01Z</time>
            </trkpt>
            <trkpt lat="55.025390" lon="-8.270950">
                <time>2019-06-14T13:19:02Z</time>
            </trkpt>
            <trkpt lat="55.025260" lon="-8.270850">
                <time>2019-06-14T13:19:03Z</time>
            </trkpt>
            <trkpt lat="55.025130" lon="-8.270750">
                <time>2019-06-14T13:19:04Z</time>
            </trkpt>
            <trkpt lat="55.025020" lon="-8.270660">
                <time>2019-06-14T13:19:05Z</time>
            </trkpt>
            <trkpt lat="55.024920" lon="-8.270540">
                <time>2019-06-14T13:19:06Z</time>
            </trkpt>
            <trkpt lat="55.024840" lon="-8.270390">
                <time>2019-06-14T13:19:07Z</time>
            </trkpt>
            <trkpt lat="55.024790" lon="-8.270200">
                <time>2019-06-14T13:19:08Z</time>
            </trkpt>
            <trkpt lat="55.024780" lon="-8.270010">
                <time>2019-06-14T13:19:09Z</time>
            </trkpt>
            <trkpt lat="55.024770" lon="-8.269820">
                <time>2019-06-14T13:19:10Z</time>
            </trkpt>
            <trkpt lat="55.024750" lon="-8.269620">
                <time>2019-06-14T13:19:11Z</time>
            </trkpt>
            <trkpt lat="55.024730" lon="-8.269410">
                <time>2019-06-14T13:19:12Z</time>
            </trkpt>
            <trkpt lat="55.024700" lon="-8.269200">
                <time>2019-06-14T13:19:13Z</time>
            </trkpt>
            <trkpt lat="55.024650" lon="-8.269020">
                <time>2019-06-14T13:19:14Z</time>
            </trkpt>
            <trkpt lat="55.024580" lon="-8.268870">
                <time>2019-06-14T13:19:15Z</time>
            </trkpt>
            <trkpt lat="55.024500" lon="-8.268720">
                <time>2019-06-14T13:19:16Z</time>
            </trkpt>
            <trkpt lat="55.024390" lon="-8.268600">
                <time>2019-06-14T13:19:17Z</time>
            </trkpt>
            <trkpt lat="55.024260" lon="-8.268530">
                <time>2019-06-14T13:19:18Z</time>
            </trkpt>
            <trkpt lat="55.024130" lon="-8.268500">
                <time>2019-06-14T13:19:19Z</time>
            </trkpt>
            <trkpt lat="55.024000" lon="-8.268480">
                <time>2019-06-14T13:19:20Z</time>
            </trkpt>
            <trkpt lat="55.023870" lon="-8.268470">
                <time>2019-06-14T13:19:21Z</time>
            </trkpt>
            <trkpt lat="55.023740" lon="-8.268440">
                <time>2019-06-14T13:19:22Z</time>
            </trkpt>
            <trkpt lat="55.023610" lon="-8.268370">
                <time>2019-06-14T13:19:23Z</time>
            </trkpt>
            <trkpt lat="55.023500" lon="-8.268240">
                <time>2019-06-14T13:19:24Z</time>
            </trkpt>
            <trkpt lat="55.023420" lon="-8.268060">
                <time>2019-06-14T13:19:25Z</time>
            </trkpt>
            <trkpt lat="55.023360" lon="-8.267850">
                <time>2019-06-14T13:19:26Z</time>
            </trkpt>
            <trkpt lat="55.023320" lon="-8.267610">
                <time>2019-06-14T13:19:27Z</time>
            </trkpt>
            <trkpt lat="55.023280" lon="-8.267350">
                <time>2019-06-14T13:19:28Z</time>
            </trkpt>
            <trkpt lat="55.023260" lon="-8.267080">
                <time>2019-06-14T13:19:29Z</time>
            </trkpt>
            <trkpt lat="55.023250" lon="-8.266820">
                <time>2019-06-14T13:19:30Z</time>
            </trkpt>
            <trkpt lat="55.023260" lon="-8.266590">
                <time>2019-06-14T13:19:31Z</time>
            </trkpt>
            <trkpt lat="55.023280" lon="-8.266360">
                <time>2019-06-14T13:19:32Z</time>
            </trkpt>
            <trkpt lat="55.023290" lon="-8.266130">
                <time>2019-06-14T13:19:33Z</time>
            </trkpt>
            <trkpt lat="55.023310" lon="-8.265900">
                <time>2019-06-14T13:19:34Z</time>
            </trkpt>
            <trkpt lat="55.023310" lon="-8.265690">
                <time>2019-06-14T13:19:35Z</time>
            </trkpt>
            <trkpt lat="55.023320" lon="-8.265490">
                <time>2019-06-14T13:19:36Z</time>
            </trkpt>
            <trkpt lat="55.023310" lon="-8.265300">
                <time>2019-06-14T13:19:37Z</time>
            </trkpt>
            <trkpt lat="55.023310" lon="-8.265120">
                <time>2019-06-14T13:19:38Z</time>
            </trkpt>
            <trkpt lat="55.023310" lon="-8.264940">
                <time>2019-06-14T13:19:39Z</time>
            </trkpt>
            <trkpt lat="55.023330" lon="-8.264760">
                <time>2019-06-14T13:19:40Z</time>
            </trkpt>
            <trkpt lat="55.023340" lon="-8.264610">
                <time>2019-06-14T13:19:41Z</time>
            </trkpt>
            <trkpt lat="55.023360" lon="-8.264460">
                <time>2019-06-14T13:19:42Z</time>
            </trkpt>
            <trkpt lat="55.023380" lon="-8.264320">
                <time>2019-06-14T13:19:43Z</time>
            </trkpt>
            <trkpt lat="55.023410" lon="-8.264160">
                <time>2019-06-14T13:19:44Z</time>
            </trkpt>
            <trkpt lat="55.023430" lon="-8.264000">
                <time>2019-06-14T13:19:45Z</time>
            </trkpt>
            <trkpt lat="55.023460" lon="-8.263850">
                <time>2019-06-14T13:19:46Z</time>
            </trkpt>
            <trkpt lat="55.023480" lon="-8.263720">
                <time>2019-06-14T13:19:47Z</time>
            </trkpt>
            <trkpt lat="55.023490" lon="-8.263630">
                <time>2019-06-14T13:19:48Z</time>
            </trkpt>
            <trkpt lat="55.023500" lon="-8.263540">
                <time>2019-06-14T13:19:49Z</time>
            </trkpt>
            <trkpt lat="55.023510" lon="-8.263460">
                <time>2019-06-14T13:19:50Z</time>
            </trkpt>
            <trkpt lat="55.023530" lon="-8.263360">
                <time>2019-06-14T13:19:51Z</time>
            </trkpt>
            <trkpt lat="55.023550" lon="-8.263260">
                <time>2019-06-14T13:19:52Z</time>
            </trkpt>
            <trkpt lat="55.023600" lon="-8.263130">
                <time>2019-06-14T13:19:53Z</time>
            </trkpt>
            <trkpt lat="55.023670" lon="-8.263010">
                <time>2019-06-14T13:19:54Z</time>
            </trkpt>
            <trkpt lat="55.023760" lon="-8.262920">
                <time>2019-06-14T13:19:55Z</time>
            </trkpt>
            <trkpt lat="55.023840" lon="-8.262850">
                <time>2019-06-14T13:19:56Z</time>
            </trkpt>
            <trkpt lat="55.023920" lon="-8.262780">
                <time>2019-06-14T13:19:57Z</time>
            </trkpt>
            <trkpt lat="55.024000" lon="-8.262730">
                <time>2019-06-14T13:19:58Z</time>
            </trkpt>
            <trkpt lat="55.024080" lon="-8.262680">
                <time>2019-06-14T13:19:59Z</time>
            </trkpt>
            <trkpt lat="55.024160" lon="-8.262620">
                <time>2019-06-14T13:20:00Z</time>
            </trkpt>
            <trkpt lat="55.024230" lon="-8.262530">
                <time>2019-06-14T13:20:01Z</time>
            </trkpt>
            <trkpt lat="55.024280" lon="-8.262430">
                <time>2019-06-14T13:20:02Z</time>
            </trkpt>
            <trkpt lat="55.024330" lon="-8.262300">
                <time>2019-06-14T13:20:03Z</time>
            </trkpt>
            <trkpt lat="55.024360" lon="-8.262150">
                <time>2019-06-14T13:20:04Z</time>
            </trkpt>
            <trkpt lat="55.024390" lon="-8.261980">
                <time>2019-06-14T13:20:05Z</time>
            </trkpt>
            <trkpt lat="55.024430" lon="-8.261820">
                <time>2019-06-14T13:20:06Z</time>
            </trkpt>
            <trkpt lat="55.024460" lon="-8.261660">
                <time>2019-06-14T13:20:07Z</time>
            </trkpt>
            <trkpt lat="55.024500" lon="-8.261500">
                <time>2019-06-14T13:20:08Z</time>
            </trkpt>
            <trkpt lat="55.024550" lon="-8.261320">
                <time>2019-06-14T13:20:09Z</time>
            </trkpt>
            <trkpt lat="55.024600" lon="-8.261150">
                <time>2019-06-14T13:20:10Z</time>
            </trkpt>
            <trkpt lat="55.024650" lon="-8.261000">
                <time>2019-06-14T13:20:11Z</time>
            </trkpt>
            <trkpt lat="55.024700" lon="-8.260860">
                <time>2019-06-14T13:20:12Z</time>
            </trkpt>
            <trkpt lat="55.024760" lon="-8.260740">
                <time>2019-06-14T13:20:13Z</time>
            </trkpt>
            <trkpt lat="55.024840" lon="-8.260650">
                <time>2019-06-14T13:20:14Z</time>
            </trkpt>
            <trkpt lat="55.024930" lon="-8.260590">
                <time>2019-06-14T13:20:15Z</time>
            </trkpt>
            <trkpt lat="55.025030" lon="-8.260590">
                <time>2019-06-14T13:20:16Z</time>
            </trkpt>
            <trkpt lat="55.025140" lon="-8.260620">
                <time>2019-06-14T13:20:17Z</time>
            </trkpt>
            <trkpt lat="55.025250" lon="-8.260680">
                <time>2019-06-14T13:20:18Z</time>
            </trkpt>
            <trkpt lat="55.025370" lon="-8.260730">
                <time>2019-06-14T13:20:19Z</time>
            </trkpt>
            <trkpt lat="55.025480" lon="-8.260770">
                <time>2019-06-14T13:20:20Z</time>
            </trkpt>
            <trkpt lat="55.025580" lon="-8.260820">
                <time>2019-06-14T13:20:21Z</time>
            </trkpt>
            <trkpt lat="55.025690" lon="-8.260860">
                <time>2019-06-14T13:20:22Z</time>
            </trkpt>
            <trkpt lat="55.025790" lon="-8.260900">
                <time>2019-06-14T13:20:23Z</time>
            </trkpt>
            <trkpt lat="55.025900" lon="-8.260930">
                <time>2019-06-14T13:20:24Z</time>
            </trkpt>
            <trkpt lat="55.026000" lon="-8.260940">
                <time>2019-06-14T13:20:25Z</time>
            </trkpt>
            <trkpt lat="55.026100" lon="-8.260930">
                <time>2019-06-14T13:20:26Z</time>
            </trkpt>
            <trkpt lat="55.026200" lon="-8.260930">
                <time>2019-06-14T13:20:27Z</time>
            </trkpt>
            <trkpt lat="55.026300" lon="-8.260930">
                <time>2019-06-14T13:20:28Z</time>
            </trkpt>
            <trkpt lat="55.026420" lon="-8.260940">
                <time>2019-06-14T13:20:29Z</time>
            </trkpt>
            <trkpt lat="55.026540" lon="-8.260930">
                <time>2019-06-14T13:20:30Z</time>
            </trkpt>
            <trkpt lat="55.026640" lon="-8.260920">
                <time>2019-06-14T13:20:31Z</time>
            </trkpt>
            <trkpt lat="55.026750" lon="-8.260900">
                <time>2019-06-14T13:20:32Z</time>
            </trkpt>
            <trkpt lat="55.026840" lon="-8.260890">
                <time>2019-06-14T13:20:33Z</time>
            </trkpt>
            <trkpt lat="55.026940" lon="-8.260860">
                <time>2019-06-14T13:20:34Z</time>
            </trkpt>
            <trkpt lat="55.027040" lon="-8.260810">
                <time>2019-06-14T13:20:35Z</time>
            </trkpt>
            <trkpt lat="55.027140" lon="-8.260730">
                <time>2019-06-14T13:20:36Z</time>
            </trkpt>
            <trkpt lat="55.027240" lon="-8.260640">
                <time>2019-06-14T13:20:37Z</time>
            </trkpt>
            <trkpt lat="55.027330" lon="-8.260580">
                <time>2019-06-14T13:20:38Z</time>
            </trkpt>
            <trkpt lat="55.027440" lon="-8.260550">
                <time>2019-06-14T13:20:39Z</time>
            </trkpt>
            <trkpt lat="55.027560" lon="-8.260580">
                <time>2019-06-14T13:20:40Z</time>
            </trkpt>
            <trkpt lat="55.027650" lon="-8.260650">
                <time>2019-06-14T13:20:41Z</time>
            </trkpt>
            <trkpt lat="55.027730" lon="-8.260730">
                <time>2019-06-14T13:20:42Z</time>
            </trkpt>
            <trkpt lat="55.027840" lon="-8.260790">
                <time>2019-06-14T13:20:43Z</time>
            </trkpt>
            <trkpt lat="55.027950" lon="-8.260820">
                <time>2019-06-14T13:20:44Z</time>
            </trkpt>
            <trkpt lat="55.028070" lon="-8.260820">
                <time>2019-06-14T13:20:45Z</time>
            </trkpt>
            <trkpt lat="55.028170" lon="-8.260790">
                <time>2019-06-14T13:20:46Z</time>
            </trkpt>
            <trkpt lat="55.028270" lon="-8.260720">
                <time>2019-06-14T13:20:47Z</time>
            </trkpt>
            <trkpt lat="55.028370" lon="-8.260640">
                <time>2019-06-14T13:20:48Z</time>
            </trkpt>
            <trkpt lat="55.028480" lon="-8.260530">
                <time>2019-06-14T13:20:49Z</time>
            </trkpt>
            <trkpt lat="55.028580" lon="-8.260410">
                <time>2019-06-14T13:20:50Z</time>
            </trkpt>
            <trkpt lat="55.028670" lon="-8.260270">
                <time>2019-06-14T13:20:51Z</time>
            </trkpt>
            <trkpt lat="55.028770" lon="-8.260100">
                <time>2019-06-14T13:20:52Z</time>
            </trkpt>
            <trkpt lat="55.028880" lon="-8.259900">
                <time>2019-06-14T13:20:53Z</time>
            </trkpt>
            <trkpt lat="55.028980" lon="-8.259690">
                <time>2019-06-14T13:20:54Z</time>
            </trkpt>
            <trkpt lat="55.029090" lon="-8.259480">
                <time>2019-06-14T13:20:55Z</time>
            </trkpt>
            <trkpt lat="55.029170" lon="-8.259250">
                <time>2019-06-14T13:20:56Z</time>
            </trkpt>
            <trkpt lat="55.029240" lon="-8.259000">
                <time>2019-06-14T13:20:57Z</time>
            </trkpt>
            <trkpt lat="55.029300" lon="-8.258740">
                <time>2019-06-14T13:20:58Z</time>
            </trkpt>
            <trkpt lat="55.029340" lon="-8.258470">
                <time>2019-06-14T13:20:59Z</time>
            </trkpt>
            <trkpt lat="55.029390" lon="-8.258200">
                <time>2019-06-14T13:21:00Z</time>
            </trkpt>
            <trkpt lat="55.029450" lon="-8.257910">
                <time>2019-06-14T13:21:01Z</time>
            </trkpt>
            <trkpt lat="55.029540" lon="-8.257640">
                <time>2019-06-14T13:21:02Z</time>
            </trkpt>
            <trkpt lat="55.029650" lon="-8.257380">
                <time>2019-06-14T13:21:03Z</time>
            </trkpt>
            <trkpt lat="55.029780" lon="-8.257160">
                <time>2019-06-14T13:21:04Z</time>
            </trkpt>
            <trkpt lat="55.029910" lon="-8.256950">
                <time>2019-06-14T13:21:05Z</time>
            </trkpt>
            <trkpt lat="55.030050" lon="-8.256770">
                <time>2019-06-14T13:21:06Z</time>
            </trkpt>
            <trkpt lat="55.030190" lon="-8.256600">
                <time>2019-06-14T13:21:07Z</time>
            </trkpt>
            <trkpt lat="55.030340" lon="-8.256440">
                <time>2019-06-14T13:21:08Z</time>
            </trkpt>
            <trkpt lat="55.030500" lon="-8.256290">
                <time>2019-06-14T13:21:09Z</time>
            </trkpt>
            <trkpt lat="55.030660" lon="-8.256150">
                <time>2019-06-14T13:21:10Z</time>
            </trkpt>
            <trkpt lat="55.030820" lon="-8.256010">
                <time>2019-06-14T13:21:11Z</time>
            </trkpt>
            <trkpt lat="55.030990" lon="-8.255870">
                <time>2019-06-14T13:21:12Z</time>
            </trkpt>
            <trkpt lat="55.031160" lon="-8.255720">
                <time>2019-06-14T13:21:13Z</time>
            </trkpt>
            <trkpt lat="55.031340" lon="-8.255580">
                <time>2019-06-14T13:21:14Z</time>
            </trkpt>
            <trkpt lat="55.031510" lon="-8.255430">
                <time>2019-06-14T13:21:15Z</time>
            </trkpt>
            <trkpt lat="55.031670" lon="-8.255300">
                <time>2019-06-14T13:21:16Z</time>
            </trkpt>
            <trkpt lat="55.031840" lon="-8.255160">
                <time>2019-06-14T13:21:17Z</time>
            </trkpt>
            <trkpt lat="55.032010" lon="-8.255020">
                <time>2019-06-14T13:21:18Z</time>
            </trkpt>
            <trkpt lat="55.032190" lon="-8.254870">
                <time>2019-06-14T13:21:19Z</time>
            </trkpt>
            <trkpt lat="55.032370" lon="-8.254730">
                <time>2019-06-14T13:21:20Z</time>
            </trkpt>
            <trkpt lat="55.032560" lon="-8.254600">
                <time>2019-06-14T13:21:21Z</time>
            </trkpt>
            <trkpt lat="55.032730" lon="-8.254500">
                <time>2019-06-14T13:21:22Z</time>
            </trkpt>
            <trkpt lat="55.032900" lon="-8.254430">
                <time>2019-06-14T13:21:23Z</time>
            </trkpt>
            <trkpt lat="55.033050" lon="-8.254370">
                <time>2019-06-14T13:21:24Z</time>
            </trkpt>
            <trkpt lat="55.033210" lon="-8.254340">
                <time>2019-06-14T13:21:25Z</time>
            </trkpt>
            <trkpt lat="55.033360" lon="-8.254330">
                <time>2019-06-14T13:21:26Z</time>
            </trkpt>
            <trkpt lat="55.033510" lon="-8.254330">
                <time>2019-06-14T13:21:27Z</time>
            </trkpt>
            <trkpt lat="55.033670" lon="-8.254350">
                <time>2019-06-14T13:21:28Z</time>
            </trkpt>
            <trkpt lat="55.033820" lon="-8.254400">
                <time>2019-06-14T13:21:29Z</time>
            </trkpt>
            <trkpt lat="55.033970" lon="-8.254460">
                <time>2019-06-14T13:21:30Z</time>
            </trkpt>
            <trkpt lat="55.034110" lon="-8.254530">
                <time>2019-06-14T13:21:31Z</time>
            </trkpt>
            <trkpt lat="55.034230" lon="-8.254590">
                <time>2019-06-14T13:21:32Z</time>
            </trkpt>
            <trkpt lat="55.034340" lon="-8.254650">
                <time>2019-06-14T13:21:33Z</time>
            </trkpt>
            <trkpt lat="55.034440" lon="-8.254710">
                <time>2019-06-14T13:21:34Z</time>
            </trkpt>
            <trkpt lat="55.034560" lon="-8.254780">
                <time>2019-06-14T13:21:35Z</time>
            </trkpt>
            <trkpt lat="55.034690" lon="-8.254850">
                <time>2019-06-14T13:21:36Z</time>
            </trkpt>
            <trkpt lat="55.034830" lon="-8.254930">
                <time>2019-06-14T13:21:37Z</time>
            </trkpt>
            <trkpt lat="55.034980" lon="-8.255010">
                <time>2019-06-14T13:21:38Z</time>
            </trkpt>
            <trkpt lat="55.035130" lon="-8.255080">
                <time>2019-06-14T13:21:39Z</time>
            </trkpt>
            <trkpt lat="55.035270" lon="-8.255130">
                <time>2019-06-14T13:21:40Z</time>
            </trkpt>
            <trkpt lat="55.035400" lon="-8.255150">
                <time>2019-06-14T13:21:41Z</time>
            </trkpt>
            <trkpt lat="55.035540" lon="-8.255160">
                <time>2019-06-14T13:21:42Z</time>
            </trkpt>
            <trkpt lat="55.035690" lon="-8.255160">
                <time>2019-06-14T13:21:43Z</time>
            </trkpt>
            <trkpt lat="55.035850" lon="-8.255140">
                <time>2019-06-14T13:21:44Z</time>
            </trkpt>
            <trkpt lat="55.036010" lon="-8.255110">
                <time>2019-06-14T13:21:45Z</time>
            </trkpt>
            <trkpt lat="55.036140" lon="-8.255060">
                <time>2019-06-14T13:21:46Z</time>
            </trkpt>
            <trkpt lat="55.036270" lon="-8.255000">
                <time>2019-06-14T13:21:47Z</time>
            </trkpt>
            <trkpt lat="55.036390" lon="-8.254940">
                <time>2019-06-14T13:21:48Z</time>
            </trkpt>
            <trkpt lat="55.036490" lon="-8.254870">
                <time>2019-06-14T13:21:49Z</time>
            </trkpt>
            <trkpt lat="55.036590" lon="-8.254810">
                <time>2019-06-14T13:21:50Z</time>
            </trkpt>
            <trkpt lat="55.036670" lon="-8.254790">
                <time>2019-06-14T13:21:51Z</time>
            </trkpt>
            <trkpt lat="55.036760" lon="-8.254810">
                <time>2019-06-14T13:21:52Z</time>
            </trkpt>
            <trkpt lat="55.036840" lon="-8.254880">
                <time>2019-06-14T13:21:53Z</time>
            </trkpt>
            <trkpt lat="55.036920" lon="-8.255010">
                <time>2019-06-14T13:21:54Z</time>
            </trkpt>
            <trkpt lat="55.037000" lon="-8.255160">
                <time>2019-06-14T13:21:55Z</time>
            </trkpt>
            <trkpt lat="55.037070" lon="-8.255320">
                <time>2019-06-14T13:21:56Z</time>
            </trkpt>
            <trkpt lat="55.037150" lon="-8.255490">
                <time>2019-06-14T13:21:57Z</time>
            </trkpt>
            <trkpt lat="55.037230" lon="-8.255670">
                <time>2019-06-14T13:21:58Z</time>
            </trkpt>
            <trkpt lat="55.037330" lon="-8.255850">
                <time>2019-06-14T13:21:59Z</time>
            </trkpt>
            <trkpt lat="55.037430" lon="-8.256060">
                <time>2019-06-14T13:22:00Z</time>
            </trkpt>
            <trkpt lat="55.037540" lon="-8.256280">
                <time>2019-06-14T13:22:01Z</time>
            </trkpt>
            <trkpt lat="55.037660" lon="-8.256490">
                <time>2019-06-14T13:22:02Z</time>
            </trkpt>
            <trkpt lat="55.037770" lon="-8.256710">
                <time>2019-06-14T13:22:03Z</time>
            </trkpt>
            <trkpt lat="55.037890" lon="-8.256930">
                <time>2019-06-14T13:22:04Z</time>
            </trkpt>
            <trkpt lat="55.038000" lon="-8.257140">
                <time>2019-06-14T13:22:05Z</time>
            </trkpt>
            <trkpt lat="55.038110" lon="-8.257340">
                <time>2019-06-14T13:22:06Z</time>
            </trkpt>
            <trkpt lat="55.038210" lon="-8.257520">
                <time>2019-06-14T13:22:07Z</time>
            </trkpt>
            <trkpt lat="55.038310" lon="-8.257710">
                <time>2019-06-14T13:22:08Z</time>
            </trkpt>
            <trkpt lat="55.038400" lon="-8.257880">
                <time>2019-06-14T13:22:09Z</time>
            </trkpt>
            <trkpt lat="55.038490" lon="-8.258060">
                <time>2019-06-14T13:22:10Z</time>
            </trkpt>
            <trkpt lat="55.038580" lon="-8.258240">
                <time>2019-06-14T13:22:11Z</time>
            </trkpt>
            <trkpt lat="55.038680" lon="-8.258420">
                <time>2019-06-14T13:22:12Z</time>
            </trkpt>
            <trkpt lat="55.038770" lon="-8.258610">
                <time>2019-06-14T13:22:13Z</time>
            </trkpt>
            <trkpt lat="55.038870" lon="-8.258810">
                <time>2019-06-14T13:22:14Z</time>
            </trkpt>
            <trkpt lat="55.038970" lon="-8.259010">
                <time>2019-06-14T13:22:15Z</time>
            </trkpt>
            <trkpt lat="55.039060" lon="-8.259210">
                <time>2019-06-14T13:22:16Z</time>
            </trkpt>
            <trkpt lat="55.039150" lon="-8.259410">
                <time>2019-06-14T13:22:17Z</time>
            </trkpt>
            <trkpt lat="55.039250" lon="-8.259630">
                <time>2019-06-14T13:22:18Z</time>
            </trkpt>
            <trkpt lat="55.039340" lon="-8.259870">
                <time>2019-06-14T13:22:19Z</time>
            </trkpt>
            <trkpt lat="55.039450" lon="-8.260140">
                <time>2019-06-14T13:22:20Z</time>
            </trkpt>
            <trkpt lat="55.039550" lon="-8.260420">
                <time>2019-06-14T13:22:21Z</time>
            </trkpt>
            <trkpt lat="55.039650" lon="-8.260710">
                <time>2019-06-14T13:22:22Z</time>
            </trkpt>
            <trkpt lat="55.039740" lon="-8.260970">
                <time>2019-06-14T13:22:23Z</time>
            </trkpt>
            <trkpt lat="55.039820" lon="-8.261220">
                <time>2019-06-14T13:22:24Z</time>
            </trkpt>
            <trkpt lat="55.039900" lon="-8.261470">
                <time>2019-06-14T13:22:25Z</time>
            </trkpt>
            <trkpt lat="55.039980" lon="-8.261730">
                <time>2019-06-14T13:22:26Z</time>
            </trkpt>
            <trkpt lat="55.040060" lon="-8.262010">
                <time>2019-06-14T13:22:27Z</time>
            </trkpt>
            <trkpt lat="55.040140" lon="-8.262290">
                <time>2019-06-14T13:22:28Z</time>
            </trkpt>
            <trkpt lat="55.040220" lon="-8.262570">
                <time>2019-06-14T13:22:29Z</time>
            </trkpt>
            <trkpt lat="55.040300" lon="-8.262850">
                <time>2019-06-14T13:22:30Z</time>
            </trkpt>
            <trkpt lat="55.040370" lon="-8.263120">
                <time>2019-06-14T13:22:31Z</time>
            </trkpt>
            <trkpt lat="55.040430" lon="-8.263380">
                <time>2019-06-14T13:22:32Z</time>
            </trkpt>
            <trkpt lat="55.040490" lon="-8.263650">
                <time>2019-06-14T13:22:33Z</time>
            </trkpt>
            <trkpt lat="55.040540" lon="-8.263920">
                <time>2019-06-14T13:22:34Z</time>
            </trkpt>
            <trkpt lat="55.040600" lon="-8.264190">
                <time>2019-06-14T13:22:35Z</time>
            </trkpt>
            <trkpt lat="55.040670" lon="-8.264460">
                <time>2019-06-14T13:22:36Z</time>
            </trkpt>
            <trkpt lat="55.040750" lon="-8.264730">
                <time>2019-06-14T13:22:37Z</time>
            </trkpt>
            <trkpt lat="55.040830" lon="-8.264990">
                <time>2019-06-14T13:22:38Z</time>
            </trkpt>
            <trkpt lat="55.040930" lon="-8.265240">
                <time>2019-06-14T13:22:39Z</time>
            </trkpt>
            <trkpt lat="55.041020" lon="-8.265500">
                <time>2019-06-14T13:22:40Z</time>
            </trkpt>
            <trkpt lat="55.041110" lon="-8.265760">
                <time>2019-06-14T13:22:41Z</time>
            </trkpt>
            <trkpt lat="55.041200" lon="-8.266020">
                <time>2019-06-14T13:22:42Z</time>
            </trkpt>
            <trkpt lat="55.041300" lon="-8.266290">
                <time>2019-06-14T13:22:43Z</time>
            </trkpt>
            <trkpt lat="55.041410" lon="-8.266550">
                <time>2019-06-14T13:22:44Z</time>
            </trkpt>
            <trkpt lat="55.041510" lon="-8.266790">
                <time>2019-06-14T13:22:45Z</time>
            </trkpt>
            <trkpt lat="55.041610" lon="-8.267020">
                <time>2019-06-14T13:22:46Z</time>
            </trkpt>
            <trkpt lat="55.041700" lon="-8.267230">
                <time>2019-06-14T13:22:47Z</time>
            </trkpt>
            <trkpt lat="55.041780" lon="-8.267430">
                <time>2019-06-14T13:22:48Z</time>
            </trkpt>
            <trkpt lat="55.041850" lon="-8.267620">
                <time>2019-06-14T13:22:49Z</time>
            </trkpt>
            <trkpt lat="55.041930" lon="-8.267790">
                <time>2019-06-14T13:22:50Z</time>
            </trkpt>
            <trkpt lat="55.042000" lon="-8.267950">
                <time>2019-06-14T13:22:51Z</time>
            </trkpt>
            <trkpt lat="55.042060" lon="-8.268120">
                <time>2019-06-14T13:22:52Z</time>
            </trkpt>
            <trkpt lat="55.042120" lon="-8.268270">
                <time>2019-06-14T13:22:53Z</time>
            </trkpt>
            <trkpt lat="55.042190" lon="-8.268440">
                <time>2019-06-14T13:22:54Z</time>
            </trkpt>
            <trkpt lat="55.042250" lon="-8.268600">
                <time>2019-06-14T13:22:55Z</time>
            </trkpt>
            <trkpt lat="55.042310" lon="-8.268720">
                <time>2019-06-14T13:22:56Z</time>
            </trkpt>
            <trkpt lat="55.042360" lon="-8.268840">
                <time>2019-06-14T13:22:57Z</time>
            </trkpt>
            <trkpt lat="55.042420" lon="-8.268960">
                <time>2019-06-14T13:22:58Z</time>
            </trkpt>
            <trkpt lat="55.042480" lon="-8.269090">
                <time>2019-06-14T13:22:59Z</time>
            </trkpt>
            <trkpt lat="55.042550" lon="-8.269250">
                <time>2019-06-14T13:23:00Z</time>
            </trkpt>
            <trkpt lat="55.042640" lon="-8.269430">
                <time>2019-06-14T13:23:01Z</time>
            </trkpt>
            <trkpt lat="55.042750" lon="-8.269630">
                <time>2019-06-14T13:23:02Z</time>
            </trkpt>
            <trkpt lat="55.042860" lon="-8.269830">
                <time>2019-06-14T13:23:03Z</time>
            </trkpt>
            <trkpt lat="55.042980" lon="-8.270040">
                <time>2019-06-14T13:23:04Z</time>
            </trkpt>
            <trkpt lat="55.043090" lon="-8.270250">
                <time>2019-06-14T13:23:05Z</time>
            </trkpt>
            <trkpt lat="55.043210" lon="-8.270460">
                <time>2019-06-14T13:23:06Z</time>
            </trkpt>
            <trkpt lat="55.043310" lon="-8.270620">
                <time>2019-06-14T13:23:07Z</time>
            </trkpt>
            <trkpt lat="55.043390" lon="-8.270740">
                <time>2019-06-14T13:23:08Z</time>
            </trkpt>
            <trkpt lat="55.043450" lon="-8.270850">
                <time>2019-06-14T13:23:09Z</time>
            </trkpt>
            <trkpt lat="55.043530" lon="-8.270950">
                <time>2019-06-14T13:23:10Z</time>
            </trkpt>
            <trkpt lat="55.043580" lon="-8.271060">
                <time>2019-06-14T13:23:11Z</time>
            </trkpt>
            <trkpt lat="55.043620" lon="-8.271140">
                <time>2019-06-14T13:23:12Z</time>
            </trkpt>
            <trkpt lat="55.043640" lon="-8.271190">
                <time>2019-06-14T13:23:13Z</time>
            </trkpt>
            <trkpt lat="55.043660" lon="-8.271230">
                <time>2019-06-14T13:23:14Z</time>
            </trkpt>
            <trkpt lat="55.043690" lon="-8.271270">
                <time>2019-06-14T13:23:15Z</time>
            </trkpt>
            <trkpt lat="55.043710" lon="-8.271300">
                <time>2019-06-14T13:23:16Z</time>
            </trkpt>
            <trkpt lat="55.043730" lon="-8.271340">
                <time>2019-06-14T13:23:17Z</time>
            </trkpt>
            <trkpt lat="55.043750" lon="-8.271380">
                <time>2019-06-14T13:23:18Z</time>
            </trkpt>
            <trkpt lat="55.043770" lon="-8.271410">
                <time>2019-06-14T13:23:19Z</time>
            </trkpt>
            <trkpt lat="55.043790" lon="-8.271440">
                <time>2019-06-14T13:23:20Z</time>
            </trkpt>
            <trkpt lat="55.043810" lon="-8.271480">
                <time>2019-06-14T13:23:21Z</time>
            </trkpt>
            <trkpt lat="55.043850" lon="-8.271570">
                <time>2019-06-14T13:23:22Z</time>
            </trkpt>
            <trkpt lat="55.043930" lon="-8.271710">
                <time>2019-06-14T13:23:23Z</time>
            </trkpt>
            <trkpt lat="55.044030" lon="-8.271890">
                <time>2019-06-14T13:23:24Z</time>
            </trkpt>
            <trkpt lat="55.044140" lon="-8.272080">
                <time>2019-06-14T13:23:25Z</time>
            </trkpt>
            <trkpt lat="55.044260" lon="-8.272300">
                <time>2019-06-14T13:23:26Z</time>
            </trkpt>
            <trkpt lat="55.044410" lon="-8.272560">
                <time>2019-06-14T13:23:27Z</time>
            </trkpt>
            <trkpt lat="55.044550" lon="-8.272820">
                <time>2019-06-14T13:23:28Z</time>
            </trkpt>
            <trkpt lat="55.044710" lon="-8.273090">
                <time>2019-06-14T13:23:29Z</time>
            </trkpt>
            <trkpt lat="55.044870" lon="-8.273380">
                <time>2019-06-14T13:23:30Z</time>
            </trkpt>
            <trkpt lat="55.045030" lon="-8.273660">
                <time>2019-06-14T13:23:31Z</time>
            </trkpt>
            <trkpt lat="55.045200" lon="-8.273960">
                <time>2019-06-14T13:23:32Z</time>
            </trkpt>
            <trkpt lat="55.045370" lon="-8.274250">
                <time>2019-06-14T13:23:33Z</time>
            </trkpt>
            <trkpt lat="55.045540" lon="-8.274560">
                <time>2019-06-14T13:23:34Z</time>
            </trkpt>
            <trkpt lat="55.045720" lon="-8.274880">
                <time>2019-06-14T13:23:35Z</time>
            </trkpt>
            <trkpt lat="55.045890" lon="-8.275190">
                <time>2019-06-14T13:23:36Z</time>
            </trkpt>
            <trkpt lat="55.046060" lon="-8.275510">
                <time>2019-06-14T13:23:37Z</time>
            </trkpt>
            <trkpt lat="55.046230" lon="-8.275810">
                <time>2019-06-14T13:23:38Z</time>
            </trkpt>
            <trkpt lat="55.046400" lon="-8.276120">
                <time>2019-06-14T13:23:39Z</time>
            </trkpt>
            <trkpt lat="55.046580" lon="-8.276420">
                <time>2019-06-14T13:23:40Z</time>
            </trkpt>
            <trkpt lat="55.046750" lon="-8.276710">
                <time>2019-06-14T13:23:41Z</time>
            </trkpt>
            <trkpt lat="55.046920" lon="-8.277010">
                <time>2019-06-14T13:23:42Z</time>
            </trkpt>
            <trkpt lat="55.047090" lon="-8.277290">
                <time>2019-06-14T13:23:43Z</time>
            </trkpt>
            <trkpt lat="55.047250" lon="-8.277580">
                <time>2019-06-14T13:23:44Z</time>
            </trkpt>
            <trkpt lat="55.047400" lon="-8.277870">
                <time>2019-06-14T13:23:45Z</time>
            </trkpt>
            <trkpt lat="55.047540" lon="-8.278160">
                <time>2019-06-14T13:23:46Z</time>
            </trkpt>
            <trkpt lat="55.047670" lon="-8.278470">
                <time>2019-06-14T13:23:47Z</time>
            </trkpt>
            <trkpt lat="55.047800" lon="-8.278790">
                <time>2019-06-14T13:23:48Z</time>
            </trkpt>
            <trkpt lat="55.047950" lon="-8.279090">
                <time>2019-06-14T13:23:49Z</time>
            </trkpt>
            <trkpt lat="55.048090" lon="-8.279390">
                <time>2019-06-14T13:23:50Z</time>
            </trkpt>
            <trkpt lat="55.048230" lon="-8.279670">
                <time>2019-06-14T13:23:51Z</time>
            </trkpt>
            <trkpt lat="55.048360" lon="-8.279950">
                <time>2019-06-14T13:23:52Z</time>
            </trkpt>
            <trkpt lat="55.048480" lon="-8.280210">
                <time>2019-06-14T13:23:53Z</time>
            </trkpt>
            <trkpt lat="55.048600" lon="-8.280470">
                <time>2019-06-14T13:23:54Z</time>
            </trkpt>
            <trkpt lat="55.048700" lon="-8.280730">
                <time>2019-06-14T13:23:55Z</time>
            </trkpt>
            <trkpt lat="55.048800" lon="-8.280990">
                <time>2019-06-14T13:23:56Z</time>
            </trkpt>
            <trkpt lat="55.048910" lon="-8.281260">
                <time>2019-06-14T13:23:57Z</time>
            </trkpt>
            <trkpt lat="55.049010" lon="-8.281530">
                <time>2019-06-14T13:23:58Z</time>
            </trkpt>
            <trkpt lat="55.049100" lon="-8.281820">
                <time>2019-06-14T13:23:59Z</time>
            </trkpt>
            <trkpt lat="55.049190" lon="-8.282100">
                <time>2019-06-14T13:24:00Z</time>
            </trkpt>
            <trkpt lat="55.049270" lon="-8.282370">
                <time>2019-06-14T13:24:01Z</time>
            </trkpt>
            <trkpt lat="55.049340" lon="-8.282640">
                <time>2019-06-14T13:24:02Z</time>
            </trkpt>
            <trkpt lat="55.049390" lon="-8.282900">
                <time>2019-06-14T13:24:03Z</time>
            </trkpt>
            <trkpt lat="55.049410" lon="-8.283160">
                <time>2019-06-14T13:24:04Z</time>
            </trkpt>
            <trkpt lat="55.049420" lon="-8.283430">
                <time>2019-06-14T13:24:05Z</time>
            </trkpt>
            <trkpt lat="55.049400" lon="-8.283690">
                <time>2019-06-14T13:24:06Z</time>
            </trkpt>
            <trkpt lat="55.049370" lon="-8.283950">
                <time>2019-06-14T13:24:07Z</time>
            </trkpt>
            <trkpt lat="55.049320" lon="-8.284190">
                <time>2019-06-14T13:24:08Z</time>
            </trkpt>
            <trkpt lat="55.049250" lon="-8.284410">
                <time>2019-06-14T13:24:09Z</time>
            </trkpt>
            <trkpt lat="55.049180" lon="-8.284620">
                <time>2019-06-14T13:24:10Z</time>
            </trkpt>
            <trkpt lat="55.049110" lon="-8.284820">
                <time>2019-06-14T13:24:11Z</time>
            </trkpt>
            <trkpt lat="55.049050" lon="-8.285050">
                <time>2019-06-14T13:24:12Z</time>
            </trkpt>
            <trkpt lat="55.048990" lon="-8.285300">
                <time>2019-06-14T13:24:13Z</time>
            </trkpt>
            <trkpt lat="55.048970" lon="-8.285560">
                <time>2019-06-14T13:24:14Z</time>
            </trkpt>
            <trkpt lat="55.048970" lon="-8.285840">
                <time>2019-06-14T13:24:15Z</time>
            </trkpt>
            <trkpt lat="55.049000" lon="-8.286120">
                <time>2019-06-14T13:24:16Z</time>
            </trkpt>
            <trkpt lat="55.049040" lon="-8.286420">
                <time>2019-06-14T13:24:17Z</time>
            </trkpt>
            <trkpt lat="55.049090" lon="-8.286740">
                <time>2019-06-14T13:24:18Z</time>
            </trkpt>
            <trkpt lat="55.049140" lon="-8.287080">
                <time>2019-06-14T13:24:19Z</time>
            </trkpt>
            <trkpt lat="55.049190" lon="-8.287440">
                <time>2019-06-14T13:24:20Z</time>
            </trkpt>
            <trkpt lat="55.049240" lon="-8.287810">
                <time>2019-06-14T13:24:21Z</time>
            </trkpt>
            <trkpt lat="55.049290" lon="-8.288180">
                <time>2019-06-14T13:24:22Z</time>
            </trkpt>
            <trkpt lat="55.049330" lon="-8.288510">
                <time>2019-06-14T13:24:23Z</time>
            </trkpt>
            <trkpt lat="55.049360" lon="-8.288820">
                <time>2019-06-14T13:24:24Z</time>
            </trkpt>
            <trkpt lat="55.049380" lon="-8.289110">
                <time>2019-06-14T13:24:25Z</time>
            </trkpt>
            <trkpt lat="55.049390" lon="-8.289420">
                <time>2019-06-14T13:24:26Z</time>
            </trkpt>
            <trkpt lat="55.049420" lon="-8.289730">
                <time>2019-06-14T13:24:27Z</time>
            </trkpt>
            <trkpt lat="55.049450" lon="-8.290050">
                <time>2019-06-14T13:24:28Z</time>
            </trkpt>
            <trkpt lat="55.049490" lon="-8.290360">
                <time>2019-06-14T13:24:29Z</time>
            </trkpt>
            <trkpt lat="55.049530" lon="-8.290650">
                <time>2019-06-14T13:24:30Z</time>
            </trkpt>
            <trkpt lat="55.049600" lon="-8.290940">
                <time>2019-06-14T13:24:31Z</time>
            </trkpt>
            <trkpt lat="55.049690" lon="-8.291190">
                <time>2019-06-14T13:24:32Z</time>
            </trkpt>
            <trkpt lat="55.049810" lon="-8.291420">
                <time>2019-06-14T13:24:33Z</time>
            </trkpt>
            <trkpt lat="55.049960" lon="-8.291620">
                <time>2019-06-14T13:24:34Z</time>
            </trkpt>
            <trkpt lat="55.050130" lon="-8.291790">
                <time>2019-06-14T13:24:35Z</time>
            </trkpt>
            <trkpt lat="55.050310" lon="-8.291960">
                <time>2019-06-14T13:24:36Z</time>
            </trkpt>
            <trkpt lat="55.050510" lon="-8.292150">
                <time>2019-06-14T13:24:37Z</time>
            </trkpt>
            <trkpt lat="55.050710" lon="-8.292350">
                <time>2019-06-14T13:24:38Z</time>
            </trkpt>
            <trkpt lat="55.050890" lon="-8.292530">
                <time>2019-06-14T13:24:39Z</time>
            </trkpt>
            <trkpt lat="55.051070" lon="-8.292710">
                <time>2019-06-14T13:24:40Z</time>
            </trkpt>
            <trkpt lat="55.051230" lon="-8.292890">
                <time>2019-06-14T13:24:41Z</time>
            </trkpt>
            <trkpt lat="55.051400" lon="-8.293090">
                <time>2019-06-14T13:24:42Z</time>
            </trkpt>
            <trkpt lat="55.051560" lon="-8.293300">
                <time>2019-06-14T13:24:43Z</time>
            </trkpt>
            <trkpt lat="55.051710" lon="-8.293530">
                <time>2019-06-14T13:24:44Z</time>
            </trkpt>
            <trkpt lat="55.051860" lon="-8.293790">
                <time>2019-06-14T13:24:45Z</time>
            </trkpt>
            <trkpt lat="55.052000" lon="-8.294070">
                <time>2019-06-14T13:24:46Z</time>
            </trkpt>
            <trkpt lat="55.052130" lon="-8.294350">
                <time>2019-06-14T13:24:47Z</time>
            </trkpt>
            <trkpt lat="55.052260" lon="-8.294620">
                <time>2019-06-14T13:24:48Z</time>
            </trkpt>
            <trkpt lat="55.052390" lon="-8.294880">
                <time>2019-06-14T13:24:49Z</time>
            </trkpt>
            <trkpt lat="55.052510" lon="-8.295100">
                <time>2019-06-14T13:24:50Z</time>
            </trkpt>
            <trkpt lat="55.052630" lon="-8.295280">
                <time>2019-06-14T13:24:51Z</time>
            </trkpt>
            <trkpt lat="55.052770" lon="-8.295420">
                <time>2019-06-14T13:24:52Z</time>
            </trkpt>
            <trkpt lat="55.052930" lon="-8.295510">
                <time>2019-06-14T13:24:53Z</time>
            </trkpt>
            <trkpt lat="55.053100" lon="-8.295590">
                <time>2019-06-14T13:24:54Z</time>
            </trkpt>
            <trkpt lat="55.053280" lon="-8.295660">
                <time>2019-06-14T13:24:55Z</time>
            </trkpt>
            <trkpt lat="55.053470" lon="-8.295720">
                <time>2019-06-14T13:24:56Z</time>
            </trkpt>
            <trkpt lat="55.053650" lon="-8.295770">
                <time>2019-06-14T13:24:57Z</time>
            </trkpt>
            <trkpt lat="55.053820" lon="-8.295830">
                <time>2019-06-14T13:24:58Z</time>
            </trkpt>
            <trkpt lat="55.053960" lon="-8.295900">
                <time>2019-06-14T13:24:59Z</time>
            </trkpt>
            <trkpt lat="55.054100" lon="-8.295990">
                <time>2019-06-14T13:25:00Z</time>
            </trkpt>
            <trkpt lat="55.054230" lon="-8.296110">
                <time>2019-06-14T13:25:01Z</time>
            </trkpt>
            <trkpt lat="55.054360" lon="-8.296230">
                <time>2019-06-14T13:25:02Z</time>
            </trkpt>
            <trkpt lat="55.054480" lon="-8.296380">
                <time>2019-06-14T13:25:03Z</time>
            </trkpt>
            <trkpt lat="55.054600" lon="-8.296550">
                <time>2019-06-14T13:25:04Z</time>
            </trkpt>
            <trkpt lat="55.054720" lon="-8.296740">
                <time>2019-06-14T13:25:05Z</time>
            </trkpt>
            <trkpt lat="55.054850" lon="-8.296950">
                <time>2019-06-14T13:25:06Z</time>
            </trkpt>
            <trkpt lat="55.054990" lon="-8.297170">
                <time>2019-06-14T13:25:07Z</time>
            </trkpt>
            <trkpt lat="55.055120" lon="-8.297390">
                <time>2019-06-14T13:25:08Z</time>
            </trkpt>
            <trkpt lat="55.055250" lon="-8.297610">
                <time>2019-06-14T13:25:09Z</time>
            </trkpt>
            <trkpt lat="55.055360" lon="-8.297830">
                <time>2019-06-14T13:25:10Z</time>
            </trkpt>
            <trkpt lat="55.055460" lon="-8.298030">
                <time>2019-06-14T13:25:11Z</time>
            </trkpt>
            <trkpt lat="55.055570" lon="-8.298210">
                <time>2019-06-14T13:25:12Z</time>
            </trkpt>
            <trkpt lat="55.055690" lon="-8.298360">
                <time>2019-06-14T13:25:13Z</time>
            </trkpt>
            <trkpt lat="55.055820" lon="-8.298480">
                <time>2019-06-14T13:25:14Z</time>
            </trkpt>
            <trkpt lat="55.055950" lon="-8.298590">
                <time>2019-06-14T13:25:15Z</time>
            </trkpt>
            <trkpt lat="55.056080" lon="-8.298690">
                <time>2019-06-14T13:25:16Z</time>
            </trkpt>
            <trkpt lat="55.056210" lon="-8.298800">
                <time>2019-06-14T13:25:17Z</time>
            </trkpt>
            <trkpt lat="55.056360" lon="-8.298920">
                <time>2019-06-14T13:25:18Z</time>
            </trkpt>
            <trkpt lat="55.056510" lon="-8.299020">
                <time>2019-06-14T13:25:19Z</time>
            </trkpt>
            <trkpt lat="55.056680" lon="-8.299090">
                <time>2019-06-14T13:25:20Z</time>
            </trkpt>
            <trkpt lat="55.056860" lon="-8.299160">
                <time>2019-06-14T13:25:21Z</time>
            </trkpt>
            <trkpt lat="55.057040" lon="-8.299220">
                <time>2019-06-14T13:25:22Z</time>
            </trkpt>
            <trkpt lat="55.057220" lon="-8.299280">
                <time>2019-06-14T13:25:23Z</time>
            </trkpt>
            <trkpt lat="55.057400" lon="-8.299340">
                <time>2019-06-14T13:25:24Z</time>
            </trkpt>
            <trkpt lat="55.057570" lon="-8.299400">
                <time>2019-06-14T13:25:25Z</time>
            </trkpt>
            <trkpt lat="55.057730" lon="-8.299470">
                <time>2019-06-14T13:25:26Z</time>
            </trkpt>
            <trkpt lat="55.057870" lon="-8.299540">
                <time>2019-06-14T13:25:27Z</time>
            </trkpt>
            <trkpt lat="55.058020" lon="-8.299600">
                <time>2019-06-14T13:25:28Z</time>
            </trkpt>
            <trkpt lat="55.058180" lon="-8.299670">
                <time>2019-06-14T13:25:29Z</time>
            </trkpt>
            <trkpt lat="55.058330" lon="-8.299730">
                <time>2019-06-14T13:25:30Z</time>
            </trkpt>
            <trkpt lat="55.058480" lon="-8.299800">
                <time>2019-06-14T13:25:31Z</time>
            </trkpt>
            <trkpt lat="55.058630" lon="-8.299850">
                <time>2019-06-14T13:25:32Z</time>
            </trkpt>
            <trkpt lat="55.058790" lon="-8.299890">
                <time>2019-06-14T13:25:33Z</time>
            </trkpt>
            <trkpt lat="55.058940" lon="-8.299930">
                <time>2019-06-14T13:25:34Z</time>
            </trkpt>
            <trkpt lat="55.059100" lon="-8.299950">
                <time>2019-06-14T13:25:35Z</time>
            </trkpt>
            <trkpt lat="55.059250" lon="-8.299980">
                <time>2019-06-14T13:25:36Z</time>
            </trkpt>
            <trkpt lat="55.059410" lon="-8.300000">
                <time>2019-06-14T13:25:37Z</time>
            </trkpt>
            <trkpt lat="55.059570" lon="-8.300020">
                <time>2019-06-14T13:25:38Z</time>
            </trkpt>
            <trkpt lat="55.059720" lon="-8.300040">
                <time>2019-06-14T13:25:39Z</time>
            </trkpt>
            <trkpt lat="55.059860" lon="-8.300050">
                <time>2019-06-14T13:25:40Z</time>
            </trkpt>
            <trkpt lat="55.060010" lon="-8.300050">
                <time>2019-06-14T13:25:41Z</time>
            </trkpt>
            <trkpt lat="55.060150" lon="-8.300050">
                <time>2019-06-14T13:25:42Z</time>
            </trkpt>
            <trkpt lat="55.060290" lon="-8.300090">
                <time>2019-06-14T13:25:43Z</time>
            </trkpt>
            <trkpt lat="55.060440" lon="-8.300150">
                <time>2019-06-14T13:25:44Z</time>
            </trkpt>
            <trkpt lat="55.060580" lon="-8.300240">
                <time>2019-06-14T13:25:45Z</time>
            </trkpt>
            <trkpt lat="55.060700" lon="-8.300340">
                <time>2019-06-14T13:25:46Z</time>
            </trkpt>
            <trkpt lat="55.060820" lon="-8.300440">
                <time>2019-06-14T13:25:47Z</time>
            </trkpt>
            <trkpt lat="55.060940" lon="-8.300530">
                <time>2019-06-14T13:25:48Z</time>
            </trkpt>
            <trkpt lat="55.061060" lon="-8.300630">
                <time>2019-06-14T13:25:49Z</time>
            </trkpt>
            <trkpt lat="55.061180" lon="-8.300700">
                <time>2019-06-14T13:25:50Z</time>
            </trkpt>
            <trkpt lat="55.061310" lon="-8.300750">
                <time>2019-06-14T13:25:51Z</time>
            </trkpt>
            <trkpt lat="55.061450" lon="-8.300750">
                <time>2019-06-14T13:25:52Z</time>
            </trkpt>
            <trkpt lat="55.061580" lon="-8.300730">
                <time>2019-06-14T13:25:53Z</time>
            </trkpt>
            <trkpt lat="55.061710" lon="-8.300710">
                <time>2019-06-14T13:25:54Z</time>
            </trkpt>
            <trkpt lat="55.061840" lon="-8.300680">
                <time>2019-06-14T13:25:55Z</time>
            </trkpt>
            <trkpt lat="55.061970" lon="-8.300670">
                <time>2019-06-14T13:25:56Z</time>
            </trkpt>
            <trkpt lat="55.062110" lon="-8.300650">
                <time>2019-06-14T13:25:57Z</time>
            </trkpt>
            <trkpt lat="55.062250" lon="-8.300620">
                <time>2019-06-14T13:25:58Z</time>
            </trkpt>
            <trkpt lat="55.062410" lon="-8.300580">
                <time>2019-06-14T13:25:59Z</time>
            </trkpt>
            <trkpt lat="55.062560" lon="-8.300540">
                <time>2019-06-14T13:26:00Z</time>
            </trkpt>
            <trkpt lat="55.062710" lon="-8.300490">
                <time>2019-06-14T13:26:01Z</time>
            </trkpt>
            <trkpt lat="55.062860" lon="-8.300430">
                <time>2019-06-14T13:26:02Z</time>
            </trkpt>
            <trkpt lat="55.063020" lon="-8.300370">
                <time>2019-06-14T13:26:03Z</time>
            </trkpt>
            <trkpt lat="55.063190" lon="-8.300330">
                <time>2019-06-14T13:26:04Z</time>
            </trkpt>
            <trkpt lat="55.063350" lon="-8.300270">
                <time>2019-06-14T13:26:05Z</time>
            </trkpt>
            <trkpt lat="55.063530" lon="-8.300220">
                <time>2019-06-14T13:26:06Z</time>
            </trkpt>
            <trkpt lat="55.063710" lon="-8.300160">
                <time>2019-06-14T13:26:07Z</time>
            </trkpt>
            <trkpt lat="55.063890" lon="-8.300100">
                <time>2019-06-14T13:26:08Z</time>
            </trkpt>
            <trkpt lat="55.064060" lon="-8.300050">
                <time>2019-06-14T13:26:09Z</time>
            </trkpt>
            <trkpt lat="55.064230" lon="-8.300000">
                <time>2019-06-14T13:26:10Z</time>
            </trkpt>
            <trkpt lat="55.064400" lon="-8.299950">
                <time>2019-06-14T13:26:11Z</time>
            </trkpt>
            <trkpt lat="55.064570" lon="-8.299900">
                <time>2019-06-14T13:26:12Z</time>
            </trkpt>
            <trkpt lat="55.064730" lon="-8.299850">
                <time>2019-06-14T13:26:13Z</time>
            </trkpt>
            <trkpt lat="55.064890" lon="-8.299790">
                <time>2019-06-14T13:26:14Z</time>
            </trkpt>
            <trkpt lat="55.065050" lon="-8.299740">
                <time>2019-06-14T13:26:15Z</time>
            </trkpt>
            <trkpt lat="55.065210" lon="-8.299690">
                <time>2019-06-14T13:26:16Z</time>
            </trkpt>
            <trkpt lat="55.065380" lon="-8.299640">
                <time>2019-06-14T13:26:17Z</time>
            </trkpt>
            <trkpt lat="55.065540" lon="-8.299580">
                <time>2019-06-14T13:26:18Z</time>
            </trkpt>
            <trkpt lat="55.065700" lon="-8.299540">
                <time>2019-06-14T13:26:19Z</time>
            </trkpt>
            <trkpt lat="55.065840" lon="-8.299500">
                <time>2019-06-14T13:26:20Z</time>
            </trkpt>
            <trkpt lat="55.065970" lon="-8.299460">
                <time>2019-06-14T13:26:21Z</time>
            </trkpt>
            <trkpt lat="55.066110" lon="-8.299420">
                <time>2019-06-14T13:26:22Z</time>
            </trkpt>
            <trkpt lat="55.066240" lon="-8.299370">
                <time>2019-06-14T13:26:23Z</time>
            </trkpt>
            <trkpt lat="55.066380" lon="-8.299330">
                <time>2019-06-14T13:26:24Z</time>
            </trkpt>
            <trkpt lat="55.066510" lon="-8.299290">
                <time>2019-06-14T13:26:25Z</time>
            </trkpt>
            <trkpt lat="55.066650" lon="-8.299240">
                <time>2019-06-14T13:26:26Z</time>
            </trkpt>
            <trkpt lat="55.066800" lon="-8.299190">
                <time>2019-06-14T13:26:27Z</time>
            </trkpt>
            <trkpt lat="55.066940" lon="-8.299130">
                <time>2019-06-14T13:26:28Z</time>
            </trkpt>
            <trkpt lat="55.067100" lon="-8.299090">
                <time>2019-06-14T13:26:29Z</time>
            </trkpt>
            <trkpt lat="55.067260" lon="-8.299040">
                <time>2019-06-14T13:26:30Z</time>
            </trkpt>
            <trkpt lat="55.067420" lon="-8.298990">
                <time>2019-06-14T13:26:31Z</time>
            </trkpt>
            <trkpt lat="55.067590" lon="-8.298930">
                <time>2019-06-14T13:26:32Z</time>
            </trkpt>
            <trkpt lat="55.067760" lon="-8.298870">
                <time>2019-06-14T13:26:33Z</time>
            </trkpt>
            <trkpt lat="55.067930" lon="-8.298810">
                <time>2019-06-14T13:26:34Z</time>
            </trkpt>
            <trkpt lat="55.068100" lon="-8.298760">
                <time>2019-06-14T13:26:35Z</time>
            </trkpt>
            <trkpt lat="55.068260" lon="-8.298710">
                <time>2019-06-14T13:26:36Z</time>
            </trkpt>
            <trkpt lat="55.068420" lon="-8.298660">
                <time>2019-06-14T13:26:37Z</time>
            </trkpt>
            <trkpt lat="55.068570" lon="-8.298610">
                <time>2019-06-14T13:26:38Z</time>
            </trkpt>
            <trkpt lat="55.068730" lon="-8.298550">
                <time>2019-06-14T13:26:39Z</time>
            </trkpt>
            <trkpt lat="55.068890" lon="-8.298500">
                <time>2019-06-14T13:26:40Z</time>
            </trkpt>
            <trkpt lat="55.069060" lon="-8.298450">
                <time>2019-06-14T13:26:41Z</time>
            </trkpt>
            <trkpt lat="55.069230" lon="-8.298390">
                <time>2019-06-14T13:26:42Z</time>
            </trkpt>
            <trkpt lat="55.069390" lon="-8.298330">
                <time>2019-06-14T13:26:43Z</time>
            </trkpt>
            <trkpt lat="55.069560" lon="-8.298280">
                <time>2019-06-14T13:26:44Z</time>
            </trkpt>
            <trkpt lat="55.069730" lon="-8.298220">
                <time>2019-06-14T13:26:45Z</time>
            </trkpt>
            <trkpt lat="55.069900" lon="-8.298160">
                <time>2019-06-14T13:26:46Z</time>
            </trkpt>
            <trkpt lat="55.070060" lon="-8.298100">
                <time>2019-06-14T13:26:47Z</time>
            </trkpt>
            <trkpt lat="55.070200" lon="-8.298040">
                <time>2019-06-14T13:26:48Z</time>
            </trkpt>
            <trkpt lat="55.070350" lon="-8.297980">
                <time>2019-06-14T13:26:49Z</time>
            </trkpt>
            <trkpt lat="55.070500" lon="-8.297920">
                <time>2019-06-14T13:26:50Z</time>
            </trkpt>
            <trkpt lat="55.070670" lon="-8.297860">
                <time>2019-06-14T13:26:51Z</time>
            </trkpt>
            <trkpt lat="55.070830" lon="-8.297790">
                <time>2019-06-14T13:26:52Z</time>
            </trkpt>
            <trkpt lat="55.070970" lon="-8.297730">
                <time>2019-06-14T13:26:53Z</time>
            </trkpt>
            <trkpt lat="55.071120" lon="-8.297670">
                <time>2019-06-14T13:26:54Z</time>
            </trkpt>
            <trkpt lat="55.071260" lon="-8.297590">
                <time>2019-06-14T13:26:55Z</time>
            </trkpt>
            <trkpt lat="55.071410" lon="-8.297500">
                <time>2019-06-14T13:26:56Z</time>
            </trkpt>
            <trkpt lat="55.071560" lon="-8.297370">
                <time>2019-06-14T13:26:57Z</time>
            </trkpt>
            <trkpt lat="55.071720" lon="-8.297220">
                <time>2019-06-14T13:26:58Z</time>
            </trkpt>
            <trkpt lat="55.071870" lon="-8.297050">
                <time>2019-06-14T13:26:59Z</time>
            </trkpt>
            <trkpt lat="55.072030" lon="-8.296870">
                <time>2019-06-14T13:27:00Z</time>
            </trkpt>
            <trkpt lat="55.072170" lon="-8.296710">
                <time>2019-06-14T13:27:01Z</time>
            </trkpt>
            <trkpt lat="55.072310" lon="-8.296540">
                <time>2019-06-14T13:27:02Z</time>
            </trkpt>
            <trkpt lat="55.072440" lon="-8.296390">
                <time>2019-06-14T13:27:03Z</time>
            </trkpt>
            <trkpt lat="55.072580" lon="-8.296240">
                <time>2019-06-14T13:27:04Z</time>
            </trkpt>
            <trkpt lat="55.072720" lon="-8.296080">
                <time>2019-06-14T13:27:05Z</time>
            </trkpt>
            <trkpt lat="55.072870" lon="-8.295900">
                <time>2019-06-14T13:27:06Z</time>
            </trkpt>
            <trkpt lat="55.073020" lon="-8.295720">
                <time>2019-06-14T13:27:07Z</time>
            </trkpt>
            <trkpt lat="55.073190" lon="-8.295540">
                <time>2019-06-14T13:27:08Z</time>
            </trkpt>
            <trkpt lat="55.073350" lon="-8.295360">
                <time>2019-06-14T13:27:09Z</time>
            </trkpt>
            <trkpt lat="55.073500" lon="-8.295190">
                <time>2019-06-14T13:27:10Z</time>
            </trkpt>
            <trkpt lat="55.073640" lon="-8.295010">
                <time>2019-06-14T13:27:11Z</time>
            </trkpt>
            <trkpt lat="55.073790" lon="-8.294850">
                <time>2019-06-14T13:27:12Z</time>
            </trkpt>
            <trkpt lat="55.073930" lon="-8.294690">
                <time>2019-06-14T13:27:13Z</time>
            </trkpt>
            <trkpt lat="55.074080" lon="-8.294520">
                <time>2019-06-14T13:27:14Z</time>
            </trkpt>
            <trkpt lat="55.074230" lon="-8.294340">
                <time>2019-06-14T13:27:15Z</time>
            </trkpt>
            <trkpt lat="55.074380" lon="-8.294150">
                <time>2019-06-14T13:27:16Z</time>
            </trkpt>
            <trkpt lat="55.074530" lon="-8.293970">
                <time>2019-06-14T13:27:17Z</time>
            </trkpt>
            <trkpt lat="55.074680" lon="-8.293810">
                <time>2019-06-14T13:27:18Z</time>
            </trkpt>
            <trkpt lat="55.074810" lon="-8.293660">
                <time>2019-06-14T13:27:19Z</time>
            </trkpt>
            <trkpt lat="55.074940" lon="-8.293510">
                <time>2019-06-14T13:27:20Z</time>
            </trkpt>
            <trkpt lat="55.075060" lon="-8.293370">
                <time>2019-06-14T13:27:21Z</time>
            </trkpt>
            <trkpt lat="55.075170" lon="-8.293230">
                <time>2019-06-14T13:27:22Z</time>
            </trkpt>
            <trkpt lat="55.075290" lon="-8.293100">
                <time>2019-06-14T13:27:23Z</time>
            </trkpt>
            <trkpt lat="55.075400" lon="-8.292980">
                <time>2019-06-14T13:27:24Z</time>
            </trkpt>
            <trkpt lat="55.075490" lon="-8.292870">
                <time>2019-06-14T13:27:25Z</time>
            </trkpt>
            <trkpt lat="55.075580" lon="-8.292770">
                <time>2019-06-14T13:27:26Z</time>
            </trkpt>
            <trkpt lat="55.075670" lon="-8.292660">
                <time>2019-06-14T13:27:27Z</time>
            </trkpt>
            <trkpt lat="55.075770" lon="-8.292540">
                <time>2019-06-14T13:27:28Z</time>
            </trkpt>
            <trkpt lat="55.075870" lon="-8.292410">
                <time>2019-06-14T13:27:29Z</time>
            </trkpt>
            <trkpt lat="55.075970" lon="-8.292290">
                <time>2019-06-14T13:27:30Z</time>
            </trkpt>
            <trkpt lat="55.076070" lon="-8.292170">
                <time>2019-06-14T13:27:31Z</time>
            </trkpt>
            <trkpt lat="55.076170" lon="-8.292070">
                <time>2019-06-14T13:27:32Z</time>
            </trkpt>
            <trkpt lat="55.076260" lon="-8.291970">
                <time>2019-06-14T13:27:33Z</time>
            </trkpt>
            <trkpt lat="55.076350" lon="-8.291870">
                <time>2019-06-14T13:27:34Z</time>
            </trkpt>
            <trkpt lat="55.076430" lon="-8.291760">
                <time>2019-06-14T13:27:35Z</time>
            </trkpt>
            <trkpt lat="55.076520" lon="-8.291660">
                <time>2019-06-14T13:27:36Z</time>
            </trkpt>
            <trkpt lat="55.076610" lon="-8.291550">
                <time>2019-06-14T13:27:37Z</time>
            </trkpt>
            <trkpt lat="55.076710" lon="-8.291430">
                <time>2019-06-14T13:27:38Z</time>
            </trkpt>
            <trkpt lat="55.076820" lon="-8.291300">
                <time>2019-06-14T13:27:39Z</time>
            </trkpt>
            <trkpt lat="55.076930" lon="-8.291170">
                <time>2019-06-14T13:27:40Z</time>
            </trkpt>
            <trkpt lat="55.077040" lon="-8.291050">
                <time>2019-06-14T13:27:41Z</time>
            </trkpt>
            <trkpt lat="55.077150" lon="-8.290920">
                <time>2019-06-14T13:27:42Z</time>
            </trkpt>
            <trkpt lat="55.077280" lon="-8.290810">
                <time>2019-06-14T13:27:43Z</time>
            </trkpt>
            <trkpt lat="55.077410" lon="-8.290660">
                <time>2019-06-14T13:27:44Z</time>
            </trkpt>
            <trkpt lat="55.077530" lon="-8.290530">
                <time>2019-06-14T13:27:45Z</time>
            </trkpt>
            <trkpt lat="55.077650" lon="-8.290410">
                <time>2019-06-14T13:27:46Z</time>
            </trkpt>
            <trkpt lat="55.077770" lon="-8.290300">
                <time>2019-06-14T13:27:47Z</time>
            </trkpt>
            <trkpt lat="55.077910" lon="-8.290190">
                <time>2019-06-14T13:27:48Z</time>
            </trkpt>
            <trkpt lat="55.078040" lon="-8.290110">
                <time>2019-06-14T13:27:49Z</time>
            </trkpt>
            <trkpt lat="55.078160" lon="-8.290040">
                <time>2019-06-14T13:27:50Z</time>
            </trkpt>
            <trkpt lat="55.078280" lon="-8.289960">
                <time>2019-06-14T13:27:51Z</time>
            </trkpt>
            <trkpt lat="55.078390" lon="-8.289900">
                <time>2019-06-14T13:27:52Z</time>
            </trkpt>
            <trkpt lat="55.078500" lon="-8.289830">
                <time>2019-06-14T13:27:53Z</time>
            </trkpt>
            <trkpt lat="55.078600" lon="-8.289770">
                <time>2019-06-14T13:27:54Z</time>
            </trkpt>
            <trkpt lat="55.078680" lon="-8.289730">
                <time>2019-06-14T13:27:55Z</time>
            </trkpt>
            <trkpt lat="55.078740" lon="-8.289710">
                <time>2019-06-14T13:27:56Z</time>
            </trkpt>
            <trkpt lat="55.078800" lon="-8.289690">
                <time>2019-06-14T13:27:57Z</time>
            </trkpt>
            <trkpt lat="55.078860" lon="-8.289680">
                <time>2019-06-14T13:27:58Z</time>
            </trkpt>
            <trkpt lat="55.078920" lon="-8.289670">
                <time>2019-06-14T13:27:59Z</time>
            </trkpt>
            <trkpt lat="55.079000" lon="-8.289670">
                <time>2019-06-14T13:28:00Z</time>
            </trkpt>
            <trkpt lat="55.079100" lon="-8.289680">
                <time>2019-06-14T13:28:01Z</time>
            </trkpt>
            <trkpt lat="55.079200" lon="-8.289690">
                <time>2019-06-14T13:28:02Z</time>
            </trkpt>
            <trkpt lat="55.079310" lon="-8.289710">
                <time>2019-06-14T13:28:03Z</time>
            </trkpt>
            <trkpt lat="55.079410" lon="-8.289750">
                <time>2019-06-14T13:28:04Z</time>
            </trkpt>
            <trkpt lat="55.079520" lon="-8.289830">
                <time>2019-06-14T13:28:05Z</time>
            </trkpt>
            <trkpt lat="55.079620" lon="-8.289950">
                <time>2019-06-14T13:28:06Z</time>
            </trkpt>
            <trkpt lat="55.079710" lon="-8.290080">
                <time>2019-06-14T13:28:07Z</time>
            </trkpt>
            <trkpt lat="55.079780" lon="-8.290210">
                <time>2019-06-14T13:28:08Z</time>
            </trkpt>
            <trkpt lat="55.079860" lon="-8.290320">
                <time>2019-06-14T13:28:09Z</time>
            </trkpt>
            <trkpt lat="55.079930" lon="-8.290440">
                <time>2019-06-14T13:28:10Z</time>
            </trkpt>
            <trkpt lat="55.080010" lon="-8.290550">
                <time>2019-06-14T13:28:11Z</time>
            </trkpt>
            <trkpt lat="55.080110" lon="-8.290660">
                <time>2019-06-14T13:28:12Z</time>
            </trkpt>
            <trkpt lat="55.080210" lon="-8.290730">
                <time>2019-06-14T13:28:13Z</time>
            </trkpt>
            <trkpt lat="55.080320" lon="-8.290760">
                <time>2019-06-14T13:28:14Z</time>
            </trkpt>
            <trkpt lat="55.080420" lon="-8.290770">
                <time>2019-06-14T13:28:15Z</time>
            </trkpt>
            <trkpt lat="55.080530" lon="-8.290760">
                <time>2019-06-14T13:28:16Z</time>
            </trkpt>
            <trkpt lat="55.080640" lon="-8.290740">
                <time>2019-06-14T13:28:17Z</time>
            </trkpt>
            <trkpt lat="55.080750" lon="-8.290730">
                <time>2019-06-14T13:28:18Z</time>
            </trkpt>
            <trkpt lat="55.080870" lon="-8.290720">
                <time>2019-06-14T13:28:19Z</time>
            </trkpt>
            <trkpt lat="55.080990" lon="-8.290700">
                <time>2019-06-14T13:28:20Z</time>
            </trkpt>
            <trkpt lat="55.081130" lon="-8.290690">
                <time>2019-06-14T13:28:21Z</time>
            </trkpt>
            <trkpt lat="55.081270" lon="-8.290670">
                <time>2019-06-14T13:28:22Z</time>
            </trkpt>
            <trkpt lat="55.081410" lon="-8.290650">
                <time>2019-06-14T13:28:23Z</time>
            </trkpt>
            <trkpt lat="55.081540" lon="-8.290640">
                <time>2019-06-14T13:28:24Z</time>
            </trkpt>
            <trkpt lat="55.081660" lon="-8.290620">
                <time>2019-06-14T13:28:25Z</time>
            </trkpt>
            <trkpt lat="55.081760" lon="-8.290610">
                <time>2019-06-14T13:28:26Z</time>
            </trkpt>
            <trkpt lat="55.081870" lon="-8.290590">
                <time>2019-06-14T13:28:27Z</time>
            </trkpt>
            <trkpt lat="55.081980" lon="-8.290580">
                <time>2019-06-14T13:28:28Z</time>
            </trkpt>
            <trkpt lat="55.082100" lon="-8.290560">
                <time>2019-06-14T13:28:29Z</time>
            </trkpt>
            <trkpt lat="55.082220" lon="-8.290540">
                <time>2019-06-14T13:28:30Z</time>
            </trkpt>
            <trkpt lat="55.082330" lon="-8.290520">
                <time>2019-06-14T13:28:31Z</time>
            </trkpt>
            <trkpt lat="55.082450" lon="-8.290490">
                <time>2019-06-14T13:28:32Z</time>
            </trkpt>
            <trkpt lat="55.082560" lon="-8.290470">
                <time>2019-06-14T13:28:33Z</time>
            </trkpt>
            <trkpt lat="55.082670" lon="-8.290460">
                <time>2019-06-14T13:28:34Z</time>
            </trkpt>
            <trkpt lat="55.082780" lon="-8.290440">
                <time>2019-06-14T13:28:35Z</time>
            </trkpt>
            <trkpt lat="55.082890" lon="-8.290430">
                <time>2019-06-14T13:28:36Z</time>
            </trkpt>
            <trkpt lat="55.083010" lon="-8.290400">
                <time>2019-06-14T13:28:37Z</time>
            </trkpt>
            <trkpt lat="55.083130" lon="-8.290350">
                <time>2019-06-14T13:28:38Z</time>
            </trkpt>
            <trkpt lat="55.083250" lon="-8.290290">
                <time>2019-06-14T13:28:39Z</time>
            </trkpt>
            <trkpt lat="55.083360" lon="-8.290220">
                <time>2019-06-14T13:28:40Z</time>
            </trkpt>
            <trkpt lat="55.083480" lon="-8.290160">
                <time>2019-06-14T13:28:41Z</time>
            </trkpt>
            <trkpt lat="55.083600" lon="-8.290120">
                <time>2019-06-14T13:28:42Z</time>
            </trkpt>
            <trkpt lat="55.083730" lon="-8.290070">
                <time>2019-06-14T13:28:43Z</time>
            </trkpt>
            <trkpt lat="55.083860" lon="-8.290040">
                <time>2019-06-14T13:28:44Z</time>
            </trkpt>
            <trkpt lat="55.084000" lon="-8.290010">
                <time>2019-06-14T13:28:45Z</time>
            </trkpt>
            <trkpt lat="55.084140" lon="-8.289980">
                <time>2019-06-14T13:28:46Z</time>
            </trkpt>
            <trkpt lat="55.084280" lon="-8.289950">
                <time>2019-06-14T13:28:47Z</time>
            </trkpt>
            <trkpt lat="55.084410" lon="-8.289920">
                <time>2019-06-14T13:28:48Z</time>
            </trkpt>
            <trkpt lat="55.084540" lon="-8.289880">
                <time>2019-06-14T13:28:49Z</time>
            </trkpt>
            <trkpt lat="55.084660" lon="-8.289860">
                <time>2019-06-14T13:28:50Z</time>
            </trkpt>
            <trkpt lat="55.084780" lon="-8.289830">
                <time>2019-06-14T13:28:51Z</time>
            </trkpt>
            <trkpt lat="55.084900" lon="-8.289810">
                <time>2019-06-14T13:28:52Z</time>
            </trkpt>
            <trkpt lat="55.085040" lon="-8.289780">
                <time>2019-06-14T13:28:53Z</time>
            </trkpt>
            <trkpt lat="55.085180" lon="-8.289750">
                <time>2019-06-14T13:28:54Z</time>
            </trkpt>
            <trkpt lat="55.085320" lon="-8.289720">
                <time>2019-06-14T13:28:55Z</time>
            </trkpt>
            <trkpt lat="55.085450" lon="-8.289700">
                <time>2019-06-14T13:28:56Z</time>
            </trkpt>
            <trkpt lat="55.085580" lon="-8.289660">
                <time>2019-06-14T13:28:57Z</time>
            </trkpt>
            <trkpt lat="55.085710" lon="-8.289630">
                <time>2019-06-14T13:28:58Z</time>
            </trkpt>
            <trkpt lat="55.085850" lon="-8.289600">
                <time>2019-06-14T13:28:59Z</time>
            </trkpt>
            <trkpt lat="55.085990" lon="-8.289570">
                <time>2019-06-14T13:29:00Z</time>
            </trkpt>
            <trkpt lat="55.086130" lon="-8.289550">
                <time>2019-06-14T13:29:01Z</time>
            </trkpt>
            <trkpt lat="55.086250" lon="-8.289520">
                <time>2019-06-14T13:29:02Z</time>
            </trkpt>
            <trkpt lat="55.086360" lon="-8.289500">
                <time>2019-06-14T13:29:03Z</time>
            </trkpt>
            <trkpt lat="55.086470" lon="-8.289470">
                <time>2019-06-14T13:29:04Z</time>
            </trkpt>
            <trkpt lat="55.086570" lon="-8.289450">
                <time>2019-06-14T13:29:05Z</time>
            </trkpt>
            <trkpt lat="55.086680" lon="-8.289420">
                <time>2019-06-14T13:29:06Z</time>
            </trkpt>
            <trkpt lat="55.086780" lon="-8.289400">
                <time>2019-06-14T13:29:07Z</time>
            </trkpt>
            <trkpt lat="55.086870" lon="-8.289380">
                <time>2019-06-14T13:29:08Z</time>
            </trkpt>
            <trkpt lat="55.086960" lon="-8.289360">
                <time>2019-06-14T13:29:09Z</time>
            </trkpt>
            <trkpt lat="55.087050" lon="-8.289330">
                <time>2019-06-14T13:29:10Z</time>
            </trkpt>
            <trkpt lat="55.087130" lon="-8.289310">
                <time>2019-06-14T13:29:11Z</time>
            </trkpt>
            <trkpt lat="55.087210" lon="-8.289300">
                <time>2019-06-14T13:29:12Z</time>
            </trkpt>
            <trkpt lat="55.087270" lon="-8.289280">
                <time>2019-06-14T13:29:13Z</time>
            </trkpt>
            <trkpt lat="55.087350" lon="-8.289270">
                <time>2019-06-14T13:29:14Z</time>
            </trkpt>
            <trkpt lat="55.087440" lon="-8.289250">
                <time>2019-06-14T13:29:15Z</time>
            </trkpt>
            <trkpt lat="55.087550" lon="-8.289220">
                <time>2019-06-14T13:29:16Z</time>
            </trkpt>
            <trkpt lat="55.087660" lon="-8.289190">
                <time>2019-06-14T13:29:17Z</time>
            </trkpt>
            <trkpt lat="55.087760" lon="-8.289180">
                <time>2019-06-14T13:29:18Z</time>
            </trkpt>
            <trkpt lat="55.087850" lon="-8.289160">
                <time>2019-06-14T13:29:19Z</time>
            </trkpt>
            <trkpt lat="55.087940" lon="-8.289140">
                <time>2019-06-14T13:29:20Z</time>
            </trkpt>
            <trkpt lat="55.088040" lon="-8.289100">
                <time>2019-06-14T13:29:21Z</time>
            </trkpt>
            <trkpt lat="55.088160" lon="-8.289040">
                <time>2019-06-14T13:29:22Z</time>
            </trkpt>
            <trkpt lat="55.088290" lon="-8.288940">
                <time>2019-06-14T13:29:23Z</time>
            </trkpt>
            <trkpt lat="55.088410" lon="-8.288800">
                <time>2019-06-14T13:29:24Z</time>
            </trkpt>
            <trkpt lat="55.088520" lon="-8.288660">
                <time>2019-06-14T13:29:25Z</time>
            </trkpt>
            <trkpt lat="55.088630" lon="-8.288530">
                <time>2019-06-14T13:29:26Z</time>
            </trkpt>
            <trkpt lat="55.088740" lon="-8.288400">
                <time>2019-06-14T13:29:27Z</time>
            </trkpt>
            <trkpt lat="55.088860" lon="-8.288250">
                <time>2019-06-14T13:29:28Z</time>
            </trkpt>
            <trkpt lat="55.088990" lon="-8.288100">
                <time>2019-06-14T13:29:29Z</time>
            </trkpt>
            <trkpt lat="55.089110" lon="-8.287960">
                <time>2019-06-14T13:29:30Z</time>
            </trkpt>
            <trkpt lat="55.089220" lon="-8.287820">
                <time>2019-06-14T13:29:31Z</time>
            </trkpt>
            <trkpt lat="55.089320" lon="-8.287700">
                <time>2019-06-14T13:29:32Z</time>
            </trkpt>
            <trkpt lat="55.089420" lon="-8.287570">
                <time>2019-06-14T13:29:33Z</time>
            </trkpt>
            <trkpt lat="55.089520" lon="-8.287430">
                <time>2019-06-14T13:29:34Z</time>
            </trkpt>
            <trkpt lat="55.089640" lon="-8.287290">
                <time>2019-06-14T13:29:35Z</time>
            </trkpt>
            <trkpt lat="55.089750" lon="-8.287160">
                <time>2019-06-14T13:29:36Z</time>
            </trkpt>
            <trkpt lat="55.089850" lon="-8.287030">
                <time>2019-06-14T13:29:37Z</time>
            </trkpt>
            <trkpt lat="55.089960" lon="-8.286900">
                <time>2019-06-14T13:29:38Z</time>
            </trkpt>
            <trkpt lat="55.090070" lon="-8.286770">
                <time>2019-06-14T13:29:39Z</time>
            </trkpt>
            <trkpt lat="55.090180" lon="-8.286630">
                <time>2019-06-14T13:29:40Z</time>
            </trkpt>
            <trkpt lat="55.090270" lon="-8.286510">
                <time>2019-06-14T13:29:41Z</time>
            </trkpt>
            <trkpt lat="55.090370" lon="-8.286390">
                <time>2019-06-14T13:29:42Z</time>
            </trkpt>
            <trkpt lat="55.090470" lon="-8.286270">
                <time>2019-06-14T13:29:43Z</time>
            </trkpt>
            <trkpt lat="55.090580" lon="-8.286140">
                <time>2019-06-14T13:29:44Z</time>
            </trkpt>
            <trkpt lat="55.090690" lon="-8.286000">
                <time>2019-06-14T13:29:45Z</time>
            </trkpt>
            <trkpt lat="55.090810" lon="-8.285860">
                <time>2019-06-14T13:29:46Z</time>
            </trkpt>
            <trkpt lat="55.090920" lon="-8.285730">
                <time>2019-06-14T13:29:47Z</time>
            </trkpt>
            <trkpt lat="55.091040" lon="-8.285580">
                <time>2019-06-14T13:29:48Z</time>
            </trkpt>
            <trkpt lat="55.091150" lon="-8.285440">
                <time>2019-06-14T13:29:49Z</time>
            </trkpt>
            <trkpt lat="55.091260" lon="-8.285290">
                <time>2019-06-14T13:29:50Z</time>
            </trkpt>
            <trkpt lat="55.091370" lon="-8.285150">
                <time>2019-06-14T13:29:51Z</time>
            </trkpt>
            <trkpt lat="55.091480" lon="-8.285020">
                <time>2019-06-14T13:29:52Z</time>
            </trkpt>
            <trkpt lat="55.091580" lon="-8.284890">
                <time>2019-06-14T13:29:53Z</time>
            </trkpt>
            <trkpt lat="55.091680" lon="-8.284780">
                <time>2019-06-14T13:29:54Z</time>
            </trkpt>
            <trkpt lat="55.091780" lon="-8.284660">
                <time>2019-06-14T13:29:55Z</time>
            </trkpt>
            <trkpt lat="55.091880" lon="-8.284540">
                <time>2019-06-14T13:29:56Z</time>
            </trkpt>
            <trkpt lat="55.091970" lon="-8.284420">
                <time>2019-06-14T13:29:57Z</time>
            </trkpt>
            <trkpt lat="55.092070" lon="-8.284310">
                <time>2019-06-14T13:29:58Z</time>
            </trkpt>
            <trkpt lat="55.092170" lon="-8.284230">
                <time>2019-06-14T13:29:59Z</time>
            </trkpt>
            <trkpt lat="55.092280" lon="-8.284170">
                <time>2019-06-14T13:30:00Z</time>
            </trkpt>
            <trkpt lat="55.092400" lon="-8.284160">
                <time>2019-06-14T13:30:01Z</time>
            </trkpt>
            <trkpt lat="55.092530" lon="-8.284180">
                <time>2019-06-14T13:30:02Z</time>
            </trkpt>
            <trkpt lat="55.092660" lon="-8.284220">
                <time>2019-06-14T13:30:03Z</time>
            </trkpt>
            <trkpt lat="55.092790" lon="-8.284230">
                <time>2019-06-14T13:30:04Z</time>
            </trkpt>
            <trkpt lat="55.092910" lon="-8.284210">
                <time>2019-06-14T13:30:05Z</time>
            </trkpt>
            <trkpt lat="55.093040" lon="-8.284180">
                <time>2019-06-14T13:30:06Z</time>
            </trkpt>
            <trkpt lat="55.093170" lon="-8.284120">
                <time>2019-06-14T13:30:07Z</time>
            </trkpt>
            <trkpt lat="55.093300" lon="-8.284050">
                <time>2019-06-14T13:30:08Z</time>
            </trkpt>
            <trkpt lat="55.093430" lon="-8.283960">
                <time>2019-06-14T13:30:09Z</time>
            </trkpt>
            <trkpt lat="55.093570" lon="-8.283850">
                <time>2019-06-14T13:30:10Z</time>
            </trkpt>
            <trkpt lat="55.093710" lon="-8.283700">
                <time>2019-06-14T13:30:11Z</time>
            </trkpt>
            <trkpt lat="55.093830" lon="-8.283520">
                <time>2019-06-14T13:30:12Z</time>
            </trkpt>
            <trkpt lat="55.093930" lon="-8.283320">
                <time>2019-06-14T13:30:13Z</time>
            </trkpt>
            <trkpt lat="55.094000" lon="-8.283110">
                <time>2019-06-14T13:30:14Z</time>
            </trkpt>
            <trkpt lat="55.094070" lon="-8.282910">
                <time>2019-06-14T13:30:15Z</time>
            </trkpt>
            <trkpt lat="55.094140" lon="-8.282730">
                <time>2019-06-14T13:30:16Z</time>
            </trkpt>
            <trkpt lat="55.094220" lon="-8.282620">
                <time>2019-06-14T13:30:17Z</time>
            </trkpt>
            <trkpt lat="55.094290" lon="-8.282590">
                <time>2019-06-14T13:30:18Z</time>
            </trkpt>
            <trkpt lat="55.094380" lon="-8.282620">
                <time>2019-06-14T13:30:19Z</time>
            </trkpt>
            <trkpt lat="55.094480" lon="-8.282690">
                <time>2019-06-14T13:30:20Z</time>
            </trkpt>
            <trkpt lat="55.094600" lon="-8.282780">
                <time>2019-06-14T13:30:21Z</time>
            </trkpt>
            <trkpt lat="55.094740" lon="-8.282890">
                <time>2019-06-14T13:30:22Z</time>
            </trkpt>
            <trkpt lat="55.094880" lon="-8.283010">
                <time>2019-06-14T13:30:23Z</time>
            </trkpt>
            <trkpt lat="55.095020" lon="-8.283140">
                <time>2019-06-14T13:30:24Z</time>
            </trkpt>
            <trkpt lat="55.095170" lon="-8.283270">
                <time>2019-06-14T13:30:25Z</time>
            </trkpt>
            <trkpt lat="55.095330" lon="-8.283390">
                <time>2019-06-14T13:30:26Z</time>
            </trkpt>
            <trkpt lat="55.095500" lon="-8.283520">
                <time>2019-06-14T13:30:27Z</time>
            </trkpt>
            <trkpt lat="55.095670" lon="-8.283600">
                <time>2019-06-14T13:30:28Z</time>
            </trkpt>
            <trkpt lat="55.095830" lon="-8.283670">
                <time>2019-06-14T13:30:29Z</time>
            </trkpt>
            <trkpt lat="55.095990" lon="-8.283740">
                <time>2019-06-14T13:30:30Z</time>
            </trkpt>
            <trkpt lat="55.096150" lon="-8.283830">
                <time>2019-06-14T13:30:31Z</time>
            </trkpt>
            <trkpt lat="55.096300" lon="-8.283910">
                <time>2019-06-14T13:30:32Z</time>
            </trkpt>
            <trkpt lat="55.096440" lon="-8.283990">
                <time>2019-06-14T13:30:33Z</time>
            </trkpt>
            <trkpt lat="55.096580" lon="-8.284080">
                <time>2019-06-14T13:30:34Z</time>
            </trkpt>
            <trkpt lat="55.096730" lon="-8.284170">
                <time>2019-06-14T13:30:35Z</time>
            </trkpt>
            <trkpt lat="55.096880" lon="-8.284270">
                <time>2019-06-14T13:30:36Z</time>
            </trkpt>
            <trkpt lat="55.097020" lon="-8.284370">
                <time>2019-06-14T13:30:37Z</time>
            </trkpt>
            <trkpt lat="55.097170" lon="-8.284470">
                <time>2019-06-14T13:30:38Z</time>
            </trkpt>
            <trkpt lat="55.097310" lon="-8.284570">
                <time>2019-06-14T13:30:39Z</time>
            </trkpt>
            <trkpt lat="55.097450" lon="-8.284670">
                <time>2019-06-14T13:30:40Z</time>
            </trkpt>
            <trkpt lat="55.097580" lon="-8.284800">
                <time>2019-06-14T13:30:41Z</time>
            </trkpt>
            <trkpt lat="55.097710" lon="-8.284960">
                <time>2019-06-14T13:30:42Z</time>
            </trkpt>
            <trkpt lat="55.097840" lon="-8.285130">
                <time>2019-06-14T13:30:43Z</time>
            </trkpt>
            <trkpt lat="55.097960" lon="-8.285310">
                <time>2019-06-14T13:30:44Z</time>
            </trkpt>
            <trkpt lat="55.098090" lon="-8.285510">
                <time>2019-06-14T13:30:45Z</time>
            </trkpt>
            <trkpt lat="55.098210" lon="-8.285720">
                <time>2019-06-14T13:30:46Z</time>
            </trkpt>
            <trkpt lat="55.098340" lon="-8.285920">
                <time>2019-06-14T13:30:47Z</time>
            </trkpt>
            <trkpt lat="55.098470" lon="-8.286130">
                <time>2019-06-14T13:30:48Z</time>
            </trkpt>
            <trkpt lat="55.098600" lon="-8.286320">
                <time>2019-06-14T13:30:49Z</time>
            </trkpt>
            <trkpt lat="55.098740" lon="-8.286510">
                <time>2019-06-14T13:30:50Z</time>
            </trkpt>
            <trkpt lat="55.098880" lon="-8.286710">
                <time>2019-06-14T13:30:51Z</time>
            </trkpt>
            <trkpt lat="55.099020" lon="-8.286910">
                <time>2019-06-14T13:30:52Z</time>
            </trkpt>
            <trkpt lat="55.099160" lon="-8.287110">
                <time>2019-06-14T13:30:53Z</time>
            </trkpt>
            <trkpt lat="55.099280" lon="-8.287310">
                <time>2019-06-14T13:30:54Z</time>
            </trkpt>
            <trkpt lat="55.099410" lon="-8.287490">
                <time>2019-06-14T13:30:55Z</time>
            </trkpt>
            <trkpt lat="55.099520" lon="-8.287630">
                <time>2019-06-14T13:30:56Z</time>
            </trkpt>
            <trkpt lat="55.099630" lon="-8.287750">
                <time>2019-06-14T13:30:57Z</time>
            </trkpt>
            <trkpt lat="55.099750" lon="-8.287840">
                <time>2019-06-14T13:30:58Z</time>
            </trkpt>
            <trkpt lat="55.099870" lon="-8.287880">
                <time>2019-06-14T13:30:59Z</time>
            </trkpt>
            <trkpt lat="55.100000" lon="-8.287880">
                <time>2019-06-14T13:31:00Z</time>
            </trkpt>
            <trkpt lat="55.100130" lon="-8.287850">
                <time>2019-06-14T13:31:01Z</time>
            </trkpt>
            <trkpt lat="55.100270" lon="-8.287810">
                <time>2019-06-14T13:31:02Z</time>
            </trkpt>
            <trkpt lat="55.100420" lon="-8.287750">
                <time>2019-06-14T13:31:03Z</time>
            </trkpt>
            <trkpt lat="55.100560" lon="-8.287690">
                <time>2019-06-14T13:31:04Z</time>
            </trkpt>
            <trkpt lat="55.100700" lon="-8.287640">
                <time>2019-06-14T13:31:05Z</time>
            </trkpt>
            <trkpt lat="55.100840" lon="-8.287580">
                <time>2019-06-14T13:31:06Z</time>
            </trkpt>
            <trkpt lat="55.100990" lon="-8.287520">
                <time>2019-06-14T13:31:07Z</time>
            </trkpt>
            <trkpt lat="55.101130" lon="-8.287460">
                <time>2019-06-14T13:31:08Z</time>
            </trkpt>
            <trkpt lat="55.101270" lon="-8.287400">
                <time>2019-06-14T13:31:09Z</time>
            </trkpt>
            <trkpt lat="55.101410" lon="-8.287340">
                <time>2019-06-14T13:31:10Z</time>
            </trkpt>
            <trkpt lat="55.101560" lon="-8.287270">
                <time>2019-06-14T13:31:11Z</time>
            </trkpt>
            <trkpt lat="55.101700" lon="-8.287220">
                <time>2019-06-14T13:31:12Z</time>
            </trkpt>
            <trkpt lat="55.101850" lon="-8.287150">
                <time>2019-06-14T13:31:13Z</time>
            </trkpt>
            <trkpt lat="55.102010" lon="-8.287090">
                <time>2019-06-14T13:31:14Z</time>
            </trkpt>
            <trkpt lat="55.102170" lon="-8.287020">
                <time>2019-06-14T13:31:15Z</time>
            </trkpt>
            <trkpt lat="55.102330" lon="-8.286960">
                <time>2019-06-14T13:31:16Z</time>
            </trkpt>
            <trkpt lat="55.102500" lon="-8.286880">
                <time>2019-06-14T13:31:17Z</time>
            </trkpt>
            <trkpt lat="55.102670" lon="-8.286790">
                <time>2019-06-14T13:31:18Z</time>
            </trkpt>
            <trkpt lat="55.102840" lon="-8.286690">
                <time>2019-06-14T13:31:19Z</time>
            </trkpt>
            <trkpt lat="55.103000" lon="-8.286570">
                <time>2019-06-14T13:31:20Z</time>
            </trkpt>
            <trkpt lat="55.103160" lon="-8.286460">
                <time>2019-06-14T13:31:21Z</time>
            </trkpt>
            <trkpt lat="55.103320" lon="-8.286350">
                <time>2019-06-14T13:31:22Z</time>
            </trkpt>
            <trkpt lat="55.103480" lon="-8.286250">
                <time>2019-06-14T13:31:23Z</time>
            </trkpt>
            <trkpt lat="55.103630" lon="-8.286150">
                <time>2019-06-14T13:31:24Z</time>
            </trkpt>
            <trkpt lat="55.103790" lon="-8.286070">
                <time>2019-06-14T13:31:25Z</time>
            </trkpt>
            <trkpt lat="55.103950" lon="-8.286030">
                <time>2019-06-14T13:31:26Z</time>
            </trkpt>
            <trkpt lat="55.104120" lon="-8.286030">
                <time>2019-06-14T13:31:27Z</time>
            </trkpt>
            <trkpt lat="55.104300" lon="-8.286060">
                <time>2019-06-14T13:31:28Z</time>
            </trkpt>
            <trkpt lat="55.104490" lon="-8.286110">
                <time>2019-06-14T13:31:29Z</time>
            </trkpt>
            <trkpt lat="55.104670" lon="-8.286170">
                <time>2019-06-14T13:31:30Z</time>
            </trkpt>
            <trkpt lat="55.104840" lon="-8.286220">
                <time>2019-06-14T13:31:31Z</time>
            </trkpt>
            <trkpt lat="55.105010" lon="-8.286260">
                <time>2019-06-14T13:31:32Z</time>
            </trkpt>
            <trkpt lat="55.105160" lon="-8.286310">
                <time>2019-06-14T13:31:33Z</time>
            </trkpt>
            <trkpt lat="55.105320" lon="-8.286350">
                <time>2019-06-14T13:31:34Z</time>
            </trkpt>
            <trkpt lat="55.105490" lon="-8.286400">
                <time>2019-06-14T13:31:35Z</time>
            </trkpt>
            <trkpt lat="55.105660" lon="-8.286460">
                <time>2019-06-14T13:31:36Z</time>
            </trkpt>
            <trkpt lat="55.105830" lon="-8.286550">
                <time>2019-06-14T13:31:37Z</time>
            </trkpt>
            <trkpt lat="55.105990" lon="-8.286670">
                <time>2019-06-14T13:31:38Z</time>
            </trkpt>
            <trkpt lat="55.106140" lon="-8.286830">
                <time>2019-06-14T13:31:39Z</time>
            </trkpt>
            <trkpt lat="55.106280" lon="-8.286990">
                <time>2019-06-14T13:31:40Z</time>
            </trkpt>
            <trkpt lat="55.106400" lon="-8.287160">
                <time>2019-06-14T13:31:41Z</time>
            </trkpt>
            <trkpt lat="55.106520" lon="-8.287310">
                <time>2019-06-14T13:31:42Z</time>
            </trkpt>
            <trkpt lat="55.106640" lon="-8.287470">
                <time>2019-06-14T13:31:43Z</time>
            </trkpt>
            <trkpt lat="55.106740" lon="-8.287660">
                <time>2019-06-14T13:31:44Z</time>
            </trkpt>
            <trkpt lat="55.106830" lon="-8.287860">
                <time>2019-06-14T13:31:45Z</time>
            </trkpt>
            <trkpt lat="55.106900" lon="-8.288050">
                <time>2019-06-14T13:31:46Z</time>
            </trkpt>
            <trkpt lat="55.106980" lon="-8.288220">
                <time>2019-06-14T13:31:47Z</time>
            </trkpt>
            <trkpt lat="55.107080" lon="-8.288340">
                <time>2019-06-14T13:31:48Z</time>
            </trkpt>
            <trkpt lat="55.107180" lon="-8.288430">
                <time>2019-06-14T13:31:49Z</time>
            </trkpt>
            <trkpt lat="55.107300" lon="-8.288460">
                <time>2019-06-14T13:31:50Z</time>
            </trkpt>
            <trkpt lat="55.107430" lon="-8.288430">
                <time>2019-06-14T13:31:51Z</time>
            </trkpt>
            <trkpt lat="55.107560" lon="-8.288390">
                <time>2019-06-14T13:31:52Z</time>
            </trkpt>
            <trkpt lat="55.107720" lon="-8.288350">
                <time>2019-06-14T13:31:53Z</time>
            </trkpt>
            <trkpt lat="55.107880" lon="-8.288310">
                <time>2019-06-14T13:31:54Z</time>
            </trkpt>
            <trkpt lat="55.108050" lon="-8.288250">
                <time>2019-06-14T13:31:55Z</time>
            </trkpt>
            <trkpt lat="55.108240" lon="-8.288200">
                <time>2019-06-14T13:31:56Z</time>
            </trkpt>
            <trkpt lat="55.108410" lon="-8.288160">
                <time>2019-06-14T13:31:57Z</time>
            </trkpt>
            <trkpt lat="55.108560" lon="-8.288120">
                <time>2019-06-14T13:31:58Z</time>
            </trkpt>
            <trkpt lat="55.108680" lon="-8.288080">
                <time>2019-06-14T13:31:59Z</time>
            </trkpt>
            <trkpt lat="55.108750" lon="-8.288060">
                <time>2019-06-14T13:32:00Z</time>
            </trkpt>
            <trkpt lat="55.108810" lon="-8.288050">
                <time>2019-06-14T13:32:01Z</time>
            </trkpt>
            <trkpt lat="55.108870" lon="-8.288030">
                <time>2019-06-14T13:32:02Z</time>
            </trkpt>
            <trkpt lat="55.108920" lon="-8.288020">
                <time>2019-06-14T13:32:03Z</time>
            </trkpt>
            <trkpt lat="55.108970" lon="-8.288000">
                <time>2019-06-14T13:32:04Z</time>
            </trkpt>
            <trkpt lat="55.109030" lon="-8.287990">
                <time>2019-06-14T13:32:05Z</time>
            </trkpt>
            <trkpt lat="55.109100" lon="-8.287980">
                <time>2019-06-14T13:32:06Z</time>
            </trkpt>
            <trkpt lat="55.109180" lon="-8.287950">
                <time>2019-06-14T13:32:07Z</time>
            </trkpt>
            <trkpt lat="55.109280" lon="-8.287920">
                <time>2019-06-14T13:32:08Z</time>
            </trkpt>
            <trkpt lat="55.109380" lon="-8.287900">
                <time>2019-06-14T13:32:09Z</time>
            </trkpt>
            <trkpt lat="55.109480" lon="-8.287860">
                <time>2019-06-14T13:32:10Z</time>
            </trkpt>
            <trkpt lat="55.109610" lon="-8.287820">
                <time>2019-06-14T13:32:11Z</time>
            </trkpt>
            <trkpt lat="55.109740" lon="-8.287790">
                <time>2019-06-14T13:32:12Z</time>
            </trkpt>
            <trkpt lat="55.109890" lon="-8.287750">
                <time>2019-06-14T13:32:13Z</time>
            </trkpt>
            <trkpt lat="55.110050" lon="-8.287710">
                <time>2019-06-14T13:32:14Z</time>
            </trkpt>
            <trkpt lat="55.110220" lon="-8.287660">
                <time>2019-06-14T13:32:15Z</time>
            </trkpt>
            <trkpt lat="55.110380" lon="-8.287620">
                <time>2019-06-14T13:32:16Z</time>
            </trkpt>
            <trkpt lat="55.110540" lon="-8.287580">
                <time>2019-06-14T13:32:17Z</time>
            </trkpt>
            <trkpt lat="55.110690" lon="-8.287540">
                <time>2019-06-14T13:32:18Z</time>
            </trkpt>
            <trkpt lat="55.110850" lon="-8.287490">
                <time>2019-06-14T13:32:19Z</time>
            </trkpt>
            <trkpt lat="55.111000" lon="-8.287460">
                <time>2019-06-14T13:32:20Z</time>
            </trkpt>
            <trkpt lat="55.111160" lon="-8.287440">
                <time>2019-06-14T13:32:21Z</time>
            </trkpt>
            <trkpt lat="55.111300" lon="-8.287450">
                <time>2019-06-14T13:32:22Z</time>
            </trkpt>
            <trkpt lat="55.111430" lon="-8.287500">
                <time>2019-06-14T13:32:23Z</time>
            </trkpt>
            <trkpt lat="55.111540" lon="-8.287580">
                <time>2019-06-14T13:32:24Z</time>
            </trkpt>
            <trkpt lat="55.111640" lon="-8.287680">
                <time>2019-06-14T13:32:25Z</time>
            </trkpt>
            <trkpt lat="55.111750" lon="-8.287790">
                <time>2019-06-14T13:32:26Z</time>
            </trkpt>
            <trkpt lat="55.111850" lon="-8.287940">
                <time>2019-06-14T13:32:27Z</time>
            </trkpt>
            <trkpt lat="55.111950" lon="-8.288130">
                <time>2019-06-14T13:32:28Z</time>
            </trkpt>
            <trkpt lat="55.112040" lon="-8.288320">
                <time>2019-06-14T13:32:29Z</time>
            </trkpt>
            <trkpt lat="55.112140" lon="-8.288520">
                <time>2019-06-14T13:32:30Z</time>
            </trkpt>
            <trkpt lat="55.112250" lon="-8.288730">
                <time>2019-06-14T13:32:31Z</time>
            </trkpt>
            <trkpt lat="55.112370" lon="-8.288940">
                <time>2019-06-14T13:32:32Z</time>
            </trkpt>
            <trkpt lat="55.112480" lon="-8.289140">
                <time>2019-06-14T13:32:33Z</time>
            </trkpt>
            <trkpt lat="55.112590" lon="-8.289320">
                <time>2019-06-14T13:32:34Z</time>
            </trkpt>
            <trkpt lat="55.112690" lon="-8.289490">
                <time>2019-06-14T13:32:35Z</time>
            </trkpt>
            <trkpt lat="55.112790" lon="-8.289650">
                <time>2019-06-14T13:32:36Z</time>
            </trkpt>
            <trkpt lat="55.112910" lon="-8.289780">
                <time>2019-06-14T13:32:37Z</time>
            </trkpt>
            <trkpt lat="55.113030" lon="-8.289870">
                <time>2019-06-14T13:32:38Z</time>
            </trkpt>
            <trkpt lat="55.113170" lon="-8.289910">
                <time>2019-06-14T13:32:39Z</time>
            </trkpt>
            <trkpt lat="55.113300" lon="-8.289910">
                <time>2019-06-14T13:32:40Z</time>
            </trkpt>
            <trkpt lat="55.113450" lon="-8.289880">
                <time>2019-06-14T13:32:41Z</time>
            </trkpt>
            <trkpt lat="55.113590" lon="-8.289810">
                <time>2019-06-14T13:32:42Z</time>
            </trkpt>
            <trkpt lat="55.113740" lon="-8.289710">
                <time>2019-06-14T13:32:43Z</time>
            </trkpt>
            <trkpt lat="55.113890" lon="-8.289610">
                <time>2019-06-14T13:32:44Z</time>
            </trkpt>
            <trkpt lat="55.114050" lon="-8.289500">
                <time>2019-06-14T13:32:45Z</time>
            </trkpt>
            <trkpt lat="55.114200" lon="-8.289400">
                <time>2019-06-14T13:32:46Z</time>
            </trkpt>
            <trkpt lat="55.114350" lon="-8.289280">
                <time>2019-06-14T13:32:47Z</time>
            </trkpt>
            <trkpt lat="55.114490" lon="-8.289170">
                <time>2019-06-14T13:32:48Z</time>
            </trkpt>
            <trkpt lat="55.114640" lon="-8.289050">
                <time>2019-06-14T13:32:49Z</time>
            </trkpt>
            <trkpt lat="55.114770" lon="-8.288920">
                <time>2019-06-14T13:32:50Z</time>
            </trkpt>
            <trkpt lat="55.114890" lon="-8.288780">
                <time>2019-06-14T13:32:51Z</time>
            </trkpt>
            <trkpt lat="55.114990" lon="-8.288610">
                <time>2019-06-14T13:32:52Z</time>
            </trkpt>
            <trkpt lat="55.115080" lon="-8.288420">
                <time>2019-06-14T13:32:53Z</time>
            </trkpt>
            <trkpt lat="55.115140" lon="-8.288210">
                <time>2019-06-14T13:32:54Z</time>
            </trkpt>
            <trkpt lat="55.115180" lon="-8.288000">
                <time>2019-06-14T13:32:55Z</time>
            </trkpt>
            <trkpt lat="55.115210" lon="-8.287790">
                <time>2019-06-14T13:32:56Z</time>
            </trkpt>
            <trkpt lat="55.115260" lon="-8.287620">
                <time>2019-06-14T13:32:57Z</time>
            </trkpt>
            <trkpt lat="55.115320" lon="-8.287480">
                <time>2019-06-14T13:32:58Z</time>
            </trkpt>
            <trkpt lat="55.115410" lon="-8.287360">
                <time>2019-06-14T13:32:59Z</time>
            </trkpt>
            <trkpt lat="55.115520" lon="-8.287260">
                <time>2019-06-14T13:33:00Z</time>
            </trkpt>
            <trkpt lat="55.115630" lon="-8.287160">
                <time>2019-06-14T13:33:01Z</time>
            </trkpt>
            <trkpt lat="55.115760" lon="-8.287080">
                <time>2019-06-14T13:33:02Z</time>
            </trkpt>
            <trkpt lat="55.115870" lon="-8.286980">
                <time>2019-06-14T13:33:03Z</time>
            </trkpt>
            <trkpt lat="55.115980" lon="-8.286830">
                <time>2019-06-14T13:33:04Z</time>
            </trkpt>
            <trkpt lat="55.116070" lon="-8.286650">
                <time>2019-06-14T13:33:05Z</time>
            </trkpt>
            <trkpt lat="55.116170" lon="-8.286470">
                <time>2019-06-14T13:33:06Z</time>
            </trkpt>
            <trkpt lat="55.116280" lon="-8.286270">
                <time>2019-06-14T13:33:07Z</time>
            </trkpt>
            <trkpt lat="55.116390" lon="-8.286070">
                <time>2019-06-14T13:33:08Z</time>
            </trkpt>
            <trkpt lat="55.116500" lon="-8.285860">
                <time>2019-06-14T13:33:09Z</time>
            </trkpt>
            <trkpt lat="55.116610" lon="-8.285660">
                <time>2019-06-14T13:33:10Z</time>
            </trkpt>
            <trkpt lat="55.116710" lon="-8.285460">
                <time>2019-06-14T13:33:11Z</time>
            </trkpt>
            <trkpt lat="55.116800" lon="-8.285290">
                <time>2019-06-14T13:33:12Z</time>
            </trkpt>
            <trkpt lat="55.116890" lon="-8.285130">
                <time>2019-06-14T13:33:13Z</time>
            </trkpt>
            <trkpt lat="55.117000" lon="-8.284990">
                <time>2019-06-14T13:33:14Z</time>
            </trkpt>
            <trkpt lat="55.117120" lon="-8.284860">
                <time>2019-06-14T13:33:15Z</time>
            </trkpt>
            <trkpt lat="55.117250" lon="-8.284770">
                <time>2019-06-14T13:33:16Z</time>
            </trkpt>
            <trkpt lat="55.117390" lon="-8.284700">
                <time>2019-06-14T13:33:17Z</time>
            </trkpt>
            <trkpt lat="55.117530" lon="-8.284660">
                <time>2019-06-14T13:33:18Z</time>
            </trkpt>
            <trkpt lat="55.117670" lon="-8.284640">
                <time>2019-06-14T13:33:19Z</time>
            </trkpt>
            <trkpt lat="55.117820" lon="-8.284650">
                <time>2019-06-14T13:33:20Z</time>
            </trkpt>
            <trkpt lat="55.117980" lon="-8.284670">
                <time>2019-06-14T13:33:21Z</time>
            </trkpt>
            <trkpt lat="55.118130" lon="-8.284690">
                <time>2019-06-14T13:33:22Z</time>
            </trkpt>
            <trkpt lat="55.118280" lon="-8.284700">
                <time>2019-06-14T13:33:23Z</time>
            </trkpt>
            <trkpt lat="55.118430" lon="-8.284720">
                <time>2019-06-14T13:33:24Z</time>
            </trkpt>
            <trkpt lat="55.118590" lon="-8.284730">
                <time>2019-06-14T13:33:25Z</time>
            </trkpt>
            <trkpt lat="55.118740" lon="-8.284750">
                <time>2019-06-14T13:33:26Z</time>
            </trkpt>
            <trkpt lat="55.118870" lon="-8.284810">
                <time>2019-06-14T13:33:27Z</time>
            </trkpt>
            <trkpt lat="55.118970" lon="-8.284910">
                <time>2019-06-14T13:33:28Z</time>
            </trkpt>
            <trkpt lat="55.119070" lon="-8.285050">
                <time>2019-06-14T13:33:29Z</time>
            </trkpt>
            <trkpt lat="55.119160" lon="-8.285230">
                <time>2019-06-14T13:33:30Z</time>
            </trkpt>
            <trkpt lat="55.119250" lon="-8.285440">
                <time>2019-06-14T13:33:31Z</time>
            </trkpt>
            <trkpt lat="55.119340" lon="-8.285680">
                <time>2019-06-14T13:33:32Z</time>
            </trkpt>
            <trkpt lat="55.119420" lon="-8.285930">
                <time>2019-06-14T13:33:33Z</time>
            </trkpt>
            <trkpt lat="55.119490" lon="-8.286180">
                <time>2019-06-14T13:33:34Z</time>
            </trkpt>
            <trkpt lat="55.119540" lon="-8.286440">
                <time>2019-06-14T13:33:35Z</time>
            </trkpt>
            <trkpt lat="55.119580" lon="-8.286690">
                <time>2019-06-14T13:33:36Z</time>
            </trkpt>
            <trkpt lat="55.119630" lon="-8.286900">
                <time>2019-06-14T13:33:37Z</time>
            </trkpt>
            <trkpt lat="55.119690" lon="-8.287080">
                <time>2019-06-14T13:33:38Z</time>
            </trkpt>
            <trkpt lat="55.119770" lon="-8.287230">
                <time>2019-06-14T13:33:39Z</time>
            </trkpt>
            <trkpt lat="55.119870" lon="-8.287330">
                <time>2019-06-14T13:33:40Z</time>
            </trkpt>
            <trkpt lat="55.119980" lon="-8.287390">
                <time>2019-06-14T13:33:41Z</time>
            </trkpt>
            <trkpt lat="55.120110" lon="-8.287420">
                <time>2019-06-14T13:33:42Z</time>
            </trkpt>
            <trkpt lat="55.120240" lon="-8.287420">
                <time>2019-06-14T13:33:43Z</time>
            </trkpt>
            <trkpt lat="55.120390" lon="-8.287410">
                <time>2019-06-14T13:33:44Z</time>
            </trkpt>
            <trkpt lat="55.120540" lon="-8.287390">
                <time>2019-06-14T13:33:45Z</time>
            </trkpt>
            <trkpt lat="55.120700" lon="-8.287390">
                <time>2019-06-14T13:33:46Z</time>
            </trkpt>
            <trkpt lat="55.120860" lon="-8.287400">
                <time>2019-06-14T13:33:47Z</time>
            </trkpt>
            <trkpt lat="55.121010" lon="-8.287450">
                <time>2019-06-14T13:33:48Z</time>
            </trkpt>
            <trkpt lat="55.121160" lon="-8.287520">
                <time>2019-06-14T13:33:49Z</time>
            </trkpt>
            <trkpt lat="55.121300" lon="-8.287590">
                <time>2019-06-14T13:33:50Z</time>
            </trkpt>
            <trkpt lat="55.121430" lon="-8.287660">
                <time>2019-06-14T13:33:51Z</time>
            </trkpt>
            <trkpt lat="55.121570" lon="-8.287720">
                <time>2019-06-14T13:33:52Z</time>
            </trkpt>
            <trkpt lat="55.121710" lon="-8.287780">
                <time>2019-06-14T13:33:53Z</time>
            </trkpt>
            <trkpt lat="55.121850" lon="-8.287830">
                <time>2019-06-14T13:33:54Z</time>
            </trkpt>
            <trkpt lat="55.121980" lon="-8.287850">
                <time>2019-06-14T13:33:55Z</time>
            </trkpt>
            <trkpt lat="55.122090" lon="-8.287850">
                <time>2019-06-14T13:33:56Z</time>
            </trkpt>
            <trkpt lat="55.122210" lon="-8.287840">
                <time>2019-06-14T13:33:57Z</time>
            </trkpt>
            <trkpt lat="55.122320" lon="-8.287820">
                <time>2019-06-14T13:33:58Z</time>
            </trkpt>
            <trkpt lat="55.122430" lon="-8.287790">
                <time>2019-06-14T13:33:59Z</time>
            </trkpt>
            <trkpt lat="55.122540" lon="-8.287760">
                <time>2019-06-14T13:34:00Z</time>
            </trkpt>
            <trkpt lat="55.122650" lon="-8.287720">
                <time>2019-06-14T13:34:01Z</time>
            </trkpt>
            <trkpt lat="55.122760" lon="-8.287660">
                <time>2019-06-14T13:34:02Z</time>
            </trkpt>
            <trkpt lat="55.122850" lon="-8.287570">
                <time>2019-06-14T13:34:03Z</time>
            </trkpt>
            <trkpt lat="55.122930" lon="-8.287450">
                <time>2019-06-14T13:34:04Z</time>
            </trkpt>
            <trkpt lat="55.123010" lon="-8.287300">
                <time>2019-06-14T13:34:05Z</time>
            </trkpt>
            <trkpt lat="55.123100" lon="-8.287140">
                <time>2019-06-14T13:34:06Z</time>
            </trkpt>
            <trkpt lat="55.123180" lon="-8.286980">
                <time>2019-06-14T13:34:07Z</time>
            </trkpt>
            <trkpt lat="55.123270" lon="-8.286810">
                <time>2019-06-14T13:34:08Z</time>
            </trkpt>
            <trkpt lat="55.123350" lon="-8.286650">
                <time>2019-06-14T13:34:09Z</time>
            </trkpt>
            <trkpt lat="55.123440" lon="-8.286520">
                <time>2019-06-14T13:34:10Z</time>
            </trkpt>
            <trkpt lat="55.123540" lon="-8.286410">
                <time>2019-06-14T13:34:11Z</time>
            </trkpt>
            <trkpt lat="55.123640" lon="-8.286330">
                <time>2019-06-14T13:34:12Z</time>
            </trkpt>
            <trkpt lat="55.123750" lon="-8.286260">
                <time>2019-06-14T13:34:13Z</time>
            </trkpt>
            <trkpt lat="55.123860" lon="-8.286190">
                <time>2019-06-14T13:34:14Z</time>
            </trkpt>
            <trkpt lat="55.123980" lon="-8.286130">
                <time>2019-06-14T13:34:15Z</time>
            </trkpt>
            <trkpt lat="55.124100" lon="-8.286050">
                <time>2019-06-14T13:34:16Z</time>
            </trkpt>
            <trkpt lat="55.124240" lon="-8.285950">
                <time>2019-06-14T13:34:17Z</time>
            </trkpt>
            <trkpt lat="55.124370" lon="-8.285840">
                <time>2019-06-14T13:34:18Z</time>
            </trkpt>
            <trkpt lat="55.124480" lon="-8.285720">
                <time>2019-06-14T13:34:19Z</time>
            </trkpt>
            <trkpt lat="55.124590" lon="-8.285610">
                <time>2019-06-14T13:34:20Z</time>
            </trkpt>
            <trkpt lat="55.124680" lon="-8.285530">
                <time>2019-06-14T13:34:21Z</time>
            </trkpt>
            <trkpt lat="55.124780" lon="-8.285470">
                <time>2019-06-14T13:34:22Z</time>
            </trkpt>
            <trkpt lat="55.124890" lon="-8.285470">
                <time>2019-06-14T13:34:23Z</time>
            </trkpt>
            <trkpt lat="55.125000" lon="-8.285510">
                <time>2019-06-14T13:34:24Z</time>
            </trkpt>
            <trkpt lat="55.125110" lon="-8.285560">
                <time>2019-06-14T13:34:25Z</time>
            </trkpt>
            <trkpt lat="55.125220" lon="-8.285600">
                <time>2019-06-14T13:34:26Z</time>
            </trkpt>
            <trkpt lat="55.125340" lon="-8.285650">
                <time>2019-06-14T13:34:27Z</time>
            </trkpt>
            <trkpt lat="55.125460" lon="-8.285700">
                <time>2019-06-14T13:34:28Z</time>
            </trkpt>
            <trkpt lat="55.125590" lon="-8.285750">
                <time>2019-06-14T13:34:29Z</time>
            </trkpt>
            <trkpt lat="55.125730" lon="-8.285800">
                <time>2019-06-14T13:34:30Z</time>
            </trkpt>
            <trkpt lat="55.125870" lon="-8.285850">
                <time>2019-06-14T13:34:31Z</time>
            </trkpt>
            <trkpt lat="55.126030" lon="-8.285890">
                <time>2019-06-14T13:34:32Z</time>
            </trkpt>
            <trkpt lat="55.126210" lon="-8.285940">
                <time>2019-06-14T13:34:33Z</time>
            </trkpt>
            <trkpt lat="55.126370" lon="-8.285990">
                <time>2019-06-14T13:34:34Z</time>
            </trkpt>
            <trkpt lat="55.126520" lon="-8.286030">
                <time>2019-06-14T13:34:35Z</time>
            </trkpt>
            <trkpt lat="55.126660" lon="-8.286010">
                <time>2019-06-14T13:34:36Z</time>
            </trkpt>
            <trkpt lat="55.126790" lon="-8.285940">
                <time>2019-06-14T13:34:37Z</time>
            </trkpt>
            <trkpt lat="55.126910" lon="-8.285810">
                <time>2019-06-14T13:34:38Z</time>
            </trkpt>
            <trkpt lat="55.127020" lon="-8.285630">
                <time>2019-06-14T13:34:39Z</time>
            </trkpt>
            <trkpt lat="55.127110" lon="-8.285440">
                <time>2019-06-14T13:34:40Z</time>
            </trkpt>
            <trkpt lat="55.127190" lon="-8.285250">
                <time>2019-06-14T13:34:41Z</time>
            </trkpt>
            <trkpt lat="55.127250" lon="-8.285060">
                <time>2019-06-14T13:34:42Z</time>
            </trkpt>
            <trkpt lat="55.127290" lon="-8.284850">
                <time>2019-06-14T13:34:43Z</time>
            </trkpt>
            <trkpt lat="55.127310" lon="-8.284610">
                <time>2019-06-14T13:34:44Z</time>
            </trkpt>
            <trkpt lat="55.127300" lon="-8.284370">
                <time>2019-06-14T13:34:45Z</time>
            </trkpt>
            <trkpt lat="55.127270" lon="-8.284150">
                <time>2019-06-14T13:34:46Z</time>
            </trkpt>
            <trkpt lat="55.127220" lon="-8.283910">
                <time>2019-06-14T13:34:47Z</time>
            </trkpt>
            <trkpt lat="55.127170" lon="-8.283670">
                <time>2019-06-14T13:34:48Z</time>
            </trkpt>
            <trkpt lat="55.127120" lon="-8.283420">
                <time>2019-06-14T13:34:49Z</time>
            </trkpt>
            <trkpt lat="55.127070" lon="-8.283160">
                <time>2019-06-14T13:34:50Z</time>
            </trkpt>
            <trkpt lat="55.127010" lon="-8.282930">
                <time>2019-06-14T13:34:51Z</time>
            </trkpt>
            <trkpt lat="55.126970" lon="-8.282700">
                <time>2019-06-14T13:34:52Z</time>
            </trkpt>
            <trkpt lat="55.126930" lon="-8.282460">
                <time>2019-06-14T13:34:53Z</time>
            </trkpt>
            <trkpt lat="55.126890" lon="-8.282220">
                <time>2019-06-14T13:34:54Z</time>
            </trkpt>
            <trkpt lat="55.126870" lon="-8.281970">
                <time>2019-06-14T13:34:55Z</time>
            </trkpt>
            <trkpt lat="55.126840" lon="-8.281730">
                <time>2019-06-14T13:34:56Z</time>
            </trkpt>
            <trkpt lat="55.126820" lon="-8.281490">
                <time>2019-06-14T13:34:57Z</time>
            </trkpt>
            <trkpt lat="55.126830" lon="-8.281280">
                <time>2019-06-14T13:34:58Z</time>
            </trkpt>
            <trkpt lat="55.126880" lon="-8.281100">
                <time>2019-06-14T13:34:59Z</time>
            </trkpt>
            <trkpt lat="55.126980" lon="-8.280960">
                <time>2019-06-14T13:35:00Z</time>
            </trkpt>
            <trkpt lat="55.127090" lon="-8.280840">
                <time>2019-06-14T13:35:01Z</time>
            </trkpt>
            <trkpt lat="55.127220" lon="-8.280720">
                <time>2019-06-14T13:35:02Z</time>
            </trkpt>
            <trkpt lat="55.127350" lon="-8.280590">
                <time>2019-06-14T13:35:03Z</time>
            </trkpt>
            <trkpt lat="55.127490" lon="-8.280460">
                <time>2019-06-14T13:35:04Z</time>
            </trkpt>
            <trkpt lat="55.127630" lon="-8.280330">
                <time>2019-06-14T13:35:05Z</time>
            </trkpt>
            <trkpt lat="55.127780" lon="-8.280190">
                <time>2019-06-14T13:35:06Z</time>
            </trkpt>
            <trkpt lat="55.127940" lon="-8.280060">
                <time>2019-06-14T13:35:07Z</time>
            </trkpt>
            <trkpt lat="55.128090" lon="-8.279940">
                <time>2019-06-14T13:35:08Z</time>
            </trkpt>
            <trkpt lat="55.128240" lon="-8.279840">
                <time>2019-06-14T13:35:09Z</time>
            </trkpt>
            <trkpt lat="55.128390" lon="-8.279750">
                <time>2019-06-14T13:35:10Z</time>
            </trkpt>
            <trkpt lat="55.128550" lon="-8.279680">
                <time>2019-06-14T13:35:11Z</time>
            </trkpt>
            <trkpt lat="55.128720" lon="-8.279640">
                <time>2019-06-14T13:35:12Z</time>
            </trkpt>
            <trkpt lat="55.128870" lon="-8.279620">
                <time>2019-06-14T13:35:13Z</time>
            </trkpt>
            <trkpt lat="55.129010" lon="-8.279620">
                <time>2019-06-14T13:35:14Z</time>
            </trkpt>
            <trkpt lat="55.129140" lon="-8.279660">
                <time>2019-06-14T13:35:15Z</time>
            </trkpt>
            <trkpt lat="55.129250" lon="-8.279770">
                <time>2019-06-14T13:35:16Z</time>
            </trkpt>
            <trkpt lat="55.129350" lon="-8.279930">
                <time>2019-06-14T13:35:17Z</time>
            </trkpt>
            <trkpt lat="55.129450" lon="-8.280090">
                <time>2019-06-14T13:35:18Z</time>
            </trkpt>
            <trkpt lat="55.129540" lon="-8.280240">
                <time>2019-06-14T13:35:19Z</time>
            </trkpt>
            <trkpt lat="55.129650" lon="-8.280380">
                <time>2019-06-14T13:35:20Z</time>
            </trkpt>
            <trkpt lat="55.129770" lon="-8.280530">
                <time>2019-06-14T13:35:21Z</time>
            </trkpt>
            <trkpt lat="55.129910" lon="-8.280690">
                <time>2019-06-14T13:35:22Z</time>
            </trkpt>
            <trkpt lat="55.130080" lon="-8.280830">
                <time>2019-06-14T13:35:23Z</time>
            </trkpt>
            <trkpt lat="55.130250" lon="-8.280970">
                <time>2019-06-14T13:35:24Z</time>
            </trkpt>
            <trkpt lat="55.130430" lon="-8.281120">
                <time>2019-06-14T13:35:25Z</time>
            </trkpt>
            <trkpt lat="55.130590" lon="-8.281270">
                <time>2019-06-14T13:35:26Z</time>
            </trkpt>
            <trkpt lat="55.130750" lon="-8.281430">
                <time>2019-06-14T13:35:27Z</time>
            </trkpt>
            <trkpt lat="55.130900" lon="-8.281610">
                <time>2019-06-14T13:35:28Z</time>
            </trkpt>
            <trkpt lat="55.131040" lon="-8.281810">
                <time>2019-06-14T13:35:29Z</time>
            </trkpt>
            <trkpt lat="55.131170" lon="-8.282060">
                <time>2019-06-14T13:35:30Z</time>
            </trkpt>
            <trkpt lat="55.131280" lon="-8.282330">
                <time>2019-06-14T13:35:31Z</time>
            </trkpt>
            <trkpt lat="55.131390" lon="-8.282580">
                <time>2019-06-14T13:35:32Z</time>
            </trkpt>
            <trkpt lat="55.131490" lon="-8.282820">
                <time>2019-06-14T13:35:33Z</time>
            </trkpt>
            <trkpt lat="55.131610" lon="-8.283070">
                <time>2019-06-14T13:35:34Z</time>
            </trkpt>
            <trkpt lat="55.131740" lon="-8.283320">
                <time>2019-06-14T13:35:35Z</time>
            </trkpt>
            <trkpt lat="55.131870" lon="-8.283570">
                <time>2019-06-14T13:35:36Z</time>
            </trkpt>
            <trkpt lat="55.132000" lon="-8.283810">
                <time>2019-06-14T13:35:37Z</time>
            </trkpt>
            <trkpt lat="55.132130" lon="-8.284040">
                <time>2019-06-14T13:35:38Z</time>
            </trkpt>
            <trkpt lat="55.132260" lon="-8.284270">
                <time>2019-06-14T13:35:39Z</time>
            </trkpt>
            <trkpt lat="55.132380" lon="-8.284510">
                <time>2019-06-14T13:35:40Z</time>
            </trkpt>
            <trkpt lat="55.132500" lon="-8.284750">
                <time>2019-06-14T13:35:41Z</time>
            </trkpt>
            <trkpt lat="55.132600" lon="-8.284980">
                <time>2019-06-14T13:35:42Z</time>
            </trkpt>
            <trkpt lat="55.132710" lon="-8.285200">
                <time>2019-06-14T13:35:43Z</time>
            </trkpt>
            <trkpt lat="55.132800" lon="-8.285410">
                <time>2019-06-14T13:35:44Z</time>
            </trkpt>
            <trkpt lat="55.132890" lon="-8.285610">
                <time>2019-06-14T13:35:45Z</time>
            </trkpt>
            <trkpt lat="55.132970" lon="-8.285820">
                <time>2019-06-14T13:35:46Z</time>
            </trkpt>
            <trkpt lat="55.133060" lon="-8.286030">
                <time>2019-06-14T13:35:47Z</time>
            </trkpt>
            <trkpt lat="55.133150" lon="-8.286240">
                <time>2019-06-14T13:35:48Z</time>
            </trkpt>
            <trkpt lat="55.133250" lon="-8.286460">
                <time>2019-06-14T13:35:49Z</time>
            </trkpt>
            <trkpt lat="55.133350" lon="-8.286660">
                <time>2019-06-14T13:35:50Z</time>
            </trkpt>
            <trkpt lat="55.133460" lon="-8.286860">
                <time>2019-06-14T13:35:51Z</time>
            </trkpt>
            <trkpt lat="55.133580" lon="-8.287060">
                <time>2019-06-14T13:35:52Z</time>
            </trkpt>
            <trkpt lat="55.133700" lon="-8.287250">
                <time>2019-06-14T13:35:53Z</time>
            </trkpt>
            <trkpt lat="55.133820" lon="-8.287440">
                <time>2019-06-14T13:35:54Z</time>
            </trkpt>
            <trkpt lat="55.133930" lon="-8.287650">
                <time>2019-06-14T13:35:55Z</time>
            </trkpt>
            <trkpt lat="55.134030" lon="-8.287870">
                <time>2019-06-14T13:35:56Z</time>
            </trkpt>
            <trkpt lat="55.134110" lon="-8.288080">
                <time>2019-06-14T13:35:57Z</time>
            </trkpt>
            <trkpt lat="55.134190" lon="-8.288280">
                <time>2019-06-14T13:35:58Z</time>
            </trkpt>
            <trkpt lat="55.134270" lon="-8.288480">
                <time>2019-06-14T13:35:59Z</time>
            </trkpt>
            <trkpt lat="55.134370" lon="-8.288670">
                <time>2019-06-14T13:36:00Z</time>
            </trkpt>
            <trkpt lat="55.134470" lon="-8.288850">
                <time>2019-06-14T13:36:01Z</time>
            </trkpt>
            <trkpt lat="55.134600" lon="-8.289000">
                <time>2019-06-14T13:36:02Z</time>
            </trkpt>
            <trkpt lat="55.134740" lon="-8.289130">
                <time>2019-06-14T13:36:03Z</time>
            </trkpt>
            <trkpt lat="55.134880" lon="-8.289240">
                <time>2019-06-14T13:36:04Z</time>
            </trkpt>
            <trkpt lat="55.135030" lon="-8.289320">
                <time>2019-06-14T13:36:05Z</time>
            </trkpt>
            <trkpt lat="55.135180" lon="-8.289380">
                <time>2019-06-14T13:36:06Z</time>
            </trkpt>
            <trkpt lat="55.135340" lon="-8.289420">
                <time>2019-06-14T13:36:07Z</time>
            </trkpt>
            <trkpt lat="55.135490" lon="-8.289430">
                <time>2019-06-14T13:36:08Z</time>
            </trkpt>
            <trkpt lat="55.135640" lon="-8.289430">
                <time>2019-06-14T13:36:09Z</time>
            </trkpt>
            <trkpt lat="55.135790" lon="-8.289390">
                <time>2019-06-14T13:36:10Z</time>
            </trkpt>
            <trkpt lat="55.135950" lon="-8.289340">
                <time>2019-06-14T13:36:11Z</time>
            </trkpt>
            <trkpt lat="55.136110" lon="-8.289290">
                <time>2019-06-14T13:36:12Z</time>
            </trkpt>
            <trkpt lat="55.136280" lon="-8.289240">
                <time>2019-06-14T13:36:13Z</time>
            </trkpt>
            <trkpt lat="55.136460" lon="-8.289200">
                <time>2019-06-14T13:36:14Z</time>
            </trkpt>
            <trkpt lat="55.136630" lon="-8.289170">
                <time>2019-06-14T13:36:15Z</time>
            </trkpt>
            <trkpt lat="55.136790" lon="-8.289160">
                <time>2019-06-14T13:36:16Z</time>
            </trkpt>
            <trkpt lat="55.136930" lon="-8.289160">
                <time>2019-06-14T13:36:17Z</time>
            </trkpt>
            <trkpt lat="55.137060" lon="-8.289130">
                <time>2019-06-14T13:36:18Z</time>
            </trkpt>
            <trkpt lat="55.137180" lon="-8.289080">
                <time>2019-06-14T13:36:19Z</time>
            </trkpt>
            <trkpt lat="55.137290" lon="-8.288990">
                <time>2019-06-14T13:36:20Z</time>
            </trkpt>
            <trkpt lat="55.137400" lon="-8.288860">
                <time>2019-06-14T13:36:21Z</time>
            </trkpt>
            <trkpt lat="55.137490" lon="-8.288710">
                <time>2019-06-14T13:36:22Z</time>
            </trkpt>
            <trkpt lat="55.137570" lon="-8.288550">
                <time>2019-06-14T13:36:23Z</time>
            </trkpt>
            <trkpt lat="55.137650" lon="-8.288370">
                <time>2019-06-14T13:36:24Z</time>
            </trkpt>
            <trkpt lat="55.137710" lon="-8.288170">
                <time>2019-06-14T13:36:25Z</time>
            </trkpt>
            <trkpt lat="55.137730" lon="-8.287960">
                <time>2019-06-14T13:36:26Z</time>
            </trkpt>
            <trkpt lat="55.137740" lon="-8.287750">
                <time>2019-06-14T13:36:27Z</time>
            </trkpt>
            <trkpt lat="55.137730" lon="-8.287540">
                <time>2019-06-14T13:36:28Z</time>
            </trkpt>
            <trkpt lat="55.137710" lon="-8.287340">
                <time>2019-06-14T13:36:29Z</time>
            </trkpt>
            <trkpt lat="55.137670" lon="-8.287150">
                <time>2019-06-14T13:36:30Z</time>
            </trkpt>
            <trkpt lat="55.137620" lon="-8.286990">
                <time>2019-06-14T13:36:31Z</time>
            </trkpt>
            <trkpt lat="55.137570" lon="-8.286840">
                <time>2019-06-14T13:36:32Z</time>
            </trkpt>
            <trkpt lat="55.137530" lon="-8.286690">
                <time>2019-06-14T13:36:33Z</time>
            </trkpt>
            <trkpt lat="55.137500" lon="-8.286530">
                <time>2019-06-14T13:36:34Z</time>
            </trkpt>
            <trkpt lat="55.137480" lon="-8.286360">
                <time>2019-06-14T13:36:35Z</time>
            </trkpt>
            <trkpt lat="55.137490" lon="-8.286200">
                <time>2019-06-14T13:36:36Z</time>
            </trkpt>
            <trkpt lat="55.137540" lon="-8.286070">
                <time>2019-06-14T13:36:37Z</time>
            </trkpt>
            <trkpt lat="55.137630" lon="-8.285990">
                <time>2019-06-14T13:36:38Z</time>
            </trkpt>
            <trkpt lat="55.137740" lon="-8.285950">
                <time>2019-06-14T13:36:39Z</time>
            </trkpt>
            <trkpt lat="55.137870" lon="-8.285930">
                <time>2019-06-14T13:36:40Z</time>
            </trkpt>
            <trkpt lat="55.138010" lon="-8.285910">
                <time>2019-06-14T13:36:41Z</time>
            </trkpt>
            <trkpt lat="55.138130" lon="-8.285850">
                <time>2019-06-14T13:36:42Z</time>
            </trkpt>
            <trkpt lat="55.138240" lon="-8.285770">
                <time>2019-06-14T13:36:43Z</time>
            </trkpt>
            <trkpt lat="55.138340" lon="-8.285660">
                <time>2019-06-14T13:36:44Z</time>
            </trkpt>
            <trkpt lat="55.138430" lon="-8.285530">
                <time>2019-06-14T13:36:45Z</time>
            </trkpt>
            <trkpt lat="55.138500" lon="-8.285360">
                <time>2019-06-14T13:36:46Z</time>
            </trkpt>
            <trkpt lat="55.138550" lon="-8.285160">
                <time>2019-06-14T13:36:47Z</time>
            </trkpt>
            <trkpt lat="55.138600" lon="-8.284940">
                <time>2019-06-14T13:36:48Z</time>
            </trkpt>
            <trkpt lat="55.138670" lon="-8.284760">
                <time>2019-06-14T13:36:49Z</time>
            </trkpt>
            <trkpt lat="55.138760" lon="-8.284600">
                <time>2019-06-14T13:36:50Z</time>
            </trkpt>
            <trkpt lat="55.138850" lon="-8.284450">
                <time>2019-06-14T13:36:51Z</time>
            </trkpt>
            <trkpt lat="55.138960" lon="-8.284290">
                <time>2019-06-14T13:36:52Z</time>
            </trkpt>
            <trkpt lat="55.139050" lon="-8.284110">
                <time>2019-06-14T13:36:53Z</time>
            </trkpt>
            <trkpt lat="55.139140" lon="-8.283910">
                <time>2019-06-14T13:36:54Z</time>
            </trkpt>
            <trkpt lat="55.139210" lon="-8.283700">
                <time>2019-06-14T13:36:55Z</time>
            </trkpt>
            <trkpt lat="55.139280" lon="-8.283480">
                <time>2019-06-14T13:36:56Z</time>
            </trkpt>
            <trkpt lat="55.139320" lon="-8.283260">
                <time>2019-06-14T13:36:57Z</time>
            </trkpt>
            <trkpt lat="55.139340" lon="-8.283030">
                <time>2019-06-14T13:36:58Z</time>
            </trkpt>
            <trkpt lat="55.139360" lon="-8.282790">
                <time>2019-06-14T13:36:59Z</time>
            </trkpt>
            <trkpt lat="55.139370" lon="-8.282540">
                <time>2019-06-14T13:37:00Z</time>
            </trkpt>
            <trkpt lat="55.139390" lon="-8.282290">
                <time>2019-06-14T13:37:01Z</time>
            </trkpt>
            <trkpt lat="55.139410" lon="-8.282030">
                <time>2019-06-14T13:37:02Z</time>
            </trkpt>
            <trkpt lat="55.139440" lon="-8.281770">
                <time>2019-06-14T13:37:03Z</time>
            </trkpt>
            <trkpt lat="55.139490" lon="-8.281540">
                <time>2019-06-14T13:37:04Z</time>
            </trkpt>
            <trkpt lat="55.139560" lon="-8.281340">
                <time>2019-06-14T13:37:05Z</time>
            </trkpt>
            <trkpt lat="55.139640" lon="-8.281190">
                <time>2019-06-14T13:37:06Z</time>
            </trkpt>
            <trkpt lat="55.139720" lon="-8.281060">
                <time>2019-06-14T13:37:07Z</time>
            </trkpt>
            <trkpt lat="55.139810" lon="-8.280960">
                <time>2019-06-14T13:37:08Z</time>
            </trkpt>
            <trkpt lat="55.139920" lon="-8.280850">
                <time>2019-06-14T13:37:09Z</time>
            </trkpt>
            <trkpt lat="55.140060" lon="-8.280700">
                <time>2019-06-14T13:37:10Z</time>
            </trkpt>
            <trkpt lat="55.140200" lon="-8.280540">
                <time>2019-06-14T13:37:11Z</time>
            </trkpt>
            <trkpt lat="55.140350" lon="-8.280380">
                <time>2019-06-14T13:37:12Z</time>
            </trkpt>
            <trkpt lat="55.140490" lon="-8.280240">
                <time>2019-06-14T13:37:13Z</time>
            </trkpt>
            <trkpt lat="55.140620" lon="-8.280110">
                <time>2019-06-14T13:37:14Z</time>
            </trkpt>
            <trkpt lat="55.140760" lon="-8.280000">
                <time>2019-06-14T13:37:15Z</time>
            </trkpt>
            <trkpt lat="55.140890" lon="-8.279890">
                <time>2019-06-14T13:37:16Z</time>
            </trkpt>
            <trkpt lat="55.141010" lon="-8.279780">
                <time>2019-06-14T13:37:17Z</time>
            </trkpt>
            <trkpt lat="55.141120" lon="-8.279670">
                <time>2019-06-14T13:37:18Z</time>
            </trkpt>
            <trkpt lat="55.141230" lon="-8.279550">
                <time>2019-06-14T13:37:19Z</time>
            </trkpt>
            <trkpt lat="55.141350" lon="-8.279430">
                <time>2019-06-14T13:37:20Z</time>
            </trkpt>
            <trkpt lat="55.141460" lon="-8.279330">
                <time>2019-06-14T13:37:21Z</time>
            </trkpt>
            <trkpt lat="55.141580" lon="-8.279290">
                <time>2019-06-14T13:37:22Z</time>
            </trkpt>
            <trkpt lat="55.141690" lon="-8.279280">
                <time>2019-06-14T13:37:23Z</time>
            </trkpt>
            <trkpt lat="55.141800" lon="-8.279280">
                <time>2019-06-14T13:37:24Z</time>
            </trkpt>
            <trkpt lat="55.141880" lon="-8.279280">
                <time>2019-06-14T13:37:25Z</time>
            </trkpt>
            <trkpt lat="55.141930" lon="-8.279280">
                <time>2019-06-14T13:37:26Z</time>
            </trkpt>
            <trkpt lat="55.141980" lon="-8.279310">
                <time>2019-06-14T13:37:27Z</time>
            </trkpt>
            <trkpt lat="55.142010" lon="-8.279370">
                <time>2019-06-14T13:37:28Z</time>
            </trkpt>
            <trkpt lat="55.142040" lon="-8.279450">
                <time>2019-06-14T13:37:29Z</time>
            </trkpt>
            <trkpt lat="55.142050" lon="-8.279540">
                <time>2019-06-14T13:37:30Z</time>
            </trkpt>
            <trkpt lat="55.142050" lon="-8.279650">
                <time>2019-06-14T13:37:31Z</time>
            </trkpt>
            <trkpt lat="55.142040" lon="-8.279790">
                <time>2019-06-14T13:37:32Z</time>
            </trkpt>
            <trkpt lat="55.142030" lon="-8.279950">
                <time>2019-06-14T13:37:33Z</time>
            </trkpt>
            <trkpt lat="55.142010" lon="-8.280130">
                <time>2019-06-14T13:37:34Z</time>
            </trkpt>
            <trkpt lat="55.141990" lon="-8.280350">
                <time>2019-06-14T13:37:35Z</time>
            </trkpt>
            <trkpt lat="55.141970" lon="-8.280560">
                <time>2019-06-14T13:37:36Z</time>
            </trkpt>
            <trkpt lat="55.141950" lon="-8.280780">
                <time>2019-06-14T13:37:37Z</time>
            </trkpt>
            <trkpt lat="55.141920" lon="-8.281000">
                <time>2019-06-14T13:37:38Z</time>
            </trkpt>
            <trkpt lat="55.141880" lon="-8.281220">
                <time>2019-06-14T13:37:39Z</time>
            </trkpt>
            <trkpt lat="55.141850" lon="-8.281440">
                <time>2019-06-14T13:37:40Z</time>
            </trkpt>
            <trkpt lat="55.141820" lon="-8.281650">
                <time>2019-06-14T13:37:41Z</time>
            </trkpt>
            <trkpt lat="55.141790" lon="-8.281840">
                <time>2019-06-14T13:37:42Z</time>
            </trkpt>
            <trkpt lat="55.141760" lon="-8.282010">
                <time>2019-06-14T13:37:43Z</time>
            </trkpt>
            <trkpt lat="55.141730" lon="-8.282170">
                <time>2019-06-14T13:37:44Z</time>
            </trkpt>
            <trkpt lat="55.141700" lon="-8.282330">
                <time>2019-06-14T13:37:45Z</time>
            </trkpt>
            <trkpt lat="55.141660" lon="-8.282480">
                <time>2019-06-14T13:37:46Z</time>
            </trkpt>
            <trkpt lat="55.141640" lon="-8.282630">
                <time>2019-06-14T13:37:47Z</time>
            </trkpt>
            <trkpt lat="55.141630" lon="-8.282760">
                <time>2019-06-14T13:37:48Z</time>
            </trkpt>
            <trkpt lat="55.141640" lon="-8.282880">
                <time>2019-06-14T13:37:49Z</time>
            </trkpt>
            <trkpt lat="55.141680" lon="-8.283000">
                <time>2019-06-14T13:37:50Z</time>
            </trkpt>
            <trkpt lat="55.141720" lon="-8.283130">
                <time>2019-06-14T13:37:51Z</time>
            </trkpt>
            <trkpt lat="55.141760" lon="-8.283280">
                <time>2019-06-14T13:37:52Z</time>
            </trkpt>
            <trkpt lat="55.141800" lon="-8.283430">
                <time>2019-06-14T13:37:53Z</time>
            </trkpt>
            <trkpt lat="55.141840" lon="-8.283590">
                <time>2019-06-14T13:37:54Z</time>
            </trkpt>
            <trkpt lat="55.141890" lon="-8.283760">
                <time>2019-06-14T13:37:55Z</time>
            </trkpt>
            <trkpt lat="55.141930" lon="-8.283920">
                <time>2019-06-14T13:37:56Z</time>
            </trkpt>
            <trkpt lat="55.141970" lon="-8.284060">
                <time>2019-06-14T13:37:57Z</time>
            </trkpt>
            <trkpt lat="55.142000" lon="-8.284190">
                <time>2019-06-14T13:37:58Z</time>
            </trkpt>
            <trkpt lat="55.142030" lon="-8.284310">
                <time>2019-06-14T13:37:59Z</time>
            </trkpt>
            <trkpt lat="55.142070" lon="-8.284440">
                <time>2019-06-14T13:38:00Z</time>
            </trkpt>
            <trkpt lat="55.142110" lon="-8.284570">
                <time>2019-06-14T13:38:01Z</time>
            </trkpt>
            <trkpt lat="55.142160" lon="-8.284680">
                <time>2019-06-14T13:38:02Z</time>
            </trkpt>
            <trkpt lat="55.142220" lon="-8.284790">
                <time>2019-06-14T13:38:03Z</time>
            </trkpt>
            <trkpt lat="55.142270" lon="-8.284900">
                <time>2019-06-14T13:38:04Z</time>
            </trkpt>
            <trkpt lat="55.142300" lon="-8.285020">
                <time>2019-06-14T13:38:05Z</time>
            </trkpt>
            <trkpt lat="55.142310" lon="-8.285170">
                <time>2019-06-14T13:38:06Z</time>
            </trkpt>
            <trkpt lat="55.142320" lon="-8.285330">
                <time>2019-06-14T13:38:07Z</time>
            </trkpt>
            <trkpt lat="55.142320" lon="-8.285510">
                <time>2019-06-14T13:38:08Z</time>
            </trkpt>
            <trkpt lat="55.142330" lon="-8.285670">
                <time>2019-06-14T13:38:09Z</time>
            </trkpt>
            <trkpt lat="55.142350" lon="-8.285830">
                <time>2019-06-14T13:38:10Z</time>
            </trkpt>
            <trkpt lat="55.142370" lon="-8.285990">
                <time>2019-06-14T13:38:11Z</time>
            </trkpt>
            <trkpt lat="55.142410" lon="-8.286150">
                <time>2019-06-14T13:38:12Z</time>
            </trkpt>
            <trkpt lat="55.142440" lon="-8.286300">
                <time>2019-06-14T13:38:13Z</time>
            </trkpt>
            <trkpt lat="55.142490" lon="-8.286440">
                <time>2019-06-14T13:38:14Z</time>
            </trkpt>
            <trkpt lat="55.142540" lon="-8.286580">
                <time>2019-06-14T13:38:15Z</time>
            </trkpt>
            <trkpt lat="55.142600" lon="-8.286720">
                <time>2019-06-14T13:38:16Z</time>
            </trkpt>
            <trkpt lat="55.142660" lon="-8.286870">
                <time>2019-06-14T13:38:17Z</time>
            </trkpt>
            <trkpt lat="55.142740" lon="-8.287010">
                <time>2019-06-14T13:38:18Z</time>
            </trkpt>
            <trkpt lat="55.142810" lon="-8.287160">
                <time>2019-06-14T13:38:19Z</time>
            </trkpt>
            <trkpt lat="55.142890" lon="-8.287290">
                <time>2019-06-14T13:38:20Z</time>
            </trkpt>
            <trkpt lat="55.142960" lon="-8.287400">
                <time>2019-06-14T13:38:21Z</time>
            </trkpt>
            <trkpt lat="55.143020" lon="-8.287510">
                <time>2019-06-14T13:38:22Z</time>
            </trkpt>
            <trkpt lat="55.143080" lon="-8.287620">
                <time>2019-06-14T13:38:23Z</time>
            </trkpt>
            <trkpt lat="55.143140" lon="-8.287710">
                <time>2019-06-14T13:38:24Z</time>
            </trkpt>
            <trkpt lat="55.143200" lon="-8.287810">
                <time>2019-06-14T13:38:25Z</time>
            </trkpt>
            <trkpt lat="55.143270" lon="-8.287910">
                <time>2019-06-14T13:38:26Z</time>
            </trkpt>
            <trkpt lat="55.143340" lon="-8.288020">
                <time>2019-06-14T13:38:27Z</time>
            </trkpt>
            <trkpt lat="55.143430" lon="-8.288120">
                <time>2019-06-14T13:38:28Z</time>
            </trkpt>
            <trkpt lat="55.143520" lon="-8.288230">
                <time>2019-06-14T13:38:29Z</time>
            </trkpt>
            <trkpt lat="55.143600" lon="-8.288340">
                <time>2019-06-14T13:38:30Z</time>
            </trkpt>
            <trkpt lat="55.143680" lon="-8.288420">
                <time>2019-06-14T13:38:31Z</time>
            </trkpt>
            <trkpt lat="55.143760" lon="-8.288490">
                <time>2019-06-14T13:38:32Z</time>
            </trkpt>
            <trkpt lat="55.143840" lon="-8.288540">
                <time>2019-06-14T13:38:33Z</time>
            </trkpt>
            <trkpt lat="55.143930" lon="-8.288590">
                <time>2019-06-14T13:38:34Z</time>
            </trkpt>
            <trkpt lat="55.144010" lon="-8.288620">
                <time>2019-06-14T13:38:35Z</time>
            </trkpt>
            <trkpt lat="55.144100" lon="-8.288640">
                <time>2019-06-14T13:38:36Z</time>
            </trkpt>
            <trkpt lat="55.144190" lon="-8.288660">
                <time>2019-06-14T13:38:37Z</time>
            </trkpt>
            <trkpt lat="55.144280" lon="-8.288660">
                <time>2019-06-14T13:38:38Z</time>
            </trkpt>
            <trkpt lat="55.144360" lon="-8.288650">
                <time>2019-06-14T13:38:39Z</time>
            </trkpt>
            <trkpt lat="55.144450" lon="-8.288620">
                <time>2019-06-14T13:38:40Z</time>
            </trkpt>
            <trkpt lat="55.144540" lon="-8.288590">
                <time>2019-06-14T13:38:41Z</time>
            </trkpt>
            <trkpt lat="55.144620" lon="-8.288540">
                <time>2019-06-14T13:38:42Z</time>
            </trkpt>
            <trkpt lat="55.144700" lon="-8.288500">
                <time>2019-06-14T13:38:43Z</time>
            </trkpt>
            <trkpt lat="55.144770" lon="-8.288450">
                <time>2019-06-14T13:38:44Z</time>
            </trkpt>
            <trkpt lat="55.144840" lon="-8.288400">
                <time>2019-06-14T13:38:45Z</time>
            </trkpt>
            <trkpt lat="55.144900" lon="-8.288310">
                <time>2019-06-14T13:38:46Z</time>
            </trkpt>
            <trkpt lat="55.144950" lon="-8.288200">
                <time>2019-06-14T13:38:47Z</time>
            </trkpt>
            <trkpt lat="55.145000" lon="-8.288090">
                <time>2019-06-14T13:38:48Z</time>
            </trkpt>
            <trkpt lat="55.145070" lon="-8.287980">
                <time>2019-06-14T13:38:49Z</time>
            </trkpt>
            <trkpt lat="55.145130" lon="-8.287890">
                <time>2019-06-14T13:38:50Z</time>
            </trkpt>
            <trkpt lat="55.145210" lon="-8.287800">
                <time>2019-06-14T13:38:51Z</time>
            </trkpt>
            <trkpt lat="55.145290" lon="-8.287720">
                <time>2019-06-14T13:38:52Z</time>
            </trkpt>
            <trkpt lat="55.145370" lon="-8.287650">
                <time>2019-06-14T13:38:53Z</time>
            </trkpt>
            <trkpt lat="55.145440" lon="-8.287600">
                <time>2019-06-14T13:38:54Z</time>
            </trkpt>
            <trkpt lat="55.145530" lon="-8.287550">
                <time>2019-06-14T13:38:55Z</time>
            </trkpt>
            <trkpt lat="55.145610" lon="-8.287520">
                <time>2019-06-14T13:38:56Z</time>
            </trkpt>
            <trkpt lat="55.145680" lon="-8.287490">
                <time>2019-06-14T13:38:57Z</time>
            </trkpt>
            <trkpt lat="55.145750" lon="-8.287460">
                <time>2019-06-14T13:38:58Z</time>
            </trkpt>
            <trkpt lat="55.145830" lon="-8.287430">
                <time>2019-06-14T13:38:59Z</time>
            </trkpt>
            <trkpt lat="55.145910" lon="-8.287400">
                <time>2019-06-14T13:39:00Z</time>
            </trkpt>
            <trkpt lat="55.145990" lon="-8.287370">
                <time>2019-06-14T13:39:01Z</time>
            </trkpt>
            <trkpt lat="55.146080" lon="-8.287340">
                <time>2019-06-14T13:39:02Z</time>
            </trkpt>
            <trkpt lat="55.146150" lon="-8.287310">
                <time>2019-06-14T13:39:03Z</time>
            </trkpt>
            <trkpt lat="55.146220" lon="-8.287290">
                <time>2019-06-14T13:39:04Z</time>
            </trkpt>
            <trkpt lat="55.146280" lon="-8.287270">
                <time>2019-06-14T13:39:05Z</time>
            </trkpt>
            <trkpt lat="55.146340" lon="-8.287250">
                <time>2019-06-14T13:39:06Z</time>
            </trkpt>
            <trkpt lat="55.146390" lon="-8.287230">
                <time>2019-06-14T13:39:07Z</time>
            </trkpt>
            <trkpt lat="55.146430" lon="-8.287230">
                <time>2019-06-14T13:39:08Z</time>
            </trkpt>
            <trkpt lat="55.146480" lon="-8.287220">
                <time>2019-06-14T13:39:09Z</time>
            </trkpt>
            <trkpt lat="55.146520" lon="-8.287220">
                <time>2019-06-14T13:39:10Z</time>
            </trkpt>
            <trkpt lat="55.146580" lon="-8.287240">
                <time>2019-06-14T13:39:11Z</time>
            </trkpt>
            <trkpt lat="55.146620" lon="-8.287260">
                <time>2019-06-14T13:39:12Z</time>
            </trkpt>
            <trkpt lat="55.146670" lon="-8.287290">
                <time>2019-06-14T13:39:13Z</time>
            </trkpt>
            <trkpt lat="55.146710" lon="-8.287310">
                <time>2019-06-14T13:39:14Z</time>
            </trkpt>
            <trkpt lat="55.146750" lon="-8.287340">
                <time>2019-06-14T13:39:15Z</time>
            </trkpt>
            <trkpt lat="55.146800" lon="-8.287370">
                <time>2019-06-14T13:39:16Z</time>
            </trkpt>
            <trkpt lat="55.146840" lon="-8.287390">
                <time>2019-06-14T13:39:17Z</time>
            </trkpt>
            <trkpt lat="55.146870" lon="-8.287400">
                <time>2019-06-14T13:39:18Z</time>
            </trkpt>
            <trkpt lat="55.146900" lon="-8.287410">
                <time>2019-06-14T13:39:19Z</time>
            </trkpt>
            <trkpt lat="55.146930" lon="-8.287440">
                <time>2019-06-14T13:39:20Z</time>
            </trkpt>
            <trkpt lat="55.146950" lon="-8.287460">
                <time>2019-06-14T13:39:21Z</time>
            </trkpt>
            <trkpt lat="55.146970" lon="-8.287480">
                <time>2019-06-14T13:39:22Z</time>
            </trkpt>
            <trkpt lat="55.146990" lon="-8.287490">
                <time>2019-06-14T13:39:23Z</time>
            </trkpt>
            <trkpt lat="55.147000" lon="-8.287500">
                <time>2019-06-14T13:39:24Z</time>
            </trkpt>
            <trkpt lat="55.147000" lon="-8.287500">
                <time>2019-06-14T13:39:25Z</time>
            </trkpt>
            <trkpt lat="55.147000" lon="-8.287500">
                <time>2019-06-14T13:39:26Z</time>
            </trkpt>
            <trkpt lat="55.147000" lon="-8.287500">
                <time>2019-06-14T13:39:27Z</time>
            </trkpt>
            <trkpt lat="55.147000" lon="-8.287500">
                <time>2019-06-14T13:39:28Z</time>
            </trkpt>
            <trkpt lat="55.147000" lon="-8.287500">
                <time>2019-06-14T13:39:29Z</time>
            </trkpt>
            <trkpt lat="55.147000" lon="-8.287500">
                <time>2019-06-14T13:39:30Z</time>
            </trkpt>
            <trkpt lat="55.147000" lon="-8.287490">
                <time>2019-06-14T13:39:31Z</time>
            </trkpt>
            <trkpt lat="55.147000" lon="-8.287490">
                <time>2019-06-14T13:39:32Z</time>
            </trkpt>
            <trkpt lat="55.147000" lon="-8.287490">
                <time>2019-06-14T13:39:33Z</time>
            </trkpt>
            <trkpt lat="55.146990" lon="-8.287480">
                <time>2019-06-14T13:39:34Z</time>
            </trkpt>
            <trkpt lat="55.146990" lon="-8.287480">
                <time>2019-06-14T13:39:35Z</time>
            </trkpt>
            <trkpt lat="55.146990" lon="-8.287480">
                <time>2019-06-14T13:39:36Z</time>
            </trkpt>
            <trkpt lat="55.146990" lon="-8.287480">
                <time>2019-06-14T13:39:37Z</time>
            </trkpt>
            <trkpt lat="55.146990" lon="-8.287480">
                <time>2019-06-14T13:39:38Z</time>
            </trkpt>
            <trkpt lat="55.146990" lon="-8.287480">
                <time>2019-06-14T13:39:39Z</time>
            </trkpt>
            <trkpt lat="55.146990" lon="-8.287480">
                <time>2019-06-14T13:39:40Z</time>
            </trkpt>
            <trkpt lat="55.146990" lon="-8.287480">
                <time>2019-06-14T13:39:41Z</time>
            </trkpt>
            <trkpt lat="55.146990" lon="-8.287480">
                <time>2019-06-14T13:39:42Z</time>
            </trkpt>
            <trkpt lat="55.146990" lon="-8.287480">
                <time>2019-06-14T13:39:43Z</time>
            </trkpt>
            <trkpt lat="55.146990" lon="-8.287480">
                <time>2019-06-14T13:39:44Z</time>
            </trkpt>
            <trkpt lat="55.146990" lon="-8.287480">
                <time>2019-06-14T13:39:45Z</time>
            </trkpt>
            <trkpt lat="55.146990" lon="-8.287480">
                <time>2019-06-14T13:39:46Z</time>
            </trkpt>
            <trkpt lat="55.146990" lon="-8.287480">
                <time>2019-06-14T13:39:47Z</time>
            </trkpt>
            <trkpt lat="55.146990" lon="-8.287480">
                <time>2019-06-14T13:39:48Z</time>
            </trkpt>
            <trkpt lat="55.146990" lon="-8.287480">
                <time>2019-06-14T13:39:49Z</time>
            </trkpt>
            <trkpt lat="55.146990" lon="-8.287480">
                <time>2019-06-14T13:39:50Z</time>
            </trkpt>
            <trkpt lat="55.146990" lon="-8.287480">
                <time>2019-06-14T13:39:51Z</time>
            </trkpt>
            <trkpt lat="55.146990" lon="-8.287480">
                <time>2019-06-14T13:39:52Z</time>
            </trkpt>
            <trkpt lat="55.146990" lon="-8.287480">
                <time>2019-06-14T13:39:53Z</time>
            </trkpt>
            <trkpt lat="55.146990" lon="-8.287480">
                <time>2019-06-14T13:39:54Z</time>
            </trkpt>
            <trkpt lat="55.146990" lon="-8.287480">
                <time>2019-06-14T13:39:55Z</time>
            </trkpt>
            <trkpt lat="55.146990" lon="-8.287480">
                <time>2019-06-14T13:39:56Z</time>
            </trkpt>
            <trkpt lat="55.146990" lon="-8.287480">
                <time>2019-06-14T13:39:57Z</time>
            </trkpt>
            <trkpt lat="55.146990" lon="-8.287480">
                <time>2019-06-14T13:39:58Z</time>
            </trkpt>
            <trkpt lat="55.146990" lon="-8.287480">
                <time>2019-06-14T13:39:59Z</time>
            </trkpt>
            <trkpt lat="55.146990" lon="-8.287480">
                <time>2019-06-14T13:40:00Z</time>
            </trkpt>
            <trkpt lat="55.146980" lon="-8.287470">
                <time>2019-06-14T13:49:43Z</time>
            </trkpt>
            <trkpt lat="55.146980" lon="-8.287470">
                <time>2019-06-14T13:49:44Z</time>
            </trkpt>
            <trkpt lat="55.147030" lon="-8.287450">
                <time>2019-06-14T13:49:45Z</time>
            </trkpt>
            <trkpt lat="55.147030" lon="-8.287440">
                <time>2019-06-14T13:49:46Z</time>
            </trkpt>
            <trkpt lat="55.147010" lon="-8.287450">
                <time>2019-06-14T13:49:47Z</time>
            </trkpt>
            <trkpt lat="55.146990" lon="-8.287450">
                <time>2019-06-14T13:49:48Z</time>
            </trkpt>
            <trkpt lat="55.146990" lon="-8.287460">
                <time>2019-06-14T13:49:49Z</time>
            </trkpt>
            <trkpt lat="55.147000" lon="-8.287440">
                <time>2019-06-14T13:49:50Z</time>
            </trkpt>
            <trkpt lat="55.146990" lon="-8.287490">
                <time>2019-06-14T13:49:51Z</time>
            </trkpt>
            <trkpt lat="55.146990" lon="-8.287490">
                <time>2019-06-14T13:49:52Z</time>
            </trkpt>
            <trkpt lat="55.146990" lon="-8.287480">
                <time>2019-06-14T13:49:53Z</time>
            </trkpt>
            <trkpt lat="55.146980" lon="-8.287480">
                <time>2019-06-14T13:49:54Z</time>
            </trkpt>
            <trkpt lat="55.146980" lon="-8.287480">
                <time>2019-06-14T13:49:55Z</time>
            </trkpt>
            <trkpt lat="55.146980" lon="-8.287470">
                <time>2019-06-14T13:49:56Z</time>
            </trkpt>
            <trkpt lat="55.146970" lon="-8.287470">
                <time>2019-06-14T13:49:57Z</time>
            </trkpt>
            <trkpt lat="55.146970" lon="-8.287470">
                <time>2019-06-14T13:49:58Z</time>
            </trkpt>
            <trkpt lat="55.146970" lon="-8.287470">
                <time>2019-06-14T13:49:59Z</time>
            </trkpt>
            <trkpt lat="55.146970" lon="-8.287460">
                <time>2019-06-14T13:50:00Z</time>
            </trkpt>
            <trkpt lat="55.146970" lon="-8.287460">
                <time>2019-06-14T13:50:01Z</time>
            </trkpt>
            <trkpt lat="55.146970" lon="-8.287460">
                <time>2019-06-14T13:50:02Z</time>
            </trkpt>
            <trkpt lat="55.146970" lon="-8.287460">
                <time>2019-06-14T13:50:03Z</time>
            </trkpt>
            <trkpt lat="55.146960" lon="-8.287460">
                <time>2019-06-14T13:50:04Z</time>
            </trkpt>
            <trkpt lat="55.146960" lon="-8.287460">
                <time>2019-06-14T13:50:05Z</time>
            </trkpt>
            <trkpt lat="55.146960" lon="-8.287460">
                <time>2019-06-14T13:50:06Z</time>
            </trkpt>
            <trkpt lat="55.146960" lon="-8.287460">
                <time>2019-06-14T13:50:07Z</time>
            </trkpt>
            <trkpt lat="55.146960" lon="-8.287460">
                <time>2019-06-14T13:50:08Z</time>
            </trkpt>
            <trkpt lat="55.146960" lon="-8.287460">
                <time>2019-06-14T13:50:09Z</time>
            </trkpt>
            <trkpt lat="55.146960" lon="-8.287460">
                <time>2019-06-14T13:50:10Z</time>
            </trkpt>
            <trkpt lat="55.146960" lon="-8.287460">
                <time>2019-06-14T13:50:11Z</time>
            </trkpt>
            <trkpt lat="55.146960" lon="-8.287460">
                <time>2019-06-14T13:50:12Z</time>
            </trkpt>
            <trkpt lat="55.146960" lon="-8.287460">
                <time>2019-06-14T13:50:13Z</time>
            </trkpt>
            <trkpt lat="55.146960" lon="-8.287460">
                <time>2019-06-14T13:50:14Z</time>
            </trkpt>
            <trkpt lat="55.146960" lon="-8.287460">
                <time>2019-06-14T13:50:15Z</time>
            </trkpt>
            <trkpt lat="55.146960" lon="-8.287460">
                <time>2019-06-14T13:50:16Z</time>
            </trkpt>
            <trkpt lat="55.146960" lon="-8.287460">
                <time>2019-06-14T13:50:17Z</time>
            </trkpt>
            <trkpt lat="55.146960" lon="-8.287460">
                <time>2019-06-14T13:50:18Z</time>
            </trkpt>
            <trkpt lat="55.146960" lon="-8.287460">
                <time>2019-06-14T13:50:19Z</time>
            </trkpt>
            <trkpt lat="55.146960" lon="-8.287460">
                <time>2019-06-14T13:50:20Z</time>
            </trkpt>
            <trkpt lat="55.146960" lon="-8.287460">
                <time>2019-06-14T13:50:21Z</time>
            </trkpt>
            <trkpt lat="55.146970" lon="-8.287460">
                <time>2019-06-14T13:50:22Z</time>
            </trkpt>
            <trkpt lat="55.146980" lon="-8.287470">
                <time>2019-06-14T13:50:23Z</time>
            </trkpt>
            <trkpt lat="55.147000" lon="-8.287480">
                <time>2019-06-14T13:50:24Z</time>
            </trkpt>
            <trkpt lat="55.147010" lon="-8.287490">
                <time>2019-06-14T13:50:25Z</time>
            </trkpt>
            <trkpt lat="55.147030" lon="-8.287490">
                <time>2019-06-14T13:50:26Z</time>
            </trkpt>
            <trkpt lat="55.147040" lon="-8.287470">
                <time>2019-06-14T13:50:27Z</time>
            </trkpt>
            <trkpt lat="55.147050" lon="-8.287450">
                <time>2019-06-14T13:50:28Z</time>
            </trkpt>
            <trkpt lat="55.147050" lon="-8.287440">
                <time>2019-06-14T13:50:29Z</time>
            </trkpt>
            <trkpt lat="55.147050" lon="-8.287440">
                <time>2019-06-14T13:50:30Z</time>
            </trkpt>
            <trkpt lat="55.147050" lon="-8.287430">
                <time>2019-06-14T13:50:31Z</time>
            </trkpt>
            <trkpt lat="55.147050" lon="-8.287410">
                <time>2019-06-14T13:50:32Z</time>
            </trkpt>
            <trkpt lat="55.147050" lon="-8.287390">
                <time>2019-06-14T13:50:33Z</time>
            </trkpt>
            <trkpt lat="55.147040" lon="-8.287370">
                <time>2019-06-14T13:50:34Z</time>
            </trkpt>
            <trkpt lat="55.147030" lon="-8.287350">
                <time>2019-06-14T13:50:35Z</time>
            </trkpt>
            <trkpt lat="55.147000" lon="-8.287340">
                <time>2019-06-14T13:50:36Z</time>
            </trkpt>
            <trkpt lat="55.146960" lon="-8.287340">
                <time>2019-06-14T13:50:37Z</time>
            </trkpt>
            <trkpt lat="55.146890" lon="-8.287390">
                <time>2019-06-14T13:50:38Z</time>
            </trkpt>
            <trkpt lat="55.146840" lon="-8.287380">
                <time>2019-06-14T13:50:39Z</time>
            </trkpt>
            <trkpt lat="55.146800" lon="-8.287370">
                <time>2019-06-14T13:50:40Z</time>
            </trkpt>
            <trkpt lat="55.146760" lon="-8.287340">
                <time>2019-06-14T13:50:41Z</time>
            </trkpt>
            <trkpt lat="55.146720" lon="-8.287320">
                <time>2019-06-14T13:50:42Z</time>
            </trkpt>
            <trkpt lat="55.146680" lon="-8.287300">
                <time>2019-06-14T13:50:43Z</time>
            </trkpt>
            <trkpt lat="55.146640" lon="-8.287270">
                <time>2019-06-14T13:50:44Z</time>
            </trkpt>
            <trkpt lat="55.146600" lon="-8.287250">
                <time>2019-06-14T13:50:45Z</time>
            </trkpt>
            <trkpt lat="55.146560" lon="-8.287230">
                <time>2019-06-14T13:50:46Z</time>
            </trkpt>
            <trkpt lat="55.146520" lon="-8.287220">
                <time>2019-06-14T13:50:47Z</time>
            </trkpt>
            <trkpt lat="55.146470" lon="-8.287220">
                <time>2019-06-14T13:50:48Z</time>
            </trkpt>
            <trkpt lat="55.146420" lon="-8.287230">
                <time>2019-06-14T13:50:49Z</time>
            </trkpt>
            <trkpt lat="55.146360" lon="-8.287240">
                <time>2019-06-14T13:50:50Z</time>
            </trkpt>
            <trkpt lat="55.146290" lon="-8.287260">
                <time>2019-06-14T13:50:51Z</time>
            </trkpt>
            <trkpt lat="55.146230" lon="-8.287280">
                <time>2019-06-14T13:50:52Z</time>
            </trkpt>
            <trkpt lat="55.146170" lon="-8.287300">
                <time>2019-06-14T13:50:53Z</time>
            </trkpt>
            <trkpt lat="55.146110" lon="-8.287320">
                <time>2019-06-14T13:50:54Z</time>
            </trkpt>
            <trkpt lat="55.146050" lon="-8.287340">
                <time>2019-06-14T13:50:55Z</time>
            </trkpt>
            <trkpt lat="55.146000" lon="-8.287360">
                <time>2019-06-14T13:50:56Z</time>
            </trkpt>
            <trkpt lat="55.145940" lon="-8.287390">
                <time>2019-06-14T13:50:57Z</time>
            </trkpt>
            <trkpt lat="55.145880" lon="-8.287410">
                <time>2019-06-14T13:50:58Z</time>
            </trkpt>
            <trkpt lat="55.145810" lon="-8.287430">
                <time>2019-06-14T13:50:59Z</time>
            </trkpt>
            <trkpt lat="55.145750" lon="-8.287460">
                <time>2019-06-14T13:51:00Z</time>
            </trkpt>
            <trkpt lat="55.145680" lon="-8.287480">
                <time>2019-06-14T13:51:01Z</time>
            </trkpt>
            <trkpt lat="55.145620" lon="-8.287500">
                <time>2019-06-14T13:51:02Z</time>
            </trkpt>
            <trkpt lat="55.145550" lon="-8.287530">
                <time>2019-06-14T13:51:03Z</time>
            </trkpt>
            <trkpt lat="55.145490" lon="-8.287560">
                <time>2019-06-14T13:51:04Z</time>
            </trkpt>
            <trkpt lat="55.145440" lon="-8.287580">
                <time>2019-06-14T13:51:05Z</time>
            </trkpt>
            <trkpt lat="55.145390" lon="-8.287620">
                <time>2019-06-14T13:51:06Z</time>
            </trkpt>
            <trkpt lat="55.145330" lon="-8.287670">
                <time>2019-06-14T13:51:07Z</time>
            </trkpt>
            <trkpt lat="55.145260" lon="-8.287730">
                <time>2019-06-14T13:51:08Z</time>
            </trkpt>
            <trkpt lat="55.145200" lon="-8.287800">
                <time>2019-06-14T13:51:09Z</time>
            </trkpt>
            <trkpt lat="55.145140" lon="-8.287870">
                <time>2019-06-14T13:51:10Z</time>
            </trkpt>
            <trkpt lat="55.145080" lon="-8.287950">
                <time>2019-06-14T13:51:11Z</time>
            </trkpt>
            <trkpt lat="55.145030" lon="-8.288040">
                <time>2019-06-14T13:51:12Z</time>
            </trkpt>
            <trkpt lat="55.144980" lon="-8.288130">
                <time>2019-06-14T13:51:13Z</time>
            </trkpt>
            <trkpt lat="55.144940" lon="-8.288220">
                <time>2019-06-14T13:51:14Z</time>
            </trkpt>
            <trkpt lat="55.144900" lon="-8.288300">
                <time>2019-06-14T13:51:15Z</time>
            </trkpt>
            <trkpt lat="55.144850" lon="-8.288370">
                <time>2019-06-14T13:51:16Z</time>
            </trkpt>
            <trkpt lat="55.144790" lon="-8.288430">
                <time>2019-06-14T13:51:17Z</time>
            </trkpt>
            <trkpt lat="55.144730" lon="-8.288470">
                <time>2019-06-14T13:51:18Z</time>
            </trkpt>
            <trkpt lat="55.144680" lon="-8.288510">
                <time>2019-06-14T13:51:19Z</time>
            </trkpt>
            <trkpt lat="55.144620" lon="-8.288540">
                <time>2019-06-14T13:51:20Z</time>
            </trkpt>
            <trkpt lat="55.144550" lon="-8.288570">
                <time>2019-06-14T13:51:21Z</time>
            </trkpt>
            <trkpt lat="55.144480" lon="-8.288600">
                <time>2019-06-14T13:51:22Z</time>
            </trkpt>
            <trkpt lat="55.144400" lon="-8.288620">
                <time>2019-06-14T13:51:23Z</time>
            </trkpt>
            <trkpt lat="55.144320" lon="-8.288640">
                <time>2019-06-14T13:51:24Z</time>
            </trkpt>
            <trkpt lat="55.144240" lon="-8.288650">
                <time>2019-06-14T13:51:25Z</time>
            </trkpt>
            <trkpt lat="55.144160" lon="-8.288640">
                <time>2019-06-14T13:51:26Z</time>
            </trkpt>
            <trkpt lat="55.144070" lon="-8.288630">
                <time>2019-06-14T13:51:27Z</time>
            </trkpt>
            <trkpt lat="55.143980" lon="-8.288610">
                <time>2019-06-14T13:51:28Z</time>
            </trkpt>
            <trkpt lat="55.143910" lon="-8.288570">
                <time>2019-06-14T13:51:29Z</time>
            </trkpt>
            <trkpt lat="55.143840" lon="-8.288530">
                <time>2019-06-14T13:51:30Z</time>
            </trkpt>
            <trkpt lat="55.143770" lon="-8.288480">
                <time>2019-06-14T13:51:31Z</time>
            </trkpt>
            <trkpt lat="55.143710" lon="-8.288430">
                <time>2019-06-14T13:51:32Z</time>
            </trkpt>
            <trkpt lat="55.143650" lon="-8.288360">
                <time>2019-06-14T13:51:33Z</time>
            </trkpt>
            <trkpt lat="55.143580" lon="-8.288280">
                <time>2019-06-14T13:51:34Z</time>
            </trkpt>
            <trkpt lat="55.143510" lon="-8.288200">
                <time>2019-06-14T13:51:35Z</time>
            </trkpt>
            <trkpt lat="55.143440" lon="-8.288110">
                <time>2019-06-14T13:51:36Z</time>
            </trkpt>
            <trkpt lat="55.143370" lon="-8.288020">
                <time>2019-06-14T13:51:37Z</time>
            </trkpt>
            <trkpt lat="55.143300" lon="-8.287930">
                <time>2019-06-14T13:51:38Z</time>
            </trkpt>
            <trkpt lat="55.143240" lon="-8.287830">
                <time>2019-06-14T13:51:39Z</time>
            </trkpt>
            <trkpt lat="55.143170" lon="-8.287730">
                <time>2019-06-14T13:51:40Z</time>
            </trkpt>
            <trkpt lat="55.143100" lon="-8.287620">
                <time>2019-06-14T13:51:41Z</time>
            </trkpt>
            <trkpt lat="55.143030" lon="-8.287500">
                <time>2019-06-14T13:51:42Z</time>
            </trkpt>
            <trkpt lat="55.142960" lon="-8.287390">
                <time>2019-06-14T13:51:43Z</time>
            </trkpt>
            <trkpt lat="55.142900" lon="-8.287280">
                <time>2019-06-14T13:51:44Z</time>
            </trkpt>
            <trkpt lat="55.142830" lon="-8.287160">
                <time>2019-06-14T13:51:45Z</time>
            </trkpt>
            <trkpt lat="55.142760" lon="-8.287040">
                <time>2019-06-14T13:51:46Z</time>
            </trkpt>
            <trkpt lat="55.142710" lon="-8.286920">
                <time>2019-06-14T13:51:47Z</time>
            </trkpt>
            <trkpt lat="55.142660" lon="-8.286810">
                <time>2019-06-14T13:51:48Z</time>
            </trkpt>
            <trkpt lat="55.142610" lon="-8.286700">
                <time>2019-06-14T13:51:49Z</time>
            </trkpt>
            <trkpt lat="55.142560" lon="-8.286580">
                <time>2019-06-14T13:51:50Z</time>
            </trkpt>
            <trkpt lat="55.142510" lon="-8.286460">
                <time>2019-06-14T13:51:51Z</time>
            </trkpt>
            <trkpt lat="55.142460" lon="-8.286320">
                <time>2019-06-14T13:51:52Z</time>
            </trkpt>
            <trkpt lat="55.142420" lon="-8.286170">
                <time>2019-06-14T13:51:53Z</time>
            </trkpt>
            <trkpt lat="55.142380" lon="-8.286010">
                <time>2019-06-14T13:51:54Z</time>
            </trkpt>
            <trkpt lat="55.142360" lon="-8.285850">
                <time>2019-06-14T13:51:55Z</time>
            </trkpt>
            <trkpt lat="55.142340" lon="-8.285680">
                <time>2019-06-14T13:51:56Z</time>
            </trkpt>
            <trkpt lat="55.142330" lon="-8.285520">
                <time>2019-06-14T13:51:57Z</time>
            </trkpt>
            <trkpt lat="55.142330" lon="-8.285350">
                <time>2019-06-14T13:51:58Z</time>
            </trkpt>
            <trkpt lat="55.142330" lon="-8.285190">
                <time>2019-06-14T13:51:59Z</time>
            </trkpt>
            <trkpt lat="55.142320" lon="-8.285040">
                <time>2019-06-14T13:52:00Z</time>
            </trkpt>
            <trkpt lat="55.142290" lon="-8.284920">
                <time>2019-06-14T13:52:01Z</time>
            </trkpt>
            <trkpt lat="55.142240" lon="-8.284810">
                <time>2019-06-14T13:52:02Z</time>
            </trkpt>
            <trkpt lat="55.142180" lon="-8.284700">
                <time>2019-06-14T13:52:03Z</time>
            </trkpt>
            <trkpt lat="55.142130" lon="-8.284570">
                <time>2019-06-14T13:52:04Z</time>
            </trkpt>
            <trkpt lat="55.142080" lon="-8.284430">
                <time>2019-06-14T13:52:05Z</time>
            </trkpt>
            <trkpt lat="55.142030" lon="-8.284260">
                <time>2019-06-14T13:52:06Z</time>
            </trkpt>
            <trkpt lat="55.141980" lon="-8.284080">
                <time>2019-06-14T13:52:07Z</time>
            </trkpt>
            <trkpt lat="55.141930" lon="-8.283890">
                <time>2019-06-14T13:52:08Z</time>
            </trkpt>
            <trkpt lat="55.141880" lon="-8.283700">
                <time>2019-06-14T13:52:09Z</time>
            </trkpt>
            <trkpt lat="55.141830" lon="-8.283500">
                <time>2019-06-14T13:52:10Z</time>
            </trkpt>
            <trkpt lat="55.141780" lon="-8.283320">
                <time>2019-06-14T13:52:11Z</time>
            </trkpt>
            <trkpt lat="55.141740" lon="-8.283160">
                <time>2019-06-14T13:52:12Z</time>
            </trkpt>
            <trkpt lat="55.141690" lon="-8.283020">
                <time>2019-06-14T13:52:13Z</time>
            </trkpt>
            <trkpt lat="55.141660" lon="-8.282900">
                <time>2019-06-14T13:52:14Z</time>
            </trkpt>
            <trkpt lat="55.141640" lon="-8.282790">
                <time>2019-06-14T13:52:15Z</time>
            </trkpt>
            <trkpt lat="55.141640" lon="-8.282680">
                <time>2019-06-14T13:52:16Z</time>
            </trkpt>
            <trkpt lat="55.141650" lon="-8.282560">
                <time>2019-06-14T13:52:17Z</time>
            </trkpt>
            <trkpt lat="55.141690" lon="-8.282410">
                <time>2019-06-14T13:52:18Z</time>
            </trkpt>
            <trkpt lat="55.141730" lon="-8.282250">
                <time>2019-06-14T13:52:19Z</time>
            </trkpt>
            <trkpt lat="55.141760" lon="-8.282070">
                <time>2019-06-14T13:52:20Z</time>
            </trkpt>
            <trkpt lat="55.141790" lon="-8.281890">
                <time>2019-06-14T13:52:21Z</time>
            </trkpt>
            <trkpt lat="55.141830" lon="-8.281660">
                <time>2019-06-14T13:52:22Z</time>
            </trkpt>
            <trkpt lat="55.141870" lon="-8.281390">
                <time>2019-06-14T13:52:23Z</time>
            </trkpt>
            <trkpt lat="55.141900" lon="-8.281110">
                <time>2019-06-14T13:52:24Z</time>
            </trkpt>
            <trkpt lat="55.141940" lon="-8.280860">
                <time>2019-06-14T13:52:25Z</time>
            </trkpt>
            <trkpt lat="55.141970" lon="-8.280630">
                <time>2019-06-14T13:52:26Z</time>
            </trkpt>
            <trkpt lat="55.141990" lon="-8.280420">
                <time>2019-06-14T13:52:27Z</time>
            </trkpt>
            <trkpt lat="55.142010" lon="-8.280220">
                <time>2019-06-14T13:52:28Z</time>
            </trkpt>
            <trkpt lat="55.142030" lon="-8.280010">
                <time>2019-06-14T13:52:29Z</time>
            </trkpt>
            <trkpt lat="55.142050" lon="-8.279810">
                <time>2019-06-14T13:52:30Z</time>
            </trkpt>
            <trkpt lat="55.142060" lon="-8.279620">
                <time>2019-06-14T13:52:31Z</time>
            </trkpt>
            <trkpt lat="55.142060" lon="-8.279460">
                <time>2019-06-14T13:52:32Z</time>
            </trkpt>
            <trkpt lat="55.142070" lon="-8.279300">
                <time>2019-06-14T13:52:33Z</time>
            </trkpt>
            <trkpt lat="55.142090" lon="-8.279130">
                <time>2019-06-14T13:52:34Z</time>
            </trkpt>
            <trkpt lat="55.142100" lon="-8.278940">
                <time>2019-06-14T13:52:35Z</time>
            </trkpt>
            <trkpt lat="55.142100" lon="-8.278720">
                <time>2019-06-14T13:52:36Z</time>
            </trkpt>
            <trkpt lat="55.142100" lon="-8.278490">
                <time>2019-06-14T13:52:37Z</time>
            </trkpt>
            <trkpt lat="55.142090" lon="-8.278260">
                <time>2019-06-14T13:52:38Z</time>
            </trkpt>
            <trkpt lat="55.142090" lon="-8.278040">
                <time>2019-06-14T13:52:39Z</time>
            </trkpt>
            <trkpt lat="55.142110" lon="-8.277850">
                <time>2019-06-14T13:52:40Z</time>
            </trkpt>
            <trkpt lat="55.142150" lon="-8.277670">
                <time>2019-06-14T13:52:41Z</time>
            </trkpt>
            <trkpt lat="55.142190" lon="-8.277500">
                <time>2019-06-14T13:52:42Z</time>
            </trkpt>
            <trkpt lat="55.142230" lon="-8.277300">
                <time>2019-06-14T13:52:43Z</time>
            </trkpt>
            <trkpt lat="55.142270" lon="-8.277080">
                <time>2019-06-14T13:52:44Z</time>
            </trkpt>
            <trkpt lat="55.142290" lon="-8.276840">
                <time>2019-06-14T13:52:45Z</time>
            </trkpt>
            <trkpt lat="55.142320" lon="-8.276600">
                <time>2019-06-14T13:52:46Z</time>
            </trkpt>
            <trkpt lat="55.142350" lon="-8.276350">
                <time>2019-06-14T13:52:47Z</time>
            </trkpt>
            <trkpt lat="55.142380" lon="-8.276110">
                <time>2019-06-14T13:52:48Z</time>
            </trkpt>
            <trkpt lat="55.142420" lon="-8.275850">
                <time>2019-06-14T13:52:49Z</time>
            </trkpt>
            <trkpt lat="55.142460" lon="-8.275600">
                <time>2019-06-14T13:52:50Z</time>
            </trkpt>
            <trkpt lat="55.142500" lon="-8.275350">
                <time>2019-06-14T13:52:51Z</time>
            </trkpt>
            <trkpt lat="55.142550" lon="-8.275090">
                <time>2019-06-14T13:52:52Z</time>
            </trkpt>
            <trkpt lat="55.142590" lon="-8.274820">
                <time>2019-06-14T13:52:53Z</time>
            </trkpt>
            <trkpt lat="55.142630" lon="-8.274560">
                <time>2019-06-14T13:52:54Z</time>
            </trkpt>
            <trkpt lat="55.142670" lon="-8.274310">
                <time>2019-06-14T13:52:55Z</time>
            </trkpt>
            <trkpt lat="55.142710" lon="-8.274050">
                <time>2019-06-14T13:52:56Z</time>
            </trkpt>
            <trkpt lat="55.142750" lon="-8.273810">
                <time>2019-06-14T13:52:57Z</time>
            </trkpt>
            <trkpt lat="55.142790" lon="-8.273550">
                <time>2019-06-14T13:52:58Z</time>
            </trkpt>
            <trkpt lat="55.142830" lon="-8.273310">
                <time>2019-06-14T13:52:59Z</time>
            </trkpt>
            <trkpt lat="55.142870" lon="-8.273070">
                <time>2019-06-14T13:53:00Z</time>
            </trkpt>
            <trkpt lat="55.142900" lon="-8.272820">
                <time>2019-06-14T13:53:01Z</time>
            </trkpt>
            <trkpt lat="55.142940" lon="-8.272570">
                <time>2019-06-14T13:53:02Z</time>
            </trkpt>
            <trkpt lat="55.142980" lon="-8.272300">
                <time>2019-06-14T13:53:03Z</time>
            </trkpt>
            <trkpt lat="55.143030" lon="-8.272020">
                <time>2019-06-14T13:53:04Z</time>
            </trkpt>
            <trkpt lat="55.143060" lon="-8.271720">
                <time>2019-06-14T13:53:05Z</time>
            </trkpt>
            <trkpt lat="55.143090" lon="-8.271410">
                <time>2019-06-14T13:53:06Z</time>
            </trkpt>
            <trkpt lat="55.143110" lon="-8.271070">
                <time>2019-06-14T13:53:07Z</time>
            </trkpt>
            <trkpt lat="55.143130" lon="-8.270730">
                <time>2019-06-14T13:53:08Z</time>
            </trkpt>
            <trkpt lat="55.143140" lon="-8.270390">
                <time>2019-06-14T13:53:09Z</time>
            </trkpt>
            <trkpt lat="55.143150" lon="-8.270070">
                <time>2019-06-14T13:53:10Z</time>
            </trkpt>
            <trkpt lat="55.143140" lon="-8.269760">
                <time>2019-06-14T13:53:11Z</time>
            </trkpt>
            <trkpt lat="55.143100" lon="-8.269440">
                <time>2019-06-14T13:53:12Z</time>
            </trkpt>
            <trkpt lat="55.143040" lon="-8.269120">
                <time>2019-06-14T13:53:13Z</time>
            </trkpt>
            <trkpt lat="55.142980" lon="-8.268820">
                <time>2019-06-14T13:53:14Z</time>
            </trkpt>
            <trkpt lat="55.142930" lon="-8.268540">
                <time>2019-06-14T13:53:15Z</time>
            </trkpt>
            <trkpt lat="55.142890" lon="-8.268280">
                <time>2019-06-14T13:53:16Z</time>
            </trkpt>
            <trkpt lat="55.142870" lon="-8.268040">
                <time>2019-06-14T13:53:17Z</time>
            </trkpt>
            <trkpt lat="55.142870" lon="-8.267820">
                <time>2019-06-14T13:53:18Z</time>
            </trkpt>
            <trkpt lat="55.142880" lon="-8.267620">
                <time>2019-06-14T13:53:19Z</time>
            </trkpt>
            <trkpt lat="55.142890" lon="-8.267430">
                <time>2019-06-14T13:53:20Z</time>
            </trkpt>
            <trkpt lat="55.142880" lon="-8.267230">
                <time>2019-06-14T13:53:21Z</time>
            </trkpt>
            <trkpt lat="55.142850" lon="-8.267030">
                <time>2019-06-14T13:53:22Z</time>
            </trkpt>
            <trkpt lat="55.142810" lon="-8.266820">
                <time>2019-06-14T13:53:23Z</time>
            </trkpt>
            <trkpt lat="55.142760" lon="-8.266610">
                <time>2019-06-14T13:53:24Z</time>
            </trkpt>
            <trkpt lat="55.142710" lon="-8.266410">
                <time>2019-06-14T13:53:25Z</time>
            </trkpt>
            <trkpt lat="55.142640" lon="-8.266220">
                <time>2019-06-14T13:53:26Z</time>
            </trkpt>
            <trkpt lat="55.142570" lon="-8.266040">
                <time>2019-06-14T13:53:27Z</time>
            </trkpt>
            <trkpt lat="55.142480" lon="-8.265840">
                <time>2019-06-14T13:53:28Z</time>
            </trkpt>
            <trkpt lat="55.142390" lon="-8.265620">
                <time>2019-06-14T13:53:29Z</time>
            </trkpt>
            <trkpt lat="55.142300" lon="-8.265380">
                <time>2019-06-14T13:53:30Z</time>
            </trkpt>
            <trkpt lat="55.142220" lon="-8.265120">
                <time>2019-06-14T13:53:31Z</time>
            </trkpt>
            <trkpt lat="55.142130" lon="-8.264850">
                <time>2019-06-14T13:53:32Z</time>
            </trkpt>
            <trkpt lat="55.142050" lon="-8.264590">
                <time>2019-06-14T13:53:33Z</time>
            </trkpt>
            <trkpt lat="55.141980" lon="-8.264340">
                <time>2019-06-14T13:53:34Z</time>
            </trkpt>
            <trkpt lat="55.141910" lon="-8.264090">
                <time>2019-06-14T13:53:35Z</time>
            </trkpt>
            <trkpt lat="55.141860" lon="-8.263860">
                <time>2019-06-14T13:53:36Z</time>
            </trkpt>
            <trkpt lat="55.141810" lon="-8.263620">
                <time>2019-06-14T13:53:37Z</time>
            </trkpt>
            <trkpt lat="55.141800" lon="-8.263380">
                <time>2019-06-14T13:53:38Z</time>
            </trkpt>
            <trkpt lat="55.141810" lon="-8.263140">
                <time>2019-06-14T13:53:39Z</time>
            </trkpt>
            <trkpt lat="55.141840" lon="-8.262890">
                <time>2019-06-14T13:53:40Z</time>
            </trkpt>
            <trkpt lat="55.141890" lon="-8.262650">
                <time>2019-06-14T13:53:41Z</time>
            </trkpt>
            <trkpt lat="55.141920" lon="-8.262420">
                <time>2019-06-14T13:53:42Z</time>
            </trkpt>
            <trkpt lat="55.141960" lon="-8.262190">
                <time>2019-06-14T13:53:43Z</time>
            </trkpt>
            <trkpt lat="55.141980" lon="-8.261960">
                <time>2019-06-14T13:53:44Z</time>
            </trkpt>
            <trkpt lat="55.142000" lon="-8.261720">
                <time>2019-06-14T13:53:45Z</time>
            </trkpt>
            <trkpt lat="55.142030" lon="-8.261510">
                <time>2019-06-14T13:53:46Z</time>
            </trkpt>
            <trkpt lat="55.142060" lon="-8.261300">
                <time>2019-06-14T13:53:47Z</time>
            </trkpt>
            <trkpt lat="55.142110" lon="-8.261080">
                <time>2019-06-14T13:53:48Z</time>
            </trkpt>
            <trkpt lat="55.142180" lon="-8.260880">
                <time>2019-06-14T13:53:49Z</time>
            </trkpt>
            <trkpt lat="55.142280" lon="-8.260690">
                <time>2019-06-14T13:53:50Z</time>
            </trkpt>
            <trkpt lat="55.142380" lon="-8.260510">
                <time>2019-06-14T13:53:51Z</time>
            </trkpt>
            <trkpt lat="55.142470" lon="-8.260330">
                <time>2019-06-14T13:53:52Z</time>
            </trkpt>
            <trkpt lat="55.142540" lon="-8.260130">
                <time>2019-06-14T13:53:53Z</time>
            </trkpt>
            <trkpt lat="55.142610" lon="-8.259920">
                <time>2019-06-14T13:53:54Z</time>
            </trkpt>
            <trkpt lat="55.142690" lon="-8.259710">
                <time>2019-06-14T13:53:55Z</time>
            </trkpt>
            <trkpt lat="55.142790" lon="-8.259520">
                <time>2019-06-14T13:53:56Z</time>
            </trkpt>
            <trkpt lat="55.142900" lon="-8.259330">
                <time>2019-06-14T13:53:57Z</time>
            </trkpt>
            <trkpt lat="55.143010" lon="-8.259150">
                <time>2019-06-14T13:53:58Z</time>
            </trkpt>
            <trkpt lat="55.143110" lon="-8.258990">
                <time>2019-06-14T13:53:59Z</time>
            </trkpt>
            <trkpt lat="55.143210" lon="-8.258820">
                <time>2019-06-14T13:54:00Z</time>
            </trkpt>
            <trkpt lat="55.143300" lon="-8.258640">
                <time>2019-06-14T13:54:01Z</time>
            </trkpt>
            <trkpt lat="55.143390" lon="-8.258430">
                <time>2019-06-14T13:54:02Z</time>
            </trkpt>
            <trkpt lat="55.143480" lon="-8.258220">
                <time>2019-06-14T13:54:03Z</time>
            </trkpt>
            <trkpt lat="55.143560" lon="-8.258000">
                <time>2019-06-14T13:54:04Z</time>
            </trkpt>
            <trkpt lat="55.143660" lon="-8.257780">
                <time>2019-06-14T13:54:05Z</time>
            </trkpt>
            <trkpt lat="55.143770" lon="-8.257570">
                <time>2019-06-14T13:54:06Z</time>
            </trkpt>
            <trkpt lat="55.143860" lon="-8.257380">
                <time>2019-06-14T13:54:07Z</time>
            </trkpt>
            <trkpt lat="55.143930" lon="-8.257190">
                <time>2019-06-14T13:54:08Z</time>
            </trkpt>
            <trkpt lat="55.144000" lon="-8.256990">
                <time>2019-06-14T13:54:09Z</time>
            </trkpt>
            <trkpt lat="55.144060" lon="-8.256780">
                <time>2019-06-14T13:54:10Z</time>
            </trkpt>
            <trkpt lat="55.144110" lon="-8.256530">
                <time>2019-06-14T13:54:11Z</time>
            </trkpt>
            <trkpt lat="55.144160" lon="-8.256240">
                <time>2019-06-14T13:54:12Z</time>
            </trkpt>
            <trkpt lat="55.144210" lon="-8.255930">
                <time>2019-06-14T13:54:13Z</time>
            </trkpt>
            <trkpt lat="55.144270" lon="-8.255590">
                <time>2019-06-14T13:54:14Z</time>
            </trkpt>
            <trkpt lat="55.144330" lon="-8.255240">
                <time>2019-06-14T13:54:15Z</time>
            </trkpt>
            <trkpt lat="55.144390" lon="-8.254890">
                <time>2019-06-14T13:54:16Z</time>
            </trkpt>
            <trkpt lat="55.144450" lon="-8.254540">
                <time>2019-06-14T13:54:17Z</time>
            </trkpt>
            <trkpt lat="55.144500" lon="-8.254200">
                <time>2019-06-14T13:54:18Z</time>
            </trkpt>
            <trkpt lat="55.144550" lon="-8.253860">
                <time>2019-06-14T13:54:19Z</time>
            </trkpt>
            <trkpt lat="55.144600" lon="-8.253530">
                <time>2019-06-14T13:54:20Z</time>
            </trkpt>
            <trkpt lat="55.144660" lon="-8.253210">
                <time>2019-06-14T13:54:21Z</time>
            </trkpt>
            <trkpt lat="55.144720" lon="-8.252890">
                <time>2019-06-14T13:54:22Z</time>
            </trkpt>
            <trkpt lat="55.144780" lon="-8.252570">
                <time>2019-06-14T13:54:23Z</time>
            </trkpt>
            <trkpt lat="55.144840" lon="-8.252260">
                <time>2019-06-14T13:54:24Z</time>
            </trkpt>
            <trkpt lat="55.144900" lon="-8.251960">
                <time>2019-06-14T13:54:25Z</time>
            </trkpt>
            <trkpt lat="55.144960" lon="-8.251670">
                <time>2019-06-14T13:54:26Z</time>
            </trkpt>
            <trkpt lat="55.145010" lon="-8.251400">
                <time>2019-06-14T13:54:27Z</time>
            </trkpt>
            <trkpt lat="55.145050" lon="-8.251140">
                <time>2019-06-14T13:54:28Z</time>
            </trkpt>
            <trkpt lat="55.145070" lon="-8.250870">
                <time>2019-06-14T13:54:29Z</time>
            </trkpt>
            <trkpt lat="55.145060" lon="-8.250580">
                <time>2019-06-14T13:54:30Z</time>
            </trkpt>
            <trkpt lat="55.145040" lon="-8.250290">
                <time>2019-06-14T13:54:31Z</time>
            </trkpt>
            <trkpt lat="55.145000" lon="-8.249980">
                <time>2019-06-14T13:54:32Z</time>
            </trkpt>
            <trkpt lat="55.144950" lon="-8.249660">
                <time>2019-06-14T13:54:33Z</time>
            </trkpt>
            <trkpt lat="55.144890" lon="-8.249330">
                <time>2019-06-14T13:54:34Z</time>
            </trkpt>
            <trkpt lat="55.144820" lon="-8.248990">
                <time>2019-06-14T13:54:35Z</time>
            </trkpt>
            <trkpt lat="55.144740" lon="-8.248640">
                <time>2019-06-14T13:54:36Z</time>
            </trkpt>
            <trkpt lat="55.144670" lon="-8.248280">
                <time>2019-06-14T13:54:37Z</time>
            </trkpt>
            <trkpt lat="55.144610" lon="-8.247900">
                <time>2019-06-14T13:54:38Z</time>
            </trkpt>
            <trkpt lat="55.144570" lon="-8.247520">
                <time>2019-06-14T13:54:39Z</time>
            </trkpt>
            <trkpt lat="55.144540" lon="-8.247120">
                <time>2019-06-14T13:54:40Z</time>
            </trkpt>
            <trkpt lat="55.144520" lon="-8.246740">
                <time>2019-06-14T13:54:41Z</time>
            </trkpt>
            <trkpt lat="55.144490" lon="-8.246360">
                <time>2019-06-14T13:54:42Z</time>
            </trkpt>
            <trkpt lat="55.144460" lon="-8.246010">
                <time>2019-06-14T13:54:43Z</time>
            </trkpt>
            <trkpt lat="55.144420" lon="-8.245680">
                <time>2019-06-14T13:54:44Z</time>
            </trkpt>
            <trkpt lat="55.144390" lon="-8.245370">
                <time>2019-06-14T13:54:45Z</time>
            </trkpt>
            <trkpt lat="55.144350" lon="-8.245080">
                <time>2019-06-14T13:54:46Z</time>
            </trkpt>
            <trkpt lat="55.144300" lon="-8.244800">
                <time>2019-06-14T13:54:47Z</time>
            </trkpt>
            <trkpt lat="55.144240" lon="-8.244540">
                <time>2019-06-14T13:54:48Z</time>
            </trkpt>
            <trkpt lat="55.144170" lon="-8.244270">
                <time>2019-06-14T13:54:49Z</time>
            </trkpt>
            <trkpt lat="55.144090" lon="-8.244000">
                <time>2019-06-14T13:54:50Z</time>
            </trkpt>
            <trkpt lat="55.143990" lon="-8.243720">
                <time>2019-06-14T13:54:51Z</time>
            </trkpt>
            <trkpt lat="55.143870" lon="-8.243480">
                <time>2019-06-14T13:54:52Z</time>
            </trkpt>
            <trkpt lat="55.143740" lon="-8.243280">
                <time>2019-06-14T13:54:53Z</time>
            </trkpt>
            <trkpt lat="55.143600" lon="-8.243100">
                <time>2019-06-14T13:54:54Z</time>
            </trkpt>
            <trkpt lat="55.143440" lon="-8.242940">
                <time>2019-06-14T13:54:55Z</time>
            </trkpt>
            <trkpt lat="55.143270" lon="-8.242790">
                <time>2019-06-14T13:54:56Z</time>
            </trkpt>
            <trkpt lat="55.143110" lon="-8.242650">
                <time>2019-06-14T13:54:57Z</time>
            </trkpt>
            <trkpt lat="55.142960" lon="-8.242510">
                <time>2019-06-14T13:54:58Z</time>
            </trkpt>
            <trkpt lat="55.142820" lon="-8.242360">
                <time>2019-06-14T13:54:59Z</time>
            </trkpt>
            <trkpt lat="55.142680" lon="-8.242240">
                <time>2019-06-14T13:55:00Z</time>
            </trkpt>
            <trkpt lat="55.142550" lon="-8.242120">
                <time>2019-06-14T13:55:01Z</time>
            </trkpt>
            <trkpt lat="55.142440" lon="-8.242010">
                <time>2019-06-14T13:55:02Z</time>
            </trkpt>
            <trkpt lat="55.142340" lon="-8.241900">
                <time>2019-06-14T13:55:03Z</time>
            </trkpt>
            <trkpt lat="55.142270" lon="-8.241770">
                <time>2019-06-14T13:55:04Z</time>
            </trkpt>
            <trkpt lat="55.142240" lon="-8.241590">
                <time>2019-06-14T13:55:05Z</time>
            </trkpt>
            <trkpt lat="55.142240" lon="-8.241420">
                <time>2019-06-14T13:55:06Z</time>
            </trkpt>
            <trkpt lat="55.142260" lon="-8.241240">
                <time>2019-06-14T13:55:07Z</time>
            </trkpt>
            <trkpt lat="55.142290" lon="-8.241050">
                <time>2019-06-14T13:55:08Z</time>
            </trkpt>
            <trkpt lat="55.142330" lon="-8.240850">
                <time>2019-06-14T13:55:09Z</time>
            </trkpt>
            <trkpt lat="55.142360" lon="-8.240630">
                <time>2019-06-14T13:55:10Z</time>
            </trkpt>
            <trkpt lat="55.142400" lon="-8.240400">
                <time>2019-06-14T13:55:11Z</time>
            </trkpt>
            <trkpt lat="55.142440" lon="-8.240150">
                <time>2019-06-14T13:55:12Z</time>
            </trkpt>
            <trkpt lat="55.142480" lon="-8.239900">
                <time>2019-06-14T13:55:13Z</time>
            </trkpt>
            <trkpt lat="55.142520" lon="-8.239640">
                <time>2019-06-14T13:55:14Z</time>
            </trkpt>
            <trkpt lat="55.142530" lon="-8.239380">
                <time>2019-06-14T13:55:15Z</time>
            </trkpt>
            <trkpt lat="55.142510" lon="-8.239110">
                <time>2019-06-14T13:55:16Z</time>
            </trkpt>
            <trkpt lat="55.142470" lon="-8.238840">
                <time>2019-06-14T13:55:17Z</time>
            </trkpt>
            <trkpt lat="55.142430" lon="-8.238550">
                <time>2019-06-14T13:55:18Z</time>
            </trkpt>
            <trkpt lat="55.142380" lon="-8.238250">
                <time>2019-06-14T13:55:19Z</time>
            </trkpt>
            <trkpt lat="55.142330" lon="-8.237940">
                <time>2019-06-14T13:55:20Z</time>
            </trkpt>
            <trkpt lat="55.142280" lon="-8.237620">
                <time>2019-06-14T13:55:21Z</time>
            </trkpt>
            <trkpt lat="55.142240" lon="-8.237300">
                <time>2019-06-14T13:55:22Z</time>
            </trkpt>
            <trkpt lat="55.142190" lon="-8.236990">
                <time>2019-06-14T13:55:23Z</time>
            </trkpt>
            <trkpt lat="55.142160" lon="-8.236680">
                <time>2019-06-14T13:55:24Z</time>
            </trkpt>
            <trkpt lat="55.142120" lon="-8.236390">
                <time>2019-06-14T13:55:25Z</time>
            </trkpt>
            <trkpt lat="55.142080" lon="-8.236110">
                <time>2019-06-14T13:55:26Z</time>
            </trkpt>
            <trkpt lat="55.142050" lon="-8.235810">
                <time>2019-06-14T13:55:27Z</time>
            </trkpt>
            <trkpt lat="55.142020" lon="-8.235530">
                <time>2019-06-14T13:55:28Z</time>
            </trkpt>
            <trkpt lat="55.141980" lon="-8.235250">
                <time>2019-06-14T13:55:29Z</time>
            </trkpt>
            <trkpt lat="55.141940" lon="-8.234970">
                <time>2019-06-14T13:55:30Z</time>
            </trkpt>
            <trkpt lat="55.141900" lon="-8.234690">
                <time>2019-06-14T13:55:31Z</time>
            </trkpt>
            <trkpt lat="55.141840" lon="-8.234410">
                <time>2019-06-14T13:55:32Z</time>
            </trkpt>
            <trkpt lat="55.141780" lon="-8.234130">
                <time>2019-06-14T13:55:33Z</time>
            </trkpt>
            <trkpt lat="55.141710" lon="-8.233860">
                <time>2019-06-14T13:55:34Z</time>
            </trkpt>
            <trkpt lat="55.141640" lon="-8.233590">
                <time>2019-06-14T13:55:35Z</time>
            </trkpt>
            <trkpt lat="55.141570" lon="-8.233340">
                <time>2019-06-14T13:55:36Z</time>
            </trkpt>
            <trkpt lat="55.141500" lon="-8.233100">
                <time>2019-06-14T13:55:37Z</time>
            </trkpt>
            <trkpt lat="55.141420" lon="-8.232880">
                <time>2019-06-14T13:55:38Z</time>
            </trkpt>
            <trkpt lat="55.141330" lon="-8.232670">
                <time>2019-06-14T13:55:39Z</time>
            </trkpt>
            <trkpt lat="55.141210" lon="-8.232470">
                <time>2019-06-14T13:55:40Z</time>
            </trkpt>
            <trkpt lat="55.141080" lon="-8.232310">
                <time>2019-06-14T13:55:41Z</time>
            </trkpt>
            <trkpt lat="55.140940" lon="-8.232150">
                <time>2019-06-14T13:55:42Z</time>
            </trkpt>
            <trkpt lat="55.140790" lon="-8.231980">
                <time>2019-06-14T13:55:43Z</time>
            </trkpt>
            <trkpt lat="55.140640" lon="-8.231820">
                <time>2019-06-14T13:55:44Z</time>
            </trkpt>
            <trkpt lat="55.140490" lon="-8.231660">
                <time>2019-06-14T13:55:45Z</time>
            </trkpt>
            <trkpt lat="55.140340" lon="-8.231500">
                <time>2019-06-14T13:55:46Z</time>
            </trkpt>
            <trkpt lat="55.140200" lon="-8.231340">
                <time>2019-06-14T13:55:47Z</time>
            </trkpt>
            <trkpt lat="55.140060" lon="-8.231190">
                <time>2019-06-14T13:55:48Z</time>
            </trkpt>
            <trkpt lat="55.139930" lon="-8.231030">
                <time>2019-06-14T13:55:49Z</time>
            </trkpt>
            <trkpt lat="55.139810" lon="-8.230870">
                <time>2019-06-14T13:55:50Z</time>
            </trkpt>
            <trkpt lat="55.139690" lon="-8.230710">
                <time>2019-06-14T13:55:51Z</time>
            </trkpt>
            <trkpt lat="55.139590" lon="-8.230570">
                <time>2019-06-14T13:55:52Z</time>
            </trkpt>
            <trkpt lat="55.139510" lon="-8.230420">
                <time>2019-06-14T13:55:53Z</time>
            </trkpt>
            <trkpt lat="55.139470" lon="-8.230270">
                <time>2019-06-14T13:55:54Z</time>
            </trkpt>
            <trkpt lat="55.139470" lon="-8.230100">
                <time>2019-06-14T13:55:55Z</time>
            </trkpt>
            <trkpt lat="55.139500" lon="-8.229950">
                <time>2019-06-14T13:55:56Z</time>
            </trkpt>
            <trkpt lat="55.139560" lon="-8.229800">
                <time>2019-06-14T13:55:57Z</time>
            </trkpt>
            <trkpt lat="55.139660" lon="-8.229670">
                <time>2019-06-14T13:55:58Z</time>
            </trkpt>
            <trkpt lat="55.139770" lon="-8.229540">
                <time>2019-06-14T13:55:59Z</time>
            </trkpt>
            <trkpt lat="55.139910" lon="-8.229430">
                <time>2019-06-14T13:56:00Z</time>
            </trkpt>
            <trkpt lat="55.140060" lon="-8.229370">
                <time>2019-06-14T13:56:01Z</time>
            </trkpt>
            <trkpt lat="55.140210" lon="-8.229340">
                <time>2019-06-14T13:56:02Z</time>
            </trkpt>
            <trkpt lat="55.140350" lon="-8.229310">
                <time>2019-06-14T13:56:03Z</time>
            </trkpt>
            <trkpt lat="55.140500" lon="-8.229260">
                <time>2019-06-14T13:56:04Z</time>
            </trkpt>
            <trkpt lat="55.140630" lon="-8.229180">
                <time>2019-06-14T13:56:05Z</time>
            </trkpt>
            <trkpt lat="55.140760" lon="-8.229090">
                <time>2019-06-14T13:56:06Z</time>
            </trkpt>
            <trkpt lat="55.140900" lon="-8.228980">
                <time>2019-06-14T13:56:07Z</time>
            </trkpt>
            <trkpt lat="55.141060" lon="-8.228860">
                <time>2019-06-14T13:56:08Z</time>
            </trkpt>
            <trkpt lat="55.141220" lon="-8.228730">
                <time>2019-06-14T13:56:09Z</time>
            </trkpt>
            <trkpt lat="55.141380" lon="-8.228610">
                <time>2019-06-14T13:56:10Z</time>
            </trkpt>
            <trkpt lat="55.141530" lon="-8.228500">
                <time>2019-06-14T13:56:11Z</time>
            </trkpt>
            <trkpt lat="55.141670" lon="-8.228390">
                <time>2019-06-14T13:56:12Z</time>
            </trkpt>
            <trkpt lat="55.141790" lon="-8.228310">
                <time>2019-06-14T13:56:13Z</time>
            </trkpt>
            <trkpt lat="55.141900" lon="-8.228240">
                <time>2019-06-14T13:56:14Z</time>
            </trkpt>
            <trkpt lat="55.141980" lon="-8.228170">
                <time>2019-06-14T13:56:15Z</time>
            </trkpt>
            <trkpt lat="55.142050" lon="-8.228090">
                <time>2019-06-14T13:56:16Z</time>
            </trkpt>
            <trkpt lat="55.142080" lon="-8.227990">
                <time>2019-06-14T13:56:17Z</time>
            </trkpt>
            <trkpt lat="55.142070" lon="-8.227870">
                <time>2019-06-14T13:56:18Z</time>
            </trkpt>
            <trkpt lat="55.142020" lon="-8.227770">
                <time>2019-06-14T13:56:19Z</time>
            </trkpt>
            <trkpt lat="55.141960" lon="-8.227650">
                <time>2019-06-14T13:56:20Z</time>
            </trkpt>
            <trkpt lat="55.141900" lon="-8.227490">
                <time>2019-06-14T13:56:21Z</time>
            </trkpt>
            <trkpt lat="55.141830" lon="-8.227290">
                <time>2019-06-14T13:56:22Z</time>
            </trkpt>
            <trkpt lat="55.141760" lon="-8.227070">
                <time>2019-06-14T13:56:23Z</time>
            </trkpt>
            <trkpt lat="55.141700" lon="-8.226810">
                <time>2019-06-14T13:56:24Z</time>
            </trkpt>
            <trkpt lat="55.141630" lon="-8.226550">
                <time>2019-06-14T13:56:25Z</time>
            </trkpt>
            <trkpt lat="55.141570" lon="-8.226280">
                <time>2019-06-14T13:56:26Z</time>
            </trkpt>
            <trkpt lat="55.141520" lon="-8.226000">
                <time>2019-06-14T13:56:27Z</time>
            </trkpt>
            <trkpt lat="55.141470" lon="-8.225730">
                <time>2019-06-14T13:56:28Z</time>
            </trkpt>
            <trkpt lat="55.141420" lon="-8.225470">
                <time>2019-06-14T13:56:29Z</time>
            </trkpt>
            <trkpt lat="55.141380" lon="-8.225220">
                <time>2019-06-14T13:56:30Z</time>
            </trkpt>
            <trkpt lat="55.141340" lon="-8.224960">
                <time>2019-06-14T13:56:31Z</time>
            </trkpt>
            <trkpt lat="55.141300" lon="-8.224730">
                <time>2019-06-14T13:56:32Z</time>
            </trkpt>
            <trkpt lat="55.141270" lon="-8.224500">
                <time>2019-06-14T13:56:33Z</time>
            </trkpt>
            <trkpt lat="55.141250" lon="-8.224270">
                <time>2019-06-14T13:56:34Z</time>
            </trkpt>
            <trkpt lat="55.141220" lon="-8.224040">
                <time>2019-06-14T13:56:35Z</time>
            </trkpt>
            <trkpt lat="55.141200" lon="-8.223840">
                <time>2019-06-14T13:56:36Z</time>
            </trkpt>
            <trkpt lat="55.141140" lon="-8.223660">
                <time>2019-06-14T13:56:37Z</time>
            </trkpt>
            <trkpt lat="55.141070" lon="-8.223520">
                <time>2019-06-14T13:56:38Z</time>
            </trkpt>
            <trkpt lat="55.140990" lon="-8.223380">
                <time>2019-06-14T13:56:39Z</time>
            </trkpt>
            <trkpt lat="55.140900" lon="-8.223230">
                <time>2019-06-14T13:56:40Z</time>
            </trkpt>
            <trkpt lat="55.140800" lon="-8.223080">
                <time>2019-06-14T13:56:41Z</time>
            </trkpt>
            <trkpt lat="55.140690" lon="-8.222920">
                <time>2019-06-14T13:56:42Z</time>
            </trkpt>
            <trkpt lat="55.140590" lon="-8.222770">
                <time>2019-06-14T13:56:43Z</time>
            </trkpt>
            <trkpt lat="55.140490" lon="-8.222620">
                <time>2019-06-14T13:56:44Z</time>
            </trkpt>
            <trkpt lat="55.140390" lon="-8.222490">
                <time>2019-06-14T13:56:45Z</time>
            </trkpt>
            <trkpt lat="55.140280" lon="-8.222410">
                <time>2019-06-14T13:56:46Z</time>
            </trkpt>
            <trkpt lat="55.140160" lon="-8.222370">
                <time>2019-06-14T13:56:47Z</time>
            </trkpt>
            <trkpt lat="55.140040" lon="-8.222350">
                <time>2019-06-14T13:56:48Z</time>
            </trkpt>
            <trkpt lat="55.139920" lon="-8.222350">
                <time>2019-06-14T13:56:49Z</time>
            </trkpt>
            <trkpt lat="55.139800" lon="-8.222360">
                <time>2019-06-14T13:56:50Z</time>
            </trkpt>
            <trkpt lat="55.139680" lon="-8.222380">
                <time>2019-06-14T13:56:51Z</time>
            </trkpt>
            <trkpt lat="55.139560" lon="-8.222400">
                <time>2019-06-14T13:56:52Z</time>
            </trkpt>
            <trkpt lat="55.139480" lon="-8.222430">
                <time>2019-06-14T13:56:53Z</time>
            </trkpt>
            <trkpt lat="55.139410" lon="-8.222450">
                <time>2019-06-14T13:56:54Z</time>
            </trkpt>
            <trkpt lat="55.139350" lon="-8.222450">
                <time>2019-06-14T13:56:55Z</time>
            </trkpt>
            <trkpt lat="55.139290" lon="-8.222420">
                <time>2019-06-14T13:56:56Z</time>
            </trkpt>
            <trkpt lat="55.139230" lon="-8.222350">
                <time>2019-06-14T13:56:57Z</time>
            </trkpt>
            <trkpt lat="55.139180" lon="-8.222240">
                <time>2019-06-14T13:56:58Z</time>
            </trkpt>
            <trkpt lat="55.139120" lon="-8.222080">
                <time>2019-06-14T13:56:59Z</time>
            </trkpt>
            <trkpt lat="55.139090" lon="-8.221870">
                <time>2019-06-14T13:57:00Z</time>
            </trkpt>
            <trkpt lat="55.139090" lon="-8.221630">
                <time>2019-06-14T13:57:01Z</time>
            </trkpt>
            <trkpt lat="55.139090" lon="-8.221370">
                <time>2019-06-14T13:57:02Z</time>
            </trkpt>
            <trkpt lat="55.139100" lon="-8.221110">
                <time>2019-06-14T13:57:03Z</time>
            </trkpt>
            <trkpt lat="55.139110" lon="-8.220830">
                <time>2019-06-14T13:57:04Z</time>
            </trkpt>
            <trkpt lat="55.139110" lon="-8.220560">
                <time>2019-06-14T13:57:05Z</time>
            </trkpt>
            <trkpt lat="55.139100" lon="-8.220300">
                <time>2019-06-14T13:57:06Z</time>
            </trkpt>
            <trkpt lat="55.139080" lon="-8.220050">
                <time>2019-06-14T13:57:07Z</time>
            </trkpt>
            <trkpt lat="55.139060" lon="-8.219820">
                <time>2019-06-14T13:57:08Z</time>
            </trkpt>
            <trkpt lat="55.139060" lon="-8.219590">
                <time>2019-06-14T13:57:09Z</time>
            </trkpt>
            <trkpt lat="55.139090" lon="-8.219340">
                <time>2019-06-14T13:57:10Z</time>
            </trkpt>
            <trkpt lat="55.139130" lon="-8.219090">
                <time>2019-06-14T13:57:11Z</time>
            </trkpt>
            <trkpt lat="55.139140" lon="-8.218840">
                <time>2019-06-14T13:57:12Z</time>
            </trkpt>
            <trkpt lat="55.139120" lon="-8.218590">
                <time>2019-06-14T13:57:13Z</time>
            </trkpt>
            <trkpt lat="55.139070" lon="-8.218370">
                <time>2019-06-14T13:57:14Z</time>
            </trkpt>
            <trkpt lat="55.139000" lon="-8.218140">
                <time>2019-06-14T13:57:15Z</time>
            </trkpt>
            <trkpt lat="55.138910" lon="-8.217880">
                <time>2019-06-14T13:57:16Z</time>
            </trkpt>
            <trkpt lat="55.138810" lon="-8.217590">
                <time>2019-06-14T13:57:17Z</time>
            </trkpt>
            <trkpt lat="55.138710" lon="-8.217290">
                <time>2019-06-14T13:57:18Z</time>
            </trkpt>
            <trkpt lat="55.138600" lon="-8.216980">
                <time>2019-06-14T13:57:19Z</time>
            </trkpt>
            <trkpt lat="55.138490" lon="-8.216670">
                <time>2019-06-14T13:57:20Z</time>
            </trkpt>
            <trkpt lat="55.138390" lon="-8.216360">
                <time>2019-06-14T13:57:21Z</time>
            </trkpt>
            <trkpt lat="55.138280" lon="-8.216040">
                <time>2019-06-14T13:57:22Z</time>
            </trkpt>
            <trkpt lat="55.138170" lon="-8.215710">
                <time>2019-06-14T13:57:23Z</time>
            </trkpt>
            <trkpt lat="55.138060" lon="-8.215380">
                <time>2019-06-14T13:57:24Z</time>
            </trkpt>
            <trkpt lat="55.137960" lon="-8.215070">
                <time>2019-06-14T13:57:25Z</time>
            </trkpt>
            <trkpt lat="55.137870" lon="-8.214780">
                <time>2019-06-14T13:57:26Z</time>
            </trkpt>
            <trkpt lat="55.137800" lon="-8.214530">
                <time>2019-06-14T13:57:27Z</time>
            </trkpt>
            <trkpt lat="55.137740" lon="-8.214290">
                <time>2019-06-14T13:57:28Z</time>
            </trkpt>
            <trkpt lat="55.137700" lon="-8.214060">
                <time>2019-06-14T13:57:29Z</time>
            </trkpt>
            <trkpt lat="55.137690" lon="-8.213820">
                <time>2019-06-14T13:57:30Z</time>
            </trkpt>
            <trkpt lat="55.137690" lon="-8.213580">
                <time>2019-06-14T13:57:31Z</time>
            </trkpt>
            <trkpt lat="55.137710" lon="-8.213350">
                <time>2019-06-14T13:57:32Z</time>
            </trkpt>
            <trkpt lat="55.137740" lon="-8.213120">
                <time>2019-06-14T13:57:33Z</time>
            </trkpt>
            <trkpt lat="55.137760" lon="-8.212890">
                <time>2019-06-14T13:57:34Z</time>
            </trkpt>
            <trkpt lat="55.137780" lon="-8.212660">
                <time>2019-06-14T13:57:35Z</time>
            </trkpt>
            <trkpt lat="55.137790" lon="-8.212420">
                <time>2019-06-14T13:57:36Z</time>
            </trkpt>
            <trkpt lat="55.137770" lon="-8.212190">
                <time>2019-06-14T13:57:37Z</time>
            </trkpt>
            <trkpt lat="55.137720" lon="-8.211950">
                <time>2019-06-14T13:57:38Z</time>
            </trkpt>
            <trkpt lat="55.137650" lon="-8.211710">
                <time>2019-06-14T13:57:39Z</time>
            </trkpt>
            <trkpt lat="55.137580" lon="-8.211430">
                <time>2019-06-14T13:57:40Z</time>
            </trkpt>
            <trkpt lat="55.137520" lon="-8.211140">
                <time>2019-06-14T13:57:41Z</time>
            </trkpt>
            <trkpt lat="55.137470" lon="-8.210840">
                <time>2019-06-14T13:57:42Z</time>
            </trkpt>
            <trkpt lat="55.137440" lon="-8.210550">
                <time>2019-06-14T13:57:43Z</time>
            </trkpt>
            <trkpt lat="55.137410" lon="-8.210260">
                <time>2019-06-14T13:57:44Z</time>
            </trkpt>
            <trkpt lat="55.137380" lon="-8.209970">
                <time>2019-06-14T13:57:45Z</time>
            </trkpt>
            <trkpt lat="55.137360" lon="-8.209670">
                <time>2019-06-14T13:57:46Z</time>
            </trkpt>
            <trkpt lat="55.137330" lon="-8.209360">
                <time>2019-06-14T13:57:47Z</time>
            </trkpt>
            <trkpt lat="55.137310" lon="-8.209040">
                <time>2019-06-14T13:57:48Z</time>
            </trkpt>
            <trkpt lat="55.137280" lon="-8.208730">
                <time>2019-06-14T13:57:49Z</time>
            </trkpt>
            <trkpt lat="55.137260" lon="-8.208440">
                <time>2019-06-14T13:57:50Z</time>
            </trkpt>
            <trkpt lat="55.137250" lon="-8.208150">
                <time>2019-06-14T13:57:51Z</time>
            </trkpt>
            <trkpt lat="55.137240" lon="-8.207900">
                <time>2019-06-14T13:57:52Z</time>
            </trkpt>
            <trkpt lat="55.137240" lon="-8.207670">
                <time>2019-06-14T13:57:53Z</time>
            </trkpt>
            <trkpt lat="55.137260" lon="-8.207460">
                <time>2019-06-14T13:57:54Z</time>
            </trkpt>
            <trkpt lat="55.137300" lon="-8.207250">
                <time>2019-06-14T13:57:55Z</time>
            </trkpt>
            <trkpt lat="55.137370" lon="-8.207050">
                <time>2019-06-14T13:57:56Z</time>
            </trkpt>
            <trkpt lat="55.137440" lon="-8.206850">
                <time>2019-06-14T13:57:57Z</time>
            </trkpt>
            <trkpt lat="55.137520" lon="-8.206630">
                <time>2019-06-14T13:57:58Z</time>
            </trkpt>
            <trkpt lat="55.137610" lon="-8.206400">
                <time>2019-06-14T13:57:59Z</time>
            </trkpt>
            <trkpt lat="55.137700" lon="-8.206140">
                <time>2019-06-14T13:58:00Z</time>
            </trkpt>
            <trkpt lat="55.137810" lon="-8.205860">
                <time>2019-06-14T13:58:01Z</time>
            </trkpt>
            <trkpt lat="55.137930" lon="-8.205570">
                <time>2019-06-14T13:58:02Z</time>
            </trkpt>
            <trkpt lat="55.138040" lon="-8.205290">
                <time>2019-06-14T13:58:03Z</time>
            </trkpt>
            <trkpt lat="55.138160" lon="-8.205000">
                <time>2019-06-14T13:58:04Z</time>
            </trkpt>
            <trkpt lat="55.138280" lon="-8.204720">
                <time>2019-06-14T13:58:05Z</time>
            </trkpt>
            <trkpt lat="55.138390" lon="-8.204440">
                <time>2019-06-14T13:58:06Z</time>
            </trkpt>
            <trkpt lat="55.138510" lon="-8.204160">
                <time>2019-06-14T13:58:07Z</time>
            </trkpt>
            <trkpt lat="55.138620" lon="-8.203880">
                <time>2019-06-14T13:58:08Z</time>
            </trkpt>
            <trkpt lat="55.138730" lon="-8.203610">
                <time>2019-06-14T13:58:09Z</time>
            </trkpt>
            <trkpt lat="55.138840" lon="-8.203340">
                <time>2019-06-14T13:58:10Z</time>
            </trkpt>
            <trkpt lat="55.138950" lon="-8.203080">
                <time>2019-06-14T13:58:11Z</time>
            </trkpt>
            <trkpt lat="55.139060" lon="-8.202830">
                <time>2019-06-14T13:58:12Z</time>
            </trkpt>
            <trkpt lat="55.139190" lon="-8.202570">
                <time>2019-06-14T13:58:13Z</time>
            </trkpt>
            <trkpt lat="55.139320" lon="-8.202300">
                <time>2019-06-14T13:58:14Z</time>
            </trkpt>
            <trkpt lat="55.139460" lon="-8.202020">
                <time>2019-06-14T13:58:15Z</time>
            </trkpt>
            <trkpt lat="55.139600" lon="-8.201730">
                <time>2019-06-14T13:58:16Z</time>
            </trkpt>
            <trkpt lat="55.139760" lon="-8.201430">
                <time>2019-06-14T13:58:17Z</time>
            </trkpt>
            <trkpt lat="55.139910" lon="-8.201130">
                <time>2019-06-14T13:58:18Z</time>
            </trkpt>
            <trkpt lat="55.140050" lon="-8.200820">
                <time>2019-06-14T13:58:19Z</time>
            </trkpt>
            <trkpt lat="55.140210" lon="-8.200540">
                <time>2019-06-14T13:58:20Z</time>
            </trkpt>
            <trkpt lat="55.140360" lon="-8.200270">
                <time>2019-06-14T13:58:21Z</time>
            </trkpt>
            <trkpt lat="55.140510" lon="-8.200010">
                <time>2019-06-14T13:58:22Z</time>
            </trkpt>
            <trkpt lat="55.140660" lon="-8.199730">
                <time>2019-06-14T13:58:23Z</time>
            </trkpt>
            <trkpt lat="55.140800" lon="-8.199440">
                <time>2019-06-14T13:58:24Z</time>
            </trkpt>
            <trkpt lat="55.140930" lon="-8.199140">
                <time>2019-06-14T13:58:25Z</time>
            </trkpt>
            <trkpt lat="55.141060" lon="-8.198840">
                <time>2019-06-14T13:58:26Z</time>
            </trkpt>
            <trkpt lat="55.141200" lon="-8.198540">
                <time>2019-06-14T13:58:27Z</time>
            </trkpt>
            <trkpt lat="55.141340" lon="-8.198240">
                <time>2019-06-14T13:58:28Z</time>
            </trkpt>
            <trkpt lat="55.141470" lon="-8.197940">
                <time>2019-06-14T13:58:29Z</time>
            </trkpt>
            <trkpt lat="55.141600" lon="-8.197630">
                <time>2019-06-14T13:58:30Z</time>
            </trkpt>
            <trkpt lat="55.141730" lon="-8.197330">
                <time>2019-06-14T13:58:31Z</time>
            </trkpt>
            <trkpt lat="55.141860" lon="-8.197030">
                <time>2019-06-14T13:58:32Z</time>
            </trkpt>
            <trkpt lat="55.142000" lon="-8.196740">
                <time>2019-06-14T13:58:33Z</time>
            </trkpt>
            <trkpt lat="55.142130" lon="-8.196450">
                <time>2019-06-14T13:58:34Z</time>
            </trkpt>
            <trkpt lat="55.142270" lon="-8.196170">
                <time>2019-06-14T13:58:35Z</time>
            </trkpt>
            <trkpt lat="55.142390" lon="-8.195890">
                <time>2019-06-14T13:58:36Z</time>
            </trkpt>
            <trkpt lat="55.142520" lon="-8.195610">
                <time>2019-06-14T13:58:37Z</time>
            </trkpt>
            <trkpt lat="55.142650" lon="-8.195330">
                <time>2019-06-14T13:58:38Z</time>
            </trkpt>
            <trkpt lat="55.142780" lon="-8.195050">
                <time>2019-06-14T13:58:39Z</time>
            </trkpt>
            <trkpt lat="55.142910" lon="-8.194780">
                <time>2019-06-14T13:58:40Z</time>
            </trkpt>
            <trkpt lat="55.143030" lon="-8.194520">
                <time>2019-06-14T13:58:41Z</time>
            </trkpt>
            <trkpt lat="55.143160" lon="-8.194260">
                <time>2019-06-14T13:58:42Z</time>
            </trkpt>
            <trkpt lat="55.143280" lon="-8.194000">
                <time>2019-06-14T13:58:43Z</time>
            </trkpt>
            <trkpt lat="55.143400" lon="-8.193760">
                <time>2019-06-14T13:58:44Z</time>
            </trkpt>
            <trkpt lat="55.143510" lon="-8.193540">
                <time>2019-06-14T13:58:45Z</time>
            </trkpt>
            <trkpt lat="55.143610" lon="-8.193320">
                <time>2019-06-14T13:58:46Z</time>
            </trkpt>
            <trkpt lat="55.143710" lon="-8.193110">
                <time>2019-06-14T13:58:47Z</time>
            </trkpt>
            <trkpt lat="55.143800" lon="-8.192900">
                <time>2019-06-14T13:58:48Z</time>
            </trkpt>
            <trkpt lat="55.143880" lon="-8.192700">
                <time>2019-06-14T13:58:49Z</time>
            </trkpt>
            <trkpt lat="55.143960" lon="-8.192480">
                <time>2019-06-14T13:58:50Z</time>
            </trkpt>
            <trkpt lat="55.144030" lon="-8.192260">
                <time>2019-06-14T13:58:51Z</time>
            </trkpt>
            <trkpt lat="55.144090" lon="-8.192030">
                <time>2019-06-14T13:58:52Z</time>
            </trkpt>
            <trkpt lat="55.144150" lon="-8.191780">
                <time>2019-06-14T13:58:53Z</time>
            </trkpt>
            <trkpt lat="55.144210" lon="-8.191530">
                <time>2019-06-14T13:58:54Z</time>
            </trkpt>
            <trkpt lat="55.144270" lon="-8.191270">
                <time>2019-06-14T13:58:55Z</time>
            </trkpt>
            <trkpt lat="55.144320" lon="-8.191020">
                <time>2019-06-14T13:58:56Z</time>
            </trkpt>
            <trkpt lat="55.144360" lon="-8.190770">
                <time>2019-06-14T13:58:57Z</time>
            </trkpt>
            <trkpt lat="55.144390" lon="-8.190530">
                <time>2019-06-14T13:58:58Z</time>
            </trkpt>
            <trkpt lat="55.144410" lon="-8.190290">
                <time>2019-06-14T13:58:59Z</time>
            </trkpt>
            <trkpt lat="55.144440" lon="-8.190020">
                <time>2019-06-14T13:59:00Z</time>
            </trkpt>
            <trkpt lat="55.144460" lon="-8.189740">
                <time>2019-06-14T13:59:01Z</time>
            </trkpt>
            <trkpt lat="55.144490" lon="-8.189440">
                <time>2019-06-14T13:59:02Z</time>
            </trkpt>
            <trkpt lat="55.144520" lon="-8.189130">
                <time>2019-06-14T13:59:03Z</time>
            </trkpt>
            <trkpt lat="55.144550" lon="-8.188820">
                <time>2019-06-14T13:59:04Z</time>
            </trkpt>
            <trkpt lat="55.144600" lon="-8.188500">
                <time>2019-06-14T13:59:05Z</time>
            </trkpt>
            <trkpt lat="55.144650" lon="-8.188190">
                <time>2019-06-14T13:59:06Z</time>
            </trkpt>
            <trkpt lat="55.144720" lon="-8.187900">
                <time>2019-06-14T13:59:07Z</time>
            </trkpt>
            <trkpt lat="55.144790" lon="-8.187620">
                <time>2019-06-14T13:59:08Z</time>
            </trkpt>
            <trkpt lat="55.144870" lon="-8.187330">
                <time>2019-06-14T13:59:09Z</time>
            </trkpt>
            <trkpt lat="55.144940" lon="-8.187040">
                <time>2019-06-14T13:59:10Z</time>
            </trkpt>
            <trkpt lat="55.145000" lon="-8.186740">
                <time>2019-06-14T13:59:11Z</time>
            </trkpt>
            <trkpt lat="55.145060" lon="-8.186430">
                <time>2019-06-14T13:59:12Z</time>
            </trkpt>
            <trkpt lat="55.145110" lon="-8.186130">
                <time>2019-06-14T13:59:13Z</time>
            </trkpt>
            <trkpt lat="55.145150" lon="-8.185840">
                <time>2019-06-14T13:59:14Z</time>
            </trkpt>
            <trkpt lat="55.145170" lon="-8.185570">
                <time>2019-06-14T13:59:15Z</time>
            </trkpt>
            <trkpt lat="55.145190" lon="-8.185300">
                <time>2019-06-14T13:59:16Z</time>
            </trkpt>
            <trkpt lat="55.145200" lon="-8.185030">
                <time>2019-06-14T13:59:17Z</time>
            </trkpt>
            <trkpt lat="55.145200" lon="-8.184750">
                <time>2019-06-14T13:59:18Z</time>
            </trkpt>
            <trkpt lat="55.145210" lon="-8.184460">
                <time>2019-06-14T13:59:19Z</time>
            </trkpt>
            <trkpt lat="55.145200" lon="-8.184160">
                <time>2019-06-14T13:59:20Z</time>
            </trkpt>
            <trkpt lat="55.145190" lon="-8.183860">
                <time>2019-06-14T13:59:21Z</time>
            </trkpt>
            <trkpt lat="55.145180" lon="-8.183560">
                <time>2019-06-14T13:59:22Z</time>
            </trkpt>
            <trkpt lat="55.145150" lon="-8.183270">
                <time>2019-06-14T13:59:23Z</time>
            </trkpt>
            <trkpt lat="55.145120" lon="-8.182980">
                <time>2019-06-14T13:59:24Z</time>
            </trkpt>
            <trkpt lat="55.145100" lon="-8.182700">
                <time>2019-06-14T13:59:25Z</time>
            </trkpt>
            <trkpt lat="55.145070" lon="-8.182430">
                <time>2019-06-14T13:59:26Z</time>
            </trkpt>
            <trkpt lat="55.145030" lon="-8.182170">
                <time>2019-06-14T13:59:27Z</time>
            </trkpt>
            <trkpt lat="55.144990" lon="-8.181900">
                <time>2019-06-14T13:59:28Z</time>
            </trkpt>
            <trkpt lat="55.144950" lon="-8.181620">
                <time>2019-06-14T13:59:29Z</time>
            </trkpt>
            <trkpt lat="55.144900" lon="-8.181340">
                <time>2019-06-14T13:59:30Z</time>
            </trkpt>
            <trkpt lat="55.144860" lon="-8.181090">
                <time>2019-06-14T13:59:31Z</time>
            </trkpt>
            <trkpt lat="55.144820" lon="-8.180850">
                <time>2019-06-14T13:59:32Z</time>
            </trkpt>
            <trkpt lat="55.144790" lon="-8.180620">
                <time>2019-06-14T13:59:33Z</time>
            </trkpt>
            <trkpt lat="55.144750" lon="-8.180400">
                <time>2019-06-14T13:59:34Z</time>
            </trkpt>
            <trkpt lat="55.144710" lon="-8.180190">
                <time>2019-06-14T13:59:35Z</time>
            </trkpt>
            <trkpt lat="55.144680" lon="-8.179970">
                <time>2019-06-14T13:59:36Z</time>
            </trkpt>
            <trkpt lat="55.144640" lon="-8.179740">
                <time>2019-06-14T13:59:37Z</time>
            </trkpt>
            <trkpt lat="55.144600" lon="-8.179520">
                <time>2019-06-14T13:59:38Z</time>
            </trkpt>
            <trkpt lat="55.144560" lon="-8.179310">
                <time>2019-06-14T13:59:39Z</time>
            </trkpt>
            <trkpt lat="55.144520" lon="-8.179120">
                <time>2019-06-14T13:59:40Z</time>
            </trkpt>
            <trkpt lat="55.144490" lon="-8.178950">
                <time>2019-06-14T13:59:41Z</time>
            </trkpt>
            <trkpt lat="55.144450" lon="-8.178780">
                <time>2019-06-14T13:59:42Z</time>
            </trkpt>
            <trkpt lat="55.144420" lon="-8.178610">
                <time>2019-06-14T13:59:43Z</time>
            </trkpt>
            <trkpt lat="55.144380" lon="-8.178450">
                <time>2019-06-14T13:59:44Z</time>
            </trkpt>
            <trkpt lat="55.144340" lon="-8.178280">
                <time>2019-06-14T13:59:45Z</time>
            </trkpt>
            <trkpt lat="55.144300" lon="-8.178110">
                <time>2019-06-14T13:59:46Z</time>
            </trkpt>
            <trkpt lat="55.144270" lon="-8.177930">
                <time>2019-06-14T13:59:47Z</time>
            </trkpt>
            <trkpt lat="55.144230" lon="-8.177770">
                <time>2019-06-14T13:59:48Z</time>
            </trkpt>
            <trkpt lat="55.144190" lon="-8.177600">
                <time>2019-06-14T13:59:49Z</time>
            </trkpt>
            <trkpt lat="55.144140" lon="-8.177440">
                <time>2019-06-14T13:59:50Z</time>
            </trkpt>
            <trkpt lat="55.144090" lon="-8.177260">
                <time>2019-06-14T13:59:51Z</time>
            </trkpt>
            <trkpt lat="55.144040" lon="-8.177080">
                <time>2019-06-14T13:59:52Z</time>
            </trkpt>
            <trkpt lat="55.143990" lon="-8.176920">
                <time>2019-06-14T13:59:53Z</time>
            </trkpt>
            <trkpt lat="55.143930" lon="-8.176770">
                <time>2019-06-14T13:59:54Z</time>
            </trkpt>
            <trkpt lat="55.143880" lon="-8.176620">
                <time>2019-06-14T13:59:55Z</time>
            </trkpt>
            <trkpt lat="55.143830" lon="-8.176470">
                <time>2019-06-14T13:59:56Z</time>
            </trkpt>
            <trkpt lat="55.143770" lon="-8.176310">
                <time>2019-06-14T13:59:57Z</time>
            </trkpt>
            <trkpt lat="55.143700" lon="-8.176150">
                <time>2019-06-14T13:59:58Z</time>
            </trkpt>
            <trkpt lat="55.143640" lon="-8.176000">
                <time>2019-06-14T13:59:59Z</time>
            </trkpt>
            <trkpt lat="55.143560" lon="-8.175840">
                <time>2019-06-14T14:00:00Z</time>
            </trkpt>
            <trkpt lat="55.143470" lon="-8.175680">
                <time>2019-06-14T14:00:01Z</time>
            </trkpt>
            <trkpt lat="55.143370" lon="-8.175520">
                <time>2019-06-14T14:00:02Z</time>
            </trkpt>
            <trkpt lat="55.143260" lon="-8.175370">
                <time>2019-06-14T14:00:03Z</time>
            </trkpt>
            <trkpt lat="55.143160" lon="-8.175230">
                <time>2019-06-14T14:00:04Z</time>
            </trkpt>
            <trkpt lat="55.143060" lon="-8.175080">
                <time>2019-06-14T14:00:05Z</time>
            </trkpt>
            <trkpt lat="55.142970" lon="-8.174950">
                <time>2019-06-14T14:00:06Z</time>
            </trkpt>
            <trkpt lat="55.142880" lon="-8.174800">
                <time>2019-06-14T14:00:07Z</time>
            </trkpt>
            <trkpt lat="55.142790" lon="-8.174660">
                <time>2019-06-14T14:00:08Z</time>
            </trkpt>
            <trkpt lat="55.142700" lon="-8.174520">
                <time>2019-06-14T14:00:09Z</time>
            </trkpt>
            <trkpt lat="55.142600" lon="-8.174380">
                <time>2019-06-14T14:00:10Z</time>
            </trkpt>
            <trkpt lat="55.142510" lon="-8.174240">
                <time>2019-06-14T14:00:11Z</time>
            </trkpt>
            <trkpt lat="55.142410" lon="-8.174110">
                <time>2019-06-14T14:00:12Z</time>
            </trkpt>
            <trkpt lat="55.142310" lon="-8.173990">
                <time>2019-06-14T14:00:13Z</time>
            </trkpt>
            <trkpt lat="55.142190" lon="-8.173870">
                <time>2019-06-14T14:00:14Z</time>
            </trkpt>
            <trkpt lat="55.142090" lon="-8.173750">
                <time>2019-06-14T14:00:15Z</time>
            </trkpt>
            <trkpt lat="55.141980" lon="-8.173630">
                <time>2019-06-14T14:00:16Z</time>
            </trkpt>
            <trkpt lat="55.141880" lon="-8.173520">
                <time>2019-06-14T14:00:17Z</time>
            </trkpt>
            <trkpt lat="55.141790" lon="-8.173410">
                <time>2019-06-14T14:00:18Z</time>
            </trkpt>
            <trkpt lat="55.141710" lon="-8.173290">
                <time>2019-06-14T14:00:19Z</time>
            </trkpt>
            <trkpt lat="55.141620" lon="-8.173170">
                <time>2019-06-14T14:00:20Z</time>
            </trkpt>
            <trkpt lat="55.141520" lon="-8.173040">
                <time>2019-06-14T14:00:21Z</time>
            </trkpt>
            <trkpt lat="55.141430" lon="-8.172900">
                <time>2019-06-14T14:00:22Z</time>
            </trkpt>
            <trkpt lat="55.141330" lon="-8.172750">
                <time>2019-06-14T14:00:23Z</time>
            </trkpt>
            <trkpt lat="55.141240" lon="-8.172590">
                <time>2019-06-14T14:00:24Z</time>
            </trkpt>
            <trkpt lat="55.141150" lon="-8.172450">
                <time>2019-06-14T14:00:25Z</time>
            </trkpt>
            <trkpt lat="55.141060" lon="-8.172300">
                <time>2019-06-14T14:00:26Z</time>
            </trkpt>
            <trkpt lat="55.140970" lon="-8.172150">
                <time>2019-06-14T14:00:27Z</time>
            </trkpt>
            <trkpt lat="55.140890" lon="-8.171980">
                <time>2019-06-14T14:00:28Z</time>
            </trkpt>
            <trkpt lat="55.140790" lon="-8.171810">
                <time>2019-06-14T14:00:29Z</time>
            </trkpt>
            <trkpt lat="55.140690" lon="-8.171630">
                <time>2019-06-14T14:00:30Z</time>
            </trkpt>
            <trkpt lat="55.140590" lon="-8.171450">
                <time>2019-06-14T14:00:31Z</time>
            </trkpt>
            <trkpt lat="55.140490" lon="-8.171250">
                <time>2019-06-14T14:00:32Z</time>
            </trkpt>
            <trkpt lat="55.140390" lon="-8.171050">
                <time>2019-06-14T14:00:33Z</time>
            </trkpt>
            <trkpt lat="55.140290" lon="-8.170850">
                <time>2019-06-14T14:00:34Z</time>
            </trkpt>
            <trkpt lat="55.140200" lon="-8.170640">
                <time>2019-06-14T14:00:35Z</time>
            </trkpt>
            <trkpt lat="55.140100" lon="-8.170430">
                <time>2019-06-14T14:00:36Z</time>
            </trkpt>
            <trkpt lat="55.140010" lon="-8.170220">
                <time>2019-06-14T14:00:37Z</time>
            </trkpt>
            <trkpt lat="55.139910" lon="-8.170010">
                <time>2019-06-14T14:00:38Z</time>
            </trkpt>
            <trkpt lat="55.139810" lon="-8.169820">
                <time>2019-06-14T14:00:39Z</time>
            </trkpt>
            <trkpt lat="55.139720" lon="-8.169650">
                <time>2019-06-14T14:00:40Z</time>
            </trkpt>
            <trkpt lat="55.139640" lon="-8.169490">
                <time>2019-06-14T14:00:41Z</time>
            </trkpt>
            <trkpt lat="55.139580" lon="-8.169330">
                <time>2019-06-14T14:00:42Z</time>
            </trkpt>
            <trkpt lat="55.139540" lon="-8.169180">
                <time>2019-06-14T14:00:43Z</time>
            </trkpt>
            <trkpt lat="55.139500" lon="-8.169010">
                <time>2019-06-14T14:00:44Z</time>
            </trkpt>
            <trkpt lat="55.139490" lon="-8.168840">
                <time>2019-06-14T14:00:45Z</time>
            </trkpt>
            <trkpt lat="55.139500" lon="-8.168660">
                <time>2019-06-14T14:00:46Z</time>
            </trkpt>
            <trkpt lat="55.139530" lon="-8.168490">
                <time>2019-06-14T14:00:47Z</time>
            </trkpt>
            <trkpt lat="55.139590" lon="-8.168340">
                <time>2019-06-14T14:00:48Z</time>
            </trkpt>
            <trkpt lat="55.139640" lon="-8.168210">
                <time>2019-06-14T14:00:49Z</time>
            </trkpt>
            <trkpt lat="55.139660" lon="-8.168070">
                <time>2019-06-14T14:00:50Z</time>
            </trkpt>
            <trkpt lat="55.139640" lon="-8.167940">
                <time>2019-06-14T14:00:51Z</time>
            </trkpt>
            <trkpt lat="55.139580" lon="-8.167860">
                <time>2019-06-14T14:00:52Z</time>
            </trkpt>
            <trkpt lat="55.139510" lon="-8.167820">
                <time>2019-06-14T14:00:53Z</time>
            </trkpt>
            <trkpt lat="55.139420" lon="-8.167800">
                <time>2019-06-14T14:00:54Z</time>
            </trkpt>
            <trkpt lat="55.139310" lon="-8.167790">
                <time>2019-06-14T14:00:55Z</time>
            </trkpt>
            <trkpt lat="55.139170" lon="-8.167770">
                <time>2019-06-14T14:00:56Z</time>
            </trkpt>
            <trkpt lat="55.139020" lon="-8.167750">
                <time>2019-06-14T14:00:57Z</time>
            </trkpt>
            <trkpt lat="55.138850" lon="-8.167740">
                <time>2019-06-14T14:00:58Z</time>
            </trkpt>
            <trkpt lat="55.138680" lon="-8.167720">
                <time>2019-06-14T14:00:59Z</time>
            </trkpt>
            <trkpt lat="55.138500" lon="-8.167710">
                <time>2019-06-14T14:01:00Z</time>
            </trkpt>
            <trkpt lat="55.138320" lon="-8.167700">
                <time>2019-06-14T14:01:01Z</time>
            </trkpt>
            <trkpt lat="55.138150" lon="-8.167700">
                <time>2019-06-14T14:01:02Z</time>
            </trkpt>
            <trkpt lat="55.138000" lon="-8.167700">
                <time>2019-06-14T14:01:03Z</time>
            </trkpt>
            <trkpt lat="55.137860" lon="-8.167680">
                <time>2019-06-14T14:01:04Z</time>
            </trkpt>
            <trkpt lat="55.137730" lon="-8.167640">
                <time>2019-06-14T14:01:05Z</time>
            </trkpt>
            <trkpt lat="55.137600" lon="-8.167560">
                <time>2019-06-14T14:01:06Z</time>
            </trkpt>
            <trkpt lat="55.137480" lon="-8.167440">
                <time>2019-06-14T14:01:07Z</time>
            </trkpt>
            <trkpt lat="55.137380" lon="-8.167300">
                <time>2019-06-14T14:01:08Z</time>
            </trkpt>
            <trkpt lat="55.137280" lon="-8.167160">
                <time>2019-06-14T14:01:09Z</time>
            </trkpt>
            <trkpt lat="55.137190" lon="-8.167000">
                <time>2019-06-14T14:01:10Z</time>
            </trkpt>
            <trkpt lat="55.137090" lon="-8.166830">
                <time>2019-06-14T14:01:11Z</time>
            </trkpt>
            <trkpt lat="55.137000" lon="-8.166650">
                <time>2019-06-14T14:01:12Z</time>
            </trkpt>
            <trkpt lat="55.136930" lon="-8.166460">
                <time>2019-06-14T14:01:13Z</time>
            </trkpt>
            <trkpt lat="55.136900" lon="-8.166270">
                <time>2019-06-14T14:01:14Z</time>
            </trkpt>
            <trkpt lat="55.136900" lon="-8.166080">
                <time>2019-06-14T14:01:15Z</time>
            </trkpt>
            <trkpt lat="55.136930" lon="-8.165890">
                <time>2019-06-14T14:01:16Z</time>
            </trkpt>
            <trkpt lat="55.136980" lon="-8.165700">
                <time>2019-06-14T14:01:17Z</time>
            </trkpt>
            <trkpt lat="55.137040" lon="-8.165500">
                <time>2019-06-14T14:01:18Z</time>
            </trkpt>
            <trkpt lat="55.137110" lon="-8.165290">
                <time>2019-06-14T14:01:19Z</time>
            </trkpt>
            <trkpt lat="55.137200" lon="-8.165060">
                <time>2019-06-14T14:01:20Z</time>
            </trkpt>
            <trkpt lat="55.137280" lon="-8.164810">
                <time>2019-06-14T14:01:21Z</time>
            </trkpt>
            <trkpt lat="55.137380" lon="-8.164560">
                <time>2019-06-14T14:01:22Z</time>
            </trkpt>
            <trkpt lat="55.137460" lon="-8.164330">
                <time>2019-06-14T14:01:23Z</time>
            </trkpt>
            <trkpt lat="55.137540" lon="-8.164110">
                <time>2019-06-14T14:01:24Z</time>
            </trkpt>
            <trkpt lat="55.137580" lon="-8.163930">
                <time>2019-06-14T14:01:25Z</time>
            </trkpt>
            <trkpt lat="55.137600" lon="-8.163770">
                <time>2019-06-14T14:01:26Z</time>
            </trkpt>
            <trkpt lat="55.137580" lon="-8.163620">
                <time>2019-06-14T14:01:27Z</time>
            </trkpt>
            <trkpt lat="55.137540" lon="-8.163510">
                <time>2019-06-14T14:01:28Z</time>
            </trkpt>
            <trkpt lat="55.137460" lon="-8.163440">
                <time>2019-06-14T14:01:29Z</time>
            </trkpt>
            <trkpt lat="55.137360" lon="-8.163390">
                <time>2019-06-14T14:01:30Z</time>
            </trkpt>
            <trkpt lat="55.137230" lon="-8.163350">
                <time>2019-06-14T14:01:31Z</time>
            </trkpt>
            <trkpt lat="55.137090" lon="-8.163290">
                <time>2019-06-14T14:01:32Z</time>
            </trkpt>
            <trkpt lat="55.136950" lon="-8.163210">
                <time>2019-06-14T14:01:33Z</time>
            </trkpt>
            <trkpt lat="55.136800" lon="-8.163100">
                <time>2019-06-14T14:01:34Z</time>
            </trkpt>
            <trkpt lat="55.136650" lon="-8.162980">
                <time>2019-06-14T14:01:35Z</time>
            </trkpt>
            <trkpt lat="55.136500" lon="-8.162810">
                <time>2019-06-14T14:01:36Z</time>
            </trkpt>
            <trkpt lat="55.136350" lon="-8.162650">
                <time>2019-06-14T14:01:37Z</time>
            </trkpt>
            <trkpt lat="55.136210" lon="-8.162480">
                <time>2019-06-14T14:01:38Z</time>
            </trkpt>
            <trkpt lat="55.136080" lon="-8.162290">
                <time>2019-06-14T14:01:39Z</time>
            </trkpt>
            <trkpt lat="55.135960" lon="-8.162080">
                <time>2019-06-14T14:01:40Z</time>
            </trkpt>
            <trkpt lat="55.135840" lon="-8.161870">
                <time>2019-06-14T14:01:41Z</time>
            </trkpt>
            <trkpt lat="55.135730" lon="-8.161680">
                <time>2019-06-14T14:01:42Z</time>
            </trkpt>
            <trkpt lat="55.135610" lon="-8.161510">
                <time>2019-06-14T14:01:43Z</time>
            </trkpt>
            <trkpt lat="55.135490" lon="-8.161370">
                <time>2019-06-14T14:01:44Z</time>
            </trkpt>
            <trkpt lat="55.135350" lon="-8.161260">
                <time>2019-06-14T14:01:45Z</time>
            </trkpt>
            <trkpt lat="55.135210" lon="-8.161180">
                <time>2019-06-14T14:01:46Z</time>
            </trkpt>
            <trkpt lat="55.135050" lon="-8.161120">
                <time>2019-06-14T14:01:47Z</time>
            </trkpt>
            <trkpt lat="55.134870" lon="-8.161060">
                <time>2019-06-14T14:01:48Z</time>
            </trkpt>
            <trkpt lat="55.134690" lon="-8.161000">
                <time>2019-06-14T14:01:49Z</time>
            </trkpt>
            <trkpt lat="55.134520" lon="-8.160940">
                <time>2019-06-14T14:01:50Z</time>
            </trkpt>
            <trkpt lat="55.134350" lon="-8.160890">
                <time>2019-06-14T14:01:51Z</time>
            </trkpt>
            <trkpt lat="55.134180" lon="-8.160860">
                <time>2019-06-14T14:01:52Z</time>
            </trkpt>
            <trkpt lat="55.134020" lon="-8.160840">
                <time>2019-06-14T14:01:53Z</time>
            </trkpt>
            <trkpt lat="55.133850" lon="-8.160850">
                <time>2019-06-14T14:01:54Z</time>
            </trkpt>
            <trkpt lat="55.133670" lon="-8.160870">
                <time>2019-06-14T14:01:55Z</time>
            </trkpt>
            <trkpt lat="55.133490" lon="-8.160900">
                <time>2019-06-14T14:01:56Z</time>
            </trkpt>
            <trkpt lat="55.133290" lon="-8.160940">
                <time>2019-06-14T14:01:57Z</time>
            </trkpt>
            <trkpt lat="55.133100" lon="-8.161020">
                <time>2019-06-14T14:01:58Z</time>
            </trkpt>
            <trkpt lat="55.132910" lon="-8.161120">
                <time>2019-06-14T14:01:59Z</time>
            </trkpt>
            <trkpt lat="55.132720" lon="-8.161230">
                <time>2019-06-14T14:02:00Z</time>
            </trkpt>
            <trkpt lat="55.132520" lon="-8.161350">
                <time>2019-06-14T14:02:01Z</time>
            </trkpt>
            <trkpt lat="55.132320" lon="-8.161480">
                <time>2019-06-14T14:02:02Z</time>
            </trkpt>
            <trkpt lat="55.132120" lon="-8.161610">
                <time>2019-06-14T14:02:03Z</time>
            </trkpt>
            <trkpt lat="55.131940" lon="-8.161730">
                <time>2019-06-14T14:02:04Z</time>
            </trkpt>
            <trkpt lat="55.131760" lon="-8.161840">
                <time>2019-06-14T14:02:05Z</time>
            </trkpt>
            <trkpt lat="55.131590" lon="-8.161970">
                <time>2019-06-14T14:02:06Z</time>
            </trkpt>
            <trkpt lat="55.131430" lon="-8.162120">
                <time>2019-06-14T14:02:07Z</time>
            </trkpt>
            <trkpt lat="55.131270" lon="-8.162290">
                <time>2019-06-14T14:02:08Z</time>
            </trkpt>
            <trkpt lat="55.131120" lon="-8.162460">
                <time>2019-06-14T14:02:09Z</time>
            </trkpt>
            <trkpt lat="55.130970" lon="-8.162640">
                <time>2019-06-14T14:02:10Z</time>
            </trkpt>
            <trkpt lat="55.130820" lon="-8.162810">
                <time>2019-06-14T14:02:11Z</time>
            </trkpt>
            <trkpt lat="55.130660" lon="-8.162960">
                <time>2019-06-14T14:02:12Z</time>
            </trkpt>
            <trkpt lat="55.130500" lon="-8.163070">
                <time>2019-06-14T14:02:13Z</time>
            </trkpt>
            <trkpt lat="55.130330" lon="-8.163150">
                <time>2019-06-14T14:02:14Z</time>
            </trkpt>
            <trkpt lat="55.130150" lon="-8.163220">
                <time>2019-06-14T14:02:15Z</time>
            </trkpt>
            <trkpt lat="55.129980" lon="-8.163280">
                <time>2019-06-14T14:02:16Z</time>
            </trkpt>
            <trkpt lat="55.129790" lon="-8.163330">
                <time>2019-06-14T14:02:17Z</time>
            </trkpt>
            <trkpt lat="55.129600" lon="-8.163370">
                <time>2019-06-14T14:02:18Z</time>
            </trkpt>
            <trkpt lat="55.129420" lon="-8.163400">
                <time>2019-06-14T14:02:19Z</time>
            </trkpt>
            <trkpt lat="55.129250" lon="-8.163440">
                <time>2019-06-14T14:02:20Z</time>
            </trkpt>
            <trkpt lat="55.129090" lon="-8.163510">
                <time>2019-06-14T14:02:21Z</time>
            </trkpt>
            <trkpt lat="55.128940" lon="-8.163630">
                <time>2019-06-14T14:02:22Z</time>
            </trkpt>
            <trkpt lat="55.128780" lon="-8.163770">
                <time>2019-06-14T14:02:23Z</time>
            </trkpt>
            <trkpt lat="55.128630" lon="-8.163910">
                <time>2019-06-14T14:02:24Z</time>
            </trkpt>
            <trkpt lat="55.128480" lon="-8.164040">
                <time>2019-06-14T14:02:25Z</time>
            </trkpt>
            <trkpt lat="55.128340" lon="-8.164150">
                <time>2019-06-14T14:02:26Z</time>
            </trkpt>
            <trkpt lat="55.128200" lon="-8.164250">
                <time>2019-06-14T14:02:27Z</time>
            </trkpt>
            <trkpt lat="55.128070" lon="-8.164330">
                <time>2019-06-14T14:02:28Z</time>
            </trkpt>
            <trkpt lat="55.127940" lon="-8.164390">
                <time>2019-06-14T14:02:29Z</time>
            </trkpt>
            <trkpt lat="55.127810" lon="-8.164440">
                <time>2019-06-14T14:02:30Z</time>
            </trkpt>
            <trkpt lat="55.127680" lon="-8.164470">
                <time>2019-06-14T14:02:31Z</time>
            </trkpt>
            <trkpt lat="55.127560" lon="-8.164510">
                <time>2019-06-14T14:02:32Z</time>
            </trkpt>
            <trkpt lat="55.127440" lon="-8.164550">
                <time>2019-06-14T14:02:33Z</time>
            </trkpt>
            <trkpt lat="55.127330" lon="-8.164620">
                <time>2019-06-14T14:02:34Z</time>
            </trkpt>
            <trkpt lat="55.127230" lon="-8.164710">
                <time>2019-06-14T14:02:35Z</time>
            </trkpt>
            <trkpt lat="55.127140" lon="-8.164780">
                <time>2019-06-14T14:02:36Z</time>
            </trkpt>
            <trkpt lat="55.127050" lon="-8.164780">
                <time>2019-06-14T14:02:37Z</time>
            </trkpt>
            <trkpt lat="55.126990" lon="-8.164700">
                <time>2019-06-14T14:02:38Z</time>
            </trkpt>
            <trkpt lat="55.126950" lon="-8.164560">
                <time>2019-06-14T14:02:39Z</time>
            </trkpt>
            <trkpt lat="55.126900" lon="-8.164390">
                <time>2019-06-14T14:02:40Z</time>
            </trkpt>
            <trkpt lat="55.126850" lon="-8.164220">
                <time>2019-06-14T14:02:41Z</time>
            </trkpt>
            <trkpt lat="55.126770" lon="-8.164090">
                <time>2019-06-14T14:02:42Z</time>
            </trkpt>
            <trkpt lat="55.126670" lon="-8.163990">
                <time>2019-06-14T14:02:43Z</time>
            </trkpt>
            <trkpt lat="55.126540" lon="-8.163930">
                <time>2019-06-14T14:02:44Z</time>
            </trkpt>
            <trkpt lat="55.126400" lon="-8.163890">
                <time>2019-06-14T14:02:45Z</time>
            </trkpt>
            <trkpt lat="55.126250" lon="-8.163890">
                <time>2019-06-14T14:02:46Z</time>
            </trkpt>
            <trkpt lat="55.126090" lon="-8.163890">
                <time>2019-06-14T14:02:47Z</time>
            </trkpt>
            <trkpt lat="55.125930" lon="-8.163880">
                <time>2019-06-14T14:02:48Z</time>
            </trkpt>
            <trkpt lat="55.125750" lon="-8.163870">
                <time>2019-06-14T14:02:49Z</time>
            </trkpt>
            <trkpt lat="55.125580" lon="-8.163850">
                <time>2019-06-14T14:02:50Z</time>
            </trkpt>
            <trkpt lat="55.125400" lon="-8.163850">
                <time>2019-06-14T14:02:51Z</time>
            </trkpt>
            <trkpt lat="55.125230" lon="-8.163840">
                <time>2019-06-14T14:02:52Z</time>
            </trkpt>
            <trkpt lat="55.125060" lon="-8.163840">
                <time>2019-06-14T14:02:53Z</time>
            </trkpt>
            <trkpt lat="55.124880" lon="-8.163880">
                <time>2019-06-14T14:02:54Z</time>
            </trkpt>
            <trkpt lat="55.124710" lon="-8.163950">
                <time>2019-06-14T14:02:55Z</time>
            </trkpt>
            <trkpt lat="55.124530" lon="-8.164060">
                <time>2019-06-14T14:02:56Z</time>
            </trkpt>
            <trkpt lat="55.124340" lon="-8.164190">
                <time>2019-06-14T14:02:57Z</time>
            </trkpt>
            <trkpt lat="55.124150" lon="-8.164290">
                <time>2019-06-14T14:02:58Z</time>
            </trkpt>
            <trkpt lat="55.123970" lon="-8.164370">
                <time>2019-06-14T14:02:59Z</time>
            </trkpt>
            <trkpt lat="55.123800" lon="-8.164420">
                <time>2019-06-14T14:03:00Z</time>
            </trkpt>
            <trkpt lat="55.123640" lon="-8.164450">
                <time>2019-06-14T14:03:01Z</time>
            </trkpt>
            <trkpt lat="55.123500" lon="-8.164440">
                <time>2019-06-14T14:03:02Z</time>
            </trkpt>
            <trkpt lat="55.123370" lon="-8.164380">
                <time>2019-06-14T14:03:03Z</time>
            </trkpt>
            <trkpt lat="55.123240" lon="-8.164270">
                <time>2019-06-14T14:03:04Z</time>
            </trkpt>
            <trkpt lat="55.123130" lon="-8.164110">
                <time>2019-06-14T14:03:05Z</time>
            </trkpt>
            <trkpt lat="55.123020" lon="-8.163900">
                <time>2019-06-14T14:03:06Z</time>
            </trkpt>
            <trkpt lat="55.122920" lon="-8.163690">
                <time>2019-06-14T14:03:07Z</time>
            </trkpt>
            <trkpt lat="55.122810" lon="-8.163480">
                <time>2019-06-14T14:03:08Z</time>
            </trkpt>
            <trkpt lat="55.122700" lon="-8.163270">
                <time>2019-06-14T14:03:09Z</time>
            </trkpt>
            <trkpt lat="55.122590" lon="-8.163070">
                <time>2019-06-14T14:03:10Z</time>
            </trkpt>
            <trkpt lat="55.122480" lon="-8.162870">
                <time>2019-06-14T14:03:11Z</time>
            </trkpt>
            <trkpt lat="55.122370" lon="-8.162660">
                <time>2019-06-14T14:03:12Z</time>
            </trkpt>
            <trkpt lat="55.122260" lon="-8.162460">
                <time>2019-06-14T14:03:13Z</time>
            </trkpt>
            <trkpt lat="55.122150" lon="-8.162250">
                <time>2019-06-14T14:03:14Z</time>
            </trkpt>
            <trkpt lat="55.122030" lon="-8.162040">
                <time>2019-06-14T14:03:15Z</time>
            </trkpt>
            <trkpt lat="55.121910" lon="-8.161820">
                <time>2019-06-14T14:03:16Z</time>
            </trkpt>
            <trkpt lat="55.121800" lon="-8.161600">
                <time>2019-06-14T14:03:17Z</time>
            </trkpt>
            <trkpt lat="55.121680" lon="-8.161370">
                <time>2019-06-14T14:03:18Z</time>
            </trkpt>
            <trkpt lat="55.121570" lon="-8.161160">
                <time>2019-06-14T14:03:19Z</time>
            </trkpt>
            <trkpt lat="55.121460" lon="-8.160950">
                <time>2019-06-14T14:03:20Z</time>
            </trkpt>
            <trkpt lat="55.121340" lon="-8.160720">
                <time>2019-06-14T14:03:21Z</time>
            </trkpt>
            <trkpt lat="55.121200" lon="-8.160480">
                <time>2019-06-14T14:03:22Z</time>
            </trkpt>
            <trkpt lat="55.121070" lon="-8.160210">
                <time>2019-06-14T14:03:23Z</time>
            </trkpt>
            <trkpt lat="55.120920" lon="-8.159940">
                <time>2019-06-14T14:03:24Z</time>
            </trkpt>
            <trkpt lat="55.120780" lon="-8.159650">
                <time>2019-06-14T14:03:25Z</time>
            </trkpt>
            <trkpt lat="55.120640" lon="-8.159340">
                <time>2019-06-14T14:03:26Z</time>
            </trkpt>
            <trkpt lat="55.120500" lon="-8.159020">
                <time>2019-06-14T14:03:27Z</time>
            </trkpt>
            <trkpt lat="55.120360" lon="-8.158680">
                <time>2019-06-14T14:03:28Z</time>
            </trkpt>
            <trkpt lat="55.120210" lon="-8.158340">
                <time>2019-06-14T14:03:29Z</time>
            </trkpt>
            <trkpt lat="55.120060" lon="-8.158010">
                <time>2019-06-14T14:03:30Z</time>
            </trkpt>
            <trkpt lat="55.119920" lon="-8.157680">
                <time>2019-06-14T14:03:31Z</time>
            </trkpt>
            <trkpt lat="55.119770" lon="-8.157350">
                <time>2019-06-14T14:03:32Z</time>
            </trkpt>
            <trkpt lat="55.119640" lon="-8.157030">
                <time>2019-06-14T14:03:33Z</time>
            </trkpt>
            <trkpt lat="55.119510" lon="-8.156730">
                <time>2019-06-14T14:03:34Z</time>
            </trkpt>
            <trkpt lat="55.119380" lon="-8.156450">
                <time>2019-06-14T14:03:35Z</time>
            </trkpt>
            <trkpt lat="55.119270" lon="-8.156180">
                <time>2019-06-14T14:03:36Z</time>
            </trkpt>
            <trkpt lat="55.119190" lon="-8.155920">
                <time>2019-06-14T14:03:37Z</time>
            </trkpt>
            <trkpt lat="55.119150" lon="-8.155650">
                <time>2019-06-14T14:03:38Z</time>
            </trkpt>
            <trkpt lat="55.119160" lon="-8.155380">
                <time>2019-06-14T14:03:39Z</time>
            </trkpt>
            <trkpt lat="55.119190" lon="-8.155100">
                <time>2019-06-14T14:03:40Z</time>
            </trkpt>
            <trkpt lat="55.119200" lon="-8.154830">
                <time>2019-06-14T14:03:41Z</time>
            </trkpt>
            <trkpt lat="55.119190" lon="-8.154570">
                <time>2019-06-14T14:03:42Z</time>
            </trkpt>
            <trkpt lat="55.119130" lon="-8.154320">
                <time>2019-06-14T14:03:43Z</time>
            </trkpt>
            <trkpt lat="55.119050" lon="-8.154090">
                <time>2019-06-14T14:03:44Z</time>
            </trkpt>
            <trkpt lat="55.118960" lon="-8.153850">
                <time>2019-06-14T14:03:45Z</time>
            </trkpt>
            <trkpt lat="55.118860" lon="-8.153580">
                <time>2019-06-14T14:03:46Z</time>
            </trkpt>
            <trkpt lat="55.118750" lon="-8.153290">
                <time>2019-06-14T14:03:47Z</time>
            </trkpt>
            <trkpt lat="55.118640" lon="-8.152980">
                <time>2019-06-14T14:03:48Z</time>
            </trkpt>
            <trkpt lat="55.118530" lon="-8.152670">
                <time>2019-06-14T14:03:49Z</time>
            </trkpt>
            <trkpt lat="55.118410" lon="-8.152360">
                <time>2019-06-14T14:03:50Z</time>
            </trkpt>
            <trkpt lat="55.118290" lon="-8.152050">
                <time>2019-06-14T14:03:51Z</time>
            </trkpt>
            <trkpt lat="55.118150" lon="-8.151770">
                <time>2019-06-14T14:03:52Z</time>
            </trkpt>
            <trkpt lat="55.118000" lon="-8.151540">
                <time>2019-06-14T14:03:53Z</time>
            </trkpt>
            <trkpt lat="55.117840" lon="-8.151360">
                <time>2019-06-14T14:03:54Z</time>
            </trkpt>
            <trkpt lat="55.117670" lon="-8.151180">
                <time>2019-06-14T14:03:55Z</time>
            </trkpt>
            <trkpt lat="55.117500" lon="-8.151000">
                <time>2019-06-14T14:03:56Z</time>
            </trkpt>
            <trkpt lat="55.117350" lon="-8.150810">
                <time>2019-06-14T14:03:57Z</time>
            </trkpt>
            <trkpt lat="55.117190" lon="-8.150630">
                <time>2019-06-14T14:03:58Z</time>
            </trkpt>
            <trkpt lat="55.117040" lon="-8.150440">
                <time>2019-06-14T14:03:59Z</time>
            </trkpt>
            <trkpt lat="55.116910" lon="-8.150230">
                <time>2019-06-14T14:04:00Z</time>
            </trkpt>
            <trkpt lat="55.116820" lon="-8.150000">
                <time>2019-06-14T14:04:01Z</time>
            </trkpt>
            <trkpt lat="55.116770" lon="-8.149730">
                <time>2019-06-14T14:04:02Z</time>
            </trkpt>
            <trkpt lat="55.116750" lon="-8.149420">
                <time>2019-06-14T14:04:03Z</time>
            </trkpt>
            <trkpt lat="55.116760" lon="-8.149070">
                <time>2019-06-14T14:04:04Z</time>
            </trkpt>
            <trkpt lat="55.116770" lon="-8.148690">
                <time>2019-06-14T14:04:05Z</time>
            </trkpt>
            <trkpt lat="55.116780" lon="-8.148270">
                <time>2019-06-14T14:04:06Z</time>
            </trkpt>
            <trkpt lat="55.116790" lon="-8.147840">
                <time>2019-06-14T14:04:07Z</time>
            </trkpt>
            <trkpt lat="55.116810" lon="-8.147410">
                <time>2019-06-14T14:04:08Z</time>
            </trkpt>
            <trkpt lat="55.116820" lon="-8.147010">
                <time>2019-06-14T14:04:09Z</time>
            </trkpt>
            <trkpt lat="55.116850" lon="-8.146620">
                <time>2019-06-14T14:04:10Z</time>
            </trkpt>
            <trkpt lat="55.116870" lon="-8.146260">
                <time>2019-06-14T14:04:11Z</time>
            </trkpt>
            <trkpt lat="55.116890" lon="-8.145960">
                <time>2019-06-14T14:04:12Z</time>
            </trkpt>
            <trkpt lat="55.116910" lon="-8.145730">
                <time>2019-06-14T14:04:13Z</time>
            </trkpt>
            <trkpt lat="55.116920" lon="-8.145540">
                <time>2019-06-14T14:04:14Z</time>
            </trkpt>
            <trkpt lat="55.116930" lon="-8.145370">
                <time>2019-06-14T14:04:15Z</time>
            </trkpt>
            <trkpt lat="55.116950" lon="-8.145220">
                <time>2019-06-14T14:04:16Z</time>
            </trkpt>
            <trkpt lat="55.116950" lon="-8.145080">
                <time>2019-06-14T14:04:17Z</time>
            </trkpt>
            <trkpt lat="55.116960" lon="-8.144920">
                <time>2019-06-14T14:04:18Z</time>
            </trkpt>
            <trkpt lat="55.116970" lon="-8.144720">
                <time>2019-06-14T14:04:19Z</time>
            </trkpt>
            <trkpt lat="55.116990" lon="-8.144470">
                <time>2019-06-14T14:04:20Z</time>
            </trkpt>
            <trkpt lat="55.117010" lon="-8.144220">
                <time>2019-06-14T14:04:21Z</time>
            </trkpt>
            <trkpt lat="55.117020" lon="-8.143990">
                <time>2019-06-14T14:04:22Z</time>
            </trkpt>
            <trkpt lat="55.117030" lon="-8.143790">
                <time>2019-06-14T14:04:23Z</time>
            </trkpt>
            <trkpt lat="55.117040" lon="-8.143570">
                <time>2019-06-14T14:04:24Z</time>
            </trkpt>
            <trkpt lat="55.117050" lon="-8.143340">
                <time>2019-06-14T14:04:25Z</time>
            </trkpt>
            <trkpt lat="55.117050" lon="-8.143100">
                <time>2019-06-14T14:04:26Z</time>
            </trkpt>
            <trkpt lat="55.117050" lon="-8.142870">
                <time>2019-06-14T14:04:27Z</time>
            </trkpt>
            <trkpt lat="55.117050" lon="-8.142640">
                <time>2019-06-14T14:04:28Z</time>
            </trkpt>
            <trkpt lat="55.117040" lon="-8.142410">
                <time>2019-06-14T14:04:29Z</time>
            </trkpt>
            <trkpt lat="55.117040" lon="-8.142170">
                <time>2019-06-14T14:04:30Z</time>
            </trkpt>
            <trkpt lat="55.117020" lon="-8.141940">
                <time>2019-06-14T14:04:31Z</time>
            </trkpt>
            <trkpt lat="55.117000" lon="-8.141700">
                <time>2019-06-14T14:04:32Z</time>
            </trkpt>
            <trkpt lat="55.116970" lon="-8.141480">
                <time>2019-06-14T14:04:33Z</time>
            </trkpt>
            <trkpt lat="55.116930" lon="-8.141280">
                <time>2019-06-14T14:04:34Z</time>
            </trkpt>
            <trkpt lat="55.116900" lon="-8.141090">
                <time>2019-06-14T14:04:35Z</time>
            </trkpt>
            <trkpt lat="55.116880" lon="-8.140910">
                <time>2019-06-14T14:04:36Z</time>
            </trkpt>
            <trkpt lat="55.116860" lon="-8.140730">
                <time>2019-06-14T14:04:37Z</time>
            </trkpt>
            <trkpt lat="55.116860" lon="-8.140530">
                <time>2019-06-14T14:04:38Z</time>
            </trkpt>
            <trkpt lat="55.116860" lon="-8.140330">
                <time>2019-06-14T14:04:39Z</time>
            </trkpt>
            <trkpt lat="55.116870" lon="-8.140110">
                <time>2019-06-14T14:04:40Z</time>
            </trkpt>
            <trkpt lat="55.116900" lon="-8.139900">
                <time>2019-06-14T14:04:41Z</time>
            </trkpt>
            <trkpt lat="55.116950" lon="-8.139710">
                <time>2019-06-14T14:04:42Z</time>
            </trkpt>
            <trkpt lat="55.117010" lon="-8.139540">
                <time>2019-06-14T14:04:43Z</time>
            </trkpt>
            <trkpt lat="55.117100" lon="-8.139360">
                <time>2019-06-14T14:04:44Z</time>
            </trkpt>
            <trkpt lat="55.117190" lon="-8.139200">
                <time>2019-06-14T14:04:45Z</time>
            </trkpt>
            <trkpt lat="55.117290" lon="-8.139070">
                <time>2019-06-14T14:04:46Z</time>
            </trkpt>
            <trkpt lat="55.117390" lon="-8.138950">
                <time>2019-06-14T14:04:47Z</time>
            </trkpt>
            <trkpt lat="55.117490" lon="-8.138830">
                <time>2019-06-14T14:04:48Z</time>
            </trkpt>
            <trkpt lat="55.117580" lon="-8.138710">
                <time>2019-06-14T14:04:49Z</time>
            </trkpt>
            <trkpt lat="55.117680" lon="-8.138580">
                <time>2019-06-14T14:04:50Z</time>
            </trkpt>
            <trkpt lat="55.117790" lon="-8.138440">
                <time>2019-06-14T14:04:51Z</time>
            </trkpt>
            <trkpt lat="55.117900" lon="-8.138310">
                <time>2019-06-14T14:04:52Z</time>
            </trkpt>
            <trkpt lat="55.118010" lon="-8.138170">
                <time>2019-06-14T14:04:53Z</time>
            </trkpt>
            <trkpt lat="55.118110" lon="-8.138030">
                <time>2019-06-14T14:04:54Z</time>
            </trkpt>
            <trkpt lat="55.118220" lon="-8.137890">
                <time>2019-06-14T14:04:55Z</time>
            </trkpt>
            <trkpt lat="55.118320" lon="-8.137750">
                <time>2019-06-14T14:04:56Z</time>
            </trkpt>
            <trkpt lat="55.118430" lon="-8.137610">
                <time>2019-06-14T14:04:57Z</time>
            </trkpt>
            <trkpt lat="55.118550" lon="-8.137460">
                <time>2019-06-14T14:04:58Z</time>
            </trkpt>
            <trkpt lat="55.118660" lon="-8.137320">
                <time>2019-06-14T14:04:59Z</time>
            </trkpt>
            <trkpt lat="55.118760" lon="-8.137180">
                <time>2019-06-14T14:05:00Z</time>
            </trkpt>
            <trkpt lat="55.118850" lon="-8.137020">
                <time>2019-06-14T14:05:01Z</time>
            </trkpt>
            <trkpt lat="55.118930" lon="-8.136870">
                <time>2019-06-14T14:05:02Z</time>
            </trkpt>
            <trkpt lat="55.119020" lon="-8.136710">
                <time>2019-06-14T14:05:03Z</time>
            </trkpt>
            <trkpt lat="55.119100" lon="-8.136560">
                <time>2019-06-14T14:05:04Z</time>
            </trkpt>
            <trkpt lat="55.119180" lon="-8.136400">
                <time>2019-06-14T14:05:05Z</time>
            </trkpt>
            <trkpt lat="55.119260" lon="-8.136230">
                <time>2019-06-14T14:05:06Z</time>
            </trkpt>
            <trkpt lat="55.119350" lon="-8.136070">
                <time>2019-06-14T14:05:07Z</time>
            </trkpt>
            <trkpt lat="55.119440" lon="-8.135900">
                <time>2019-06-14T14:05:08Z</time>
            </trkpt>
            <trkpt lat="55.119530" lon="-8.135720">
                <time>2019-06-14T14:05:09Z</time>
            </trkpt>
            <trkpt lat="55.119630" lon="-8.135540">
                <time>2019-06-14T14:05:10Z</time>
            </trkpt>
            <trkpt lat="55.119730" lon="-8.135340">
                <time>2019-06-14T14:05:11Z</time>
            </trkpt>
            <trkpt lat="55.119830" lon="-8.135140">
                <time>2019-06-14T14:05:12Z</time>
            </trkpt>
            <trkpt lat="55.119920" lon="-8.134950">
                <time>2019-06-14T14:05:13Z</time>
            </trkpt>
            <trkpt lat="55.120010" lon="-8.134760">
                <time>2019-06-14T14:05:14Z</time>
            </trkpt>
            <trkpt lat="55.120090" lon="-8.134590">
                <time>2019-06-14T14:05:15Z</time>
            </trkpt>
            <trkpt lat="55.120170" lon="-8.134440">
                <time>2019-06-14T14:05:16Z</time>
            </trkpt>
            <trkpt lat="55.120240" lon="-8.134290">
                <time>2019-06-14T14:05:17Z</time>
            </trkpt>
            <trkpt lat="55.120310" lon="-8.134150">
                <time>2019-06-14T14:05:18Z</time>
            </trkpt>
            <trkpt lat="55.120390" lon="-8.134010">
                <time>2019-06-14T14:05:19Z</time>
            </trkpt>
            <trkpt lat="55.120460" lon="-8.133880">
                <time>2019-06-14T14:05:20Z</time>
            </trkpt>
            <trkpt lat="55.120540" lon="-8.133750">
                <time>2019-06-14T14:05:21Z</time>
            </trkpt>
            <trkpt lat="55.120620" lon="-8.133640">
                <time>2019-06-14T14:05:22Z</time>
            </trkpt>
            <trkpt lat="55.120710" lon="-8.133540">
                <time>2019-06-14T14:05:23Z</time>
            </trkpt>
            <trkpt lat="55.120810" lon="-8.133450">
                <time>2019-06-14T14:05:24Z</time>
            </trkpt>
            <trkpt lat="55.120910" lon="-8.133380">
                <time>2019-06-14T14:05:25Z</time>
            </trkpt>
            <trkpt lat="55.121020" lon="-8.133330">
                <time>2019-06-14T14:05:26Z</time>
            </trkpt>
            <trkpt lat="55.121140" lon="-8.133280">
                <time>2019-06-14T14:05:27Z</time>
            </trkpt>
            <trkpt lat="55.121250" lon="-8.133250">
                <time>2019-06-14T14:05:28Z</time>
            </trkpt>
            <trkpt lat="55.121360" lon="-8.133210">
                <time>2019-06-14T14:05:29Z</time>
            </trkpt>
            <trkpt lat="55.121470" lon="-8.133160">
                <time>2019-06-14T14:05:30Z</time>
            </trkpt>
            <trkpt lat="55.121580" lon="-8.133090">
                <time>2019-06-14T14:05:31Z</time>
            </trkpt>
            <trkpt lat="55.121690" lon="-8.133020">
                <time>2019-06-14T14:05:32Z</time>
            </trkpt>
            <trkpt lat="55.121800" lon="-8.132920">
                <time>2019-06-14T14:05:33Z</time>
            </trkpt>
            <trkpt lat="55.121910" lon="-8.132830">
                <time>2019-06-14T14:05:34Z</time>
            </trkpt>
            <trkpt lat="55.122020" lon="-8.132740">
                <time>2019-06-14T14:05:35Z</time>
            </trkpt>
            <trkpt lat="55.122140" lon="-8.132630">
                <time>2019-06-14T14:05:36Z</time>
            </trkpt>
            <trkpt lat="55.122260" lon="-8.132520">
                <time>2019-06-14T14:05:37Z</time>
            </trkpt>
            <trkpt lat="55.122400" lon="-8.132410">
                <time>2019-06-14T14:05:38Z</time>
            </trkpt>
            <trkpt lat="55.122540" lon="-8.132320">
                <time>2019-06-14T14:05:39Z</time>
            </trkpt>
            <trkpt lat="55.122690" lon="-8.132230">
                <time>2019-06-14T14:05:40Z</time>
            </trkpt>
            <trkpt lat="55.122830" lon="-8.132160">
                <time>2019-06-14T14:05:41Z</time>
            </trkpt>
            <trkpt lat="55.122970" lon="-8.132090">
                <time>2019-06-14T14:05:42Z</time>
            </trkpt>
            <trkpt lat="55.123120" lon="-8.132020">
                <time>2019-06-14T14:05:43Z</time>
            </trkpt>
            <trkpt lat="55.123240" lon="-8.131940">
                <time>2019-06-14T14:05:44Z</time>
            </trkpt>
            <trkpt lat="55.123350" lon="-8.131840">
                <time>2019-06-14T14:05:45Z</time>
            </trkpt>
            <trkpt lat="55.123430" lon="-8.131710">
                <time>2019-06-14T14:05:46Z</time>
            </trkpt>
            <trkpt lat="55.123470" lon="-8.131560">
                <time>2019-06-14T14:05:47Z</time>
            </trkpt>
            <trkpt lat="55.123500" lon="-8.131370">
                <time>2019-06-14T14:05:48Z</time>
            </trkpt>
            <trkpt lat="55.123520" lon="-8.131170">
                <time>2019-06-14T14:05:49Z</time>
            </trkpt>
            <trkpt lat="55.123550" lon="-8.130960">
                <time>2019-06-14T14:05:50Z</time>
            </trkpt>
            <trkpt lat="55.123590" lon="-8.130760">
                <time>2019-06-14T14:05:51Z</time>
            </trkpt>
            <trkpt lat="55.123660" lon="-8.130610">
                <time>2019-06-14T14:05:52Z</time>
            </trkpt>
            <trkpt lat="55.123750" lon="-8.130520">
                <time>2019-06-14T14:05:53Z</time>
            </trkpt>
            <trkpt lat="55.123850" lon="-8.130490">
                <time>2019-06-14T14:05:54Z</time>
            </trkpt>
            <trkpt lat="55.123960" lon="-8.130490">
                <time>2019-06-14T14:05:55Z</time>
            </trkpt>
            <trkpt lat="55.124090" lon="-8.130510">
                <time>2019-06-14T14:05:56Z</time>
            </trkpt>
            <trkpt lat="55.124230" lon="-8.130560">
                <time>2019-06-14T14:05:57Z</time>
            </trkpt>
            <trkpt lat="55.124390" lon="-8.130640">
                <time>2019-06-14T14:05:58Z</time>
            </trkpt>
            <trkpt lat="55.124550" lon="-8.130740">
                <time>2019-06-14T14:05:59Z</time>
            </trkpt>
            <trkpt lat="55.124730" lon="-8.130840">
                <time>2019-06-14T14:06:00Z</time>
            </trkpt>
            <trkpt lat="55.124950" lon="-8.130970">
                <time>2019-06-14T14:06:01Z</time>
            </trkpt>
            <trkpt lat="55.125190" lon="-8.131130">
                <time>2019-06-14T14:06:02Z</time>
            </trkpt>
            <trkpt lat="55.125420" lon="-8.131320">
                <time>2019-06-14T14:06:03Z</time>
            </trkpt>
            <trkpt lat="55.125640" lon="-8.131510">
                <time>2019-06-14T14:06:04Z</time>
            </trkpt>
            <trkpt lat="55.125850" lon="-8.131720">
                <time>2019-06-14T14:06:05Z</time>
            </trkpt>
            <trkpt lat="55.126050" lon="-8.131900">
                <time>2019-06-14T14:06:06Z</time>
            </trkpt>
            <trkpt lat="55.126240" lon="-8.132090">
                <time>2019-06-14T14:06:07Z</time>
            </trkpt>
            <trkpt lat="55.126420" lon="-8.132270">
                <time>2019-06-14T14:06:08Z</time>
            </trkpt>
            <trkpt lat="55.126590" lon="-8.132430">
                <time>2019-06-14T14:06:09Z</time>
            </trkpt>
            <trkpt lat="55.126770" lon="-8.132550">
                <time>2019-06-14T14:06:10Z</time>
            </trkpt>
            <trkpt lat="55.126940" lon="-8.132660">
                <time>2019-06-14T14:06:11Z</time>
            </trkpt>
            <trkpt lat="55.127100" lon="-8.132730">
                <time>2019-06-14T14:06:12Z</time>
            </trkpt>
            <trkpt lat="55.127270" lon="-8.132780">
                <time>2019-06-14T14:06:13Z</time>
            </trkpt>
            <trkpt lat="55.127440" lon="-8.132820">
                <time>2019-06-14T14:06:14Z</time>
            </trkpt>
            <trkpt lat="55.127610" lon="-8.132840">
                <time>2019-06-14T14:06:15Z</time>
            </trkpt>
            <trkpt lat="55.127770" lon="-8.132840">
                <time>2019-06-14T14:06:16Z</time>
            </trkpt>
            <trkpt lat="55.127920" lon="-8.132810">
                <time>2019-06-14T14:06:17Z</time>
            </trkpt>
            <trkpt lat="55.128060" lon="-8.132770">
                <time>2019-06-14T14:06:18Z</time>
            </trkpt>
            <trkpt lat="55.128220" lon="-8.132720">
                <time>2019-06-14T14:06:19Z</time>
            </trkpt>
            <trkpt lat="55.128380" lon="-8.132660">
                <time>2019-06-14T14:06:20Z</time>
            </trkpt>
            <trkpt lat="55.128560" lon="-8.132590">
                <time>2019-06-14T14:06:21Z</time>
            </trkpt>
            <trkpt lat="55.128750" lon="-8.132520">
                <time>2019-06-14T14:06:22Z</time>
            </trkpt>
            <trkpt lat="55.128940" lon="-8.132430">
                <time>2019-06-14T14:06:23Z</time>
            </trkpt>
            <trkpt lat="55.129140" lon="-8.132360">
                <time>2019-06-14T14:06:24Z</time>
            </trkpt>
            <trkpt lat="55.129320" lon="-8.132280">
                <time>2019-06-14T14:06:25Z</time>
            </trkpt>
            <trkpt lat="55.129490" lon="-8.132210">
                <time>2019-06-14T14:06:26Z</time>
            </trkpt>
            <trkpt lat="55.129670" lon="-8.132130">
                <time>2019-06-14T14:06:27Z</time>
            </trkpt>
            <trkpt lat="55.129840" lon="-8.132060">
                <time>2019-06-14T14:06:28Z</time>
            </trkpt>
            <trkpt lat="55.130010" lon="-8.131990">
                <time>2019-06-14T14:06:29Z</time>
            </trkpt>
            <trkpt lat="55.130180" lon="-8.131920">
                <time>2019-06-14T14:06:30Z</time>
            </trkpt>
            <trkpt lat="55.130370" lon="-8.131840">
                <time>2019-06-14T14:06:31Z</time>
            </trkpt>
            <trkpt lat="55.130570" lon="-8.131760">
                <time>2019-06-14T14:06:32Z</time>
            </trkpt>
            <trkpt lat="55.130770" lon="-8.131670">
                <time>2019-06-14T14:06:33Z</time>
            </trkpt>
            <trkpt lat="55.130980" lon="-8.131580">
                <time>2019-06-14T14:06:34Z</time>
            </trkpt>
            <trkpt lat="55.131200" lon="-8.131470">
                <time>2019-06-14T14:06:35Z</time>
            </trkpt>
            <trkpt lat="55.131420" lon="-8.131370">
                <time>2019-06-14T14:06:36Z</time>
            </trkpt>
            <trkpt lat="55.131630" lon="-8.131280">
                <time>2019-06-14T14:06:37Z</time>
            </trkpt>
            <trkpt lat="55.131820" lon="-8.131180">
                <time>2019-06-14T14:06:38Z</time>
            </trkpt>
            <trkpt lat="55.132010" lon="-8.131090">
                <time>2019-06-14T14:06:39Z</time>
            </trkpt>
            <trkpt lat="55.132190" lon="-8.131020">
                <time>2019-06-14T14:06:40Z</time>
            </trkpt>
            <trkpt lat="55.132350" lon="-8.130940">
                <time>2019-06-14T14:06:41Z</time>
            </trkpt>
            <trkpt lat="55.132530" lon="-8.130870">
                <time>2019-06-14T14:06:42Z</time>
            </trkpt>
            <trkpt lat="55.132710" lon="-8.130790">
                <time>2019-06-14T14:06:43Z</time>
            </trkpt>
            <trkpt lat="55.132890" lon="-8.130700">
                <time>2019-06-14T14:06:44Z</time>
            </trkpt>
            <trkpt lat="55.133070" lon="-8.130610">
                <time>2019-06-14T14:06:45Z</time>
            </trkpt>
            <trkpt lat="55.133250" lon="-8.130530">
                <time>2019-06-14T14:06:46Z</time>
            </trkpt>
            <trkpt lat="55.133430" lon="-8.130440">
                <time>2019-06-14T14:06:47Z</time>
            </trkpt>
            <trkpt lat="55.133610" lon="-8.130350">
                <time>2019-06-14T14:06:48Z</time>
            </trkpt>
            <trkpt lat="55.133790" lon="-8.130270">
                <time>2019-06-14T14:06:49Z</time>
            </trkpt>
            <trkpt lat="55.133970" lon="-8.130180">
                <time>2019-06-14T14:06:50Z</time>
            </trkpt>
            <trkpt lat="55.134160" lon="-8.130090">
                <time>2019-06-14T14:06:51Z</time>
            </trkpt>
            <trkpt lat="55.134340" lon="-8.130010">
                <time>2019-06-14T14:06:52Z</time>
            </trkpt>
            <trkpt lat="55.134510" lon="-8.129920">
                <time>2019-06-14T14:06:53Z</time>
            </trkpt>
            <trkpt lat="55.134680" lon="-8.129850">
                <time>2019-06-14T14:06:54Z</time>
            </trkpt>
            <trkpt lat="55.134840" lon="-8.129770">
                <time>2019-06-14T14:06:55Z</time>
            </trkpt>
            <trkpt lat="55.135000" lon="-8.129690">
                <time>2019-06-14T14:06:56Z</time>
            </trkpt>
            <trkpt lat="55.135170" lon="-8.129610">
                <time>2019-06-14T14:06:57Z</time>
            </trkpt>
            <trkpt lat="55.135340" lon="-8.129530">
                <time>2019-06-14T14:06:58Z</time>
            </trkpt>
            <trkpt lat="55.135510" lon="-8.129450">
                <time>2019-06-14T14:06:59Z</time>
            </trkpt>
            <trkpt lat="55.135670" lon="-8.129370">
                <time>2019-06-14T14:07:00Z</time>
            </trkpt>
            <trkpt lat="55.135840" lon="-8.129290">
                <time>2019-06-14T14:07:01Z</time>
            </trkpt>
            <trkpt lat="55.136010" lon="-8.129220">
                <time>2019-06-14T14:07:02Z</time>
            </trkpt>
            <trkpt lat="55.136170" lon="-8.129140">
                <time>2019-06-14T14:07:03Z</time>
            </trkpt>
            <trkpt lat="55.136310" lon="-8.129070">
                <time>2019-06-14T14:07:04Z</time>
            </trkpt>
            <trkpt lat="55.136450" lon="-8.129000">
                <time>2019-06-14T14:07:05Z</time>
            </trkpt>
            <trkpt lat="55.136570" lon="-8.128900">
                <time>2019-06-14T14:07:06Z</time>
            </trkpt>
            <trkpt lat="55.136680" lon="-8.128780">
                <time>2019-06-14T14:07:07Z</time>
            </trkpt>
            <trkpt lat="55.136750" lon="-8.128610">
                <time>2019-06-14T14:07:08Z</time>
            </trkpt>
            <trkpt lat="55.136810" lon="-8.128430">
                <time>2019-06-14T14:07:09Z</time>
            </trkpt>
            <trkpt lat="55.136820" lon="-8.128210">
                <time>2019-06-14T14:07:10Z</time>
            </trkpt>
            <trkpt lat="55.136810" lon="-8.127990">
                <time>2019-06-14T14:07:11Z</time>
            </trkpt>
            <trkpt lat="55.136770" lon="-8.127780">
                <time>2019-06-14T14:07:12Z</time>
            </trkpt>
            <trkpt lat="55.136700" lon="-8.127570">
                <time>2019-06-14T14:07:13Z</time>
            </trkpt>
            <trkpt lat="55.136600" lon="-8.127370">
                <time>2019-06-14T14:07:14Z</time>
            </trkpt>
            <trkpt lat="55.136470" lon="-8.127180">
                <time>2019-06-14T14:07:15Z</time>
            </trkpt>
            <trkpt lat="55.136330" lon="-8.126990">
                <time>2019-06-14T14:07:16Z</time>
            </trkpt>
            <trkpt lat="55.136190" lon="-8.126800">
                <time>2019-06-14T14:07:17Z</time>
            </trkpt>
            <trkpt lat="55.136050" lon="-8.126630">
                <time>2019-06-14T14:07:18Z</time>
            </trkpt>
            <trkpt lat="55.135900" lon="-8.126460">
                <time>2019-06-14T14:07:19Z</time>
            </trkpt>
            <trkpt lat="55.135760" lon="-8.126310">
                <time>2019-06-14T14:07:20Z</time>
            </trkpt>
            <trkpt lat="55.135610" lon="-8.126160">
                <time>2019-06-14T14:07:21Z</time>
            </trkpt>
            <trkpt lat="55.135460" lon="-8.126000">
                <time>2019-06-14T14:07:22Z</time>
            </trkpt>
            <trkpt lat="55.135290" lon="-8.125830">
                <time>2019-06-14T14:07:23Z</time>
            </trkpt>
            <trkpt lat="55.135130" lon="-8.125650">
                <time>2019-06-14T14:07:24Z</time>
            </trkpt>
            <trkpt lat="55.134990" lon="-8.125460">
                <time>2019-06-14T14:07:25Z</time>
            </trkpt>
            <trkpt lat="55.134850" lon="-8.125260">
                <time>2019-06-14T14:07:26Z</time>
            </trkpt>
            <trkpt lat="55.134730" lon="-8.125030">
                <time>2019-06-14T14:07:27Z</time>
            </trkpt>
            <trkpt lat="55.134630" lon="-8.124780">
                <time>2019-06-14T14:07:28Z</time>
            </trkpt>
            <trkpt lat="55.134560" lon="-8.124520">
                <time>2019-06-14T14:07:29Z</time>
            </trkpt>
            <trkpt lat="55.134510" lon="-8.124250">
                <time>2019-06-14T14:07:30Z</time>
            </trkpt>
            <trkpt lat="55.134490" lon="-8.124000">
                <time>2019-06-14T14:07:31Z</time>
            </trkpt>
            <trkpt lat="55.134480" lon="-8.123740">
                <time>2019-06-14T14:07:32Z</time>
            </trkpt>
            <trkpt lat="55.134500" lon="-8.123490">
                <time>2019-06-14T14:07:33Z</time>
            </trkpt>
            <trkpt lat="55.134530" lon="-8.123220">
                <time>2019-06-14T14:07:34Z</time>
            </trkpt>
            <trkpt lat="55.134580" lon="-8.122950">
                <time>2019-06-14T14:07:35Z</time>
            </trkpt>
            <trkpt lat="55.134650" lon="-8.122700">
                <time>2019-06-14T14:07:36Z</time>
            </trkpt>
            <trkpt lat="55.134730" lon="-8.122440">
                <time>2019-06-14T14:07:37Z</time>
            </trkpt>
            <trkpt lat="55.134810" lon="-8.122180">
                <time>2019-06-14T14:07:38Z</time>
            </trkpt>
            <trkpt lat="55.134890" lon="-8.121930">
                <time>2019-06-14T14:07:39Z</time>
            </trkpt>
            <trkpt lat="55.134980" lon="-8.121660">
                <time>2019-06-14T14:07:40Z</time>
            </trkpt>
            <trkpt lat="55.135060" lon="-8.121390">
                <time>2019-06-14T14:07:41Z</time>
            </trkpt>
            <trkpt lat="55.135140" lon="-8.121110">
                <time>2019-06-14T14:07:42Z</time>
            </trkpt>
            <trkpt lat="55.135200" lon="-8.120830">
                <time>2019-06-14T14:07:43Z</time>
            </trkpt>
            <trkpt lat="55.135230" lon="-8.120530">
                <time>2019-06-14T14:07:44Z</time>
            </trkpt>
            <trkpt lat="55.135250" lon="-8.120230">
                <time>2019-06-14T14:07:45Z</time>
            </trkpt>
            <trkpt lat="55.135260" lon="-8.119930">
                <time>2019-06-14T14:07:46Z</time>
            </trkpt>
            <trkpt lat="55.135260" lon="-8.119640">
                <time>2019-06-14T14:07:47Z</time>
            </trkpt>
            <trkpt lat="55.135270" lon="-8.119340">
                <time>2019-06-14T14:07:48Z</time>
            </trkpt>
            <trkpt lat="55.135270" lon="-8.119050">
                <time>2019-06-14T14:07:49Z</time>
            </trkpt>
            <trkpt lat="55.135280" lon="-8.118760">
                <time>2019-06-14T14:07:50Z</time>
            </trkpt>
            <trkpt lat="55.135280" lon="-8.118470">
                <time>2019-06-14T14:07:51Z</time>
            </trkpt>
            <trkpt lat="55.135290" lon="-8.118180">
                <time>2019-06-14T14:07:52Z</time>
            </trkpt>
            <trkpt lat="55.135310" lon="-8.117870">
                <time>2019-06-14T14:07:53Z</time>
            </trkpt>
            <trkpt lat="55.135340" lon="-8.117570">
                <time>2019-06-14T14:07:54Z</time>
            </trkpt>
            <trkpt lat="55.135380" lon="-8.117270">
                <time>2019-06-14T14:07:55Z</time>
            </trkpt>
            <trkpt lat="55.135420" lon="-8.116970">
                <time>2019-06-14T14:07:56Z</time>
            </trkpt>
            <trkpt lat="55.135480" lon="-8.116680">
                <time>2019-06-14T14:07:57Z</time>
            </trkpt>
            <trkpt lat="55.135530" lon="-8.116380">
                <time>2019-06-14T14:07:58Z</time>
            </trkpt>
            <trkpt lat="55.135590" lon="-8.116100">
                <time>2019-06-14T14:07:59Z</time>
            </trkpt>
            <trkpt lat="55.135650" lon="-8.115820">
                <time>2019-06-14T14:08:00Z</time>
            </trkpt>
            <trkpt lat="55.135710" lon="-8.115550">
                <time>2019-06-14T14:08:01Z</time>
            </trkpt>
            <trkpt lat="55.135770" lon="-8.115280">
                <time>2019-06-14T14:08:02Z</time>
            </trkpt>
            <trkpt lat="55.135840" lon="-8.115000">
                <time>2019-06-14T14:08:03Z</time>
            </trkpt>
            <trkpt lat="55.135900" lon="-8.114700">
                <time>2019-06-14T14:08:04Z</time>
            </trkpt>
            <trkpt lat="55.135940" lon="-8.114390">
                <time>2019-06-14T14:08:05Z</time>
            </trkpt>
            <trkpt lat="55.135950" lon="-8.114060">
                <time>2019-06-14T14:08:06Z</time>
            </trkpt>
            <trkpt lat="55.135970" lon="-8.113730">
                <time>2019-06-14T14:08:07Z</time>
            </trkpt>
            <trkpt lat="55.135970" lon="-8.113390">
                <time>2019-06-14T14:08:08Z</time>
            </trkpt>
            <trkpt lat="55.135970" lon="-8.113060">
                <time>2019-06-14T14:08:09Z</time>
            </trkpt>
            <trkpt lat="55.135970" lon="-8.112730">
                <time>2019-06-14T14:08:10Z</time>
            </trkpt>
            <trkpt lat="55.135970" lon="-8.112420">
                <time>2019-06-14T14:08:11Z</time>
            </trkpt>
            <trkpt lat="55.135970" lon="-8.112130">
                <time>2019-06-14T14:08:12Z</time>
            </trkpt>
            <trkpt lat="55.135970" lon="-8.111860">
                <time>2019-06-14T14:08:13Z</time>
            </trkpt>
            <trkpt lat="55.135970" lon="-8.111590">
                <time>2019-06-14T14:08:14Z</time>
            </trkpt>
            <trkpt lat="55.135970" lon="-8.111320">
                <time>2019-06-14T14:08:15Z</time>
            </trkpt>
            <trkpt lat="55.135970" lon="-8.111040">
                <time>2019-06-14T14:08:16Z</time>
            </trkpt>
            <trkpt lat="55.135970" lon="-8.110760">
                <time>2019-06-14T14:08:17Z</time>
            </trkpt>
            <trkpt lat="55.135970" lon="-8.110490">
                <time>2019-06-14T14:08:18Z</time>
            </trkpt>
            <trkpt lat="55.135970" lon="-8.110230">
                <time>2019-06-14T14:08:19Z</time>
            </trkpt>
            <trkpt lat="55.135980" lon="-8.109960">
                <time>2019-06-14T14:08:20Z</time>
            </trkpt>
            <trkpt lat="55.135990" lon="-8.109680">
                <time>2019-06-14T14:08:21Z</time>
            </trkpt>
            <trkpt lat="55.136000" lon="-8.109400">
                <time>2019-06-14T14:08:22Z</time>
            </trkpt>
            <trkpt lat="55.136010" lon="-8.109130">
                <time>2019-06-14T14:08:23Z</time>
            </trkpt>
            <trkpt lat="55.136030" lon="-8.108850">
                <time>2019-06-14T14:08:24Z</time>
            </trkpt>
            <trkpt lat="55.136050" lon="-8.108570">
                <time>2019-06-14T14:08:25Z</time>
            </trkpt>
            <trkpt lat="55.136070" lon="-8.108300">
                <time>2019-06-14T14:08:26Z</time>
            </trkpt>
            <trkpt lat="55.136090" lon="-8.108040">
                <time>2019-06-14T14:08:27Z</time>
            </trkpt>
            <trkpt lat="55.136100" lon="-8.107780">
                <time>2019-06-14T14:08:28Z</time>
            </trkpt>
            <trkpt lat="55.136120" lon="-8.107530">
                <time>2019-06-14T14:08:29Z</time>
            </trkpt>
            <trkpt lat="55.136140" lon="-8.107290">
                <time>2019-06-14T14:08:30Z</time>
            </trkpt>
            <trkpt lat="55.136160" lon="-8.107070">
                <time>2019-06-14T14:08:31Z</time>
            </trkpt>
            <trkpt lat="55.136180" lon="-8.106870">
                <time>2019-06-14T14:08:32Z</time>
            </trkpt>
            <trkpt lat="55.136190" lon="-8.106690">
                <time>2019-06-14T14:08:33Z</time>
            </trkpt>
            <trkpt lat="55.136200" lon="-8.106520">
                <time>2019-06-14T14:08:34Z</time>
            </trkpt>
            <trkpt lat="55.136210" lon="-8.106360">
                <time>2019-06-14T14:08:35Z</time>
            </trkpt>
            <trkpt lat="55.136220" lon="-8.106210">
                <time>2019-06-14T14:08:36Z</time>
            </trkpt>
            <trkpt lat="55.136230" lon="-8.106080">
                <time>2019-06-14T14:08:37Z</time>
            </trkpt>
            <trkpt lat="55.136230" lon="-8.105960">
                <time>2019-06-14T14:08:38Z</time>
            </trkpt>
            <trkpt lat="55.136240" lon="-8.105860">
                <time>2019-06-14T14:08:39Z</time>
            </trkpt>
            <trkpt lat="55.136250" lon="-8.105770">
                <time>2019-06-14T14:08:40Z</time>
            </trkpt>
            <trkpt lat="55.136250" lon="-8.105690">
                <time>2019-06-14T14:08:41Z</time>
            </trkpt>
            <trkpt lat="55.136270" lon="-8.105610">
                <time>2019-06-14T14:08:42Z</time>
            </trkpt>
            <trkpt lat="55.136280" lon="-8.105510">
                <time>2019-06-14T14:08:43Z</time>
            </trkpt>
            <trkpt lat="55.136290" lon="-8.105410">
                <time>2019-06-14T14:08:44Z</time>
            </trkpt>
            <trkpt lat="55.136300" lon="-8.105330">
                <time>2019-06-14T14:08:45Z</time>
            </trkpt>
            <trkpt lat="55.136320" lon="-8.105230">
                <time>2019-06-14T14:08:46Z</time>
            </trkpt>
            <trkpt lat="55.136330" lon="-8.105110">
                <time>2019-06-14T14:08:47Z</time>
            </trkpt>
            <trkpt lat="55.136340" lon="-8.105000">
                <time>2019-06-14T14:08:48Z</time>
            </trkpt>
            <trkpt lat="55.136350" lon="-8.104890">
                <time>2019-06-14T14:08:49Z</time>
            </trkpt>
            <trkpt lat="55.136360" lon="-8.104810">
                <time>2019-06-14T14:08:50Z</time>
            </trkpt>
            <trkpt lat="55.136380" lon="-8.104720">
                <time>2019-06-14T14:08:51Z</time>
            </trkpt>
            <trkpt lat="55.136390" lon="-8.104630">
                <time>2019-06-14T14:08:52Z</time>
            </trkpt>
            <trkpt lat="55.136400" lon="-8.104550">
                <time>2019-06-14T14:08:53Z</time>
            </trkpt>
            <trkpt lat="55.136410" lon="-8.104460">
                <time>2019-06-14T14:08:54Z</time>
            </trkpt>
            <trkpt lat="55.136430" lon="-8.104350">
                <time>2019-06-14T14:08:55Z</time>
            </trkpt>
            <trkpt lat="55.136440" lon="-8.104240">
                <time>2019-06-14T14:08:56Z</time>
            </trkpt>
            <trkpt lat="55.136450" lon="-8.104120">
                <time>2019-06-14T14:08:57Z</time>
            </trkpt>
            <trkpt lat="55.136460" lon="-8.104010">
                <time>2019-06-14T14:08:58Z</time>
            </trkpt>
            <trkpt lat="55.136470" lon="-8.103910">
                <time>2019-06-14T14:08:59Z</time>
            </trkpt>
            <trkpt lat="55.136490" lon="-8.103810">
                <time>2019-06-14T14:09:00Z</time>
            </trkpt>
            <trkpt lat="55.136500" lon="-8.103710">
                <time>2019-06-14T14:09:01Z</time>
            </trkpt>
            <trkpt lat="55.136520" lon="-8.103610">
                <time>2019-06-14T14:09:02Z</time>
            </trkpt>
            <trkpt lat="55.136530" lon="-8.103500">
                <time>2019-06-14T14:09:03Z</time>
            </trkpt>
            <trkpt lat="55.136550" lon="-8.103380">
                <time>2019-06-14T14:09:04Z</time>
            </trkpt>
            <trkpt lat="55.136560" lon="-8.103270">
                <time>2019-06-14T14:09:05Z</time>
            </trkpt>
            <trkpt lat="55.136580" lon="-8.103160">
                <time>2019-06-14T14:09:06Z</time>
            </trkpt>
            <trkpt lat="55.136590" lon="-8.103050">
                <time>2019-06-14T14:09:07Z</time>
            </trkpt>
            <trkpt lat="55.136610" lon="-8.102940">
                <time>2019-06-14T14:09:08Z</time>
            </trkpt>
            <trkpt lat="55.136620" lon="-8.102840">
                <time>2019-06-14T14:09:09Z</time>
            </trkpt>
            <trkpt lat="55.136630" lon="-8.102750">
                <time>2019-06-14T14:09:10Z</time>
            </trkpt>
            <trkpt lat="55.136640" lon="-8.102670">
                <time>2019-06-14T14:09:11Z</time>
            </trkpt>
            <trkpt lat="55.136650" lon="-8.102590">
                <time>2019-06-14T14:09:12Z</time>
            </trkpt>
            <trkpt lat="55.136660" lon="-8.102480">
                <time>2019-06-14T14:09:13Z</time>
            </trkpt>
            <trkpt lat="55.136680" lon="-8.102340">
                <time>2019-06-14T14:09:14Z</time>
            </trkpt>
            <trkpt lat="55.136700" lon="-8.102230">
                <time>2019-06-14T14:09:15Z</time>
            </trkpt>
            <trkpt lat="55.136710" lon="-8.102130">
                <time>2019-06-14T14:09:16Z</time>
            </trkpt>
            <trkpt lat="55.136720" lon="-8.102060">
                <time>2019-06-14T14:09:17Z</time>
            </trkpt>
            <trkpt lat="55.136730" lon="-8.102010">
                <time>2019-06-14T14:09:18Z</time>
            </trkpt>
            <trkpt lat="55.136740" lon="-8.101950">
                <time>2019-06-14T14:09:19Z</time>
            </trkpt>
            <trkpt lat="55.136760" lon="-8.101890">
                <time>2019-06-14T14:09:20Z</time>
            </trkpt>
            <trkpt lat="55.136760" lon="-8.101810">
                <time>2019-06-14T14:09:21Z</time>
            </trkpt>
            <trkpt lat="55.136770" lon="-8.101750">
                <time>2019-06-14T14:09:22Z</time>
            </trkpt>
            <trkpt lat="55.136780" lon="-8.101680">
                <time>2019-06-14T14:09:23Z</time>
            </trkpt>
            <trkpt lat="55.136790" lon="-8.101610">
                <time>2019-06-14T14:09:24Z</time>
            </trkpt>
            <trkpt lat="55.136800" lon="-8.101540">
                <time>2019-06-14T14:09:25Z</time>
            </trkpt>
            <trkpt lat="55.136810" lon="-8.101470">
                <time>2019-06-14T14:09:26Z</time>
            </trkpt>
            <trkpt lat="55.136820" lon="-8.101400">
                <time>2019-06-14T14:09:27Z</time>
            </trkpt>
            <trkpt lat="55.136830" lon="-8.101300">
                <time>2019-06-14T14:09:28Z</time>
            </trkpt>
            <trkpt lat="55.136840" lon="-8.101190">
                <time>2019-06-14T14:09:29Z</time>
            </trkpt>
            <trkpt lat="55.136860" lon="-8.101060">
                <time>2019-06-14T14:09:30Z</time>
            </trkpt>
            <trkpt lat="55.136870" lon="-8.100920">
                <time>2019-06-14T14:09:31Z</time>
            </trkpt>
            <trkpt lat="55.136890" lon="-8.100760">
                <time>2019-06-14T14:09:32Z</time>
            </trkpt>
            <trkpt lat="55.136910" lon="-8.100580">
                <time>2019-06-14T14:09:33Z</time>
            </trkpt>
            <trkpt lat="55.136940" lon="-8.100380">
                <time>2019-06-14T14:09:34Z</time>
            </trkpt>
            <trkpt lat="55.136960" lon="-8.100160">
                <time>2019-06-14T14:09:35Z</time>
            </trkpt>
            <trkpt lat="55.136990" lon="-8.099920">
                <time>2019-06-14T14:09:36Z</time>
            </trkpt>
            <trkpt lat="55.137020" lon="-8.099680">
                <time>2019-06-14T14:09:37Z</time>
            </trkpt>
            <trkpt lat="55.137060" lon="-8.099460">
                <time>2019-06-14T14:09:38Z</time>
            </trkpt>
            <trkpt lat="55.137090" lon="-8.099260">
                <time>2019-06-14T14:09:39Z</time>
            </trkpt>
            <trkpt lat="55.137130" lon="-8.099060">
                <time>2019-06-14T14:09:40Z</time>
            </trkpt>
            <trkpt lat="55.137160" lon="-8.098850">
                <time>2019-06-14T14:09:41Z</time>
            </trkpt>
            <trkpt lat="55.137200" lon="-8.098620">
                <time>2019-06-14T14:09:42Z</time>
            </trkpt>
            <trkpt lat="55.137230" lon="-8.098390">
                <time>2019-06-14T14:09:43Z</time>
            </trkpt>
            <trkpt lat="55.137270" lon="-8.098150">
                <time>2019-06-14T14:09:44Z</time>
            </trkpt>
            <trkpt lat="55.137320" lon="-8.097920">
                <time>2019-06-14T14:09:45Z</time>
            </trkpt>
            <trkpt lat="55.137380" lon="-8.097700">
                <time>2019-06-14T14:09:46Z</time>
            </trkpt>
            <trkpt lat="55.137450" lon="-8.097490">
                <time>2019-06-14T14:09:47Z</time>
            </trkpt>
            <trkpt lat="55.137520" lon="-8.097300">
                <time>2019-06-14T14:09:48Z</time>
            </trkpt>
            <trkpt lat="55.137580" lon="-8.097110">
                <time>2019-06-14T14:09:49Z</time>
            </trkpt>
            <trkpt lat="55.137650" lon="-8.096920">
                <time>2019-06-14T14:09:50Z</time>
            </trkpt>
            <trkpt lat="55.137710" lon="-8.096740">
                <time>2019-06-14T14:09:51Z</time>
            </trkpt>
            <trkpt lat="55.137780" lon="-8.096550">
                <time>2019-06-14T14:09:52Z</time>
            </trkpt>
            <trkpt lat="55.137840" lon="-8.096350">
                <time>2019-06-14T14:09:53Z</time>
            </trkpt>
            <trkpt lat="55.137920" lon="-8.096140">
                <time>2019-06-14T14:09:54Z</time>
            </trkpt>
            <trkpt lat="55.138000" lon="-8.095930">
                <time>2019-06-14T14:09:55Z</time>
            </trkpt>
            <trkpt lat="55.138080" lon="-8.095740">
                <time>2019-06-14T14:09:56Z</time>
            </trkpt>
            <trkpt lat="55.138160" lon="-8.095540">
                <time>2019-06-14T14:09:57Z</time>
            </trkpt>
            <trkpt lat="55.138230" lon="-8.095360">
                <time>2019-06-14T14:09:58Z</time>
            </trkpt>
            <trkpt lat="55.138310" lon="-8.095170">
                <time>2019-06-14T14:09:59Z</time>
            </trkpt>
            <trkpt lat="55.138380" lon="-8.094960">
                <time>2019-06-14T14:10:00Z</time>
            </trkpt>
            <trkpt lat="55.138460" lon="-8.094770">
                <time>2019-06-14T14:10:01Z</time>
            </trkpt>
            <trkpt lat="55.138540" lon="-8.094580">
                <time>2019-06-14T14:10:02Z</time>
            </trkpt>
            <trkpt lat="55.138620" lon="-8.094390">
                <time>2019-06-14T14:10:03Z</time>
            </trkpt>
            <trkpt lat="55.138690" lon="-8.094200">
                <time>2019-06-14T14:10:04Z</time>
            </trkpt>
            <trkpt lat="55.138760" lon="-8.094010">
                <time>2019-06-14T14:10:05Z</time>
            </trkpt>
            <trkpt lat="55.138830" lon="-8.093810">
                <time>2019-06-14T14:10:06Z</time>
            </trkpt>
            <trkpt lat="55.138910" lon="-8.093620">
                <time>2019-06-14T14:10:07Z</time>
            </trkpt>
            <trkpt lat="55.138990" lon="-8.093420">
                <time>2019-06-14T14:10:08Z</time>
            </trkpt>
            <trkpt lat="55.139070" lon="-8.093230">
                <time>2019-06-14T14:10:09Z</time>
            </trkpt>
            <trkpt lat="55.139150" lon="-8.093030">
                <time>2019-06-14T14:10:10Z</time>
            </trkpt>
            <trkpt lat="55.139240" lon="-8.092820">
                <time>2019-06-14T14:10:11Z</time>
            </trkpt>
            <trkpt lat="55.139330" lon="-8.092600">
                <time>2019-06-14T14:10:12Z</time>
            </trkpt>
            <trkpt lat="55.139430" lon="-8.092380">
                <time>2019-06-14T14:10:13Z</time>
            </trkpt>
            <trkpt lat="55.139530" lon="-8.092180">
                <time>2019-06-14T14:10:14Z</time>
            </trkpt>
            <trkpt lat="55.139640" lon="-8.091980">
                <time>2019-06-14T14:10:15Z</time>
            </trkpt>
            <trkpt lat="55.139760" lon="-8.091790">
                <time>2019-06-14T14:10:16Z</time>
            </trkpt>
            <trkpt lat="55.139880" lon="-8.091600">
                <time>2019-06-14T14:10:17Z</time>
            </trkpt>
            <trkpt lat="55.140000" lon="-8.091420">
                <time>2019-06-14T14:10:18Z</time>
            </trkpt>
            <trkpt lat="55.140120" lon="-8.091240">
                <time>2019-06-14T14:10:19Z</time>
            </trkpt>
            <trkpt lat="55.140250" lon="-8.091050">
                <time>2019-06-14T14:10:20Z</time>
            </trkpt>
            <trkpt lat="55.140390" lon="-8.090860">
                <time>2019-06-14T14:10:21Z</time>
            </trkpt>
            <trkpt lat="55.140540" lon="-8.090680">
                <time>2019-06-14T14:10:22Z</time>
            </trkpt>
            <trkpt lat="55.140720" lon="-8.090510">
                <time>2019-06-14T14:10:23Z</time>
            </trkpt>
            <trkpt lat="55.140900" lon="-8.090380">
                <time>2019-06-14T14:10:24Z</time>
            </trkpt>
            <trkpt lat="55.141070" lon="-8.090270">
                <time>2019-06-14T14:10:25Z</time>
            </trkpt>
            <trkpt lat="55.141230" lon="-8.090160">
                <time>2019-06-14T14:10:26Z</time>
            </trkpt>
            <trkpt lat="55.141400" lon="-8.090040">
                <time>2019-06-14T14:10:27Z</time>
            </trkpt>
            <trkpt lat="55.141570" lon="-8.089920">
                <time>2019-06-14T14:10:28Z</time>
            </trkpt>
            <trkpt lat="55.141730" lon="-8.089780">
                <time>2019-06-14T14:10:29Z</time>
            </trkpt>
            <trkpt lat="55.141880" lon="-8.089600">
                <time>2019-06-14T14:10:30Z</time>
            </trkpt>
            <trkpt lat="55.142010" lon="-8.089390">
                <time>2019-06-14T14:10:31Z</time>
            </trkpt>
            <trkpt lat="55.142130" lon="-8.089140">
                <time>2019-06-14T14:10:32Z</time>
            </trkpt>
            <trkpt lat="55.142230" lon="-8.088880">
                <time>2019-06-14T14:10:33Z</time>
            </trkpt>
            <trkpt lat="55.142320" lon="-8.088600">
                <time>2019-06-14T14:10:34Z</time>
            </trkpt>
            <trkpt lat="55.142420" lon="-8.088320">
                <time>2019-06-14T14:10:35Z</time>
            </trkpt>
            <trkpt lat="55.142520" lon="-8.088040">
                <time>2019-06-14T14:10:36Z</time>
            </trkpt>
            <trkpt lat="55.142630" lon="-8.087770">
                <time>2019-06-14T14:10:37Z</time>
            </trkpt>
            <trkpt lat="55.142750" lon="-8.087490">
                <time>2019-06-14T14:10:38Z</time>
            </trkpt>
            <trkpt lat="55.142870" lon="-8.087220">
                <time>2019-06-14T14:10:39Z</time>
            </trkpt>
            <trkpt lat="55.143000" lon="-8.086960">
                <time>2019-06-14T14:10:40Z</time>
            </trkpt>
            <trkpt lat="55.143120" lon="-8.086710">
                <time>2019-06-14T14:10:41Z</time>
            </trkpt>
            <trkpt lat="55.143250" lon="-8.086460">
                <time>2019-06-14T14:10:42Z</time>
            </trkpt>
            <trkpt lat="55.143370" lon="-8.086200">
                <time>2019-06-14T14:10:43Z</time>
            </trkpt>
            <trkpt lat="55.143500" lon="-8.085950">
                <time>2019-06-14T14:10:44Z</time>
            </trkpt>
            <trkpt lat="55.143620" lon="-8.085690">
                <time>2019-06-14T14:10:45Z</time>
            </trkpt>
            <trkpt lat="55.143730" lon="-8.085450">
                <time>2019-06-14T14:10:46Z</time>
            </trkpt>
            <trkpt lat="55.143820" lon="-8.085200">
                <time>2019-06-14T14:10:47Z</time>
            </trkpt>
            <trkpt lat="55.143890" lon="-8.084930">
                <time>2019-06-14T14:10:48Z</time>
            </trkpt>
            <trkpt lat="55.143940" lon="-8.084660">
                <time>2019-06-14T14:10:49Z</time>
            </trkpt>
            <trkpt lat="55.143970" lon="-8.084370">
                <time>2019-06-14T14:10:50Z</time>
            </trkpt>
            <trkpt lat="55.144010" lon="-8.084070">
                <time>2019-06-14T14:10:51Z</time>
            </trkpt>
            <trkpt lat="55.144060" lon="-8.083760">
                <time>2019-06-14T14:10:52Z</time>
            </trkpt>
            <trkpt lat="55.144110" lon="-8.083450">
                <time>2019-06-14T14:10:53Z</time>
            </trkpt>
            <trkpt lat="55.144180" lon="-8.083140">
                <time>2019-06-14T14:10:54Z</time>
            </trkpt>
            <trkpt lat="55.144260" lon="-8.082830">
                <time>2019-06-14T14:10:55Z</time>
            </trkpt>
            <trkpt lat="55.144350" lon="-8.082540">
                <time>2019-06-14T14:10:56Z</time>
            </trkpt>
            <trkpt lat="55.144440" lon="-8.082270">
                <time>2019-06-14T14:10:57Z</time>
            </trkpt>
            <trkpt lat="55.144520" lon="-8.082000">
                <time>2019-06-14T14:10:58Z</time>
            </trkpt>
            <trkpt lat="55.144620" lon="-8.081700">
                <time>2019-06-14T14:10:59Z</time>
            </trkpt>
            <trkpt lat="55.144700" lon="-8.081420">
                <time>2019-06-14T14:11:00Z</time>
            </trkpt>
            <trkpt lat="55.144780" lon="-8.081130">
                <time>2019-06-14T14:11:01Z</time>
            </trkpt>
            <trkpt lat="55.144860" lon="-8.080840">
                <time>2019-06-14T14:11:02Z</time>
            </trkpt>
            <trkpt lat="55.144920" lon="-8.080530">
                <time>2019-06-14T14:11:03Z</time>
            </trkpt>
            <trkpt lat="55.144950" lon="-8.080220">
                <time>2019-06-14T14:11:04Z</time>
            </trkpt>
            <trkpt lat="55.144950" lon="-8.079910">
                <time>2019-06-14T14:11:05Z</time>
            </trkpt>
            <trkpt lat="55.144920" lon="-8.079620">
                <time>2019-06-14T14:11:06Z</time>
            </trkpt>
            <trkpt lat="55.144870" lon="-8.079330">
                <time>2019-06-14T14:11:07Z</time>
            </trkpt>
            <trkpt lat="55.144800" lon="-8.079030">
                <time>2019-06-14T14:11:08Z</time>
            </trkpt>
            <trkpt lat="55.144720" lon="-8.078740">
                <time>2019-06-14T14:11:09Z</time>
            </trkpt>
            <trkpt lat="55.144630" lon="-8.078470">
                <time>2019-06-14T14:11:10Z</time>
            </trkpt>
            <trkpt lat="55.144540" lon="-8.078210">
                <time>2019-06-14T14:11:11Z</time>
            </trkpt>
            <trkpt lat="55.144430" lon="-8.077980">
                <time>2019-06-14T14:11:12Z</time>
            </trkpt>
            <trkpt lat="55.144310" lon="-8.077800">
                <time>2019-06-14T14:11:13Z</time>
            </trkpt>
            <trkpt lat="55.144160" lon="-8.077660">
                <time>2019-06-14T14:11:14Z</time>
            </trkpt>
            <trkpt lat="55.144010" lon="-8.077540">
                <time>2019-06-14T14:11:15Z</time>
            </trkpt>
            <trkpt lat="55.143850" lon="-8.077440">
                <time>2019-06-14T14:11:16Z</time>
            </trkpt>
            <trkpt lat="55.143680" lon="-8.077380">
                <time>2019-06-14T14:11:17Z</time>
            </trkpt>
            <trkpt lat="55.143520" lon="-8.077370">
                <time>2019-06-14T14:11:18Z</time>
            </trkpt>
            <trkpt lat="55.143360" lon="-8.077380">
                <time>2019-06-14T14:11:19Z</time>
            </trkpt>
            <trkpt lat="55.143200" lon="-8.077380">
                <time>2019-06-14T14:11:20Z</time>
            </trkpt>
            <trkpt lat="55.143030" lon="-8.077370">
                <time>2019-06-14T14:11:21Z</time>
            </trkpt>
            <trkpt lat="55.142860" lon="-8.077360">
                <time>2019-06-14T14:11:22Z</time>
            </trkpt>
            <trkpt lat="55.142690" lon="-8.077330">
                <time>2019-06-14T14:11:23Z</time>
            </trkpt>
            <trkpt lat="55.142510" lon="-8.077300">
                <time>2019-06-14T14:11:24Z</time>
            </trkpt>
            <trkpt lat="55.142320" lon="-8.077270">
                <time>2019-06-14T14:11:25Z</time>
            </trkpt>
            <trkpt lat="55.142130" lon="-8.077240">
                <time>2019-06-14T14:11:26Z</time>
            </trkpt>
            <trkpt lat="55.141940" lon="-8.077200">
                <time>2019-06-14T14:11:27Z</time>
            </trkpt>
            <trkpt lat="55.141760" lon="-8.077170">
                <time>2019-06-14T14:11:28Z</time>
            </trkpt>
            <trkpt lat="55.141590" lon="-8.077120">
                <time>2019-06-14T14:11:29Z</time>
            </trkpt>
            <trkpt lat="55.141430" lon="-8.077080">
                <time>2019-06-14T14:11:30Z</time>
            </trkpt>
            <trkpt lat="55.141260" lon="-8.077040">
                <time>2019-06-14T14:11:31Z</time>
            </trkpt>
            <trkpt lat="55.141090" lon="-8.077010">
                <time>2019-06-14T14:11:32Z</time>
            </trkpt>
            <trkpt lat="55.140920" lon="-8.076960">
                <time>2019-06-14T14:11:33Z</time>
            </trkpt>
            <trkpt lat="55.140770" lon="-8.076910">
                <time>2019-06-14T14:11:34Z</time>
            </trkpt>
            <trkpt lat="55.140630" lon="-8.076820">
                <time>2019-06-14T14:11:35Z</time>
            </trkpt>
            <trkpt lat="55.140530" lon="-8.076690">
                <time>2019-06-14T14:11:36Z</time>
            </trkpt>
            <trkpt lat="55.140480" lon="-8.076520">
                <time>2019-06-14T14:11:37Z</time>
            </trkpt>
            <trkpt lat="55.140460" lon="-8.076340">
                <time>2019-06-14T14:11:38Z</time>
            </trkpt>
            <trkpt lat="55.140470" lon="-8.076150">
                <time>2019-06-14T14:11:39Z</time>
            </trkpt>
            <trkpt lat="55.140480" lon="-8.075950">
                <time>2019-06-14T14:11:40Z</time>
            </trkpt>
            <trkpt lat="55.140490" lon="-8.075720">
                <time>2019-06-14T14:11:41Z</time>
            </trkpt>
            <trkpt lat="55.140500" lon="-8.075470">
                <time>2019-06-14T14:11:42Z</time>
            </trkpt>
            <trkpt lat="55.140510" lon="-8.075200">
                <time>2019-06-14T14:11:43Z</time>
            </trkpt>
            <trkpt lat="55.140530" lon="-8.074920">
                <time>2019-06-14T14:11:44Z</time>
            </trkpt>
            <trkpt lat="55.140560" lon="-8.074640">
                <time>2019-06-14T14:11:45Z</time>
            </trkpt>
            <trkpt lat="55.140590" lon="-8.074350">
                <time>2019-06-14T14:11:46Z</time>
            </trkpt>
            <trkpt lat="55.140640" lon="-8.074060">
                <time>2019-06-14T14:11:47Z</time>
            </trkpt>
            <trkpt lat="55.140700" lon="-8.073770">
                <time>2019-06-14T14:11:48Z</time>
            </trkpt>
            <trkpt lat="55.140770" lon="-8.073480">
                <time>2019-06-14T14:11:49Z</time>
            </trkpt>
            <trkpt lat="55.140840" lon="-8.073200">
                <time>2019-06-14T14:11:50Z</time>
            </trkpt>
            <trkpt lat="55.140900" lon="-8.072920">
                <time>2019-06-14T14:11:51Z</time>
            </trkpt>
            <trkpt lat="55.140970" lon="-8.072640">
                <time>2019-06-14T14:11:52Z</time>
            </trkpt>
            <trkpt lat="55.141050" lon="-8.072350">
                <time>2019-06-14T14:11:53Z</time>
            </trkpt>
            <trkpt lat="55.141120" lon="-8.072060">
                <time>2019-06-14T14:11:54Z</time>
            </trkpt>
            <trkpt lat="55.141190" lon="-8.071740">
                <time>2019-06-14T14:11:55Z</time>
            </trkpt>
            <trkpt lat="55.141260" lon="-8.071430">
                <time>2019-06-14T14:11:56Z</time>
            </trkpt>
            <trkpt lat="55.141340" lon="-8.071120">
                <time>2019-06-14T14:11:57Z</time>
            </trkpt>
            <trkpt lat="55.141420" lon="-8.070800">
                <time>2019-06-14T14:11:58Z</time>
            </trkpt>
            <trkpt lat="55.141510" lon="-8.070470">
                <time>2019-06-14T14:11:59Z</time>
            </trkpt>
            <trkpt lat="55.141590" lon="-8.070140">
                <time>2019-06-14T14:12:00Z</time>
            </trkpt>
            <trkpt lat="55.141670" lon="-8.069810">
                <time>2019-06-14T14:12:01Z</time>
            </trkpt>
            <trkpt lat="55.141750" lon="-8.069480">
                <time>2019-06-14T14:12:02Z</time>
            </trkpt>
            <trkpt lat="55.141830" lon="-8.069150">
                <time>2019-06-14T14:12:03Z</time>
            </trkpt>
            <trkpt lat="55.141910" lon="-8.068830">
                <time>2019-06-14T14:12:04Z</time>
            </trkpt>
            <trkpt lat="55.141980" lon="-8.068500">
                <time>2019-06-14T14:12:05Z</time>
            </trkpt>
            <trkpt lat="55.142060" lon="-8.068170">
                <time>2019-06-14T14:12:06Z</time>
            </trkpt>
            <trkpt lat="55.142130" lon="-8.067880">
                <time>2019-06-14T14:12:07Z</time>
            </trkpt>
            <trkpt lat="55.142200" lon="-8.067600">
                <time>2019-06-14T14:12:08Z</time>
            </trkpt>
            <trkpt lat="55.142290" lon="-8.067320">
                <time>2019-06-14T14:12:09Z</time>
            </trkpt>
            <trkpt lat="55.142400" lon="-8.067040">
                <time>2019-06-14T14:12:10Z</time>
            </trkpt>
            <trkpt lat="55.142510" lon="-8.066760">
                <time>2019-06-14T14:12:11Z</time>
            </trkpt>
            <trkpt lat="55.142620" lon="-8.066500">
                <time>2019-06-14T14:12:12Z</time>
            </trkpt>
            <trkpt lat="55.142720" lon="-8.066260">
                <time>2019-06-14T14:12:13Z</time>
            </trkpt>
            <trkpt lat="55.142810" lon="-8.066020">
                <time>2019-06-14T14:12:14Z</time>
            </trkpt>
            <trkpt lat="55.142900" lon="-8.065790">
                <time>2019-06-14T14:12:15Z</time>
            </trkpt>
            <trkpt lat="55.143000" lon="-8.065560">
                <time>2019-06-14T14:12:16Z</time>
            </trkpt>
            <trkpt lat="55.143080" lon="-8.065360">
                <time>2019-06-14T14:12:17Z</time>
            </trkpt>
            <trkpt lat="55.143170" lon="-8.065170">
                <time>2019-06-14T14:12:18Z</time>
            </trkpt>
            <trkpt lat="55.143280" lon="-8.065030">
                <time>2019-06-14T14:12:19Z</time>
            </trkpt>
            <trkpt lat="55.143390" lon="-8.064920">
                <time>2019-06-14T14:12:20Z</time>
            </trkpt>
            <trkpt lat="55.143520" lon="-8.064860">
                <time>2019-06-14T14:12:21Z</time>
            </trkpt>
            <trkpt lat="55.143670" lon="-8.064830">
                <time>2019-06-14T14:12:22Z</time>
            </trkpt>
            <trkpt lat="55.143820" lon="-8.064810">
                <time>2019-06-14T14:12:23Z</time>
            </trkpt>
            <trkpt lat="55.143990" lon="-8.064810">
                <time>2019-06-14T14:12:24Z</time>
            </trkpt>
            <trkpt lat="55.144170" lon="-8.064810">
                <time>2019-06-14T14:12:25Z</time>
            </trkpt>
            <trkpt lat="55.144350" lon="-8.064820">
                <time>2019-06-14T14:12:26Z</time>
            </trkpt>
            <trkpt lat="55.144530" lon="-8.064830">
                <time>2019-06-14T14:12:27Z</time>
            </trkpt>
            <trkpt lat="55.144730" lon="-8.064840">
                <time>2019-06-14T14:12:28Z</time>
            </trkpt>
            <trkpt lat="55.144930" lon="-8.064840">
                <time>2019-06-14T14:12:29Z</time>
            </trkpt>
            <trkpt lat="55.145140" lon="-8.064810">
                <time>2019-06-14T14:12:30Z</time>
            </trkpt>
            <trkpt lat="55.145350" lon="-8.064760">
                <time>2019-06-14T14:12:31Z</time>
            </trkpt>
            <trkpt lat="55.145570" lon="-8.064710">
                <time>2019-06-14T14:12:32Z</time>
            </trkpt>
            <trkpt lat="55.145760" lon="-8.064640">
                <time>2019-06-14T14:12:33Z</time>
            </trkpt>
            <trkpt lat="55.145940" lon="-8.064570">
                <time>2019-06-14T14:12:34Z</time>
            </trkpt>
            <trkpt lat="55.146100" lon="-8.064460">
                <time>2019-06-14T14:12:35Z</time>
            </trkpt>
            <trkpt lat="55.146240" lon="-8.064320">
                <time>2019-06-14T14:12:36Z</time>
            </trkpt>
            <trkpt lat="55.146380" lon="-8.064160">
                <time>2019-06-14T14:12:37Z</time>
            </trkpt>
            <trkpt lat="55.146510" lon="-8.063990">
                <time>2019-06-14T14:12:38Z</time>
            </trkpt>
            <trkpt lat="55.146660" lon="-8.063850">
                <time>2019-06-14T14:12:39Z</time>
            </trkpt>
            <trkpt lat="55.146820" lon="-8.063740">
                <time>2019-06-14T14:12:40Z</time>
            </trkpt>
            <trkpt lat="55.146990" lon="-8.063700">
                <time>2019-06-14T14:12:41Z</time>
            </trkpt>
            <trkpt lat="55.147170" lon="-8.063680">
                <time>2019-06-14T14:12:42Z</time>
            </trkpt>
            <trkpt lat="55.147340" lon="-8.063660">
                <time>2019-06-14T14:12:43Z</time>
            </trkpt>
            <trkpt lat="55.147510" lon="-8.063600">
                <time>2019-06-14T14:12:44Z</time>
            </trkpt>
            <trkpt lat="55.147690" lon="-8.063520">
                <time>2019-06-14T14:12:45Z</time>
            </trkpt>
            <trkpt lat="55.147860" lon="-8.063400">
                <time>2019-06-14T14:12:46Z</time>
            </trkpt>
            <trkpt lat="55.148040" lon="-8.063280">
                <time>2019-06-14T14:12:47Z</time>
            </trkpt>
            <trkpt lat="55.148220" lon="-8.063140">
                <time>2019-06-14T14:12:48Z</time>
            </trkpt>
            <trkpt lat="55.148400" lon="-8.062990">
                <time>2019-06-14T14:12:49Z</time>
            </trkpt>
            <trkpt lat="55.148600" lon="-8.062810">
                <time>2019-06-14T14:12:50Z</time>
            </trkpt>
            <trkpt lat="55.148800" lon="-8.062640">
                <time>2019-06-14T14:12:51Z</time>
            </trkpt>
            <trkpt lat="55.148990" lon="-8.062470">
                <time>2019-06-14T14:12:52Z</time>
            </trkpt>
            <trkpt lat="55.149160" lon="-8.062300">
                <time>2019-06-14T14:12:53Z</time>
            </trkpt>
            <trkpt lat="55.149310" lon="-8.062130">
                <time>2019-06-14T14:12:54Z</time>
            </trkpt>
            <trkpt lat="55.149430" lon="-8.061920">
                <time>2019-06-14T14:12:55Z</time>
            </trkpt>
            <trkpt lat="55.149540" lon="-8.061670">
                <time>2019-06-14T14:12:56Z</time>
            </trkpt>
            <trkpt lat="55.149620" lon="-8.061400">
                <time>2019-06-14T14:12:57Z</time>
            </trkpt>
            <trkpt lat="55.149700" lon="-8.061110">
                <time>2019-06-14T14:12:58Z</time>
            </trkpt>
            <trkpt lat="55.149750" lon="-8.060790">
                <time>2019-06-14T14:12:59Z</time>
            </trkpt>
            <trkpt lat="55.149790" lon="-8.060450">
                <time>2019-06-14T14:13:00Z</time>
            </trkpt>
            <trkpt lat="55.149810" lon="-8.060100">
                <time>2019-06-14T14:13:01Z</time>
            </trkpt>
            <trkpt lat="55.149820" lon="-8.059740">
                <time>2019-06-14T14:13:02Z</time>
            </trkpt>
            <trkpt lat="55.149820" lon="-8.059390">
                <time>2019-06-14T14:13:03Z</time>
            </trkpt>
            <trkpt lat="55.149830" lon="-8.059070">
                <time>2019-06-14T14:13:04Z</time>
            </trkpt>
            <trkpt lat="55.149840" lon="-8.058730">
                <time>2019-06-14T14:13:05Z</time>
            </trkpt>
            <trkpt lat="55.149890" lon="-8.058410">
                <time>2019-06-14T14:13:06Z</time>
            </trkpt>
            <trkpt lat="55.149970" lon="-8.058110">
                <time>2019-06-14T14:13:07Z</time>
            </trkpt>
            <trkpt lat="55.150070" lon="-8.057850">
                <time>2019-06-14T14:13:08Z</time>
            </trkpt>
            <trkpt lat="55.150170" lon="-8.057630">
                <time>2019-06-14T14:13:09Z</time>
            </trkpt>
            <trkpt lat="55.150270" lon="-8.057410">
                <time>2019-06-14T14:13:10Z</time>
            </trkpt>
            <trkpt lat="55.150350" lon="-8.057190">
                <time>2019-06-14T14:13:11Z</time>
            </trkpt>
            <trkpt lat="55.150410" lon="-8.056950">
                <time>2019-06-14T14:13:12Z</time>
            </trkpt>
            <trkpt lat="55.150440" lon="-8.056680">
                <time>2019-06-14T14:13:13Z</time>
            </trkpt>
            <trkpt lat="55.150450" lon="-8.056390">
                <time>2019-06-14T14:13:14Z</time>
            </trkpt>
            <trkpt lat="55.150420" lon="-8.056070">
                <time>2019-06-14T14:13:15Z</time>
            </trkpt>
            <trkpt lat="55.150370" lon="-8.055750">
                <time>2019-06-14T14:13:16Z</time>
            </trkpt>
            <trkpt lat="55.150310" lon="-8.055430">
                <time>2019-06-14T14:13:17Z</time>
            </trkpt>
            <trkpt lat="55.150240" lon="-8.055110">
                <time>2019-06-14T14:13:18Z</time>
            </trkpt>
            <trkpt lat="55.150160" lon="-8.054780">
                <time>2019-06-14T14:13:19Z</time>
            </trkpt>
            <trkpt lat="55.150080" lon="-8.054460">
                <time>2019-06-14T14:13:20Z</time>
            </trkpt>
            <trkpt lat="55.149990" lon="-8.054160">
                <time>2019-06-14T14:13:21Z</time>
            </trkpt>
            <trkpt lat="55.149900" lon="-8.053890">
                <time>2019-06-14T14:13:22Z</time>
            </trkpt>
            <trkpt lat="55.149820" lon="-8.053630">
                <time>2019-06-14T14:13:23Z</time>
            </trkpt>
            <trkpt lat="55.149740" lon="-8.053380">
                <time>2019-06-14T14:13:24Z</time>
            </trkpt>
            <trkpt lat="55.149680" lon="-8.053120">
                <time>2019-06-14T14:13:25Z</time>
            </trkpt>
            <trkpt lat="55.149640" lon="-8.052860">
                <time>2019-06-14T14:13:26Z</time>
            </trkpt>
            <trkpt lat="55.149630" lon="-8.052570">
                <time>2019-06-14T14:13:27Z</time>
            </trkpt>
            <trkpt lat="55.149640" lon="-8.052270">
                <time>2019-06-14T14:13:28Z</time>
            </trkpt>
            <trkpt lat="55.149670" lon="-8.051950">
                <time>2019-06-14T14:13:29Z</time>
            </trkpt>
            <trkpt lat="55.149700" lon="-8.051620">
                <time>2019-06-14T14:13:30Z</time>
            </trkpt>
            <trkpt lat="55.149740" lon="-8.051250">
                <time>2019-06-14T14:13:31Z</time>
            </trkpt>
            <trkpt lat="55.149780" lon="-8.050850">
                <time>2019-06-14T14:13:32Z</time>
            </trkpt>
            <trkpt lat="55.149820" lon="-8.050410">
                <time>2019-06-14T14:13:33Z</time>
            </trkpt>
            <trkpt lat="55.149870" lon="-8.049950">
                <time>2019-06-14T14:13:34Z</time>
            </trkpt>
            <trkpt lat="55.149920" lon="-8.049490">
                <time>2019-06-14T14:13:35Z</time>
            </trkpt>
            <trkpt lat="55.149970" lon="-8.049030">
                <time>2019-06-14T14:13:36Z</time>
            </trkpt>
            <trkpt lat="55.150020" lon="-8.048550">
                <time>2019-06-14T14:13:37Z</time>
            </trkpt>
            <trkpt lat="55.150070" lon="-8.048060">
                <time>2019-06-14T14:13:38Z</time>
            </trkpt>
            <trkpt lat="55.150100" lon="-8.047560">
                <time>2019-06-14T14:13:39Z</time>
            </trkpt>
            <trkpt lat="55.150130" lon="-8.047080">
                <time>2019-06-14T14:13:40Z</time>
            </trkpt>
            <trkpt lat="55.150150" lon="-8.046640">
                <time>2019-06-14T14:13:41Z</time>
            </trkpt>
            <trkpt lat="55.150180" lon="-8.046200">
                <time>2019-06-14T14:13:42Z</time>
            </trkpt>
            <trkpt lat="55.150230" lon="-8.045780">
                <time>2019-06-14T14:13:43Z</time>
            </trkpt>
            <trkpt lat="55.150300" lon="-8.045350">
                <time>2019-06-14T14:13:44Z</time>
            </trkpt>
            <trkpt lat="55.150380" lon="-8.044930">
                <time>2019-06-14T14:13:45Z</time>
            </trkpt>
            <trkpt lat="55.150480" lon="-8.044550">
                <time>2019-06-14T14:13:46Z</time>
            </trkpt>
            <trkpt lat="55.150590" lon="-8.044220">
                <time>2019-06-14T14:13:47Z</time>
            </trkpt>
            <trkpt lat="55.150720" lon="-8.043950">
                <time>2019-06-14T14:13:48Z</time>
            </trkpt>
            <trkpt lat="55.150860" lon="-8.043720">
                <time>2019-06-14T14:13:49Z</time>
            </trkpt>
            <trkpt lat="55.151020" lon="-8.043540">
                <time>2019-06-14T14:13:50Z</time>
            </trkpt>
            <trkpt lat="55.151190" lon="-8.043370">
                <time>2019-06-14T14:13:51Z</time>
            </trkpt>
            <trkpt lat="55.151370" lon="-8.043230">
                <time>2019-06-14T14:13:52Z</time>
            </trkpt>
            <trkpt lat="55.151560" lon="-8.043110">
                <time>2019-06-14T14:13:53Z</time>
            </trkpt>
            <trkpt lat="55.151740" lon="-8.043000">
                <time>2019-06-14T14:13:54Z</time>
            </trkpt>
            <trkpt lat="55.151920" lon="-8.042890">
                <time>2019-06-14T14:13:55Z</time>
            </trkpt>
            <trkpt lat="55.152090" lon="-8.042780">
                <time>2019-06-14T14:13:56Z</time>
            </trkpt>
            <trkpt lat="55.152240" lon="-8.042640">
                <time>2019-06-14T14:13:57Z</time>
            </trkpt>
            <trkpt lat="55.152380" lon="-8.042470">
                <time>2019-06-14T14:13:58Z</time>
            </trkpt>
            <trkpt lat="55.152490" lon="-8.042250">
                <time>2019-06-14T14:13:59Z</time>
            </trkpt>
            <trkpt lat="55.152590" lon="-8.042020">
                <time>2019-06-14T14:14:00Z</time>
            </trkpt>
            <trkpt lat="55.152680" lon="-8.041770">
                <time>2019-06-14T14:14:01Z</time>
            </trkpt>
            <trkpt lat="55.152780" lon="-8.041530">
                <time>2019-06-14T14:14:02Z</time>
            </trkpt>
            <trkpt lat="55.152880" lon="-8.041290">
                <time>2019-06-14T14:14:03Z</time>
            </trkpt>
            <trkpt lat="55.152980" lon="-8.041040">
                <time>2019-06-14T14:14:04Z</time>
            </trkpt>
            <trkpt lat="55.153070" lon="-8.040790">
                <time>2019-06-14T14:14:05Z</time>
            </trkpt>
            <trkpt lat="55.153170" lon="-8.040550">
                <time>2019-06-14T14:14:06Z</time>
            </trkpt>
            <trkpt lat="55.153270" lon="-8.040290">
                <time>2019-06-14T14:14:07Z</time>
            </trkpt>
            <trkpt lat="55.153370" lon="-8.040030">
                <time>2019-06-14T14:14:08Z</time>
            </trkpt>
            <trkpt lat="55.153480" lon="-8.039760">
                <time>2019-06-14T14:14:09Z</time>
            </trkpt>
            <trkpt lat="55.153590" lon="-8.039470">
                <time>2019-06-14T14:14:10Z</time>
            </trkpt>
            <trkpt lat="55.153710" lon="-8.039190">
                <time>2019-06-14T14:14:11Z</time>
            </trkpt>
            <trkpt lat="55.153820" lon="-8.038900">
                <time>2019-06-14T14:14:12Z</time>
            </trkpt>
            <trkpt lat="55.153940" lon="-8.038620">
                <time>2019-06-14T14:14:13Z</time>
            </trkpt>
            <trkpt lat="55.154050" lon="-8.038330">
                <time>2019-06-14T14:14:14Z</time>
            </trkpt>
            <trkpt lat="55.154160" lon="-8.038050">
                <time>2019-06-14T14:14:15Z</time>
            </trkpt>
            <trkpt lat="55.154270" lon="-8.037770">
                <time>2019-06-14T14:14:16Z</time>
            </trkpt>
            <trkpt lat="55.154380" lon="-8.037510">
                <time>2019-06-14T14:14:17Z</time>
            </trkpt>
            <trkpt lat="55.154500" lon="-8.037260">
                <time>2019-06-14T14:14:18Z</time>
            </trkpt>
            <trkpt lat="55.154630" lon="-8.037010">
                <time>2019-06-14T14:14:19Z</time>
            </trkpt>
            <trkpt lat="55.154760" lon="-8.036780">
                <time>2019-06-14T14:14:20Z</time>
            </trkpt>
            <trkpt lat="55.154890" lon="-8.036550">
                <time>2019-06-14T14:14:21Z</time>
            </trkpt>
            <trkpt lat="55.155020" lon="-8.036320">
                <time>2019-06-14T14:14:22Z</time>
            </trkpt>
            <trkpt lat="55.155150" lon="-8.036090">
                <time>2019-06-14T14:14:23Z</time>
            </trkpt>
            <trkpt lat="55.155290" lon="-8.035870">
                <time>2019-06-14T14:14:24Z</time>
            </trkpt>
            <trkpt lat="55.155430" lon="-8.035640">
                <time>2019-06-14T14:14:25Z</time>
            </trkpt>
            <trkpt lat="55.155570" lon="-8.035400">
                <time>2019-06-14T14:14:26Z</time>
            </trkpt>
            <trkpt lat="55.155710" lon="-8.035150">
                <time>2019-06-14T14:14:27Z</time>
            </trkpt>
            <trkpt lat="55.155860" lon="-8.034890">
                <time>2019-06-14T14:14:28Z</time>
            </trkpt>
            <trkpt lat="55.156010" lon="-8.034630">
                <time>2019-06-14T14:14:29Z</time>
            </trkpt>
            <trkpt lat="55.156150" lon="-8.034390">
                <time>2019-06-14T14:14:30Z</time>
            </trkpt>
            <trkpt lat="55.156290" lon="-8.034160">
                <time>2019-06-14T14:14:31Z</time>
            </trkpt>
            <trkpt lat="55.156430" lon="-8.033920">
                <time>2019-06-14T14:14:32Z</time>
            </trkpt>
            <trkpt lat="55.156580" lon="-8.033690">
                <time>2019-06-14T14:14:33Z</time>
            </trkpt>
            <trkpt lat="55.156710" lon="-8.033460">
                <time>2019-06-14T14:14:34Z</time>
            </trkpt>
            <trkpt lat="55.156840" lon="-8.033230">
                <time>2019-06-14T14:14:35Z</time>
            </trkpt>
            <trkpt lat="55.156970" lon="-8.033010">
                <time>2019-06-14T14:14:36Z</time>
            </trkpt>
            <trkpt lat="55.157100" lon="-8.032790">
                <time>2019-06-14T14:14:37Z</time>
            </trkpt>
            <trkpt lat="55.157240" lon="-8.032560">
                <time>2019-06-14T14:14:38Z</time>
            </trkpt>
            <trkpt lat="55.157380" lon="-8.032320">
                <time>2019-06-14T14:14:39Z</time>
            </trkpt>
            <trkpt lat="55.157520" lon="-8.032070">
                <time>2019-06-14T14:14:40Z</time>
            </trkpt>
            <trkpt lat="55.157660" lon="-8.031830">
                <time>2019-06-14T14:14:41Z</time>
            </trkpt>
            <trkpt lat="55.157800" lon="-8.031590">
                <time>2019-06-14T14:14:42Z</time>
            </trkpt>
            <trkpt lat="55.157940" lon="-8.031340">
                <time>2019-06-14T14:14:43Z</time>
            </trkpt>
            <trkpt lat="55.158090" lon="-8.031100">
                <time>2019-06-14T14:14:44Z</time>
            </trkpt>
            <trkpt lat="55.158240" lon="-8.030840">
                <time>2019-06-14T14:14:45Z</time>
            </trkpt>
            <trkpt lat="55.158390" lon="-8.030590">
                <time>2019-06-14T14:14:46Z</time>
            </trkpt>
            <trkpt lat="55.158530" lon="-8.030330">
                <time>2019-06-14T14:14:47Z</time>
            </trkpt>
            <trkpt lat="55.158680" lon="-8.030060">
                <time>2019-06-14T14:14:48Z</time>
            </trkpt>
            <trkpt lat="55.158830" lon="-8.029800">
                <time>2019-06-14T14:14:49Z</time>
            </trkpt>
            <trkpt lat="55.158980" lon="-8.029540">
                <time>2019-06-14T14:14:50Z</time>
            </trkpt>
            <trkpt lat="55.159140" lon="-8.029280">
                <time>2019-06-14T14:14:51Z</time>
            </trkpt>
            <trkpt lat="55.159290" lon="-8.029020">
                <time>2019-06-14T14:14:52Z</time>
            </trkpt>
            <trkpt lat="55.159440" lon="-8.028770">
                <time>2019-06-14T14:14:53Z</time>
            </trkpt>
            <trkpt lat="55.159590" lon="-8.028520">
                <time>2019-06-14T14:14:54Z</time>
            </trkpt>
            <trkpt lat="55.159740" lon="-8.028260">
                <time>2019-06-14T14:14:55Z</time>
            </trkpt>
            <trkpt lat="55.159900" lon="-8.028000">
                <time>2019-06-14T14:14:56Z</time>
            </trkpt>
            <trkpt lat="55.160050" lon="-8.027740">
                <time>2019-06-14T14:14:57Z</time>
            </trkpt>
            <trkpt lat="55.160200" lon="-8.027470">
                <time>2019-06-14T14:14:58Z</time>
            </trkpt>
            <trkpt lat="55.160350" lon="-8.027210">
                <time>2019-06-14T14:14:59Z</time>
            </trkpt>
            <trkpt lat="55.160510" lon="-8.026940">
                <time>2019-06-14T14:15:00Z</time>
            </trkpt>
            <trkpt lat="55.160670" lon="-8.026670">
                <time>2019-06-14T14:15:01Z</time>
            </trkpt>
            <trkpt lat="55.160830" lon="-8.026410">
                <time>2019-06-14T14:15:02Z</time>
            </trkpt>
            <trkpt lat="55.160980" lon="-8.026150">
                <time>2019-06-14T14:15:03Z</time>
            </trkpt>
            <trkpt lat="55.161120" lon="-8.025910">
                <time>2019-06-14T14:15:04Z</time>
            </trkpt>
            <trkpt lat="55.161250" lon="-8.025680">
                <time>2019-06-14T14:15:05Z</time>
            </trkpt>
            <trkpt lat="55.161380" lon="-8.025450">
                <time>2019-06-14T14:15:06Z</time>
            </trkpt>
            <trkpt lat="55.161490" lon="-8.025220">
                <time>2019-06-14T14:15:07Z</time>
            </trkpt>
            <trkpt lat="55.161570" lon="-8.024980">
                <time>2019-06-14T14:15:08Z</time>
            </trkpt>
            <trkpt lat="55.161620" lon="-8.024730">
                <time>2019-06-14T14:15:09Z</time>
            </trkpt>
            <trkpt lat="55.161640" lon="-8.024460">
                <time>2019-06-14T14:15:10Z</time>
            </trkpt>
            <trkpt lat="55.161660" lon="-8.024200">
                <time>2019-06-14T14:15:11Z</time>
            </trkpt>
            <trkpt lat="55.161680" lon="-8.023930">
                <time>2019-06-14T14:15:12Z</time>
            </trkpt>
            <trkpt lat="55.161700" lon="-8.023660">
                <time>2019-06-14T14:15:13Z</time>
            </trkpt>
            <trkpt lat="55.161730" lon="-8.023360">
                <time>2019-06-14T14:15:14Z</time>
            </trkpt>
            <trkpt lat="55.161750" lon="-8.023060">
                <time>2019-06-14T14:15:15Z</time>
            </trkpt>
            <trkpt lat="55.161780" lon="-8.022730">
                <time>2019-06-14T14:15:16Z</time>
            </trkpt>
            <trkpt lat="55.161810" lon="-8.022410">
                <time>2019-06-14T14:15:17Z</time>
            </trkpt>
            <trkpt lat="55.161840" lon="-8.022080">
                <time>2019-06-14T14:15:18Z</time>
            </trkpt>
            <trkpt lat="55.161870" lon="-8.021770">
                <time>2019-06-14T14:15:19Z</time>
            </trkpt>
            <trkpt lat="55.161910" lon="-8.021480">
                <time>2019-06-14T14:15:20Z</time>
            </trkpt>
            <trkpt lat="55.161950" lon="-8.021190">
                <time>2019-06-14T14:15:21Z</time>
            </trkpt>
            <trkpt lat="55.162020" lon="-8.020910">
                <time>2019-06-14T14:15:22Z</time>
            </trkpt>
            <trkpt lat="55.162120" lon="-8.020670">
                <time>2019-06-14T14:15:23Z</time>
            </trkpt>
            <trkpt lat="55.162240" lon="-8.020460">
                <time>2019-06-14T14:15:24Z</time>
            </trkpt>
            <trkpt lat="55.162380" lon="-8.020270">
                <time>2019-06-14T14:15:25Z</time>
            </trkpt>
            <trkpt lat="55.162520" lon="-8.020110">
                <time>2019-06-14T14:15:26Z</time>
            </trkpt>
            <trkpt lat="55.162660" lon="-8.019940">
                <time>2019-06-14T14:15:27Z</time>
            </trkpt>
            <trkpt lat="55.162800" lon="-8.019770">
                <time>2019-06-14T14:15:28Z</time>
            </trkpt>
            <trkpt lat="55.162940" lon="-8.019600">
                <time>2019-06-14T14:15:29Z</time>
            </trkpt>
            <trkpt lat="55.163080" lon="-8.019440">
                <time>2019-06-14T14:15:30Z</time>
            </trkpt>
            <trkpt lat="55.163220" lon="-8.019280">
                <time>2019-06-14T14:15:31Z</time>
            </trkpt>
            <trkpt lat="55.163340" lon="-8.019130">
                <time>2019-06-14T14:15:32Z</time>
            </trkpt>
            <trkpt lat="55.163470" lon="-8.018970">
                <time>2019-06-14T14:15:33Z</time>
            </trkpt>
            <trkpt lat="55.163580" lon="-8.018810">
                <time>2019-06-14T14:15:34Z</time>
            </trkpt>
            <trkpt lat="55.163690" lon="-8.018640">
                <time>2019-06-14T14:15:35Z</time>
            </trkpt>
            <trkpt lat="55.163780" lon="-8.018450">
                <time>2019-06-14T14:15:36Z</time>
            </trkpt>
            <trkpt lat="55.163860" lon="-8.018220">
                <time>2019-06-14T14:15:37Z</time>
            </trkpt>
            <trkpt lat="55.163910" lon="-8.017970">
                <time>2019-06-14T14:15:38Z</time>
            </trkpt>
            <trkpt lat="55.163940" lon="-8.017700">
                <time>2019-06-14T14:15:39Z</time>
            </trkpt>
            <trkpt lat="55.163960" lon="-8.017400">
                <time>2019-06-14T14:15:40Z</time>
            </trkpt>
            <trkpt lat="55.163960" lon="-8.017080">
                <time>2019-06-14T14:15:41Z</time>
            </trkpt>
            <trkpt lat="55.163970" lon="-8.016750">
                <time>2019-06-14T14:15:42Z</time>
            </trkpt>
            <trkpt lat="55.163960" lon="-8.016400">
                <time>2019-06-14T14:15:43Z</time>
            </trkpt>
            <trkpt lat="55.163960" lon="-8.016040">
                <time>2019-06-14T14:15:44Z</time>
            </trkpt>
            <trkpt lat="55.163960" lon="-8.015670">
                <time>2019-06-14T14:15:45Z</time>
            </trkpt>
            <trkpt lat="55.163980" lon="-8.015300">
                <time>2019-06-14T14:15:46Z</time>
            </trkpt>
            <trkpt lat="55.164010" lon="-8.014910">
                <time>2019-06-14T14:15:47Z</time>
            </trkpt>
            <trkpt lat="55.164040" lon="-8.014520">
                <time>2019-06-14T14:15:48Z</time>
            </trkpt>
            <trkpt lat="55.164080" lon="-8.014120">
                <time>2019-06-14T14:15:49Z</time>
            </trkpt>
            <trkpt lat="55.164110" lon="-8.013730">
                <time>2019-06-14T14:15:50Z</time>
            </trkpt>
            <trkpt lat="55.164140" lon="-8.013350">
                <time>2019-06-14T14:15:51Z</time>
            </trkpt>
            <trkpt lat="55.164190" lon="-8.013010">
                <time>2019-06-14T14:15:52Z</time>
            </trkpt>
            <trkpt lat="55.164280" lon="-8.012720">
                <time>2019-06-14T14:15:53Z</time>
            </trkpt>
            <trkpt lat="55.164400" lon="-8.012480">
                <time>2019-06-14T14:15:54Z</time>
            </trkpt>
            <trkpt lat="55.164560" lon="-8.012260">
                <time>2019-06-14T14:15:55Z</time>
            </trkpt>
            <trkpt lat="55.164760" lon="-8.012060">
                <time>2019-06-14T14:15:56Z</time>
            </trkpt>
            <trkpt lat="55.164960" lon="-8.011850">
                <time>2019-06-14T14:15:57Z</time>
            </trkpt>
            <trkpt lat="55.165180" lon="-8.011630">
                <time>2019-06-14T14:15:58Z</time>
            </trkpt>
            <trkpt lat="55.165410" lon="-8.011420">
                <time>2019-06-14T14:15:59Z</time>
            </trkpt>
            <trkpt lat="55.165640" lon="-8.011210">
                <time>2019-06-14T14:16:00Z</time>
            </trkpt>
            <trkpt lat="55.165880" lon="-8.011040">
                <time>2019-06-14T14:16:01Z</time>
            </trkpt>
            <trkpt lat="55.166110" lon="-8.010920">
                <time>2019-06-14T14:16:02Z</time>
            </trkpt>
            <trkpt lat="55.166350" lon="-8.010810">
                <time>2019-06-14T14:16:03Z</time>
            </trkpt>
            <trkpt lat="55.166570" lon="-8.010670">
                <time>2019-06-14T14:16:04Z</time>
            </trkpt>
            <trkpt lat="55.166780" lon="-8.010500">
                <time>2019-06-14T14:16:05Z</time>
            </trkpt>
            <trkpt lat="55.166970" lon="-8.010280">
                <time>2019-06-14T14:16:06Z</time>
            </trkpt>
            <trkpt lat="55.167140" lon="-8.010020">
                <time>2019-06-14T14:16:07Z</time>
            </trkpt>
            <trkpt lat="55.167300" lon="-8.009730">
                <time>2019-06-14T14:16:08Z</time>
            </trkpt>
            <trkpt lat="55.167460" lon="-8.009460">
                <time>2019-06-14T14:16:09Z</time>
            </trkpt>
            <trkpt lat="55.167600" lon="-8.009200">
                <time>2019-06-14T14:16:10Z</time>
            </trkpt>
            <trkpt lat="55.167730" lon="-8.008970">
                <time>2019-06-14T14:16:11Z</time>
            </trkpt>
            <trkpt lat="55.167840" lon="-8.008740">
                <time>2019-06-14T14:16:12Z</time>
            </trkpt>
            <trkpt lat="55.167920" lon="-8.008500">
                <time>2019-06-14T14:16:13Z</time>
            </trkpt>
            <trkpt lat="55.167990" lon="-8.008250">
                <time>2019-06-14T14:16:14Z</time>
            </trkpt>
            <trkpt lat="55.168030" lon="-8.007990">
                <time>2019-06-14T14:16:15Z</time>
            </trkpt>
            <trkpt lat="55.168060" lon="-8.007740">
                <time>2019-06-14T14:16:16Z</time>
            </trkpt>
            <trkpt lat="55.168070" lon="-8.007500">
                <time>2019-06-14T14:16:17Z</time>
            </trkpt>
            <trkpt lat="55.168080" lon="-8.007250">
                <time>2019-06-14T14:16:18Z</time>
            </trkpt>
            <trkpt lat="55.168090" lon="-8.007000">
                <time>2019-06-14T14:16:19Z</time>
            </trkpt>
            <trkpt lat="55.168090" lon="-8.006730">
                <time>2019-06-14T14:16:20Z</time>
            </trkpt>
            <trkpt lat="55.168090" lon="-8.006440">
                <time>2019-06-14T14:16:21Z</time>
            </trkpt>
            <trkpt lat="55.168090" lon="-8.006140">
                <time>2019-06-14T14:16:22Z</time>
            </trkpt>
            <trkpt lat="55.168090" lon="-8.005840">
                <time>2019-06-14T14:16:23Z</time>
            </trkpt>
            <trkpt lat="55.168090" lon="-8.005540">
                <time>2019-06-14T14:16:24Z</time>
            </trkpt>
            <trkpt lat="55.168090" lon="-8.005270">
                <time>2019-06-14T14:16:25Z</time>
            </trkpt>
            <trkpt lat="55.168060" lon="-8.005000">
                <time>2019-06-14T14:16:26Z</time>
            </trkpt>
            <trkpt lat="55.168020" lon="-8.004770">
                <time>2019-06-14T14:16:27Z</time>
            </trkpt>
            <trkpt lat="55.167950" lon="-8.004570">
                <time>2019-06-14T14:16:28Z</time>
            </trkpt>
            <trkpt lat="55.167860" lon="-8.004400">
                <time>2019-06-14T14:16:29Z</time>
            </trkpt>
            <trkpt lat="55.167750" lon="-8.004230">
                <time>2019-06-14T14:16:30Z</time>
            </trkpt>
            <trkpt lat="55.167630" lon="-8.004090">
                <time>2019-06-14T14:16:31Z</time>
            </trkpt>
            <trkpt lat="55.167490" lon="-8.003980">
                <time>2019-06-14T14:16:32Z</time>
            </trkpt>
            <trkpt lat="55.167360" lon="-8.003860">
                <time>2019-06-14T14:16:33Z</time>
            </trkpt>
            <trkpt lat="55.167240" lon="-8.003730">
                <time>2019-06-14T14:16:34Z</time>
            </trkpt>
            <trkpt lat="55.167120" lon="-8.003580">
                <time>2019-06-14T14:16:35Z</time>
            </trkpt>
            <trkpt lat="55.167020" lon="-8.003410">
                <time>2019-06-14T14:16:36Z</time>
            </trkpt>
            <trkpt lat="55.166930" lon="-8.003230">
                <time>2019-06-14T14:16:37Z</time>
            </trkpt>
            <trkpt lat="55.166860" lon="-8.003030">
                <time>2019-06-14T14:16:38Z</time>
            </trkpt>
            <trkpt lat="55.166820" lon="-8.002820">
                <time>2019-06-14T14:16:39Z</time>
            </trkpt>
            <trkpt lat="55.166810" lon="-8.002580">
                <time>2019-06-14T14:16:40Z</time>
            </trkpt>
            <trkpt lat="55.166810" lon="-8.002340">
                <time>2019-06-14T14:16:41Z</time>
            </trkpt>
            <trkpt lat="55.166840" lon="-8.002100">
                <time>2019-06-14T14:16:42Z</time>
            </trkpt>
            <trkpt lat="55.166890" lon="-8.001870">
                <time>2019-06-14T14:16:43Z</time>
            </trkpt>
            <trkpt lat="55.166950" lon="-8.001660">
                <time>2019-06-14T14:16:44Z</time>
            </trkpt>
            <trkpt lat="55.167030" lon="-8.001450">
                <time>2019-06-14T14:16:45Z</time>
            </trkpt>
            <trkpt lat="55.167120" lon="-8.001240">
                <time>2019-06-14T14:16:46Z</time>
            </trkpt>
            <trkpt lat="55.167220" lon="-8.001020">
                <time>2019-06-14T14:16:47Z</time>
            </trkpt>
            <trkpt lat="55.167320" lon="-8.000780">
                <time>2019-06-14T14:16:48Z</time>
            </trkpt>
            <trkpt lat="55.167430" lon="-8.000530">
                <time>2019-06-14T14:16:49Z</time>
            </trkpt>
            <trkpt lat="55.167550" lon="-8.000280">
                <time>2019-06-14T14:16:50Z</time>
            </trkpt>
            <trkpt lat="55.167650" lon="-8.000000">
                <time>2019-06-14T14:16:51Z</time>
            </trkpt>
            <trkpt lat="55.167750" lon="-7.999710">
                <time>2019-06-14T14:16:52Z</time>
            </trkpt>
            <trkpt lat="55.167830" lon="-7.999400">
                <time>2019-06-14T14:16:53Z</time>
            </trkpt>
            <trkpt lat="55.167890" lon="-7.999080">
                <time>2019-06-14T14:16:54Z</time>
            </trkpt>
            <trkpt lat="55.167940" lon="-7.998750">
                <time>2019-06-14T14:16:55Z</time>
            </trkpt>
            <trkpt lat="55.167980" lon="-7.998410">
                <time>2019-06-14T14:16:56Z</time>
            </trkpt>
            <trkpt lat="55.168030" lon="-7.998060">
                <time>2019-06-14T14:16:57Z</time>
            </trkpt>
            <trkpt lat="55.168070" lon="-7.997680">
                <time>2019-06-14T14:16:58Z</time>
            </trkpt>
            <trkpt lat="55.168120" lon="-7.997270">
                <time>2019-06-14T14:16:59Z</time>
            </trkpt>
            <trkpt lat="55.168170" lon="-7.996850">
                <time>2019-06-14T14:17:00Z</time>
            </trkpt>
            <trkpt lat="55.168220" lon="-7.996450">
                <time>2019-06-14T14:17:01Z</time>
            </trkpt>
            <trkpt lat="55.168260" lon="-7.996060">
                <time>2019-06-14T14:17:02Z</time>
            </trkpt>
            <trkpt lat="55.168310" lon="-7.995660">
                <time>2019-06-14T14:17:03Z</time>
            </trkpt>
            <trkpt lat="55.168360" lon="-7.995260">
                <time>2019-06-14T14:17:04Z</time>
            </trkpt>
            <trkpt lat="55.168410" lon="-7.994860">
                <time>2019-06-14T14:17:05Z</time>
            </trkpt>
            <trkpt lat="55.168460" lon="-7.994460">
                <time>2019-06-14T14:17:06Z</time>
            </trkpt>
            <trkpt lat="55.168520" lon="-7.994060">
                <time>2019-06-14T14:17:07Z</time>
            </trkpt>
            <trkpt lat="55.168580" lon="-7.993660">
                <time>2019-06-14T14:17:08Z</time>
            </trkpt>
            <trkpt lat="55.168650" lon="-7.993260">
                <time>2019-06-14T14:17:09Z</time>
            </trkpt>
            <trkpt lat="55.168710" lon="-7.992870">
                <time>2019-06-14T14:17:10Z</time>
            </trkpt>
            <trkpt lat="55.168760" lon="-7.992500">
                <time>2019-06-14T14:17:11Z</time>
            </trkpt>
            <trkpt lat="55.168810" lon="-7.992140">
                <time>2019-06-14T14:17:12Z</time>
            </trkpt>
            <trkpt lat="55.168860" lon="-7.991800">
                <time>2019-06-14T14:17:13Z</time>
            </trkpt>
            <trkpt lat="55.168900" lon="-7.991480">
                <time>2019-06-14T14:17:14Z</time>
            </trkpt>
            <trkpt lat="55.168940" lon="-7.991170">
                <time>2019-06-14T14:17:15Z</time>
            </trkpt>
            <trkpt lat="55.168970" lon="-7.990860">
                <time>2019-06-14T14:17:16Z</time>
            </trkpt>
            <trkpt lat="55.169000" lon="-7.990560">
                <time>2019-06-14T14:17:17Z</time>
            </trkpt>
            <trkpt lat="55.169030" lon="-7.990270">
                <time>2019-06-14T14:17:18Z</time>
            </trkpt>
            <trkpt lat="55.169060" lon="-7.989960">
                <time>2019-06-14T14:17:19Z</time>
            </trkpt>
            <trkpt lat="55.169070" lon="-7.989640">
                <time>2019-06-14T14:17:20Z</time>
            </trkpt>
            <trkpt lat="55.169070" lon="-7.989310">
                <time>2019-06-14T14:17:21Z</time>
            </trkpt>
            <trkpt lat="55.169060" lon="-7.988990">
                <time>2019-06-14T14:17:22Z</time>
            </trkpt>
            <trkpt lat="55.169050" lon="-7.988670">
                <time>2019-06-14T14:17:23Z</time>
            </trkpt>
            <trkpt lat="55.169040" lon="-7.988350">
                <time>2019-06-14T14:17:24Z</time>
            </trkpt>
            <trkpt lat="55.169030" lon="-7.988030">
                <time>2019-06-14T14:17:25Z</time>
            </trkpt>
            <trkpt lat="55.169010" lon="-7.987700">
                <time>2019-06-14T14:17:26Z</time>
            </trkpt>
            <trkpt lat="55.169000" lon="-7.987370">
                <time>2019-06-14T14:17:27Z</time>
            </trkpt>
            <trkpt lat="55.168990" lon="-7.987030">
                <time>2019-06-14T14:17:28Z</time>
            </trkpt>
            <trkpt lat="55.168980" lon="-7.986700">
                <time>2019-06-14T14:17:29Z</time>
            </trkpt>
            <trkpt lat="55.168970" lon="-7.986350">
                <time>2019-06-14T14:17:30Z</time>
            </trkpt>
            <trkpt lat="55.168950" lon="-7.986000">
                <time>2019-06-14T14:17:31Z</time>
            </trkpt>
            <trkpt lat="55.168930" lon="-7.985650">
                <time>2019-06-14T14:17:32Z</time>
            </trkpt>
            <trkpt lat="55.168910" lon="-7.985320">
                <time>2019-06-14T14:17:33Z</time>
            </trkpt>
            <trkpt lat="55.168900" lon="-7.984990">
                <time>2019-06-14T14:17:34Z</time>
            </trkpt>
            <trkpt lat="55.168880" lon="-7.984660">
                <time>2019-06-14T14:17:35Z</time>
            </trkpt>
            <trkpt lat="55.168860" lon="-7.984330">
                <time>2019-06-14T14:17:36Z</time>
            </trkpt>
            <trkpt lat="55.168850" lon="-7.983980">
                <time>2019-06-14T14:17:37Z</time>
            </trkpt>
            <trkpt lat="55.168830" lon="-7.983630">
                <time>2019-06-14T14:17:38Z</time>
            </trkpt>
            <trkpt lat="55.168820" lon="-7.983310">
                <time>2019-06-14T14:17:39Z</time>
            </trkpt>
            <trkpt lat="55.168840" lon="-7.983040">
                <time>2019-06-14T14:17:40Z</time>
            </trkpt>
            <trkpt lat="55.168890" lon="-7.982820">
                <time>2019-06-14T14:17:41Z</time>
            </trkpt>
            <trkpt lat="55.168970" lon="-7.982630">
                <time>2019-06-14T14:17:42Z</time>
            </trkpt>
            <trkpt lat="55.169060" lon="-7.982470">
                <time>2019-06-14T14:17:43Z</time>
            </trkpt>
            <trkpt lat="55.169170" lon="-7.982330">
                <time>2019-06-14T14:17:44Z</time>
            </trkpt>
            <trkpt lat="55.169280" lon="-7.982230">
                <time>2019-06-14T14:17:45Z</time>
            </trkpt>
            <trkpt lat="55.169420" lon="-7.982140">
                <time>2019-06-14T14:17:46Z</time>
            </trkpt>
            <trkpt lat="55.169570" lon="-7.982070">
                <time>2019-06-14T14:17:47Z</time>
            </trkpt>
            <trkpt lat="55.169740" lon="-7.982010">
                <time>2019-06-14T14:17:48Z</time>
            </trkpt>
            <trkpt lat="55.169900" lon="-7.981960">
                <time>2019-06-14T14:17:49Z</time>
            </trkpt>
            <trkpt lat="55.170060" lon="-7.981900">
                <time>2019-06-14T14:17:50Z</time>
            </trkpt>
            <trkpt lat="55.170220" lon="-7.981830">
                <time>2019-06-14T14:17:51Z</time>
            </trkpt>
            <trkpt lat="55.170390" lon="-7.981770">
                <time>2019-06-14T14:17:52Z</time>
            </trkpt>
            <trkpt lat="55.170560" lon="-7.981700">
                <time>2019-06-14T14:17:53Z</time>
            </trkpt>
            <trkpt lat="55.170740" lon="-7.981630">
                <time>2019-06-14T14:17:54Z</time>
            </trkpt>
            <trkpt lat="55.170910" lon="-7.981570">
                <time>2019-06-14T14:17:55Z</time>
            </trkpt>
            <trkpt lat="55.171080" lon="-7.981510">
                <time>2019-06-14T14:17:56Z</time>
            </trkpt>
            <trkpt lat="55.171260" lon="-7.981450">
                <time>2019-06-14T14:17:57Z</time>
            </trkpt>
            <trkpt lat="55.171430" lon="-7.981390">
                <time>2019-06-14T14:17:58Z</time>
            </trkpt>
            <trkpt lat="55.171610" lon="-7.981320">
                <time>2019-06-14T14:17:59Z</time>
            </trkpt>
            <trkpt lat="55.171780" lon="-7.981260">
                <time>2019-06-14T14:18:00Z</time>
            </trkpt>
            <trkpt lat="55.171950" lon="-7.981190">
                <time>2019-06-14T14:18:01Z</time>
            </trkpt>
            <trkpt lat="55.172110" lon="-7.981130">
                <time>2019-06-14T14:18:02Z</time>
            </trkpt>
            <trkpt lat="55.172270" lon="-7.981070">
                <time>2019-06-14T14:18:03Z</time>
            </trkpt>
            <trkpt lat="55.172420" lon="-7.981010">
                <time>2019-06-14T14:18:04Z</time>
            </trkpt>
            <trkpt lat="55.172570" lon="-7.980950">
                <time>2019-06-14T14:18:05Z</time>
            </trkpt>
            <trkpt lat="55.172730" lon="-7.980890">
                <time>2019-06-14T14:18:06Z</time>
            </trkpt>
            <trkpt lat="55.172890" lon="-7.980820">
                <time>2019-06-14T14:18:07Z</time>
            </trkpt>
            <trkpt lat="55.173060" lon="-7.980760">
                <time>2019-06-14T14:18:08Z</time>
            </trkpt>
            <trkpt lat="55.173230" lon="-7.980690">
                <time>2019-06-14T14:18:09Z</time>
            </trkpt>
            <trkpt lat="55.173410" lon="-7.980610">
                <time>2019-06-14T14:18:10Z</time>
            </trkpt>
            <trkpt lat="55.173580" lon="-7.980540">
                <time>2019-06-14T14:18:11Z</time>
            </trkpt>
            <trkpt lat="55.173760" lon="-7.980460">
                <time>2019-06-14T14:18:12Z</time>
            </trkpt>
            <trkpt lat="55.173940" lon="-7.980390">
                <time>2019-06-14T14:18:13Z</time>
            </trkpt>
            <trkpt lat="55.174120" lon="-7.980310">
                <time>2019-06-14T14:18:14Z</time>
            </trkpt>
            <trkpt lat="55.174310" lon="-7.980240">
                <time>2019-06-14T14:18:15Z</time>
            </trkpt>
            <trkpt lat="55.174500" lon="-7.980160">
                <time>2019-06-14T14:18:16Z</time>
            </trkpt>
            <trkpt lat="55.174680" lon="-7.980100">
                <time>2019-06-14T14:18:17Z</time>
            </trkpt>
            <trkpt lat="55.174860" lon="-7.980020">
                <time>2019-06-14T14:18:18Z</time>
            </trkpt>
            <trkpt lat="55.175030" lon="-7.979950">
                <time>2019-06-14T14:18:19Z</time>
            </trkpt>
            <trkpt lat="55.175190" lon="-7.979880">
                <time>2019-06-14T14:18:20Z</time>
            </trkpt>
            <trkpt lat="55.175360" lon="-7.979820">
                <time>2019-06-14T14:18:21Z</time>
            </trkpt>
            <trkpt lat="55.175530" lon="-7.979740">
                <time>2019-06-14T14:18:22Z</time>
            </trkpt>
            <trkpt lat="55.175710" lon="-7.979620">
                <time>2019-06-14T14:18:23Z</time>
            </trkpt>
            <trkpt lat="55.175900" lon="-7.979480">
                <time>2019-06-14T14:18:24Z</time>
            </trkpt>
            <trkpt lat="55.176090" lon="-7.979330">
                <time>2019-06-14T14:18:25Z</time>
            </trkpt>
            <trkpt lat="55.176270" lon="-7.979190">
                <time>2019-06-14T14:18:26Z</time>
            </trkpt>
            <trkpt lat="55.176440" lon="-7.979050">
                <time>2019-06-14T14:18:27Z</time>
            </trkpt>
            <trkpt lat="55.176590" lon="-7.978930">
                <time>2019-06-14T14:18:28Z</time>
            </trkpt>
            <trkpt lat="55.176750" lon="-7.978810">
                <time>2019-06-14T14:18:29Z</time>
            </trkpt>
            <trkpt lat="55.176910" lon="-7.978680">
                <time>2019-06-14T14:18:30Z</time>
            </trkpt>
            <trkpt lat="55.177070" lon="-7.978560">
                <time>2019-06-14T14:18:31Z</time>
            </trkpt>
            <trkpt lat="55.177230" lon="-7.978440">
                <time>2019-06-14T14:18:32Z</time>
            </trkpt>
            <trkpt lat="55.177370" lon="-7.978330">
                <time>2019-06-14T14:18:33Z</time>
            </trkpt>
            <trkpt lat="55.177510" lon="-7.978210">
                <time>2019-06-14T14:18:34Z</time>
            </trkpt>
            <trkpt lat="55.177660" lon="-7.978090">
                <time>2019-06-14T14:18:35Z</time>
            </trkpt>
            <trkpt lat="55.177800" lon="-7.977970">
                <time>2019-06-14T14:18:36Z</time>
            </trkpt>
            <trkpt lat="55.177940" lon="-7.977860">
                <time>2019-06-14T14:18:37Z</time>
            </trkpt>
            <trkpt lat="55.178080" lon="-7.977740">
                <time>2019-06-14T14:18:38Z</time>
            </trkpt>
            <trkpt lat="55.178210" lon="-7.977630">
                <time>2019-06-14T14:18:39Z</time>
            </trkpt>
            <trkpt lat="55.178350" lon="-7.977510">
                <time>2019-06-14T14:18:40Z</time>
            </trkpt>
            <trkpt lat="55.178480" lon="-7.977400">
                <time>2019-06-14T14:18:41Z</time>
            </trkpt>
            <trkpt lat="55.178630" lon="-7.977280">
                <time>2019-06-14T14:18:42Z</time>
            </trkpt>
            <trkpt lat="55.178770" lon="-7.977170">
                <time>2019-06-14T14:18:43Z</time>
            </trkpt>
            <trkpt lat="55.178930" lon="-7.977050">
                <time>2019-06-14T14:18:44Z</time>
            </trkpt>
            <trkpt lat="55.179080" lon="-7.976950">
                <time>2019-06-14T14:18:45Z</time>
            </trkpt>
            <trkpt lat="55.179220" lon="-7.976850">
                <time>2019-06-14T14:18:46Z</time>
            </trkpt>
            <trkpt lat="55.179350" lon="-7.976760">
                <time>2019-06-14T14:18:47Z</time>
            </trkpt>
            <trkpt lat="55.179470" lon="-7.976680">
                <time>2019-06-14T14:18:48Z</time>
            </trkpt>
            <trkpt lat="55.179590" lon="-7.976590">
                <time>2019-06-14T14:18:49Z</time>
            </trkpt>
            <trkpt lat="55.179720" lon="-7.976490">
                <time>2019-06-14T14:18:50Z</time>
            </trkpt>
            <trkpt lat="55.179860" lon="-7.976390">
                <time>2019-06-14T14:18:51Z</time>
            </trkpt>
            <trkpt lat="55.179990" lon="-7.976290">
                <time>2019-06-14T14:18:52Z</time>
            </trkpt>
            <trkpt lat="55.180130" lon="-7.976190">
                <time>2019-06-14T14:18:53Z</time>
            </trkpt>
            <trkpt lat="55.180260" lon="-7.976100">
                <time>2019-06-14T14:18:54Z</time>
            </trkpt>
            <trkpt lat="55.180390" lon="-7.976000">
                <time>2019-06-14T14:18:55Z</time>
            </trkpt>
            <trkpt lat="55.180520" lon="-7.975900">
                <time>2019-06-14T14:18:56Z</time>
            </trkpt>
            <trkpt lat="55.180640" lon="-7.975790">
                <time>2019-06-14T14:18:57Z</time>
            </trkpt>
            <trkpt lat="55.180760" lon="-7.975690">
                <time>2019-06-14T14:18:58Z</time>
            </trkpt>
            <trkpt lat="55.180870" lon="-7.975600">
                <time>2019-06-14T14:18:59Z</time>
            </trkpt>
            <trkpt lat="55.180980" lon="-7.975520">
                <time>2019-06-14T14:19:00Z</time>
            </trkpt>
            <trkpt lat="55.181090" lon="-7.975440">
                <time>2019-06-14T14:19:01Z</time>
            </trkpt>
            <trkpt lat="55.181200" lon="-7.975360">
                <time>2019-06-14T14:19:02Z</time>
            </trkpt>
            <trkpt lat="55.181320" lon="-7.975280">
                <time>2019-06-14T14:19:03Z</time>
            </trkpt>
            <trkpt lat="55.181440" lon="-7.975190">
                <time>2019-06-14T14:19:04Z</time>
            </trkpt>
            <trkpt lat="55.181580" lon="-7.975100">
                <time>2019-06-14T14:19:05Z</time>
            </trkpt>
            <trkpt lat="55.181710" lon="-7.975010">
                <time>2019-06-14T14:19:06Z</time>
            </trkpt>
            <trkpt lat="55.181830" lon="-7.974930">
                <time>2019-06-14T14:19:07Z</time>
            </trkpt>
            <trkpt lat="55.181930" lon="-7.974850">
                <time>2019-06-14T14:19:08Z</time>
            </trkpt>
            <trkpt lat="55.182040" lon="-7.974770">
                <time>2019-06-14T14:19:09Z</time>
            </trkpt>
            <trkpt lat="55.182140" lon="-7.974690">
                <time>2019-06-14T14:19:10Z</time>
            </trkpt>
            <trkpt lat="55.182250" lon="-7.974590">
                <time>2019-06-14T14:19:11Z</time>
            </trkpt>
            <trkpt lat="55.182350" lon="-7.974490">
                <time>2019-06-14T14:19:12Z</time>
            </trkpt>
            <trkpt lat="55.182440" lon="-7.974400">
                <time>2019-06-14T14:19:13Z</time>
            </trkpt>
            <trkpt lat="55.182530" lon="-7.974300">
                <time>2019-06-14T14:19:14Z</time>
            </trkpt>
            <trkpt lat="55.182620" lon="-7.974190">
                <time>2019-06-14T14:19:15Z</time>
            </trkpt>
            <trkpt lat="55.182690" lon="-7.974090">
                <time>2019-06-14T14:19:16Z</time>
            </trkpt>
            <trkpt lat="55.182730" lon="-7.973980">
                <time>2019-06-14T14:19:17Z</time>
            </trkpt>
            <trkpt lat="55.182770" lon="-7.973880">
                <time>2019-06-14T14:19:18Z</time>
            </trkpt>
            <trkpt lat="55.182790" lon="-7.973800">
                <time>2019-06-14T14:19:19Z</time>
            </trkpt>
            <trkpt lat="55.182810" lon="-7.973730">
                <time>2019-06-14T14:19:20Z</time>
            </trkpt>
            <trkpt lat="55.182820" lon="-7.973670">
                <time>2019-06-14T14:19:21Z</time>
            </trkpt>
            <trkpt lat="55.182840" lon="-7.973610">
                <time>2019-06-14T14:19:22Z</time>
            </trkpt>
            <trkpt lat="55.182850" lon="-7.973550">
                <time>2019-06-14T14:19:23Z</time>
            </trkpt>
            <trkpt lat="55.182860" lon="-7.973480">
                <time>2019-06-14T14:19:24Z</time>
            </trkpt>
            <trkpt lat="55.182880" lon="-7.973410">
                <time>2019-06-14T14:19:25Z</time>
            </trkpt>
            <trkpt lat="55.182890" lon="-7.973340">
                <time>2019-06-14T14:19:26Z</time>
            </trkpt>
            <trkpt lat="55.182900" lon="-7.973280">
                <time>2019-06-14T14:19:27Z</time>
            </trkpt>
            <trkpt lat="55.182920" lon="-7.973220">
                <time>2019-06-14T14:19:28Z</time>
            </trkpt>
            <trkpt lat="55.182930" lon="-7.973160">
                <time>2019-06-14T14:19:29Z</time>
            </trkpt>
            <trkpt lat="55.182950" lon="-7.973100">
                <time>2019-06-14T14:19:30Z</time>
            </trkpt>
            <trkpt lat="55.182960" lon="-7.973040">
                <time>2019-06-14T14:19:31Z</time>
            </trkpt>
            <trkpt lat="55.182970" lon="-7.972980">
                <time>2019-06-14T14:19:32Z</time>
            </trkpt>
            <trkpt lat="55.182980" lon="-7.972920">
                <time>2019-06-14T14:19:33Z</time>
            </trkpt>
            <trkpt lat="55.182990" lon="-7.972860">
                <time>2019-06-14T14:19:34Z</time>
            </trkpt>
            <trkpt lat="55.183010" lon="-7.972790">
                <time>2019-06-14T14:19:35Z</time>
            </trkpt>
            <trkpt lat="55.183020" lon="-7.972720">
                <time>2019-06-14T14:19:36Z</time>
            </trkpt>
            <trkpt lat="55.183030" lon="-7.972660">
                <time>2019-06-14T14:19:37Z</time>
            </trkpt>
            <trkpt lat="55.183040" lon="-7.972600">
                <time>2019-06-14T14:19:38Z</time>
            </trkpt>
            <trkpt lat="55.183050" lon="-7.972530">
                <time>2019-06-14T14:19:39Z</time>
            </trkpt>
            <trkpt lat="55.183060" lon="-7.972460">
                <time>2019-06-14T14:19:40Z</time>
            </trkpt>
            <trkpt lat="55.183080" lon="-7.972390">
                <time>2019-06-14T14:19:41Z</time>
            </trkpt>
            <trkpt lat="55.183090" lon="-7.972290">
                <time>2019-06-14T14:19:42Z</time>
            </trkpt>
            <trkpt lat="55.183110" lon="-7.972190">
                <time>2019-06-14T14:19:43Z</time>
            </trkpt>
            <trkpt lat="55.183130" lon="-7.972090">
                <time>2019-06-14T14:19:44Z</time>
            </trkpt>
            <trkpt lat="55.183150" lon="-7.972000">
                <time>2019-06-14T14:19:45Z</time>
            </trkpt>
            <trkpt lat="55.183160" lon="-7.971900">
                <time>2019-06-14T14:19:46Z</time>
            </trkpt>
            <trkpt lat="55.183180" lon="-7.971800">
                <time>2019-06-14T14:19:47Z</time>
            </trkpt>
            <trkpt lat="55.183200" lon="-7.971670">
                <time>2019-06-14T14:19:48Z</time>
            </trkpt>
            <trkpt lat="55.183220" lon="-7.971520">
                <time>2019-06-14T14:19:49Z</time>
            </trkpt>
            <trkpt lat="55.183250" lon="-7.971370">
                <time>2019-06-14T14:19:50Z</time>
            </trkpt>
            <trkpt lat="55.183270" lon="-7.971220">
                <time>2019-06-14T14:19:51Z</time>
            </trkpt>
            <trkpt lat="55.183300" lon="-7.971070">
                <time>2019-06-14T14:19:52Z</time>
            </trkpt>
            <trkpt lat="55.183320" lon="-7.970920">
                <time>2019-06-14T14:19:53Z</time>
            </trkpt>
            <trkpt lat="55.183340" lon="-7.970780">
                <time>2019-06-14T14:19:54Z</time>
            </trkpt>
            <trkpt lat="55.183370" lon="-7.970640">
                <time>2019-06-14T14:19:55Z</time>
            </trkpt>
            <trkpt lat="55.183390" lon="-7.970490">
                <time>2019-06-14T14:19:56Z</time>
            </trkpt>
            <trkpt lat="55.183420" lon="-7.970310">
                <time>2019-06-14T14:19:57Z</time>
            </trkpt>
            <trkpt lat="55.183440" lon="-7.970110">
                <time>2019-06-14T14:19:58Z</time>
            </trkpt>
            <trkpt lat="55.183460" lon="-7.969900">
                <time>2019-06-14T14:19:59Z</time>
            </trkpt>
            <trkpt lat="55.183480" lon="-7.969700">
                <time>2019-06-14T14:20:00Z</time>
            </trkpt>
            <trkpt lat="55.183480" lon="-7.969510">
                <time>2019-06-14T14:20:01Z</time>
            </trkpt>
            <trkpt lat="55.183460" lon="-7.969340">
                <time>2019-06-14T14:20:02Z</time>
            </trkpt>
            <trkpt lat="55.183440" lon="-7.969190">
                <time>2019-06-14T14:20:03Z</time>
            </trkpt>
            <trkpt lat="55.183400" lon="-7.969030">
                <time>2019-06-14T14:20:04Z</time>
            </trkpt>
            <trkpt lat="55.183360" lon="-7.968870">
                <time>2019-06-14T14:20:05Z</time>
            </trkpt>
            <trkpt lat="55.183320" lon="-7.968690">
                <time>2019-06-14T14:20:06Z</time>
            </trkpt>
            <trkpt lat="55.183270" lon="-7.968500">
                <time>2019-06-14T14:20:07Z</time>
            </trkpt>
            <trkpt lat="55.183220" lon="-7.968310">
                <time>2019-06-14T14:20:08Z</time>
            </trkpt>
            <trkpt lat="55.183180" lon="-7.968110">
                <time>2019-06-14T14:20:09Z</time>
            </trkpt>
            <trkpt lat="55.183130" lon="-7.967920">
                <time>2019-06-14T14:20:10Z</time>
            </trkpt>
            <trkpt lat="55.183090" lon="-7.967740">
                <time>2019-06-14T14:20:11Z</time>
            </trkpt>
            <trkpt lat="55.183050" lon="-7.967580">
                <time>2019-06-14T14:20:12Z</time>
            </trkpt>
            <trkpt lat="55.183020" lon="-7.967440">
                <time>2019-06-14T14:20:13Z</time>
            </trkpt>
            <trkpt lat="55.182990" lon="-7.967290">
                <time>2019-06-14T14:20:14Z</time>
            </trkpt>
            <trkpt lat="55.182950" lon="-7.967140">
                <time>2019-06-14T14:20:15Z</time>
            </trkpt>
            <trkpt lat="55.182910" lon="-7.966960">
                <time>2019-06-14T14:20:16Z</time>
            </trkpt>
            <trkpt lat="55.182860" lon="-7.966750">
                <time>2019-06-14T14:20:17Z</time>
            </trkpt>
            <trkpt lat="55.182820" lon="-7.966530">
                <time>2019-06-14T14:20:18Z</time>
            </trkpt>
            <trkpt lat="55.182780" lon="-7.966310">
                <time>2019-06-14T14:20:19Z</time>
            </trkpt>
            <trkpt lat="55.182750" lon="-7.966090">
                <time>2019-06-14T14:20:20Z</time>
            </trkpt>
            <trkpt lat="55.182710" lon="-7.965850">
                <time>2019-06-14T14:20:21Z</time>
            </trkpt>
            <trkpt lat="55.182680" lon="-7.965570">
                <time>2019-06-14T14:20:22Z</time>
            </trkpt>
            <trkpt lat="55.182630" lon="-7.965230">
                <time>2019-06-14T14:20:23Z</time>
            </trkpt>
            <trkpt lat="55.182590" lon="-7.964880">
                <time>2019-06-14T14:20:24Z</time>
            </trkpt>
            <trkpt lat="55.182550" lon="-7.964550">
                <time>2019-06-14T14:20:25Z</time>
            </trkpt>
            <trkpt lat="55.182510" lon="-7.964250">
                <time>2019-06-14T14:20:26Z</time>
            </trkpt>
            <trkpt lat="55.182460" lon="-7.963970">
                <time>2019-06-14T14:20:27Z</time>
            </trkpt>
            <trkpt lat="55.182400" lon="-7.963720">
                <time>2019-06-14T14:20:28Z</time>
            </trkpt>
            <trkpt lat="55.182340" lon="-7.963480">
                <time>2019-06-14T14:20:29Z</time>
            </trkpt>
            <trkpt lat="55.182270" lon="-7.963260">
                <time>2019-06-14T14:20:30Z</time>
            </trkpt>
            <trkpt lat="55.182190" lon="-7.963060">
                <time>2019-06-14T14:20:31Z</time>
            </trkpt>
            <trkpt lat="55.182100" lon="-7.962850">
                <time>2019-06-14T14:20:32Z</time>
            </trkpt>
            <trkpt lat="55.182010" lon="-7.962670">
                <time>2019-06-14T14:20:33Z</time>
            </trkpt>
            <trkpt lat="55.181920" lon="-7.962500">
                <time>2019-06-14T14:20:34Z</time>
            </trkpt>
            <trkpt lat="55.181840" lon="-7.962330">
                <time>2019-06-14T14:20:35Z</time>
            </trkpt>
            <trkpt lat="55.181750" lon="-7.962160">
                <time>2019-06-14T14:20:36Z</time>
            </trkpt>
            <trkpt lat="55.181640" lon="-7.961980">
                <time>2019-06-14T14:20:37Z</time>
            </trkpt>
            <trkpt lat="55.181530" lon="-7.961780">
                <time>2019-06-14T14:20:38Z</time>
            </trkpt>
            <trkpt lat="55.181420" lon="-7.961570">
                <time>2019-06-14T14:20:39Z</time>
            </trkpt>
            <trkpt lat="55.181310" lon="-7.961350">
                <time>2019-06-14T14:20:40Z</time>
            </trkpt>
            <trkpt lat="55.181200" lon="-7.961130">
                <time>2019-06-14T14:20:41Z</time>
            </trkpt>
            <trkpt lat="55.181080" lon="-7.960890">
                <time>2019-06-14T14:20:42Z</time>
            </trkpt>
            <trkpt lat="55.180960" lon="-7.960620">
                <time>2019-06-14T14:20:43Z</time>
            </trkpt>
            <trkpt lat="55.180850" lon="-7.960330">
                <time>2019-06-14T14:20:44Z</time>
            </trkpt>
            <trkpt lat="55.180760" lon="-7.960030">
                <time>2019-06-14T14:20:45Z</time>
            </trkpt>
            <trkpt lat="55.180670" lon="-7.959720">
                <time>2019-06-14T14:20:46Z</time>
            </trkpt>
            <trkpt lat="55.180600" lon="-7.959410">
                <time>2019-06-14T14:20:47Z</time>
            </trkpt>
            <trkpt lat="55.180520" lon="-7.959110">
                <time>2019-06-14T14:20:48Z</time>
            </trkpt>
            <trkpt lat="55.180460" lon="-7.958830">
                <time>2019-06-14T14:20:49Z</time>
            </trkpt>
            <trkpt lat="55.180400" lon="-7.958550">
                <time>2019-06-14T14:20:50Z</time>
            </trkpt>
            <trkpt lat="55.180340" lon="-7.958270">
                <time>2019-06-14T14:20:51Z</time>
            </trkpt>
            <trkpt lat="55.180290" lon="-7.957990">
                <time>2019-06-14T14:20:52Z</time>
            </trkpt>
            <trkpt lat="55.180230" lon="-7.957700">
                <time>2019-06-14T14:20:53Z</time>
            </trkpt>
            <trkpt lat="55.180170" lon="-7.957430">
                <time>2019-06-14T14:20:54Z</time>
            </trkpt>
            <trkpt lat="55.180120" lon="-7.957170">
                <time>2019-06-14T14:20:55Z</time>
            </trkpt>
            <trkpt lat="55.180070" lon="-7.956900">
                <time>2019-06-14T14:20:56Z</time>
            </trkpt>
            <trkpt lat="55.180010" lon="-7.956630">
                <time>2019-06-14T14:20:57Z</time>
            </trkpt>
            <trkpt lat="55.179950" lon="-7.956340">
                <time>2019-06-14T14:20:58Z</time>
            </trkpt>
            <trkpt lat="55.179900" lon="-7.956060">
                <time>2019-06-14T14:20:59Z</time>
            </trkpt>
            <trkpt lat="55.179840" lon="-7.955780">
                <time>2019-06-14T14:21:00Z</time>
            </trkpt>
            <trkpt lat="55.179780" lon="-7.955500">
                <time>2019-06-14T14:21:01Z</time>
            </trkpt>
            <trkpt lat="55.179730" lon="-7.955220">
                <time>2019-06-14T14:21:02Z</time>
            </trkpt>
            <trkpt lat="55.179670" lon="-7.954940">
                <time>2019-06-14T14:21:03Z</time>
            </trkpt>
            <trkpt lat="55.179610" lon="-7.954660">
                <time>2019-06-14T14:21:04Z</time>
            </trkpt>
            <trkpt lat="55.179560" lon="-7.954390">
                <time>2019-06-14T14:21:05Z</time>
            </trkpt>
            <trkpt lat="55.179500" lon="-7.954100">
                <time>2019-06-14T14:21:06Z</time>
            </trkpt>
            <trkpt lat="55.179430" lon="-7.953790">
                <time>2019-06-14T14:21:07Z</time>
            </trkpt>
            <trkpt lat="55.179370" lon="-7.953470">
                <time>2019-06-14T14:21:08Z</time>
            </trkpt>
            <trkpt lat="55.179300" lon="-7.953150">
                <time>2019-06-14T14:21:09Z</time>
            </trkpt>
            <trkpt lat="55.179240" lon="-7.952830">
                <time>2019-06-14T14:21:10Z</time>
            </trkpt>
            <trkpt lat="55.179180" lon="-7.952530">
                <time>2019-06-14T14:21:11Z</time>
            </trkpt>
            <trkpt lat="55.179120" lon="-7.952230">
                <time>2019-06-14T14:21:12Z</time>
            </trkpt>
            <trkpt lat="55.179060" lon="-7.951940">
                <time>2019-06-14T14:21:13Z</time>
            </trkpt>
            <trkpt lat="55.179000" lon="-7.951640">
                <time>2019-06-14T14:21:14Z</time>
            </trkpt>
            <trkpt lat="55.178940" lon="-7.951340">
                <time>2019-06-14T14:21:15Z</time>
            </trkpt>
            <trkpt lat="55.178870" lon="-7.951020">
                <time>2019-06-14T14:21:16Z</time>
            </trkpt>
            <trkpt lat="55.178800" lon="-7.950690">
                <time>2019-06-14T14:21:17Z</time>
            </trkpt>
            <trkpt lat="55.178730" lon="-7.950360">
                <time>2019-06-14T14:21:18Z</time>
            </trkpt>
            <trkpt lat="55.178650" lon="-7.950020">
                <time>2019-06-14T14:21:19Z</time>
            </trkpt>
            <trkpt lat="55.178590" lon="-7.949690">
                <time>2019-06-14T14:21:20Z</time>
            </trkpt>
            <trkpt lat="55.178510" lon="-7.949360">
                <time>2019-06-14T14:21:21Z</time>
            </trkpt>
            <trkpt lat="55.178440" lon="-7.949030">
                <time>2019-06-14T14:21:22Z</time>
            </trkpt>
            <trkpt lat="55.178370" lon="-7.948700">
                <time>2019-06-14T14:21:23Z</time>
            </trkpt>
            <trkpt lat="55.178300" lon="-7.948370">
                <time>2019-06-14T14:21:24Z</time>
            </trkpt>
            <trkpt lat="55.178230" lon="-7.948060">
                <time>2019-06-14T14:21:25Z</time>
            </trkpt>
            <trkpt lat="55.178170" lon="-7.947750">
                <time>2019-06-14T14:21:26Z</time>
            </trkpt>
            <trkpt lat="55.178100" lon="-7.947440">
                <time>2019-06-14T14:21:27Z</time>
            </trkpt>
            <trkpt lat="55.178040" lon="-7.947140">
                <time>2019-06-14T14:21:28Z</time>
            </trkpt>
            <trkpt lat="55.177970" lon="-7.946830">
                <time>2019-06-14T14:21:29Z</time>
            </trkpt>
            <trkpt lat="55.177910" lon="-7.946530">
                <time>2019-06-14T14:21:30Z</time>
            </trkpt>
            <trkpt lat="55.177850" lon="-7.946240">
                <time>2019-06-14T14:21:31Z</time>
            </trkpt>
            <trkpt lat="55.177780" lon="-7.945960">
                <time>2019-06-14T14:21:32Z</time>
            </trkpt>
            <trkpt lat="55.177720" lon="-7.945670">
                <time>2019-06-14T14:21:33Z</time>
            </trkpt>
            <trkpt lat="55.177660" lon="-7.945380">
                <time>2019-06-14T14:21:34Z</time>
            </trkpt>
            <trkpt lat="55.177600" lon="-7.945100">
                <time>2019-06-14T14:21:35Z</time>
            </trkpt>
            <trkpt lat="55.177530" lon="-7.944810">
                <time>2019-06-14T14:21:36Z</time>
            </trkpt>
            <trkpt lat="55.177470" lon="-7.944540">
                <time>2019-06-14T14:21:37Z</time>
            </trkpt>
            <trkpt lat="55.177420" lon="-7.944290">
                <time>2019-06-14T14:21:38Z</time>
            </trkpt>
            <trkpt lat="55.177370" lon="-7.944040">
                <time>2019-06-14T14:21:39Z</time>
            </trkpt>
            <trkpt lat="55.177320" lon="-7.943780">
                <time>2019-06-14T14:21:40Z</time>
            </trkpt>
            <trkpt lat="55.177280" lon="-7.943510">
                <time>2019-06-14T14:21:41Z</time>
            </trkpt>
            <trkpt lat="55.177240" lon="-7.943240">
                <time>2019-06-14T14:21:42Z</time>
            </trkpt>
            <trkpt lat="55.177220" lon="-7.942960">
                <time>2019-06-14T14:21:43Z</time>
            </trkpt>
            <trkpt lat="55.177200" lon="-7.942690">
                <time>2019-06-14T14:21:44Z</time>
            </trkpt>
            <trkpt lat="55.177210" lon="-7.942410">
                <time>2019-06-14T14:21:45Z</time>
            </trkpt>
            <trkpt lat="55.177220" lon="-7.942130">
                <time>2019-06-14T14:21:46Z</time>
            </trkpt>
            <trkpt lat="55.177240" lon="-7.941850">
                <time>2019-06-14T14:21:47Z</time>
            </trkpt>
            <trkpt lat="55.177280" lon="-7.941560">
                <time>2019-06-14T14:21:48Z</time>
            </trkpt>
            <trkpt lat="55.177320" lon="-7.941260">
                <time>2019-06-14T14:21:49Z</time>
            </trkpt>
            <trkpt lat="55.177360" lon="-7.940960">
                <time>2019-06-14T14:21:50Z</time>
            </trkpt>
            <trkpt lat="55.177400" lon="-7.940660">
                <time>2019-06-14T14:21:51Z</time>
            </trkpt>
            <trkpt lat="55.177450" lon="-7.940360">
                <time>2019-06-14T14:21:52Z</time>
            </trkpt>
            <trkpt lat="55.177510" lon="-7.940060">
                <time>2019-06-14T14:21:53Z</time>
            </trkpt>
            <trkpt lat="55.177560" lon="-7.939760">
                <time>2019-06-14T14:21:54Z</time>
            </trkpt>
            <trkpt lat="55.177620" lon="-7.939460">
                <time>2019-06-14T14:21:55Z</time>
            </trkpt>
            <trkpt lat="55.177670" lon="-7.939160">
                <time>2019-06-14T14:21:56Z</time>
            </trkpt>
            <trkpt lat="55.177730" lon="-7.938860">
                <time>2019-06-14T14:21:57Z</time>
            </trkpt>
            <trkpt lat="55.177790" lon="-7.938550">
                <time>2019-06-14T14:21:58Z</time>
            </trkpt>
            <trkpt lat="55.177840" lon="-7.938250">
                <time>2019-06-14T14:21:59Z</time>
            </trkpt>
            <trkpt lat="55.177900" lon="-7.937940">
                <time>2019-06-14T14:22:00Z</time>
            </trkpt>
            <trkpt lat="55.177950" lon="-7.937630">
                <time>2019-06-14T14:22:01Z</time>
            </trkpt>
            <trkpt lat="55.178000" lon="-7.937320">
                <time>2019-06-14T14:22:02Z</time>
            </trkpt>
            <trkpt lat="55.178060" lon="-7.937030">
                <time>2019-06-14T14:22:03Z</time>
            </trkpt>
            <trkpt lat="55.178110" lon="-7.936760">
                <time>2019-06-14T14:22:04Z</time>
            </trkpt>
            <trkpt lat="55.178160" lon="-7.936490">
                <time>2019-06-14T14:22:05Z</time>
            </trkpt>
            <trkpt lat="55.178210" lon="-7.936210">
                <time>2019-06-14T14:22:06Z</time>
            </trkpt>
            <trkpt lat="55.178250" lon="-7.935940">
                <time>2019-06-14T14:22:07Z</time>
            </trkpt>
            <trkpt lat="55.178310" lon="-7.935660">
                <time>2019-06-14T14:22:08Z</time>
            </trkpt>
            <trkpt lat="55.178360" lon="-7.935370">
                <time>2019-06-14T14:22:09Z</time>
            </trkpt>
            <trkpt lat="55.178400" lon="-7.935070">
                <time>2019-06-14T14:22:10Z</time>
            </trkpt>
            <trkpt lat="55.178440" lon="-7.934760">
                <time>2019-06-14T14:22:11Z</time>
            </trkpt>
            <trkpt lat="55.178460" lon="-7.934470">
                <time>2019-06-14T14:22:12Z</time>
            </trkpt>
            <trkpt lat="55.178470" lon="-7.934180">
                <time>2019-06-14T14:22:13Z</time>
            </trkpt>
            <trkpt lat="55.178460" lon="-7.933890">
                <time>2019-06-14T14:22:14Z</time>
            </trkpt>
            <trkpt lat="55.178430" lon="-7.933620">
                <time>2019-06-14T14:22:15Z</time>
            </trkpt>
            <trkpt lat="55.178380" lon="-7.933360">
                <time>2019-06-14T14:22:16Z</time>
            </trkpt>
            <trkpt lat="55.178320" lon="-7.933120">
                <time>2019-06-14T14:22:17Z</time>
            </trkpt>
            <trkpt lat="55.178240" lon="-7.932880">
                <time>2019-06-14T14:22:18Z</time>
            </trkpt>
            <trkpt lat="55.178140" lon="-7.932640">
                <time>2019-06-14T14:22:19Z</time>
            </trkpt>
            <trkpt lat="55.178040" lon="-7.932390">
                <time>2019-06-14T14:22:20Z</time>
            </trkpt>
            <trkpt lat="55.177930" lon="-7.932140">
                <time>2019-06-14T14:22:21Z</time>
            </trkpt>
            <trkpt lat="55.177820" lon="-7.931890">
                <time>2019-06-14T14:22:22Z</time>
            </trkpt>
            <trkpt lat="55.177700" lon="-7.931640">
                <time>2019-06-14T14:22:23Z</time>
            </trkpt>
            <trkpt lat="55.177600" lon="-7.931390">
                <time>2019-06-14T14:22:24Z</time>
            </trkpt>
            <trkpt lat="55.177490" lon="-7.931150">
                <time>2019-06-14T14:22:25Z</time>
            </trkpt>
            <trkpt lat="55.177390" lon="-7.930920">
                <time>2019-06-14T14:22:26Z</time>
            </trkpt>
            <trkpt lat="55.177280" lon="-7.930670">
                <time>2019-06-14T14:22:27Z</time>
            </trkpt>
            <trkpt lat="55.177160" lon="-7.930420">
                <time>2019-06-14T14:22:28Z</time>
            </trkpt>
            <trkpt lat="55.177040" lon="-7.930150">
                <time>2019-06-14T14:22:29Z</time>
            </trkpt>
            <trkpt lat="55.176910" lon="-7.929900">
                <time>2019-06-14T14:22:30Z</time>
            </trkpt>
            <trkpt lat="55.176780" lon="-7.929680">
                <time>2019-06-14T14:22:31Z</time>
            </trkpt>
            <trkpt lat="55.176650" lon="-7.929480">
                <time>2019-06-14T14:22:32Z</time>
            </trkpt>
            <trkpt lat="55.176520" lon="-7.929310">
                <time>2019-06-14T14:22:33Z</time>
            </trkpt>
            <trkpt lat="55.176380" lon="-7.929160">
                <time>2019-06-14T14:22:34Z</time>
            </trkpt>
            <trkpt lat="55.176240" lon="-7.929030">
                <time>2019-06-14T14:22:35Z</time>
            </trkpt>
            <trkpt lat="55.176100" lon="-7.928920">
                <time>2019-06-14T14:22:36Z</time>
            </trkpt>
            <trkpt lat="55.175950" lon="-7.928820">
                <time>2019-06-14T14:22:37Z</time>
            </trkpt>
            <trkpt lat="55.175790" lon="-7.928740">
                <time>2019-06-14T14:22:38Z</time>
            </trkpt>
            <trkpt lat="55.175630" lon="-7.928660">
                <time>2019-06-14T14:22:39Z</time>
            </trkpt>
            <trkpt lat="55.175460" lon="-7.928590">
                <time>2019-06-14T14:22:40Z</time>
            </trkpt>
            <trkpt lat="55.175290" lon="-7.928520">
                <time>2019-06-14T14:22:41Z</time>
            </trkpt>
            <trkpt lat="55.175120" lon="-7.928440">
                <time>2019-06-14T14:22:42Z</time>
            </trkpt>
            <trkpt lat="55.174940" lon="-7.928360">
                <time>2019-06-14T14:22:43Z</time>
            </trkpt>
            <trkpt lat="55.174780" lon="-7.928270">
                <time>2019-06-14T14:22:44Z</time>
            </trkpt>
            <trkpt lat="55.174610" lon="-7.928160">
                <time>2019-06-14T14:22:45Z</time>
            </trkpt>
            <trkpt lat="55.174460" lon="-7.928040">
                <time>2019-06-14T14:22:46Z</time>
            </trkpt>
            <trkpt lat="55.174310" lon="-7.927900">
                <time>2019-06-14T14:22:47Z</time>
            </trkpt>
            <trkpt lat="55.174160" lon="-7.927740">
                <time>2019-06-14T14:22:48Z</time>
            </trkpt>
            <trkpt lat="55.174010" lon="-7.927560">
                <time>2019-06-14T14:22:49Z</time>
            </trkpt>
            <trkpt lat="55.173880" lon="-7.927370">
                <time>2019-06-14T14:22:50Z</time>
            </trkpt>
            <trkpt lat="55.173760" lon="-7.927170">
                <time>2019-06-14T14:22:51Z</time>
            </trkpt>
            <trkpt lat="55.173640" lon="-7.926960">
                <time>2019-06-14T14:22:52Z</time>
            </trkpt>
            <trkpt lat="55.173520" lon="-7.926730">
                <time>2019-06-14T14:22:53Z</time>
            </trkpt>
            <trkpt lat="55.173400" lon="-7.926490">
                <time>2019-06-14T14:22:54Z</time>
            </trkpt>
            <trkpt lat="55.173280" lon="-7.926250">
                <time>2019-06-14T14:22:55Z</time>
            </trkpt>
            <trkpt lat="55.173150" lon="-7.926010">
                <time>2019-06-14T14:22:56Z</time>
            </trkpt>
            <trkpt lat="55.173020" lon="-7.925790">
                <time>2019-06-14T14:22:57Z</time>
            </trkpt>
            <trkpt lat="55.172890" lon="-7.925560">
                <time>2019-06-14T14:22:58Z</time>
            </trkpt>
            <trkpt lat="55.172750" lon="-7.925360">
                <time>2019-06-14T14:22:59Z</time>
            </trkpt>
            <trkpt lat="55.172610" lon="-7.925160">
                <time>2019-06-14T14:23:00Z</time>
            </trkpt>
            <trkpt lat="55.172460" lon="-7.924960">
                <time>2019-06-14T14:23:01Z</time>
            </trkpt>
            <trkpt lat="55.172300" lon="-7.924770">
                <time>2019-06-14T14:23:02Z</time>
            </trkpt>
            <trkpt lat="55.172150" lon="-7.924580">
                <time>2019-06-14T14:23:03Z</time>
            </trkpt>
            <trkpt lat="55.172010" lon="-7.924400">
                <time>2019-06-14T14:23:04Z</time>
            </trkpt>
            <trkpt lat="55.171890" lon="-7.924210">
                <time>2019-06-14T14:23:05Z</time>
            </trkpt>
            <trkpt lat="55.171770" lon="-7.923990">
                <time>2019-06-14T14:23:06Z</time>
            </trkpt>
            <trkpt lat="55.171670" lon="-7.923750">
                <time>2019-06-14T14:23:07Z</time>
            </trkpt>
            <trkpt lat="55.171560" lon="-7.923510">
                <time>2019-06-14T14:23:08Z</time>
            </trkpt>
            <trkpt lat="55.171450" lon="-7.923270">
                <time>2019-06-14T14:23:09Z</time>
            </trkpt>
            <trkpt lat="55.171320" lon="-7.923020">
                <time>2019-06-14T14:23:10Z</time>
            </trkpt>
            <trkpt lat="55.171190" lon="-7.922760">
                <time>2019-06-14T14:23:11Z</time>
            </trkpt>
            <trkpt lat="55.171040" lon="-7.922500">
                <time>2019-06-14T14:23:12Z</time>
            </trkpt>
            <trkpt lat="55.170880" lon="-7.922250">
                <time>2019-06-14T14:23:13Z</time>
            </trkpt>
            <trkpt lat="55.170710" lon="-7.922020">
                <time>2019-06-14T14:23:14Z</time>
            </trkpt>
            <trkpt lat="55.170530" lon="-7.921830">
                <time>2019-06-14T14:23:15Z</time>
            </trkpt>
            <trkpt lat="55.170350" lon="-7.921680">
                <time>2019-06-14T14:23:16Z</time>
            </trkpt>
            <trkpt lat="55.170170" lon="-7.921540">
                <time>2019-06-14T14:23:17Z</time>
            </trkpt>
            <trkpt lat="55.170000" lon="-7.921400">
                <time>2019-06-14T14:23:18Z</time>
            </trkpt>
            <trkpt lat="55.169820" lon="-7.921270">
                <time>2019-06-14T14:23:19Z</time>
            </trkpt>
            <trkpt lat="55.169650" lon="-7.921130">
                <time>2019-06-14T14:23:20Z</time>
            </trkpt>
            <trkpt lat="55.169480" lon="-7.921000">
                <time>2019-06-14T14:23:21Z</time>
            </trkpt>
            <trkpt lat="55.169300" lon="-7.920880">
                <time>2019-06-14T14:23:22Z</time>
            </trkpt>
            <trkpt lat="55.169130" lon="-7.920790">
                <time>2019-06-14T14:23:23Z</time>
            </trkpt>
            <trkpt lat="55.168950" lon="-7.920720">
                <time>2019-06-14T14:23:24Z</time>
            </trkpt>
            <trkpt lat="55.168770" lon="-7.920680">
                <time>2019-06-14T14:23:25Z</time>
            </trkpt>
            <trkpt lat="55.168590" lon="-7.920680">
                <time>2019-06-14T14:23:26Z</time>
            </trkpt>
            <trkpt lat="55.168420" lon="-7.920700">
                <time>2019-06-14T14:23:27Z</time>
            </trkpt>
            <trkpt lat="55.168240" lon="-7.920740">
                <time>2019-06-14T14:23:28Z</time>
            </trkpt>
            <trkpt lat="55.168060" lon="-7.920790">
                <time>2019-06-14T14:23:29Z</time>
            </trkpt>
            <trkpt lat="55.167870" lon="-7.920850">
                <time>2019-06-14T14:23:30Z</time>
            </trkpt>
            <trkpt lat="55.167670" lon="-7.920920">
                <time>2019-06-14T14:23:31Z</time>
            </trkpt>
            <trkpt lat="55.167480" lon="-7.920980">
                <time>2019-06-14T14:23:32Z</time>
            </trkpt>
            <trkpt lat="55.167280" lon="-7.921040">
                <time>2019-06-14T14:23:33Z</time>
            </trkpt>
            <trkpt lat="55.167100" lon="-7.921090">
                <time>2019-06-14T14:23:34Z</time>
            </trkpt>
            <trkpt lat="55.166910" lon="-7.921120">
                <time>2019-06-14T14:23:35Z</time>
            </trkpt>
            <trkpt lat="55.166720" lon="-7.921140">
                <time>2019-06-14T14:23:36Z</time>
            </trkpt>
            <trkpt lat="55.166530" lon="-7.921150">
                <time>2019-06-14T14:23:37Z</time>
            </trkpt>
            <trkpt lat="55.166340" lon="-7.921150">
                <time>2019-06-14T14:23:38Z</time>
            </trkpt>
            <trkpt lat="55.166160" lon="-7.921150">
                <time>2019-06-14T14:23:39Z</time>
            </trkpt>
            <trkpt lat="55.165970" lon="-7.921130">
                <time>2019-06-14T14:23:40Z</time>
            </trkpt>
            <trkpt lat="55.165780" lon="-7.921120">
                <time>2019-06-14T14:23:41Z</time>
            </trkpt>
            <trkpt lat="55.165600" lon="-7.921100">
                <time>2019-06-14T14:23:42Z</time>
            </trkpt>
            <trkpt lat="55.165410" lon="-7.921080">
                <time>2019-06-14T14:23:43Z</time>
            </trkpt>
            <trkpt lat="55.165230" lon="-7.921060">
                <time>2019-06-14T14:23:44Z</time>
            </trkpt>
            <trkpt lat="55.165040" lon="-7.921050">
                <time>2019-06-14T14:23:45Z</time>
            </trkpt>
            <trkpt lat="55.164860" lon="-7.921030">
                <time>2019-06-14T14:23:46Z</time>
            </trkpt>
            <trkpt lat="55.164670" lon="-7.921010">
                <time>2019-06-14T14:23:47Z</time>
            </trkpt>
            <trkpt lat="55.164480" lon="-7.920980">
                <time>2019-06-14T14:23:48Z</time>
            </trkpt>
            <trkpt lat="55.164280" lon="-7.920970">
                <time>2019-06-14T14:23:49Z</time>
            </trkpt>
            <trkpt lat="55.164080" lon="-7.920950">
                <time>2019-06-14T14:23:50Z</time>
            </trkpt>
            <trkpt lat="55.163870" lon="-7.920940">
                <time>2019-06-14T14:23:51Z</time>
            </trkpt>
            <trkpt lat="55.163660" lon="-7.920920">
                <time>2019-06-14T14:23:52Z</time>
            </trkpt>
            <trkpt lat="55.163450" lon="-7.920900">
                <time>2019-06-14T14:23:53Z</time>
            </trkpt>
            <trkpt lat="55.163240" lon="-7.920880">
                <time>2019-06-14T14:23:54Z</time>
            </trkpt>
            <trkpt lat="55.163040" lon="-7.920860">
                <time>2019-06-14T14:23:55Z</time>
            </trkpt>
            <trkpt lat="55.162850" lon="-7.920850">
                <time>2019-06-14T14:23:56Z</time>
            </trkpt>
            <trkpt lat="55.162660" lon="-7.920830">
                <time>2019-06-14T14:23:57Z</time>
            </trkpt>
            <trkpt lat="55.162480" lon="-7.920820">
                <time>2019-06-14T14:23:58Z</time>
            </trkpt>
            <trkpt lat="55.162290" lon="-7.920800">
                <time>2019-06-14T14:23:59Z</time>
            </trkpt>
            <trkpt lat="55.162110" lon="-7.920780">
                <time>2019-06-14T14:24:00Z</time>
            </trkpt>
            <trkpt lat="55.161920" lon="-7.920750">
                <time>2019-06-14T14:24:01Z</time>
            </trkpt>
            <trkpt lat="55.161730" lon="-7.920730">
                <time>2019-06-14T14:24:02Z</time>
            </trkpt>
            <trkpt lat="55.161530" lon="-7.920710">
                <time>2019-06-14T14:24:03Z</time>
            </trkpt>
            <trkpt lat="55.161330" lon="-7.920700">
                <time>2019-06-14T14:24:04Z</time>
            </trkpt>
            <trkpt lat="55.161140" lon="-7.920700">
                <time>2019-06-14T14:24:05Z</time>
            </trkpt>
            <trkpt lat="55.160960" lon="-7.920710">
                <time>2019-06-14T14:24:06Z</time>
            </trkpt>
            <trkpt lat="55.160800" lon="-7.920740">
                <time>2019-06-14T14:24:07Z</time>
            </trkpt>
            <trkpt lat="55.160630" lon="-7.920770">
                <time>2019-06-14T14:24:08Z</time>
            </trkpt>
            <trkpt lat="55.160460" lon="-7.920830">
                <time>2019-06-14T14:24:09Z</time>
            </trkpt>
            <trkpt lat="55.160300" lon="-7.920920">
                <time>2019-06-14T14:24:10Z</time>
            </trkpt>
            <trkpt lat="55.160150" lon="-7.921050">
                <time>2019-06-14T14:24:11Z</time>
            </trkpt>
            <trkpt lat="55.160010" lon="-7.921210">
                <time>2019-06-14T14:24:12Z</time>
            </trkpt>
            <trkpt lat="55.159880" lon="-7.921370">
                <time>2019-06-14T14:24:13Z</time>
            </trkpt>
            <trkpt lat="55.159750" lon="-7.921540">
                <time>2019-06-14T14:24:14Z</time>
            </trkpt>
            <trkpt lat="55.159620" lon="-7.921710">
                <time>2019-06-14T14:24:15Z</time>
            </trkpt>
            <trkpt lat="55.159480" lon="-7.921900">
                <time>2019-06-14T14:24:16Z</time>
            </trkpt>
            <trkpt lat="55.159340" lon="-7.922080">
                <time>2019-06-14T14:24:17Z</time>
            </trkpt>
            <trkpt lat="55.159180" lon="-7.922280">
                <time>2019-06-14T14:24:18Z</time>
            </trkpt>
            <trkpt lat="55.159020" lon="-7.922480">
                <time>2019-06-14T14:24:19Z</time>
            </trkpt>
            <trkpt lat="55.158860" lon="-7.922670">
                <time>2019-06-14T14:24:20Z</time>
            </trkpt>
            <trkpt lat="55.158690" lon="-7.922860">
                <time>2019-06-14T14:24:21Z</time>
            </trkpt>
            <trkpt lat="55.158510" lon="-7.923050">
                <time>2019-06-14T14:24:22Z</time>
            </trkpt>
            <trkpt lat="55.158330" lon="-7.923230">
                <time>2019-06-14T14:24:23Z</time>
            </trkpt>
            <trkpt lat="55.158160" lon="-7.923400">
                <time>2019-06-14T14:24:24Z</time>
            </trkpt>
            <trkpt lat="55.157980" lon="-7.923560">
                <time>2019-06-14T14:24:25Z</time>
            </trkpt>
            <trkpt lat="55.157820" lon="-7.923710">
                <time>2019-06-14T14:24:26Z</time>
            </trkpt>
            <trkpt lat="55.157640" lon="-7.923870">
                <time>2019-06-14T14:24:27Z</time>
            </trkpt>
            <trkpt lat="55.157460" lon="-7.924030">
                <time>2019-06-14T14:24:28Z</time>
            </trkpt>
            <trkpt lat="55.157270" lon="-7.924190">
                <time>2019-06-14T14:24:29Z</time>
            </trkpt>
            <trkpt lat="55.157080" lon="-7.924350">
                <time>2019-06-14T14:24:30Z</time>
            </trkpt>
            <trkpt lat="55.156900" lon="-7.924520">
                <time>2019-06-14T14:24:31Z</time>
            </trkpt>
            <trkpt lat="55.156740" lon="-7.924680">
                <time>2019-06-14T14:24:32Z</time>
            </trkpt>
            <trkpt lat="55.156570" lon="-7.924840">
                <time>2019-06-14T14:24:33Z</time>
            </trkpt>
            <trkpt lat="55.156390" lon="-7.925000">
                <time>2019-06-14T14:24:34Z</time>
            </trkpt>
            <trkpt lat="55.156210" lon="-7.925170">
                <time>2019-06-14T14:24:35Z</time>
            </trkpt>
            <trkpt lat="55.156030" lon="-7.925350">
                <time>2019-06-14T14:24:36Z</time>
            </trkpt>
            <trkpt lat="55.155850" lon="-7.925500">
                <time>2019-06-14T14:24:37Z</time>
            </trkpt>
            <trkpt lat="55.155660" lon="-7.925650">
                <time>2019-06-14T14:24:38Z</time>
            </trkpt>
            <trkpt lat="55.155480" lon="-7.925780">
                <time>2019-06-14T14:24:39Z</time>
            </trkpt>
            <trkpt lat="55.155290" lon="-7.925910">
                <time>2019-06-14T14:24:40Z</time>
            </trkpt>
            <trkpt lat="55.155110" lon="-7.926030">
                <time>2019-06-14T14:24:41Z</time>
            </trkpt>
            <trkpt lat="55.154940" lon="-7.926140">
                <time>2019-06-14T14:24:42Z</time>
            </trkpt>
            <trkpt lat="55.154760" lon="-7.926260">
                <time>2019-06-14T14:24:43Z</time>
            </trkpt>
            <trkpt lat="55.154590" lon="-7.926370">
                <time>2019-06-14T14:24:44Z</time>
            </trkpt>
            <trkpt lat="55.154420" lon="-7.926460">
                <time>2019-06-14T14:24:45Z</time>
            </trkpt>
            <trkpt lat="55.154250" lon="-7.926560">
                <time>2019-06-14T14:24:46Z</time>
            </trkpt>
            <trkpt lat="55.154060" lon="-7.926670">
                <time>2019-06-14T14:24:47Z</time>
            </trkpt>
            <trkpt lat="55.153860" lon="-7.926790">
                <time>2019-06-14T14:24:48Z</time>
            </trkpt>
            <trkpt lat="55.153660" lon="-7.926920">
                <time>2019-06-14T14:24:49Z</time>
            </trkpt>
            <trkpt lat="55.153460" lon="-7.927060">
                <time>2019-06-14T14:24:50Z</time>
            </trkpt>
            <trkpt lat="55.153270" lon="-7.927190">
                <time>2019-06-14T14:24:51Z</time>
            </trkpt>
            <trkpt lat="55.153080" lon="-7.927310">
                <time>2019-06-14T14:24:52Z</time>
            </trkpt>
            <trkpt lat="55.152910" lon="-7.927420">
                <time>2019-06-14T14:24:53Z</time>
            </trkpt>
            <trkpt lat="55.152750" lon="-7.927530">
                <time>2019-06-14T14:24:54Z</time>
            </trkpt>
            <trkpt lat="55.152610" lon="-7.927620">
                <time>2019-06-14T14:24:55Z</time>
            </trkpt>
            <trkpt lat="55.152480" lon="-7.927710">
                <time>2019-06-14T14:24:56Z</time>
            </trkpt>
            <trkpt lat="55.152360" lon="-7.927790">
                <time>2019-06-14T14:24:57Z</time>
            </trkpt>
            <trkpt lat="55.152220" lon="-7.927880">
                <time>2019-06-14T14:24:58Z</time>
            </trkpt>
            <trkpt lat="55.152080" lon="-7.927970">
                <time>2019-06-14T14:24:59Z</time>
            </trkpt>
            <trkpt lat="55.151930" lon="-7.928070">
                <time>2019-06-14T14:25:00Z</time>
            </trkpt>
            <trkpt lat="55.151770" lon="-7.928150">
                <time>2019-06-14T14:25:01Z</time>
            </trkpt>
            <trkpt lat="55.151600" lon="-7.928240">
                <time>2019-06-14T14:25:02Z</time>
            </trkpt>
            <trkpt lat="55.151420" lon="-7.928300">
                <time>2019-06-14T14:25:03Z</time>
            </trkpt>
            <trkpt lat="55.151240" lon="-7.928340">
                <time>2019-06-14T14:25:04Z</time>
            </trkpt>
            <trkpt lat="55.151050" lon="-7.928370">
                <time>2019-06-14T14:25:05Z</time>
            </trkpt>
            <trkpt lat="55.150860" lon="-7.928360">
                <time>2019-06-14T14:25:06Z</time>
            </trkpt>
            <trkpt lat="55.150660" lon="-7.928350">
                <time>2019-06-14T14:25:07Z</time>
            </trkpt>
            <trkpt lat="55.150470" lon="-7.928320">
                <time>2019-06-14T14:25:08Z</time>
            </trkpt>
            <trkpt lat="55.150260" lon="-7.928290">
                <time>2019-06-14T14:25:09Z</time>
            </trkpt>
            <trkpt lat="55.150060" lon="-7.928270">
                <time>2019-06-14T14:25:10Z</time>
            </trkpt>
            <trkpt lat="55.149850" lon="-7.928270">
                <time>2019-06-14T14:25:11Z</time>
            </trkpt>
            <trkpt lat="55.149650" lon="-7.928290">
                <time>2019-06-14T14:25:12Z</time>
            </trkpt>
            <trkpt lat="55.149460" lon="-7.928340">
                <time>2019-06-14T14:25:13Z</time>
            </trkpt>
            <trkpt lat="55.149260" lon="-7.928420">
                <time>2019-06-14T14:25:14Z</time>
            </trkpt>
            <trkpt lat="55.149070" lon="-7.928510">
                <time>2019-06-14T14:25:15Z</time>
            </trkpt>
            <trkpt lat="55.148870" lon="-7.928620">
                <time>2019-06-14T14:25:16Z</time>
            </trkpt>
            <trkpt lat="55.148670" lon="-7.928730">
                <time>2019-06-14T14:25:17Z</time>
            </trkpt>
            <trkpt lat="55.148480" lon="-7.928830">
                <time>2019-06-14T14:25:18Z</time>
            </trkpt>
            <trkpt lat="55.148290" lon="-7.928930">
                <time>2019-06-14T14:25:19Z</time>
            </trkpt>
            <trkpt lat="55.148100" lon="-7.929020">
                <time>2019-06-14T14:25:20Z</time>
            </trkpt>
            <trkpt lat="55.147920" lon="-7.929100">
                <time>2019-06-14T14:25:21Z</time>
            </trkpt>
            <trkpt lat="55.147730" lon="-7.929180">
                <time>2019-06-14T14:25:22Z</time>
            </trkpt>
            <trkpt lat="55.147530" lon="-7.929230">
                <time>2019-06-14T14:25:23Z</time>
            </trkpt>
            <trkpt lat="55.147330" lon="-7.929250">
                <time>2019-06-14T14:25:24Z</time>
            </trkpt>
            <trkpt lat="55.147140" lon="-7.929210">
                <time>2019-06-14T14:25:25Z</time>
            </trkpt>
            <trkpt lat="55.146960" lon="-7.929150">
                <time>2019-06-14T14:25:26Z</time>
            </trkpt>
            <trkpt lat="55.146790" lon="-7.929070">
                <time>2019-06-14T14:25:27Z</time>
            </trkpt>
            <trkpt lat="55.146630" lon="-7.928970">
                <time>2019-06-14T14:25:28Z</time>
            </trkpt>
            <trkpt lat="55.146470" lon="-7.928870">
                <time>2019-06-14T14:25:29Z</time>
            </trkpt>
            <trkpt lat="55.146310" lon="-7.928760">
                <time>2019-06-14T14:25:30Z</time>
            </trkpt>
            <trkpt lat="55.146150" lon="-7.928630">
                <time>2019-06-14T14:25:31Z</time>
            </trkpt>
            <trkpt lat="55.145990" lon="-7.928470">
                <time>2019-06-14T14:25:32Z</time>
            </trkpt>
            <trkpt lat="55.145830" lon="-7.928290">
                <time>2019-06-14T14:25:33Z</time>
            </trkpt>
            <trkpt lat="55.145690" lon="-7.928090">
                <time>2019-06-14T14:25:34Z</time>
            </trkpt>
            <trkpt lat="55.145570" lon="-7.927890">
                <time>2019-06-14T14:25:35Z</time>
            </trkpt>
            <trkpt lat="55.145460" lon="-7.927690">
                <time>2019-06-14T14:25:36Z</time>
            </trkpt>
            <trkpt lat="55.145350" lon="-7.927440">
                <time>2019-06-14T14:25:37Z</time>
            </trkpt>
            <trkpt lat="55.145250" lon="-7.927180">
                <time>2019-06-14T14:25:38Z</time>
            </trkpt>
            <trkpt lat="55.145160" lon="-7.926890">
                <time>2019-06-14T14:25:39Z</time>
            </trkpt>
            <trkpt lat="55.145080" lon="-7.926620">
                <time>2019-06-14T14:25:40Z</time>
            </trkpt>
            <trkpt lat="55.145020" lon="-7.926360">
                <time>2019-06-14T14:25:41Z</time>
            </trkpt>
            <trkpt lat="55.144970" lon="-7.926080">
                <time>2019-06-14T14:25:42Z</time>
            </trkpt>
            <trkpt lat="55.144930" lon="-7.925790">
                <time>2019-06-14T14:25:43Z</time>
            </trkpt>
            <trkpt lat="55.144910" lon="-7.925480">
                <time>2019-06-14T14:25:44Z</time>
            </trkpt>
            <trkpt lat="55.144880" lon="-7.925150">
                <time>2019-06-14T14:25:45Z</time>
            </trkpt>
            <trkpt lat="55.144850" lon="-7.924810">
                <time>2019-06-14T14:25:46Z</time>
            </trkpt>
            <trkpt lat="55.144820" lon="-7.924460">
                <time>2019-06-14T14:25:47Z</time>
            </trkpt>
            <trkpt lat="55.144800" lon="-7.924120">
                <time>2019-06-14T14:25:48Z</time>
            </trkpt>
            <trkpt lat="55.144760" lon="-7.923800">
                <time>2019-06-14T14:25:49Z</time>
            </trkpt>
            <trkpt lat="55.144700" lon="-7.923480">
                <time>2019-06-14T14:25:50Z</time>
            </trkpt>
            <trkpt lat="55.144630" lon="-7.923180">
                <time>2019-06-14T14:25:51Z</time>
            </trkpt>
            <trkpt lat="55.144540" lon="-7.922890">
                <time>2019-06-14T14:25:52Z</time>
            </trkpt>
            <trkpt lat="55.144450" lon="-7.922630">
                <time>2019-06-14T14:25:53Z</time>
            </trkpt>
            <trkpt lat="55.144340" lon="-7.922390">
                <time>2019-06-14T14:25:54Z</time>
            </trkpt>
            <trkpt lat="55.144230" lon="-7.922150">
                <time>2019-06-14T14:25:55Z</time>
            </trkpt>
            <trkpt lat="55.144100" lon="-7.921890">
                <time>2019-06-14T14:25:56Z</time>
            </trkpt>
            <trkpt lat="55.143970" lon="-7.921610">
                <time>2019-06-14T14:25:57Z</time>
            </trkpt>
            <trkpt lat="55.143830" lon="-7.921330">
                <time>2019-06-14T14:25:58Z</time>
            </trkpt>
            <trkpt lat="55.143690" lon="-7.921060">
                <time>2019-06-14T14:25:59Z</time>
            </trkpt>
            <trkpt lat="55.143550" lon="-7.920790">
                <time>2019-06-14T14:26:00Z</time>
            </trkpt>
            <trkpt lat="55.143410" lon="-7.920510">
                <time>2019-06-14T14:26:01Z</time>
            </trkpt>
            <trkpt lat="55.143260" lon="-7.920240">
                <time>2019-06-14T14:26:02Z</time>
            </trkpt>
            <trkpt lat="55.143120" lon="-7.919980">
                <time>2019-06-14T14:26:03Z</time>
            </trkpt>
            <trkpt lat="55.142980" lon="-7.919720">
                <time>2019-06-14T14:26:04Z</time>
            </trkpt>
            <trkpt lat="55.142840" lon="-7.919460">
                <time>2019-06-14T14:26:05Z</time>
            </trkpt>
            <trkpt lat="55.142690" lon="-7.919190">
                <time>2019-06-14T14:26:06Z</time>
            </trkpt>
            <trkpt lat="55.142550" lon="-7.918930">
                <time>2019-06-14T14:26:07Z</time>
            </trkpt>
            <trkpt lat="55.142410" lon="-7.918670">
                <time>2019-06-14T14:26:08Z</time>
            </trkpt>
            <trkpt lat="55.142280" lon="-7.918430">
                <time>2019-06-14T14:26:09Z</time>
            </trkpt>
            <trkpt lat="55.142140" lon="-7.918180">
                <time>2019-06-14T14:26:10Z</time>
            </trkpt>
            <trkpt lat="55.142010" lon="-7.917940">
                <time>2019-06-14T14:26:11Z</time>
            </trkpt>
            <trkpt lat="55.141890" lon="-7.917720">
                <time>2019-06-14T14:26:12Z</time>
            </trkpt>
            <trkpt lat="55.141770" lon="-7.917520">
                <time>2019-06-14T14:26:13Z</time>
            </trkpt>
            <trkpt lat="55.141640" lon="-7.917340">
                <time>2019-06-14T14:26:14Z</time>
            </trkpt>
            <trkpt lat="55.141520" lon="-7.917180">
                <time>2019-06-14T14:26:15Z</time>
            </trkpt>
            <trkpt lat="55.141400" lon="-7.917020">
                <time>2019-06-14T14:26:16Z</time>
            </trkpt>
            <trkpt lat="55.141270" lon="-7.916870">
                <time>2019-06-14T14:26:17Z</time>
            </trkpt>
            <trkpt lat="55.141150" lon="-7.916720">
                <time>2019-06-14T14:26:18Z</time>
            </trkpt>
            <trkpt lat="55.141020" lon="-7.916560">
                <time>2019-06-14T14:26:19Z</time>
            </trkpt>
            <trkpt lat="55.140880" lon="-7.916390">
                <time>2019-06-14T14:26:20Z</time>
            </trkpt>
            <trkpt lat="55.140750" lon="-7.916220">
                <time>2019-06-14T14:26:21Z</time>
            </trkpt>
            <trkpt lat="55.140620" lon="-7.916050">
                <time>2019-06-14T14:26:22Z</time>
            </trkpt>
            <trkpt lat="55.140480" lon="-7.915910">
                <time>2019-06-14T14:26:23Z</time>
            </trkpt>
            <trkpt lat="55.140340" lon="-7.915800">
                <time>2019-06-14T14:26:24Z</time>
            </trkpt>
            <trkpt lat="55.140190" lon="-7.915700">
                <time>2019-06-14T14:26:25Z</time>
            </trkpt>
            <trkpt lat="55.140040" lon="-7.915630">
                <time>2019-06-14T14:26:26Z</time>
            </trkpt>
            <trkpt lat="55.139900" lon="-7.915570">
                <time>2019-06-14T14:26:27Z</time>
            </trkpt>
            <trkpt lat="55.139760" lon="-7.915520">
                <time>2019-06-14T14:26:28Z</time>
            </trkpt>
            <trkpt lat="55.139620" lon="-7.915480">
                <time>2019-06-14T14:26:29Z</time>
            </trkpt>
            <trkpt lat="55.139480" lon="-7.915430">
                <time>2019-06-14T14:26:30Z</time>
            </trkpt>
            <trkpt lat="55.139320" lon="-7.915370">
                <time>2019-06-14T14:26:31Z</time>
            </trkpt>
            <trkpt lat="55.139160" lon="-7.915320">
                <time>2019-06-14T14:26:32Z</time>
            </trkpt>
            <trkpt lat="55.139010" lon="-7.915280">
                <time>2019-06-14T14:26:33Z</time>
            </trkpt>
            <trkpt lat="55.138860" lon="-7.915240">
                <time>2019-06-14T14:26:34Z</time>
            </trkpt>
            <trkpt lat="55.138710" lon="-7.915200">
                <time>2019-06-14T14:26:35Z</time>
            </trkpt>
            <trkpt lat="55.138550" lon="-7.915150">
                <time>2019-06-14T14:26:36Z</time>
            </trkpt>
            <trkpt lat="55.138390" lon="-7.915110">
                <time>2019-06-14T14:26:37Z</time>
            </trkpt>
            <trkpt lat="55.138230" lon="-7.915060">
                <time>2019-06-14T14:26:38Z</time>
            </trkpt>
            <trkpt lat="55.138080" lon="-7.915010">
                <time>2019-06-14T14:26:39Z</time>
            </trkpt>
            <trkpt lat="55.137920" lon="-7.914970">
                <time>2019-06-14T14:26:40Z</time>
            </trkpt>
            <trkpt lat="55.137770" lon="-7.914920">
                <time>2019-06-14T14:26:41Z</time>
            </trkpt>
            <trkpt lat="55.137620" lon="-7.914880">
                <time>2019-06-14T14:26:42Z</time>
            </trkpt>
            <trkpt lat="55.137460" lon="-7.914850">
                <time>2019-06-14T14:26:43Z</time>
            </trkpt>
            <trkpt lat="55.137310" lon="-7.914820">
                <time>2019-06-14T14:26:44Z</time>
            </trkpt>
            <trkpt lat="55.137160" lon="-7.914780">
                <time>2019-06-14T14:26:45Z</time>
            </trkpt>
            <trkpt lat="55.137010" lon="-7.914740">
                <time>2019-06-14T14:26:46Z</time>
            </trkpt>
            <trkpt lat="55.136850" lon="-7.914730">
                <time>2019-06-14T14:26:47Z</time>
            </trkpt>
            <trkpt lat="55.136690" lon="-7.914730">
                <time>2019-06-14T14:26:48Z</time>
            </trkpt>
            <trkpt lat="55.136520" lon="-7.914760">
                <time>2019-06-14T14:26:49Z</time>
            </trkpt>
            <trkpt lat="55.136360" lon="-7.914820">
                <time>2019-06-14T14:26:50Z</time>
            </trkpt>
            <trkpt lat="55.136190" lon="-7.914880">
                <time>2019-06-14T14:26:51Z</time>
            </trkpt>
            <trkpt lat="55.136030" lon="-7.914940">
                <time>2019-06-14T14:26:52Z</time>
            </trkpt>
            <trkpt lat="55.135870" lon="-7.915000">
                <time>2019-06-14T14:26:53Z</time>
            </trkpt>
            <trkpt lat="55.135730" lon="-7.915050">
                <time>2019-06-14T14:26:54Z</time>
            </trkpt>
            <trkpt lat="55.135590" lon="-7.915100">
                <time>2019-06-14T14:26:55Z</time>
            </trkpt>
            <trkpt lat="55.135450" lon="-7.915160">
                <time>2019-06-14T14:26:56Z</time>
            </trkpt>
            <trkpt lat="55.135300" lon="-7.915220">
                <time>2019-06-14T14:26:57Z</time>
            </trkpt>
            <trkpt lat="55.135140" lon="-7.915290">
                <time>2019-06-14T14:26:58Z</time>
            </trkpt>
            <trkpt lat="55.134970" lon="-7.915360">
                <time>2019-06-14T14:26:59Z</time>
            </trkpt>
            <trkpt lat="55.134810" lon="-7.915420">
                <time>2019-06-14T14:27:00Z</time>
            </trkpt>
            <trkpt lat="55.134660" lon="-7.915490">
                <time>2019-06-14T14:27:01Z</time>
            </trkpt>
            <trkpt lat="55.134520" lon="-7.915560">
                <time>2019-06-14T14:27:02Z</time>
            </trkpt>
            <trkpt lat="55.134370" lon="-7.915630">
                <time>2019-06-14T14:27:03Z</time>
            </trkpt>
            <trkpt lat="55.134210" lon="-7.915710">
                <time>2019-06-14T14:27:04Z</time>
            </trkpt>
            <trkpt lat="55.134050" lon="-7.915780">
                <time>2019-06-14T14:27:05Z</time>
            </trkpt>
            <trkpt lat="55.133890" lon="-7.915840">
                <time>2019-06-14T14:27:06Z</time>
            </trkpt>
            <trkpt lat="55.133750" lon="-7.915910">
                <time>2019-06-14T14:27:07Z</time>
            </trkpt>
            <trkpt lat="55.133600" lon="-7.915960">
                <time>2019-06-14T14:27:08Z</time>
            </trkpt>
            <trkpt lat="55.133460" lon="-7.916030">
                <time>2019-06-14T14:27:09Z</time>
            </trkpt>
            <trkpt lat="55.133320" lon="-7.916080">
                <time>2019-06-14T14:27:10Z</time>
            </trkpt>
            <trkpt lat="55.133170" lon="-7.916130">
                <time>2019-06-14T14:27:11Z</time>
            </trkpt>
            <trkpt lat="55.133020" lon="-7.916170">
                <time>2019-06-14T14:27:12Z</time>
            </trkpt>
            <trkpt lat="55.132850" lon="-7.916200">
                <time>2019-06-14T14:27:13Z</time>
            </trkpt>
            <trkpt lat="55.132670" lon="-7.916220">
                <time>2019-06-14T14:27:14Z</time>
            </trkpt>
            <trkpt lat="55.132480" lon="-7.916180">
                <time>2019-06-14T14:27:15Z</time>
            </trkpt>
            <trkpt lat="55.132290" lon="-7.916120">
                <time>2019-06-14T14:27:16Z</time>
            </trkpt>
            <trkpt lat="55.132090" lon="-7.916030">
                <time>2019-06-14T14:27:17Z</time>
            </trkpt>
            <trkpt lat="55.131900" lon="-7.915900">
                <time>2019-06-14T14:27:18Z</time>
            </trkpt>
            <trkpt lat="55.131720" lon="-7.915740">
                <time>2019-06-14T14:27:19Z</time>
            </trkpt>
            <trkpt lat="55.131540" lon="-7.915570">
                <time>2019-06-14T14:27:20Z</time>
            </trkpt>
            <trkpt lat="55.131380" lon="-7.915420">
                <time>2019-06-14T14:27:21Z</time>
            </trkpt>
            <trkpt lat="55.131230" lon="-7.915290">
                <time>2019-06-14T14:27:22Z</time>
            </trkpt>
            <trkpt lat="55.131100" lon="-7.915160">
                <time>2019-06-14T14:27:23Z</time>
            </trkpt>
            <trkpt lat="55.130970" lon="-7.915040">
                <time>2019-06-14T14:27:24Z</time>
            </trkpt>
            <trkpt lat="55.130850" lon="-7.914920">
                <time>2019-06-14T14:27:25Z</time>
            </trkpt>
            <trkpt lat="55.130730" lon="-7.914800">
                <time>2019-06-14T14:27:26Z</time>
            </trkpt>
            <trkpt lat="55.130610" lon="-7.914690">
                <time>2019-06-14T14:27:27Z</time>
            </trkpt>
            <trkpt lat="55.130500" lon="-7.914570">
                <time>2019-06-14T14:27:28Z</time>
            </trkpt>
            <trkpt lat="55.130390" lon="-7.914460">
                <time>2019-06-14T14:27:29Z</time>
            </trkpt>
            <trkpt lat="55.130270" lon="-7.914350">
                <time>2019-06-14T14:27:30Z</time>
            </trkpt>
            <trkpt lat="55.130160" lon="-7.914230">
                <time>2019-06-14T14:27:31Z</time>
            </trkpt>
            <trkpt lat="55.130040" lon="-7.914120">
                <time>2019-06-14T14:27:32Z</time>
            </trkpt>
            <trkpt lat="55.129910" lon="-7.913990">
                <time>2019-06-14T14:27:33Z</time>
            </trkpt>
            <trkpt lat="55.129780" lon="-7.913880">
                <time>2019-06-14T14:27:34Z</time>
            </trkpt>
            <trkpt lat="55.129660" lon="-7.913770">
                <time>2019-06-14T14:27:35Z</time>
            </trkpt>
            <trkpt lat="55.129540" lon="-7.913660">
                <time>2019-06-14T14:27:36Z</time>
            </trkpt>
            <trkpt lat="55.129420" lon="-7.913550">
                <time>2019-06-14T14:27:37Z</time>
            </trkpt>
            <trkpt lat="55.129320" lon="-7.913460">
                <time>2019-06-14T14:27:38Z</time>
            </trkpt>
            <trkpt lat="55.129210" lon="-7.913360">
                <time>2019-06-14T14:27:39Z</time>
            </trkpt>
            <trkpt lat="55.129100" lon="-7.913280">
                <time>2019-06-14T14:27:40Z</time>
            </trkpt>
            <trkpt lat="55.128980" lon="-7.913200">
                <time>2019-06-14T14:27:41Z</time>
            </trkpt>
            <trkpt lat="55.128860" lon="-7.913130">
                <time>2019-06-14T14:27:42Z</time>
            </trkpt>
            <trkpt lat="55.128730" lon="-7.913060">
                <time>2019-06-14T14:27:43Z</time>
            </trkpt>
            <trkpt lat="55.128590" lon="-7.913010">
                <time>2019-06-14T14:27:44Z</time>
            </trkpt>
            <trkpt lat="55.128450" lon="-7.912980">
                <time>2019-06-14T14:27:45Z</time>
            </trkpt>
            <trkpt lat="55.128330" lon="-7.912960">
                <time>2019-06-14T14:27:46Z</time>
            </trkpt>
            <trkpt lat="55.128200" lon="-7.912950">
                <time>2019-06-14T14:27:47Z</time>
            </trkpt>
            <trkpt lat="55.128070" lon="-7.912960">
                <time>2019-06-14T14:27:48Z</time>
            </trkpt>
            <trkpt lat="55.127950" lon="-7.912960">
                <time>2019-06-14T14:27:49Z</time>
            </trkpt>
            <trkpt lat="55.127820" lon="-7.912970">
                <time>2019-06-14T14:27:50Z</time>
            </trkpt>
            <trkpt lat="55.127690" lon="-7.912990">
                <time>2019-06-14T14:27:51Z</time>
            </trkpt>
            <trkpt lat="55.127550" lon="-7.912990">
                <time>2019-06-14T14:27:52Z</time>
            </trkpt>
            <trkpt lat="55.127430" lon="-7.912990">
                <time>2019-06-14T14:27:53Z</time>
            </trkpt>
            <trkpt lat="55.127300" lon="-7.912980">
                <time>2019-06-14T14:27:54Z</time>
            </trkpt>
            <trkpt lat="55.127170" lon="-7.912960">
                <time>2019-06-14T14:27:55Z</time>
            </trkpt>
            <trkpt lat="55.127040" lon="-7.912950">
                <time>2019-06-14T14:27:56Z</time>
            </trkpt>
            <trkpt lat="55.126920" lon="-7.912920">
                <time>2019-06-14T14:27:57Z</time>
            </trkpt>
            <trkpt lat="55.126810" lon="-7.912880">
                <time>2019-06-14T14:27:58Z</time>
            </trkpt>
            <trkpt lat="55.126690" lon="-7.912840">
                <time>2019-06-14T14:27:59Z</time>
            </trkpt>
            <trkpt lat="55.126580" lon="-7.912790">
                <time>2019-06-14T14:28:00Z</time>
            </trkpt>
            <trkpt lat="55.126470" lon="-7.912730">
                <time>2019-06-14T14:28:01Z</time>
            </trkpt>
            <trkpt lat="55.126350" lon="-7.912660">
                <time>2019-06-14T14:28:02Z</time>
            </trkpt>
            <trkpt lat="55.126240" lon="-7.912600">
                <time>2019-06-14T14:28:03Z</time>
            </trkpt>
            <trkpt lat="55.126140" lon="-7.912530">
                <time>2019-06-14T14:28:04Z</time>
            </trkpt>
            <trkpt lat="55.126040" lon="-7.912470">
                <time>2019-06-14T14:28:05Z</time>
            </trkpt>
            <trkpt lat="55.125930" lon="-7.912390">
                <time>2019-06-14T14:28:06Z</time>
            </trkpt>
            <trkpt lat="55.125820" lon="-7.912320">
                <time>2019-06-14T14:28:07Z</time>
            </trkpt>
            <trkpt lat="55.125700" lon="-7.912240">
                <time>2019-06-14T14:28:08Z</time>
            </trkpt>
            <trkpt lat="55.125580" lon="-7.912160">
                <time>2019-06-14T14:28:09Z</time>
            </trkpt>
            <trkpt lat="55.125470" lon="-7.912100">
                <time>2019-06-14T14:28:10Z</time>
            </trkpt>
            <trkpt lat="55.125350" lon="-7.912030">
                <time>2019-06-14T14:28:11Z</time>
            </trkpt>
            <trkpt lat="55.125240" lon="-7.911950">
                <time>2019-06-14T14:28:12Z</time>
            </trkpt>
            <trkpt lat="55.125130" lon="-7.911890">
                <time>2019-06-14T14:28:13Z</time>
            </trkpt>
            <trkpt lat="55.125010" lon="-7.911810">
                <time>2019-06-14T14:28:14Z</time>
            </trkpt>
            <trkpt lat="55.124890" lon="-7.911730">
                <time>2019-06-14T14:28:15Z</time>
            </trkpt>
            <trkpt lat="55.124760" lon="-7.911650">
                <time>2019-06-14T14:28:16Z</time>
            </trkpt>
            <trkpt lat="55.124650" lon="-7.911570">
                <time>2019-06-14T14:28:17Z</time>
            </trkpt>
            <trkpt lat="55.124540" lon="-7.911490">
                <time>2019-06-14T14:28:18Z</time>
            </trkpt>
            <trkpt lat="55.124430" lon="-7.911400">
                <time>2019-06-14T14:28:19Z</time>
            </trkpt>
            <trkpt lat="55.124320" lon="-7.911300">
                <time>2019-06-14T14:28:20Z</time>
            </trkpt>
            <trkpt lat="55.124210" lon="-7.911180">
                <time>2019-06-14T14:28:21Z</time>
            </trkpt>
            <trkpt lat="55.124110" lon="-7.911020">
                <time>2019-06-14T14:28:22Z</time>
            </trkpt>
            <trkpt lat="55.124020" lon="-7.910840">
                <time>2019-06-14T14:28:23Z</time>
            </trkpt>
            <trkpt lat="55.123930" lon="-7.910650">
                <time>2019-06-14T14:28:24Z</time>
            </trkpt>
            <trkpt lat="55.123830" lon="-7.910460">
                <time>2019-06-14T14:28:25Z</time>
            </trkpt>
            <trkpt lat="55.123740" lon="-7.910260">
                <time>2019-06-14T14:28:26Z</time>
            </trkpt>
            <trkpt lat="55.123630" lon="-7.910050">
                <time>2019-06-14T14:28:27Z</time>
            </trkpt>
            <trkpt lat="55.123540" lon="-7.909840">
                <time>2019-06-14T14:28:28Z</time>
            </trkpt>
            <trkpt lat="55.123450" lon="-7.909640">
                <time>2019-06-14T14:28:29Z</time>
            </trkpt>
            <trkpt lat="55.123370" lon="-7.909470">
                <time>2019-06-14T14:28:30Z</time>
            </trkpt>
            <trkpt lat="55.123300" lon="-7.909330">
                <time>2019-06-14T14:28:31Z</time>
            </trkpt>
            <trkpt lat="55.123250" lon="-7.909220">
                <time>2019-06-14T14:28:32Z</time>
            </trkpt>
            <trkpt lat="55.123210" lon="-7.909130">
                <time>2019-06-14T14:28:33Z</time>
            </trkpt>
            <trkpt lat="55.123180" lon="-7.909080">
                <time>2019-06-14T14:28:34Z</time>
            </trkpt>
            <trkpt lat="55.123160" lon="-7.909050">
                <time>2019-06-14T14:28:35Z</time>
            </trkpt>
            <trkpt lat="55.123140" lon="-7.909020">
                <time>2019-06-14T14:28:36Z</time>
            </trkpt>
            <trkpt lat="55.123130" lon="-7.908990">
                <time>2019-06-14T14:28:37Z</time>
            </trkpt>
            <trkpt lat="55.123110" lon="-7.908960">
                <time>2019-06-14T14:28:38Z</time>
            </trkpt>
            <trkpt lat="55.123090" lon="-7.908910">
                <time>2019-06-14T14:28:39Z</time>
            </trkpt>
            <trkpt lat="55.123060" lon="-7.908840">
                <time>2019-06-14T14:28:40Z</time>
            </trkpt>
            <trkpt lat="55.123020" lon="-7.908760">
                <time>2019-06-14T14:28:41Z</time>
            </trkpt>
            <trkpt lat="55.122960" lon="-7.908660">
                <time>2019-06-14T14:28:42Z</time>
            </trkpt>
            <trkpt lat="55.122910" lon="-7.908550">
                <time>2019-06-14T14:28:43Z</time>
            </trkpt>
            <trkpt lat="55.122850" lon="-7.908460">
                <time>2019-06-14T14:28:44Z</time>
            </trkpt>
            <trkpt lat="55.122810" lon="-7.908360">
                <time>2019-06-14T14:28:45Z</time>
            </trkpt>
            <trkpt lat="55.122760" lon="-7.908250">
                <time>2019-06-14T14:28:46Z</time>
            </trkpt>
            <trkpt lat="55.122720" lon="-7.908150">
                <time>2019-06-14T14:28:47Z</time>
            </trkpt>
            <trkpt lat="55.122680" lon="-7.908060">
                <time>2019-06-14T14:28:48Z</time>
            </trkpt>
            <trkpt lat="55.122640" lon="-7.907960">
                <time>2019-06-14T14:28:49Z</time>
            </trkpt>
            <trkpt lat="55.122580" lon="-7.907850">
                <time>2019-06-14T14:28:50Z</time>
            </trkpt>
            <trkpt lat="55.122520" lon="-7.907740">
                <time>2019-06-14T14:28:51Z</time>
            </trkpt>
            <trkpt lat="55.122460" lon="-7.907620">
                <time>2019-06-14T14:28:52Z</time>
            </trkpt>
            <trkpt lat="55.122400" lon="-7.907520">
                <time>2019-06-14T14:28:53Z</time>
            </trkpt>
            <trkpt lat="55.122350" lon="-7.907440">
                <time>2019-06-14T14:28:54Z</time>
            </trkpt>
            <trkpt lat="55.122310" lon="-7.907360">
                <time>2019-06-14T14:28:55Z</time>
            </trkpt>
            <trkpt lat="55.122270" lon="-7.907280">
                <time>2019-06-14T14:28:56Z</time>
            </trkpt>
            <trkpt lat="55.122230" lon="-7.907220">
                <time>2019-06-14T14:28:57Z</time>
            </trkpt>
            <trkpt lat="55.122210" lon="-7.907180">
                <time>2019-06-14T14:28:58Z</time>
            </trkpt>
            <trkpt lat="55.122190" lon="-7.907150">
                <time>2019-06-14T14:28:59Z</time>
            </trkpt>
            <trkpt lat="55.122180" lon="-7.907140">
                <time>2019-06-14T14:29:00Z</time>
            </trkpt>
            <trkpt lat="55.122180" lon="-7.907140">
                <time>2019-06-14T14:29:01Z</time>
            </trkpt>
            <trkpt lat="55.122170" lon="-7.907140">
                <time>2019-06-14T14:29:02Z</time>
            </trkpt>
            <trkpt lat="55.122160" lon="-7.907130">
                <time>2019-06-14T14:29:03Z</time>
            </trkpt>
            <trkpt lat="55.122160" lon="-7.907120">
                <time>2019-06-14T14:29:04Z</time>
            </trkpt>
            <trkpt lat="55.122140" lon="-7.907100">
                <time>2019-06-14T14:29:05Z</time>
            </trkpt>
            <trkpt lat="55.122130" lon="-7.907080">
                <time>2019-06-14T14:29:06Z</time>
            </trkpt>
            <trkpt lat="55.122120" lon="-7.907060">
                <time>2019-06-14T14:29:07Z</time>
            </trkpt>
            <trkpt lat="55.122120" lon="-7.907050">
                <time>2019-06-14T14:29:08Z</time>
            </trkpt>
            <trkpt lat="55.122120" lon="-7.907040">
                <time>2019-06-14T14:29:09Z</time>
            </trkpt>
            <trkpt lat="55.122110" lon="-7.907040">
                <time>2019-06-14T14:29:10Z</time>
            </trkpt>
            <trkpt lat="55.122100" lon="-7.907030">
                <time>2019-06-14T14:29:11Z</time>
            </trkpt>
            <trkpt lat="55.122080" lon="-7.907000">
                <time>2019-06-14T14:29:12Z</time>
            </trkpt>
            <trkpt lat="55.122030" lon="-7.906920">
                <time>2019-06-14T14:29:13Z</time>
            </trkpt>
            <trkpt lat="55.121980" lon="-7.906850">
                <time>2019-06-14T14:29:14Z</time>
            </trkpt>
            <trkpt lat="55.121920" lon="-7.906780">
                <time>2019-06-14T14:29:15Z</time>
            </trkpt>
            <trkpt lat="55.121860" lon="-7.906710">
                <time>2019-06-14T14:29:16Z</time>
            </trkpt>
            <trkpt lat="55.121810" lon="-7.906630">
                <time>2019-06-14T14:29:17Z</time>
            </trkpt>
            <trkpt lat="55.121760" lon="-7.906560">
                <time>2019-06-14T14:29:18Z</time>
            </trkpt>
            <trkpt lat="55.121720" lon="-7.906490">
                <time>2019-06-14T14:29:19Z</time>
            </trkpt>
            <trkpt lat="55.121690" lon="-7.906420">
                <time>2019-06-14T14:29:20Z</time>
            </trkpt>
            <trkpt lat="55.121670" lon="-7.906360">
                <time>2019-06-14T14:29:21Z</time>
            </trkpt>
            <trkpt lat="55.121650" lon="-7.906320">
                <time>2019-06-14T14:29:22Z</time>
            </trkpt>
            <trkpt lat="55.121620" lon="-7.906270">
                <time>2019-06-14T14:29:23Z</time>
            </trkpt>
            <trkpt lat="55.121590" lon="-7.906200">
                <time>2019-06-14T14:29:24Z</time>
            </trkpt>
            <trkpt lat="55.121560" lon="-7.906110">
                <time>2019-06-14T14:29:25Z</time>
            </trkpt>
            <trkpt lat="55.121510" lon="-7.906010">
                <time>2019-06-14T14:29:26Z</time>
            </trkpt>
            <trkpt lat="55.121470" lon="-7.905930">
                <time>2019-06-14T14:29:27Z</time>
            </trkpt>
            <trkpt lat="55.121440" lon="-7.905850">
                <time>2019-06-14T14:29:28Z</time>
            </trkpt>
            <trkpt lat="55.121400" lon="-7.905770">
                <time>2019-06-14T14:29:29Z</time>
            </trkpt>
            <trkpt lat="55.121360" lon="-7.905660">
                <time>2019-06-14T14:29:30Z</time>
            </trkpt>
            <trkpt lat="55.121320" lon="-7.905540">
                <time>2019-06-14T14:29:31Z</time>
            </trkpt>
            <trkpt lat="55.121270" lon="-7.905440">
                <time>2019-06-14T14:29:32Z</time>
            </trkpt>
            <trkpt lat="55.121210" lon="-7.905320">
                <time>2019-06-14T14:29:33Z</time>
            </trkpt>
            <trkpt lat="55.121140" lon="-7.905180">
                <time>2019-06-14T14:29:34Z</time>
            </trkpt>
            <trkpt lat="55.121080" lon="-7.905040">
                <time>2019-06-14T14:29:35Z</time>
            </trkpt>
            <trkpt lat="55.121020" lon="-7.904910">
                <time>2019-06-14T14:29:36Z</time>
            </trkpt>
            <trkpt lat="55.120950" lon="-7.904780">
                <time>2019-06-14T14:29:37Z</time>
            </trkpt>
            <trkpt lat="55.120860" lon="-7.904680">
                <time>2019-06-14T14:29:38Z</time>
            </trkpt>
            <trkpt lat="55.120780" lon="-7.904620">
                <time>2019-06-14T14:29:39Z</time>
            </trkpt>
            <trkpt lat="55.120680" lon="-7.904590">
                <time>2019-06-14T14:29:40Z</time>
            </trkpt>
            <trkpt lat="55.120580" lon="-7.904580">
                <time>2019-06-14T14:29:41Z</time>
            </trkpt>
            <trkpt lat="55.120470" lon="-7.904580">
                <time>2019-06-14T14:29:42Z</time>
            </trkpt>
            <trkpt lat="55.120350" lon="-7.904620">
                <time>2019-06-14T14:29:43Z</time>
            </trkpt>
            <trkpt lat="55.120220" lon="-7.904680">
                <time>2019-06-14T14:29:44Z</time>
            </trkpt>
            <trkpt lat="55.120090" lon="-7.904760">
                <time>2019-06-14T14:29:45Z</time>
            </trkpt>
            <trkpt lat="55.119970" lon="-7.904850">
                <time>2019-06-14T14:29:46Z</time>
            </trkpt>
            <trkpt lat="55.119860" lon="-7.904930">
                <time>2019-06-14T14:29:47Z</time>
            </trkpt>
            <trkpt lat="55.119760" lon="-7.905010">
                <time>2019-06-14T14:29:48Z</time>
            </trkpt>
            <trkpt lat="55.119670" lon="-7.905080">
                <time>2019-06-14T14:29:49Z</time>
            </trkpt>
            <trkpt lat="55.119580" lon="-7.905150">
                <time>2019-06-14T14:29:50Z</time>
            </trkpt>
            <trkpt lat="55.119490" lon="-7.905220">
                <time>2019-06-14T14:29:51Z</time>
            </trkpt>
            <trkpt lat="55.119400" lon="-7.905290">
                <time>2019-06-14T14:29:52Z</time>
            </trkpt>
            <trkpt lat="55.119310" lon="-7.905360">
                <time>2019-06-14T14:29:53Z</time>
            </trkpt>
            <trkpt lat="55.119220" lon="-7.905430">
                <time>2019-06-14T14:29:54Z</time>
            </trkpt>
            <trkpt lat="55.119130" lon="-7.905490">
                <time>2019-06-14T14:29:55Z</time>
            </trkpt>
            <trkpt lat="55.119040" lon="-7.905560">
                <time>2019-06-14T14:29:56Z</time>
            </trkpt>
            <trkpt lat="55.118940" lon="-7.905630">
                <time>2019-06-14T14:29:57Z</time>
            </trkpt>
            <trkpt lat="55.118830" lon="-7.905690">
                <time>2019-06-14T14:29:58Z</time>
            </trkpt>
            <trkpt lat="55.118720" lon="-7.905760">
                <time>2019-06-14T14:29:59Z</time>
            </trkpt>
            <trkpt lat="55.118600" lon="-7.905820">
                <time>2019-06-14T14:30:00Z</time>
            </trkpt>
            <trkpt lat="55.118470" lon="-7.905870">
                <time>2019-06-14T14:30:01Z</time>
            </trkpt>
            <trkpt lat="55.118340" lon="-7.905930">
                <time>2019-06-14T14:30:02Z</time>
            </trkpt>
            <trkpt lat="55.118210" lon="-7.905990">
                <time>2019-06-14T14:30:03Z</time>
            </trkpt>
            <trkpt lat="55.118070" lon="-7.906050">
                <time>2019-06-14T14:30:04Z</time>
            </trkpt>
            <trkpt lat="55.117930" lon="-7.906110">
                <time>2019-06-14T14:30:05Z</time>
            </trkpt>
            <trkpt lat="55.117790" lon="-7.906170">
                <time>2019-06-14T14:30:06Z</time>
            </trkpt>
            <trkpt lat="55.117660" lon="-7.906220">
                <time>2019-06-14T14:30:07Z</time>
            </trkpt>
            <trkpt lat="55.117540" lon="-7.906280">
                <time>2019-06-14T14:30:08Z</time>
            </trkpt>
            <trkpt lat="55.117410" lon="-7.906330">
                <time>2019-06-14T14:30:09Z</time>
            </trkpt>
            <trkpt lat="55.117290" lon="-7.906380">
                <time>2019-06-14T14:30:10Z</time>
            </trkpt>
            <trkpt lat="55.117170" lon="-7.906420">
                <time>2019-06-14T14:30:11Z</time>
            </trkpt>
            <trkpt lat="55.117050" lon="-7.906470">
                <time>2019-06-14T14:30:12Z</time>
            </trkpt>
            <trkpt lat="55.116930" lon="-7.906520">
                <time>2019-06-14T14:30:13Z</time>
            </trkpt>
            <trkpt lat="55.116800" lon="-7.906570">
                <time>2019-06-14T14:30:14Z</time>
            </trkpt>
            <trkpt lat="55.116670" lon="-7.906620">
                <time>2019-06-14T14:30:15Z</time>
            </trkpt>
            <trkpt lat="55.116530" lon="-7.906680">
                <time>2019-06-14T14:30:16Z</time>
            </trkpt>
            <trkpt lat="55.116390" lon="-7.906760">
                <time>2019-06-14T14:30:17Z</time>
            </trkpt>
            <trkpt lat="55.116250" lon="-7.906830">
                <time>2019-06-14T14:30:18Z</time>
            </trkpt>
            <trkpt lat="55.116130" lon="-7.906910">
                <time>2019-06-14T14:30:19Z</time>
            </trkpt>
            <trkpt lat="55.116000" lon="-7.906990">
                <time>2019-06-14T14:30:20Z</time>
            </trkpt>
            <trkpt lat="55.115880" lon="-7.907070">
                <time>2019-06-14T14:30:21Z</time>
            </trkpt>
            <trkpt lat="55.115750" lon="-7.907160">
                <time>2019-06-14T14:30:22Z</time>
            </trkpt>
            <trkpt lat="55.115620" lon="-7.907250">
                <time>2019-06-14T14:30:23Z</time>
            </trkpt>
            <trkpt lat="55.115480" lon="-7.907350">
                <time>2019-06-14T14:30:24Z</time>
            </trkpt>
            <trkpt lat="55.115340" lon="-7.907450">
                <time>2019-06-14T14:30:25Z</time>
            </trkpt>
            <trkpt lat="55.115190" lon="-7.907550">
                <time>2019-06-14T14:30:26Z</time>
            </trkpt>
            <trkpt lat="55.115050" lon="-7.907650">
                <time>2019-06-14T14:30:27Z</time>
            </trkpt>
            <trkpt lat="55.114910" lon="-7.907750">
                <time>2019-06-14T14:30:28Z</time>
            </trkpt>
            <trkpt lat="55.114760" lon="-7.907850">
                <time>2019-06-14T14:30:29Z</time>
            </trkpt>
            <trkpt lat="55.114620" lon="-7.907950">
                <time>2019-06-14T14:30:30Z</time>
            </trkpt>
            <trkpt lat="55.114480" lon="-7.908040">
                <time>2019-06-14T14:30:31Z</time>
            </trkpt>
            <trkpt lat="55.114340" lon="-7.908110">
                <time>2019-06-14T14:30:32Z</time>
            </trkpt>
            <trkpt lat="55.114190" lon="-7.908160">
                <time>2019-06-14T14:30:33Z</time>
            </trkpt>
            <trkpt lat="55.114040" lon="-7.908200">
                <time>2019-06-14T14:30:34Z</time>
            </trkpt>
            <trkpt lat="55.113880" lon="-7.908200">
                <time>2019-06-14T14:30:35Z</time>
            </trkpt>
            <trkpt lat="55.113730" lon="-7.908190">
                <time>2019-06-14T14:30:36Z</time>
            </trkpt>
            <trkpt lat="55.113590" lon="-7.908160">
                <time>2019-06-14T14:30:37Z</time>
            </trkpt>
            <trkpt lat="55.113450" lon="-7.908140">
                <time>2019-06-14T14:30:38Z</time>
            </trkpt>
            <trkpt lat="55.113300" lon="-7.908120">
                <time>2019-06-14T14:30:39Z</time>
            </trkpt>
            <trkpt lat="55.113160" lon="-7.908090">
                <time>2019-06-14T14:30:40Z</time>
            </trkpt>
            <trkpt lat="55.113030" lon="-7.908070">
                <time>2019-06-14T14:30:41Z</time>
            </trkpt>
            <trkpt lat="55.112920" lon="-7.908050">
                <time>2019-06-14T14:30:42Z</time>
            </trkpt>
            <trkpt lat="55.112830" lon="-7.908040">
                <time>2019-06-14T14:30:43Z</time>
            </trkpt>
            <trkpt lat="55.112760" lon="-7.908030">
                <time>2019-06-14T14:30:44Z</time>
            </trkpt>
            <trkpt lat="55.112710" lon="-7.908020">
                <time>2019-06-14T14:30:45Z</time>
            </trkpt>
            <trkpt lat="55.112670" lon="-7.908000">
                <time>2019-06-14T14:30:46Z</time>
            </trkpt>
            <trkpt lat="55.112630" lon="-7.907970">
                <time>2019-06-14T14:30:47Z</time>
            </trkpt>
            <trkpt lat="55.112600" lon="-7.907920">
                <time>2019-06-14T14:30:48Z</time>
            </trkpt>
            <trkpt lat="55.112600" lon="-7.907830">
                <time>2019-06-14T14:30:49Z</time>
            </trkpt>
            <trkpt lat="55.112610" lon="-7.907740">
                <time>2019-06-14T14:30:50Z</time>
            </trkpt>
            <trkpt lat="55.112630" lon="-7.907620">
                <time>2019-06-14T14:30:51Z</time>
            </trkpt>
            <trkpt lat="55.112680" lon="-7.907490">
                <time>2019-06-14T14:30:52Z</time>
            </trkpt>
            <trkpt lat="55.112740" lon="-7.907370">
                <time>2019-06-14T14:30:53Z</time>
            </trkpt>
            <trkpt lat="55.112800" lon="-7.907220">
                <time>2019-06-14T14:30:54Z</time>
            </trkpt>
            <trkpt lat="55.112860" lon="-7.907060">
                <time>2019-06-14T14:30:55Z</time>
            </trkpt>
            <trkpt lat="55.112930" lon="-7.906900">
                <time>2019-06-14T14:30:56Z</time>
            </trkpt>
            <trkpt lat="55.113000" lon="-7.906730">
                <time>2019-06-14T14:30:57Z</time>
            </trkpt>
            <trkpt lat="55.113080" lon="-7.906560">
                <time>2019-06-14T14:30:58Z</time>
            </trkpt>
            <trkpt lat="55.113140" lon="-7.906390">
                <time>2019-06-14T14:30:59Z</time>
            </trkpt>
            <trkpt lat="55.113210" lon="-7.906230">
                <time>2019-06-14T14:31:00Z</time>
            </trkpt>
            <trkpt lat="55.113280" lon="-7.906060">
                <time>2019-06-14T14:31:01Z</time>
            </trkpt>
            <trkpt lat="55.113350" lon="-7.905900">
                <time>2019-06-14T14:31:02Z</time>
            </trkpt>
            <trkpt lat="55.113410" lon="-7.905740">
                <time>2019-06-14T14:31:03Z</time>
            </trkpt>
            <trkpt lat="55.113480" lon="-7.905590">
                <time>2019-06-14T14:31:04Z</time>
            </trkpt>
            <trkpt lat="55.113550" lon="-7.905430">
                <time>2019-06-14T14:31:05Z</time>
            </trkpt>
            <trkpt lat="55.113620" lon="-7.905260">
                <time>2019-06-14T14:31:06Z</time>
            </trkpt>
            <trkpt lat="55.113700" lon="-7.905080">
                <time>2019-06-14T14:31:07Z</time>
            </trkpt>
            <trkpt lat="55.113790" lon="-7.904910">
                <time>2019-06-14T14:31:08Z</time>
            </trkpt>
            <trkpt lat="55.113870" lon="-7.904720">
                <time>2019-06-14T14:31:09Z</time>
            </trkpt>
            <trkpt lat="55.113960" lon="-7.904540">
                <time>2019-06-14T14:31:10Z</time>
            </trkpt>
            <trkpt lat="55.114040" lon="-7.904360">
                <time>2019-06-14T14:31:11Z</time>
            </trkpt>
            <trkpt lat="55.114120" lon="-7.904180">
                <time>2019-06-14T14:31:12Z</time>
            </trkpt>
            <trkpt lat="55.114200" lon="-7.904000">
                <time>2019-06-14T14:31:13Z</time>
            </trkpt>
            <trkpt lat="55.114280" lon="-7.903820">
                <time>2019-06-14T14:31:14Z</time>
            </trkpt>
            <trkpt lat="55.114370" lon="-7.903640">
                <time>2019-06-14T14:31:15Z</time>
            </trkpt>
            <trkpt lat="55.114470" lon="-7.903450">
                <time>2019-06-14T14:31:16Z</time>
            </trkpt>
            <trkpt lat="55.114570" lon="-7.903250">
                <time>2019-06-14T14:31:17Z</time>
            </trkpt>
            <trkpt lat="55.114680" lon="-7.903030">
                <time>2019-06-14T14:31:18Z</time>
            </trkpt>
            <trkpt lat="55.114790" lon="-7.902810">
                <time>2019-06-14T14:31:19Z</time>
            </trkpt>
            <trkpt lat="55.114900" lon="-7.902560">
                <time>2019-06-14T14:31:20Z</time>
            </trkpt>
            <trkpt lat="55.115000" lon="-7.902300">
                <time>2019-06-14T14:31:21Z</time>
            </trkpt>
            <trkpt lat="55.115110" lon="-7.902050">
                <time>2019-06-14T14:31:22Z</time>
            </trkpt>
            <trkpt lat="55.115210" lon="-7.901830">
                <time>2019-06-14T14:31:23Z</time>
            </trkpt>
            <trkpt lat="55.115330" lon="-7.901600">
                <time>2019-06-14T14:31:24Z</time>
            </trkpt>
            <trkpt lat="55.115440" lon="-7.901380">
                <time>2019-06-14T14:31:25Z</time>
            </trkpt>
            <trkpt lat="55.115550" lon="-7.901170">
                <time>2019-06-14T14:31:26Z</time>
            </trkpt>
            <trkpt lat="55.115640" lon="-7.900960">
                <time>2019-06-14T14:31:27Z</time>
            </trkpt>
            <trkpt lat="55.115730" lon="-7.900750">
                <time>2019-06-14T14:31:28Z</time>
            </trkpt>
            <trkpt lat="55.115820" lon="-7.900510">
                <time>2019-06-14T14:31:29Z</time>
            </trkpt>
            <trkpt lat="55.115910" lon="-7.900270">
                <time>2019-06-14T14:31:30Z</time>
            </trkpt>
            <trkpt lat="55.116020" lon="-7.900020">
                <time>2019-06-14T14:31:31Z</time>
            </trkpt>
            <trkpt lat="55.116130" lon="-7.899780">
                <time>2019-06-14T14:31:32Z</time>
            </trkpt>
            <trkpt lat="55.116230" lon="-7.899520">
                <time>2019-06-14T14:31:33Z</time>
            </trkpt>
            <trkpt lat="55.116330" lon="-7.899260">
                <time>2019-06-14T14:31:34Z</time>
            </trkpt>
            <trkpt lat="55.116430" lon="-7.899000">
                <time>2019-06-14T14:31:35Z</time>
            </trkpt>
            <trkpt lat="55.116530" lon="-7.898750">
                <time>2019-06-14T14:31:36Z</time>
            </trkpt>
            <trkpt lat="55.116630" lon="-7.898510">
                <time>2019-06-14T14:31:37Z</time>
            </trkpt>
            <trkpt lat="55.116720" lon="-7.898260">
                <time>2019-06-14T14:31:38Z</time>
            </trkpt>
            <trkpt lat="55.116800" lon="-7.898040">
                <time>2019-06-14T14:31:39Z</time>
            </trkpt>
            <trkpt lat="55.116890" lon="-7.897850">
                <time>2019-06-14T14:31:40Z</time>
            </trkpt>
            <trkpt lat="55.116980" lon="-7.897680">
                <time>2019-06-14T14:31:41Z</time>
            </trkpt>
            <trkpt lat="55.117080" lon="-7.897520">
                <time>2019-06-14T14:31:42Z</time>
            </trkpt>
            <trkpt lat="55.117190" lon="-7.897350">
                <time>2019-06-14T14:31:43Z</time>
            </trkpt>
            <trkpt lat="55.117310" lon="-7.897170">
                <time>2019-06-14T14:31:44Z</time>
            </trkpt>
            <trkpt lat="55.117430" lon="-7.897000">
                <time>2019-06-14T14:31:45Z</time>
            </trkpt>
            <trkpt lat="55.117560" lon="-7.896840">
                <time>2019-06-14T14:31:46Z</time>
            </trkpt>
            <trkpt lat="55.117680" lon="-7.896660">
                <time>2019-06-14T14:31:47Z</time>
            </trkpt>
            <trkpt lat="55.117800" lon="-7.896470">
                <time>2019-06-14T14:31:48Z</time>
            </trkpt>
            <trkpt lat="55.117910" lon="-7.896270">
                <time>2019-06-14T14:31:49Z</time>
            </trkpt>
            <trkpt lat="55.118020" lon="-7.896060">
                <time>2019-06-14T14:31:50Z</time>
            </trkpt>
            <trkpt lat="55.118110" lon="-7.895850">
                <time>2019-06-14T14:31:51Z</time>
            </trkpt>
            <trkpt lat="55.118200" lon="-7.895650">
                <time>2019-06-14T14:31:52Z</time>
            </trkpt>
            <trkpt lat="55.118270" lon="-7.895480">
                <time>2019-06-14T14:31:53Z</time>
            </trkpt>
            <trkpt lat="55.118350" lon="-7.895360">
                <time>2019-06-14T14:31:54Z</time>
            </trkpt>
            <trkpt lat="55.118430" lon="-7.895280">
                <time>2019-06-14T14:31:55Z</time>
            </trkpt>
            <trkpt lat="55.118530" lon="-7.895210">
                <time>2019-06-14T14:31:56Z</time>
            </trkpt>
            <trkpt lat="55.118640" lon="-7.895120">
                <time>2019-06-14T14:31:57Z</time>
            </trkpt>
            <trkpt lat="55.118740" lon="-7.895000">
                <time>2019-06-14T14:31:58Z</time>
            </trkpt>
            <trkpt lat="55.118840" lon="-7.894850">
                <time>2019-06-14T14:31:59Z</time>
            </trkpt>
            <trkpt lat="55.118940" lon="-7.894670">
                <time>2019-06-14T14:32:00Z</time>
            </trkpt>
            <trkpt lat="55.119020" lon="-7.894470">
                <time>2019-06-14T14:32:01Z</time>
            </trkpt>
            <trkpt lat="55.119100" lon="-7.894240">
                <time>2019-06-14T14:32:02Z</time>
            </trkpt>
            <trkpt lat="55.119170" lon="-7.894000">
                <time>2019-06-14T14:32:03Z</time>
            </trkpt>
            <trkpt lat="55.119240" lon="-7.893720">
                <time>2019-06-14T14:32:04Z</time>
            </trkpt>
            <trkpt lat="55.119300" lon="-7.893410">
                <time>2019-06-14T14:32:05Z</time>
            </trkpt>
            <trkpt lat="55.119360" lon="-7.893070">
                <time>2019-06-14T14:32:06Z</time>
            </trkpt>
            <trkpt lat="55.119430" lon="-7.892730">
                <time>2019-06-14T14:32:07Z</time>
            </trkpt>
            <trkpt lat="55.119500" lon="-7.892360">
                <time>2019-06-14T14:32:08Z</time>
            </trkpt>
            <trkpt lat="55.119580" lon="-7.891980">
                <time>2019-06-14T14:32:09Z</time>
            </trkpt>
            <trkpt lat="55.119650" lon="-7.891610">
                <time>2019-06-14T14:32:10Z</time>
            </trkpt>
            <trkpt lat="55.119740" lon="-7.891250">
                <time>2019-06-14T14:32:11Z</time>
            </trkpt>
            <trkpt lat="55.119820" lon="-7.890910">
                <time>2019-06-14T14:32:12Z</time>
            </trkpt>
            <trkpt lat="55.119900" lon="-7.890600">
                <time>2019-06-14T14:32:13Z</time>
            </trkpt>
            <trkpt lat="55.119990" lon="-7.890320">
                <time>2019-06-14T14:32:14Z</time>
            </trkpt>
            <trkpt lat="55.120070" lon="-7.890050">
                <time>2019-06-14T14:32:15Z</time>
            </trkpt>
            <trkpt lat="55.120170" lon="-7.889780">
                <time>2019-06-14T14:32:16Z</time>
            </trkpt>
            <trkpt lat="55.120270" lon="-7.889480">
                <time>2019-06-14T14:32:17Z</time>
            </trkpt>
            <trkpt lat="55.120350" lon="-7.889160">
                <time>2019-06-14T14:32:18Z</time>
            </trkpt>
            <trkpt lat="55.120430" lon="-7.888820">
                <time>2019-06-14T14:32:19Z</time>
            </trkpt>
            <trkpt lat="55.120510" lon="-7.888460">
                <time>2019-06-14T14:32:20Z</time>
            </trkpt>
            <trkpt lat="55.120600" lon="-7.888100">
                <time>2019-06-14T14:32:21Z</time>
            </trkpt>
            <trkpt lat="55.120680" lon="-7.887720">
                <time>2019-06-14T14:32:22Z</time>
            </trkpt>
            <trkpt lat="55.120760" lon="-7.887370">
                <time>2019-06-14T14:32:23Z</time>
            </trkpt>
            <trkpt lat="55.120840" lon="-7.887010">
                <time>2019-06-14T14:32:24Z</time>
            </trkpt>
            <trkpt lat="55.120920" lon="-7.886660">
                <time>2019-06-14T14:32:25Z</time>
            </trkpt>
            <trkpt lat="55.121010" lon="-7.886300">
                <time>2019-06-14T14:32:26Z</time>
            </trkpt>
            <trkpt lat="55.121090" lon="-7.885950">
                <time>2019-06-14T14:32:27Z</time>
            </trkpt>
            <trkpt lat="55.121170" lon="-7.885590">
                <time>2019-06-14T14:32:28Z</time>
            </trkpt>
            <trkpt lat="55.121250" lon="-7.885260">
                <time>2019-06-14T14:32:29Z</time>
            </trkpt>
            <trkpt lat="55.121330" lon="-7.884950">
                <time>2019-06-14T14:32:30Z</time>
            </trkpt>
            <trkpt lat="55.121420" lon="-7.884650">
                <time>2019-06-14T14:32:31Z</time>
            </trkpt>
            <trkpt lat="55.121510" lon="-7.884370">
                <time>2019-06-14T14:32:32Z</time>
            </trkpt>
            <trkpt lat="55.121600" lon="-7.884120">
                <time>2019-06-14T14:32:33Z</time>
            </trkpt>
            <trkpt lat="55.121700" lon="-7.883880">
                <time>2019-06-14T14:32:34Z</time>
            </trkpt>
            <trkpt lat="55.121790" lon="-7.883640">
                <time>2019-06-14T14:32:35Z</time>
            </trkpt>
            <trkpt lat="55.121890" lon="-7.883370">
                <time>2019-06-14T14:32:36Z</time>
            </trkpt>
            <trkpt lat="55.122000" lon="-7.883110">
                <time>2019-06-14T14:32:37Z</time>
            </trkpt>
            <trkpt lat="55.122090" lon="-7.882870">
                <time>2019-06-14T14:32:38Z</time>
            </trkpt>
            <trkpt lat="55.122190" lon="-7.882630">
                <time>2019-06-14T14:32:39Z</time>
            </trkpt>
            <trkpt lat="55.122290" lon="-7.882400">
                <time>2019-06-14T14:32:40Z</time>
            </trkpt>
            <trkpt lat="55.122380" lon="-7.882140">
                <time>2019-06-14T14:32:41Z</time>
            </trkpt>
            <trkpt lat="55.122480" lon="-7.881880">
                <time>2019-06-14T14:32:42Z</time>
            </trkpt>
            <trkpt lat="55.122580" lon="-7.881620">
                <time>2019-06-14T14:32:43Z</time>
            </trkpt>
            <trkpt lat="55.122680" lon="-7.881350">
                <time>2019-06-14T14:32:44Z</time>
            </trkpt>
            <trkpt lat="55.122770" lon="-7.881090">
                <time>2019-06-14T14:32:45Z</time>
            </trkpt>
            <trkpt lat="55.122860" lon="-7.880840">
                <time>2019-06-14T14:32:46Z</time>
            </trkpt>
            <trkpt lat="55.122950" lon="-7.880600">
                <time>2019-06-14T14:32:47Z</time>
            </trkpt>
            <trkpt lat="55.123040" lon="-7.880360">
                <time>2019-06-14T14:32:48Z</time>
            </trkpt>
            <trkpt lat="55.123130" lon="-7.880120">
                <time>2019-06-14T14:32:49Z</time>
            </trkpt>
            <trkpt lat="55.123220" lon="-7.879880">
                <time>2019-06-14T14:32:50Z</time>
            </trkpt>
            <trkpt lat="55.123310" lon="-7.879630">
                <time>2019-06-14T14:32:51Z</time>
            </trkpt>
            <trkpt lat="55.123400" lon="-7.879370">
                <time>2019-06-14T14:32:52Z</time>
            </trkpt>
            <trkpt lat="55.123490" lon="-7.879100">
                <time>2019-06-14T14:32:53Z</time>
            </trkpt>
            <trkpt lat="55.123590" lon="-7.878830">
                <time>2019-06-14T14:32:54Z</time>
            </trkpt>
            <trkpt lat="55.123680" lon="-7.878570">
                <time>2019-06-14T14:32:55Z</time>
            </trkpt>
            <trkpt lat="55.123770" lon="-7.878310">
                <time>2019-06-14T14:32:56Z</time>
            </trkpt>
            <trkpt lat="55.123850" lon="-7.878060">
                <time>2019-06-14T14:32:57Z</time>
            </trkpt>
            <trkpt lat="55.123920" lon="-7.877830">
                <time>2019-06-14T14:32:58Z</time>
            </trkpt>
            <trkpt lat="55.124000" lon="-7.877590">
                <time>2019-06-14T14:32:59Z</time>
            </trkpt>
            <trkpt lat="55.124080" lon="-7.877340">
                <time>2019-06-14T14:33:00Z</time>
            </trkpt>
            <trkpt lat="55.124160" lon="-7.877090">
                <time>2019-06-14T14:33:01Z</time>
            </trkpt>
            <trkpt lat="55.124230" lon="-7.876830">
                <time>2019-06-14T14:33:02Z</time>
            </trkpt>
            <trkpt lat="55.124310" lon="-7.876570">
                <time>2019-06-14T14:33:03Z</time>
            </trkpt>
            <trkpt lat="55.124380" lon="-7.876300">
                <time>2019-06-14T14:33:04Z</time>
            </trkpt>
            <trkpt lat="55.124440" lon="-7.876020">
                <time>2019-06-14T14:33:05Z</time>
            </trkpt>
            <trkpt lat="55.124500" lon="-7.875730">
                <time>2019-06-14T14:33:06Z</time>
            </trkpt>
            <trkpt lat="55.124550" lon="-7.875440">
                <time>2019-06-14T14:33:07Z</time>
            </trkpt>
            <trkpt lat="55.124600" lon="-7.875180">
                <time>2019-06-14T14:33:08Z</time>
            </trkpt>
            <trkpt lat="55.124650" lon="-7.874920">
                <time>2019-06-14T14:33:09Z</time>
            </trkpt>
            <trkpt lat="55.124710" lon="-7.874660">
                <time>2019-06-14T14:33:10Z</time>
            </trkpt>
            <trkpt lat="55.124760" lon="-7.874390">
                <time>2019-06-14T14:33:11Z</time>
            </trkpt>
            <trkpt lat="55.124810" lon="-7.874110">
                <time>2019-06-14T14:33:12Z</time>
            </trkpt>
            <trkpt lat="55.124860" lon="-7.873830">
                <time>2019-06-14T14:33:13Z</time>
            </trkpt>
            <trkpt lat="55.124920" lon="-7.873540">
                <time>2019-06-14T14:33:14Z</time>
            </trkpt>
            <trkpt lat="55.124980" lon="-7.873240">
                <time>2019-06-14T14:33:15Z</time>
            </trkpt>
            <trkpt lat="55.125040" lon="-7.872940">
                <time>2019-06-14T14:33:16Z</time>
            </trkpt>
            <trkpt lat="55.125100" lon="-7.872630">
                <time>2019-06-14T14:33:17Z</time>
            </trkpt>
            <trkpt lat="55.125160" lon="-7.872330">
                <time>2019-06-14T14:33:18Z</time>
            </trkpt>
            <trkpt lat="55.125220" lon="-7.872040">
                <time>2019-06-14T14:33:19Z</time>
            </trkpt>
            <trkpt lat="55.125270" lon="-7.871760">
                <time>2019-06-14T14:33:20Z</time>
            </trkpt>
            <trkpt lat="55.125330" lon="-7.871460">
                <time>2019-06-14T14:33:21Z</time>
            </trkpt>
            <trkpt lat="55.125400" lon="-7.871160">
                <time>2019-06-14T14:33:22Z</time>
            </trkpt>
            <trkpt lat="55.125460" lon="-7.870850">
                <time>2019-06-14T14:33:23Z</time>
            </trkpt>
            <trkpt lat="55.125520" lon="-7.870530">
                <time>2019-06-14T14:33:24Z</time>
            </trkpt>
            <trkpt lat="55.125590" lon="-7.870200">
                <time>2019-06-14T14:33:25Z</time>
            </trkpt>
            <trkpt lat="55.125650" lon="-7.869880">
                <time>2019-06-14T14:33:26Z</time>
            </trkpt>
            <trkpt lat="55.125710" lon="-7.869570">
                <time>2019-06-14T14:33:27Z</time>
            </trkpt>
            <trkpt lat="55.125780" lon="-7.869260">
                <time>2019-06-14T14:33:28Z</time>
            </trkpt>
            <trkpt lat="55.125830" lon="-7.868950">
                <time>2019-06-14T14:33:29Z</time>
            </trkpt>
            <trkpt lat="55.125890" lon="-7.868640">
                <time>2019-06-14T14:33:30Z</time>
            </trkpt>
            <trkpt lat="55.125950" lon="-7.868340">
                <time>2019-06-14T14:33:31Z</time>
            </trkpt>
            <trkpt lat="55.126020" lon="-7.868030">
                <time>2019-06-14T14:33:32Z</time>
            </trkpt>
            <trkpt lat="55.126070" lon="-7.867740">
                <time>2019-06-14T14:33:33Z</time>
            </trkpt>
            <trkpt lat="55.126130" lon="-7.867460">
                <time>2019-06-14T14:33:34Z</time>
            </trkpt>
            <trkpt lat="55.126190" lon="-7.867170">
                <time>2019-06-14T14:33:35Z</time>
            </trkpt>
            <trkpt lat="55.126250" lon="-7.866890">
                <time>2019-06-14T14:33:36Z</time>
            </trkpt>
            <trkpt lat="55.126310" lon="-7.866600">
                <time>2019-06-14T14:33:37Z</time>
            </trkpt>
            <trkpt lat="55.126370" lon="-7.866310">
                <time>2019-06-14T14:33:38Z</time>
            </trkpt>
            <trkpt lat="55.126430" lon="-7.866050">
                <time>2019-06-14T14:33:39Z</time>
            </trkpt>
            <trkpt lat="55.126490" lon="-7.865780">
                <time>2019-06-14T14:33:40Z</time>
            </trkpt>
            <trkpt lat="55.126540" lon="-7.865520">
                <time>2019-06-14T14:33:41Z</time>
            </trkpt>
            <trkpt lat="55.126580" lon="-7.865270">
                <time>2019-06-14T14:33:42Z</time>
            </trkpt>
            <trkpt lat="55.126620" lon="-7.865000">
                <time>2019-06-14T14:33:43Z</time>
            </trkpt>
            <trkpt lat="55.126660" lon="-7.864700">
                <time>2019-06-14T14:33:44Z</time>
            </trkpt>
            <trkpt lat="55.126710" lon="-7.864400">
                <time>2019-06-14T14:33:45Z</time>
            </trkpt>
            <trkpt lat="55.126760" lon="-7.864100">
                <time>2019-06-14T14:33:46Z</time>
            </trkpt>
            <trkpt lat="55.126800" lon="-7.863810">
                <time>2019-06-14T14:33:47Z</time>
            </trkpt>
            <trkpt lat="55.126840" lon="-7.863560">
                <time>2019-06-14T14:33:48Z</time>
            </trkpt>
            <trkpt lat="55.126860" lon="-7.863330">
                <time>2019-06-14T14:33:49Z</time>
            </trkpt>
            <trkpt lat="55.126890" lon="-7.863140">
                <time>2019-06-14T14:33:50Z</time>
            </trkpt>
            <trkpt lat="55.126910" lon="-7.862970">
                <time>2019-06-14T14:33:51Z</time>
            </trkpt>
            <trkpt lat="55.126930" lon="-7.862830">
                <time>2019-06-14T14:33:52Z</time>
            </trkpt>
            <trkpt lat="55.126940" lon="-7.862700">
                <time>2019-06-14T14:33:53Z</time>
            </trkpt>
            <trkpt lat="55.126950" lon="-7.862590">
                <time>2019-06-14T14:33:54Z</time>
            </trkpt>
            <trkpt lat="55.126950" lon="-7.862520">
                <time>2019-06-14T14:33:55Z</time>
            </trkpt>
            <trkpt lat="55.126950" lon="-7.862480">
                <time>2019-06-14T14:33:56Z</time>
            </trkpt>
            <trkpt lat="55.126950" lon="-7.862450">
                <time>2019-06-14T14:33:57Z</time>
            </trkpt>
            <trkpt lat="55.126950" lon="-7.862440">
                <time>2019-06-14T14:33:58Z</time>
            </trkpt>
            <trkpt lat="55.126950" lon="-7.862440">
                <time>2019-06-14T14:33:59Z</time>
            </trkpt>
            <trkpt lat="55.126950" lon="-7.862450">
                <time>2019-06-14T14:34:00Z</time>
            </trkpt>
            <trkpt lat="55.126950" lon="-7.862450">
                <time>2019-06-14T14:34:01Z</time>
            </trkpt>
            <trkpt lat="55.126950" lon="-7.862450">
                <time>2019-06-14T14:34:02Z</time>
            </trkpt>
            <trkpt lat="55.126950" lon="-7.862450">
                <time>2019-06-14T14:34:03Z</time>
            </trkpt>
            <trkpt lat="55.126950" lon="-7.862450">
                <time>2019-06-14T14:34:04Z</time>
            </trkpt>
            <trkpt lat="55.126950" lon="-7.862450">
                <time>2019-06-14T14:34:05Z</time>
            </trkpt>
            <trkpt lat="55.126950" lon="-7.862450">
                <time>2019-06-14T14:34:06Z</time>
            </trkpt>
            <trkpt lat="55.126950" lon="-7.862460">
                <time>2019-06-14T14:34:07Z</time>
            </trkpt>
            <trkpt lat="55.126950" lon="-7.862460">
                <time>2019-06-14T14:34:08Z</time>
            </trkpt>
            <trkpt lat="55.126950" lon="-7.862460">
                <time>2019-06-14T14:34:09Z</time>
            </trkpt>
            <trkpt lat="55.126950" lon="-7.862450">
                <time>2019-06-14T14:34:10Z</time>
            </trkpt>
            <trkpt lat="55.126950" lon="-7.862450">
                <time>2019-06-14T14:34:11Z</time>
            </trkpt>
            <trkpt lat="55.126950" lon="-7.862450">
                <time>2019-06-14T14:34:12Z</time>
            </trkpt>
            <trkpt lat="55.126950" lon="-7.862450">
                <time>2019-06-14T14:34:13Z</time>
            </trkpt>
            <trkpt lat="55.126950" lon="-7.862450">
                <time>2019-06-14T14:34:14Z</time>
            </trkpt>
            <trkpt lat="55.126950" lon="-7.862450">
                <time>2019-06-14T14:34:15Z</time>
            </trkpt>
            <trkpt lat="55.126950" lon="-7.862450">
                <time>2019-06-14T14:34:16Z</time>
            </trkpt>
            <trkpt lat="55.126950" lon="-7.862450">
                <time>2019-06-14T14:34:17Z</time>
            </trkpt>
            <trkpt lat="55.126950" lon="-7.862450">
                <time>2019-06-14T14:34:18Z</time>
            </trkpt>
            <trkpt lat="55.126950" lon="-7.862440">
                <time>2019-06-14T14:34:19Z</time>
            </trkpt>
            <trkpt lat="55.126950" lon="-7.862420">
                <time>2019-06-14T14:34:20Z</time>
            </trkpt>
            <trkpt lat="55.126960" lon="-7.862400">
                <time>2019-06-14T14:34:21Z</time>
            </trkpt>
            <trkpt lat="55.126960" lon="-7.862390">
                <time>2019-06-14T14:34:22Z</time>
            </trkpt>
            <trkpt lat="55.126960" lon="-7.862360">
                <time>2019-06-14T14:34:23Z</time>
            </trkpt>
            <trkpt lat="55.126960" lon="-7.862350">
                <time>2019-06-14T14:34:24Z</time>
            </trkpt>
            <trkpt lat="55.126960" lon="-7.862350">
                <time>2019-06-14T14:34:25Z</time>
            </trkpt>
            <trkpt lat="55.126960" lon="-7.862350">
                <time>2019-06-14T14:34:26Z</time>
            </trkpt>
            <trkpt lat="55.126960" lon="-7.862360">
                <time>2019-06-14T14:34:27Z</time>
            </trkpt>
            <trkpt lat="55.126960" lon="-7.862360">
                <time>2019-06-14T14:34:28Z</time>
            </trkpt>
            <trkpt lat="55.126960" lon="-7.862370">
                <time>2019-06-14T14:34:29Z</time>
            </trkpt>
            <trkpt lat="55.126960" lon="-7.862370">
                <time>2019-06-14T14:34:30Z</time>
            </trkpt>
            <trkpt lat="55.126960" lon="-7.862370">
                <time>2019-06-14T14:34:31Z</time>
            </trkpt>
            <trkpt lat="55.126960" lon="-7.862350">
                <time>2019-06-14T14:34:32Z</time>
            </trkpt>
            <trkpt lat="55.126970" lon="-7.862340">
                <time>2019-06-14T14:34:33Z</time>
            </trkpt>
            <trkpt lat="55.126970" lon="-7.862320">
                <time>2019-06-14T14:34:34Z</time>
            </trkpt>
            <trkpt lat="55.126970" lon="-7.862320">
                <time>2019-06-14T14:34:35Z</time>
            </trkpt>
            <trkpt lat="55.126970" lon="-7.862320">
                <time>2019-06-14T14:34:36Z</time>
            </trkpt>
            <trkpt lat="55.126970" lon="-7.862330">
                <time>2019-06-14T14:34:37Z</time>
            </trkpt>
            <trkpt lat="55.126970" lon="-7.862330">
                <time>2019-06-14T14:34:38Z</time>
            </trkpt>
            <trkpt lat="55.126970" lon="-7.862330">
                <time>2019-06-14T14:34:39Z</time>
            </trkpt>
            <trkpt lat="55.126970" lon="-7.862330">
                <time>2019-06-14T14:34:40Z</time>
            </trkpt>
            <trkpt lat="55.126980" lon="-7.862330">
                <time>2019-06-14T14:34:41Z</time>
            </trkpt>
            <trkpt lat="55.127000" lon="-7.862340">
                <time>2019-06-14T14:34:42Z</time>
            </trkpt>
            <trkpt lat="55.127010" lon="-7.862390">
                <time>2019-06-14T14:34:43Z</time>
            </trkpt>
            <trkpt lat="55.126970" lon="-7.862560">
                <time>2019-06-14T14:34:44Z</time>
            </trkpt>
            <trkpt lat="55.126930" lon="-7.862770">
                <time>2019-06-14T14:34:45Z</time>
            </trkpt>
            <trkpt lat="55.126890" lon="-7.863000">
                <time>2019-06-14T14:34:46Z</time>
            </trkpt>
            <trkpt lat="55.126860" lon="-7.863250">
                <time>2019-06-14T14:34:47Z</time>
            </trkpt>
            <trkpt lat="55.126820" lon="-7.863520">
                <time>2019-06-14T14:34:48Z</time>
            </trkpt>
            <trkpt lat="55.126790" lon="-7.863760">
                <time>2019-06-14T14:34:49Z</time>
            </trkpt>
            <trkpt lat="55.126750" lon="-7.864000">
                <time>2019-06-14T14:34:50Z</time>
            </trkpt>
            <trkpt lat="55.126720" lon="-7.864260">
                <time>2019-06-14T14:34:51Z</time>
            </trkpt>
            <trkpt lat="55.126680" lon="-7.864520">
                <time>2019-06-14T14:34:52Z</time>
            </trkpt>
            <trkpt lat="55.126640" lon="-7.864770">
                <time>2019-06-14T14:34:53Z</time>
            </trkpt>
            <trkpt lat="55.126600" lon="-7.865000">
                <time>2019-06-14T14:34:54Z</time>
            </trkpt>
            <trkpt lat="55.126570" lon="-7.865230">
                <time>2019-06-14T14:34:55Z</time>
            </trkpt>
            <trkpt lat="55.126530" lon="-7.865460">
                <time>2019-06-14T14:34:56Z</time>
            </trkpt>
            <trkpt lat="55.126490" lon="-7.865690">
                <time>2019-06-14T14:34:57Z</time>
            </trkpt>
            <trkpt lat="55.126440" lon="-7.865930">
                <time>2019-06-14T14:34:58Z</time>
            </trkpt>
            <trkpt lat="55.126380" lon="-7.866200">
                <time>2019-06-14T14:34:59Z</time>
            </trkpt>
            <trkpt lat="55.126320" lon="-7.866480">
                <time>2019-06-14T14:35:00Z</time>
            </trkpt>
            <trkpt lat="55.126270" lon="-7.866730">
                <time>2019-06-14T14:35:01Z</time>
            </trkpt>
            <trkpt lat="55.126230" lon="-7.866970">
                <time>2019-06-14T14:35:02Z</time>
            </trkpt>
            <trkpt lat="55.126190" lon="-7.867160">
                <time>2019-06-14T14:35:03Z</time>
            </trkpt>
            <trkpt lat="55.126150" lon="-7.867340">
                <time>2019-06-14T14:35:04Z</time>
            </trkpt>
            <trkpt lat="55.126120" lon="-7.867500">
                <time>2019-06-14T14:35:05Z</time>
            </trkpt>
            <trkpt lat="55.126080" lon="-7.867660">
                <time>2019-06-14T14:35:06Z</time>
            </trkpt>
            <trkpt lat="55.126050" lon="-7.867810">
                <time>2019-06-14T14:35:07Z</time>
            </trkpt>
            <trkpt lat="55.126030" lon="-7.867960">
                <time>2019-06-14T14:35:08Z</time>
            </trkpt>
            <trkpt lat="55.126000" lon="-7.868110">
                <time>2019-06-14T14:35:09Z</time>
            </trkpt>
            <trkpt lat="55.125970" lon="-7.868240">
                <time>2019-06-14T14:35:10Z</time>
            </trkpt>
            <trkpt lat="55.125950" lon="-7.868350">
                <time>2019-06-14T14:35:11Z</time>
            </trkpt>
            <trkpt lat="55.125920" lon="-7.868460">
                <time>2019-06-14T14:35:12Z</time>
            </trkpt>
            <trkpt lat="55.125900" lon="-7.868560">
                <time>2019-06-14T14:35:13Z</time>
            </trkpt>
            <trkpt lat="55.125870" lon="-7.868660">
                <time>2019-06-14T14:35:14Z</time>
            </trkpt>
            <trkpt lat="55.125850" lon="-7.868760">
                <time>2019-06-14T14:35:15Z</time>
            </trkpt>
            <trkpt lat="55.125840" lon="-7.868820">
                <time>2019-06-14T14:35:16Z</time>
            </trkpt>
            <trkpt lat="55.125830" lon="-7.868860">
                <time>2019-06-14T14:35:17Z</time>
            </trkpt>
            <trkpt lat="55.125830" lon="-7.868900">
                <time>2019-06-14T14:35:18Z</time>
            </trkpt>
            <trkpt lat="55.125810" lon="-7.868950">
                <time>2019-06-14T14:35:19Z</time>
            </trkpt>
            <trkpt lat="55.125800" lon="-7.869010">
                <time>2019-06-14T14:35:20Z</time>
            </trkpt>
            <trkpt lat="55.125790" lon="-7.869090">
                <time>2019-06-14T14:35:21Z</time>
            </trkpt>
            <trkpt lat="55.125770" lon="-7.869160">
                <time>2019-06-14T14:35:22Z</time>
            </trkpt>
            <trkpt lat="55.125750" lon="-7.869230">
                <time>2019-06-14T14:35:23Z</time>
            </trkpt>
            <trkpt lat="55.125740" lon="-7.869310">
                <time>2019-06-14T14:35:24Z</time>
            </trkpt>
            <trkpt lat="55.125730" lon="-7.869390">
                <time>2019-06-14T14:35:25Z</time>
            </trkpt>
            <trkpt lat="55.125750" lon="-7.869480">
                <time>2019-06-14T14:35:26Z</time>
            </trkpt>
            <trkpt lat="55.125790" lon="-7.869540">
                <time>2019-06-14T14:35:27Z</time>
            </trkpt>
            <trkpt lat="55.125840" lon="-7.869580">
                <time>2019-06-14T14:35:28Z</time>
            </trkpt>
            <trkpt lat="55.125890" lon="-7.869620">
                <time>2019-06-14T14:35:29Z</time>
            </trkpt>
            <trkpt lat="55.125950" lon="-7.869660">
                <time>2019-06-14T14:35:30Z</time>
            </trkpt>
            <trkpt lat="55.126020" lon="-7.869690">
                <time>2019-06-14T14:35:31Z</time>
            </trkpt>
            <trkpt lat="55.126090" lon="-7.869700">
                <time>2019-06-14T14:35:32Z</time>
            </trkpt>
            <trkpt lat="55.126170" lon="-7.869700">
                <time>2019-06-14T14:35:33Z</time>
            </trkpt>
            <trkpt lat="55.126240" lon="-7.869700">
                <time>2019-06-14T14:35:34Z</time>
            </trkpt>
            <trkpt lat="55.126320" lon="-7.869690">
                <time>2019-06-14T14:35:35Z</time>
            </trkpt>
            <trkpt lat="55.126390" lon="-7.869670">
                <time>2019-06-14T14:35:36Z</time>
            </trkpt>
            <trkpt lat="55.126460" lon="-7.869640">
                <time>2019-06-14T14:35:37Z</time>
            </trkpt>
            <trkpt lat="55.126540" lon="-7.869620">
                <time>2019-06-14T14:35:38Z</time>
            </trkpt>
            <trkpt lat="55.126620" lon="-7.869580">
                <time>2019-06-14T14:35:39Z</time>
            </trkpt>
            <trkpt lat="55.126700" lon="-7.869540">
                <time>2019-06-14T14:35:40Z</time>
            </trkpt>
            <trkpt lat="55.126780" lon="-7.869510">
                <time>2019-06-14T14:35:41Z</time>
            </trkpt>
            <trkpt lat="55.126850" lon="-7.869470">
                <time>2019-06-14T14:35:42Z</time>
            </trkpt>
            <trkpt lat="55.126920" lon="-7.869440">
                <time>2019-06-14T14:35:43Z</time>
            </trkpt>
            <trkpt lat="55.126990" lon="-7.869400">
                <time>2019-06-14T14:35:44Z</time>
            </trkpt>
            <trkpt lat="55.127070" lon="-7.869360">
                <time>2019-06-14T14:35:45Z</time>
            </trkpt>
            <trkpt lat="55.127130" lon="-7.869320">
                <time>2019-06-14T14:35:46Z</time>
            </trkpt>
            <trkpt lat="55.127190" lon="-7.869290">
                <time>2019-06-14T14:35:47Z</time>
            </trkpt>
            <trkpt lat="55.127260" lon="-7.869250">
                <time>2019-06-14T14:35:48Z</time>
            </trkpt>
            <trkpt lat="55.127330" lon="-7.869210">
                <time>2019-06-14T14:35:49Z</time>
            </trkpt>
            <trkpt lat="55.127400" lon="-7.869180">
                <time>2019-06-14T14:35:50Z</time>
            </trkpt>
            <trkpt lat="55.127480" lon="-7.869130">
                <time>2019-06-14T14:35:51Z</time>
            </trkpt>
            <trkpt lat="55.127570" lon="-7.869090">
                <time>2019-06-14T14:35:52Z</time>
            </trkpt>
            <trkpt lat="55.127650" lon="-7.869060">
                <time>2019-06-14T14:35:53Z</time>
            </trkpt>
            <trkpt lat="55.127740" lon="-7.869020">
                <time>2019-06-14T14:35:54Z</time>
            </trkpt>
            <trkpt lat="55.127820" lon="-7.868980">
                <time>2019-06-14T14:35:55Z</time>
            </trkpt>
            <trkpt lat="55.127920" lon="-7.868940">
                <time>2019-06-14T14:35:56Z</time>
            </trkpt>
            <trkpt lat="55.128010" lon="-7.868890">
                <time>2019-06-14T14:35:57Z</time>
            </trkpt>
            <trkpt lat="55.128100" lon="-7.868840">
                <time>2019-06-14T14:35:58Z</time>
            </trkpt>
            <trkpt lat="55.128210" lon="-7.868800">
                <time>2019-06-14T14:35:59Z</time>
            </trkpt>
            <trkpt lat="55.128310" lon="-7.868750">
                <time>2019-06-14T14:36:00Z</time>
            </trkpt>
            <trkpt lat="55.128410" lon="-7.868710">
                <time>2019-06-14T14:36:01Z</time>
            </trkpt>
            <trkpt lat="55.128490" lon="-7.868670">
                <time>2019-06-14T14:36:02Z</time>
            </trkpt>
            <trkpt lat="55.128570" lon="-7.868630">
                <time>2019-06-14T14:36:03Z</time>
            </trkpt>
            <trkpt lat="55.128660" lon="-7.868590">
                <time>2019-06-14T14:36:04Z</time>
            </trkpt>
            <trkpt lat="55.128760" lon="-7.868550">
                <time>2019-06-14T14:36:05Z</time>
            </trkpt>
            <trkpt lat="55.128850" lon="-7.868510">
                <time>2019-06-14T14:36:06Z</time>
            </trkpt>
            <trkpt lat="55.128930" lon="-7.868470">
                <time>2019-06-14T14:36:07Z</time>
            </trkpt>
            <trkpt lat="55.129010" lon="-7.868440">
                <time>2019-06-14T14:36:08Z</time>
            </trkpt>
            <trkpt lat="55.129090" lon="-7.868410">
                <time>2019-06-14T14:36:09Z</time>
            </trkpt>
            <trkpt lat="55.129170" lon="-7.868380">
                <time>2019-06-14T14:36:10Z</time>
            </trkpt>
            <trkpt lat="55.129270" lon="-7.868350">
                <time>2019-06-14T14:36:11Z</time>
            </trkpt>
            <trkpt lat="55.129360" lon="-7.868310">
                <time>2019-06-14T14:36:12Z</time>
            </trkpt>
            <trkpt lat="55.129450" lon="-7.868290">
                <time>2019-06-14T14:36:13Z</time>
            </trkpt>
            <trkpt lat="55.129530" lon="-7.868280">
                <time>2019-06-14T14:36:14Z</time>
            </trkpt>
            <trkpt lat="55.129610" lon="-7.868280">
                <time>2019-06-14T14:36:15Z</time>
            </trkpt>
            <trkpt lat="55.129680" lon="-7.868310">
                <time>2019-06-14T14:36:16Z</time>
            </trkpt>
            <trkpt lat="55.129750" lon="-7.868360">
                <time>2019-06-14T14:36:17Z</time>
            </trkpt>
            <trkpt lat="55.129830" lon="-7.868430">
                <time>2019-06-14T14:36:18Z</time>
            </trkpt>
            <trkpt lat="55.129920" lon="-7.868510">
                <time>2019-06-14T14:36:19Z</time>
            </trkpt>
            <trkpt lat="55.130030" lon="-7.868610">
                <time>2019-06-14T14:36:20Z</time>
            </trkpt>
            <trkpt lat="55.130140" lon="-7.868720">
                <time>2019-06-14T14:36:21Z</time>
            </trkpt>
            <trkpt lat="55.130240" lon="-7.868840">
                <time>2019-06-14T14:36:22Z</time>
            </trkpt>
            <trkpt lat="55.130330" lon="-7.868960">
                <time>2019-06-14T14:36:23Z</time>
            </trkpt>
            <trkpt lat="55.130420" lon="-7.869070">
                <time>2019-06-14T14:36:24Z</time>
            </trkpt>
            <trkpt lat="55.130510" lon="-7.869180">
                <time>2019-06-14T14:36:25Z</time>
            </trkpt>
            <trkpt lat="55.130600" lon="-7.869290">
                <time>2019-06-14T14:36:26Z</time>
            </trkpt>
            <trkpt lat="55.130700" lon="-7.869410">
                <time>2019-06-14T14:36:27Z</time>
            </trkpt>
            <trkpt lat="55.130800" lon="-7.869500">
                <time>2019-06-14T14:36:28Z</time>
            </trkpt>
            <trkpt lat="55.130890" lon="-7.869570">
                <time>2019-06-14T14:36:29Z</time>
            </trkpt>
            <trkpt lat="55.130970" lon="-7.869590">
                <time>2019-06-14T14:36:30Z</time>
            </trkpt>
            <trkpt lat="55.131040" lon="-7.869570">
                <time>2019-06-14T14:36:31Z</time>
            </trkpt>
            <trkpt lat="55.131100" lon="-7.869530">
                <time>2019-06-14T14:36:32Z</time>
            </trkpt>
            <trkpt lat="55.131170" lon="-7.869470">
                <time>2019-06-14T14:36:33Z</time>
            </trkpt>
            <trkpt lat="55.131250" lon="-7.869430">
                <time>2019-06-14T14:36:34Z</time>
            </trkpt>
            <trkpt lat="55.131330" lon="-7.869390">
                <time>2019-06-14T14:36:35Z</time>
            </trkpt>
            <trkpt lat="55.131430" lon="-7.869360">
                <time>2019-06-14T14:36:36Z</time>
            </trkpt>
            <trkpt lat="55.131530" lon="-7.869350">
                <time>2019-06-14T14:36:37Z</time>
            </trkpt>
            <trkpt lat="55.131640" lon="-7.869330">
                <time>2019-06-14T14:36:38Z</time>
            </trkpt>
            <trkpt lat="55.131750" lon="-7.869320">
                <time>2019-06-14T14:36:39Z</time>
            </trkpt>
            <trkpt lat="55.131850" lon="-7.869300">
                <time>2019-06-14T14:36:40Z</time>
            </trkpt>
            <trkpt lat="55.131970" lon="-7.869280">
                <time>2019-06-14T14:36:41Z</time>
            </trkpt>
            <trkpt lat="55.132110" lon="-7.869270">
                <time>2019-06-14T14:36:42Z</time>
            </trkpt>
            <trkpt lat="55.132240" lon="-7.869250">
                <time>2019-06-14T14:36:43Z</time>
            </trkpt>
            <trkpt lat="55.132360" lon="-7.869240">
                <time>2019-06-14T14:36:44Z</time>
            </trkpt>
            <trkpt lat="55.132470" lon="-7.869210">
                <time>2019-06-14T14:36:45Z</time>
            </trkpt>
            <trkpt lat="55.132590" lon="-7.869180">
                <time>2019-06-14T14:36:46Z</time>
            </trkpt>
            <trkpt lat="55.132700" lon="-7.869150">
                <time>2019-06-14T14:36:47Z</time>
            </trkpt>
            <trkpt lat="55.132810" lon="-7.869120">
                <time>2019-06-14T14:36:48Z</time>
            </trkpt>
            <trkpt lat="55.132910" lon="-7.869090">
                <time>2019-06-14T14:36:49Z</time>
            </trkpt>
            <trkpt lat="55.132990" lon="-7.869070">
                <time>2019-06-14T14:36:50Z</time>
            </trkpt>
            <trkpt lat="55.133060" lon="-7.869050">
                <time>2019-06-14T14:36:51Z</time>
            </trkpt>
            <trkpt lat="55.133120" lon="-7.869030">
                <time>2019-06-14T14:36:52Z</time>
            </trkpt>
            <trkpt lat="55.133190" lon="-7.869000">
                <time>2019-06-14T14:36:53Z</time>
            </trkpt>
            <trkpt lat="55.133250" lon="-7.868950">
                <time>2019-06-14T14:36:54Z</time>
            </trkpt>
            <trkpt lat="55.133290" lon="-7.868900">
                <time>2019-06-14T14:36:55Z</time>
            </trkpt>
            <trkpt lat="55.133320" lon="-7.868880">
                <time>2019-06-14T14:36:56Z</time>
            </trkpt>
            <trkpt lat="55.133340" lon="-7.868870">
                <time>2019-06-14T14:36:57Z</time>
            </trkpt>
            <trkpt lat="55.133350" lon="-7.868860">
                <time>2019-06-14T14:36:58Z</time>
            </trkpt>
            <trkpt lat="55.133360" lon="-7.868860">
                <time>2019-06-14T14:36:59Z</time>
            </trkpt>
            <trkpt lat="55.133370" lon="-7.868870">
                <time>2019-06-14T14:37:00Z</time>
            </trkpt>
            <trkpt lat="55.133370" lon="-7.868870">
                <time>2019-06-14T14:37:01Z</time>
            </trkpt>
            <trkpt lat="55.133380" lon="-7.868860">
                <time>2019-06-14T14:37:02Z</time>
            </trkpt>
            <trkpt lat="55.133400" lon="-7.868840">
                <time>2019-06-14T14:37:03Z</time>
            </trkpt>
            <trkpt lat="55.133410" lon="-7.868820">
                <time>2019-06-14T14:37:04Z</time>
            </trkpt>
            <trkpt lat="55.133400" lon="-7.868750">
                <time>2019-06-14T14:37:05Z</time>
            </trkpt>
            <trkpt lat="55.133390" lon="-7.868650">
                <time>2019-06-14T14:37:06Z</time>
            </trkpt>
            <trkpt lat="55.133360" lon="-7.868520">
                <time>2019-06-14T14:37:07Z</time>
            </trkpt>
            <trkpt lat="55.133330" lon="-7.868340">
                <time>2019-06-14T14:37:08Z</time>
            </trkpt>
            <trkpt lat="55.133320" lon="-7.868180">
                <time>2019-06-14T14:37:09Z</time>
            </trkpt>
            <trkpt lat="55.133330" lon="-7.868030">
                <time>2019-06-14T14:37:10Z</time>
            </trkpt>
            <trkpt lat="55.133370" lon="-7.867860">
                <time>2019-06-14T14:37:11Z</time>
            </trkpt>
            <trkpt lat="55.133400" lon="-7.867720">
                <time>2019-06-14T14:37:12Z</time>
            </trkpt>
            <trkpt lat="55.133440" lon="-7.867600">
                <time>2019-06-14T14:37:13Z</time>
            </trkpt>
            <trkpt lat="55.133500" lon="-7.867490">
                <time>2019-06-14T14:37:14Z</time>
            </trkpt>
            <trkpt lat="55.133540" lon="-7.867400">
                <time>2019-06-14T14:37:15Z</time>
            </trkpt>
            <trkpt lat="55.133610" lon="-7.867290">
                <time>2019-06-14T14:37:16Z</time>
            </trkpt>
            <trkpt lat="55.133680" lon="-7.867180">
                <time>2019-06-14T14:37:17Z</time>
            </trkpt>
            <trkpt lat="55.133760" lon="-7.867050">
                <time>2019-06-14T14:37:18Z</time>
            </trkpt>
            <trkpt lat="55.133830" lon="-7.866940">
                <time>2019-06-14T14:37:19Z</time>
            </trkpt>
            <trkpt lat="55.133890" lon="-7.866820">
                <time>2019-06-14T14:37:20Z</time>
            </trkpt>
            <trkpt lat="55.133950" lon="-7.866710">
                <time>2019-06-14T14:37:21Z</time>
            </trkpt>
            <trkpt lat="55.134000" lon="-7.866600">
                <time>2019-06-14T14:37:22Z</time>
            </trkpt>
            <trkpt lat="55.134050" lon="-7.866490">
                <time>2019-06-14T14:37:23Z</time>
            </trkpt>
            <trkpt lat="55.134110" lon="-7.866380">
                <time>2019-06-14T14:37:24Z</time>
            </trkpt>
            <trkpt lat="55.134150" lon="-7.866280">
                <time>2019-06-14T14:37:25Z</time>
            </trkpt>
            <trkpt lat="55.134200" lon="-7.866170">
                <time>2019-06-14T14:37:26Z</time>
            </trkpt>
            <trkpt lat="55.134240" lon="-7.866080">
                <time>2019-06-14T14:37:27Z</time>
            </trkpt>
            <trkpt lat="55.134280" lon="-7.866000">
                <time>2019-06-14T14:37:28Z</time>
            </trkpt>
            <trkpt lat="55.134320" lon="-7.865920">
                <time>2019-06-14T14:37:29Z</time>
            </trkpt>
            <trkpt lat="55.134360" lon="-7.865850">
                <time>2019-06-14T14:37:30Z</time>
            </trkpt>
            <trkpt lat="55.134390" lon="-7.865780">
                <time>2019-06-14T14:37:31Z</time>
            </trkpt>
            <trkpt lat="55.134420" lon="-7.865700">
                <time>2019-06-14T14:37:32Z</time>
            </trkpt>
            <trkpt lat="55.134440" lon="-7.865640">
                <time>2019-06-14T14:37:33Z</time>
            </trkpt>
            <trkpt lat="55.134470" lon="-7.865590">
                <time>2019-06-14T14:37:34Z</time>
            </trkpt>
            <trkpt lat="55.134480" lon="-7.865560">
                <time>2019-06-14T14:37:35Z</time>
            </trkpt>
            <trkpt lat="55.134500" lon="-7.865540">
                <time>2019-06-14T14:37:36Z</time>
            </trkpt>
            <trkpt lat="55.134520" lon="-7.865540">
                <time>2019-06-14T14:37:37Z</time>
            </trkpt>
            <trkpt lat="55.134540" lon="-7.865570">
                <time>2019-06-14T14:37:38Z</time>
            </trkpt>
            <trkpt lat="55.134540" lon="-7.865620">
                <time>2019-06-14T14:37:39Z</time>
            </trkpt>
            <trkpt lat="55.134530" lon="-7.865650">
                <time>2019-06-14T14:37:40Z</time>
            </trkpt>
            <trkpt lat="55.134530" lon="-7.865660">
                <time>2019-06-14T14:37:41Z</time>
            </trkpt>
            <trkpt lat="55.134530" lon="-7.865660">
                <time>2019-06-14T14:37:42Z</time>
            </trkpt>
            <trkpt lat="55.134530" lon="-7.865650">
                <time>2019-06-14T14:37:43Z</time>
            </trkpt>
            <trkpt lat="55.134530" lon="-7.865640">
                <time>2019-06-14T14:37:44Z</time>
            </trkpt>
            <trkpt lat="55.134530" lon="-7.865630">
                <time>2019-06-14T14:37:45Z</time>
            </trkpt>
            <trkpt lat="55.134540" lon="-7.865630">
                <time>2019-06-14T14:37:46Z</time>
            </trkpt>
            <trkpt lat="55.134540" lon="-7.865620">
                <time>2019-06-14T14:37:47Z</time>
            </trkpt>
            <trkpt lat="55.134540" lon="-7.865620">
                <time>2019-06-14T14:37:48Z</time>
            </trkpt>
            <trkpt lat="55.134540" lon="-7.865620">
                <time>2019-06-14T14:37:49Z</time>
            </trkpt>
            <trkpt lat="55.134540" lon="-7.865620">
                <time>2019-06-14T14:37:50Z</time>
            </trkpt>
            <trkpt lat="55.134540" lon="-7.865620">
                <time>2019-06-14T14:37:51Z</time>
            </trkpt>
            <trkpt lat="55.134540" lon="-7.865620">
                <time>2019-06-14T14:37:52Z</time>
            </trkpt>
            <trkpt lat="55.134550" lon="-7.865620">
                <time>2019-06-14T14:37:53Z</time>
            </trkpt>
            <trkpt lat="55.134550" lon="-7.865620">
                <time>2019-06-14T14:37:54Z</time>
            </trkpt>
            <trkpt lat="55.134550" lon="-7.865620">
                <time>2019-06-14T14:37:55Z</time>
            </trkpt>
            <trkpt lat="55.134550" lon="-7.865620">
                <time>2019-06-14T14:37:56Z</time>
            </trkpt>
            <trkpt lat="55.134550" lon="-7.865620">
                <time>2019-06-14T14:37:57Z</time>
            </trkpt>
            <trkpt lat="55.134550" lon="-7.865620">
                <time>2019-06-14T14:37:58Z</time>
            </trkpt>
            <trkpt lat="55.134550" lon="-7.865620">
                <time>2019-06-14T14:37:59Z</time>
            </trkpt>
            <trkpt lat="55.134550" lon="-7.865620">
                <time>2019-06-14T14:38:00Z</time>
            </trkpt>
            <trkpt lat="55.134550" lon="-7.865620">
                <time>2019-06-14T14:38:01Z</time>
            </trkpt>
            <trkpt lat="55.134550" lon="-7.865620">
                <time>2019-06-14T14:38:02Z</time>
            </trkpt>
            <trkpt lat="55.134550" lon="-7.865620">
                <time>2019-06-14T14:38:03Z</time>
            </trkpt>
            <trkpt lat="55.134550" lon="-7.865620">
                <time>2019-06-14T14:38:04Z</time>
            </trkpt>
            <trkpt lat="55.134550" lon="-7.865620">
                <time>2019-06-14T14:38:05Z</time>
            </trkpt>
            <trkpt lat="55.134550" lon="-7.865620">
                <time>2019-06-14T14:38:06Z</time>
            </trkpt>
            <trkpt lat="55.134550" lon="-7.865620">
                <time>2019-06-14T14:38:07Z</time>
            </trkpt>
            <trkpt lat="55.134550" lon="-7.865620">
                <time>2019-06-14T14:38:08Z</time>
            </trkpt>
            <trkpt lat="55.134550" lon="-7.865620">
                <time>2019-06-14T14:38:09Z</time>
            </trkpt>
            <trkpt lat="55.134550" lon="-7.865620">
                <time>2019-06-14T14:38:10Z</time>
            </trkpt>
            <trkpt lat="55.134550" lon="-7.865620">
                <time>2019-06-14T14:38:11Z</time>
            </trkpt>
            <trkpt lat="55.134550" lon="-7.865620">
                <time>2019-06-14T14:38:12Z</time>
            </trkpt>
            <trkpt lat="55.134550" lon="-7.865620">
                <time>2019-06-14T14:38:13Z</time>
            </trkpt>
            <trkpt lat="55.134550" lon="-7.865620">
                <time>2019-06-14T14:38:14Z</time>
            </trkpt>
            <trkpt lat="55.134550" lon="-7.865620">
                <time>2019-06-14T14:38:15Z</time>
            </trkpt>
            <trkpt lat="55.134550" lon="-7.865620">
                <time>2019-06-14T14:38:16Z</time>
            </trkpt>
            <trkpt lat="55.134550" lon="-7.865620">
                <time>2019-06-14T14:38:17Z</time>
            </trkpt>
            <trkpt lat="55.134550" lon="-7.865620">
                <time>2019-06-14T14:38:18Z</time>
            </trkpt>
            <trkpt lat="55.134550" lon="-7.865620">
                <time>2019-06-14T14:38:19Z</time>
            </trkpt>
            <trkpt lat="55.134550" lon="-7.865620">
                <time>2019-06-14T14:38:20Z</time>
            </trkpt>
            <trkpt lat="55.134550" lon="-7.865620">
                <time>2019-06-14T14:38:21Z</time>
            </trkpt>
            <trkpt lat="55.134550" lon="-7.865620">
                <time>2019-06-14T14:38:22Z</time>
            </trkpt>
            <trkpt lat="55.134550" lon="-7.865620">
                <time>2019-06-14T14:38:23Z</time>
            </trkpt>
            <trkpt lat="55.134550" lon="-7.865620">
                <time>2019-06-14T14:38:24Z</time>
            </trkpt>
            <trkpt lat="55.134550" lon="-7.865620">
                <time>2019-06-14T14:38:25Z</time>
            </trkpt>
            <trkpt lat="55.134550" lon="-7.865620">
                <time>2019-06-14T14:38:26Z</time>
            </trkpt>
            <trkpt lat="55.134550" lon="-7.865620">
                <time>2019-06-14T14:38:27Z</time>
            </trkpt>
            <trkpt lat="55.134550" lon="-7.865620">
                <time>2019-06-14T14:38:28Z</time>
            </trkpt>
            <trkpt lat="55.134550" lon="-7.865620">
                <time>2019-06-14T14:38:29Z</time>
            </trkpt>
            <trkpt lat="55.134550" lon="-7.865620">
                <time>2019-06-14T14:38:30Z</time>
            </trkpt>
            <trkpt lat="55.134550" lon="-7.865620">
                <time>2019-06-14T14:38:31Z</time>
            </trkpt>
            <trkpt lat="55.134550" lon="-7.865620">
                <time>2019-06-14T14:38:32Z</time>
            </trkpt>
            <trkpt lat="55.134550" lon="-7.865620">
                <time>2019-06-14T14:38:33Z</time>
            </trkpt>
            <trkpt lat="55.134550" lon="-7.865620">
                <time>2019-06-14T14:38:34Z</time>
            </trkpt>
            <trkpt lat="55.134550" lon="-7.865620">
                <time>2019-06-14T14:38:35Z</time>
            </trkpt>
            <trkpt lat="55.134550" lon="-7.865620">
                <time>2019-06-14T14:38:36Z</time>
            </trkpt>
            <trkpt lat="55.134550" lon="-7.865620">
                <time>2019-06-14T14:38:37Z</time>
            </trkpt>
            <trkpt lat="55.134550" lon="-7.865620">
                <time>2019-06-14T14:38:38Z</time>
            </trkpt>
            <trkpt lat="55.134550" lon="-7.865620">
                <time>2019-06-14T14:38:39Z</time>
            </trkpt>
            <trkpt lat="55.134550" lon="-7.865620">
                <time>2019-06-14T14:38:40Z</time>
            </trkpt>
            <trkpt lat="55.134550" lon="-7.865620">
                <time>2019-06-14T14:38:41Z</time>
            </trkpt>
            <trkpt lat="55.134550" lon="-7.865620">
                <time>2019-06-14T14:38:42Z</time>
            </trkpt>
            <trkpt lat="55.134550" lon="-7.865620">
                <time>2019-06-14T14:38:43Z</time>
            </trkpt>
            <trkpt lat="55.134550" lon="-7.865620">
                <time>2019-06-14T14:38:44Z</time>
            </trkpt>
            <trkpt lat="55.134550" lon="-7.865620">
                <time>2019-06-14T14:38:45Z</time>
            </trkpt>
            <trkpt lat="55.134550" lon="-7.865620">
                <time>2019-06-14T14:38:46Z</time>
            </trkpt>
            <trkpt lat="55.134550" lon="-7.865620">
                <time>2019-06-14T14:38:47Z</time>
            </trkpt>
            <trkpt lat="55.134550" lon="-7.865620">
                <time>2019-06-14T14:38:48Z</time>
            </trkpt>
            <trkpt lat="55.134550" lon="-7.865620">
                <time>2019-06-14T14:38:49Z</time>
            </trkpt>
            <trkpt lat="55.134550" lon="-7.865620">
                <time>2019-06-14T14:38:50Z</time>
            </trkpt>
            <trkpt lat="55.134550" lon="-7.865620">
                <time>2019-06-14T14:38:51Z</time>
            </trkpt>
            <trkpt lat="55.134550" lon="-7.865620">
                <time>2019-06-14T14:38:52Z</time>
            </trkpt>
            <trkpt lat="55.134550" lon="-7.865620">
                <time>2019-06-14T14:38:53Z</time>
            </trkpt>
            <trkpt lat="55.134550" lon="-7.865620">
                <time>2019-06-14T14:38:54Z</time>
            </trkpt>
            <trkpt lat="55.134550" lon="-7.865620">
                <time>2019-06-14T14:38:55Z</time>
            </trkpt>
            <trkpt lat="55.134550" lon="-7.865620">
                <time>2019-06-14T14:38:56Z</time>
            </trkpt>
            <trkpt lat="55.134550" lon="-7.865620">
                <time>2019-06-14T14:38:57Z</time>
            </trkpt>
            <trkpt lat="55.134550" lon="-7.865620">
                <time>2019-06-14T14:38:58Z</time>
            </trkpt>
            <trkpt lat="55.134550" lon="-7.865620">
                <time>2019-06-14T14:38:59Z</time>
            </trkpt>
            <trkpt lat="55.134550" lon="-7.865620">
                <time>2019-06-14T14:39:00Z</time>
            </trkpt>
            <trkpt lat="55.134550" lon="-7.865620">
                <time>2019-06-14T14:39:01Z</time>
            </trkpt>
            <trkpt lat="55.134550" lon="-7.865620">
                <time>2019-06-14T14:39:02Z</time>
            </trkpt>
            <trkpt lat="55.134550" lon="-7.865620">
                <time>2019-06-14T14:39:03Z</time>
            </trkpt>
            <trkpt lat="55.134550" lon="-7.865620">
                <time>2019-06-14T14:39:04Z</time>
            </trkpt>
            <trkpt lat="55.134550" lon="-7.865620">
                <time>2019-06-14T14:39:05Z</time>
            </trkpt>
            <trkpt lat="55.134550" lon="-7.865620">
                <time>2019-06-14T14:39:06Z</time>
            </trkpt>
            <trkpt lat="55.134550" lon="-7.865620">
                <time>2019-06-14T14:39:07Z</time>
            </trkpt>
            <trkpt lat="55.134550" lon="-7.865620">
                <time>2019-06-14T14:39:08Z</time>
            </trkpt>
            <trkpt lat="55.134550" lon="-7.865620">
                <time>2019-06-14T14:39:09Z</time>
            </trkpt>
            <trkpt lat="55.134550" lon="-7.865620">
                <time>2019-06-14T14:39:10Z</time>
            </trkpt>
            <trkpt lat="55.134550" lon="-7.865620">
                <time>2019-06-14T14:39:11Z</time>
            </trkpt>
            <trkpt lat="55.134550" lon="-7.865620">
                <time>2019-06-14T14:39:12Z</time>
            </trkpt>
            <trkpt lat="55.134550" lon="-7.865620">
                <time>2019-06-14T14:39:13Z</time>
            </trkpt>
            <trkpt lat="55.134550" lon="-7.865620">
                <time>2019-06-14T14:39:14Z</time>
            </trkpt>
            <trkpt lat="55.134550" lon="-7.865620">
                <time>2019-06-14T14:39:15Z</time>
            </trkpt>
            <trkpt lat="55.134550" lon="-7.865620">
                <time>2019-06-14T14:39:16Z</time>
            </trkpt>
            <trkpt lat="55.134550" lon="-7.865620">
                <time>2019-06-14T14:39:17Z</time>
            </trkpt>
            <trkpt lat="55.134550" lon="-7.865620">
                <time>2019-06-14T14:39:18Z</time>
            </trkpt>
            <trkpt lat="55.134550" lon="-7.865620">
                <time>2019-06-14T14:39:19Z</time>
            </trkpt>
            <trkpt lat="55.134550" lon="-7.865620">
                <time>2019-06-14T14:39:20Z</time>
            </trkpt>
            <trkpt lat="55.134550" lon="-7.865620">
                <time>2019-06-14T14:39:21Z</time>
            </trkpt>
            <trkpt lat="55.134550" lon="-7.865620">
                <time>2019-06-14T14:39:22Z</time>
            </trkpt>
            <trkpt lat="55.134550" lon="-7.865620">
                <time>2019-06-14T14:39:23Z</time>
            </trkpt>
            <trkpt lat="55.134550" lon="-7.865620">
                <time>2019-06-14T14:39:24Z</time>
            </trkpt>
            <trkpt lat="55.134550" lon="-7.865620">
                <time>2019-06-14T14:39:25Z</time>
            </trkpt>
            <trkpt lat="55.134550" lon="-7.865620">
                <time>2019-06-14T14:39:26Z</time>
            </trkpt>
            <trkpt lat="55.134550" lon="-7.865620">
                <time>2019-06-14T14:39:27Z</time>
            </trkpt>
            <trkpt lat="55.134550" lon="-7.865620">
                <time>2019-06-14T14:39:28Z</time>
            </trkpt>
            <trkpt lat="55.134550" lon="-7.865620">
                <time>2019-06-14T14:39:29Z</time>
            </trkpt>
            <trkpt lat="55.134550" lon="-7.865620">
                <time>2019-06-14T14:39:30Z</time>
            </trkpt>
            <trkpt lat="55.134550" lon="-7.865620">
                <time>2019-06-14T14:39:31Z</time>
            </trkpt>
            <trkpt lat="55.134550" lon="-7.865620">
                <time>2019-06-14T14:39:32Z</time>
            </trkpt>
            <trkpt lat="55.134550" lon="-7.865620">
                <time>2019-06-14T14:39:33Z</time>
            </trkpt>
            <trkpt lat="55.134550" lon="-7.865620">
                <time>2019-06-14T14:39:34Z</time>
            </trkpt>
            <trkpt lat="55.134550" lon="-7.865620">
                <time>2019-06-14T14:39:35Z</time>
            </trkpt>
            <trkpt lat="55.134550" lon="-7.865620">
                <time>2019-06-14T14:39:36Z</time>
            </trkpt>
            <trkpt lat="55.134550" lon="-7.865620">
                <time>2019-06-14T14:39:37Z</time>
            </trkpt>
            <trkpt lat="55.134550" lon="-7.865620">
                <time>2019-06-14T14:39:38Z</time>
            </trkpt>
            <trkpt lat="55.134550" lon="-7.865620">
                <time>2019-06-14T14:39:39Z</time>
            </trkpt>
            <trkpt lat="55.134550" lon="-7.865620">
                <time>2019-06-14T14:39:40Z</time>
            </trkpt>
            <trkpt lat="55.134550" lon="-7.865620">
                <time>2019-06-14T14:39:41Z</time>
            </trkpt>
            <trkpt lat="55.134550" lon="-7.865620">
                <time>2019-06-14T14:39:42Z</time>
            </trkpt>
            <trkpt lat="55.134550" lon="-7.865620">
                <time>2019-06-14T14:39:43Z</time>
            </trkpt>
            <trkpt lat="55.134550" lon="-7.865620">
                <time>2019-06-14T14:39:44Z</time>
            </trkpt>
            <trkpt lat="55.134550" lon="-7.865620">
                <time>2019-06-14T14:39:45Z</time>
            </trkpt>
            <trkpt lat="55.134550" lon="-7.865620">
                <time>2019-06-14T14:39:46Z</time>
            </trkpt>
            <trkpt lat="55.134550" lon="-7.865620">
                <time>2019-06-14T14:39:47Z</time>
            </trkpt>
            <trkpt lat="55.134550" lon="-7.865620">
                <time>2019-06-14T14:39:48Z</time>
            </trkpt>
            <trkpt lat="55.134550" lon="-7.865620">
                <time>2019-06-14T14:39:49Z</time>
            </trkpt>
            <trkpt lat="55.134550" lon="-7.865620">
                <time>2019-06-14T14:39:50Z</time>
            </trkpt>
            <trkpt lat="55.134550" lon="-7.865620">
                <time>2019-06-14T14:39:51Z</time>
            </trkpt>
            <trkpt lat="55.134550" lon="-7.865620">
                <time>2019-06-14T14:39:52Z</time>
            </trkpt>
            <trkpt lat="55.134550" lon="-7.865620">
                <time>2019-06-14T14:39:53Z</time>
            </trkpt>
            <trkpt lat="55.134550" lon="-7.865620">
                <time>2019-06-14T14:39:54Z</time>
            </trkpt>
            <trkpt lat="55.134550" lon="-7.865620">
                <time>2019-06-14T14:39:55Z</time>
            </trkpt>
            <trkpt lat="55.134550" lon="-7.865620">
                <time>2019-06-14T14:39:56Z</time>
            </trkpt>
            <trkpt lat="55.134550" lon="-7.865620">
                <time>2019-06-14T14:39:57Z</time>
            </trkpt>
            <trkpt lat="55.134550" lon="-7.865620">
                <time>2019-06-14T14:39:58Z</time>
            </trkpt>
            <trkpt lat="55.134550" lon="-7.865620">
                <time>2019-06-14T14:39:59Z</time>
            </trkpt>
            <trkpt lat="55.134550" lon="-7.865620">
                <time>2019-06-14T14:40:00Z</time>
            </trkpt>
            <trkpt lat="55.134550" lon="-7.865620">
                <time>2019-06-14T14:40:01Z</time>
            </trkpt>
            <trkpt lat="55.134550" lon="-7.865620">
                <time>2019-06-14T14:40:02Z</time>
            </trkpt>
            <trkpt lat="55.134550" lon="-7.865620">
                <time>2019-06-14T14:40:03Z</time>
            </trkpt>
            <trkpt lat="55.134550" lon="-7.865620">
                <time>2019-06-14T14:40:04Z</time>
            </trkpt>
            <trkpt lat="55.134550" lon="-7.865620">
                <time>2019-06-14T14:40:05Z</time>
            </trkpt>
            <trkpt lat="55.134550" lon="-7.865620">
                <time>2019-06-14T14:40:06Z</time>
            </trkpt>
            <trkpt lat="55.134550" lon="-7.865620">
                <time>2019-06-14T14:40:07Z</time>
            </trkpt>
            <trkpt lat="55.134550" lon="-7.865620">
                <time>2019-06-14T14:40:08Z</time>
            </trkpt>
            <trkpt lat="55.134550" lon="-7.865620">
                <time>2019-06-14T14:40:09Z</time>
            </trkpt>
            <trkpt lat="55.134550" lon="-7.865620">
                <time>2019-06-14T14:40:10Z</time>
            </trkpt>
            <trkpt lat="55.134550" lon="-7.865620">
                <time>2019-06-14T14:40:11Z</time>
            </trkpt>
            <trkpt lat="55.134550" lon="-7.865620">
                <time>2019-06-14T14:40:12Z</time>
            </trkpt>
            <trkpt lat="55.134550" lon="-7.865620">
                <time>2019-06-14T14:40:13Z</time>
            </trkpt>
            <trkpt lat="55.134550" lon="-7.865620">
                <time>2019-06-14T14:40:14Z</time>
            </trkpt>
            <trkpt lat="55.134550" lon="-7.865620">
                <time>2019-06-14T14:40:15Z</time>
            </trkpt>
            <trkpt lat="55.134550" lon="-7.865620">
                <time>2019-06-14T14:40:16Z</time>
            </trkpt>
            <trkpt lat="55.134550" lon="-7.865620">
                <time>2019-06-14T14:40:17Z</time>
            </trkpt>
            <trkpt lat="55.134550" lon="-7.865620">
                <time>2019-06-14T14:40:18Z</time>
            </trkpt>
            <trkpt lat="55.134550" lon="-7.865620">
                <time>2019-06-14T14:40:19Z</time>
            </trkpt>
            <trkpt lat="55.134550" lon="-7.865620">
                <time>2019-06-14T14:40:20Z</time>
            </trkpt>
            <trkpt lat="55.134550" lon="-7.865620">
                <time>2019-06-14T14:40:21Z</time>
            </trkpt>
            <trkpt lat="55.134550" lon="-7.865620">
                <time>2019-06-14T14:40:22Z</time>
            </trkpt>
            <trkpt lat="55.134550" lon="-7.865620">
                <time>2019-06-14T14:40:23Z</time>
            </trkpt>
            <trkpt lat="55.134550" lon="-7.865620">
                <time>2019-06-14T14:40:24Z</time>
            </trkpt>
            <trkpt lat="55.134550" lon="-7.865620">
                <time>2019-06-14T14:40:25Z</time>
            </trkpt>
            <trkpt lat="55.134550" lon="-7.865620">
                <time>2019-06-14T14:40:26Z</time>
            </trkpt>
            <trkpt lat="55.134550" lon="-7.865620">
                <time>2019-06-14T14:40:27Z</time>
            </trkpt>
            <trkpt lat="55.134550" lon="-7.865620">
                <time>2019-06-14T14:40:28Z</time>
            </trkpt>
            <trkpt lat="55.134550" lon="-7.865620">
                <time>2019-06-14T14:40:29Z</time>
            </trkpt>
            <trkpt lat="55.134550" lon="-7.865520">
                <time>2019-06-14T14:52:52Z</time>
            </trkpt>
            <trkpt lat="55.134550" lon="-7.865530">
                <time>2019-06-14T14:52:54Z</time>
            </trkpt>
            <trkpt lat="55.134590" lon="-7.865610">
                <time>2019-06-14T14:52:55Z</time>
            </trkpt>
            <trkpt lat="55.134580" lon="-7.865620">
                <time>2019-06-14T14:52:56Z</time>
            </trkpt>
            <trkpt lat="55.134580" lon="-7.865610">
                <time>2019-06-14T14:52:57Z</time>
            </trkpt>
            <trkpt lat="55.134580" lon="-7.865610">
                <time>2019-06-14T14:52:58Z</time>
            </trkpt>
            <trkpt lat="55.134580" lon="-7.865610">
                <time>2019-06-14T14:52:59Z</time>
            </trkpt>
            <trkpt lat="55.134570" lon="-7.865620">
                <time>2019-06-14T14:53:00Z</time>
            </trkpt>
            <trkpt lat="55.134570" lon="-7.865620">
                <time>2019-06-14T14:53:01Z</time>
            </trkpt>
            <trkpt lat="55.134570" lon="-7.865620">
                <time>2019-06-14T14:53:02Z</time>
            </trkpt>
            <trkpt lat="55.134570" lon="-7.865620">
                <time>2019-06-14T14:53:03Z</time>
            </trkpt>
            <trkpt lat="55.134570" lon="-7.865620">
                <time>2019-06-14T14:53:04Z</time>
            </trkpt>
            <trkpt lat="55.134570" lon="-7.865620">
                <time>2019-06-14T14:53:05Z</time>
            </trkpt>
            <trkpt lat="55.134560" lon="-7.865630">
                <time>2019-06-14T14:53:06Z</time>
            </trkpt>
            <trkpt lat="55.134560" lon="-7.865630">
                <time>2019-06-14T14:53:07Z</time>
            </trkpt>
            <trkpt lat="55.134540" lon="-7.865640">
                <time>2019-06-14T14:53:08Z</time>
            </trkpt>
            <trkpt lat="55.134530" lon="-7.865660">
                <time>2019-06-14T14:53:09Z</time>
            </trkpt>
            <trkpt lat="55.134520" lon="-7.865670">
                <time>2019-06-14T14:53:10Z</time>
            </trkpt>
            <trkpt lat="55.134510" lon="-7.865670">
                <time>2019-06-14T14:53:11Z</time>
            </trkpt>
            <trkpt lat="55.134510" lon="-7.865680">
                <time>2019-06-14T14:53:12Z</time>
            </trkpt>
            <trkpt lat="55.134510" lon="-7.865670">
                <time>2019-06-14T14:53:13Z</time>
            </trkpt>
            <trkpt lat="55.134510" lon="-7.865670">
                <time>2019-06-14T14:53:14Z</time>
            </trkpt>
            <trkpt lat="55.134510" lon="-7.865670">
                <time>2019-06-14T14:53:15Z</time>
            </trkpt>
            <trkpt lat="55.134510" lon="-7.865670">
                <time>2019-06-14T14:53:16Z</time>
            </trkpt>
            <trkpt lat="55.134510" lon="-7.865670">
                <time>2019-06-14T14:53:17Z</time>
            </trkpt>
            <trkpt lat="55.134510" lon="-7.865670">
                <time>2019-06-14T14:53:18Z</time>
            </trkpt>
            <trkpt lat="55.134510" lon="-7.865670">
                <time>2019-06-14T14:53:19Z</time>
            </trkpt>
            <trkpt lat="55.134510" lon="-7.865670">
                <time>2019-06-14T14:53:20Z</time>
            </trkpt>
            <trkpt lat="55.134510" lon="-7.865660">
                <time>2019-06-14T14:53:21Z</time>
            </trkpt>
            <trkpt lat="55.134510" lon="-7.865660">
                <time>2019-06-14T14:53:22Z</time>
            </trkpt>
            <trkpt lat="55.134510" lon="-7.865660">
                <time>2019-06-14T14:53:23Z</time>
            </trkpt>
            <trkpt lat="55.134510" lon="-7.865660">
                <time>2019-06-14T14:53:24Z</time>
            </trkpt>
            <trkpt lat="55.134510" lon="-7.865660">
                <time>2019-06-14T14:53:25Z</time>
            </trkpt>
            <trkpt lat="55.134510" lon="-7.865660">
                <time>2019-06-14T14:53:26Z</time>
            </trkpt>
            <trkpt lat="55.134510" lon="-7.865660">
                <time>2019-06-14T14:53:27Z</time>
            </trkpt>
            <trkpt lat="55.134510" lon="-7.865660">
                <time>2019-06-14T14:53:28Z</time>
            </trkpt>
            <trkpt lat="55.134510" lon="-7.865660">
                <time>2019-06-14T14:53:29Z</time>
            </trkpt>
            <trkpt lat="55.134510" lon="-7.865660">
                <time>2019-06-14T14:53:30Z</time>
            </trkpt>
            <trkpt lat="55.134510" lon="-7.865660">
                <time>2019-06-14T14:53:31Z</time>
            </trkpt>
            <trkpt lat="55.134510" lon="-7.865660">
                <time>2019-06-14T14:53:32Z</time>
            </trkpt>
            <trkpt lat="55.134510" lon="-7.865660">
                <time>2019-06-14T14:53:33Z</time>
            </trkpt>
            <trkpt lat="55.134510" lon="-7.865660">
                <time>2019-06-14T14:53:34Z</time>
            </trkpt>
            <trkpt lat="55.134510" lon="-7.865660">
                <time>2019-06-14T14:53:35Z</time>
            </trkpt>
            <trkpt lat="55.134510" lon="-7.865660">
                <time>2019-06-14T14:53:36Z</time>
            </trkpt>
            <trkpt lat="55.134510" lon="-7.865660">
                <time>2019-06-14T14:53:37Z</time>
            </trkpt>
            <trkpt lat="55.134510" lon="-7.865660">
                <time>2019-06-14T14:53:38Z</time>
            </trkpt>
            <trkpt lat="55.134510" lon="-7.865660">
                <time>2019-06-14T14:53:39Z</time>
            </trkpt>
            <trkpt lat="55.134510" lon="-7.865670">
                <time>2019-06-14T14:53:40Z</time>
            </trkpt>
            <trkpt lat="55.134510" lon="-7.865670">
                <time>2019-06-14T14:53:41Z</time>
            </trkpt>
            <trkpt lat="55.134510" lon="-7.865670">
                <time>2019-06-14T14:53:42Z</time>
            </trkpt>
            <trkpt lat="55.134510" lon="-7.865670">
                <time>2019-06-14T14:53:43Z</time>
            </trkpt>
            <trkpt lat="55.134510" lon="-7.865670">
                <time>2019-06-14T14:53:44Z</time>
            </trkpt>
            <trkpt lat="55.134510" lon="-7.865670">
                <time>2019-06-14T14:53:45Z</time>
            </trkpt>
            <trkpt lat="55.134510" lon="-7.865670">
                <time>2019-06-14T14:53:46Z</time>
            </trkpt>
            <trkpt lat="55.134510" lon="-7.865670">
                <time>2019-06-14T14:53:47Z</time>
            </trkpt>
            <trkpt lat="55.134510" lon="-7.865670">
                <time>2019-06-14T14:53:48Z</time>
            </trkpt>
            <trkpt lat="55.134500" lon="-7.865670">
                <time>2019-06-14T14:53:49Z</time>
            </trkpt>
            <trkpt lat="55.134500" lon="-7.865680">
                <time>2019-06-14T14:53:50Z</time>
            </trkpt>
            <trkpt lat="55.134490" lon="-7.865690">
                <time>2019-06-14T14:53:51Z</time>
            </trkpt>
            <trkpt lat="55.134490" lon="-7.865690">
                <time>2019-06-14T14:53:52Z</time>
            </trkpt>
            <trkpt lat="55.134500" lon="-7.865700">
                <time>2019-06-14T14:53:53Z</time>
            </trkpt>
            <trkpt lat="55.134490" lon="-7.865700">
                <time>2019-06-14T14:53:54Z</time>
            </trkpt>
            <trkpt lat="55.134490" lon="-7.865700">
                <time>2019-06-14T14:53:55Z</time>
            </trkpt>
            <trkpt lat="55.134480" lon="-7.865700">
                <time>2019-06-14T14:53:56Z</time>
            </trkpt>
            <trkpt lat="55.134460" lon="-7.865710">
                <time>2019-06-14T14:53:57Z</time>
            </trkpt>
            <trkpt lat="55.134450" lon="-7.865720">
                <time>2019-06-14T14:53:58Z</time>
            </trkpt>
            <trkpt lat="55.134430" lon="-7.865740">
                <time>2019-06-14T14:53:59Z</time>
            </trkpt>
            <trkpt lat="55.134420" lon="-7.865760">
                <time>2019-06-14T14:54:00Z</time>
            </trkpt>
            <trkpt lat="55.134390" lon="-7.865790">
                <time>2019-06-14T14:54:01Z</time>
            </trkpt>
            <trkpt lat="55.134360" lon="-7.865840">
                <time>2019-06-14T14:54:02Z</time>
            </trkpt>
            <trkpt lat="55.134340" lon="-7.865890">
                <time>2019-06-14T14:54:03Z</time>
            </trkpt>
            <trkpt lat="55.134310" lon="-7.865950">
                <time>2019-06-14T14:54:04Z</time>
            </trkpt>
            <trkpt lat="55.134280" lon="-7.866010">
                <time>2019-06-14T14:54:05Z</time>
            </trkpt>
            <trkpt lat="55.134260" lon="-7.866080">
                <time>2019-06-14T14:54:06Z</time>
            </trkpt>
            <trkpt lat="55.134220" lon="-7.866150">
                <time>2019-06-14T14:54:07Z</time>
            </trkpt>
            <trkpt lat="55.134190" lon="-7.866210">
                <time>2019-06-14T14:54:08Z</time>
            </trkpt>
            <trkpt lat="55.134140" lon="-7.866290">
                <time>2019-06-14T14:54:09Z</time>
            </trkpt>
            <trkpt lat="55.134110" lon="-7.866370">
                <time>2019-06-14T14:54:10Z</time>
            </trkpt>
            <trkpt lat="55.134070" lon="-7.866440">
                <time>2019-06-14T14:54:11Z</time>
            </trkpt>
            <trkpt lat="55.134030" lon="-7.866520">
                <time>2019-06-14T14:54:12Z</time>
            </trkpt>
            <trkpt lat="55.133990" lon="-7.866600">
                <time>2019-06-14T14:54:13Z</time>
            </trkpt>
            <trkpt lat="55.133950" lon="-7.866680">
                <time>2019-06-14T14:54:14Z</time>
            </trkpt>
            <trkpt lat="55.133910" lon="-7.866760">
                <time>2019-06-14T14:54:15Z</time>
            </trkpt>
            <trkpt lat="55.133870" lon="-7.866840">
                <time>2019-06-14T14:54:16Z</time>
            </trkpt>
            <trkpt lat="55.133830" lon="-7.866910">
                <time>2019-06-14T14:54:17Z</time>
            </trkpt>
            <trkpt lat="55.133790" lon="-7.866990">
                <time>2019-06-14T14:54:18Z</time>
            </trkpt>
            <trkpt lat="55.133750" lon="-7.867050">
                <time>2019-06-14T14:54:19Z</time>
            </trkpt>
            <trkpt lat="55.133730" lon="-7.867100">
                <time>2019-06-14T14:54:20Z</time>
            </trkpt>
            <trkpt lat="55.133690" lon="-7.867160">
                <time>2019-06-14T14:54:21Z</time>
            </trkpt>
            <trkpt lat="55.133650" lon="-7.867220">
                <time>2019-06-14T14:54:22Z</time>
            </trkpt>
            <trkpt lat="55.133600" lon="-7.867280">
                <time>2019-06-14T14:54:23Z</time>
            </trkpt>
            <trkpt lat="55.133550" lon="-7.867350">
                <time>2019-06-14T14:54:24Z</time>
            </trkpt>
            <trkpt lat="55.133500" lon="-7.867430">
                <time>2019-06-14T14:54:25Z</time>
            </trkpt>
            <trkpt lat="55.133450" lon="-7.867510">
                <time>2019-06-14T14:54:26Z</time>
            </trkpt>
            <trkpt lat="55.133430" lon="-7.867610">
                <time>2019-06-14T14:54:27Z</time>
            </trkpt>
            <trkpt lat="55.133390" lon="-7.867750">
                <time>2019-06-14T14:54:28Z</time>
            </trkpt>
            <trkpt lat="55.133360" lon="-7.867890">
                <time>2019-06-14T14:54:29Z</time>
            </trkpt>
            <trkpt lat="55.133330" lon="-7.868020">
                <time>2019-06-14T14:54:30Z</time>
            </trkpt>
            <trkpt lat="55.133320" lon="-7.868160">
                <time>2019-06-14T14:54:31Z</time>
            </trkpt>
            <trkpt lat="55.133330" lon="-7.868290">
                <time>2019-06-14T14:54:32Z</time>
            </trkpt>
            <trkpt lat="55.133340" lon="-7.868420">
                <time>2019-06-14T14:54:33Z</time>
            </trkpt>
            <trkpt lat="55.133370" lon="-7.868530">
                <time>2019-06-14T14:54:34Z</time>
            </trkpt>
            <trkpt lat="55.133390" lon="-7.868610">
                <time>2019-06-14T14:54:35Z</time>
            </trkpt>
            <trkpt lat="55.133400" lon="-7.868680">
                <time>2019-06-14T14:54:36Z</time>
            </trkpt>
            <trkpt lat="55.133400" lon="-7.868750">
                <time>2019-06-14T14:54:37Z</time>
            </trkpt>
            <trkpt lat="55.133380" lon="-7.868800">
                <time>2019-06-14T14:54:38Z</time>
            </trkpt>
            <trkpt lat="55.133330" lon="-7.868860">
                <time>2019-06-14T14:54:39Z</time>
            </trkpt>
            <trkpt lat="55.133290" lon="-7.868910">
                <time>2019-06-14T14:54:40Z</time>
            </trkpt>
            <trkpt lat="55.133240" lon="-7.868940">
                <time>2019-06-14T14:54:41Z</time>
            </trkpt>
            <trkpt lat="55.133180" lon="-7.868980">
                <time>2019-06-14T14:54:42Z</time>
            </trkpt>
            <trkpt lat="55.133110" lon="-7.869010">
                <time>2019-06-14T14:54:43Z</time>
            </trkpt>
            <trkpt lat="55.133030" lon="-7.869040">
                <time>2019-06-14T14:54:44Z</time>
            </trkpt>
            <trkpt lat="55.132940" lon="-7.869060">
                <time>2019-06-14T14:54:45Z</time>
            </trkpt>
            <trkpt lat="55.132840" lon="-7.869080">
                <time>2019-06-14T14:54:46Z</time>
            </trkpt>
            <trkpt lat="55.132740" lon="-7.869110">
                <time>2019-06-14T14:54:47Z</time>
            </trkpt>
            <trkpt lat="55.132650" lon="-7.869150">
                <time>2019-06-14T14:54:48Z</time>
            </trkpt>
            <trkpt lat="55.132550" lon="-7.869170">
                <time>2019-06-14T14:54:49Z</time>
            </trkpt>
            <trkpt lat="55.132460" lon="-7.869200">
                <time>2019-06-14T14:54:50Z</time>
            </trkpt>
            <trkpt lat="55.132370" lon="-7.869210">
                <time>2019-06-14T14:54:51Z</time>
            </trkpt>
            <trkpt lat="55.132290" lon="-7.869230">
                <time>2019-06-14T14:54:52Z</time>
            </trkpt>
            <trkpt lat="55.132210" lon="-7.869240">
                <time>2019-06-14T14:54:53Z</time>
            </trkpt>
            <trkpt lat="55.132140" lon="-7.869260">
                <time>2019-06-14T14:54:54Z</time>
            </trkpt>
            <trkpt lat="55.132060" lon="-7.869270">
                <time>2019-06-14T14:54:55Z</time>
            </trkpt>
            <trkpt lat="55.131980" lon="-7.869280">
                <time>2019-06-14T14:54:56Z</time>
            </trkpt>
            <trkpt lat="55.131890" lon="-7.869290">
                <time>2019-06-14T14:54:57Z</time>
            </trkpt>
            <trkpt lat="55.131800" lon="-7.869300">
                <time>2019-06-14T14:54:58Z</time>
            </trkpt>
            <trkpt lat="55.131710" lon="-7.869310">
                <time>2019-06-14T14:54:59Z</time>
            </trkpt>
            <trkpt lat="55.131630" lon="-7.869320">
                <time>2019-06-14T14:55:00Z</time>
            </trkpt>
            <trkpt lat="55.131540" lon="-7.869320">
                <time>2019-06-14T14:55:01Z</time>
            </trkpt>
            <trkpt lat="55.131460" lon="-7.869340">
                <time>2019-06-14T14:55:02Z</time>
            </trkpt>
            <trkpt lat="55.131360" lon="-7.869340">
                <time>2019-06-14T14:55:03Z</time>
            </trkpt>
            <trkpt lat="55.131260" lon="-7.869390">
                <time>2019-06-14T14:55:04Z</time>
            </trkpt>
            <trkpt lat="55.131170" lon="-7.869440">
                <time>2019-06-14T14:55:05Z</time>
            </trkpt>
            <trkpt lat="55.131100" lon="-7.869480">
                <time>2019-06-14T14:55:06Z</time>
            </trkpt>
            <trkpt lat="55.131040" lon="-7.869530">
                <time>2019-06-14T14:55:07Z</time>
            </trkpt>
            <trkpt lat="55.130990" lon="-7.869540">
                <time>2019-06-14T14:55:08Z</time>
            </trkpt>
            <trkpt lat="55.130920" lon="-7.869560">
                <time>2019-06-14T14:55:09Z</time>
            </trkpt>
            <trkpt lat="55.130850" lon="-7.869510">
                <time>2019-06-14T14:55:10Z</time>
            </trkpt>
            <trkpt lat="55.130790" lon="-7.869460">
                <time>2019-06-14T14:55:11Z</time>
            </trkpt>
            <trkpt lat="55.130720" lon="-7.869390">
                <time>2019-06-14T14:55:12Z</time>
            </trkpt>
            <trkpt lat="55.130650" lon="-7.869310">
                <time>2019-06-14T14:55:13Z</time>
            </trkpt>
            <trkpt lat="55.130560" lon="-7.869220">
                <time>2019-06-14T14:55:14Z</time>
            </trkpt>
            <trkpt lat="55.130470" lon="-7.869120">
                <time>2019-06-14T14:55:15Z</time>
            </trkpt>
            <trkpt lat="55.130380" lon="-7.869010">
                <time>2019-06-14T14:55:16Z</time>
            </trkpt>
            <trkpt lat="55.130290" lon="-7.868910">
                <time>2019-06-14T14:55:17Z</time>
            </trkpt>
            <trkpt lat="55.130220" lon="-7.868810">
                <time>2019-06-14T14:55:18Z</time>
            </trkpt>
            <trkpt lat="55.130150" lon="-7.868720">
                <time>2019-06-14T14:55:19Z</time>
            </trkpt>
            <trkpt lat="55.130080" lon="-7.868640">
                <time>2019-06-14T14:55:20Z</time>
            </trkpt>
            <trkpt lat="55.130010" lon="-7.868570">
                <time>2019-06-14T14:55:21Z</time>
            </trkpt>
            <trkpt lat="55.129940" lon="-7.868490">
                <time>2019-06-14T14:55:22Z</time>
            </trkpt>
            <trkpt lat="55.129840" lon="-7.868410">
                <time>2019-06-14T14:55:23Z</time>
            </trkpt>
            <trkpt lat="55.129740" lon="-7.868340">
                <time>2019-06-14T14:55:24Z</time>
            </trkpt>
            <trkpt lat="55.129650" lon="-7.868290">
                <time>2019-06-14T14:55:25Z</time>
            </trkpt>
            <trkpt lat="55.129560" lon="-7.868260">
                <time>2019-06-14T14:55:26Z</time>
            </trkpt>
            <trkpt lat="55.129470" lon="-7.868260">
                <time>2019-06-14T14:55:27Z</time>
            </trkpt>
            <trkpt lat="55.129360" lon="-7.868290">
                <time>2019-06-14T14:55:28Z</time>
            </trkpt>
            <trkpt lat="55.129240" lon="-7.868340">
                <time>2019-06-14T14:55:29Z</time>
            </trkpt>
            <trkpt lat="55.129110" lon="-7.868390">
                <time>2019-06-14T14:55:30Z</time>
            </trkpt>
            <trkpt lat="55.129000" lon="-7.868430">
                <time>2019-06-14T14:55:31Z</time>
            </trkpt>
            <trkpt lat="55.128890" lon="-7.868480">
                <time>2019-06-14T14:55:32Z</time>
            </trkpt>
            <trkpt lat="55.128790" lon="-7.868510">
                <time>2019-06-14T14:55:33Z</time>
            </trkpt>
            <trkpt lat="55.128700" lon="-7.868560">
                <time>2019-06-14T14:55:34Z</time>
            </trkpt>
            <trkpt lat="55.128610" lon="-7.868600">
                <time>2019-06-14T14:55:35Z</time>
            </trkpt>
            <trkpt lat="55.128500" lon="-7.868640">
                <time>2019-06-14T14:55:36Z</time>
            </trkpt>
            <trkpt lat="55.128380" lon="-7.868700">
                <time>2019-06-14T14:55:37Z</time>
            </trkpt>
            <trkpt lat="55.128250" lon="-7.868760">
                <time>2019-06-14T14:55:38Z</time>
            </trkpt>
            <trkpt lat="55.128110" lon="-7.868820">
                <time>2019-06-14T14:55:39Z</time>
            </trkpt>
            <trkpt lat="55.127960" lon="-7.868890">
                <time>2019-06-14T14:55:40Z</time>
            </trkpt>
            <trkpt lat="55.127840" lon="-7.868950">
                <time>2019-06-14T14:55:41Z</time>
            </trkpt>
            <trkpt lat="55.127700" lon="-7.869010">
                <time>2019-06-14T14:55:42Z</time>
            </trkpt>
            <trkpt lat="55.127570" lon="-7.869060">
                <time>2019-06-14T14:55:43Z</time>
            </trkpt>
            <trkpt lat="55.127440" lon="-7.869130">
                <time>2019-06-14T14:55:44Z</time>
            </trkpt>
            <trkpt lat="55.127310" lon="-7.869190">
                <time>2019-06-14T14:55:45Z</time>
            </trkpt>
            <trkpt lat="55.127190" lon="-7.869260">
                <time>2019-06-14T14:55:46Z</time>
            </trkpt>
            <trkpt lat="55.127050" lon="-7.869340">
                <time>2019-06-14T14:55:47Z</time>
            </trkpt>
            <trkpt lat="55.126920" lon="-7.869420">
                <time>2019-06-14T14:55:48Z</time>
            </trkpt>
            <trkpt lat="55.126800" lon="-7.869480">
                <time>2019-06-14T14:55:49Z</time>
            </trkpt>
            <trkpt lat="55.126670" lon="-7.869540">
                <time>2019-06-14T14:55:50Z</time>
            </trkpt>
            <trkpt lat="55.126550" lon="-7.869600">
                <time>2019-06-14T14:55:51Z</time>
            </trkpt>
            <trkpt lat="55.126440" lon="-7.869640">
                <time>2019-06-14T14:55:52Z</time>
            </trkpt>
            <trkpt lat="55.126340" lon="-7.869670">
                <time>2019-06-14T14:55:53Z</time>
            </trkpt>
            <trkpt lat="55.126250" lon="-7.869680">
                <time>2019-06-14T14:55:54Z</time>
            </trkpt>
            <trkpt lat="55.126160" lon="-7.869680">
                <time>2019-06-14T14:55:55Z</time>
            </trkpt>
            <trkpt lat="55.126070" lon="-7.869670">
                <time>2019-06-14T14:55:56Z</time>
            </trkpt>
            <trkpt lat="55.126000" lon="-7.869650">
                <time>2019-06-14T14:55:57Z</time>
            </trkpt>
            <trkpt lat="55.125940" lon="-7.869630">
                <time>2019-06-14T14:55:58Z</time>
            </trkpt>
            <trkpt lat="55.125900" lon="-7.869600">
                <time>2019-06-14T14:55:59Z</time>
            </trkpt>
            <trkpt lat="55.125850" lon="-7.869560">
                <time>2019-06-14T14:56:00Z</time>
            </trkpt>
            <trkpt lat="55.125810" lon="-7.869530">
                <time>2019-06-14T14:56:01Z</time>
            </trkpt>
            <trkpt lat="55.125780" lon="-7.869500">
                <time>2019-06-14T14:56:02Z</time>
            </trkpt>
            <trkpt lat="55.125770" lon="-7.869470">
                <time>2019-06-14T14:56:03Z</time>
            </trkpt>
            <trkpt lat="55.125760" lon="-7.869390">
                <time>2019-06-14T14:56:04Z</time>
            </trkpt>
            <trkpt lat="55.125770" lon="-7.869280">
                <time>2019-06-14T14:56:05Z</time>
            </trkpt>
            <trkpt lat="55.125810" lon="-7.869120">
                <time>2019-06-14T14:56:06Z</time>
            </trkpt>
            <trkpt lat="55.125840" lon="-7.868950">
                <time>2019-06-14T14:56:07Z</time>
            </trkpt>
            <trkpt lat="55.125880" lon="-7.868780">
                <time>2019-06-14T14:56:08Z</time>
            </trkpt>
            <trkpt lat="55.125910" lon="-7.868590">
                <time>2019-06-14T14:56:09Z</time>
            </trkpt>
            <trkpt lat="55.125950" lon="-7.868410">
                <time>2019-06-14T14:56:10Z</time>
            </trkpt>
            <trkpt lat="55.125990" lon="-7.868220">
                <time>2019-06-14T14:56:11Z</time>
            </trkpt>
            <trkpt lat="55.126030" lon="-7.868030">
                <time>2019-06-14T14:56:12Z</time>
            </trkpt>
            <trkpt lat="55.126060" lon="-7.867840">
                <time>2019-06-14T14:56:13Z</time>
            </trkpt>
            <trkpt lat="55.126100" lon="-7.867640">
                <time>2019-06-14T14:56:14Z</time>
            </trkpt>
            <trkpt lat="55.126140" lon="-7.867420">
                <time>2019-06-14T14:56:15Z</time>
            </trkpt>
            <trkpt lat="55.126190" lon="-7.867170">
                <time>2019-06-14T14:56:16Z</time>
            </trkpt>
            <trkpt lat="55.126250" lon="-7.866920">
                <time>2019-06-14T14:56:17Z</time>
            </trkpt>
            <trkpt lat="55.126290" lon="-7.866680">
                <time>2019-06-14T14:56:18Z</time>
            </trkpt>
            <trkpt lat="55.126340" lon="-7.866430">
                <time>2019-06-14T14:56:19Z</time>
            </trkpt>
            <trkpt lat="55.126390" lon="-7.866180">
                <time>2019-06-14T14:56:20Z</time>
            </trkpt>
            <trkpt lat="55.126440" lon="-7.865950">
                <time>2019-06-14T14:56:21Z</time>
            </trkpt>
            <trkpt lat="55.126480" lon="-7.865740">
                <time>2019-06-14T14:56:22Z</time>
            </trkpt>
            <trkpt lat="55.126530" lon="-7.865520">
                <time>2019-06-14T14:56:23Z</time>
            </trkpt>
            <trkpt lat="55.126570" lon="-7.865300">
                <time>2019-06-14T14:56:24Z</time>
            </trkpt>
            <trkpt lat="55.126610" lon="-7.865070">
                <time>2019-06-14T14:56:25Z</time>
            </trkpt>
            <trkpt lat="55.126640" lon="-7.864820">
                <time>2019-06-14T14:56:26Z</time>
            </trkpt>
            <trkpt lat="55.126680" lon="-7.864570">
                <time>2019-06-14T14:56:27Z</time>
            </trkpt>
            <trkpt lat="55.126720" lon="-7.864300">
                <time>2019-06-14T14:56:28Z</time>
            </trkpt>
            <trkpt lat="55.126770" lon="-7.864040">
                <time>2019-06-14T14:56:29Z</time>
            </trkpt>
            <trkpt lat="55.126800" lon="-7.863780">
                <time>2019-06-14T14:56:30Z</time>
            </trkpt>
            <trkpt lat="55.126830" lon="-7.863540">
                <time>2019-06-14T14:56:31Z</time>
            </trkpt>
            <trkpt lat="55.126870" lon="-7.863310">
                <time>2019-06-14T14:56:32Z</time>
            </trkpt>
            <trkpt lat="55.126900" lon="-7.863070">
                <time>2019-06-14T14:56:33Z</time>
            </trkpt>
            <trkpt lat="55.126940" lon="-7.862810">
                <time>2019-06-14T14:56:34Z</time>
            </trkpt>
            <trkpt lat="55.126980" lon="-7.862550">
                <time>2019-06-14T14:56:35Z</time>
            </trkpt>
            <trkpt lat="55.127020" lon="-7.862300">
                <time>2019-06-14T14:56:36Z</time>
            </trkpt>
            <trkpt lat="55.127060" lon="-7.862080">
                <time>2019-06-14T14:56:37Z</time>
            </trkpt>
            <trkpt lat="55.127100" lon="-7.861870">
                <time>2019-06-14T14:56:38Z</time>
            </trkpt>
            <trkpt lat="55.127120" lon="-7.861660">
                <time>2019-06-14T14:56:39Z</time>
            </trkpt>
            <trkpt lat="55.127150" lon="-7.861450">
                <time>2019-06-14T14:56:40Z</time>
            </trkpt>
            <trkpt lat="55.127180" lon="-7.861230">
                <time>2019-06-14T14:56:41Z</time>
            </trkpt>
            <trkpt lat="55.127210" lon="-7.861000">
                <time>2019-06-14T14:56:42Z</time>
            </trkpt>
            <trkpt lat="55.127240" lon="-7.860770">
                <time>2019-06-14T14:56:43Z</time>
            </trkpt>
            <trkpt lat="55.127280" lon="-7.860550">
                <time>2019-06-14T14:56:44Z</time>
            </trkpt>
            <trkpt lat="55.127310" lon="-7.860330">
                <time>2019-06-14T14:56:45Z</time>
            </trkpt>
            <trkpt lat="55.127340" lon="-7.860120">
                <time>2019-06-14T14:56:46Z</time>
            </trkpt>
            <trkpt lat="55.127370" lon="-7.859920">
                <time>2019-06-14T14:56:47Z</time>
            </trkpt>
            <trkpt lat="55.127400" lon="-7.859720">
                <time>2019-06-14T14:56:48Z</time>
            </trkpt>
            <trkpt lat="55.127420" lon="-7.859520">
                <time>2019-06-14T14:56:49Z</time>
            </trkpt>
            <trkpt lat="55.127460" lon="-7.859320">
                <time>2019-06-14T14:56:50Z</time>
            </trkpt>
            <trkpt lat="55.127490" lon="-7.859120">
                <time>2019-06-14T14:56:51Z</time>
            </trkpt>
            <trkpt lat="55.127530" lon="-7.858900">
                <time>2019-06-14T14:56:52Z</time>
            </trkpt>
            <trkpt lat="55.127560" lon="-7.858670">
                <time>2019-06-14T14:56:53Z</time>
            </trkpt>
            <trkpt lat="55.127590" lon="-7.858440">
                <time>2019-06-14T14:56:54Z</time>
            </trkpt>
            <trkpt lat="55.127620" lon="-7.858200">
                <time>2019-06-14T14:56:55Z</time>
            </trkpt>
            <trkpt lat="55.127630" lon="-7.857960">
                <time>2019-06-14T14:56:56Z</time>
            </trkpt>
            <trkpt lat="55.127610" lon="-7.857730">
                <time>2019-06-14T14:56:57Z</time>
            </trkpt>
            <trkpt lat="55.127580" lon="-7.857490">
                <time>2019-06-14T14:56:58Z</time>
            </trkpt>
            <trkpt lat="55.127550" lon="-7.857260">
                <time>2019-06-14T14:56:59Z</time>
            </trkpt>
            <trkpt lat="55.127510" lon="-7.857030">
                <time>2019-06-14T14:57:00Z</time>
            </trkpt>
            <trkpt lat="55.127480" lon="-7.856800">
                <time>2019-06-14T14:57:01Z</time>
            </trkpt>
            <trkpt lat="55.127440" lon="-7.856570">
                <time>2019-06-14T14:57:02Z</time>
            </trkpt>
            <trkpt lat="55.127400" lon="-7.856350">
                <time>2019-06-14T14:57:03Z</time>
            </trkpt>
            <trkpt lat="55.127360" lon="-7.856120">
                <time>2019-06-14T14:57:04Z</time>
            </trkpt>
            <trkpt lat="55.127320" lon="-7.855910">
                <time>2019-06-14T14:57:05Z</time>
            </trkpt>
            <trkpt lat="55.127280" lon="-7.855700">
                <time>2019-06-14T14:57:06Z</time>
            </trkpt>
            <trkpt lat="55.127270" lon="-7.855490">
                <time>2019-06-14T14:57:07Z</time>
            </trkpt>
            <trkpt lat="55.127270" lon="-7.855290">
                <time>2019-06-14T14:57:08Z</time>
            </trkpt>
            <trkpt lat="55.127280" lon="-7.855110">
                <time>2019-06-14T14:57:09Z</time>
            </trkpt>
            <trkpt lat="55.127300" lon="-7.854930">
                <time>2019-06-14T14:57:10Z</time>
            </trkpt>
            <trkpt lat="55.127320" lon="-7.854770">
                <time>2019-06-14T14:57:11Z</time>
            </trkpt>
            <trkpt lat="55.127330" lon="-7.854620">
                <time>2019-06-14T14:57:12Z</time>
            </trkpt>
            <trkpt lat="55.127340" lon="-7.854450">
                <time>2019-06-14T14:57:13Z</time>
            </trkpt>
            <trkpt lat="55.127330" lon="-7.854260">
                <time>2019-06-14T14:57:14Z</time>
            </trkpt>
            <trkpt lat="55.127290" lon="-7.854070">
                <time>2019-06-14T14:57:15Z</time>
            </trkpt>
            <trkpt lat="55.127230" lon="-7.853890">
                <time>2019-06-14T14:57:16Z</time>
            </trkpt>
            <trkpt lat="55.127130" lon="-7.853780">
                <time>2019-06-14T14:57:17Z</time>
            </trkpt>
            <trkpt lat="55.127020" lon="-7.853710">
                <time>2019-06-14T14:57:18Z</time>
            </trkpt>
            <trkpt lat="55.126900" lon="-7.853660">
                <time>2019-06-14T14:57:19Z</time>
            </trkpt>
            <trkpt lat="55.126790" lon="-7.853620">
                <time>2019-06-14T14:57:20Z</time>
            </trkpt>
            <trkpt lat="55.126680" lon="-7.853570">
                <time>2019-06-14T14:57:21Z</time>
            </trkpt>
            <trkpt lat="55.126570" lon="-7.853510">
                <time>2019-06-14T14:57:22Z</time>
            </trkpt>
            <trkpt lat="55.126480" lon="-7.853440">
                <time>2019-06-14T14:57:23Z</time>
            </trkpt>
            <trkpt lat="55.126390" lon="-7.853340">
                <time>2019-06-14T14:57:24Z</time>
            </trkpt>
            <trkpt lat="55.126320" lon="-7.853260">
                <time>2019-06-14T14:57:25Z</time>
            </trkpt>
            <trkpt lat="55.126270" lon="-7.853110">
                <time>2019-06-14T14:57:26Z</time>
            </trkpt>
            <trkpt lat="55.126230" lon="-7.852970">
                <time>2019-06-14T14:57:27Z</time>
            </trkpt>
            <trkpt lat="55.126210" lon="-7.852830">
                <time>2019-06-14T14:57:28Z</time>
            </trkpt>
            <trkpt lat="55.126210" lon="-7.852730">
                <time>2019-06-14T14:57:29Z</time>
            </trkpt>
            <trkpt lat="55.126210" lon="-7.852670">
                <time>2019-06-14T14:57:30Z</time>
            </trkpt>
            <trkpt lat="55.126220" lon="-7.852600">
                <time>2019-06-14T14:57:31Z</time>
            </trkpt>
            <trkpt lat="55.126230" lon="-7.852530">
                <time>2019-06-14T14:57:32Z</time>
            </trkpt>
            <trkpt lat="55.126240" lon="-7.852430">
                <time>2019-06-14T14:57:33Z</time>
            </trkpt>
            <trkpt lat="55.126260" lon="-7.852320">
                <time>2019-06-14T14:57:34Z</time>
            </trkpt>
            <trkpt lat="55.126290" lon="-7.852190">
                <time>2019-06-14T14:57:35Z</time>
            </trkpt>
            <trkpt lat="55.126310" lon="-7.852070">
                <time>2019-06-14T14:57:36Z</time>
            </trkpt>
            <trkpt lat="55.126340" lon="-7.851940">
                <time>2019-06-14T14:57:37Z</time>
            </trkpt>
            <trkpt lat="55.126370" lon="-7.851810">
                <time>2019-06-14T14:57:38Z</time>
            </trkpt>
            <trkpt lat="55.126400" lon="-7.851700">
                <time>2019-06-14T14:57:39Z</time>
            </trkpt>
            <trkpt lat="55.126420" lon="-7.851590">
                <time>2019-06-14T14:57:40Z</time>
            </trkpt>
            <trkpt lat="55.126440" lon="-7.851490">
                <time>2019-06-14T14:57:41Z</time>
            </trkpt>
            <trkpt lat="55.126470" lon="-7.851390">
                <time>2019-06-14T14:57:42Z</time>
            </trkpt>
            <trkpt lat="55.126490" lon="-7.851290">
                <time>2019-06-14T14:57:43Z</time>
            </trkpt>
            <trkpt lat="55.126520" lon="-7.851200">
                <time>2019-06-14T14:57:44Z</time>
            </trkpt>
            <trkpt lat="55.126550" lon="-7.851130">
                <time>2019-06-14T14:57:45Z</time>
            </trkpt>
            <trkpt lat="55.126590" lon="-7.851070">
                <time>2019-06-14T14:57:46Z</time>
            </trkpt>
            <trkpt lat="55.126650" lon="-7.851020">
                <time>2019-06-14T14:57:47Z</time>
            </trkpt>
            <trkpt lat="55.126740" lon="-7.850950">
                <time>2019-06-14T14:57:48Z</time>
            </trkpt>
            <trkpt lat="55.126870" lon="-7.850860">
                <time>2019-06-14T14:57:49Z</time>
            </trkpt>
            <trkpt lat="55.127010" lon="-7.850770">
                <time>2019-06-14T14:57:50Z</time>
            </trkpt>
            <trkpt lat="55.127140" lon="-7.850720">
                <time>2019-06-14T14:57:51Z</time>
            </trkpt>
            <trkpt lat="55.127270" lon="-7.850730">
                <time>2019-06-14T14:57:52Z</time>
            </trkpt>
            <trkpt lat="55.127390" lon="-7.850790">
                <time>2019-06-14T14:57:53Z</time>
            </trkpt>
            <trkpt lat="55.127490" lon="-7.850870">
                <time>2019-06-14T14:57:54Z</time>
            </trkpt>
            <trkpt lat="55.127580" lon="-7.850950">
                <time>2019-06-14T14:57:55Z</time>
            </trkpt>
            <trkpt lat="55.127670" lon="-7.851050">
                <time>2019-06-14T14:57:56Z</time>
            </trkpt>
            <trkpt lat="55.127770" lon="-7.851150">
                <time>2019-06-14T14:57:57Z</time>
            </trkpt>
            <trkpt lat="55.127880" lon="-7.851220">
                <time>2019-06-14T14:57:58Z</time>
            </trkpt>
            <trkpt lat="55.128010" lon="-7.851260">
                <time>2019-06-14T14:57:59Z</time>
            </trkpt>
            <trkpt lat="55.128140" lon="-7.851270">
                <time>2019-06-14T14:58:00Z</time>
            </trkpt>
            <trkpt lat="55.128300" lon="-7.851280">
                <time>2019-06-14T14:58:01Z</time>
            </trkpt>
            <trkpt lat="55.128470" lon="-7.851280">
                <time>2019-06-14T14:58:02Z</time>
            </trkpt>
            <trkpt lat="55.128640" lon="-7.851280">
                <time>2019-06-14T14:58:03Z</time>
            </trkpt>
            <trkpt lat="55.128810" lon="-7.851270">
                <time>2019-06-14T14:58:04Z</time>
            </trkpt>
            <trkpt lat="55.128990" lon="-7.851270">
                <time>2019-06-14T14:58:05Z</time>
            </trkpt>
            <trkpt lat="55.129170" lon="-7.851280">
                <time>2019-06-14T14:58:06Z</time>
            </trkpt>
            <trkpt lat="55.129350" lon="-7.851280">
                <time>2019-06-14T14:58:07Z</time>
            </trkpt>
            <trkpt lat="55.129510" lon="-7.851310">
                <time>2019-06-14T14:58:08Z</time>
            </trkpt>
            <trkpt lat="55.129660" lon="-7.851380">
                <time>2019-06-14T14:58:09Z</time>
            </trkpt>
            <trkpt lat="55.129790" lon="-7.851460">
                <time>2019-06-14T14:58:10Z</time>
            </trkpt>
            <trkpt lat="55.129930" lon="-7.851560">
                <time>2019-06-14T14:58:11Z</time>
            </trkpt>
            <trkpt lat="55.130060" lon="-7.851650">
                <time>2019-06-14T14:58:12Z</time>
            </trkpt>
            <trkpt lat="55.130180" lon="-7.851720">
                <time>2019-06-14T14:58:13Z</time>
            </trkpt>
            <trkpt lat="55.130280" lon="-7.851740">
                <time>2019-06-14T14:58:14Z</time>
            </trkpt>
            <trkpt lat="55.130380" lon="-7.851710">
                <time>2019-06-14T14:58:15Z</time>
            </trkpt>
            <trkpt lat="55.130470" lon="-7.851630">
                <time>2019-06-14T14:58:16Z</time>
            </trkpt>
            <trkpt lat="55.130550" lon="-7.851490">
                <time>2019-06-14T14:58:17Z</time>
            </trkpt>
            <trkpt lat="55.130630" lon="-7.851320">
                <time>2019-06-14T14:58:18Z</time>
            </trkpt>
            <trkpt lat="55.130710" lon="-7.851140">
                <time>2019-06-14T14:58:19Z</time>
            </trkpt>
            <trkpt lat="55.130780" lon="-7.850960">
                <time>2019-06-14T14:58:20Z</time>
            </trkpt>
            <trkpt lat="55.130860" lon="-7.850790">
                <time>2019-06-14T14:58:21Z</time>
            </trkpt>
            <trkpt lat="55.130940" lon="-7.850630">
                <time>2019-06-14T14:58:22Z</time>
            </trkpt>
            <trkpt lat="55.131050" lon="-7.850510">
                <time>2019-06-14T14:58:23Z</time>
            </trkpt>
            <trkpt lat="55.131170" lon="-7.850380">
                <time>2019-06-14T14:58:24Z</time>
            </trkpt>
            <trkpt lat="55.131300" lon="-7.850240">
                <time>2019-06-14T14:58:25Z</time>
            </trkpt>
            <trkpt lat="55.131430" lon="-7.850070">
                <time>2019-06-14T14:58:26Z</time>
            </trkpt>
            <trkpt lat="55.131540" lon="-7.849890">
                <time>2019-06-14T14:58:27Z</time>
            </trkpt>
            <trkpt lat="55.131650" lon="-7.849710">
                <time>2019-06-14T14:58:28Z</time>
            </trkpt>
            <trkpt lat="55.131730" lon="-7.849500">
                <time>2019-06-14T14:58:29Z</time>
            </trkpt>
            <trkpt lat="55.131800" lon="-7.849250">
                <time>2019-06-14T14:58:30Z</time>
            </trkpt>
            <trkpt lat="55.131860" lon="-7.848970">
                <time>2019-06-14T14:58:31Z</time>
            </trkpt>
            <trkpt lat="55.131910" lon="-7.848670">
                <time>2019-06-14T14:58:32Z</time>
            </trkpt>
            <trkpt lat="55.131970" lon="-7.848340">
                <time>2019-06-14T14:58:33Z</time>
            </trkpt>
            <trkpt lat="55.132040" lon="-7.848010">
                <time>2019-06-14T14:58:34Z</time>
            </trkpt>
            <trkpt lat="55.132100" lon="-7.847670">
                <time>2019-06-14T14:58:35Z</time>
            </trkpt>
            <trkpt lat="55.132160" lon="-7.847320">
                <time>2019-06-14T14:58:36Z</time>
            </trkpt>
            <trkpt lat="55.132230" lon="-7.846960">
                <time>2019-06-14T14:58:37Z</time>
            </trkpt>
            <trkpt lat="55.132300" lon="-7.846590">
                <time>2019-06-14T14:58:38Z</time>
            </trkpt>
            <trkpt lat="55.132370" lon="-7.846240">
                <time>2019-06-14T14:58:39Z</time>
            </trkpt>
            <trkpt lat="55.132470" lon="-7.845930">
                <time>2019-06-14T14:58:40Z</time>
            </trkpt>
            <trkpt lat="55.132570" lon="-7.845640">
                <time>2019-06-14T14:58:41Z</time>
            </trkpt>
            <trkpt lat="55.132680" lon="-7.845360">
                <time>2019-06-14T14:58:42Z</time>
            </trkpt>
            <trkpt lat="55.132810" lon="-7.845110">
                <time>2019-06-14T14:58:43Z</time>
            </trkpt>
            <trkpt lat="55.132960" lon="-7.844880">
                <time>2019-06-14T14:58:44Z</time>
            </trkpt>
            <trkpt lat="55.133120" lon="-7.844650">
                <time>2019-06-14T14:58:45Z</time>
            </trkpt>
            <trkpt lat="55.133290" lon="-7.844410">
                <time>2019-06-14T14:58:46Z</time>
            </trkpt>
            <trkpt lat="55.133470" lon="-7.844150">
                <time>2019-06-14T14:58:47Z</time>
            </trkpt>
            <trkpt lat="55.133650" lon="-7.843870">
                <time>2019-06-14T14:58:48Z</time>
            </trkpt>
            <trkpt lat="55.133840" lon="-7.843550">
                <time>2019-06-14T14:58:49Z</time>
            </trkpt>
            <trkpt lat="55.134030" lon="-7.843190">
                <time>2019-06-14T14:58:50Z</time>
            </trkpt>
            <trkpt lat="55.134210" lon="-7.842820">
                <time>2019-06-14T14:58:51Z</time>
            </trkpt>
            <trkpt lat="55.134400" lon="-7.842470">
                <time>2019-06-14T14:58:52Z</time>
            </trkpt>
            <trkpt lat="55.134600" lon="-7.842130">
                <time>2019-06-14T14:58:53Z</time>
            </trkpt>
            <trkpt lat="55.134800" lon="-7.841820">
                <time>2019-06-14T14:58:54Z</time>
            </trkpt>
            <trkpt lat="55.135000" lon="-7.841540">
                <time>2019-06-14T14:58:55Z</time>
            </trkpt>
            <trkpt lat="55.135210" lon="-7.841290">
                <time>2019-06-14T14:58:56Z</time>
            </trkpt>
            <trkpt lat="55.135410" lon="-7.841050">
                <time>2019-06-14T14:58:57Z</time>
            </trkpt>
            <trkpt lat="55.135610" lon="-7.840830">
                <time>2019-06-14T14:58:58Z</time>
            </trkpt>
            <trkpt lat="55.135810" lon="-7.840660">
                <time>2019-06-14T14:58:59Z</time>
            </trkpt>
            <trkpt lat="55.136020" lon="-7.840550">
                <time>2019-06-14T14:59:00Z</time>
            </trkpt>
            <trkpt lat="55.136250" lon="-7.840460">
                <time>2019-06-14T14:59:01Z</time>
            </trkpt>
            <trkpt lat="55.136470" lon="-7.840360">
                <time>2019-06-14T14:59:02Z</time>
            </trkpt>
            <trkpt lat="55.136670" lon="-7.840270">
                <time>2019-06-14T14:59:03Z</time>
            </trkpt>
            <trkpt lat="55.136860" lon="-7.840160">
                <time>2019-06-14T14:59:04Z</time>
            </trkpt>
            <trkpt lat="55.137020" lon="-7.840030">
                <time>2019-06-14T14:59:05Z</time>
            </trkpt>
            <trkpt lat="55.137170" lon="-7.839870">
                <time>2019-06-14T14:59:06Z</time>
            </trkpt>
            <trkpt lat="55.137320" lon="-7.839670">
                <time>2019-06-14T14:59:07Z</time>
            </trkpt>
            <trkpt lat="55.137460" lon="-7.839450">
                <time>2019-06-14T14:59:08Z</time>
            </trkpt>
            <trkpt lat="55.137590" lon="-7.839230">
                <time>2019-06-14T14:59:09Z</time>
            </trkpt>
            <trkpt lat="55.137730" lon="-7.839050">
                <time>2019-06-14T14:59:10Z</time>
            </trkpt>
            <trkpt lat="55.137870" lon="-7.838910">
                <time>2019-06-14T14:59:11Z</time>
            </trkpt>
            <trkpt lat="55.138030" lon="-7.838800">
                <time>2019-06-14T14:59:12Z</time>
            </trkpt>
            <trkpt lat="55.138190" lon="-7.838720">
                <time>2019-06-14T14:59:13Z</time>
            </trkpt>
            <trkpt lat="55.138370" lon="-7.838660">
                <time>2019-06-14T14:59:14Z</time>
            </trkpt>
            <trkpt lat="55.138570" lon="-7.838590">
                <time>2019-06-14T14:59:15Z</time>
            </trkpt>
            <trkpt lat="55.138790" lon="-7.838520">
                <time>2019-06-14T14:59:16Z</time>
            </trkpt>
            <trkpt lat="55.139000" lon="-7.838450">
                <time>2019-06-14T14:59:17Z</time>
            </trkpt>
            <trkpt lat="55.139240" lon="-7.838410">
                <time>2019-06-14T14:59:18Z</time>
            </trkpt>
            <trkpt lat="55.139490" lon="-7.838360">
                <time>2019-06-14T14:59:19Z</time>
            </trkpt>
            <trkpt lat="55.139740" lon="-7.838320">
                <time>2019-06-14T14:59:20Z</time>
            </trkpt>
            <trkpt lat="55.139980" lon="-7.838280">
                <time>2019-06-14T14:59:21Z</time>
            </trkpt>
            <trkpt lat="55.140190" lon="-7.838230">
                <time>2019-06-14T14:59:22Z</time>
            </trkpt>
            <trkpt lat="55.140390" lon="-7.838190">
                <time>2019-06-14T14:59:23Z</time>
            </trkpt>
            <trkpt lat="55.140570" lon="-7.838130">
                <time>2019-06-14T14:59:24Z</time>
            </trkpt>
            <trkpt lat="55.140720" lon="-7.838020">
                <time>2019-06-14T14:59:25Z</time>
            </trkpt>
            <trkpt lat="55.140860" lon="-7.837870">
                <time>2019-06-14T14:59:26Z</time>
            </trkpt>
            <trkpt lat="55.140990" lon="-7.837680">
                <time>2019-06-14T14:59:27Z</time>
            </trkpt>
            <trkpt lat="55.141090" lon="-7.837450">
                <time>2019-06-14T14:59:28Z</time>
            </trkpt>
            <trkpt lat="55.141200" lon="-7.837200">
                <time>2019-06-14T14:59:29Z</time>
            </trkpt>
            <trkpt lat="55.141310" lon="-7.836950">
                <time>2019-06-14T14:59:30Z</time>
            </trkpt>
            <trkpt lat="55.141420" lon="-7.836690">
                <time>2019-06-14T14:59:31Z</time>
            </trkpt>
            <trkpt lat="55.141530" lon="-7.836410">
                <time>2019-06-14T14:59:32Z</time>
            </trkpt>
            <trkpt lat="55.141650" lon="-7.836130">
                <time>2019-06-14T14:59:33Z</time>
            </trkpt>
            <trkpt lat="55.141770" lon="-7.835840">
                <time>2019-06-14T14:59:34Z</time>
            </trkpt>
            <trkpt lat="55.141900" lon="-7.835540">
                <time>2019-06-14T14:59:35Z</time>
            </trkpt>
            <trkpt lat="55.142030" lon="-7.835230">
                <time>2019-06-14T14:59:36Z</time>
            </trkpt>
            <trkpt lat="55.142160" lon="-7.834950">
                <time>2019-06-14T14:59:37Z</time>
            </trkpt>
            <trkpt lat="55.142270" lon="-7.834690">
                <time>2019-06-14T14:59:38Z</time>
            </trkpt>
            <trkpt lat="55.142370" lon="-7.834440">
                <time>2019-06-14T14:59:39Z</time>
            </trkpt>
            <trkpt lat="55.142460" lon="-7.834220">
                <time>2019-06-14T14:59:40Z</time>
            </trkpt>
            <trkpt lat="55.142570" lon="-7.833990">
                <time>2019-06-14T14:59:41Z</time>
            </trkpt>
            <trkpt lat="55.142660" lon="-7.833760">
                <time>2019-06-14T14:59:42Z</time>
            </trkpt>
            <trkpt lat="55.142760" lon="-7.833540">
                <time>2019-06-14T14:59:43Z</time>
            </trkpt>
            <trkpt lat="55.142860" lon="-7.833320">
                <time>2019-06-14T14:59:44Z</time>
            </trkpt>
            <trkpt lat="55.142950" lon="-7.833090">
                <time>2019-06-14T14:59:45Z</time>
            </trkpt>
            <trkpt lat="55.143040" lon="-7.832870">
                <time>2019-06-14T14:59:46Z</time>
            </trkpt>
            <trkpt lat="55.143140" lon="-7.832650">
                <time>2019-06-14T14:59:47Z</time>
            </trkpt>
            <trkpt lat="55.143230" lon="-7.832410">
                <time>2019-06-14T14:59:48Z</time>
            </trkpt>
            <trkpt lat="55.143330" lon="-7.832180">
                <time>2019-06-14T14:59:49Z</time>
            </trkpt>
            <trkpt lat="55.143420" lon="-7.831950">
                <time>2019-06-14T14:59:50Z</time>
            </trkpt>
            <trkpt lat="55.143510" lon="-7.831730">
                <time>2019-06-14T14:59:51Z</time>
            </trkpt>
            <trkpt lat="55.143600" lon="-7.831510">
                <time>2019-06-14T14:59:52Z</time>
            </trkpt>
            <trkpt lat="55.143680" lon="-7.831280">
                <time>2019-06-14T14:59:53Z</time>
            </trkpt>
            <trkpt lat="55.143780" lon="-7.831030">
                <time>2019-06-14T14:59:54Z</time>
            </trkpt>
            <trkpt lat="55.143870" lon="-7.830770">
                <time>2019-06-14T14:59:55Z</time>
            </trkpt>
            <trkpt lat="55.143970" lon="-7.830510">
                <time>2019-06-14T14:59:56Z</time>
            </trkpt>
            <trkpt lat="55.144060" lon="-7.830250">
                <time>2019-06-14T14:59:57Z</time>
            </trkpt>
            <trkpt lat="55.144150" lon="-7.829990">
                <time>2019-06-14T14:59:58Z</time>
            </trkpt>
            <trkpt lat="55.144240" lon="-7.829720">
                <time>2019-06-14T14:59:59Z</time>
            </trkpt>
            <trkpt lat="55.144340" lon="-7.829450">
                <time>2019-06-14T15:00:00Z</time>
            </trkpt>
            <trkpt lat="55.144430" lon="-7.829180">
                <time>2019-06-14T15:00:01Z</time>
            </trkpt>
            <trkpt lat="55.144520" lon="-7.828900">
                <time>2019-06-14T15:00:02Z</time>
            </trkpt>
            <trkpt lat="55.144610" lon="-7.828610">
                <time>2019-06-14T15:00:03Z</time>
            </trkpt>
            <trkpt lat="55.144690" lon="-7.828320">
                <time>2019-06-14T15:00:04Z</time>
            </trkpt>
            <trkpt lat="55.144780" lon="-7.828040">
                <time>2019-06-14T15:00:05Z</time>
            </trkpt>
            <trkpt lat="55.144860" lon="-7.827780">
                <time>2019-06-14T15:00:06Z</time>
            </trkpt>
            <trkpt lat="55.144930" lon="-7.827520">
                <time>2019-06-14T15:00:07Z</time>
            </trkpt>
            <trkpt lat="55.145010" lon="-7.827270">
                <time>2019-06-14T15:00:08Z</time>
            </trkpt>
            <trkpt lat="55.145090" lon="-7.827010">
                <time>2019-06-14T15:00:09Z</time>
            </trkpt>
            <trkpt lat="55.145180" lon="-7.826740">
                <time>2019-06-14T15:00:10Z</time>
            </trkpt>
            <trkpt lat="55.145260" lon="-7.826460">
                <time>2019-06-14T15:00:11Z</time>
            </trkpt>
            <trkpt lat="55.145330" lon="-7.826180">
                <time>2019-06-14T15:00:12Z</time>
            </trkpt>
            <trkpt lat="55.145400" lon="-7.825890">
                <time>2019-06-14T15:00:13Z</time>
            </trkpt>
            <trkpt lat="55.145460" lon="-7.825600">
                <time>2019-06-14T15:00:14Z</time>
            </trkpt>
            <trkpt lat="55.145520" lon="-7.825300">
                <time>2019-06-14T15:00:15Z</time>
            </trkpt>
            <trkpt lat="55.145590" lon="-7.825010">
                <time>2019-06-14T15:00:16Z</time>
            </trkpt>
            <trkpt lat="55.145670" lon="-7.824730">
                <time>2019-06-14T15:00:17Z</time>
            </trkpt>
            <trkpt lat="55.145770" lon="-7.824460">
                <time>2019-06-14T15:00:18Z</time>
            </trkpt>
            <trkpt lat="55.145870" lon="-7.824180">
                <time>2019-06-14T15:00:19Z</time>
            </trkpt>
            <trkpt lat="55.145970" lon="-7.823890">
                <time>2019-06-14T15:00:20Z</time>
            </trkpt>
            <trkpt lat="55.146060" lon="-7.823610">
                <time>2019-06-14T15:00:21Z</time>
            </trkpt>
            <trkpt lat="55.146160" lon="-7.823360">
                <time>2019-06-14T15:00:22Z</time>
            </trkpt>
            <trkpt lat="55.146250" lon="-7.823110">
                <time>2019-06-14T15:00:23Z</time>
            </trkpt>
            <trkpt lat="55.146340" lon="-7.822850">
                <time>2019-06-14T15:00:24Z</time>
            </trkpt>
            <trkpt lat="55.146430" lon="-7.822600">
                <time>2019-06-14T15:00:25Z</time>
            </trkpt>
            <trkpt lat="55.146530" lon="-7.822350">
                <time>2019-06-14T15:00:26Z</time>
            </trkpt>
            <trkpt lat="55.146640" lon="-7.822110">
                <time>2019-06-14T15:00:27Z</time>
            </trkpt>
            <trkpt lat="55.146750" lon="-7.821890">
                <time>2019-06-14T15:00:28Z</time>
            </trkpt>
            <trkpt lat="55.146850" lon="-7.821680">
                <time>2019-06-14T15:00:29Z</time>
            </trkpt>
            <trkpt lat="55.146960" lon="-7.821460">
                <time>2019-06-14T15:00:30Z</time>
            </trkpt>
            <trkpt lat="55.147080" lon="-7.821240">
                <time>2019-06-14T15:00:31Z</time>
            </trkpt>
            <trkpt lat="55.147190" lon="-7.821020">
                <time>2019-06-14T15:00:32Z</time>
            </trkpt>
            <trkpt lat="55.147320" lon="-7.820830">
                <time>2019-06-14T15:00:33Z</time>
            </trkpt>
            <trkpt lat="55.147450" lon="-7.820680">
                <time>2019-06-14T15:00:34Z</time>
            </trkpt>
            <trkpt lat="55.147590" lon="-7.820540">
                <time>2019-06-14T15:00:35Z</time>
            </trkpt>
            <trkpt lat="55.147730" lon="-7.820410">
                <time>2019-06-14T15:00:36Z</time>
            </trkpt>
            <trkpt lat="55.147870" lon="-7.820250">
                <time>2019-06-14T15:00:37Z</time>
            </trkpt>
            <trkpt lat="55.147990" lon="-7.820060">
                <time>2019-06-14T15:00:38Z</time>
            </trkpt>
            <trkpt lat="55.148110" lon="-7.819840">
                <time>2019-06-14T15:00:39Z</time>
            </trkpt>
            <trkpt lat="55.148220" lon="-7.819600">
                <time>2019-06-14T15:00:40Z</time>
            </trkpt>
            <trkpt lat="55.148330" lon="-7.819330">
                <time>2019-06-14T15:00:41Z</time>
            </trkpt>
            <trkpt lat="55.148440" lon="-7.819030">
                <time>2019-06-14T15:00:42Z</time>
            </trkpt>
            <trkpt lat="55.148540" lon="-7.818720">
                <time>2019-06-14T15:00:43Z</time>
            </trkpt>
            <trkpt lat="55.148640" lon="-7.818400">
                <time>2019-06-14T15:00:44Z</time>
            </trkpt>
            <trkpt lat="55.148740" lon="-7.818090">
                <time>2019-06-14T15:00:45Z</time>
            </trkpt>
            <trkpt lat="55.148840" lon="-7.817780">
                <time>2019-06-14T15:00:46Z</time>
            </trkpt>
            <trkpt lat="55.148950" lon="-7.817480">
                <time>2019-06-14T15:00:47Z</time>
            </trkpt>
            <trkpt lat="55.149050" lon="-7.817190">
                <time>2019-06-14T15:00:48Z</time>
            </trkpt>
            <trkpt lat="55.149160" lon="-7.816920">
                <time>2019-06-14T15:00:49Z</time>
            </trkpt>
            <trkpt lat="55.149290" lon="-7.816680">
                <time>2019-06-14T15:00:50Z</time>
            </trkpt>
            <trkpt lat="55.149440" lon="-7.816480">
                <time>2019-06-14T15:00:51Z</time>
            </trkpt>
            <trkpt lat="55.149610" lon="-7.816330">
                <time>2019-06-14T15:00:52Z</time>
            </trkpt>
            <trkpt lat="55.149800" lon="-7.816220">
                <time>2019-06-14T15:00:53Z</time>
            </trkpt>
            <trkpt lat="55.149970" lon="-7.816110">
                <time>2019-06-14T15:00:54Z</time>
            </trkpt>
            <trkpt lat="55.150130" lon="-7.816010">
                <time>2019-06-14T15:00:55Z</time>
            </trkpt>
            <trkpt lat="55.150290" lon="-7.815930">
                <time>2019-06-14T15:00:56Z</time>
            </trkpt>
            <trkpt lat="55.150440" lon="-7.815870">
                <time>2019-06-14T15:00:57Z</time>
            </trkpt>
            <trkpt lat="55.150610" lon="-7.815820">
                <time>2019-06-14T15:00:58Z</time>
            </trkpt>
            <trkpt lat="55.150780" lon="-7.815780">
                <time>2019-06-14T15:00:59Z</time>
            </trkpt>
            <trkpt lat="55.150960" lon="-7.815740">
                <time>2019-06-14T15:01:00Z</time>
            </trkpt>
            <trkpt lat="55.151130" lon="-7.815700">
                <time>2019-06-14T15:01:01Z</time>
            </trkpt>
            <trkpt lat="55.151290" lon="-7.815670">
                <time>2019-06-14T15:01:02Z</time>
            </trkpt>
            <trkpt lat="55.151450" lon="-7.815650">
                <time>2019-06-14T15:01:03Z</time>
            </trkpt>
            <trkpt lat="55.151610" lon="-7.815600">
                <time>2019-06-14T15:01:04Z</time>
            </trkpt>
            <trkpt lat="55.151770" lon="-7.815540">
                <time>2019-06-14T15:01:05Z</time>
            </trkpt>
            <trkpt lat="55.151940" lon="-7.815470">
                <time>2019-06-14T15:01:06Z</time>
            </trkpt>
            <trkpt lat="55.152100" lon="-7.815380">
                <time>2019-06-14T15:01:07Z</time>
            </trkpt>
            <trkpt lat="55.152250" lon="-7.815240">
                <time>2019-06-14T15:01:08Z</time>
            </trkpt>
            <trkpt lat="55.152380" lon="-7.815070">
                <time>2019-06-14T15:01:09Z</time>
            </trkpt>
            <trkpt lat="55.152500" lon="-7.814870">
                <time>2019-06-14T15:01:10Z</time>
            </trkpt>
            <trkpt lat="55.152610" lon="-7.814670">
                <time>2019-06-14T15:01:11Z</time>
            </trkpt>
            <trkpt lat="55.152720" lon="-7.814480">
                <time>2019-06-14T15:01:12Z</time>
            </trkpt>
            <trkpt lat="55.152810" lon="-7.814300">
                <time>2019-06-14T15:01:13Z</time>
            </trkpt>
            <trkpt lat="55.152910" lon="-7.814130">
                <time>2019-06-14T15:01:14Z</time>
            </trkpt>
            <trkpt lat="55.153010" lon="-7.813950">
                <time>2019-06-14T15:01:15Z</time>
            </trkpt>
            <trkpt lat="55.153110" lon="-7.813750">
                <time>2019-06-14T15:01:16Z</time>
            </trkpt>
            <trkpt lat="55.153220" lon="-7.813550">
                <time>2019-06-14T15:01:17Z</time>
            </trkpt>
            <trkpt lat="55.153330" lon="-7.813340">
                <time>2019-06-14T15:01:18Z</time>
            </trkpt>
            <trkpt lat="55.153450" lon="-7.813120">
                <time>2019-06-14T15:01:19Z</time>
            </trkpt>
            <trkpt lat="55.153560" lon="-7.812910">
                <time>2019-06-14T15:01:20Z</time>
            </trkpt>
            <trkpt lat="55.153680" lon="-7.812710">
                <time>2019-06-14T15:01:21Z</time>
            </trkpt>
            <trkpt lat="55.153790" lon="-7.812510">
                <time>2019-06-14T15:01:22Z</time>
            </trkpt>
            <trkpt lat="55.153900" lon="-7.812320">
                <time>2019-06-14T15:01:23Z</time>
            </trkpt>
            <trkpt lat="55.154000" lon="-7.812130">
                <time>2019-06-14T15:01:24Z</time>
            </trkpt>
            <trkpt lat="55.154110" lon="-7.811940">
                <time>2019-06-14T15:01:25Z</time>
            </trkpt>
            <trkpt lat="55.154220" lon="-7.811740">
                <time>2019-06-14T15:01:26Z</time>
            </trkpt>
            <trkpt lat="55.154330" lon="-7.811550">
                <time>2019-06-14T15:01:27Z</time>
            </trkpt>
            <trkpt lat="55.154430" lon="-7.811360">
                <time>2019-06-14T15:01:28Z</time>
            </trkpt>
            <trkpt lat="55.154520" lon="-7.811180">
                <time>2019-06-14T15:01:29Z</time>
            </trkpt>
            <trkpt lat="55.154630" lon="-7.810990">
                <time>2019-06-14T15:01:30Z</time>
            </trkpt>
            <trkpt lat="55.154730" lon="-7.810800">
                <time>2019-06-14T15:01:31Z</time>
            </trkpt>
            <trkpt lat="55.154840" lon="-7.810600">
                <time>2019-06-14T15:01:32Z</time>
            </trkpt>
            <trkpt lat="55.154950" lon="-7.810390">
                <time>2019-06-14T15:01:33Z</time>
            </trkpt>
            <trkpt lat="55.155060" lon="-7.810180">
                <time>2019-06-14T15:01:34Z</time>
            </trkpt>
            <trkpt lat="55.155170" lon="-7.809980">
                <time>2019-06-14T15:01:35Z</time>
            </trkpt>
            <trkpt lat="55.155290" lon="-7.809770">
                <time>2019-06-14T15:01:36Z</time>
            </trkpt>
            <trkpt lat="55.155400" lon="-7.809570">
                <time>2019-06-14T15:01:37Z</time>
            </trkpt>
            <trkpt lat="55.155510" lon="-7.809370">
                <time>2019-06-14T15:01:38Z</time>
            </trkpt>
            <trkpt lat="55.155620" lon="-7.809170">
                <time>2019-06-14T15:01:39Z</time>
            </trkpt>
            <trkpt lat="55.155730" lon="-7.808970">
                <time>2019-06-14T15:01:40Z</time>
            </trkpt>
            <trkpt lat="55.155840" lon="-7.808770">
                <time>2019-06-14T15:01:41Z</time>
            </trkpt>
            <trkpt lat="55.155960" lon="-7.808560">
                <time>2019-06-14T15:01:42Z</time>
            </trkpt>
            <trkpt lat="55.156090" lon="-7.808330">
                <time>2019-06-14T15:01:43Z</time>
            </trkpt>
            <trkpt lat="55.156230" lon="-7.808070">
                <time>2019-06-14T15:01:44Z</time>
            </trkpt>
            <trkpt lat="55.156360" lon="-7.807820">
                <time>2019-06-14T15:01:45Z</time>
            </trkpt>
            <trkpt lat="55.156490" lon="-7.807570">
                <time>2019-06-14T15:01:46Z</time>
            </trkpt>
            <trkpt lat="55.156610" lon="-7.807350">
                <time>2019-06-14T15:01:47Z</time>
            </trkpt>
            <trkpt lat="55.156720" lon="-7.807140">
                <time>2019-06-14T15:01:48Z</time>
            </trkpt>
            <trkpt lat="55.156830" lon="-7.806930">
                <time>2019-06-14T15:01:49Z</time>
            </trkpt>
            <trkpt lat="55.156950" lon="-7.806720">
                <time>2019-06-14T15:01:50Z</time>
            </trkpt>
            <trkpt lat="55.157060" lon="-7.806510">
                <time>2019-06-14T15:01:51Z</time>
            </trkpt>
            <trkpt lat="55.157170" lon="-7.806310">
                <time>2019-06-14T15:01:52Z</time>
            </trkpt>
            <trkpt lat="55.157270" lon="-7.806130">
                <time>2019-06-14T15:01:53Z</time>
            </trkpt>
            <trkpt lat="55.157350" lon="-7.805980">
                <time>2019-06-14T15:01:54Z</time>
            </trkpt>
            <trkpt lat="55.157430" lon="-7.805840">
                <time>2019-06-14T15:01:55Z</time>
            </trkpt>
            <trkpt lat="55.157500" lon="-7.805720">
                <time>2019-06-14T15:01:56Z</time>
            </trkpt>
            <trkpt lat="55.157580" lon="-7.805590">
                <time>2019-06-14T15:01:57Z</time>
            </trkpt>
            <trkpt lat="55.157660" lon="-7.805440">
                <time>2019-06-14T15:01:58Z</time>
            </trkpt>
            <trkpt lat="55.157750" lon="-7.805290">
                <time>2019-06-14T15:01:59Z</time>
            </trkpt>
            <trkpt lat="55.157840" lon="-7.805120">
                <time>2019-06-14T15:02:00Z</time>
            </trkpt>
            <trkpt lat="55.157930" lon="-7.804950">
                <time>2019-06-14T15:02:01Z</time>
            </trkpt>
            <trkpt lat="55.158030" lon="-7.804770">
                <time>2019-06-14T15:02:02Z</time>
            </trkpt>
            <trkpt lat="55.158130" lon="-7.804600">
                <time>2019-06-14T15:02:03Z</time>
            </trkpt>
            <trkpt lat="55.158230" lon="-7.804440">
                <time>2019-06-14T15:02:04Z</time>
            </trkpt>
            <trkpt lat="55.158340" lon="-7.804310">
                <time>2019-06-14T15:02:05Z</time>
            </trkpt>
            <trkpt lat="55.158460" lon="-7.804220">
                <time>2019-06-14T15:02:06Z</time>
            </trkpt>
            <trkpt lat="55.158570" lon="-7.804170">
                <time>2019-06-14T15:02:07Z</time>
            </trkpt>
            <trkpt lat="55.158690" lon="-7.804120">
                <time>2019-06-14T15:02:08Z</time>
            </trkpt>
            <trkpt lat="55.158820" lon="-7.804060">
                <time>2019-06-14T15:02:09Z</time>
            </trkpt>
            <trkpt lat="55.158960" lon="-7.804000">
                <time>2019-06-14T15:02:10Z</time>
            </trkpt>
            <trkpt lat="55.159120" lon="-7.803930">
                <time>2019-06-14T15:02:11Z</time>
            </trkpt>
            <trkpt lat="55.159270" lon="-7.803860">
                <time>2019-06-14T15:02:12Z</time>
            </trkpt>
            <trkpt lat="55.159430" lon="-7.803790">
                <time>2019-06-14T15:02:13Z</time>
            </trkpt>
            <trkpt lat="55.159600" lon="-7.803720">
                <time>2019-06-14T15:02:14Z</time>
            </trkpt>
            <trkpt lat="55.159770" lon="-7.803640">
                <time>2019-06-14T15:02:15Z</time>
            </trkpt>
            <trkpt lat="55.159960" lon="-7.803560">
                <time>2019-06-14T15:02:16Z</time>
            </trkpt>
            <trkpt lat="55.160140" lon="-7.803480">
                <time>2019-06-14T15:02:17Z</time>
            </trkpt>
            <trkpt lat="55.160320" lon="-7.803400">
                <time>2019-06-14T15:02:18Z</time>
            </trkpt>
            <trkpt lat="55.160500" lon="-7.803320">
                <time>2019-06-14T15:02:19Z</time>
            </trkpt>
            <trkpt lat="55.160680" lon="-7.803240">
                <time>2019-06-14T15:02:20Z</time>
            </trkpt>
            <trkpt lat="55.160860" lon="-7.803160">
                <time>2019-06-14T15:02:21Z</time>
            </trkpt>
            <trkpt lat="55.161050" lon="-7.803090">
                <time>2019-06-14T15:02:22Z</time>
            </trkpt>
            <trkpt lat="55.161230" lon="-7.803010">
                <time>2019-06-14T15:02:23Z</time>
            </trkpt>
            <trkpt lat="55.161420" lon="-7.802930">
                <time>2019-06-14T15:02:24Z</time>
            </trkpt>
            <trkpt lat="55.161610" lon="-7.802860">
                <time>2019-06-14T15:02:25Z</time>
            </trkpt>
            <trkpt lat="55.161800" lon="-7.802790">
                <time>2019-06-14T15:02:26Z</time>
            </trkpt>
            <trkpt lat="55.162000" lon="-7.802710">
                <time>2019-06-14T15:02:27Z</time>
            </trkpt>
            <trkpt lat="55.162190" lon="-7.802640">
                <time>2019-06-14T15:02:28Z</time>
            </trkpt>
            <trkpt lat="55.162390" lon="-7.802570">
                <time>2019-06-14T15:02:29Z</time>
            </trkpt>
            <trkpt lat="55.162580" lon="-7.802500">
                <time>2019-06-14T15:02:30Z</time>
            </trkpt>
            <trkpt lat="55.162780" lon="-7.802420">
                <time>2019-06-14T15:02:31Z</time>
            </trkpt>
            <trkpt lat="55.162980" lon="-7.802340">
                <time>2019-06-14T15:02:32Z</time>
            </trkpt>
            <trkpt lat="55.163190" lon="-7.802260">
                <time>2019-06-14T15:02:33Z</time>
            </trkpt>
            <trkpt lat="55.163390" lon="-7.802170">
                <time>2019-06-14T15:02:34Z</time>
            </trkpt>
            <trkpt lat="55.163590" lon="-7.802100">
                <time>2019-06-14T15:02:35Z</time>
            </trkpt>
            <trkpt lat="55.163790" lon="-7.802030">
                <time>2019-06-14T15:02:36Z</time>
            </trkpt>
            <trkpt lat="55.163990" lon="-7.801960">
                <time>2019-06-14T15:02:37Z</time>
            </trkpt>
            <trkpt lat="55.164190" lon="-7.801890">
                <time>2019-06-14T15:02:38Z</time>
            </trkpt>
            <trkpt lat="55.164380" lon="-7.801830">
                <time>2019-06-14T15:02:39Z</time>
            </trkpt>
            <trkpt lat="55.164560" lon="-7.801770">
                <time>2019-06-14T15:02:40Z</time>
            </trkpt>
            <trkpt lat="55.164740" lon="-7.801710">
                <time>2019-06-14T15:02:41Z</time>
            </trkpt>
            <trkpt lat="55.164920" lon="-7.801650">
                <time>2019-06-14T15:02:42Z</time>
            </trkpt>
            <trkpt lat="55.165100" lon="-7.801590">
                <time>2019-06-14T15:02:43Z</time>
            </trkpt>
            <trkpt lat="55.165280" lon="-7.801520">
                <time>2019-06-14T15:02:44Z</time>
            </trkpt>
            <trkpt lat="55.165460" lon="-7.801460">
                <time>2019-06-14T15:02:45Z</time>
            </trkpt>
            <trkpt lat="55.165630" lon="-7.801400">
                <time>2019-06-14T15:02:46Z</time>
            </trkpt>
            <trkpt lat="55.165800" lon="-7.801340">
                <time>2019-06-14T15:02:47Z</time>
            </trkpt>
            <trkpt lat="55.165970" lon="-7.801290">
                <time>2019-06-14T15:02:48Z</time>
            </trkpt>
            <trkpt lat="55.166140" lon="-7.801230">
                <time>2019-06-14T15:02:49Z</time>
            </trkpt>
            <trkpt lat="55.166320" lon="-7.801170">
                <time>2019-06-14T15:02:50Z</time>
            </trkpt>
            <trkpt lat="55.166510" lon="-7.801120">
                <time>2019-06-14T15:02:51Z</time>
            </trkpt>
            <trkpt lat="55.166690" lon="-7.801060">
                <time>2019-06-14T15:02:52Z</time>
            </trkpt>
            <trkpt lat="55.166870" lon="-7.801020">
                <time>2019-06-14T15:02:53Z</time>
            </trkpt>
            <trkpt lat="55.167040" lon="-7.800990">
                <time>2019-06-14T15:02:54Z</time>
            </trkpt>
            <trkpt lat="55.167200" lon="-7.800960">
                <time>2019-06-14T15:02:55Z</time>
            </trkpt>
            <trkpt lat="55.167360" lon="-7.800930">
                <time>2019-06-14T15:02:56Z</time>
            </trkpt>
            <trkpt lat="55.167510" lon="-7.800910">
                <time>2019-06-14T15:02:57Z</time>
            </trkpt>
            <trkpt lat="55.167660" lon="-7.800890">
                <time>2019-06-14T15:02:58Z</time>
            </trkpt>
            <trkpt lat="55.167800" lon="-7.800860">
                <time>2019-06-14T15:02:59Z</time>
            </trkpt>
            <trkpt lat="55.167950" lon="-7.800840">
                <time>2019-06-14T15:03:00Z</time>
            </trkpt>
            <trkpt lat="55.168110" lon="-7.800810">
                <time>2019-06-14T15:03:01Z</time>
            </trkpt>
            <trkpt lat="55.168260" lon="-7.800790">
                <time>2019-06-14T15:03:02Z</time>
            </trkpt>
            <trkpt lat="55.168410" lon="-7.800760">
                <time>2019-06-14T15:03:03Z</time>
            </trkpt>
            <trkpt lat="55.168560" lon="-7.800740">
                <time>2019-06-14T15:03:04Z</time>
            </trkpt>
            <trkpt lat="55.168720" lon="-7.800710">
                <time>2019-06-14T15:03:05Z</time>
            </trkpt>
            <trkpt lat="55.168880" lon="-7.800690">
                <time>2019-06-14T15:03:06Z</time>
            </trkpt>
            <trkpt lat="55.169040" lon="-7.800660">
                <time>2019-06-14T15:03:07Z</time>
            </trkpt>
            <trkpt lat="55.169190" lon="-7.800640">
                <time>2019-06-14T15:03:08Z</time>
            </trkpt>
            <trkpt lat="55.169340" lon="-7.800620">
                <time>2019-06-14T15:03:09Z</time>
            </trkpt>
            <trkpt lat="55.169490" lon="-7.800600">
                <time>2019-06-14T15:03:10Z</time>
            </trkpt>
            <trkpt lat="55.169630" lon="-7.800570">
                <time>2019-06-14T15:03:11Z</time>
            </trkpt>
            <trkpt lat="55.169770" lon="-7.800540">
                <time>2019-06-14T15:03:12Z</time>
            </trkpt>
            <trkpt lat="55.169900" lon="-7.800510">
                <time>2019-06-14T15:03:13Z</time>
            </trkpt>
            <trkpt lat="55.170030" lon="-7.800470">
                <time>2019-06-14T15:03:14Z</time>
            </trkpt>
            <trkpt lat="55.170160" lon="-7.800440">
                <time>2019-06-14T15:03:15Z</time>
            </trkpt>
            <trkpt lat="55.170290" lon="-7.800400">
                <time>2019-06-14T15:03:16Z</time>
            </trkpt>
            <trkpt lat="55.170420" lon="-7.800360">
                <time>2019-06-14T15:03:17Z</time>
            </trkpt>
            <trkpt lat="55.170550" lon="-7.800330">
                <time>2019-06-14T15:03:18Z</time>
            </trkpt>
            <trkpt lat="55.170670" lon="-7.800300">
                <time>2019-06-14T15:03:19Z</time>
            </trkpt>
            <trkpt lat="55.170770" lon="-7.800270">
                <time>2019-06-14T15:03:20Z</time>
            </trkpt>
            <trkpt lat="55.170870" lon="-7.800250">
                <time>2019-06-14T15:03:21Z</time>
            </trkpt>
            <trkpt lat="55.170950" lon="-7.800230">
                <time>2019-06-14T15:03:22Z</time>
            </trkpt>
            <trkpt lat="55.171020" lon="-7.800210">
                <time>2019-06-14T15:03:23Z</time>
            </trkpt>
            <trkpt lat="55.171070" lon="-7.800200">
                <time>2019-06-14T15:03:24Z</time>
            </trkpt>
            <trkpt lat="55.171120" lon="-7.800190">
                <time>2019-06-14T15:03:25Z</time>
            </trkpt>
            <trkpt lat="55.171170" lon="-7.800180">
                <time>2019-06-14T15:03:26Z</time>
            </trkpt>
            <trkpt lat="55.171230" lon="-7.800160">
                <time>2019-06-14T15:03:27Z</time>
            </trkpt>
            <trkpt lat="55.171300" lon="-7.800140">
                <time>2019-06-14T15:03:28Z</time>
            </trkpt>
            <trkpt lat="55.171390" lon="-7.800120">
                <time>2019-06-14T15:03:29Z</time>
            </trkpt>
            <trkpt lat="55.171490" lon="-7.800090">
                <time>2019-06-14T15:03:30Z</time>
            </trkpt>
            <trkpt lat="55.171610" lon="-7.800060">
                <time>2019-06-14T15:03:31Z</time>
            </trkpt>
            <trkpt lat="55.171720" lon="-7.800030">
                <time>2019-06-14T15:03:32Z</time>
            </trkpt>
            <trkpt lat="55.171840" lon="-7.800000">
                <time>2019-06-14T15:03:33Z</time>
            </trkpt>
            <trkpt lat="55.171960" lon="-7.799970">
                <time>2019-06-14T15:03:34Z</time>
            </trkpt>
            <trkpt lat="55.172110" lon="-7.799930">
                <time>2019-06-14T15:03:35Z</time>
            </trkpt>
            <trkpt lat="55.172250" lon="-7.799890">
                <time>2019-06-14T15:03:36Z</time>
            </trkpt>
            <trkpt lat="55.172390" lon="-7.799840">
                <time>2019-06-14T15:03:37Z</time>
            </trkpt>
            <trkpt lat="55.172530" lon="-7.799800">
                <time>2019-06-14T15:03:38Z</time>
            </trkpt>
            <trkpt lat="55.172670" lon="-7.799760">
                <time>2019-06-14T15:03:39Z</time>
            </trkpt>
            <trkpt lat="55.172810" lon="-7.799720">
                <time>2019-06-14T15:03:40Z</time>
            </trkpt>
            <trkpt lat="55.172960" lon="-7.799680">
                <time>2019-06-14T15:03:41Z</time>
            </trkpt>
            <trkpt lat="55.173100" lon="-7.799640">
                <time>2019-06-14T15:03:42Z</time>
            </trkpt>
            <trkpt lat="55.173260" lon="-7.799600">
                <time>2019-06-14T15:03:43Z</time>
            </trkpt>
            <trkpt lat="55.173410" lon="-7.799540">
                <time>2019-06-14T15:03:44Z</time>
            </trkpt>
            <trkpt lat="55.173550" lon="-7.799480">
                <time>2019-06-14T15:03:45Z</time>
            </trkpt>
            <trkpt lat="55.173690" lon="-7.799420">
                <time>2019-06-14T15:03:46Z</time>
            </trkpt>
            <trkpt lat="55.173830" lon="-7.799350">
                <time>2019-06-14T15:03:47Z</time>
            </trkpt>
            <trkpt lat="55.173970" lon="-7.799290">
                <time>2019-06-14T15:03:48Z</time>
            </trkpt>
            <trkpt lat="55.174110" lon="-7.799210">
                <time>2019-06-14T15:03:49Z</time>
            </trkpt>
            <trkpt lat="55.174250" lon="-7.799130">
                <time>2019-06-14T15:03:50Z</time>
            </trkpt>
            <trkpt lat="55.174390" lon="-7.799020">
                <time>2019-06-14T15:03:51Z</time>
            </trkpt>
            <trkpt lat="55.174530" lon="-7.798900">
                <time>2019-06-14T15:03:52Z</time>
            </trkpt>
            <trkpt lat="55.174660" lon="-7.798760">
                <time>2019-06-14T15:03:53Z</time>
            </trkpt>
            <trkpt lat="55.174780" lon="-7.798590">
                <time>2019-06-14T15:03:54Z</time>
            </trkpt>
            <trkpt lat="55.174900" lon="-7.798420">
                <time>2019-06-14T15:03:55Z</time>
            </trkpt>
            <trkpt lat="55.175020" lon="-7.798250">
                <time>2019-06-14T15:03:56Z</time>
            </trkpt>
            <trkpt lat="55.175150" lon="-7.798060">
                <time>2019-06-14T15:03:57Z</time>
            </trkpt>
            <trkpt lat="55.175270" lon="-7.797860">
                <time>2019-06-14T15:03:58Z</time>
            </trkpt>
            <trkpt lat="55.175380" lon="-7.797660">
                <time>2019-06-14T15:03:59Z</time>
            </trkpt>
            <trkpt lat="55.175480" lon="-7.797460">
                <time>2019-06-14T15:04:00Z</time>
            </trkpt>
            <trkpt lat="55.175580" lon="-7.797270">
                <time>2019-06-14T15:04:01Z</time>
            </trkpt>
            <trkpt lat="55.175680" lon="-7.797090">
                <time>2019-06-14T15:04:02Z</time>
            </trkpt>
            <trkpt lat="55.175780" lon="-7.796910">
                <time>2019-06-14T15:04:03Z</time>
            </trkpt>
            <trkpt lat="55.175870" lon="-7.796730">
                <time>2019-06-14T15:04:04Z</time>
            </trkpt>
            <trkpt lat="55.175970" lon="-7.796550">
                <time>2019-06-14T15:04:05Z</time>
            </trkpt>
            <trkpt lat="55.176060" lon="-7.796390">
                <time>2019-06-14T15:04:06Z</time>
            </trkpt>
            <trkpt lat="55.176150" lon="-7.796230">
                <time>2019-06-14T15:04:07Z</time>
            </trkpt>
            <trkpt lat="55.176230" lon="-7.796080">
                <time>2019-06-14T15:04:08Z</time>
            </trkpt>
            <trkpt lat="55.176310" lon="-7.795940">
                <time>2019-06-14T15:04:09Z</time>
            </trkpt>
            <trkpt lat="55.176380" lon="-7.795800">
                <time>2019-06-14T15:04:10Z</time>
            </trkpt>
            <trkpt lat="55.176440" lon="-7.795670">
                <time>2019-06-14T15:04:11Z</time>
            </trkpt>
            <trkpt lat="55.176500" lon="-7.795560">
                <time>2019-06-14T15:04:12Z</time>
            </trkpt>
            <trkpt lat="55.176570" lon="-7.795450">
                <time>2019-06-14T15:04:13Z</time>
            </trkpt>
            <trkpt lat="55.176630" lon="-7.795330">
                <time>2019-06-14T15:04:14Z</time>
            </trkpt>
            <trkpt lat="55.176700" lon="-7.795210">
                <time>2019-06-14T15:04:15Z</time>
            </trkpt>
            <trkpt lat="55.176780" lon="-7.795080">
                <time>2019-06-14T15:04:16Z</time>
            </trkpt>
            <trkpt lat="55.176850" lon="-7.794960">
                <time>2019-06-14T15:04:17Z</time>
            </trkpt>
            <trkpt lat="55.176930" lon="-7.794850">
                <time>2019-06-14T15:04:18Z</time>
            </trkpt>
            <trkpt lat="55.177000" lon="-7.794720">
                <time>2019-06-14T15:04:19Z</time>
            </trkpt>
            <trkpt lat="55.177080" lon="-7.794590">
                <time>2019-06-14T15:04:20Z</time>
            </trkpt>
            <trkpt lat="55.177150" lon="-7.794460">
                <time>2019-06-14T15:04:21Z</time>
            </trkpt>
            <trkpt lat="55.177240" lon="-7.794320">
                <time>2019-06-14T15:04:22Z</time>
            </trkpt>
            <trkpt lat="55.177320" lon="-7.794180">
                <time>2019-06-14T15:04:23Z</time>
            </trkpt>
            <trkpt lat="55.177400" lon="-7.794060">
                <time>2019-06-14T15:04:24Z</time>
            </trkpt>
            <trkpt lat="55.177470" lon="-7.793940">
                <time>2019-06-14T15:04:25Z</time>
            </trkpt>
            <trkpt lat="55.177530" lon="-7.793840">
                <time>2019-06-14T15:04:26Z</time>
            </trkpt>
            <trkpt lat="55.177580" lon="-7.793740">
                <time>2019-06-14T15:04:27Z</time>
            </trkpt>
            <trkpt lat="55.177620" lon="-7.793640">
                <time>2019-06-14T15:04:28Z</time>
            </trkpt>
            <trkpt lat="55.177630" lon="-7.793520">
                <time>2019-06-14T15:04:29Z</time>
            </trkpt>
            <trkpt lat="55.177620" lon="-7.793390">
                <time>2019-06-14T15:04:30Z</time>
            </trkpt>
            <trkpt lat="55.177580" lon="-7.793250">
                <time>2019-06-14T15:04:31Z</time>
            </trkpt>
            <trkpt lat="55.177520" lon="-7.793100">
                <time>2019-06-14T15:04:32Z</time>
            </trkpt>
            <trkpt lat="55.177460" lon="-7.792930">
                <time>2019-06-14T15:04:33Z</time>
            </trkpt>
            <trkpt lat="55.177390" lon="-7.792760">
                <time>2019-06-14T15:04:34Z</time>
            </trkpt>
            <trkpt lat="55.177320" lon="-7.792540">
                <time>2019-06-14T15:04:35Z</time>
            </trkpt>
            <trkpt lat="55.177240" lon="-7.792330">
                <time>2019-06-14T15:04:36Z</time>
            </trkpt>
            <trkpt lat="55.177160" lon="-7.792120">
                <time>2019-06-14T15:04:37Z</time>
            </trkpt>
            <trkpt lat="55.177070" lon="-7.791910">
                <time>2019-06-14T15:04:38Z</time>
            </trkpt>
            <trkpt lat="55.176980" lon="-7.791690">
                <time>2019-06-14T15:04:39Z</time>
            </trkpt>
            <trkpt lat="55.176890" lon="-7.791460">
                <time>2019-06-14T15:04:40Z</time>
            </trkpt>
            <trkpt lat="55.176780" lon="-7.791210">
                <time>2019-06-14T15:04:41Z</time>
            </trkpt>
            <trkpt lat="55.176690" lon="-7.790960">
                <time>2019-06-14T15:04:42Z</time>
            </trkpt>
            <trkpt lat="55.176600" lon="-7.790710">
                <time>2019-06-14T15:04:43Z</time>
            </trkpt>
            <trkpt lat="55.176520" lon="-7.790450">
                <time>2019-06-14T15:04:44Z</time>
            </trkpt>
            <trkpt lat="55.176460" lon="-7.790200">
                <time>2019-06-14T15:04:45Z</time>
            </trkpt>
            <trkpt lat="55.176410" lon="-7.789940">
                <time>2019-06-14T15:04:46Z</time>
            </trkpt>
            <trkpt lat="55.176360" lon="-7.789660">
                <time>2019-06-14T15:04:47Z</time>
            </trkpt>
            <trkpt lat="55.176330" lon="-7.789370">
                <time>2019-06-14T15:04:48Z</time>
            </trkpt>
            <trkpt lat="55.176300" lon="-7.789090">
                <time>2019-06-14T15:04:49Z</time>
            </trkpt>
            <trkpt lat="55.176270" lon="-7.788800">
                <time>2019-06-14T15:04:50Z</time>
            </trkpt>
            <trkpt lat="55.176250" lon="-7.788520">
                <time>2019-06-14T15:04:51Z</time>
            </trkpt>
            <trkpt lat="55.176240" lon="-7.788250">
                <time>2019-06-14T15:04:52Z</time>
            </trkpt>
            <trkpt lat="55.176220" lon="-7.787990">
                <time>2019-06-14T15:04:53Z</time>
            </trkpt>
            <trkpt lat="55.176210" lon="-7.787750">
                <time>2019-06-14T15:04:54Z</time>
            </trkpt>
            <trkpt lat="55.176190" lon="-7.787510">
                <time>2019-06-14T15:04:55Z</time>
            </trkpt>
            <trkpt lat="55.176170" lon="-7.787260">
                <time>2019-06-14T15:04:56Z</time>
            </trkpt>
            <trkpt lat="55.176140" lon="-7.787000">
                <time>2019-06-14T15:04:57Z</time>
            </trkpt>
            <trkpt lat="55.176120" lon="-7.786740">
                <time>2019-06-14T15:04:58Z</time>
            </trkpt>
            <trkpt lat="55.176100" lon="-7.786460">
                <time>2019-06-14T15:04:59Z</time>
            </trkpt>
            <trkpt lat="55.176080" lon="-7.786170">
                <time>2019-06-14T15:05:00Z</time>
            </trkpt>
            <trkpt lat="55.176060" lon="-7.785880">
                <time>2019-06-14T15:05:01Z</time>
            </trkpt>
            <trkpt lat="55.176050" lon="-7.785590">
                <time>2019-06-14T15:05:02Z</time>
            </trkpt>
            <trkpt lat="55.176040" lon="-7.785310">
                <time>2019-06-14T15:05:03Z</time>
            </trkpt>
            <trkpt lat="55.176030" lon="-7.785040">
                <time>2019-06-14T15:05:04Z</time>
            </trkpt>
            <trkpt lat="55.176020" lon="-7.784760">
                <time>2019-06-14T15:05:05Z</time>
            </trkpt>
            <trkpt lat="55.176020" lon="-7.784460">
                <time>2019-06-14T15:05:06Z</time>
            </trkpt>
            <trkpt lat="55.176010" lon="-7.784170">
                <time>2019-06-14T15:05:07Z</time>
            </trkpt>
            <trkpt lat="55.176010" lon="-7.783880">
                <time>2019-06-14T15:05:08Z</time>
            </trkpt>
            <trkpt lat="55.176010" lon="-7.783590">
                <time>2019-06-14T15:05:09Z</time>
            </trkpt>
            <trkpt lat="55.176010" lon="-7.783300">
                <time>2019-06-14T15:05:10Z</time>
            </trkpt>
            <trkpt lat="55.176010" lon="-7.783000">
                <time>2019-06-14T15:05:11Z</time>
            </trkpt>
            <trkpt lat="55.176010" lon="-7.782690">
                <time>2019-06-14T15:05:12Z</time>
            </trkpt>
            <trkpt lat="55.176010" lon="-7.782390">
                <time>2019-06-14T15:05:13Z</time>
            </trkpt>
            <trkpt lat="55.176010" lon="-7.782090">
                <time>2019-06-14T15:05:14Z</time>
            </trkpt>
            <trkpt lat="55.176000" lon="-7.781790">
                <time>2019-06-14T15:05:15Z</time>
            </trkpt>
            <trkpt lat="55.176000" lon="-7.781510">
                <time>2019-06-14T15:05:16Z</time>
            </trkpt>
            <trkpt lat="55.176000" lon="-7.781230">
                <time>2019-06-14T15:05:17Z</time>
            </trkpt>
            <trkpt lat="55.176000" lon="-7.780950">
                <time>2019-06-14T15:05:18Z</time>
            </trkpt>
            <trkpt lat="55.176000" lon="-7.780660">
                <time>2019-06-14T15:05:19Z</time>
            </trkpt>
            <trkpt lat="55.175990" lon="-7.780360">
                <time>2019-06-14T15:05:20Z</time>
            </trkpt>
            <trkpt lat="55.175990" lon="-7.780060">
                <time>2019-06-14T15:05:21Z</time>
            </trkpt>
            <trkpt lat="55.175980" lon="-7.779750">
                <time>2019-06-14T15:05:22Z</time>
            </trkpt>
            <trkpt lat="55.175970" lon="-7.779430">
                <time>2019-06-14T15:05:23Z</time>
            </trkpt>
            <trkpt lat="55.175970" lon="-7.779120">
                <time>2019-06-14T15:05:24Z</time>
            </trkpt>
            <trkpt lat="55.175970" lon="-7.778810">
                <time>2019-06-14T15:05:25Z</time>
            </trkpt>
            <trkpt lat="55.175970" lon="-7.778500">
                <time>2019-06-14T15:05:26Z</time>
            </trkpt>
            <trkpt lat="55.175970" lon="-7.778190">
                <time>2019-06-14T15:05:27Z</time>
            </trkpt>
            <trkpt lat="55.175970" lon="-7.777880">
                <time>2019-06-14T15:05:28Z</time>
            </trkpt>
            <trkpt lat="55.175970" lon="-7.777580">
                <time>2019-06-14T15:05:29Z</time>
            </trkpt>
            <trkpt lat="55.175960" lon="-7.777280">
                <time>2019-06-14T15:05:30Z</time>
            </trkpt>
            <trkpt lat="55.175950" lon="-7.776980">
                <time>2019-06-14T15:05:31Z</time>
            </trkpt>
            <trkpt lat="55.175940" lon="-7.776680">
                <time>2019-06-14T15:05:32Z</time>
            </trkpt>
            <trkpt lat="55.175930" lon="-7.776370">
                <time>2019-06-14T15:05:33Z</time>
            </trkpt>
            <trkpt lat="55.175920" lon="-7.776040">
                <time>2019-06-14T15:05:34Z</time>
            </trkpt>
            <trkpt lat="55.175900" lon="-7.775710">
                <time>2019-06-14T15:05:35Z</time>
            </trkpt>
            <trkpt lat="55.175890" lon="-7.775380">
                <time>2019-06-14T15:05:36Z</time>
            </trkpt>
            <trkpt lat="55.175880" lon="-7.775060">
                <time>2019-06-14T15:05:37Z</time>
            </trkpt>
            <trkpt lat="55.175870" lon="-7.774730">
                <time>2019-06-14T15:05:38Z</time>
            </trkpt>
            <trkpt lat="55.175850" lon="-7.774410">
                <time>2019-06-14T15:05:39Z</time>
            </trkpt>
            <trkpt lat="55.175840" lon="-7.774090">
                <time>2019-06-14T15:05:40Z</time>
            </trkpt>
            <trkpt lat="55.175830" lon="-7.773790">
                <time>2019-06-14T15:05:41Z</time>
            </trkpt>
            <trkpt lat="55.175810" lon="-7.773490">
                <time>2019-06-14T15:05:42Z</time>
            </trkpt>
            <trkpt lat="55.175800" lon="-7.773200">
                <time>2019-06-14T15:05:43Z</time>
            </trkpt>
            <trkpt lat="55.175790" lon="-7.772910">
                <time>2019-06-14T15:05:44Z</time>
            </trkpt>
            <trkpt lat="55.175780" lon="-7.772610">
                <time>2019-06-14T15:05:45Z</time>
            </trkpt>
            <trkpt lat="55.175770" lon="-7.772320">
                <time>2019-06-14T15:05:46Z</time>
            </trkpt>
            <trkpt lat="55.175760" lon="-7.772030">
                <time>2019-06-14T15:05:47Z</time>
            </trkpt>
            <trkpt lat="55.175740" lon="-7.771710">
                <time>2019-06-14T15:05:48Z</time>
            </trkpt>
            <trkpt lat="55.175720" lon="-7.771390">
                <time>2019-06-14T15:05:49Z</time>
            </trkpt>
            <trkpt lat="55.175700" lon="-7.771070">
                <time>2019-06-14T15:05:50Z</time>
            </trkpt>
            <trkpt lat="55.175680" lon="-7.770750">
                <time>2019-06-14T15:05:51Z</time>
            </trkpt>
            <trkpt lat="55.175660" lon="-7.770430">
                <time>2019-06-14T15:05:52Z</time>
            </trkpt>
            <trkpt lat="55.175640" lon="-7.770120">
                <time>2019-06-14T15:05:53Z</time>
            </trkpt>
            <trkpt lat="55.175620" lon="-7.769810">
                <time>2019-06-14T15:05:54Z</time>
            </trkpt>
            <trkpt lat="55.175610" lon="-7.769520">
                <time>2019-06-14T15:05:55Z</time>
            </trkpt>
            <trkpt lat="55.175600" lon="-7.769220">
                <time>2019-06-14T15:05:56Z</time>
            </trkpt>
            <trkpt lat="55.175580" lon="-7.768920">
                <time>2019-06-14T15:05:57Z</time>
            </trkpt>
            <trkpt lat="55.175560" lon="-7.768630">
                <time>2019-06-14T15:05:58Z</time>
            </trkpt>
            <trkpt lat="55.175540" lon="-7.768310">
                <time>2019-06-14T15:05:59Z</time>
            </trkpt>
            <trkpt lat="55.175520" lon="-7.767970">
                <time>2019-06-14T15:06:00Z</time>
            </trkpt>
            <trkpt lat="55.175500" lon="-7.767620">
                <time>2019-06-14T15:06:01Z</time>
            </trkpt>
            <trkpt lat="55.175470" lon="-7.767240">
                <time>2019-06-14T15:06:02Z</time>
            </trkpt>
            <trkpt lat="55.175450" lon="-7.766860">
                <time>2019-06-14T15:06:03Z</time>
            </trkpt>
            <trkpt lat="55.175420" lon="-7.766480">
                <time>2019-06-14T15:06:04Z</time>
            </trkpt>
            <trkpt lat="55.175390" lon="-7.766100">
                <time>2019-06-14T15:06:05Z</time>
            </trkpt>
            <trkpt lat="55.175370" lon="-7.765730">
                <time>2019-06-14T15:06:06Z</time>
            </trkpt>
            <trkpt lat="55.175340" lon="-7.765370">
                <time>2019-06-14T15:06:07Z</time>
            </trkpt>
            <trkpt lat="55.175310" lon="-7.765020">
                <time>2019-06-14T15:06:08Z</time>
            </trkpt>
            <trkpt lat="55.175290" lon="-7.764700">
                <time>2019-06-14T15:06:09Z</time>
            </trkpt>
            <trkpt lat="55.175270" lon="-7.764390">
                <time>2019-06-14T15:06:10Z</time>
            </trkpt>
            <trkpt lat="55.175240" lon="-7.764080">
                <time>2019-06-14T15:06:11Z</time>
            </trkpt>
            <trkpt lat="55.175230" lon="-7.763780">
                <time>2019-06-14T15:06:12Z</time>
            </trkpt>
            <trkpt lat="55.175200" lon="-7.763470">
                <time>2019-06-14T15:06:13Z</time>
            </trkpt>
            <trkpt lat="55.175180" lon="-7.763150">
                <time>2019-06-14T15:06:14Z</time>
            </trkpt>
            <trkpt lat="55.175150" lon="-7.762830">
                <time>2019-06-14T15:06:15Z</time>
            </trkpt>
            <trkpt lat="55.175120" lon="-7.762500">
                <time>2019-06-14T15:06:16Z</time>
            </trkpt>
            <trkpt lat="55.175090" lon="-7.762180">
                <time>2019-06-14T15:06:17Z</time>
            </trkpt>
            <trkpt lat="55.175060" lon="-7.761860">
                <time>2019-06-14T15:06:18Z</time>
            </trkpt>
            <trkpt lat="55.175030" lon="-7.761540">
                <time>2019-06-14T15:06:19Z</time>
            </trkpt>
            <trkpt lat="55.175000" lon="-7.761230">
                <time>2019-06-14T15:06:20Z</time>
            </trkpt>
            <trkpt lat="55.174980" lon="-7.760930">
                <time>2019-06-14T15:06:21Z</time>
            </trkpt>
            <trkpt lat="55.174950" lon="-7.760630">
                <time>2019-06-14T15:06:22Z</time>
            </trkpt>
            <trkpt lat="55.174920" lon="-7.760330">
                <time>2019-06-14T15:06:23Z</time>
            </trkpt>
            <trkpt lat="55.174890" lon="-7.760030">
                <time>2019-06-14T15:06:24Z</time>
            </trkpt>
            <trkpt lat="55.174870" lon="-7.759720">
                <time>2019-06-14T15:06:25Z</time>
            </trkpt>
            <trkpt lat="55.174840" lon="-7.759410">
                <time>2019-06-14T15:06:26Z</time>
            </trkpt>
            <trkpt lat="55.174830" lon="-7.759090">
                <time>2019-06-14T15:06:27Z</time>
            </trkpt>
            <trkpt lat="55.174830" lon="-7.758790">
                <time>2019-06-14T15:06:28Z</time>
            </trkpt>
            <trkpt lat="55.174840" lon="-7.758490">
                <time>2019-06-14T15:06:29Z</time>
            </trkpt>
            <trkpt lat="55.174850" lon="-7.758190">
                <time>2019-06-14T15:06:30Z</time>
            </trkpt>
            <trkpt lat="55.174880" lon="-7.757880">
                <time>2019-06-14T15:06:31Z</time>
            </trkpt>
            <trkpt lat="55.174910" lon="-7.757580">
                <time>2019-06-14T15:06:32Z</time>
            </trkpt>
            <trkpt lat="55.174940" lon="-7.757260">
                <time>2019-06-14T15:06:33Z</time>
            </trkpt>
            <trkpt lat="55.174970" lon="-7.756960">
                <time>2019-06-14T15:06:34Z</time>
            </trkpt>
            <trkpt lat="55.174980" lon="-7.756650">
                <time>2019-06-14T15:06:35Z</time>
            </trkpt>
            <trkpt lat="55.174970" lon="-7.756340">
                <time>2019-06-14T15:06:36Z</time>
            </trkpt>
            <trkpt lat="55.174950" lon="-7.756020">
                <time>2019-06-14T15:06:37Z</time>
            </trkpt>
            <trkpt lat="55.174920" lon="-7.755710">
                <time>2019-06-14T15:06:38Z</time>
            </trkpt>
            <trkpt lat="55.174880" lon="-7.755390">
                <time>2019-06-14T15:06:39Z</time>
            </trkpt>
            <trkpt lat="55.174840" lon="-7.755070">
                <time>2019-06-14T15:06:40Z</time>
            </trkpt>
            <trkpt lat="55.174800" lon="-7.754740">
                <time>2019-06-14T15:06:41Z</time>
            </trkpt>
            <trkpt lat="55.174750" lon="-7.754410">
                <time>2019-06-14T15:06:42Z</time>
            </trkpt>
            <trkpt lat="55.174710" lon="-7.754090">
                <time>2019-06-14T15:06:43Z</time>
            </trkpt>
            <trkpt lat="55.174680" lon="-7.753780">
                <time>2019-06-14T15:06:44Z</time>
            </trkpt>
            <trkpt lat="55.174660" lon="-7.753480">
                <time>2019-06-14T15:06:45Z</time>
            </trkpt>
            <trkpt lat="55.174650" lon="-7.753180">
                <time>2019-06-14T15:06:46Z</time>
            </trkpt>
            <trkpt lat="55.174660" lon="-7.752880">
                <time>2019-06-14T15:06:47Z</time>
            </trkpt>
            <trkpt lat="55.174670" lon="-7.752580">
                <time>2019-06-14T15:06:48Z</time>
            </trkpt>
            <trkpt lat="55.174680" lon="-7.752270">
                <time>2019-06-14T15:06:49Z</time>
            </trkpt>
            <trkpt lat="55.174700" lon="-7.751960">
                <time>2019-06-14T15:06:50Z</time>
            </trkpt>
            <trkpt lat="55.174720" lon="-7.751650">
                <time>2019-06-14T15:06:51Z</time>
            </trkpt>
            <trkpt lat="55.174720" lon="-7.751360">
                <time>2019-06-14T15:06:52Z</time>
            </trkpt>
            <trkpt lat="55.174700" lon="-7.751080">
                <time>2019-06-14T15:06:53Z</time>
            </trkpt>
            <trkpt lat="55.174650" lon="-7.750800">
                <time>2019-06-14T15:06:54Z</time>
            </trkpt>
            <trkpt lat="55.174600" lon="-7.750500">
                <time>2019-06-14T15:06:55Z</time>
            </trkpt>
            <trkpt lat="55.174540" lon="-7.750180">
                <time>2019-06-14T15:06:56Z</time>
            </trkpt>
            <trkpt lat="55.174480" lon="-7.749850">
                <time>2019-06-14T15:06:57Z</time>
            </trkpt>
            <trkpt lat="55.174420" lon="-7.749510">
                <time>2019-06-14T15:06:58Z</time>
            </trkpt>
            <trkpt lat="55.174350" lon="-7.749150">
                <time>2019-06-14T15:06:59Z</time>
            </trkpt>
            <trkpt lat="55.174290" lon="-7.748810">
                <time>2019-06-14T15:07:00Z</time>
            </trkpt>
            <trkpt lat="55.174220" lon="-7.748480">
                <time>2019-06-14T15:07:01Z</time>
            </trkpt>
            <trkpt lat="55.174160" lon="-7.748200">
                <time>2019-06-14T15:07:02Z</time>
            </trkpt>
            <trkpt lat="55.174080" lon="-7.747950">
                <time>2019-06-14T15:07:03Z</time>
            </trkpt>
            <trkpt lat="55.173970" lon="-7.747730">
                <time>2019-06-14T15:07:04Z</time>
            </trkpt>
            <trkpt lat="55.173850" lon="-7.747530">
                <time>2019-06-14T15:07:05Z</time>
            </trkpt>
            <trkpt lat="55.173720" lon="-7.747350">
                <time>2019-06-14T15:07:06Z</time>
            </trkpt>
            <trkpt lat="55.173580" lon="-7.747170">
                <time>2019-06-14T15:07:07Z</time>
            </trkpt>
            <trkpt lat="55.173440" lon="-7.747020">
                <time>2019-06-14T15:07:08Z</time>
            </trkpt>
            <trkpt lat="55.173290" lon="-7.746880">
                <time>2019-06-14T15:07:09Z</time>
            </trkpt>
            <trkpt lat="55.173140" lon="-7.746750">
                <time>2019-06-14T15:07:10Z</time>
            </trkpt>
            <trkpt lat="55.172970" lon="-7.746620">
                <time>2019-06-14T15:07:11Z</time>
            </trkpt>
            <trkpt lat="55.172790" lon="-7.746480">
                <time>2019-06-14T15:07:12Z</time>
            </trkpt>
            <trkpt lat="55.172610" lon="-7.746330">
                <time>2019-06-14T15:07:13Z</time>
            </trkpt>
            <trkpt lat="55.172420" lon="-7.746150">
                <time>2019-06-14T15:07:14Z</time>
            </trkpt>
            <trkpt lat="55.172230" lon="-7.745960">
                <time>2019-06-14T15:07:15Z</time>
            </trkpt>
            <trkpt lat="55.172050" lon="-7.745750">
                <time>2019-06-14T15:07:16Z</time>
            </trkpt>
            <trkpt lat="55.171870" lon="-7.745510">
                <time>2019-06-14T15:07:17Z</time>
            </trkpt>
            <trkpt lat="55.171700" lon="-7.745250">
                <time>2019-06-14T15:07:18Z</time>
            </trkpt>
            <trkpt lat="55.171520" lon="-7.744960">
                <time>2019-06-14T15:07:19Z</time>
            </trkpt>
            <trkpt lat="55.171320" lon="-7.744640">
                <time>2019-06-14T15:07:20Z</time>
            </trkpt>
            <trkpt lat="55.171120" lon="-7.744310">
                <time>2019-06-14T15:07:21Z</time>
            </trkpt>
            <trkpt lat="55.170900" lon="-7.743950">
                <time>2019-06-14T15:07:22Z</time>
            </trkpt>
            <trkpt lat="55.170690" lon="-7.743600">
                <time>2019-06-14T15:07:23Z</time>
            </trkpt>
            <trkpt lat="55.170480" lon="-7.743260">
                <time>2019-06-14T15:07:24Z</time>
            </trkpt>
            <trkpt lat="55.170280" lon="-7.742940">
                <time>2019-06-14T15:07:25Z</time>
            </trkpt>
            <trkpt lat="55.170080" lon="-7.742640">
                <time>2019-06-14T15:07:26Z</time>
            </trkpt>
            <trkpt lat="55.169890" lon="-7.742360">
                <time>2019-06-14T15:07:27Z</time>
            </trkpt>
            <trkpt lat="55.169690" lon="-7.742120">
                <time>2019-06-14T15:07:28Z</time>
            </trkpt>
            <trkpt lat="55.169480" lon="-7.741910">
                <time>2019-06-14T15:07:29Z</time>
            </trkpt>
            <trkpt lat="55.169260" lon="-7.741720">
                <time>2019-06-14T15:07:30Z</time>
            </trkpt>
            <trkpt lat="55.169040" lon="-7.741560">
                <time>2019-06-14T15:07:31Z</time>
            </trkpt>
            <trkpt lat="55.168810" lon="-7.741410">
                <time>2019-06-14T15:07:32Z</time>
            </trkpt>
            <trkpt lat="55.168580" lon="-7.741270">
                <time>2019-06-14T15:07:33Z</time>
            </trkpt>
            <trkpt lat="55.168370" lon="-7.741130">
                <time>2019-06-14T15:07:34Z</time>
            </trkpt>
            <trkpt lat="55.168180" lon="-7.740990">
                <time>2019-06-14T15:07:35Z</time>
            </trkpt>
            <trkpt lat="55.168000" lon="-7.740820">
                <time>2019-06-14T15:07:36Z</time>
            </trkpt>
            <trkpt lat="55.167830" lon="-7.740630">
                <time>2019-06-14T15:07:37Z</time>
            </trkpt>
            <trkpt lat="55.167670" lon="-7.740410">
                <time>2019-06-14T15:07:38Z</time>
            </trkpt>
            <trkpt lat="55.167530" lon="-7.740160">
                <time>2019-06-14T15:07:39Z</time>
            </trkpt>
            <trkpt lat="55.167410" lon="-7.739890">
                <time>2019-06-14T15:07:40Z</time>
            </trkpt>
            <trkpt lat="55.167320" lon="-7.739590">
                <time>2019-06-14T15:07:41Z</time>
            </trkpt>
            <trkpt lat="55.167240" lon="-7.739290">
                <time>2019-06-14T15:07:42Z</time>
            </trkpt>
            <trkpt lat="55.167170" lon="-7.738970">
                <time>2019-06-14T15:07:43Z</time>
            </trkpt>
            <trkpt lat="55.167110" lon="-7.738640">
                <time>2019-06-14T15:07:44Z</time>
            </trkpt>
            <trkpt lat="55.167070" lon="-7.738310">
                <time>2019-06-14T15:07:45Z</time>
            </trkpt>
            <trkpt lat="55.167040" lon="-7.737970">
                <time>2019-06-14T15:07:46Z</time>
            </trkpt>
            <trkpt lat="55.167010" lon="-7.737630">
                <time>2019-06-14T15:07:47Z</time>
            </trkpt>
            <trkpt lat="55.166980" lon="-7.737300">
                <time>2019-06-14T15:07:48Z</time>
            </trkpt>
            <trkpt lat="55.166950" lon="-7.736970">
                <time>2019-06-14T15:07:49Z</time>
            </trkpt>
            <trkpt lat="55.166920" lon="-7.736650">
                <time>2019-06-14T15:07:50Z</time>
            </trkpt>
            <trkpt lat="55.166890" lon="-7.736320">
                <time>2019-06-14T15:07:51Z</time>
            </trkpt>
            <trkpt lat="55.166870" lon="-7.736010">
                <time>2019-06-14T15:07:52Z</time>
            </trkpt>
            <trkpt lat="55.166840" lon="-7.735720">
                <time>2019-06-14T15:07:53Z</time>
            </trkpt>
            <trkpt lat="55.166820" lon="-7.735430">
                <time>2019-06-14T15:07:54Z</time>
            </trkpt>
            <trkpt lat="55.166790" lon="-7.735140">
                <time>2019-06-14T15:07:55Z</time>
            </trkpt>
            <trkpt lat="55.166770" lon="-7.734860">
                <time>2019-06-14T15:07:56Z</time>
            </trkpt>
            <trkpt lat="55.166740" lon="-7.734580">
                <time>2019-06-14T15:07:57Z</time>
            </trkpt>
            <trkpt lat="55.166720" lon="-7.734320">
                <time>2019-06-14T15:07:58Z</time>
            </trkpt>
            <trkpt lat="55.166690" lon="-7.734070">
                <time>2019-06-14T15:07:59Z</time>
            </trkpt>
            <trkpt lat="55.166660" lon="-7.733810">
                <time>2019-06-14T15:08:00Z</time>
            </trkpt>
            <trkpt lat="55.166620" lon="-7.733550">
                <time>2019-06-14T15:08:01Z</time>
            </trkpt>
            <trkpt lat="55.166570" lon="-7.733280">
                <time>2019-06-14T15:08:02Z</time>
            </trkpt>
            <trkpt lat="55.166510" lon="-7.733010">
                <time>2019-06-14T15:08:03Z</time>
            </trkpt>
            <trkpt lat="55.166440" lon="-7.732740">
                <time>2019-06-14T15:08:04Z</time>
            </trkpt>
            <trkpt lat="55.166360" lon="-7.732470">
                <time>2019-06-14T15:08:05Z</time>
            </trkpt>
            <trkpt lat="55.166270" lon="-7.732180">
                <time>2019-06-14T15:08:06Z</time>
            </trkpt>
            <trkpt lat="55.166170" lon="-7.731880">
                <time>2019-06-14T15:08:07Z</time>
            </trkpt>
            <trkpt lat="55.166070" lon="-7.731590">
                <time>2019-06-14T15:08:08Z</time>
            </trkpt>
            <trkpt lat="55.165960" lon="-7.731320">
                <time>2019-06-14T15:08:09Z</time>
            </trkpt>
            <trkpt lat="55.165840" lon="-7.731070">
                <time>2019-06-14T15:08:10Z</time>
            </trkpt>
            <trkpt lat="55.165720" lon="-7.730830">
                <time>2019-06-14T15:08:11Z</time>
            </trkpt>
            <trkpt lat="55.165610" lon="-7.730590">
                <time>2019-06-14T15:08:12Z</time>
            </trkpt>
            <trkpt lat="55.165490" lon="-7.730350">
                <time>2019-06-14T15:08:13Z</time>
            </trkpt>
            <trkpt lat="55.165370" lon="-7.730110">
                <time>2019-06-14T15:08:14Z</time>
            </trkpt>
            <trkpt lat="55.165260" lon="-7.729890">
                <time>2019-06-14T15:08:15Z</time>
            </trkpt>
            <trkpt lat="55.165160" lon="-7.729660">
                <time>2019-06-14T15:08:16Z</time>
            </trkpt>
            <trkpt lat="55.165050" lon="-7.729440">
                <time>2019-06-14T15:08:17Z</time>
            </trkpt>
            <trkpt lat="55.164940" lon="-7.729210">
                <time>2019-06-14T15:08:18Z</time>
            </trkpt>
            <trkpt lat="55.164840" lon="-7.728970">
                <time>2019-06-14T15:08:19Z</time>
            </trkpt>
            <trkpt lat="55.164770" lon="-7.728710">
                <time>2019-06-14T15:08:20Z</time>
            </trkpt>
            <trkpt lat="55.164710" lon="-7.728430">
                <time>2019-06-14T15:08:21Z</time>
            </trkpt>
            <trkpt lat="55.164660" lon="-7.728130">
                <time>2019-06-14T15:08:22Z</time>
            </trkpt>
            <trkpt lat="55.164630" lon="-7.727820">
                <time>2019-06-14T15:08:23Z</time>
            </trkpt>
            <trkpt lat="55.164590" lon="-7.727500">
                <time>2019-06-14T15:08:24Z</time>
            </trkpt>
            <trkpt lat="55.164550" lon="-7.727180">
                <time>2019-06-14T15:08:25Z</time>
            </trkpt>
            <trkpt lat="55.164520" lon="-7.726860">
                <time>2019-06-14T15:08:26Z</time>
            </trkpt>
            <trkpt lat="55.164490" lon="-7.726530">
                <time>2019-06-14T15:08:27Z</time>
            </trkpt>
            <trkpt lat="55.164440" lon="-7.726210">
                <time>2019-06-14T15:08:28Z</time>
            </trkpt>
            <trkpt lat="55.164370" lon="-7.725890">
                <time>2019-06-14T15:08:29Z</time>
            </trkpt>
            <trkpt lat="55.164290" lon="-7.725590">
                <time>2019-06-14T15:08:30Z</time>
            </trkpt>
            <trkpt lat="55.164210" lon="-7.725330">
                <time>2019-06-14T15:08:31Z</time>
            </trkpt>
            <trkpt lat="55.164110" lon="-7.725090">
                <time>2019-06-14T15:08:32Z</time>
            </trkpt>
            <trkpt lat="55.164010" lon="-7.724860">
                <time>2019-06-14T15:08:33Z</time>
            </trkpt>
            <trkpt lat="55.163890" lon="-7.724640">
                <time>2019-06-14T15:08:34Z</time>
            </trkpt>
            <trkpt lat="55.163760" lon="-7.724430">
                <time>2019-06-14T15:08:35Z</time>
            </trkpt>
            <trkpt lat="55.163620" lon="-7.724240">
                <time>2019-06-14T15:08:36Z</time>
            </trkpt>
            <trkpt lat="55.163460" lon="-7.724080">
                <time>2019-06-14T15:08:37Z</time>
            </trkpt>
            <trkpt lat="55.163300" lon="-7.723950">
                <time>2019-06-14T15:08:38Z</time>
            </trkpt>
            <trkpt lat="55.163140" lon="-7.723820">
                <time>2019-06-14T15:08:39Z</time>
            </trkpt>
            <trkpt lat="55.162980" lon="-7.723700">
                <time>2019-06-14T15:08:40Z</time>
            </trkpt>
            <trkpt lat="55.162810" lon="-7.723580">
                <time>2019-06-14T15:08:41Z</time>
            </trkpt>
            <trkpt lat="55.162630" lon="-7.723480">
                <time>2019-06-14T15:08:42Z</time>
            </trkpt>
            <trkpt lat="55.162460" lon="-7.723380">
                <time>2019-06-14T15:08:43Z</time>
            </trkpt>
            <trkpt lat="55.162280" lon="-7.723290">
                <time>2019-06-14T15:08:44Z</time>
            </trkpt>
            <trkpt lat="55.162120" lon="-7.723190">
                <time>2019-06-14T15:08:45Z</time>
            </trkpt>
            <trkpt lat="55.161960" lon="-7.723110">
                <time>2019-06-14T15:08:46Z</time>
            </trkpt>
            <trkpt lat="55.161810" lon="-7.723020">
                <time>2019-06-14T15:08:47Z</time>
            </trkpt>
            <trkpt lat="55.161660" lon="-7.722950">
                <time>2019-06-14T15:08:48Z</time>
            </trkpt>
            <trkpt lat="55.161510" lon="-7.722870">
                <time>2019-06-14T15:08:49Z</time>
            </trkpt>
            <trkpt lat="55.161380" lon="-7.722790">
                <time>2019-06-14T15:08:50Z</time>
            </trkpt>
            <trkpt lat="55.161250" lon="-7.722720">
                <time>2019-06-14T15:08:51Z</time>
            </trkpt>
            <trkpt lat="55.161110" lon="-7.722650">
                <time>2019-06-14T15:08:52Z</time>
            </trkpt>
            <trkpt lat="55.160970" lon="-7.722570">
                <time>2019-06-14T15:08:53Z</time>
            </trkpt>
            <trkpt lat="55.160830" lon="-7.722490">
                <time>2019-06-14T15:08:54Z</time>
            </trkpt>
            <trkpt lat="55.160680" lon="-7.722400">
                <time>2019-06-14T15:08:55Z</time>
            </trkpt>
            <trkpt lat="55.160520" lon="-7.722280">
                <time>2019-06-14T15:08:56Z</time>
            </trkpt>
            <trkpt lat="55.160360" lon="-7.722140">
                <time>2019-06-14T15:08:57Z</time>
            </trkpt>
            <trkpt lat="55.160210" lon="-7.721990">
                <time>2019-06-14T15:08:58Z</time>
            </trkpt>
            <trkpt lat="55.160060" lon="-7.721820">
                <time>2019-06-14T15:08:59Z</time>
            </trkpt>
            <trkpt lat="55.159910" lon="-7.721640">
                <time>2019-06-14T15:09:00Z</time>
            </trkpt>
            <trkpt lat="55.159770" lon="-7.721440">
                <time>2019-06-14T15:09:01Z</time>
            </trkpt>
            <trkpt lat="55.159630" lon="-7.721230">
                <time>2019-06-14T15:09:02Z</time>
            </trkpt>
            <trkpt lat="55.159510" lon="-7.721000">
                <time>2019-06-14T15:09:03Z</time>
            </trkpt>
            <trkpt lat="55.159390" lon="-7.720750">
                <time>2019-06-14T15:09:04Z</time>
            </trkpt>
            <trkpt lat="55.159290" lon="-7.720510">
                <time>2019-06-14T15:09:05Z</time>
            </trkpt>
            <trkpt lat="55.159210" lon="-7.720250">
                <time>2019-06-14T15:09:06Z</time>
            </trkpt>
            <trkpt lat="55.159140" lon="-7.719990">
                <time>2019-06-14T15:09:07Z</time>
            </trkpt>
            <trkpt lat="55.159070" lon="-7.719710">
                <time>2019-06-14T15:09:08Z</time>
            </trkpt>
            <trkpt lat="55.159000" lon="-7.719430">
                <time>2019-06-14T15:09:09Z</time>
            </trkpt>
            <trkpt lat="55.158930" lon="-7.719140">
                <time>2019-06-14T15:09:10Z</time>
            </trkpt>
            <trkpt lat="55.158850" lon="-7.718850">
                <time>2019-06-14T15:09:11Z</time>
            </trkpt>
            <trkpt lat="55.158770" lon="-7.718550">
                <time>2019-06-14T15:09:12Z</time>
            </trkpt>
            <trkpt lat="55.158690" lon="-7.718240">
                <time>2019-06-14T15:09:13Z</time>
            </trkpt>
            <trkpt lat="55.158620" lon="-7.717920">
                <time>2019-06-14T15:09:14Z</time>
            </trkpt>
            <trkpt lat="55.158540" lon="-7.717620">
                <time>2019-06-14T15:09:15Z</time>
            </trkpt>
            <trkpt lat="55.158470" lon="-7.717310">
                <time>2019-06-14T15:09:16Z</time>
            </trkpt>
            <trkpt lat="55.158400" lon="-7.717010">
                <time>2019-06-14T15:09:17Z</time>
            </trkpt>
            <trkpt lat="55.158320" lon="-7.716710">
                <time>2019-06-14T15:09:18Z</time>
            </trkpt>
            <trkpt lat="55.158240" lon="-7.716410">
                <time>2019-06-14T15:09:19Z</time>
            </trkpt>
            <trkpt lat="55.158170" lon="-7.716100">
                <time>2019-06-14T15:09:20Z</time>
            </trkpt>
            <trkpt lat="55.158080" lon="-7.715780">
                <time>2019-06-14T15:09:21Z</time>
            </trkpt>
            <trkpt lat="55.157990" lon="-7.715460">
                <time>2019-06-14T15:09:22Z</time>
            </trkpt>
            <trkpt lat="55.157900" lon="-7.715160">
                <time>2019-06-14T15:09:23Z</time>
            </trkpt>
            <trkpt lat="55.157810" lon="-7.714880">
                <time>2019-06-14T15:09:24Z</time>
            </trkpt>
            <trkpt lat="55.157730" lon="-7.714610">
                <time>2019-06-14T15:09:25Z</time>
            </trkpt>
            <trkpt lat="55.157640" lon="-7.714350">
                <time>2019-06-14T15:09:26Z</time>
            </trkpt>
            <trkpt lat="55.157550" lon="-7.714090">
                <time>2019-06-14T15:09:27Z</time>
            </trkpt>
            <trkpt lat="55.157460" lon="-7.713830">
                <time>2019-06-14T15:09:28Z</time>
            </trkpt>
            <trkpt lat="55.157370" lon="-7.713570">
                <time>2019-06-14T15:09:29Z</time>
            </trkpt>
            <trkpt lat="55.157280" lon="-7.713320">
                <time>2019-06-14T15:09:30Z</time>
            </trkpt>
            <trkpt lat="55.157200" lon="-7.713090">
                <time>2019-06-14T15:09:31Z</time>
            </trkpt>
            <trkpt lat="55.157110" lon="-7.712860">
                <time>2019-06-14T15:09:32Z</time>
            </trkpt>
            <trkpt lat="55.157020" lon="-7.712620">
                <time>2019-06-14T15:09:33Z</time>
            </trkpt>
            <trkpt lat="55.156930" lon="-7.712360">
                <time>2019-06-14T15:09:34Z</time>
            </trkpt>
            <trkpt lat="55.156830" lon="-7.712080">
                <time>2019-06-14T15:09:35Z</time>
            </trkpt>
            <trkpt lat="55.156720" lon="-7.711770">
                <time>2019-06-14T15:09:36Z</time>
            </trkpt>
            <trkpt lat="55.156600" lon="-7.711460">
                <time>2019-06-14T15:09:37Z</time>
            </trkpt>
            <trkpt lat="55.156500" lon="-7.711170">
                <time>2019-06-14T15:09:38Z</time>
            </trkpt>
            <trkpt lat="55.156400" lon="-7.710900">
                <time>2019-06-14T15:09:39Z</time>
            </trkpt>
            <trkpt lat="55.156300" lon="-7.710630">
                <time>2019-06-14T15:09:40Z</time>
            </trkpt>
            <trkpt lat="55.156200" lon="-7.710360">
                <time>2019-06-14T15:09:41Z</time>
            </trkpt>
            <trkpt lat="55.156110" lon="-7.710110">
                <time>2019-06-14T15:09:42Z</time>
            </trkpt>
            <trkpt lat="55.156020" lon="-7.709850">
                <time>2019-06-14T15:09:43Z</time>
            </trkpt>
            <trkpt lat="55.155920" lon="-7.709590">
                <time>2019-06-14T15:09:44Z</time>
            </trkpt>
            <trkpt lat="55.155830" lon="-7.709330">
                <time>2019-06-14T15:09:45Z</time>
            </trkpt>
            <trkpt lat="55.155740" lon="-7.709060">
                <time>2019-06-14T15:09:46Z</time>
            </trkpt>
            <trkpt lat="55.155640" lon="-7.708790">
                <time>2019-06-14T15:09:47Z</time>
            </trkpt>
            <trkpt lat="55.155540" lon="-7.708500">
                <time>2019-06-14T15:09:48Z</time>
            </trkpt>
            <trkpt lat="55.155440" lon="-7.708230">
                <time>2019-06-14T15:09:49Z</time>
            </trkpt>
            <trkpt lat="55.155340" lon="-7.707960">
                <time>2019-06-14T15:09:50Z</time>
            </trkpt>
            <trkpt lat="55.155240" lon="-7.707700">
                <time>2019-06-14T15:09:51Z</time>
            </trkpt>
            <trkpt lat="55.155140" lon="-7.707440">
                <time>2019-06-14T15:09:52Z</time>
            </trkpt>
            <trkpt lat="55.155050" lon="-7.707180">
                <time>2019-06-14T15:09:53Z</time>
            </trkpt>
            <trkpt lat="55.154950" lon="-7.706920">
                <time>2019-06-14T15:09:54Z</time>
            </trkpt>
            <trkpt lat="55.154860" lon="-7.706660">
                <time>2019-06-14T15:09:55Z</time>
            </trkpt>
            <trkpt lat="55.154770" lon="-7.706410">
                <time>2019-06-14T15:09:56Z</time>
            </trkpt>
            <trkpt lat="55.154690" lon="-7.706170">
                <time>2019-06-14T15:09:57Z</time>
            </trkpt>
            <trkpt lat="55.154620" lon="-7.705940">
                <time>2019-06-14T15:09:58Z</time>
            </trkpt>
            <trkpt lat="55.154560" lon="-7.705710">
                <time>2019-06-14T15:09:59Z</time>
            </trkpt>
            <trkpt lat="55.154510" lon="-7.705460">
                <time>2019-06-14T15:10:00Z</time>
            </trkpt>
            <trkpt lat="55.154490" lon="-7.705220">
                <time>2019-06-14T15:10:01Z</time>
            </trkpt>
            <trkpt lat="55.154480" lon="-7.704970">
                <time>2019-06-14T15:10:02Z</time>
            </trkpt>
            <trkpt lat="55.154490" lon="-7.704720">
                <time>2019-06-14T15:10:03Z</time>
            </trkpt>
            <trkpt lat="55.154520" lon="-7.704460">
                <time>2019-06-14T15:10:04Z</time>
            </trkpt>
            <trkpt lat="55.154560" lon="-7.704200">
                <time>2019-06-14T15:10:05Z</time>
            </trkpt>
            <trkpt lat="55.154600" lon="-7.703940">
                <time>2019-06-14T15:10:06Z</time>
            </trkpt>
            <trkpt lat="55.154640" lon="-7.703680">
                <time>2019-06-14T15:10:07Z</time>
            </trkpt>
            <trkpt lat="55.154660" lon="-7.703420">
                <time>2019-06-14T15:10:08Z</time>
            </trkpt>
            <trkpt lat="55.154670" lon="-7.703160">
                <time>2019-06-14T15:10:09Z</time>
            </trkpt>
            <trkpt lat="55.154650" lon="-7.702890">
                <time>2019-06-14T15:10:10Z</time>
            </trkpt>
            <trkpt lat="55.154620" lon="-7.702620">
                <time>2019-06-14T15:10:11Z</time>
            </trkpt>
            <trkpt lat="55.154580" lon="-7.702350">
                <time>2019-06-14T15:10:12Z</time>
            </trkpt>
            <trkpt lat="55.154540" lon="-7.702050">
                <time>2019-06-14T15:10:13Z</time>
            </trkpt>
            <trkpt lat="55.154480" lon="-7.701760">
                <time>2019-06-14T15:10:14Z</time>
            </trkpt>
            <trkpt lat="55.154410" lon="-7.701490">
                <time>2019-06-14T15:10:15Z</time>
            </trkpt>
            <trkpt lat="55.154320" lon="-7.701250">
                <time>2019-06-14T15:10:16Z</time>
            </trkpt>
            <trkpt lat="55.154230" lon="-7.701030">
                <time>2019-06-14T15:10:17Z</time>
            </trkpt>
            <trkpt lat="55.154120" lon="-7.700830">
                <time>2019-06-14T15:10:18Z</time>
            </trkpt>
            <trkpt lat="55.154010" lon="-7.700640">
                <time>2019-06-14T15:10:19Z</time>
            </trkpt>
            <trkpt lat="55.153890" lon="-7.700470">
                <time>2019-06-14T15:10:20Z</time>
            </trkpt>
            <trkpt lat="55.153750" lon="-7.700330">
                <time>2019-06-14T15:10:21Z</time>
            </trkpt>
            <trkpt lat="55.153610" lon="-7.700250">
                <time>2019-06-14T15:10:22Z</time>
            </trkpt>
            <trkpt lat="55.153470" lon="-7.700190">
                <time>2019-06-14T15:10:23Z</time>
            </trkpt>
            <trkpt lat="55.153330" lon="-7.700110">
                <time>2019-06-14T15:10:24Z</time>
            </trkpt>
            <trkpt lat="55.153200" lon="-7.700020">
                <time>2019-06-14T15:10:25Z</time>
            </trkpt>
            <trkpt lat="55.153070" lon="-7.699900">
                <time>2019-06-14T15:10:26Z</time>
            </trkpt>
            <trkpt lat="55.152950" lon="-7.699740">
                <time>2019-06-14T15:10:27Z</time>
            </trkpt>
            <trkpt lat="55.152840" lon="-7.699570">
                <time>2019-06-14T15:10:28Z</time>
            </trkpt>
            <trkpt lat="55.152740" lon="-7.699390">
                <time>2019-06-14T15:10:29Z</time>
            </trkpt>
            <trkpt lat="55.152650" lon="-7.699210">
                <time>2019-06-14T15:10:30Z</time>
            </trkpt>
            <trkpt lat="55.152550" lon="-7.699040">
                <time>2019-06-14T15:10:31Z</time>
            </trkpt>
            <trkpt lat="55.152440" lon="-7.698860">
                <time>2019-06-14T15:10:32Z</time>
            </trkpt>
            <trkpt lat="55.152320" lon="-7.698670">
                <time>2019-06-14T15:10:33Z</time>
            </trkpt>
            <trkpt lat="55.152210" lon="-7.698480">
                <time>2019-06-14T15:10:34Z</time>
            </trkpt>
            <trkpt lat="55.152100" lon="-7.698290">
                <time>2019-06-14T15:10:35Z</time>
            </trkpt>
            <trkpt lat="55.151990" lon="-7.698080">
                <time>2019-06-14T15:10:36Z</time>
            </trkpt>
            <trkpt lat="55.151890" lon="-7.697890">
                <time>2019-06-14T15:10:37Z</time>
            </trkpt>
            <trkpt lat="55.151800" lon="-7.697690">
                <time>2019-06-14T15:10:38Z</time>
            </trkpt>
            <trkpt lat="55.151730" lon="-7.697500">
                <time>2019-06-14T15:10:39Z</time>
            </trkpt>
            <trkpt lat="55.151660" lon="-7.697300">
                <time>2019-06-14T15:10:40Z</time>
            </trkpt>
            <trkpt lat="55.151590" lon="-7.697090">
                <time>2019-06-14T15:10:41Z</time>
            </trkpt>
            <trkpt lat="55.151520" lon="-7.696880">
                <time>2019-06-14T15:10:42Z</time>
            </trkpt>
            <trkpt lat="55.151460" lon="-7.696650">
                <time>2019-06-14T15:10:43Z</time>
            </trkpt>
            <trkpt lat="55.151400" lon="-7.696430">
                <time>2019-06-14T15:10:44Z</time>
            </trkpt>
            <trkpt lat="55.151330" lon="-7.696240">
                <time>2019-06-14T15:10:45Z</time>
            </trkpt>
            <trkpt lat="55.151230" lon="-7.696090">
                <time>2019-06-14T15:10:46Z</time>
            </trkpt>
            <trkpt lat="55.151120" lon="-7.695980">
                <time>2019-06-14T15:10:47Z</time>
            </trkpt>
            <trkpt lat="55.150990" lon="-7.695920">
                <time>2019-06-14T15:10:48Z</time>
            </trkpt>
            <trkpt lat="55.150850" lon="-7.695900">
                <time>2019-06-14T15:10:49Z</time>
            </trkpt>
            <trkpt lat="55.150720" lon="-7.695900">
                <time>2019-06-14T15:10:50Z</time>
            </trkpt>
            <trkpt lat="55.150580" lon="-7.695930">
                <time>2019-06-14T15:10:51Z</time>
            </trkpt>
            <trkpt lat="55.150440" lon="-7.695990">
                <time>2019-06-14T15:10:52Z</time>
            </trkpt>
            <trkpt lat="55.150310" lon="-7.696080">
                <time>2019-06-14T15:10:53Z</time>
            </trkpt>
            <trkpt lat="55.150160" lon="-7.696190">
                <time>2019-06-14T15:10:54Z</time>
            </trkpt>
            <trkpt lat="55.150020" lon="-7.696300">
                <time>2019-06-14T15:10:55Z</time>
            </trkpt>
            <trkpt lat="55.149860" lon="-7.696400">
                <time>2019-06-14T15:10:56Z</time>
            </trkpt>
            <trkpt lat="55.149710" lon="-7.696480">
                <time>2019-06-14T15:10:57Z</time>
            </trkpt>
            <trkpt lat="55.149560" lon="-7.696530">
                <time>2019-06-14T15:10:58Z</time>
            </trkpt>
            <trkpt lat="55.149400" lon="-7.696560">
                <time>2019-06-14T15:10:59Z</time>
            </trkpt>
            <trkpt lat="55.149240" lon="-7.696570">
                <time>2019-06-14T15:11:00Z</time>
            </trkpt>
            <trkpt lat="55.149060" lon="-7.696560">
                <time>2019-06-14T15:11:01Z</time>
            </trkpt>
            <trkpt lat="55.148890" lon="-7.696540">
                <time>2019-06-14T15:11:02Z</time>
            </trkpt>
            <trkpt lat="55.148720" lon="-7.696510">
                <time>2019-06-14T15:11:03Z</time>
            </trkpt>
            <trkpt lat="55.148550" lon="-7.696480">
                <time>2019-06-14T15:11:04Z</time>
            </trkpt>
            <trkpt lat="55.148380" lon="-7.696430">
                <time>2019-06-14T15:11:05Z</time>
            </trkpt>
            <trkpt lat="55.148220" lon="-7.696380">
                <time>2019-06-14T15:11:06Z</time>
            </trkpt>
            <trkpt lat="55.148040" lon="-7.696320">
                <time>2019-06-14T15:11:07Z</time>
            </trkpt>
            <trkpt lat="55.147870" lon="-7.696260">
                <time>2019-06-14T15:11:08Z</time>
            </trkpt>
            <trkpt lat="55.147690" lon="-7.696200">
                <time>2019-06-14T15:11:09Z</time>
            </trkpt>
            <trkpt lat="55.147520" lon="-7.696150">
                <time>2019-06-14T15:11:10Z</time>
            </trkpt>
            <trkpt lat="55.147350" lon="-7.696110">
                <time>2019-06-14T15:11:11Z</time>
            </trkpt>
            <trkpt lat="55.147180" lon="-7.696080">
                <time>2019-06-14T15:11:12Z</time>
            </trkpt>
            <trkpt lat="55.147010" lon="-7.696070">
                <time>2019-06-14T15:11:13Z</time>
            </trkpt>
            <trkpt lat="55.146840" lon="-7.696080">
                <time>2019-06-14T15:11:14Z</time>
            </trkpt>
            <trkpt lat="55.146670" lon="-7.696130">
                <time>2019-06-14T15:11:15Z</time>
            </trkpt>
            <trkpt lat="55.146510" lon="-7.696190">
                <time>2019-06-14T15:11:16Z</time>
            </trkpt>
            <trkpt lat="55.146350" lon="-7.696250">
                <time>2019-06-14T15:11:17Z</time>
            </trkpt>
            <trkpt lat="55.146190" lon="-7.696310">
                <time>2019-06-14T15:11:18Z</time>
            </trkpt>
            <trkpt lat="55.146020" lon="-7.696340">
                <time>2019-06-14T15:11:19Z</time>
            </trkpt>
            <trkpt lat="55.145850" lon="-7.696360">
                <time>2019-06-14T15:11:20Z</time>
            </trkpt>
            <trkpt lat="55.145670" lon="-7.696360">
                <time>2019-06-14T15:11:21Z</time>
            </trkpt>
            <trkpt lat="55.145490" lon="-7.696340">
                <time>2019-06-14T15:11:22Z</time>
            </trkpt>
            <trkpt lat="55.145310" lon="-7.696310">
                <time>2019-06-14T15:11:23Z</time>
            </trkpt>
            <trkpt lat="55.145130" lon="-7.696310">
                <time>2019-06-14T15:11:24Z</time>
            </trkpt>
            <trkpt lat="55.144940" lon="-7.696330">
                <time>2019-06-14T15:11:25Z</time>
            </trkpt>
            <trkpt lat="55.144760" lon="-7.696370">
                <time>2019-06-14T15:11:26Z</time>
            </trkpt>
            <trkpt lat="55.144580" lon="-7.696420">
                <time>2019-06-14T15:11:27Z</time>
            </trkpt>
            <trkpt lat="55.144400" lon="-7.696480">
                <time>2019-06-14T15:11:28Z</time>
            </trkpt>
            <trkpt lat="55.144240" lon="-7.696540">
                <time>2019-06-14T15:11:29Z</time>
            </trkpt>
            <trkpt lat="55.144070" lon="-7.696580">
                <time>2019-06-14T15:11:30Z</time>
            </trkpt>
            <trkpt lat="55.143890" lon="-7.696610">
                <time>2019-06-14T15:11:31Z</time>
            </trkpt>
            <trkpt lat="55.143700" lon="-7.696610">
                <time>2019-06-14T15:11:32Z</time>
            </trkpt>
            <trkpt lat="55.143510" lon="-7.696610">
                <time>2019-06-14T15:11:33Z</time>
            </trkpt>
            <trkpt lat="55.143310" lon="-7.696600">
                <time>2019-06-14T15:11:34Z</time>
            </trkpt>
            <trkpt lat="55.143130" lon="-7.696590">
                <time>2019-06-14T15:11:35Z</time>
            </trkpt>
            <trkpt lat="55.142950" lon="-7.696570">
                <time>2019-06-14T15:11:36Z</time>
            </trkpt>
            <trkpt lat="55.142770" lon="-7.696540">
                <time>2019-06-14T15:11:37Z</time>
            </trkpt>
            <trkpt lat="55.142590" lon="-7.696520">
                <time>2019-06-14T15:11:38Z</time>
            </trkpt>
            <trkpt lat="55.142390" lon="-7.696500">
                <time>2019-06-14T15:11:39Z</time>
            </trkpt>
            <trkpt lat="55.142200" lon="-7.696470">
                <time>2019-06-14T15:11:40Z</time>
            </trkpt>
            <trkpt lat="55.142000" lon="-7.696440">
                <time>2019-06-14T15:11:41Z</time>
            </trkpt>
            <trkpt lat="55.141820" lon="-7.696410">
                <time>2019-06-14T15:11:42Z</time>
            </trkpt>
            <trkpt lat="55.141640" lon="-7.696380">
                <time>2019-06-14T15:11:43Z</time>
            </trkpt>
            <trkpt lat="55.141470" lon="-7.696360">
                <time>2019-06-14T15:11:44Z</time>
            </trkpt>
            <trkpt lat="55.141300" lon="-7.696330">
                <time>2019-06-14T15:11:45Z</time>
            </trkpt>
            <trkpt lat="55.141130" lon="-7.696310">
                <time>2019-06-14T15:11:46Z</time>
            </trkpt>
            <trkpt lat="55.140960" lon="-7.696280">
                <time>2019-06-14T15:11:47Z</time>
            </trkpt>
            <trkpt lat="55.140790" lon="-7.696270">
                <time>2019-06-14T15:11:48Z</time>
            </trkpt>
            <trkpt lat="55.140600" lon="-7.696240">
                <time>2019-06-14T15:11:49Z</time>
            </trkpt>
            <trkpt lat="55.140430" lon="-7.696230">
                <time>2019-06-14T15:11:50Z</time>
            </trkpt>
            <trkpt lat="55.140260" lon="-7.696210">
                <time>2019-06-14T15:11:51Z</time>
            </trkpt>
            <trkpt lat="55.140120" lon="-7.696190">
                <time>2019-06-14T15:11:52Z</time>
            </trkpt>
            <trkpt lat="55.139980" lon="-7.696180">
                <time>2019-06-14T15:11:53Z</time>
            </trkpt>
            <trkpt lat="55.139840" lon="-7.696170">
                <time>2019-06-14T15:11:54Z</time>
            </trkpt>
            <trkpt lat="55.139690" lon="-7.696160">
                <time>2019-06-14T15:11:55Z</time>
            </trkpt>
            <trkpt lat="55.139520" lon="-7.696160">
                <time>2019-06-14T15:11:56Z</time>
            </trkpt>
            <trkpt lat="55.139360" lon="-7.696170">
                <time>2019-06-14T15:11:57Z</time>
            </trkpt>
            <trkpt lat="55.139180" lon="-7.696190">
                <time>2019-06-14T15:11:58Z</time>
            </trkpt>
            <trkpt lat="55.139010" lon="-7.696230">
                <time>2019-06-14T15:11:59Z</time>
            </trkpt>
            <trkpt lat="55.138840" lon="-7.696290">
                <time>2019-06-14T15:12:00Z</time>
            </trkpt>
            <trkpt lat="55.138680" lon="-7.696380">
                <time>2019-06-14T15:12:01Z</time>
            </trkpt>
            <trkpt lat="55.138520" lon="-7.696470">
                <time>2019-06-14T15:12:02Z</time>
            </trkpt>
            <trkpt lat="55.138350" lon="-7.696570">
                <time>2019-06-14T15:12:03Z</time>
            </trkpt>
            <trkpt lat="55.138180" lon="-7.696670">
                <time>2019-06-14T15:12:04Z</time>
            </trkpt>
            <trkpt lat="55.138000" lon="-7.696760">
                <time>2019-06-14T15:12:05Z</time>
            </trkpt>
            <trkpt lat="55.137820" lon="-7.696860">
                <time>2019-06-14T15:12:06Z</time>
            </trkpt>
            <trkpt lat="55.137640" lon="-7.696950">
                <time>2019-06-14T15:12:07Z</time>
            </trkpt>
            <trkpt lat="55.137460" lon="-7.697040">
                <time>2019-06-14T15:12:08Z</time>
            </trkpt>
            <trkpt lat="55.137280" lon="-7.697110">
                <time>2019-06-14T15:12:09Z</time>
            </trkpt>
            <trkpt lat="55.137120" lon="-7.697180">
                <time>2019-06-14T15:12:10Z</time>
            </trkpt>
            <trkpt lat="55.136960" lon="-7.697250">
                <time>2019-06-14T15:12:11Z</time>
            </trkpt>
            <trkpt lat="55.136810" lon="-7.697320">
                <time>2019-06-14T15:12:12Z</time>
            </trkpt>
            <trkpt lat="55.136650" lon="-7.697390">
                <time>2019-06-14T15:12:13Z</time>
            </trkpt>
            <trkpt lat="55.136480" lon="-7.697450">
                <time>2019-06-14T15:12:14Z</time>
            </trkpt>
            <trkpt lat="55.136310" lon="-7.697510">
                <time>2019-06-14T15:12:15Z</time>
            </trkpt>
            <trkpt lat="55.136150" lon="-7.697580">
                <time>2019-06-14T15:12:16Z</time>
            </trkpt>
            <trkpt lat="55.135990" lon="-7.697640">
                <time>2019-06-14T15:12:17Z</time>
            </trkpt>
            <trkpt lat="55.135830" lon="-7.697710">
                <time>2019-06-14T15:12:18Z</time>
            </trkpt>
            <trkpt lat="55.135670" lon="-7.697790">
                <time>2019-06-14T15:12:19Z</time>
            </trkpt>
            <trkpt lat="55.135510" lon="-7.697870">
                <time>2019-06-14T15:12:20Z</time>
            </trkpt>
            <trkpt lat="55.135350" lon="-7.697960">
                <time>2019-06-14T15:12:21Z</time>
            </trkpt>
            <trkpt lat="55.135180" lon="-7.698060">
                <time>2019-06-14T15:12:22Z</time>
            </trkpt>
            <trkpt lat="55.135000" lon="-7.698150">
                <time>2019-06-14T15:12:23Z</time>
            </trkpt>
            <trkpt lat="55.134820" lon="-7.698240">
                <time>2019-06-14T15:12:24Z</time>
            </trkpt>
            <trkpt lat="55.134640" lon="-7.698330">
                <time>2019-06-14T15:12:25Z</time>
            </trkpt>
            <trkpt lat="55.134450" lon="-7.698420">
                <time>2019-06-14T15:12:26Z</time>
            </trkpt>
            <trkpt lat="55.134260" lon="-7.698510">
                <time>2019-06-14T15:12:27Z</time>
            </trkpt>
            <trkpt lat="55.134060" lon="-7.698590">
                <time>2019-06-14T15:12:28Z</time>
            </trkpt>
            <trkpt lat="55.133870" lon="-7.698690">
                <time>2019-06-14T15:12:29Z</time>
            </trkpt>
            <trkpt lat="55.133670" lon="-7.698790">
                <time>2019-06-14T15:12:30Z</time>
            </trkpt>
            <trkpt lat="55.133460" lon="-7.698890">
                <time>2019-06-14T15:12:31Z</time>
            </trkpt>
            <trkpt lat="55.133270" lon="-7.698990">
                <time>2019-06-14T15:12:32Z</time>
            </trkpt>
            <trkpt lat="55.133080" lon="-7.699080">
                <time>2019-06-14T15:12:33Z</time>
            </trkpt>
            <trkpt lat="55.132890" lon="-7.699160">
                <time>2019-06-14T15:12:34Z</time>
            </trkpt>
            <trkpt lat="55.132700" lon="-7.699240">
                <time>2019-06-14T15:12:35Z</time>
            </trkpt>
            <trkpt lat="55.132490" lon="-7.699320">
                <time>2019-06-14T15:12:36Z</time>
            </trkpt>
            <trkpt lat="55.132280" lon="-7.699400">
                <time>2019-06-14T15:12:37Z</time>
            </trkpt>
            <trkpt lat="55.132070" lon="-7.699480">
                <time>2019-06-14T15:12:38Z</time>
            </trkpt>
            <trkpt lat="55.131870" lon="-7.699550">
                <time>2019-06-14T15:12:39Z</time>
            </trkpt>
            <trkpt lat="55.131680" lon="-7.699630">
                <time>2019-06-14T15:12:40Z</time>
            </trkpt>
            <trkpt lat="55.131500" lon="-7.699720">
                <time>2019-06-14T15:12:41Z</time>
            </trkpt>
            <trkpt lat="55.131320" lon="-7.699840">
                <time>2019-06-14T15:12:42Z</time>
            </trkpt>
            <trkpt lat="55.131140" lon="-7.699990">
                <time>2019-06-14T15:12:43Z</time>
            </trkpt>
            <trkpt lat="55.130960" lon="-7.700170">
                <time>2019-06-14T15:12:44Z</time>
            </trkpt>
            <trkpt lat="55.130790" lon="-7.700350">
                <time>2019-06-14T15:12:45Z</time>
            </trkpt>
            <trkpt lat="55.130620" lon="-7.700530">
                <time>2019-06-14T15:12:46Z</time>
            </trkpt>
            <trkpt lat="55.130460" lon="-7.700670">
                <time>2019-06-14T15:12:47Z</time>
            </trkpt>
            <trkpt lat="55.130300" lon="-7.700780">
                <time>2019-06-14T15:12:48Z</time>
            </trkpt>
            <trkpt lat="55.130130" lon="-7.700880">
                <time>2019-06-14T15:12:49Z</time>
            </trkpt>
            <trkpt lat="55.129940" lon="-7.700960">
                <time>2019-06-14T15:12:50Z</time>
            </trkpt>
            <trkpt lat="55.129750" lon="-7.701040">
                <time>2019-06-14T15:12:51Z</time>
            </trkpt>
            <trkpt lat="55.129550" lon="-7.701140">
                <time>2019-06-14T15:12:52Z</time>
            </trkpt>
            <trkpt lat="55.129350" lon="-7.701230">
                <time>2019-06-14T15:12:53Z</time>
            </trkpt>
            <trkpt lat="55.129150" lon="-7.701320">
                <time>2019-06-14T15:12:54Z</time>
            </trkpt>
            <trkpt lat="55.128950" lon="-7.701410">
                <time>2019-06-14T15:12:55Z</time>
            </trkpt>
            <trkpt lat="55.128750" lon="-7.701500">
                <time>2019-06-14T15:12:56Z</time>
            </trkpt>
            <trkpt lat="55.128550" lon="-7.701590">
                <time>2019-06-14T15:12:57Z</time>
            </trkpt>
            <trkpt lat="55.128360" lon="-7.701670">
                <time>2019-06-14T15:12:58Z</time>
            </trkpt>
            <trkpt lat="55.128190" lon="-7.701740">
                <time>2019-06-14T15:12:59Z</time>
            </trkpt>
            <trkpt lat="55.128030" lon="-7.701800">
                <time>2019-06-14T15:13:00Z</time>
            </trkpt>
            <trkpt lat="55.127880" lon="-7.701870">
                <time>2019-06-14T15:13:01Z</time>
            </trkpt>
            <trkpt lat="55.127720" lon="-7.701920">
                <time>2019-06-14T15:13:02Z</time>
            </trkpt>
            <trkpt lat="55.127570" lon="-7.701950">
                <time>2019-06-14T15:13:03Z</time>
            </trkpt>
            <trkpt lat="55.127410" lon="-7.701970">
                <time>2019-06-14T15:13:04Z</time>
            </trkpt>
            <trkpt lat="55.127260" lon="-7.702010">
                <time>2019-06-14T15:13:05Z</time>
            </trkpt>
            <trkpt lat="55.127120" lon="-7.702090">
                <time>2019-06-14T15:13:06Z</time>
            </trkpt>
            <trkpt lat="55.126990" lon="-7.702190">
                <time>2019-06-14T15:13:07Z</time>
            </trkpt>
            <trkpt lat="55.126870" lon="-7.702300">
                <time>2019-06-14T15:13:08Z</time>
            </trkpt>
            <trkpt lat="55.126770" lon="-7.702400">
                <time>2019-06-14T15:13:09Z</time>
            </trkpt>
            <trkpt lat="55.126650" lon="-7.702450">
                <time>2019-06-14T15:13:10Z</time>
            </trkpt>
            <trkpt lat="55.126520" lon="-7.702470">
                <time>2019-06-14T15:13:11Z</time>
            </trkpt>
            <trkpt lat="55.126400" lon="-7.702490">
                <time>2019-06-14T15:13:12Z</time>
            </trkpt>
            <trkpt lat="55.126280" lon="-7.702470">
                <time>2019-06-14T15:13:13Z</time>
            </trkpt>
            <trkpt lat="55.126160" lon="-7.702440">
                <time>2019-06-14T15:13:14Z</time>
            </trkpt>
            <trkpt lat="55.126020" lon="-7.702390">
                <time>2019-06-14T15:13:15Z</time>
            </trkpt>
            <trkpt lat="55.125890" lon="-7.702330">
                <time>2019-06-14T15:13:16Z</time>
            </trkpt>
            <trkpt lat="55.125740" lon="-7.702260">
                <time>2019-06-14T15:13:17Z</time>
            </trkpt>
            <trkpt lat="55.125580" lon="-7.702190">
                <time>2019-06-14T15:13:18Z</time>
            </trkpt>
            <trkpt lat="55.125410" lon="-7.702150">
                <time>2019-06-14T15:13:19Z</time>
            </trkpt>
            <trkpt lat="55.125220" lon="-7.702120">
                <time>2019-06-14T15:13:20Z</time>
            </trkpt>
            <trkpt lat="55.125040" lon="-7.702110">
                <time>2019-06-14T15:13:21Z</time>
            </trkpt>
            <trkpt lat="55.124870" lon="-7.702100">
                <time>2019-06-14T15:13:22Z</time>
            </trkpt>
            <trkpt lat="55.124700" lon="-7.702120">
                <time>2019-06-14T15:13:23Z</time>
            </trkpt>
            <trkpt lat="55.124520" lon="-7.702160">
                <time>2019-06-14T15:13:24Z</time>
            </trkpt>
            <trkpt lat="55.124350" lon="-7.702240">
                <time>2019-06-14T15:13:25Z</time>
            </trkpt>
            <trkpt lat="55.124170" lon="-7.702350">
                <time>2019-06-14T15:13:26Z</time>
            </trkpt>
            <trkpt lat="55.123990" lon="-7.702470">
                <time>2019-06-14T15:13:27Z</time>
            </trkpt>
            <trkpt lat="55.123810" lon="-7.702600">
                <time>2019-06-14T15:13:28Z</time>
            </trkpt>
            <trkpt lat="55.123630" lon="-7.702720">
                <time>2019-06-14T15:13:29Z</time>
            </trkpt>
            <trkpt lat="55.123440" lon="-7.702840">
                <time>2019-06-14T15:13:30Z</time>
            </trkpt>
            <trkpt lat="55.123250" lon="-7.702940">
                <time>2019-06-14T15:13:31Z</time>
            </trkpt>
            <trkpt lat="55.123070" lon="-7.703010">
                <time>2019-06-14T15:13:32Z</time>
            </trkpt>
            <trkpt lat="55.122880" lon="-7.703050">
                <time>2019-06-14T15:13:33Z</time>
            </trkpt>
            <trkpt lat="55.122690" lon="-7.703110">
                <time>2019-06-14T15:13:34Z</time>
            </trkpt>
            <trkpt lat="55.122500" lon="-7.703210">
                <time>2019-06-14T15:13:35Z</time>
            </trkpt>
            <trkpt lat="55.122320" lon="-7.703300">
                <time>2019-06-14T15:13:36Z</time>
            </trkpt>
            <trkpt lat="55.122140" lon="-7.703400">
                <time>2019-06-14T15:13:37Z</time>
            </trkpt>
            <trkpt lat="55.121970" lon="-7.703500">
                <time>2019-06-14T15:13:38Z</time>
            </trkpt>
            <trkpt lat="55.121820" lon="-7.703620">
                <time>2019-06-14T15:13:39Z</time>
            </trkpt>
            <trkpt lat="55.121670" lon="-7.703720">
                <time>2019-06-14T15:13:40Z</time>
            </trkpt>
            <trkpt lat="55.121530" lon="-7.703790">
                <time>2019-06-14T15:13:41Z</time>
            </trkpt>
            <trkpt lat="55.121380" lon="-7.703860">
                <time>2019-06-14T15:13:42Z</time>
            </trkpt>
            <trkpt lat="55.121220" lon="-7.703940">
                <time>2019-06-14T15:13:43Z</time>
            </trkpt>
            <trkpt lat="55.121050" lon="-7.704050">
                <time>2019-06-14T15:13:44Z</time>
            </trkpt>
            <trkpt lat="55.120900" lon="-7.704170">
                <time>2019-06-14T15:13:45Z</time>
            </trkpt>
            <trkpt lat="55.120740" lon="-7.704280">
                <time>2019-06-14T15:13:46Z</time>
            </trkpt>
            <trkpt lat="55.120610" lon="-7.704420">
                <time>2019-06-14T15:13:47Z</time>
            </trkpt>
            <trkpt lat="55.120470" lon="-7.704560">
                <time>2019-06-14T15:13:48Z</time>
            </trkpt>
            <trkpt lat="55.120320" lon="-7.704710">
                <time>2019-06-14T15:13:49Z</time>
            </trkpt>
            <trkpt lat="55.120170" lon="-7.704860">
                <time>2019-06-14T15:13:50Z</time>
            </trkpt>
            <trkpt lat="55.120040" lon="-7.705000">
                <time>2019-06-14T15:13:51Z</time>
            </trkpt>
            <trkpt lat="55.119900" lon="-7.705150">
                <time>2019-06-14T15:13:52Z</time>
            </trkpt>
            <trkpt lat="55.119770" lon="-7.705280">
                <time>2019-06-14T15:13:53Z</time>
            </trkpt>
            <trkpt lat="55.119650" lon="-7.705430">
                <time>2019-06-14T15:13:54Z</time>
            </trkpt>
            <trkpt lat="55.119510" lon="-7.705570">
                <time>2019-06-14T15:13:55Z</time>
            </trkpt>
            <trkpt lat="55.119370" lon="-7.705720">
                <time>2019-06-14T15:13:56Z</time>
            </trkpt>
            <trkpt lat="55.119230" lon="-7.705870">
                <time>2019-06-14T15:13:57Z</time>
            </trkpt>
            <trkpt lat="55.119080" lon="-7.706030">
                <time>2019-06-14T15:13:58Z</time>
            </trkpt>
            <trkpt lat="55.118920" lon="-7.706200">
                <time>2019-06-14T15:13:59Z</time>
            </trkpt>
            <trkpt lat="55.118760" lon="-7.706360">
                <time>2019-06-14T15:14:00Z</time>
            </trkpt>
            <trkpt lat="55.118600" lon="-7.706520">
                <time>2019-06-14T15:14:01Z</time>
            </trkpt>
            <trkpt lat="55.118440" lon="-7.706670">
                <time>2019-06-14T15:14:02Z</time>
            </trkpt>
            <trkpt lat="55.118290" lon="-7.706780">
                <time>2019-06-14T15:14:03Z</time>
            </trkpt>
            <trkpt lat="55.118130" lon="-7.706890">
                <time>2019-06-14T15:14:04Z</time>
            </trkpt>
            <trkpt lat="55.117960" lon="-7.706990">
                <time>2019-06-14T15:14:05Z</time>
            </trkpt>
            <trkpt lat="55.117790" lon="-7.707080">
                <time>2019-06-14T15:14:06Z</time>
            </trkpt>
            <trkpt lat="55.117620" lon="-7.707170">
                <time>2019-06-14T15:14:07Z</time>
            </trkpt>
            <trkpt lat="55.117460" lon="-7.707250">
                <time>2019-06-14T15:14:08Z</time>
            </trkpt>
            <trkpt lat="55.117280" lon="-7.707330">
                <time>2019-06-14T15:14:09Z</time>
            </trkpt>
            <trkpt lat="55.117100" lon="-7.707400">
                <time>2019-06-14T15:14:10Z</time>
            </trkpt>
            <trkpt lat="55.116920" lon="-7.707480">
                <time>2019-06-14T15:14:11Z</time>
            </trkpt>
            <trkpt lat="55.116740" lon="-7.707550">
                <time>2019-06-14T15:14:12Z</time>
            </trkpt>
            <trkpt lat="55.116550" lon="-7.707620">
                <time>2019-06-14T15:14:13Z</time>
            </trkpt>
            <trkpt lat="55.116380" lon="-7.707680">
                <time>2019-06-14T15:14:14Z</time>
            </trkpt>
            <trkpt lat="55.116200" lon="-7.707740">
                <time>2019-06-14T15:14:15Z</time>
            </trkpt>
            <trkpt lat="55.116020" lon="-7.707800">
                <time>2019-06-14T15:14:16Z</time>
            </trkpt>
            <trkpt lat="55.115830" lon="-7.707850">
                <time>2019-06-14T15:14:17Z</time>
            </trkpt>
            <trkpt lat="55.115640" lon="-7.707910">
                <time>2019-06-14T15:14:18Z</time>
            </trkpt>
            <trkpt lat="55.115440" lon="-7.707970">
                <time>2019-06-14T15:14:19Z</time>
            </trkpt>
            <trkpt lat="55.115250" lon="-7.708040">
                <time>2019-06-14T15:14:20Z</time>
            </trkpt>
            <trkpt lat="55.115070" lon="-7.708110">
                <time>2019-06-14T15:14:21Z</time>
            </trkpt>
            <trkpt lat="55.114890" lon="-7.708200">
                <time>2019-06-14T15:14:22Z</time>
            </trkpt>
            <trkpt lat="55.114720" lon="-7.708290">
                <time>2019-06-14T15:14:23Z</time>
            </trkpt>
            <trkpt lat="55.114540" lon="-7.708390">
                <time>2019-06-14T15:14:24Z</time>
            </trkpt>
            <trkpt lat="55.114350" lon="-7.708490">
                <time>2019-06-14T15:14:25Z</time>
            </trkpt>
            <trkpt lat="55.114170" lon="-7.708580">
                <time>2019-06-14T15:14:26Z</time>
            </trkpt>
            <trkpt lat="55.114000" lon="-7.708670">
                <time>2019-06-14T15:14:27Z</time>
            </trkpt>
            <trkpt lat="55.113840" lon="-7.708750">
                <time>2019-06-14T15:14:28Z</time>
            </trkpt>
            <trkpt lat="55.113670" lon="-7.708840">
                <time>2019-06-14T15:14:29Z</time>
            </trkpt>
            <trkpt lat="55.113500" lon="-7.708910">
                <time>2019-06-14T15:14:30Z</time>
            </trkpt>
            <trkpt lat="55.113330" lon="-7.708950">
                <time>2019-06-14T15:14:31Z</time>
            </trkpt>
            <trkpt lat="55.113140" lon="-7.708950">
                <time>2019-06-14T15:14:32Z</time>
            </trkpt>
            <trkpt lat="55.112950" lon="-7.708910">
                <time>2019-06-14T15:14:33Z</time>
            </trkpt>
            <trkpt lat="55.112760" lon="-7.708830">
                <time>2019-06-14T15:14:34Z</time>
            </trkpt>
            <trkpt lat="55.112590" lon="-7.708740">
                <time>2019-06-14T15:14:35Z</time>
            </trkpt>
            <trkpt lat="55.112430" lon="-7.708630">
                <time>2019-06-14T15:14:36Z</time>
            </trkpt>
            <trkpt lat="55.112270" lon="-7.708520">
                <time>2019-06-14T15:14:37Z</time>
            </trkpt>
            <trkpt lat="55.112120" lon="-7.708380">
                <time>2019-06-14T15:14:38Z</time>
            </trkpt>
            <trkpt lat="55.111970" lon="-7.708240">
                <time>2019-06-14T15:14:39Z</time>
            </trkpt>
            <trkpt lat="55.111830" lon="-7.708100">
                <time>2019-06-14T15:14:40Z</time>
            </trkpt>
            <trkpt lat="55.111700" lon="-7.707970">
                <time>2019-06-14T15:14:41Z</time>
            </trkpt>
            <trkpt lat="55.111590" lon="-7.707840">
                <time>2019-06-14T15:14:42Z</time>
            </trkpt>
            <trkpt lat="55.111480" lon="-7.707720">
                <time>2019-06-14T15:14:43Z</time>
            </trkpt>
            <trkpt lat="55.111360" lon="-7.707580">
                <time>2019-06-14T15:14:44Z</time>
            </trkpt>
            <trkpt lat="55.111240" lon="-7.707430">
                <time>2019-06-14T15:14:45Z</time>
            </trkpt>
            <trkpt lat="55.111100" lon="-7.707280">
                <time>2019-06-14T15:14:46Z</time>
            </trkpt>
            <trkpt lat="55.110930" lon="-7.707120">
                <time>2019-06-14T15:14:47Z</time>
            </trkpt>
            <trkpt lat="55.110750" lon="-7.706980">
                <time>2019-06-14T15:14:48Z</time>
            </trkpt>
            <trkpt lat="55.110600" lon="-7.706920">
                <time>2019-06-14T15:14:49Z</time>
            </trkpt>
            <trkpt lat="55.110480" lon="-7.706860">
                <time>2019-06-14T15:14:50Z</time>
            </trkpt>
            <trkpt lat="55.110370" lon="-7.706790">
                <time>2019-06-14T15:14:51Z</time>
            </trkpt>
            <trkpt lat="55.110260" lon="-7.706720">
                <time>2019-06-14T15:14:52Z</time>
            </trkpt>
            <trkpt lat="55.110140" lon="-7.706660">
                <time>2019-06-14T15:14:53Z</time>
            </trkpt>
            <trkpt lat="55.110010" lon="-7.706620">
                <time>2019-06-14T15:14:54Z</time>
            </trkpt>
            <trkpt lat="55.109860" lon="-7.706610">
                <time>2019-06-14T15:14:55Z</time>
            </trkpt>
            <trkpt lat="55.109720" lon="-7.706600">
                <time>2019-06-14T15:14:56Z</time>
            </trkpt>
            <trkpt lat="55.109570" lon="-7.706600">
                <time>2019-06-14T15:14:57Z</time>
            </trkpt>
            <trkpt lat="55.109430" lon="-7.706600">
                <time>2019-06-14T15:14:58Z</time>
            </trkpt>
            <trkpt lat="55.109290" lon="-7.706600">
                <time>2019-06-14T15:14:59Z</time>
            </trkpt>
            <trkpt lat="55.109160" lon="-7.706620">
                <time>2019-06-14T15:15:00Z</time>
            </trkpt>
            <trkpt lat="55.109030" lon="-7.706640">
                <time>2019-06-14T15:15:01Z</time>
            </trkpt>
            <trkpt lat="55.108880" lon="-7.706670">
                <time>2019-06-14T15:15:02Z</time>
            </trkpt>
            <trkpt lat="55.108730" lon="-7.706710">
                <time>2019-06-14T15:15:03Z</time>
            </trkpt>
            <trkpt lat="55.108580" lon="-7.706740">
                <time>2019-06-14T15:15:04Z</time>
            </trkpt>
            <trkpt lat="55.108440" lon="-7.706790">
                <time>2019-06-14T15:15:05Z</time>
            </trkpt>
            <trkpt lat="55.108310" lon="-7.706840">
                <time>2019-06-14T15:15:06Z</time>
            </trkpt>
            <trkpt lat="55.108180" lon="-7.706880">
                <time>2019-06-14T15:15:07Z</time>
            </trkpt>
            <trkpt lat="55.108050" lon="-7.706930">
                <time>2019-06-14T15:15:08Z</time>
            </trkpt>
            <trkpt lat="55.107920" lon="-7.707000">
                <time>2019-06-14T15:15:09Z</time>
            </trkpt>
            <trkpt lat="55.107780" lon="-7.707070">
                <time>2019-06-14T15:15:10Z</time>
            </trkpt>
            <trkpt lat="55.107650" lon="-7.707140">
                <time>2019-06-14T15:15:11Z</time>
            </trkpt>
            <trkpt lat="55.107510" lon="-7.707210">
                <time>2019-06-14T15:15:12Z</time>
            </trkpt>
            <trkpt lat="55.107370" lon="-7.707290">
                <time>2019-06-14T15:15:13Z</time>
            </trkpt>
            <trkpt lat="55.107240" lon="-7.707370">
                <time>2019-06-14T15:15:14Z</time>
            </trkpt>
            <trkpt lat="55.107120" lon="-7.707460">
                <time>2019-06-14T15:15:15Z</time>
            </trkpt>
            <trkpt lat="55.107010" lon="-7.707560">
                <time>2019-06-14T15:15:16Z</time>
            </trkpt>
            <trkpt lat="55.106880" lon="-7.707660">
                <time>2019-06-14T15:15:17Z</time>
            </trkpt>
            <trkpt lat="55.106760" lon="-7.707780">
                <time>2019-06-14T15:15:18Z</time>
            </trkpt>
            <trkpt lat="55.106650" lon="-7.707920">
                <time>2019-06-14T15:15:19Z</time>
            </trkpt>
            <trkpt lat="55.106530" lon="-7.708070">
                <time>2019-06-14T15:15:20Z</time>
            </trkpt>
            <trkpt lat="55.106430" lon="-7.708200">
                <time>2019-06-14T15:15:21Z</time>
            </trkpt>
            <trkpt lat="55.106320" lon="-7.708340">
                <time>2019-06-14T15:15:22Z</time>
            </trkpt>
            <trkpt lat="55.106220" lon="-7.708470">
                <time>2019-06-14T15:15:23Z</time>
            </trkpt>
            <trkpt lat="55.106110" lon="-7.708610">
                <time>2019-06-14T15:15:24Z</time>
            </trkpt>
            <trkpt lat="55.106000" lon="-7.708740">
                <time>2019-06-14T15:15:25Z</time>
            </trkpt>
            <trkpt lat="55.105890" lon="-7.708870">
                <time>2019-06-14T15:15:26Z</time>
            </trkpt>
            <trkpt lat="55.105790" lon="-7.709010">
                <time>2019-06-14T15:15:27Z</time>
            </trkpt>
            <trkpt lat="55.105700" lon="-7.709160">
                <time>2019-06-14T15:15:28Z</time>
            </trkpt>
            <trkpt lat="55.105620" lon="-7.709340">
                <time>2019-06-14T15:15:29Z</time>
            </trkpt>
            <trkpt lat="55.105540" lon="-7.709540">
                <time>2019-06-14T15:15:30Z</time>
            </trkpt>
            <trkpt lat="55.105450" lon="-7.709760">
                <time>2019-06-14T15:15:31Z</time>
            </trkpt>
            <trkpt lat="55.105370" lon="-7.709970">
                <time>2019-06-14T15:15:32Z</time>
            </trkpt>
            <trkpt lat="55.105270" lon="-7.710160">
                <time>2019-06-14T15:15:33Z</time>
            </trkpt>
            <trkpt lat="55.105170" lon="-7.710340">
                <time>2019-06-14T15:15:34Z</time>
            </trkpt>
            <trkpt lat="55.105060" lon="-7.710500">
                <time>2019-06-14T15:15:35Z</time>
            </trkpt>
            <trkpt lat="55.104940" lon="-7.710650">
                <time>2019-06-14T15:15:36Z</time>
            </trkpt>
            <trkpt lat="55.104830" lon="-7.710780">
                <time>2019-06-14T15:15:37Z</time>
            </trkpt>
            <trkpt lat="55.104710" lon="-7.710900">
                <time>2019-06-14T15:15:38Z</time>
            </trkpt>
            <trkpt lat="55.104600" lon="-7.711020">
                <time>2019-06-14T15:15:39Z</time>
            </trkpt>
            <trkpt lat="55.104480" lon="-7.711120">
                <time>2019-06-14T15:15:40Z</time>
            </trkpt>
            <trkpt lat="55.104370" lon="-7.711200">
                <time>2019-06-14T15:15:41Z</time>
            </trkpt>
            <trkpt lat="55.104270" lon="-7.711280">
                <time>2019-06-14T15:15:42Z</time>
            </trkpt>
            <trkpt lat="55.104180" lon="-7.711350">
                <time>2019-06-14T15:15:43Z</time>
            </trkpt>
            <trkpt lat="55.104090" lon="-7.711430">
                <time>2019-06-14T15:15:44Z</time>
            </trkpt>
            <trkpt lat="55.104000" lon="-7.711500">
                <time>2019-06-14T15:15:45Z</time>
            </trkpt>
            <trkpt lat="55.103910" lon="-7.711580">
                <time>2019-06-14T15:15:46Z</time>
            </trkpt>
            <trkpt lat="55.103830" lon="-7.711660">
                <time>2019-06-14T15:15:47Z</time>
            </trkpt>
            <trkpt lat="55.103750" lon="-7.711760">
                <time>2019-06-14T15:15:48Z</time>
            </trkpt>
            <trkpt lat="55.103660" lon="-7.711870">
                <time>2019-06-14T15:15:49Z</time>
            </trkpt>
            <trkpt lat="55.103580" lon="-7.712000">
                <time>2019-06-14T15:15:50Z</time>
            </trkpt>
            <trkpt lat="55.103500" lon="-7.712110">
                <time>2019-06-14T15:15:51Z</time>
            </trkpt>
            <trkpt lat="55.103430" lon="-7.712220">
                <time>2019-06-14T15:15:52Z</time>
            </trkpt>
            <trkpt lat="55.103370" lon="-7.712320">
                <time>2019-06-14T15:15:53Z</time>
            </trkpt>
            <trkpt lat="55.103300" lon="-7.712400">
                <time>2019-06-14T15:15:54Z</time>
            </trkpt>
            <trkpt lat="55.103250" lon="-7.712480">
                <time>2019-06-14T15:15:55Z</time>
            </trkpt>
            <trkpt lat="55.103190" lon="-7.712560">
                <time>2019-06-14T15:15:56Z</time>
            </trkpt>
            <trkpt lat="55.103130" lon="-7.712660">
                <time>2019-06-14T15:15:57Z</time>
            </trkpt>
            <trkpt lat="55.103060" lon="-7.712770">
                <time>2019-06-14T15:15:58Z</time>
            </trkpt>
            <trkpt lat="55.102990" lon="-7.712870">
                <time>2019-06-14T15:15:59Z</time>
            </trkpt>
            <trkpt lat="55.102920" lon="-7.712950">
                <time>2019-06-14T15:16:00Z</time>
            </trkpt>
            <trkpt lat="55.102860" lon="-7.713040">
                <time>2019-06-14T15:16:01Z</time>
            </trkpt>
            <trkpt lat="55.102800" lon="-7.713110">
                <time>2019-06-14T15:16:02Z</time>
            </trkpt>
            <trkpt lat="55.102750" lon="-7.713170">
                <time>2019-06-14T15:16:03Z</time>
            </trkpt>
            <trkpt lat="55.102700" lon="-7.713230">
                <time>2019-06-14T15:16:04Z</time>
            </trkpt>
            <trkpt lat="55.102650" lon="-7.713290">
                <time>2019-06-14T15:16:05Z</time>
            </trkpt>
            <trkpt lat="55.102600" lon="-7.713370">
                <time>2019-06-14T15:16:06Z</time>
            </trkpt>
            <trkpt lat="55.102530" lon="-7.713440">
                <time>2019-06-14T15:16:07Z</time>
            </trkpt>
            <trkpt lat="55.102470" lon="-7.713490">
                <time>2019-06-14T15:16:08Z</time>
            </trkpt>
            <trkpt lat="55.102420" lon="-7.713540">
                <time>2019-06-14T15:16:09Z</time>
            </trkpt>
            <trkpt lat="55.102360" lon="-7.713570">
                <time>2019-06-14T15:16:10Z</time>
            </trkpt>
            <trkpt lat="55.102310" lon="-7.713630">
                <time>2019-06-14T15:16:11Z</time>
            </trkpt>
            <trkpt lat="55.102260" lon="-7.713680">
                <time>2019-06-14T15:16:12Z</time>
            </trkpt>
            <trkpt lat="55.102200" lon="-7.713730">
                <time>2019-06-14T15:16:13Z</time>
            </trkpt>
            <trkpt lat="55.102130" lon="-7.713790">
                <time>2019-06-14T15:16:14Z</time>
            </trkpt>
            <trkpt lat="55.102040" lon="-7.713850">
                <time>2019-06-14T15:16:15Z</time>
            </trkpt>
            <trkpt lat="55.101940" lon="-7.713910">
                <time>2019-06-14T15:16:16Z</time>
            </trkpt>
            <trkpt lat="55.101820" lon="-7.713970">
                <time>2019-06-14T15:16:17Z</time>
            </trkpt>
            <trkpt lat="55.101690" lon="-7.714030">
                <time>2019-06-14T15:16:18Z</time>
            </trkpt>
            <trkpt lat="55.101560" lon="-7.714090">
                <time>2019-06-14T15:16:19Z</time>
            </trkpt>
            <trkpt lat="55.101430" lon="-7.714140">
                <time>2019-06-14T15:16:20Z</time>
            </trkpt>
            <trkpt lat="55.101300" lon="-7.714210">
                <time>2019-06-14T15:16:21Z</time>
            </trkpt>
            <trkpt lat="55.101190" lon="-7.714310">
                <time>2019-06-14T15:16:22Z</time>
            </trkpt>
            <trkpt lat="55.101060" lon="-7.714410">
                <time>2019-06-14T15:16:23Z</time>
            </trkpt>
            <trkpt lat="55.100940" lon="-7.714540">
                <time>2019-06-14T15:16:24Z</time>
            </trkpt>
            <trkpt lat="55.100810" lon="-7.714660">
                <time>2019-06-14T15:16:25Z</time>
            </trkpt>
            <trkpt lat="55.100690" lon="-7.714790">
                <time>2019-06-14T15:16:26Z</time>
            </trkpt>
            <trkpt lat="55.100560" lon="-7.714930">
                <time>2019-06-14T15:16:27Z</time>
            </trkpt>
            <trkpt lat="55.100430" lon="-7.715050">
                <time>2019-06-14T15:16:28Z</time>
            </trkpt>
            <trkpt lat="55.100310" lon="-7.715170">
                <time>2019-06-14T15:16:29Z</time>
            </trkpt>
            <trkpt lat="55.100170" lon="-7.715290">
                <time>2019-06-14T15:16:30Z</time>
            </trkpt>
            <trkpt lat="55.100030" lon="-7.715400">
                <time>2019-06-14T15:16:31Z</time>
            </trkpt>
            <trkpt lat="55.099880" lon="-7.715510">
                <time>2019-06-14T15:16:32Z</time>
            </trkpt>
            <trkpt lat="55.099730" lon="-7.715600">
                <time>2019-06-14T15:16:33Z</time>
            </trkpt>
            <trkpt lat="55.099600" lon="-7.715690">
                <time>2019-06-14T15:16:34Z</time>
            </trkpt>
            <trkpt lat="55.099470" lon="-7.715790">
                <time>2019-06-14T15:16:35Z</time>
            </trkpt>
            <trkpt lat="55.099350" lon="-7.715870">
                <time>2019-06-14T15:16:36Z</time>
            </trkpt>
            <trkpt lat="55.099240" lon="-7.715940">
                <time>2019-06-14T15:16:37Z</time>
            </trkpt>
            <trkpt lat="55.099120" lon="-7.715980">
                <time>2019-06-14T15:16:38Z</time>
            </trkpt>
            <trkpt lat="55.099010" lon="-7.715980">
                <time>2019-06-14T15:16:39Z</time>
            </trkpt>
            <trkpt lat="55.098900" lon="-7.715920">
                <time>2019-06-14T15:16:40Z</time>
            </trkpt>
            <trkpt lat="55.098810" lon="-7.715820">
                <time>2019-06-14T15:16:41Z</time>
            </trkpt>
            <trkpt lat="55.098720" lon="-7.715690">
                <time>2019-06-14T15:16:42Z</time>
            </trkpt>
            <trkpt lat="55.098650" lon="-7.715540">
                <time>2019-06-14T15:16:43Z</time>
            </trkpt>
            <trkpt lat="55.098580" lon="-7.715380">
                <time>2019-06-14T15:16:44Z</time>
            </trkpt>
            <trkpt lat="55.098500" lon="-7.715200">
                <time>2019-06-14T15:16:45Z</time>
            </trkpt>
            <trkpt lat="55.098420" lon="-7.715010">
                <time>2019-06-14T15:16:46Z</time>
            </trkpt>
            <trkpt lat="55.098330" lon="-7.714800">
                <time>2019-06-14T15:16:47Z</time>
            </trkpt>
            <trkpt lat="55.098240" lon="-7.714590">
                <time>2019-06-14T15:16:48Z</time>
            </trkpt>
            <trkpt lat="55.098150" lon="-7.714390">
                <time>2019-06-14T15:16:49Z</time>
            </trkpt>
            <trkpt lat="55.098060" lon="-7.714180">
                <time>2019-06-14T15:16:50Z</time>
            </trkpt>
            <trkpt lat="55.097970" lon="-7.713990">
                <time>2019-06-14T15:16:51Z</time>
            </trkpt>
            <trkpt lat="55.097880" lon="-7.713800">
                <time>2019-06-14T15:16:52Z</time>
            </trkpt>
            <trkpt lat="55.097800" lon="-7.713620">
                <time>2019-06-14T15:16:53Z</time>
            </trkpt>
            <trkpt lat="55.097700" lon="-7.713430">
                <time>2019-06-14T15:16:54Z</time>
            </trkpt>
            <trkpt lat="55.097610" lon="-7.713240">
                <time>2019-06-14T15:16:55Z</time>
            </trkpt>
            <trkpt lat="55.097510" lon="-7.713070">
                <time>2019-06-14T15:16:56Z</time>
            </trkpt>
            <trkpt lat="55.097410" lon="-7.712900">
                <time>2019-06-14T15:16:57Z</time>
            </trkpt>
            <trkpt lat="55.097310" lon="-7.712720">
                <time>2019-06-14T15:16:58Z</time>
            </trkpt>
            <trkpt lat="55.097220" lon="-7.712520">
                <time>2019-06-14T15:16:59Z</time>
            </trkpt>
            <trkpt lat="55.097140" lon="-7.712310">
                <time>2019-06-14T15:17:00Z</time>
            </trkpt>
            <trkpt lat="55.097070" lon="-7.712090">
                <time>2019-06-14T15:17:01Z</time>
            </trkpt>
            <trkpt lat="55.097020" lon="-7.711860">
                <time>2019-06-14T15:17:02Z</time>
            </trkpt>
            <trkpt lat="55.097000" lon="-7.711620">
                <time>2019-06-14T15:17:03Z</time>
            </trkpt>
            <trkpt lat="55.096980" lon="-7.711390">
                <time>2019-06-14T15:17:04Z</time>
            </trkpt>
            <trkpt lat="55.096990" lon="-7.711180">
                <time>2019-06-14T15:17:05Z</time>
            </trkpt>
            <trkpt lat="55.097010" lon="-7.710960">
                <time>2019-06-14T15:17:06Z</time>
            </trkpt>
            <trkpt lat="55.097060" lon="-7.710730">
                <time>2019-06-14T15:17:07Z</time>
            </trkpt>
            <trkpt lat="55.097110" lon="-7.710480">
                <time>2019-06-14T15:17:08Z</time>
            </trkpt>
            <trkpt lat="55.097170" lon="-7.710220">
                <time>2019-06-14T15:17:09Z</time>
            </trkpt>
            <trkpt lat="55.097220" lon="-7.709980">
                <time>2019-06-14T15:17:10Z</time>
            </trkpt>
            <trkpt lat="55.097270" lon="-7.709740">
                <time>2019-06-14T15:17:11Z</time>
            </trkpt>
            <trkpt lat="55.097310" lon="-7.709500">
                <time>2019-06-14T15:17:12Z</time>
            </trkpt>
            <trkpt lat="55.097340" lon="-7.709250">
                <time>2019-06-14T15:17:13Z</time>
            </trkpt>
            <trkpt lat="55.097360" lon="-7.709000">
                <time>2019-06-14T15:17:14Z</time>
            </trkpt>
            <trkpt lat="55.097350" lon="-7.708770">
                <time>2019-06-14T15:17:15Z</time>
            </trkpt>
            <trkpt lat="55.097330" lon="-7.708530">
                <time>2019-06-14T15:17:16Z</time>
            </trkpt>
            <trkpt lat="55.097280" lon="-7.708310">
                <time>2019-06-14T15:17:17Z</time>
            </trkpt>
            <trkpt lat="55.097230" lon="-7.708080">
                <time>2019-06-14T15:17:18Z</time>
            </trkpt>
            <trkpt lat="55.097150" lon="-7.707870">
                <time>2019-06-14T15:17:19Z</time>
            </trkpt>
            <trkpt lat="55.097070" lon="-7.707670">
                <time>2019-06-14T15:17:20Z</time>
            </trkpt>
            <trkpt lat="55.096980" lon="-7.707490">
                <time>2019-06-14T15:17:21Z</time>
            </trkpt>
            <trkpt lat="55.096890" lon="-7.707340">
                <time>2019-06-14T15:17:22Z</time>
            </trkpt>
            <trkpt lat="55.096790" lon="-7.707180">
                <time>2019-06-14T15:17:23Z</time>
            </trkpt>
            <trkpt lat="55.096700" lon="-7.707030">
                <time>2019-06-14T15:17:24Z</time>
            </trkpt>
            <trkpt lat="55.096620" lon="-7.706860">
                <time>2019-06-14T15:17:25Z</time>
            </trkpt>
            <trkpt lat="55.096550" lon="-7.706700">
                <time>2019-06-14T15:17:26Z</time>
            </trkpt>
            <trkpt lat="55.096470" lon="-7.706530">
                <time>2019-06-14T15:17:27Z</time>
            </trkpt>
            <trkpt lat="55.096400" lon="-7.706350">
                <time>2019-06-14T15:17:28Z</time>
            </trkpt>
            <trkpt lat="55.096340" lon="-7.706140">
                <time>2019-06-14T15:17:29Z</time>
            </trkpt>
            <trkpt lat="55.096280" lon="-7.705930">
                <time>2019-06-14T15:17:30Z</time>
            </trkpt>
            <trkpt lat="55.096220" lon="-7.705730">
                <time>2019-06-14T15:17:31Z</time>
            </trkpt>
            <trkpt lat="55.096150" lon="-7.705540">
                <time>2019-06-14T15:17:32Z</time>
            </trkpt>
            <trkpt lat="55.096060" lon="-7.705390">
                <time>2019-06-14T15:17:33Z</time>
            </trkpt>
            <trkpt lat="55.095970" lon="-7.705270">
                <time>2019-06-14T15:17:34Z</time>
            </trkpt>
            <trkpt lat="55.095850" lon="-7.705160">
                <time>2019-06-14T15:17:35Z</time>
            </trkpt>
            <trkpt lat="55.095740" lon="-7.705060">
                <time>2019-06-14T15:17:36Z</time>
            </trkpt>
            <trkpt lat="55.095620" lon="-7.704970">
                <time>2019-06-14T15:17:37Z</time>
            </trkpt>
            <trkpt lat="55.095490" lon="-7.704890">
                <time>2019-06-14T15:17:38Z</time>
            </trkpt>
            <trkpt lat="55.095350" lon="-7.704850">
                <time>2019-06-14T15:17:39Z</time>
            </trkpt>
            <trkpt lat="55.095210" lon="-7.704830">
                <time>2019-06-14T15:17:40Z</time>
            </trkpt>
            <trkpt lat="55.095070" lon="-7.704850">
                <time>2019-06-14T15:17:41Z</time>
            </trkpt>
            <trkpt lat="55.094940" lon="-7.704910">
                <time>2019-06-14T15:17:42Z</time>
            </trkpt>
            <trkpt lat="55.094830" lon="-7.705020">
                <time>2019-06-14T15:17:43Z</time>
            </trkpt>
            <trkpt lat="55.094730" lon="-7.705170">
                <time>2019-06-14T15:17:44Z</time>
            </trkpt>
            <trkpt lat="55.094630" lon="-7.705340">
                <time>2019-06-14T15:17:45Z</time>
            </trkpt>
            <trkpt lat="55.094530" lon="-7.705510">
                <time>2019-06-14T15:17:46Z</time>
            </trkpt>
            <trkpt lat="55.094430" lon="-7.705670">
                <time>2019-06-14T15:17:47Z</time>
            </trkpt>
            <trkpt lat="55.094320" lon="-7.705800">
                <time>2019-06-14T15:17:48Z</time>
            </trkpt>
            <trkpt lat="55.094190" lon="-7.705910">
                <time>2019-06-14T15:17:49Z</time>
            </trkpt>
            <trkpt lat="55.094060" lon="-7.706000">
                <time>2019-06-14T15:17:50Z</time>
            </trkpt>
            <trkpt lat="55.093940" lon="-7.706060">
                <time>2019-06-14T15:17:51Z</time>
            </trkpt>
            <trkpt lat="55.093820" lon="-7.706130">
                <time>2019-06-14T15:17:52Z</time>
            </trkpt>
            <trkpt lat="55.093690" lon="-7.706190">
                <time>2019-06-14T15:17:53Z</time>
            </trkpt>
            <trkpt lat="55.093570" lon="-7.706240">
                <time>2019-06-14T15:17:54Z</time>
            </trkpt>
            <trkpt lat="55.093450" lon="-7.706300">
                <time>2019-06-14T15:17:55Z</time>
            </trkpt>
            <trkpt lat="55.093320" lon="-7.706350">
                <time>2019-06-14T15:17:56Z</time>
            </trkpt>
            <trkpt lat="55.093190" lon="-7.706400">
                <time>2019-06-14T15:17:57Z</time>
            </trkpt>
            <trkpt lat="55.093080" lon="-7.706440">
                <time>2019-06-14T15:17:58Z</time>
            </trkpt>
            <trkpt lat="55.092950" lon="-7.706460">
                <time>2019-06-14T15:17:59Z</time>
            </trkpt>
            <trkpt lat="55.092830" lon="-7.706450">
                <time>2019-06-14T15:18:00Z</time>
            </trkpt>
            <trkpt lat="55.092710" lon="-7.706400">
                <time>2019-06-14T15:18:01Z</time>
            </trkpt>
            <trkpt lat="55.092590" lon="-7.706320">
                <time>2019-06-14T15:18:02Z</time>
            </trkpt>
            <trkpt lat="55.092480" lon="-7.706210">
                <time>2019-06-14T15:18:03Z</time>
            </trkpt>
            <trkpt lat="55.092370" lon="-7.706080">
                <time>2019-06-14T15:18:04Z</time>
            </trkpt>
            <trkpt lat="55.092260" lon="-7.705930">
                <time>2019-06-14T15:18:05Z</time>
            </trkpt>
            <trkpt lat="55.092180" lon="-7.705740">
                <time>2019-06-14T15:18:06Z</time>
            </trkpt>
            <trkpt lat="55.092110" lon="-7.705530">
                <time>2019-06-14T15:18:07Z</time>
            </trkpt>
            <trkpt lat="55.092060" lon="-7.705320">
                <time>2019-06-14T15:18:08Z</time>
            </trkpt>
            <trkpt lat="55.092000" lon="-7.705110">
                <time>2019-06-14T15:18:09Z</time>
            </trkpt>
            <trkpt lat="55.091940" lon="-7.704910">
                <time>2019-06-14T15:18:10Z</time>
            </trkpt>
            <trkpt lat="55.091870" lon="-7.704710">
                <time>2019-06-14T15:18:11Z</time>
            </trkpt>
            <trkpt lat="55.091800" lon="-7.704500">
                <time>2019-06-14T15:18:12Z</time>
            </trkpt>
            <trkpt lat="55.091740" lon="-7.704280">
                <time>2019-06-14T15:18:13Z</time>
            </trkpt>
            <trkpt lat="55.091690" lon="-7.704070">
                <time>2019-06-14T15:18:14Z</time>
            </trkpt>
            <trkpt lat="55.091650" lon="-7.703860">
                <time>2019-06-14T15:18:15Z</time>
            </trkpt>
            <trkpt lat="55.091610" lon="-7.703650">
                <time>2019-06-14T15:18:16Z</time>
            </trkpt>
            <trkpt lat="55.091560" lon="-7.703460">
                <time>2019-06-14T15:18:17Z</time>
            </trkpt>
            <trkpt lat="55.091500" lon="-7.703300">
                <time>2019-06-14T15:18:18Z</time>
            </trkpt>
            <trkpt lat="55.091430" lon="-7.703170">
                <time>2019-06-14T15:18:19Z</time>
            </trkpt>
            <trkpt lat="55.091350" lon="-7.703070">
                <time>2019-06-14T15:18:20Z</time>
            </trkpt>
            <trkpt lat="55.091260" lon="-7.702990">
                <time>2019-06-14T15:18:21Z</time>
            </trkpt>
            <trkpt lat="55.091150" lon="-7.702920">
                <time>2019-06-14T15:18:22Z</time>
            </trkpt>
            <trkpt lat="55.091040" lon="-7.702860">
                <time>2019-06-14T15:18:23Z</time>
            </trkpt>
            <trkpt lat="55.090920" lon="-7.702800">
                <time>2019-06-14T15:18:24Z</time>
            </trkpt>
            <trkpt lat="55.090800" lon="-7.702740">
                <time>2019-06-14T15:18:25Z</time>
            </trkpt>
            <trkpt lat="55.090680" lon="-7.702640">
                <time>2019-06-14T15:18:26Z</time>
            </trkpt>
            <trkpt lat="55.090570" lon="-7.702480">
                <time>2019-06-14T15:18:27Z</time>
            </trkpt>
            <trkpt lat="55.090470" lon="-7.702290">
                <time>2019-06-14T15:18:28Z</time>
            </trkpt>
            <trkpt lat="55.090380" lon="-7.702080">
                <time>2019-06-14T15:18:29Z</time>
            </trkpt>
            <trkpt lat="55.090290" lon="-7.701870">
                <time>2019-06-14T15:18:30Z</time>
            </trkpt>
            <trkpt lat="55.090200" lon="-7.701660">
                <time>2019-06-14T15:18:31Z</time>
            </trkpt>
            <trkpt lat="55.090100" lon="-7.701430">
                <time>2019-06-14T15:18:32Z</time>
            </trkpt>
            <trkpt lat="55.090020" lon="-7.701200">
                <time>2019-06-14T15:18:33Z</time>
            </trkpt>
            <trkpt lat="55.089960" lon="-7.700980">
                <time>2019-06-14T15:18:34Z</time>
            </trkpt>
            <trkpt lat="55.089910" lon="-7.700760">
                <time>2019-06-14T15:18:35Z</time>
            </trkpt>
            <trkpt lat="55.089890" lon="-7.700550">
                <time>2019-06-14T15:18:36Z</time>
            </trkpt>
            <trkpt lat="55.089870" lon="-7.700380">
                <time>2019-06-14T15:18:37Z</time>
            </trkpt>
            <trkpt lat="55.089850" lon="-7.700220">
                <time>2019-06-14T15:18:38Z</time>
            </trkpt>
            <trkpt lat="55.089820" lon="-7.700070">
                <time>2019-06-14T15:18:39Z</time>
            </trkpt>
            <trkpt lat="55.089780" lon="-7.699930">
                <time>2019-06-14T15:18:40Z</time>
            </trkpt>
            <trkpt lat="55.089740" lon="-7.699800">
                <time>2019-06-14T15:18:41Z</time>
            </trkpt>
            <trkpt lat="55.089690" lon="-7.699700">
                <time>2019-06-14T15:18:42Z</time>
            </trkpt>
            <trkpt lat="55.089630" lon="-7.699620">
                <time>2019-06-14T15:18:43Z</time>
            </trkpt>
            <trkpt lat="55.089560" lon="-7.699550">
                <time>2019-06-14T15:18:44Z</time>
            </trkpt>
            <trkpt lat="55.089490" lon="-7.699500">
                <time>2019-06-14T15:18:45Z</time>
            </trkpt>
            <trkpt lat="55.089420" lon="-7.699460">
                <time>2019-06-14T15:18:46Z</time>
            </trkpt>
            <trkpt lat="55.089360" lon="-7.699430">
                <time>2019-06-14T15:18:47Z</time>
            </trkpt>
            <trkpt lat="55.089300" lon="-7.699400">
                <time>2019-06-14T15:18:48Z</time>
            </trkpt>
            <trkpt lat="55.089250" lon="-7.699370">
                <time>2019-06-14T15:18:49Z</time>
            </trkpt>
            <trkpt lat="55.089200" lon="-7.699340">
                <time>2019-06-14T15:18:50Z</time>
            </trkpt>
            <trkpt lat="55.089150" lon="-7.699310">
                <time>2019-06-14T15:18:51Z</time>
            </trkpt>
            <trkpt lat="55.089100" lon="-7.699280">
                <time>2019-06-14T15:18:52Z</time>
            </trkpt>
            <trkpt lat="55.089050" lon="-7.699260">
                <time>2019-06-14T15:18:53Z</time>
            </trkpt>
            <trkpt lat="55.089000" lon="-7.699230">
                <time>2019-06-14T15:18:54Z</time>
            </trkpt>
            <trkpt lat="55.088960" lon="-7.699200">
                <time>2019-06-14T15:18:55Z</time>
            </trkpt>
            <trkpt lat="55.088900" lon="-7.699170">
                <time>2019-06-14T15:18:56Z</time>
            </trkpt>
            <trkpt lat="55.088840" lon="-7.699140">
                <time>2019-06-14T15:18:57Z</time>
            </trkpt>
            <trkpt lat="55.088780" lon="-7.699110">
                <time>2019-06-14T15:18:58Z</time>
            </trkpt>
            <trkpt lat="55.088720" lon="-7.699090">
                <time>2019-06-14T15:18:59Z</time>
            </trkpt>
            <trkpt lat="55.088660" lon="-7.699060">
                <time>2019-06-14T15:19:00Z</time>
            </trkpt>
            <trkpt lat="55.088590" lon="-7.699040">
                <time>2019-06-14T15:19:01Z</time>
            </trkpt>
            <trkpt lat="55.088510" lon="-7.699000">
                <time>2019-06-14T15:19:02Z</time>
            </trkpt>
            <trkpt lat="55.088430" lon="-7.698960">
                <time>2019-06-14T15:19:03Z</time>
            </trkpt>
            <trkpt lat="55.088350" lon="-7.698910">
                <time>2019-06-14T15:19:04Z</time>
            </trkpt>
            <trkpt lat="55.088290" lon="-7.698860">
                <time>2019-06-14T15:19:05Z</time>
            </trkpt>
            <trkpt lat="55.088230" lon="-7.698820">
                <time>2019-06-14T15:19:06Z</time>
            </trkpt>
            <trkpt lat="55.088160" lon="-7.698780">
                <time>2019-06-14T15:19:07Z</time>
            </trkpt>
            <trkpt lat="55.088100" lon="-7.698720">
                <time>2019-06-14T15:19:08Z</time>
            </trkpt>
            <trkpt lat="55.088040" lon="-7.698680">
                <time>2019-06-14T15:19:09Z</time>
            </trkpt>
            <trkpt lat="55.087980" lon="-7.698630">
                <time>2019-06-14T15:19:10Z</time>
            </trkpt>
            <trkpt lat="55.087920" lon="-7.698590">
                <time>2019-06-14T15:19:11Z</time>
            </trkpt>
            <trkpt lat="55.087850" lon="-7.698550">
                <time>2019-06-14T15:19:12Z</time>
            </trkpt>
            <trkpt lat="55.087780" lon="-7.698510">
                <time>2019-06-14T15:19:13Z</time>
            </trkpt>
            <trkpt lat="55.087720" lon="-7.698460">
                <time>2019-06-14T15:19:14Z</time>
            </trkpt>
            <trkpt lat="55.087660" lon="-7.698420">
                <time>2019-06-14T15:19:15Z</time>
            </trkpt>
            <trkpt lat="55.087590" lon="-7.698380">
                <time>2019-06-14T15:19:16Z</time>
            </trkpt>
            <trkpt lat="55.087520" lon="-7.698340">
                <time>2019-06-14T15:19:17Z</time>
            </trkpt>
            <trkpt lat="55.087460" lon="-7.698270">
                <time>2019-06-14T15:19:18Z</time>
            </trkpt>
            <trkpt lat="55.087390" lon="-7.698200">
                <time>2019-06-14T15:19:19Z</time>
            </trkpt>
            <trkpt lat="55.087320" lon="-7.698160">
                <time>2019-06-14T15:19:20Z</time>
            </trkpt>
            <trkpt lat="55.087260" lon="-7.698120">
                <time>2019-06-14T15:19:21Z</time>
            </trkpt>
            <trkpt lat="55.087200" lon="-7.698080">
                <time>2019-06-14T15:19:22Z</time>
            </trkpt>
            <trkpt lat="55.087130" lon="-7.698030">
                <time>2019-06-14T15:19:23Z</time>
            </trkpt>
            <trkpt lat="55.087050" lon="-7.697970">
                <time>2019-06-14T15:19:24Z</time>
            </trkpt>
            <trkpt lat="55.086960" lon="-7.697900">
                <time>2019-06-14T15:19:25Z</time>
            </trkpt>
            <trkpt lat="55.086860" lon="-7.697820">
                <time>2019-06-14T15:19:26Z</time>
            </trkpt>
            <trkpt lat="55.086770" lon="-7.697750">
                <time>2019-06-14T15:19:27Z</time>
            </trkpt>
            <trkpt lat="55.086690" lon="-7.697650">
                <time>2019-06-14T15:19:28Z</time>
            </trkpt>
            <trkpt lat="55.086610" lon="-7.697530">
                <time>2019-06-14T15:19:29Z</time>
            </trkpt>
            <trkpt lat="55.086540" lon="-7.697400">
                <time>2019-06-14T15:19:30Z</time>
            </trkpt>
            <trkpt lat="55.086480" lon="-7.697230">
                <time>2019-06-14T15:19:31Z</time>
            </trkpt>
            <trkpt lat="55.086430" lon="-7.697050">
                <time>2019-06-14T15:19:32Z</time>
            </trkpt>
            <trkpt lat="55.086400" lon="-7.696860">
                <time>2019-06-14T15:19:33Z</time>
            </trkpt>
            <trkpt lat="55.086390" lon="-7.696650">
                <time>2019-06-14T15:19:34Z</time>
            </trkpt>
            <trkpt lat="55.086370" lon="-7.696440">
                <time>2019-06-14T15:19:35Z</time>
            </trkpt>
            <trkpt lat="55.086360" lon="-7.696200">
                <time>2019-06-14T15:19:36Z</time>
            </trkpt>
            <trkpt lat="55.086340" lon="-7.695960">
                <time>2019-06-14T15:19:37Z</time>
            </trkpt>
            <trkpt lat="55.086300" lon="-7.695720">
                <time>2019-06-14T15:19:38Z</time>
            </trkpt>
            <trkpt lat="55.086250" lon="-7.695470">
                <time>2019-06-14T15:19:39Z</time>
            </trkpt>
            <trkpt lat="55.086180" lon="-7.695210">
                <time>2019-06-14T15:19:40Z</time>
            </trkpt>
            <trkpt lat="55.086080" lon="-7.694960">
                <time>2019-06-14T15:19:41Z</time>
            </trkpt>
            <trkpt lat="55.085980" lon="-7.694700">
                <time>2019-06-14T15:19:42Z</time>
            </trkpt>
            <trkpt lat="55.085870" lon="-7.694460">
                <time>2019-06-14T15:19:43Z</time>
            </trkpt>
            <trkpt lat="55.085760" lon="-7.694210">
                <time>2019-06-14T15:19:44Z</time>
            </trkpt>
            <trkpt lat="55.085650" lon="-7.693960">
                <time>2019-06-14T15:19:45Z</time>
            </trkpt>
            <trkpt lat="55.085540" lon="-7.693710">
                <time>2019-06-14T15:19:46Z</time>
            </trkpt>
            <trkpt lat="55.085410" lon="-7.693460">
                <time>2019-06-14T15:19:47Z</time>
            </trkpt>
            <trkpt lat="55.085290" lon="-7.693210">
                <time>2019-06-14T15:19:48Z</time>
            </trkpt>
            <trkpt lat="55.085160" lon="-7.692950">
                <time>2019-06-14T15:19:49Z</time>
            </trkpt>
            <trkpt lat="55.085040" lon="-7.692710">
                <time>2019-06-14T15:19:50Z</time>
            </trkpt>
            <trkpt lat="55.084920" lon="-7.692470">
                <time>2019-06-14T15:19:51Z</time>
            </trkpt>
            <trkpt lat="55.084800" lon="-7.692210">
                <time>2019-06-14T15:19:52Z</time>
            </trkpt>
            <trkpt lat="55.084690" lon="-7.691960">
                <time>2019-06-14T15:19:53Z</time>
            </trkpt>
            <trkpt lat="55.084570" lon="-7.691710">
                <time>2019-06-14T15:19:54Z</time>
            </trkpt>
            <trkpt lat="55.084450" lon="-7.691470">
                <time>2019-06-14T15:19:55Z</time>
            </trkpt>
            <trkpt lat="55.084330" lon="-7.691270">
                <time>2019-06-14T15:19:56Z</time>
            </trkpt>
            <trkpt lat="55.084220" lon="-7.691080">
                <time>2019-06-14T15:19:57Z</time>
            </trkpt>
            <trkpt lat="55.084110" lon="-7.690890">
                <time>2019-06-14T15:19:58Z</time>
            </trkpt>
            <trkpt lat="55.084000" lon="-7.690700">
                <time>2019-06-14T15:19:59Z</time>
            </trkpt>
            <trkpt lat="55.083900" lon="-7.690520">
                <time>2019-06-14T15:20:00Z</time>
            </trkpt>
            <trkpt lat="55.083790" lon="-7.690340">
                <time>2019-06-14T15:20:01Z</time>
            </trkpt>
            <trkpt lat="55.083700" lon="-7.690180">
                <time>2019-06-14T15:20:02Z</time>
            </trkpt>
            <trkpt lat="55.083610" lon="-7.690030">
                <time>2019-06-14T15:20:03Z</time>
            </trkpt>
            <trkpt lat="55.083530" lon="-7.689870">
                <time>2019-06-14T15:20:04Z</time>
            </trkpt>
            <trkpt lat="55.083440" lon="-7.689700">
                <time>2019-06-14T15:20:05Z</time>
            </trkpt>
            <trkpt lat="55.083330" lon="-7.689530">
                <time>2019-06-14T15:20:06Z</time>
            </trkpt>
            <trkpt lat="55.083230" lon="-7.689340">
                <time>2019-06-14T15:20:07Z</time>
            </trkpt>
            <trkpt lat="55.083120" lon="-7.689150">
                <time>2019-06-14T15:20:08Z</time>
            </trkpt>
            <trkpt lat="55.083010" lon="-7.688960">
                <time>2019-06-14T15:20:09Z</time>
            </trkpt>
            <trkpt lat="55.082900" lon="-7.688780">
                <time>2019-06-14T15:20:10Z</time>
            </trkpt>
            <trkpt lat="55.082800" lon="-7.688590">
                <time>2019-06-14T15:20:11Z</time>
            </trkpt>
            <trkpt lat="55.082690" lon="-7.688400">
                <time>2019-06-14T15:20:12Z</time>
            </trkpt>
            <trkpt lat="55.082590" lon="-7.688210">
                <time>2019-06-14T15:20:13Z</time>
            </trkpt>
            <trkpt lat="55.082480" lon="-7.688030">
                <time>2019-06-14T15:20:14Z</time>
            </trkpt>
            <trkpt lat="55.082390" lon="-7.687850">
                <time>2019-06-14T15:20:15Z</time>
            </trkpt>
            <trkpt lat="55.082290" lon="-7.687670">
                <time>2019-06-14T15:20:16Z</time>
            </trkpt>
            <trkpt lat="55.082180" lon="-7.687490">
                <time>2019-06-14T15:20:17Z</time>
            </trkpt>
            <trkpt lat="55.082070" lon="-7.687300">
                <time>2019-06-14T15:20:18Z</time>
            </trkpt>
            <trkpt lat="55.081960" lon="-7.687120">
                <time>2019-06-14T15:20:19Z</time>
            </trkpt>
            <trkpt lat="55.081830" lon="-7.686930">
                <time>2019-06-14T15:20:20Z</time>
            </trkpt>
            <trkpt lat="55.081710" lon="-7.686740">
                <time>2019-06-14T15:20:21Z</time>
            </trkpt>
            <trkpt lat="55.081570" lon="-7.686540">
                <time>2019-06-14T15:20:22Z</time>
            </trkpt>
            <trkpt lat="55.081440" lon="-7.686350">
                <time>2019-06-14T15:20:23Z</time>
            </trkpt>
            <trkpt lat="55.081300" lon="-7.686150">
                <time>2019-06-14T15:20:24Z</time>
            </trkpt>
            <trkpt lat="55.081160" lon="-7.685950">
                <time>2019-06-14T15:20:25Z</time>
            </trkpt>
            <trkpt lat="55.081020" lon="-7.685760">
                <time>2019-06-14T15:20:26Z</time>
            </trkpt>
            <trkpt lat="55.080880" lon="-7.685570">
                <time>2019-06-14T15:20:27Z</time>
            </trkpt>
            <trkpt lat="55.080740" lon="-7.685370">
                <time>2019-06-14T15:20:28Z</time>
            </trkpt>
            <trkpt lat="55.080590" lon="-7.685180">
                <time>2019-06-14T15:20:29Z</time>
            </trkpt>
            <trkpt lat="55.080440" lon="-7.684980">
                <time>2019-06-14T15:20:30Z</time>
            </trkpt>
            <trkpt lat="55.080280" lon="-7.684770">
                <time>2019-06-14T15:20:31Z</time>
            </trkpt>
            <trkpt lat="55.080130" lon="-7.684560">
                <time>2019-06-14T15:20:32Z</time>
            </trkpt>
            <trkpt lat="55.079980" lon="-7.684340">
                <time>2019-06-14T15:20:33Z</time>
            </trkpt>
            <trkpt lat="55.079830" lon="-7.684120">
                <time>2019-06-14T15:20:34Z</time>
            </trkpt>
            <trkpt lat="55.079690" lon="-7.683910">
                <time>2019-06-14T15:20:35Z</time>
            </trkpt>
            <trkpt lat="55.079540" lon="-7.683700">
                <time>2019-06-14T15:20:36Z</time>
            </trkpt>
            <trkpt lat="55.079390" lon="-7.683480">
                <time>2019-06-14T15:20:37Z</time>
            </trkpt>
            <trkpt lat="55.079240" lon="-7.683260">
                <time>2019-06-14T15:20:38Z</time>
            </trkpt>
            <trkpt lat="55.079090" lon="-7.683050">
                <time>2019-06-14T15:20:39Z</time>
            </trkpt>
            <trkpt lat="55.078940" lon="-7.682830">
                <time>2019-06-14T15:20:40Z</time>
            </trkpt>
            <trkpt lat="55.078780" lon="-7.682610">
                <time>2019-06-14T15:20:41Z</time>
            </trkpt>
            <trkpt lat="55.078630" lon="-7.682390">
                <time>2019-06-14T15:20:42Z</time>
            </trkpt>
            <trkpt lat="55.078480" lon="-7.682190">
                <time>2019-06-14T15:20:43Z</time>
            </trkpt>
            <trkpt lat="55.078340" lon="-7.682000">
                <time>2019-06-14T15:20:44Z</time>
            </trkpt>
            <trkpt lat="55.078210" lon="-7.681820">
                <time>2019-06-14T15:20:45Z</time>
            </trkpt>
            <trkpt lat="55.078070" lon="-7.681620">
                <time>2019-06-14T15:20:46Z</time>
            </trkpt>
            <trkpt lat="55.077930" lon="-7.681410">
                <time>2019-06-14T15:20:47Z</time>
            </trkpt>
            <trkpt lat="55.077800" lon="-7.681190">
                <time>2019-06-14T15:20:48Z</time>
            </trkpt>
            <trkpt lat="55.077650" lon="-7.680980">
                <time>2019-06-14T15:20:49Z</time>
            </trkpt>
            <trkpt lat="55.077500" lon="-7.680770">
                <time>2019-06-14T15:20:50Z</time>
            </trkpt>
            <trkpt lat="55.077340" lon="-7.680560">
                <time>2019-06-14T15:20:51Z</time>
            </trkpt>
            <trkpt lat="55.077190" lon="-7.680380">
                <time>2019-06-14T15:20:52Z</time>
            </trkpt>
            <trkpt lat="55.077020" lon="-7.680220">
                <time>2019-06-14T15:20:53Z</time>
            </trkpt>
            <trkpt lat="55.076860" lon="-7.680090">
                <time>2019-06-14T15:20:54Z</time>
            </trkpt>
            <trkpt lat="55.076690" lon="-7.679990">
                <time>2019-06-14T15:20:55Z</time>
            </trkpt>
            <trkpt lat="55.076520" lon="-7.679890">
                <time>2019-06-14T15:20:56Z</time>
            </trkpt>
            <trkpt lat="55.076350" lon="-7.679820">
                <time>2019-06-14T15:20:57Z</time>
            </trkpt>
            <trkpt lat="55.076160" lon="-7.679760">
                <time>2019-06-14T15:20:58Z</time>
            </trkpt>
            <trkpt lat="55.075970" lon="-7.679710">
                <time>2019-06-14T15:20:59Z</time>
            </trkpt>
            <trkpt lat="55.075780" lon="-7.679660">
                <time>2019-06-14T15:21:00Z</time>
            </trkpt>
            <trkpt lat="55.075590" lon="-7.679610">
                <time>2019-06-14T15:21:01Z</time>
            </trkpt>
            <trkpt lat="55.075400" lon="-7.679560">
                <time>2019-06-14T15:21:02Z</time>
            </trkpt>
            <trkpt lat="55.075200" lon="-7.679530">
                <time>2019-06-14T15:21:03Z</time>
            </trkpt>
            <trkpt lat="55.075000" lon="-7.679490">
                <time>2019-06-14T15:21:04Z</time>
            </trkpt>
            <trkpt lat="55.074790" lon="-7.679440">
                <time>2019-06-14T15:21:05Z</time>
            </trkpt>
            <trkpt lat="55.074580" lon="-7.679400">
                <time>2019-06-14T15:21:06Z</time>
            </trkpt>
            <trkpt lat="55.074370" lon="-7.679380">
                <time>2019-06-14T15:21:07Z</time>
            </trkpt>
            <trkpt lat="55.074180" lon="-7.679350">
                <time>2019-06-14T15:21:08Z</time>
            </trkpt>
            <trkpt lat="55.073980" lon="-7.679310">
                <time>2019-06-14T15:21:09Z</time>
            </trkpt>
            <trkpt lat="55.073790" lon="-7.679230">
                <time>2019-06-14T15:21:10Z</time>
            </trkpt>
            <trkpt lat="55.073600" lon="-7.679130">
                <time>2019-06-14T15:21:11Z</time>
            </trkpt>
            <trkpt lat="55.073430" lon="-7.679010">
                <time>2019-06-14T15:21:12Z</time>
            </trkpt>
            <trkpt lat="55.073270" lon="-7.678900">
                <time>2019-06-14T15:21:13Z</time>
            </trkpt>
            <trkpt lat="55.073110" lon="-7.678790">
                <time>2019-06-14T15:21:14Z</time>
            </trkpt>
            <trkpt lat="55.072960" lon="-7.678690">
                <time>2019-06-14T15:21:15Z</time>
            </trkpt>
            <trkpt lat="55.072810" lon="-7.678560">
                <time>2019-06-14T15:21:16Z</time>
            </trkpt>
            <trkpt lat="55.072670" lon="-7.678450">
                <time>2019-06-14T15:21:17Z</time>
            </trkpt>
            <trkpt lat="55.072540" lon="-7.678330">
                <time>2019-06-14T15:21:18Z</time>
            </trkpt>
            <trkpt lat="55.072400" lon="-7.678210">
                <time>2019-06-14T15:21:19Z</time>
            </trkpt>
            <trkpt lat="55.072270" lon="-7.678080">
                <time>2019-06-14T15:21:20Z</time>
            </trkpt>
            <trkpt lat="55.072130" lon="-7.677950">
                <time>2019-06-14T15:21:21Z</time>
            </trkpt>
            <trkpt lat="55.072010" lon="-7.677830">
                <time>2019-06-14T15:21:22Z</time>
            </trkpt>
            <trkpt lat="55.071890" lon="-7.677720">
                <time>2019-06-14T15:21:23Z</time>
            </trkpt>
            <trkpt lat="55.071770" lon="-7.677610">
                <time>2019-06-14T15:21:24Z</time>
            </trkpt>
            <trkpt lat="55.071640" lon="-7.677490">
                <time>2019-06-14T15:21:25Z</time>
            </trkpt>
            <trkpt lat="55.071510" lon="-7.677360">
                <time>2019-06-14T15:21:26Z</time>
            </trkpt>
            <trkpt lat="55.071370" lon="-7.677240">
                <time>2019-06-14T15:21:27Z</time>
            </trkpt>
            <trkpt lat="55.071230" lon="-7.677120">
                <time>2019-06-14T15:21:28Z</time>
            </trkpt>
            <trkpt lat="55.071100" lon="-7.676990">
                <time>2019-06-14T15:21:29Z</time>
            </trkpt>
            <trkpt lat="55.070960" lon="-7.676860">
                <time>2019-06-14T15:21:30Z</time>
            </trkpt>
            <trkpt lat="55.070820" lon="-7.676720">
                <time>2019-06-14T15:21:31Z</time>
            </trkpt>
            <trkpt lat="55.070680" lon="-7.676580">
                <time>2019-06-14T15:21:32Z</time>
            </trkpt>
            <trkpt lat="55.070540" lon="-7.676440">
                <time>2019-06-14T15:21:33Z</time>
            </trkpt>
            <trkpt lat="55.070390" lon="-7.676300">
                <time>2019-06-14T15:21:34Z</time>
            </trkpt>
            <trkpt lat="55.070260" lon="-7.676160">
                <time>2019-06-14T15:21:35Z</time>
            </trkpt>
            <trkpt lat="55.070120" lon="-7.676010">
                <time>2019-06-14T15:21:36Z</time>
            </trkpt>
            <trkpt lat="55.069970" lon="-7.675860">
                <time>2019-06-14T15:21:37Z</time>
            </trkpt>
            <trkpt lat="55.069830" lon="-7.675720">
                <time>2019-06-14T15:21:38Z</time>
            </trkpt>
            <trkpt lat="55.069690" lon="-7.675560">
                <time>2019-06-14T15:21:39Z</time>
            </trkpt>
            <trkpt lat="55.069560" lon="-7.675410">
                <time>2019-06-14T15:21:40Z</time>
            </trkpt>
            <trkpt lat="55.069410" lon="-7.675260">
                <time>2019-06-14T15:21:41Z</time>
            </trkpt>
            <trkpt lat="55.069270" lon="-7.675100">
                <time>2019-06-14T15:21:42Z</time>
            </trkpt>
            <trkpt lat="55.069130" lon="-7.674950">
                <time>2019-06-14T15:21:43Z</time>
            </trkpt>
            <trkpt lat="55.068990" lon="-7.674790">
                <time>2019-06-14T15:21:44Z</time>
            </trkpt>
            <trkpt lat="55.068860" lon="-7.674640">
                <time>2019-06-14T15:21:45Z</time>
            </trkpt>
            <trkpt lat="55.068720" lon="-7.674490">
                <time>2019-06-14T15:21:46Z</time>
            </trkpt>
            <trkpt lat="55.068580" lon="-7.674340">
                <time>2019-06-14T15:21:47Z</time>
            </trkpt>
            <trkpt lat="55.068430" lon="-7.674200">
                <time>2019-06-14T15:21:48Z</time>
            </trkpt>
            <trkpt lat="55.068280" lon="-7.674060">
                <time>2019-06-14T15:21:49Z</time>
            </trkpt>
            <trkpt lat="55.068110" lon="-7.673960">
                <time>2019-06-14T15:21:50Z</time>
            </trkpt>
            <trkpt lat="55.067930" lon="-7.673900">
                <time>2019-06-14T15:21:51Z</time>
            </trkpt>
            <trkpt lat="55.067750" lon="-7.673860">
                <time>2019-06-14T15:21:52Z</time>
            </trkpt>
            <trkpt lat="55.067570" lon="-7.673820">
                <time>2019-06-14T15:21:53Z</time>
            </trkpt>
            <trkpt lat="55.067390" lon="-7.673770">
                <time>2019-06-14T15:21:54Z</time>
            </trkpt>
            <trkpt lat="55.067230" lon="-7.673730">
                <time>2019-06-14T15:21:55Z</time>
            </trkpt>
            <trkpt lat="55.067070" lon="-7.673670">
                <time>2019-06-14T15:21:56Z</time>
            </trkpt>
            <trkpt lat="55.066910" lon="-7.673590">
                <time>2019-06-14T15:21:57Z</time>
            </trkpt>
            <trkpt lat="55.066750" lon="-7.673480">
                <time>2019-06-14T15:21:58Z</time>
            </trkpt>
            <trkpt lat="55.066620" lon="-7.673340">
                <time>2019-06-14T15:21:59Z</time>
            </trkpt>
            <trkpt lat="55.066500" lon="-7.673170">
                <time>2019-06-14T15:22:00Z</time>
            </trkpt>
            <trkpt lat="55.066390" lon="-7.672970">
                <time>2019-06-14T15:22:01Z</time>
            </trkpt>
            <trkpt lat="55.066290" lon="-7.672730">
                <time>2019-06-14T15:22:02Z</time>
            </trkpt>
            <trkpt lat="55.066220" lon="-7.672470">
                <time>2019-06-14T15:22:03Z</time>
            </trkpt>
            <trkpt lat="55.066140" lon="-7.672170">
                <time>2019-06-14T15:22:04Z</time>
            </trkpt>
            <trkpt lat="55.066070" lon="-7.671870">
                <time>2019-06-14T15:22:05Z</time>
            </trkpt>
            <trkpt lat="55.066000" lon="-7.671580">
                <time>2019-06-14T15:22:06Z</time>
            </trkpt>
            <trkpt lat="55.065930" lon="-7.671300">
                <time>2019-06-14T15:22:07Z</time>
            </trkpt>
            <trkpt lat="55.065860" lon="-7.671010">
                <time>2019-06-14T15:22:08Z</time>
            </trkpt>
            <trkpt lat="55.065800" lon="-7.670750">
                <time>2019-06-14T15:22:09Z</time>
            </trkpt>
            <trkpt lat="55.065730" lon="-7.670510">
                <time>2019-06-14T15:22:10Z</time>
            </trkpt>
            <trkpt lat="55.065680" lon="-7.670270">
                <time>2019-06-14T15:22:11Z</time>
            </trkpt>
            <trkpt lat="55.065610" lon="-7.670040">
                <time>2019-06-14T15:22:12Z</time>
            </trkpt>
            <trkpt lat="55.065550" lon="-7.669820">
                <time>2019-06-14T15:22:13Z</time>
            </trkpt>
            <trkpt lat="55.065480" lon="-7.669590">
                <time>2019-06-14T15:22:14Z</time>
            </trkpt>
            <trkpt lat="55.065420" lon="-7.669360">
                <time>2019-06-14T15:22:15Z</time>
            </trkpt>
            <trkpt lat="55.065350" lon="-7.669130">
                <time>2019-06-14T15:22:16Z</time>
            </trkpt>
            <trkpt lat="55.065280" lon="-7.668900">
                <time>2019-06-14T15:22:17Z</time>
            </trkpt>
            <trkpt lat="55.065210" lon="-7.668690">
                <time>2019-06-14T15:22:18Z</time>
            </trkpt>
            <trkpt lat="55.065130" lon="-7.668470">
                <time>2019-06-14T15:22:19Z</time>
            </trkpt>
            <trkpt lat="55.065060" lon="-7.668260">
                <time>2019-06-14T15:22:20Z</time>
            </trkpt>
            <trkpt lat="55.064990" lon="-7.668040">
                <time>2019-06-14T15:22:21Z</time>
            </trkpt>
            <trkpt lat="55.064920" lon="-7.667810">
                <time>2019-06-14T15:22:22Z</time>
            </trkpt>
            <trkpt lat="55.064850" lon="-7.667570">
                <time>2019-06-14T15:22:23Z</time>
            </trkpt>
            <trkpt lat="55.064780" lon="-7.667330">
                <time>2019-06-14T15:22:24Z</time>
            </trkpt>
            <trkpt lat="55.064710" lon="-7.667080">
                <time>2019-06-14T15:22:25Z</time>
            </trkpt>
            <trkpt lat="55.064630" lon="-7.666830">
                <time>2019-06-14T15:22:26Z</time>
            </trkpt>
            <trkpt lat="55.064560" lon="-7.666590">
                <time>2019-06-14T15:22:27Z</time>
            </trkpt>
            <trkpt lat="55.064490" lon="-7.666370">
                <time>2019-06-14T15:22:28Z</time>
            </trkpt>
            <trkpt lat="55.064410" lon="-7.666160">
                <time>2019-06-14T15:22:29Z</time>
            </trkpt>
            <trkpt lat="55.064320" lon="-7.665980">
                <time>2019-06-14T15:22:30Z</time>
            </trkpt>
            <trkpt lat="55.064210" lon="-7.665840">
                <time>2019-06-14T15:22:31Z</time>
            </trkpt>
            <trkpt lat="55.064080" lon="-7.665730">
                <time>2019-06-14T15:22:32Z</time>
            </trkpt>
            <trkpt lat="55.063930" lon="-7.665640">
                <time>2019-06-14T15:22:33Z</time>
            </trkpt>
            <trkpt lat="55.063750" lon="-7.665540">
                <time>2019-06-14T15:22:34Z</time>
            </trkpt>
            <trkpt lat="55.063570" lon="-7.665450">
                <time>2019-06-14T15:22:35Z</time>
            </trkpt>
            <trkpt lat="55.063370" lon="-7.665350">
                <time>2019-06-14T15:22:36Z</time>
            </trkpt>
            <trkpt lat="55.063180" lon="-7.665250">
                <time>2019-06-14T15:22:37Z</time>
            </trkpt>
            <trkpt lat="55.062990" lon="-7.665150">
                <time>2019-06-14T15:22:38Z</time>
            </trkpt>
            <trkpt lat="55.062800" lon="-7.665060">
                <time>2019-06-14T15:22:39Z</time>
            </trkpt>
            <trkpt lat="55.062610" lon="-7.664970">
                <time>2019-06-14T15:22:40Z</time>
            </trkpt>
            <trkpt lat="55.062410" lon="-7.664870">
                <time>2019-06-14T15:22:41Z</time>
            </trkpt>
            <trkpt lat="55.062200" lon="-7.664770">
                <time>2019-06-14T15:22:42Z</time>
            </trkpt>
            <trkpt lat="55.061990" lon="-7.664670">
                <time>2019-06-14T15:22:43Z</time>
            </trkpt>
            <trkpt lat="55.061770" lon="-7.664560">
                <time>2019-06-14T15:22:44Z</time>
            </trkpt>
            <trkpt lat="55.061550" lon="-7.664450">
                <time>2019-06-14T15:22:45Z</time>
            </trkpt>
            <trkpt lat="55.061330" lon="-7.664350">
                <time>2019-06-14T15:22:46Z</time>
            </trkpt>
            <trkpt lat="55.061110" lon="-7.664240">
                <time>2019-06-14T15:22:47Z</time>
            </trkpt>
            <trkpt lat="55.060880" lon="-7.664120">
                <time>2019-06-14T15:22:48Z</time>
            </trkpt>
            <trkpt lat="55.060660" lon="-7.664010">
                <time>2019-06-14T15:22:49Z</time>
            </trkpt>
            <trkpt lat="55.060420" lon="-7.663890">
                <time>2019-06-14T15:22:50Z</time>
            </trkpt>
            <trkpt lat="55.060170" lon="-7.663770">
                <time>2019-06-14T15:22:51Z</time>
            </trkpt>
            <trkpt lat="55.059900" lon="-7.663630">
                <time>2019-06-14T15:22:52Z</time>
            </trkpt>
            <trkpt lat="55.059640" lon="-7.663500">
                <time>2019-06-14T15:22:53Z</time>
            </trkpt>
            <trkpt lat="55.059360" lon="-7.663360">
                <time>2019-06-14T15:22:54Z</time>
            </trkpt>
            <trkpt lat="55.059090" lon="-7.663230">
                <time>2019-06-14T15:22:55Z</time>
            </trkpt>
            <trkpt lat="55.058820" lon="-7.663090">
                <time>2019-06-14T15:22:56Z</time>
            </trkpt>
            <trkpt lat="55.058550" lon="-7.662950">
                <time>2019-06-14T15:22:57Z</time>
            </trkpt>
            <trkpt lat="55.058270" lon="-7.662810">
                <time>2019-06-14T15:22:58Z</time>
            </trkpt>
            <trkpt lat="55.058000" lon="-7.662660">
                <time>2019-06-14T15:22:59Z</time>
            </trkpt>
            <trkpt lat="55.057730" lon="-7.662520">
                <time>2019-06-14T15:23:00Z</time>
            </trkpt>
            <trkpt lat="55.057460" lon="-7.662390">
                <time>2019-06-14T15:23:01Z</time>
            </trkpt>
            <trkpt lat="55.057210" lon="-7.662270">
                <time>2019-06-14T15:23:02Z</time>
            </trkpt>
            <trkpt lat="55.056970" lon="-7.662150">
                <time>2019-06-14T15:23:03Z</time>
            </trkpt>
            <trkpt lat="55.056750" lon="-7.662030">
                <time>2019-06-14T15:23:04Z</time>
            </trkpt>
            <trkpt lat="55.056540" lon="-7.661920">
                <time>2019-06-14T15:23:05Z</time>
            </trkpt>
            <trkpt lat="55.056350" lon="-7.661820">
                <time>2019-06-14T15:23:06Z</time>
            </trkpt>
            <trkpt lat="55.056180" lon="-7.661720">
                <time>2019-06-14T15:23:07Z</time>
            </trkpt>
            <trkpt lat="55.056020" lon="-7.661640">
                <time>2019-06-14T15:23:08Z</time>
            </trkpt>
            <trkpt lat="55.055860" lon="-7.661550">
                <time>2019-06-14T15:23:09Z</time>
            </trkpt>
            <trkpt lat="55.055710" lon="-7.661470">
                <time>2019-06-14T15:23:10Z</time>
            </trkpt>
            <trkpt lat="55.055570" lon="-7.661390">
                <time>2019-06-14T15:23:11Z</time>
            </trkpt>
            <trkpt lat="55.055430" lon="-7.661320">
                <time>2019-06-14T15:23:12Z</time>
            </trkpt>
            <trkpt lat="55.055300" lon="-7.661250">
                <time>2019-06-14T15:23:13Z</time>
            </trkpt>
            <trkpt lat="55.055160" lon="-7.661180">
                <time>2019-06-14T15:23:14Z</time>
            </trkpt>
            <trkpt lat="55.055000" lon="-7.661100">
                <time>2019-06-14T15:23:15Z</time>
            </trkpt>
            <trkpt lat="55.054800" lon="-7.661000">
                <time>2019-06-14T15:23:16Z</time>
            </trkpt>
            <trkpt lat="55.054590" lon="-7.660880">
                <time>2019-06-14T15:23:17Z</time>
            </trkpt>
            <trkpt lat="55.054360" lon="-7.660750">
                <time>2019-06-14T15:23:18Z</time>
            </trkpt>
            <trkpt lat="55.054130" lon="-7.660630">
                <time>2019-06-14T15:23:19Z</time>
            </trkpt>
            <trkpt lat="55.053880" lon="-7.660510">
                <time>2019-06-14T15:23:20Z</time>
            </trkpt>
            <trkpt lat="55.053610" lon="-7.660400">
                <time>2019-06-14T15:23:21Z</time>
            </trkpt>
            <trkpt lat="55.053320" lon="-7.660300">
                <time>2019-06-14T15:23:22Z</time>
            </trkpt>
            <trkpt lat="55.053030" lon="-7.660200">
                <time>2019-06-14T15:23:23Z</time>
            </trkpt>
            <trkpt lat="55.052740" lon="-7.660100">
                <time>2019-06-14T15:23:24Z</time>
            </trkpt>
            <trkpt lat="55.052450" lon="-7.660000">
                <time>2019-06-14T15:23:25Z</time>
            </trkpt>
            <trkpt lat="55.052160" lon="-7.659910">
                <time>2019-06-14T15:23:26Z</time>
            </trkpt>
            <trkpt lat="55.051860" lon="-7.659810">
                <time>2019-06-14T15:23:27Z</time>
            </trkpt>
            <trkpt lat="55.051570" lon="-7.659690">
                <time>2019-06-14T15:23:28Z</time>
            </trkpt>
            <trkpt lat="55.051270" lon="-7.659570">
                <time>2019-06-14T15:23:29Z</time>
            </trkpt>
            <trkpt lat="55.051000" lon="-7.659460">
                <time>2019-06-14T15:23:30Z</time>
            </trkpt>
            <trkpt lat="55.050740" lon="-7.659350">
                <time>2019-06-14T15:23:31Z</time>
            </trkpt>
            <trkpt lat="55.050480" lon="-7.659240">
                <time>2019-06-14T15:23:32Z</time>
            </trkpt>
            <trkpt lat="55.050220" lon="-7.659140">
                <time>2019-06-14T15:23:33Z</time>
            </trkpt>
            <trkpt lat="55.049960" lon="-7.659030">
                <time>2019-06-14T15:23:34Z</time>
            </trkpt>
            <trkpt lat="55.049700" lon="-7.658930">
                <time>2019-06-14T15:23:35Z</time>
            </trkpt>
            <trkpt lat="55.049470" lon="-7.658830">
                <time>2019-06-14T15:23:36Z</time>
            </trkpt>
            <trkpt lat="55.049230" lon="-7.658740">
                <time>2019-06-14T15:23:37Z</time>
            </trkpt>
            <trkpt lat="55.049010" lon="-7.658650">
                <time>2019-06-14T15:23:38Z</time>
            </trkpt>
            <trkpt lat="55.048780" lon="-7.658560">
                <time>2019-06-14T15:23:39Z</time>
            </trkpt>
            <trkpt lat="55.048540" lon="-7.658460">
                <time>2019-06-14T15:23:40Z</time>
            </trkpt>
            <trkpt lat="55.048300" lon="-7.658360">
                <time>2019-06-14T15:23:41Z</time>
            </trkpt>
            <trkpt lat="55.048070" lon="-7.658260">
                <time>2019-06-14T15:23:42Z</time>
            </trkpt>
            <trkpt lat="55.047840" lon="-7.658160">
                <time>2019-06-14T15:23:43Z</time>
            </trkpt>
            <trkpt lat="55.047620" lon="-7.658070">
                <time>2019-06-14T15:23:44Z</time>
            </trkpt>
            <trkpt lat="55.047390" lon="-7.657970">
                <time>2019-06-14T15:23:45Z</time>
            </trkpt>
            <trkpt lat="55.047160" lon="-7.657870">
                <time>2019-06-14T15:23:46Z</time>
            </trkpt>
            <trkpt lat="55.046920" lon="-7.657770">
                <time>2019-06-14T15:23:47Z</time>
            </trkpt>
            <trkpt lat="55.046690" lon="-7.657680">
                <time>2019-06-14T15:23:48Z</time>
            </trkpt>
            <trkpt lat="55.046470" lon="-7.657590">
                <time>2019-06-14T15:23:49Z</time>
            </trkpt>
            <trkpt lat="55.046250" lon="-7.657500">
                <time>2019-06-14T15:23:50Z</time>
            </trkpt>
            <trkpt lat="55.046040" lon="-7.657420">
                <time>2019-06-14T15:23:51Z</time>
            </trkpt>
            <trkpt lat="55.045830" lon="-7.657340">
                <time>2019-06-14T15:23:52Z</time>
            </trkpt>
            <trkpt lat="55.045620" lon="-7.657260">
                <time>2019-06-14T15:23:53Z</time>
            </trkpt>
            <trkpt lat="55.045420" lon="-7.657160">
                <time>2019-06-14T15:23:54Z</time>
            </trkpt>
            <trkpt lat="55.045210" lon="-7.657070">
                <time>2019-06-14T15:23:55Z</time>
            </trkpt>
            <trkpt lat="55.044990" lon="-7.656980">
                <time>2019-06-14T15:23:56Z</time>
            </trkpt>
            <trkpt lat="55.044770" lon="-7.656880">
                <time>2019-06-14T15:23:57Z</time>
            </trkpt>
            <trkpt lat="55.044540" lon="-7.656790">
                <time>2019-06-14T15:23:58Z</time>
            </trkpt>
            <trkpt lat="55.044310" lon="-7.656710">
                <time>2019-06-14T15:23:59Z</time>
            </trkpt>
            <trkpt lat="55.044080" lon="-7.656630">
                <time>2019-06-14T15:24:00Z</time>
            </trkpt>
            <trkpt lat="55.043870" lon="-7.656560">
                <time>2019-06-14T15:24:01Z</time>
            </trkpt>
            <trkpt lat="55.043670" lon="-7.656510">
                <time>2019-06-14T15:24:02Z</time>
            </trkpt>
            <trkpt lat="55.043480" lon="-7.656460">
                <time>2019-06-14T15:24:03Z</time>
            </trkpt>
            <trkpt lat="55.043270" lon="-7.656400">
                <time>2019-06-14T15:24:04Z</time>
            </trkpt>
            <trkpt lat="55.043070" lon="-7.656350">
                <time>2019-06-14T15:24:05Z</time>
            </trkpt>
            <trkpt lat="55.042880" lon="-7.656300">
                <time>2019-06-14T15:24:06Z</time>
            </trkpt>
            <trkpt lat="55.042690" lon="-7.656250">
                <time>2019-06-14T15:24:07Z</time>
            </trkpt>
            <trkpt lat="55.042520" lon="-7.656210">
                <time>2019-06-14T15:24:08Z</time>
            </trkpt>
            <trkpt lat="55.042340" lon="-7.656160">
                <time>2019-06-14T15:24:09Z</time>
            </trkpt>
            <trkpt lat="55.042150" lon="-7.656120">
                <time>2019-06-14T15:24:10Z</time>
            </trkpt>
            <trkpt lat="55.041970" lon="-7.656070">
                <time>2019-06-14T15:24:11Z</time>
            </trkpt>
            <trkpt lat="55.041780" lon="-7.656030">
                <time>2019-06-14T15:24:12Z</time>
            </trkpt>
            <trkpt lat="55.041610" lon="-7.655980">
                <time>2019-06-14T15:24:13Z</time>
            </trkpt>
            <trkpt lat="55.041440" lon="-7.655950">
                <time>2019-06-14T15:24:14Z</time>
            </trkpt>
            <trkpt lat="55.041270" lon="-7.655910">
                <time>2019-06-14T15:24:15Z</time>
            </trkpt>
            <trkpt lat="55.041100" lon="-7.655870">
                <time>2019-06-14T15:24:16Z</time>
            </trkpt>
            <trkpt lat="55.040940" lon="-7.655840">
                <time>2019-06-14T15:24:17Z</time>
            </trkpt>
            <trkpt lat="55.040780" lon="-7.655800">
                <time>2019-06-14T15:24:18Z</time>
            </trkpt>
            <trkpt lat="55.040630" lon="-7.655760">
                <time>2019-06-14T15:24:19Z</time>
            </trkpt>
            <trkpt lat="55.040480" lon="-7.655720">
                <time>2019-06-14T15:24:20Z</time>
            </trkpt>
            <trkpt lat="55.040330" lon="-7.655680">
                <time>2019-06-14T15:24:21Z</time>
            </trkpt>
            <trkpt lat="55.040180" lon="-7.655640">
                <time>2019-06-14T15:24:22Z</time>
            </trkpt>
            <trkpt lat="55.040050" lon="-7.655600">
                <time>2019-06-14T15:24:23Z</time>
            </trkpt>
            <trkpt lat="55.039920" lon="-7.655560">
                <time>2019-06-14T15:24:24Z</time>
            </trkpt>
            <trkpt lat="55.039800" lon="-7.655520">
                <time>2019-06-14T15:24:25Z</time>
            </trkpt>
            <trkpt lat="55.039680" lon="-7.655480">
                <time>2019-06-14T15:24:26Z</time>
            </trkpt>
            <trkpt lat="55.039570" lon="-7.655440">
                <time>2019-06-14T15:24:27Z</time>
            </trkpt>
            <trkpt lat="55.039460" lon="-7.655420">
                <time>2019-06-14T15:24:28Z</time>
            </trkpt>
            <trkpt lat="55.039340" lon="-7.655380">
                <time>2019-06-14T15:24:29Z</time>
            </trkpt>
            <trkpt lat="55.039230" lon="-7.655340">
                <time>2019-06-14T15:24:30Z</time>
            </trkpt>
            <trkpt lat="55.039110" lon="-7.655290">
                <time>2019-06-14T15:24:31Z</time>
            </trkpt>
            <trkpt lat="55.039000" lon="-7.655230">
                <time>2019-06-14T15:24:32Z</time>
            </trkpt>
            <trkpt lat="55.038900" lon="-7.655180">
                <time>2019-06-14T15:24:33Z</time>
            </trkpt>
            <trkpt lat="55.038810" lon="-7.655130">
                <time>2019-06-14T15:24:34Z</time>
            </trkpt>
            <trkpt lat="55.038750" lon="-7.655100">
                <time>2019-06-14T15:24:35Z</time>
            </trkpt>
            <trkpt lat="55.038690" lon="-7.655050">
                <time>2019-06-14T15:24:36Z</time>
            </trkpt>
            <trkpt lat="55.038640" lon="-7.655010">
                <time>2019-06-14T15:24:37Z</time>
            </trkpt>
            <trkpt lat="55.038580" lon="-7.654980">
                <time>2019-06-14T15:24:38Z</time>
            </trkpt>
            <trkpt lat="55.038530" lon="-7.654940">
                <time>2019-06-14T15:24:39Z</time>
            </trkpt>
            <trkpt lat="55.038460" lon="-7.654910">
                <time>2019-06-14T15:24:40Z</time>
            </trkpt>
            <trkpt lat="55.038390" lon="-7.654860">
                <time>2019-06-14T15:24:41Z</time>
            </trkpt>
            <trkpt lat="55.038320" lon="-7.654810">
                <time>2019-06-14T15:24:42Z</time>
            </trkpt>
            <trkpt lat="55.038250" lon="-7.654740">
                <time>2019-06-14T15:24:43Z</time>
            </trkpt>
            <trkpt lat="55.038180" lon="-7.654680">
                <time>2019-06-14T15:24:44Z</time>
            </trkpt>
            <trkpt lat="55.038120" lon="-7.654620">
                <time>2019-06-14T15:24:45Z</time>
            </trkpt>
            <trkpt lat="55.038050" lon="-7.654560">
                <time>2019-06-14T15:24:46Z</time>
            </trkpt>
            <trkpt lat="55.037980" lon="-7.654520">
                <time>2019-06-14T15:24:47Z</time>
            </trkpt>
            <trkpt lat="55.037910" lon="-7.654480">
                <time>2019-06-14T15:24:48Z</time>
            </trkpt>
            <trkpt lat="55.037850" lon="-7.654460">
                <time>2019-06-14T15:24:49Z</time>
            </trkpt>
            <trkpt lat="55.037790" lon="-7.654440">
                <time>2019-06-14T15:24:50Z</time>
            </trkpt>
            <trkpt lat="55.037730" lon="-7.654420">
                <time>2019-06-14T15:24:51Z</time>
            </trkpt>
            <trkpt lat="55.037670" lon="-7.654390">
                <time>2019-06-14T15:24:52Z</time>
            </trkpt>
            <trkpt lat="55.037600" lon="-7.654360">
                <time>2019-06-14T15:24:53Z</time>
            </trkpt>
            <trkpt lat="55.037520" lon="-7.654340">
                <time>2019-06-14T15:24:54Z</time>
            </trkpt>
            <trkpt lat="55.037440" lon="-7.654300">
                <time>2019-06-14T15:24:55Z</time>
            </trkpt>
            <trkpt lat="55.037370" lon="-7.654260">
                <time>2019-06-14T15:24:56Z</time>
            </trkpt>
            <trkpt lat="55.037300" lon="-7.654220">
                <time>2019-06-14T15:24:57Z</time>
            </trkpt>
            <trkpt lat="55.037230" lon="-7.654160">
                <time>2019-06-14T15:24:58Z</time>
            </trkpt>
            <trkpt lat="55.037170" lon="-7.654090">
                <time>2019-06-14T15:24:59Z</time>
            </trkpt>
            <trkpt lat="55.037120" lon="-7.654030">
                <time>2019-06-14T15:25:00Z</time>
            </trkpt>
            <trkpt lat="55.037090" lon="-7.653980">
                <time>2019-06-14T15:25:01Z</time>
            </trkpt>
            <trkpt lat="55.037070" lon="-7.653940">
                <time>2019-06-14T15:25:02Z</time>
            </trkpt>
            <trkpt lat="55.037060" lon="-7.653910">
                <time>2019-06-14T15:25:03Z</time>
            </trkpt>
            <trkpt lat="55.037050" lon="-7.653890">
                <time>2019-06-14T15:25:04Z</time>
            </trkpt>
            <trkpt lat="55.037050" lon="-7.653880">
                <time>2019-06-14T15:25:05Z</time>
            </trkpt>
            <trkpt lat="55.037060" lon="-7.653890">
                <time>2019-06-14T15:25:06Z</time>
            </trkpt>
            <trkpt lat="55.037060" lon="-7.653880">
                <time>2019-06-14T15:25:07Z</time>
            </trkpt>
            <trkpt lat="55.037060" lon="-7.653880">
                <time>2019-06-14T15:25:08Z</time>
            </trkpt>
            <trkpt lat="55.037060" lon="-7.653880">
                <time>2019-06-14T15:25:09Z</time>
            </trkpt>
            <trkpt lat="55.037060" lon="-7.653880">
                <time>2019-06-14T15:25:10Z</time>
            </trkpt>
            <trkpt lat="55.037070" lon="-7.653880">
                <time>2019-06-14T15:25:11Z</time>
            </trkpt>
            <trkpt lat="55.037060" lon="-7.653870">
                <time>2019-06-14T15:25:12Z</time>
            </trkpt>
            <trkpt lat="55.037050" lon="-7.653860">
                <time>2019-06-14T15:25:13Z</time>
            </trkpt>
            <trkpt lat="55.037030" lon="-7.653810">
                <time>2019-06-14T15:25:14Z</time>
            </trkpt>
            <trkpt lat="55.037010" lon="-7.653750">
                <time>2019-06-14T15:25:15Z</time>
            </trkpt>
            <trkpt lat="55.036980" lon="-7.653680">
                <time>2019-06-14T15:25:16Z</time>
            </trkpt>
            <trkpt lat="55.036960" lon="-7.653610">
                <time>2019-06-14T15:25:17Z</time>
            </trkpt>
            <trkpt lat="55.036950" lon="-7.653540">
                <time>2019-06-14T15:25:18Z</time>
            </trkpt>
            <trkpt lat="55.036930" lon="-7.653470">
                <time>2019-06-14T15:25:19Z</time>
            </trkpt>
            <trkpt lat="55.036930" lon="-7.653400">
                <time>2019-06-14T15:25:20Z</time>
            </trkpt>
            <trkpt lat="55.036920" lon="-7.653340">
                <time>2019-06-14T15:25:21Z</time>
            </trkpt>
            <trkpt lat="55.036920" lon="-7.653280">
                <time>2019-06-14T15:25:22Z</time>
            </trkpt>
            <trkpt lat="55.036930" lon="-7.653220">
                <time>2019-06-14T15:25:23Z</time>
            </trkpt>
            <trkpt lat="55.036930" lon="-7.653160">
                <time>2019-06-14T15:25:24Z</time>
            </trkpt>
            <trkpt lat="55.036940" lon="-7.653110">
                <time>2019-06-14T15:25:25Z</time>
            </trkpt>
            <trkpt lat="55.036940" lon="-7.653060">
                <time>2019-06-14T15:25:26Z</time>
            </trkpt>
            <trkpt lat="55.036950" lon="-7.653010">
                <time>2019-06-14T15:25:27Z</time>
            </trkpt>
            <trkpt lat="55.036960" lon="-7.652950">
                <time>2019-06-14T15:25:28Z</time>
            </trkpt>
            <trkpt lat="55.036960" lon="-7.652890">
                <time>2019-06-14T15:25:29Z</time>
            </trkpt>
            <trkpt lat="55.036970" lon="-7.652830">
                <time>2019-06-14T15:25:30Z</time>
            </trkpt>
            <trkpt lat="55.036990" lon="-7.652770">
                <time>2019-06-14T15:25:31Z</time>
            </trkpt>
            <trkpt lat="55.037000" lon="-7.652700">
                <time>2019-06-14T15:25:32Z</time>
            </trkpt>
            <trkpt lat="55.037020" lon="-7.652620">
                <time>2019-06-14T15:25:33Z</time>
            </trkpt>
            <trkpt lat="55.037030" lon="-7.652530">
                <time>2019-06-14T15:25:34Z</time>
            </trkpt>
            <trkpt lat="55.037050" lon="-7.652430">
                <time>2019-06-14T15:25:35Z</time>
            </trkpt>
            <trkpt lat="55.037050" lon="-7.652350">
                <time>2019-06-14T15:25:36Z</time>
            </trkpt>
            <trkpt lat="55.037060" lon="-7.652290">
                <time>2019-06-14T15:25:37Z</time>
            </trkpt>
            <trkpt lat="55.037060" lon="-7.652260">
                <time>2019-06-14T15:25:38Z</time>
            </trkpt>
            <trkpt lat="55.037070" lon="-7.652240">
                <time>2019-06-14T15:25:39Z</time>
            </trkpt>
            <trkpt lat="55.037070" lon="-7.652240">
                <time>2019-06-14T15:25:40Z</time>
            </trkpt>
            <trkpt lat="55.037070" lon="-7.652250">
                <time>2019-06-14T15:25:41Z</time>
            </trkpt>
            <trkpt lat="55.037080" lon="-7.652250">
                <time>2019-06-14T15:25:42Z</time>
            </trkpt>
            <trkpt lat="55.037080" lon="-7.652260">
                <time>2019-06-14T15:25:43Z</time>
            </trkpt>
            <trkpt lat="55.037080" lon="-7.652260">
                <time>2019-06-14T15:25:44Z</time>
            </trkpt>
            <trkpt lat="55.037080" lon="-7.652260">
                <time>2019-06-14T15:25:45Z</time>
            </trkpt>
            <trkpt lat="55.037080" lon="-7.652260">
                <time>2019-06-14T15:25:46Z</time>
            </trkpt>
            <trkpt lat="55.037080" lon="-7.652250">
                <time>2019-06-14T15:25:47Z</time>
            </trkpt>
            <trkpt lat="55.037080" lon="-7.652210">
                <time>2019-06-14T15:25:48Z</time>
            </trkpt>
            <trkpt lat="55.037070" lon="-7.652180">
                <time>2019-06-14T15:25:49Z</time>
            </trkpt>
            <trkpt lat="55.037050" lon="-7.652120">
                <time>2019-06-14T15:25:50Z</time>
            </trkpt>
            <trkpt lat="55.037020" lon="-7.652080">
                <time>2019-06-14T15:25:51Z</time>
            </trkpt>
            <trkpt lat="55.036990" lon="-7.652050">
                <time>2019-06-14T15:25:52Z</time>
            </trkpt>
            <trkpt lat="55.036960" lon="-7.652030">
                <time>2019-06-14T15:25:53Z</time>
            </trkpt>
            <trkpt lat="55.036910" lon="-7.651980">
                <time>2019-06-14T15:25:54Z</time>
            </trkpt>
            <trkpt lat="55.036870" lon="-7.651930">
                <time>2019-06-14T15:25:55Z</time>
            </trkpt>
            <trkpt lat="55.036840" lon="-7.651890">
                <time>2019-06-14T15:25:56Z</time>
            </trkpt>
            <trkpt lat="55.036810" lon="-7.651860">
                <time>2019-06-14T15:25:57Z</time>
            </trkpt>
            <trkpt lat="55.036780" lon="-7.651830">
                <time>2019-06-14T15:25:58Z</time>
            </trkpt>
            <trkpt lat="55.036760" lon="-7.651800">
                <time>2019-06-14T15:25:59Z</time>
            </trkpt>
            <trkpt lat="55.036730" lon="-7.651760">
                <time>2019-06-14T15:26:00Z</time>
            </trkpt>
            <trkpt lat="55.036720" lon="-7.651710">
                <time>2019-06-14T15:26:01Z</time>
            </trkpt>
            <trkpt lat="55.036710" lon="-7.651650">
                <time>2019-06-14T15:26:02Z</time>
            </trkpt>
            <trkpt lat="55.036710" lon="-7.651580">
                <time>2019-06-14T15:26:03Z</time>
            </trkpt>
            <trkpt lat="55.036710" lon="-7.651510">
                <time>2019-06-14T15:26:04Z</time>
            </trkpt>
            <trkpt lat="55.036720" lon="-7.651450">
                <time>2019-06-14T15:26:05Z</time>
            </trkpt>
            <trkpt lat="55.036730" lon="-7.651370">
                <time>2019-06-14T15:26:06Z</time>
            </trkpt>
            <trkpt lat="55.036740" lon="-7.651300">
                <time>2019-06-14T15:26:07Z</time>
            </trkpt>
            <trkpt lat="55.036750" lon="-7.651210">
                <time>2019-06-14T15:26:08Z</time>
            </trkpt>
            <trkpt lat="55.036760" lon="-7.651120">
                <time>2019-06-14T15:26:09Z</time>
            </trkpt>
            <trkpt lat="55.036760" lon="-7.651050">
                <time>2019-06-14T15:26:10Z</time>
            </trkpt>
            <trkpt lat="55.036770" lon="-7.650980">
                <time>2019-06-14T15:26:11Z</time>
            </trkpt>
            <trkpt lat="55.036780" lon="-7.650910">
                <time>2019-06-14T15:26:12Z</time>
            </trkpt>
            <trkpt lat="55.036790" lon="-7.650820">
                <time>2019-06-14T15:26:13Z</time>
            </trkpt>
            <trkpt lat="55.036790" lon="-7.650720">
                <time>2019-06-14T15:26:14Z</time>
            </trkpt>
            <trkpt lat="55.036800" lon="-7.650610">
                <time>2019-06-14T15:26:15Z</time>
            </trkpt>
            <trkpt lat="55.036820" lon="-7.650500">
                <time>2019-06-14T15:26:16Z</time>
            </trkpt>
            <trkpt lat="55.036830" lon="-7.650390">
                <time>2019-06-14T15:26:17Z</time>
            </trkpt>
            <trkpt lat="55.036830" lon="-7.650290">
                <time>2019-06-14T15:26:18Z</time>
            </trkpt>
            <trkpt lat="55.036840" lon="-7.650180">
                <time>2019-06-14T15:26:19Z</time>
            </trkpt>
            <trkpt lat="55.036840" lon="-7.650100">
                <time>2019-06-14T15:26:20Z</time>
            </trkpt>
            <trkpt lat="55.036850" lon="-7.650020">
                <time>2019-06-14T15:26:21Z</time>
            </trkpt>
            <trkpt lat="55.036860" lon="-7.649920">
                <time>2019-06-14T15:26:22Z</time>
            </trkpt>
            <trkpt lat="55.036860" lon="-7.649810">
                <time>2019-06-14T15:26:23Z</time>
            </trkpt>
            <trkpt lat="55.036870" lon="-7.649700">
                <time>2019-06-14T15:26:24Z</time>
            </trkpt>
            <trkpt lat="55.036890" lon="-7.649580">
                <time>2019-06-14T15:26:25Z</time>
            </trkpt>
            <trkpt lat="55.036900" lon="-7.649480">
                <time>2019-06-14T15:26:26Z</time>
            </trkpt>
            <trkpt lat="55.036910" lon="-7.649390">
                <time>2019-06-14T15:26:27Z</time>
            </trkpt>
            <trkpt lat="55.036910" lon="-7.649310">
                <time>2019-06-14T15:26:28Z</time>
            </trkpt>
            <trkpt lat="55.036890" lon="-7.649250">
                <time>2019-06-14T15:26:29Z</time>
            </trkpt>
            <trkpt lat="55.036860" lon="-7.649220">
                <time>2019-06-14T15:26:30Z</time>
            </trkpt>
            <trkpt lat="55.036810" lon="-7.649200">
                <time>2019-06-14T15:26:31Z</time>
            </trkpt>
            <trkpt lat="55.036760" lon="-7.649200">
                <time>2019-06-14T15:26:32Z</time>
            </trkpt>
            <trkpt lat="55.036700" lon="-7.649200">
                <time>2019-06-14T15:26:33Z</time>
            </trkpt>
            <trkpt lat="55.036630" lon="-7.649190">
                <time>2019-06-14T15:26:34Z</time>
            </trkpt>
            <trkpt lat="55.036560" lon="-7.649170">
                <time>2019-06-14T15:26:35Z</time>
            </trkpt>
            <trkpt lat="55.036470" lon="-7.649160">
                <time>2019-06-14T15:26:36Z</time>
            </trkpt>
            <trkpt lat="55.036380" lon="-7.649140">
                <time>2019-06-14T15:26:37Z</time>
            </trkpt>
            <trkpt lat="55.036300" lon="-7.649120">
                <time>2019-06-14T15:26:38Z</time>
            </trkpt>
            <trkpt lat="55.036230" lon="-7.649100">
                <time>2019-06-14T15:26:39Z</time>
            </trkpt>
            <trkpt lat="55.036150" lon="-7.649090">
                <time>2019-06-14T15:26:40Z</time>
            </trkpt>
            <trkpt lat="55.036070" lon="-7.649100">
                <time>2019-06-14T15:26:41Z</time>
            </trkpt>
            <trkpt lat="55.035990" lon="-7.649110">
                <time>2019-06-14T15:26:42Z</time>
            </trkpt>
            <trkpt lat="55.035910" lon="-7.649170">
                <time>2019-06-14T15:26:43Z</time>
            </trkpt>
            <trkpt lat="55.035840" lon="-7.649250">
                <time>2019-06-14T15:26:44Z</time>
            </trkpt>
            <trkpt lat="55.035770" lon="-7.649300">
                <time>2019-06-14T15:26:45Z</time>
            </trkpt>
            <trkpt lat="55.035680" lon="-7.649380">
                <time>2019-06-14T15:26:46Z</time>
            </trkpt>
            <trkpt lat="55.035600" lon="-7.649470">
                <time>2019-06-14T15:26:47Z</time>
            </trkpt>
            <trkpt lat="55.035500" lon="-7.649540">
                <time>2019-06-14T15:26:48Z</time>
            </trkpt>
            <trkpt lat="55.035410" lon="-7.649620">
                <time>2019-06-14T15:26:49Z</time>
            </trkpt>
            <trkpt lat="55.035320" lon="-7.649710">
                <time>2019-06-14T15:26:50Z</time>
            </trkpt>
            <trkpt lat="55.035230" lon="-7.649800">
                <time>2019-06-14T15:26:51Z</time>
            </trkpt>
            <trkpt lat="55.035130" lon="-7.649890">
                <time>2019-06-14T15:26:52Z</time>
            </trkpt>
            <trkpt lat="55.035030" lon="-7.649990">
                <time>2019-06-14T15:26:53Z</time>
            </trkpt>
            <trkpt lat="55.034920" lon="-7.650080">
                <time>2019-06-14T15:26:54Z</time>
            </trkpt>
            <trkpt lat="55.034820" lon="-7.650160">
                <time>2019-06-14T15:26:55Z</time>
            </trkpt>
            <trkpt lat="55.034720" lon="-7.650250">
                <time>2019-06-14T15:26:56Z</time>
            </trkpt>
            <trkpt lat="55.034620" lon="-7.650330">
                <time>2019-06-14T15:26:57Z</time>
            </trkpt>
            <trkpt lat="55.034520" lon="-7.650410">
                <time>2019-06-14T15:26:58Z</time>
            </trkpt>
            <trkpt lat="55.034400" lon="-7.650470">
                <time>2019-06-14T15:26:59Z</time>
            </trkpt>
            <trkpt lat="55.034290" lon="-7.650510">
                <time>2019-06-14T15:27:00Z</time>
            </trkpt>
            <trkpt lat="55.034160" lon="-7.650540">
                <time>2019-06-14T15:27:01Z</time>
            </trkpt>
            <trkpt lat="55.034040" lon="-7.650570">
                <time>2019-06-14T15:27:02Z</time>
            </trkpt>
            <trkpt lat="55.033920" lon="-7.650600">
                <time>2019-06-14T15:27:03Z</time>
            </trkpt>
            <trkpt lat="55.033810" lon="-7.650630">
                <time>2019-06-14T15:27:04Z</time>
            </trkpt>
            <trkpt lat="55.033700" lon="-7.650650">
                <time>2019-06-14T15:27:05Z</time>
            </trkpt>
            <trkpt lat="55.033590" lon="-7.650650">
                <time>2019-06-14T15:27:06Z</time>
            </trkpt>
            <trkpt lat="55.033470" lon="-7.650650">
                <time>2019-06-14T15:27:07Z</time>
            </trkpt>
            <trkpt lat="55.033350" lon="-7.650640">
                <time>2019-06-14T15:27:08Z</time>
            </trkpt>
            <trkpt lat="55.033210" lon="-7.650630">
                <time>2019-06-14T15:27:09Z</time>
            </trkpt>
            <trkpt lat="55.033080" lon="-7.650630">
                <time>2019-06-14T15:27:10Z</time>
            </trkpt>
            <trkpt lat="55.032950" lon="-7.650620">
                <time>2019-06-14T15:27:11Z</time>
            </trkpt>
            <trkpt lat="55.032810" lon="-7.650620">
                <time>2019-06-14T15:27:12Z</time>
            </trkpt>
            <trkpt lat="55.032680" lon="-7.650610">
                <time>2019-06-14T15:27:13Z</time>
            </trkpt>
            <trkpt lat="55.032560" lon="-7.650590">
                <time>2019-06-14T15:27:14Z</time>
            </trkpt>
            <trkpt lat="55.032440" lon="-7.650570">
                <time>2019-06-14T15:27:15Z</time>
            </trkpt>
            <trkpt lat="55.032320" lon="-7.650560">
                <time>2019-06-14T15:27:16Z</time>
            </trkpt>
            <trkpt lat="55.032200" lon="-7.650540">
                <time>2019-06-14T15:27:17Z</time>
            </trkpt>
            <trkpt lat="55.032090" lon="-7.650530">
                <time>2019-06-14T15:27:18Z</time>
            </trkpt>
            <trkpt lat="55.031980" lon="-7.650510">
                <time>2019-06-14T15:27:19Z</time>
            </trkpt>
            <trkpt lat="55.031870" lon="-7.650490">
                <time>2019-06-14T15:27:20Z</time>
            </trkpt>
            <trkpt lat="55.031760" lon="-7.650470">
                <time>2019-06-14T15:27:21Z</time>
            </trkpt>
            <trkpt lat="55.031640" lon="-7.650450">
                <time>2019-06-14T15:27:22Z</time>
            </trkpt>
            <trkpt lat="55.031530" lon="-7.650430">
                <time>2019-06-14T15:27:23Z</time>
            </trkpt>
            <trkpt lat="55.031410" lon="-7.650400">
                <time>2019-06-14T15:27:24Z</time>
            </trkpt>
            <trkpt lat="55.031290" lon="-7.650370">
                <time>2019-06-14T15:27:25Z</time>
            </trkpt>
            <trkpt lat="55.031170" lon="-7.650350">
                <time>2019-06-14T15:27:26Z</time>
            </trkpt>
            <trkpt lat="55.031040" lon="-7.650320">
                <time>2019-06-14T15:27:27Z</time>
            </trkpt>
            <trkpt lat="55.030900" lon="-7.650300">
                <time>2019-06-14T15:27:28Z</time>
            </trkpt>
            <trkpt lat="55.030750" lon="-7.650270">
                <time>2019-06-14T15:27:29Z</time>
            </trkpt>
            <trkpt lat="55.030620" lon="-7.650240">
                <time>2019-06-14T15:27:30Z</time>
            </trkpt>
            <trkpt lat="55.030490" lon="-7.650210">
                <time>2019-06-14T15:27:31Z</time>
            </trkpt>
            <trkpt lat="55.030360" lon="-7.650170">
                <time>2019-06-14T15:27:32Z</time>
            </trkpt>
            <trkpt lat="55.030220" lon="-7.650140">
                <time>2019-06-14T15:27:33Z</time>
            </trkpt>
            <trkpt lat="55.030080" lon="-7.650110">
                <time>2019-06-14T15:27:34Z</time>
            </trkpt>
            <trkpt lat="55.029930" lon="-7.650070">
                <time>2019-06-14T15:27:35Z</time>
            </trkpt>
            <trkpt lat="55.029780" lon="-7.650030">
                <time>2019-06-14T15:27:36Z</time>
            </trkpt>
            <trkpt lat="55.029630" lon="-7.649970">
                <time>2019-06-14T15:27:37Z</time>
            </trkpt>
            <trkpt lat="55.029490" lon="-7.649900">
                <time>2019-06-14T15:27:38Z</time>
            </trkpt>
            <trkpt lat="55.029360" lon="-7.649830">
                <time>2019-06-14T15:27:39Z</time>
            </trkpt>
            <trkpt lat="55.029230" lon="-7.649760">
                <time>2019-06-14T15:27:40Z</time>
            </trkpt>
            <trkpt lat="55.029100" lon="-7.649700">
                <time>2019-06-14T15:27:41Z</time>
            </trkpt>
            <trkpt lat="55.028960" lon="-7.649640">
                <time>2019-06-14T15:27:42Z</time>
            </trkpt>
            <trkpt lat="55.028820" lon="-7.649580">
                <time>2019-06-14T15:27:43Z</time>
            </trkpt>
            <trkpt lat="55.028680" lon="-7.649540">
                <time>2019-06-14T15:27:44Z</time>
            </trkpt>
            <trkpt lat="55.028530" lon="-7.649510">
                <time>2019-06-14T15:27:45Z</time>
            </trkpt>
            <trkpt lat="55.028390" lon="-7.649490">
                <time>2019-06-14T15:27:46Z</time>
            </trkpt>
            <trkpt lat="55.028230" lon="-7.649480">
                <time>2019-06-14T15:27:47Z</time>
            </trkpt>
            <trkpt lat="55.028080" lon="-7.649480">
                <time>2019-06-14T15:27:48Z</time>
            </trkpt>
            <trkpt lat="55.027940" lon="-7.649490">
                <time>2019-06-14T15:27:49Z</time>
            </trkpt>
            <trkpt lat="55.027800" lon="-7.649510">
                <time>2019-06-14T15:27:50Z</time>
            </trkpt>
            <trkpt lat="55.027660" lon="-7.649540">
                <time>2019-06-14T15:27:51Z</time>
            </trkpt>
            <trkpt lat="55.027520" lon="-7.649580">
                <time>2019-06-14T15:27:52Z</time>
            </trkpt>
            <trkpt lat="55.027380" lon="-7.649620">
                <time>2019-06-14T15:27:53Z</time>
            </trkpt>
            <trkpt lat="55.027230" lon="-7.649660">
                <time>2019-06-14T15:27:54Z</time>
            </trkpt>
            <trkpt lat="55.027090" lon="-7.649700">
                <time>2019-06-14T15:27:55Z</time>
            </trkpt>
            <trkpt lat="55.026950" lon="-7.649740">
                <time>2019-06-14T15:27:56Z</time>
            </trkpt>
            <trkpt lat="55.026810" lon="-7.649790">
                <time>2019-06-14T15:27:57Z</time>
            </trkpt>
            <trkpt lat="55.026690" lon="-7.649840">
                <time>2019-06-14T15:27:58Z</time>
            </trkpt>
            <trkpt lat="55.026570" lon="-7.649880">
                <time>2019-06-14T15:27:59Z</time>
            </trkpt>
            <trkpt lat="55.026450" lon="-7.649920">
                <time>2019-06-14T15:28:00Z</time>
            </trkpt>
            <trkpt lat="55.026320" lon="-7.649970">
                <time>2019-06-14T15:28:01Z</time>
            </trkpt>
            <trkpt lat="55.026190" lon="-7.650020">
                <time>2019-06-14T15:28:02Z</time>
            </trkpt>
            <trkpt lat="55.026050" lon="-7.650090">
                <time>2019-06-14T15:28:03Z</time>
            </trkpt>
            <trkpt lat="55.025910" lon="-7.650150">
                <time>2019-06-14T15:28:04Z</time>
            </trkpt>
            <trkpt lat="55.025760" lon="-7.650200">
                <time>2019-06-14T15:28:05Z</time>
            </trkpt>
            <trkpt lat="55.025630" lon="-7.650260">
                <time>2019-06-14T15:28:06Z</time>
            </trkpt>
            <trkpt lat="55.025500" lon="-7.650320">
                <time>2019-06-14T15:28:07Z</time>
            </trkpt>
            <trkpt lat="55.025370" lon="-7.650370">
                <time>2019-06-14T15:28:08Z</time>
            </trkpt>
            <trkpt lat="55.025230" lon="-7.650420">
                <time>2019-06-14T15:28:09Z</time>
            </trkpt>
            <trkpt lat="55.025080" lon="-7.650470">
                <time>2019-06-14T15:28:10Z</time>
            </trkpt>
            <trkpt lat="55.024940" lon="-7.650530">
                <time>2019-06-14T15:28:11Z</time>
            </trkpt>
            <trkpt lat="55.024790" lon="-7.650590">
                <time>2019-06-14T15:28:12Z</time>
            </trkpt>
            <trkpt lat="55.024640" lon="-7.650650">
                <time>2019-06-14T15:28:13Z</time>
            </trkpt>
            <trkpt lat="55.024490" lon="-7.650710">
                <time>2019-06-14T15:28:14Z</time>
            </trkpt>
            <trkpt lat="55.024340" lon="-7.650780">
                <time>2019-06-14T15:28:15Z</time>
            </trkpt>
            <trkpt lat="55.024180" lon="-7.650840">
                <time>2019-06-14T15:28:16Z</time>
            </trkpt>
            <trkpt lat="55.024030" lon="-7.650910">
                <time>2019-06-14T15:28:17Z</time>
            </trkpt>
            <trkpt lat="55.023870" lon="-7.650980">
                <time>2019-06-14T15:28:18Z</time>
            </trkpt>
            <trkpt lat="55.023710" lon="-7.651040">
                <time>2019-06-14T15:28:19Z</time>
            </trkpt>
            <trkpt lat="55.023550" lon="-7.651100">
                <time>2019-06-14T15:28:20Z</time>
            </trkpt>
            <trkpt lat="55.023380" lon="-7.651150">
                <time>2019-06-14T15:28:21Z</time>
            </trkpt>
            <trkpt lat="55.023220" lon="-7.651210">
                <time>2019-06-14T15:28:22Z</time>
            </trkpt>
            <trkpt lat="55.023070" lon="-7.651280">
                <time>2019-06-14T15:28:23Z</time>
            </trkpt>
            <trkpt lat="55.022920" lon="-7.651330">
                <time>2019-06-14T15:28:24Z</time>
            </trkpt>
            <trkpt lat="55.022770" lon="-7.651390">
                <time>2019-06-14T15:28:25Z</time>
            </trkpt>
            <trkpt lat="55.022620" lon="-7.651450">
                <time>2019-06-14T15:28:26Z</time>
            </trkpt>
            <trkpt lat="55.022460" lon="-7.651510">
                <time>2019-06-14T15:28:27Z</time>
            </trkpt>
            <trkpt lat="55.022310" lon="-7.651580">
                <time>2019-06-14T15:28:28Z</time>
            </trkpt>
            <trkpt lat="55.022160" lon="-7.651640">
                <time>2019-06-14T15:28:29Z</time>
            </trkpt>
            <trkpt lat="55.022010" lon="-7.651700">
                <time>2019-06-14T15:28:30Z</time>
            </trkpt>
            <trkpt lat="55.021870" lon="-7.651760">
                <time>2019-06-14T15:28:31Z</time>
            </trkpt>
            <trkpt lat="55.021710" lon="-7.651820">
                <time>2019-06-14T15:28:32Z</time>
            </trkpt>
            <trkpt lat="55.021540" lon="-7.651890">
                <time>2019-06-14T15:28:33Z</time>
            </trkpt>
            <trkpt lat="55.021380" lon="-7.651960">
                <time>2019-06-14T15:28:34Z</time>
            </trkpt>
            <trkpt lat="55.021210" lon="-7.652030">
                <time>2019-06-14T15:28:35Z</time>
            </trkpt>
            <trkpt lat="55.021040" lon="-7.652090">
                <time>2019-06-14T15:28:36Z</time>
            </trkpt>
            <trkpt lat="55.020870" lon="-7.652150">
                <time>2019-06-14T15:28:37Z</time>
            </trkpt>
            <trkpt lat="55.020720" lon="-7.652210">
                <time>2019-06-14T15:28:38Z</time>
            </trkpt>
            <trkpt lat="55.020560" lon="-7.652270">
                <time>2019-06-14T15:28:39Z</time>
            </trkpt>
            <trkpt lat="55.020410" lon="-7.652330">
                <time>2019-06-14T15:28:40Z</time>
            </trkpt>
            <trkpt lat="55.020260" lon="-7.652400">
                <time>2019-06-14T15:28:41Z</time>
            </trkpt>
            <trkpt lat="55.020100" lon="-7.652460">
                <time>2019-06-14T15:28:42Z</time>
            </trkpt>
            <trkpt lat="55.019940" lon="-7.652520">
                <time>2019-06-14T15:28:43Z</time>
            </trkpt>
            <trkpt lat="55.019780" lon="-7.652580">
                <time>2019-06-14T15:28:44Z</time>
            </trkpt>
            <trkpt lat="55.019630" lon="-7.652650">
                <time>2019-06-14T15:28:45Z</time>
            </trkpt>
            <trkpt lat="55.019470" lon="-7.652710">
                <time>2019-06-14T15:28:46Z</time>
            </trkpt>
            <trkpt lat="55.019320" lon="-7.652780">
                <time>2019-06-14T15:28:47Z</time>
            </trkpt>
            <trkpt lat="55.019170" lon="-7.652830">
                <time>2019-06-14T15:28:48Z</time>
            </trkpt>
            <trkpt lat="55.019030" lon="-7.652890">
                <time>2019-06-14T15:28:49Z</time>
            </trkpt>
            <trkpt lat="55.018890" lon="-7.652960">
                <time>2019-06-14T15:28:50Z</time>
            </trkpt>
            <trkpt lat="55.018750" lon="-7.653040">
                <time>2019-06-14T15:28:51Z</time>
            </trkpt>
            <trkpt lat="55.018610" lon="-7.653120">
                <time>2019-06-14T15:28:52Z</time>
            </trkpt>
            <trkpt lat="55.018460" lon="-7.653190">
                <time>2019-06-14T15:28:53Z</time>
            </trkpt>
            <trkpt lat="55.018320" lon="-7.653250">
                <time>2019-06-14T15:28:54Z</time>
            </trkpt>
            <trkpt lat="55.018170" lon="-7.653320">
                <time>2019-06-14T15:28:55Z</time>
            </trkpt>
            <trkpt lat="55.018020" lon="-7.653390">
                <time>2019-06-14T15:28:56Z</time>
            </trkpt>
            <trkpt lat="55.017860" lon="-7.653450">
                <time>2019-06-14T15:28:57Z</time>
            </trkpt>
            <trkpt lat="55.017700" lon="-7.653520">
                <time>2019-06-14T15:28:58Z</time>
            </trkpt>
            <trkpt lat="55.017530" lon="-7.653590">
                <time>2019-06-14T15:28:59Z</time>
            </trkpt>
            <trkpt lat="55.017370" lon="-7.653660">
                <time>2019-06-14T15:29:00Z</time>
            </trkpt>
            <trkpt lat="55.017190" lon="-7.653730">
                <time>2019-06-14T15:29:01Z</time>
            </trkpt>
            <trkpt lat="55.017030" lon="-7.653800">
                <time>2019-06-14T15:29:02Z</time>
            </trkpt>
            <trkpt lat="55.016860" lon="-7.653870">
                <time>2019-06-14T15:29:03Z</time>
            </trkpt>
            <trkpt lat="55.016680" lon="-7.653940">
                <time>2019-06-14T15:29:04Z</time>
            </trkpt>
            <trkpt lat="55.016500" lon="-7.654010">
                <time>2019-06-14T15:29:05Z</time>
            </trkpt>
            <trkpt lat="55.016320" lon="-7.654080">
                <time>2019-06-14T15:29:06Z</time>
            </trkpt>
            <trkpt lat="55.016140" lon="-7.654160">
                <time>2019-06-14T15:29:07Z</time>
            </trkpt>
            <trkpt lat="55.015950" lon="-7.654230">
                <time>2019-06-14T15:29:08Z</time>
            </trkpt>
            <trkpt lat="55.015770" lon="-7.654310">
                <time>2019-06-14T15:29:09Z</time>
            </trkpt>
            <trkpt lat="55.015610" lon="-7.654380">
                <time>2019-06-14T15:29:10Z</time>
            </trkpt>
            <trkpt lat="55.015440" lon="-7.654450">
                <time>2019-06-14T15:29:11Z</time>
            </trkpt>
            <trkpt lat="55.015280" lon="-7.654520">
                <time>2019-06-14T15:29:12Z</time>
            </trkpt>
            <trkpt lat="55.015110" lon="-7.654600">
                <time>2019-06-14T15:29:13Z</time>
            </trkpt>
            <trkpt lat="55.014930" lon="-7.654660">
                <time>2019-06-14T15:29:14Z</time>
            </trkpt>
            <trkpt lat="55.014760" lon="-7.654740">
                <time>2019-06-14T15:29:15Z</time>
            </trkpt>
            <trkpt lat="55.014600" lon="-7.654800">
                <time>2019-06-14T15:29:16Z</time>
            </trkpt>
            <trkpt lat="55.014450" lon="-7.654870">
                <time>2019-06-14T15:29:17Z</time>
            </trkpt>
            <trkpt lat="55.014290" lon="-7.654940">
                <time>2019-06-14T15:29:18Z</time>
            </trkpt>
            <trkpt lat="55.014150" lon="-7.655000">
                <time>2019-06-14T15:29:19Z</time>
            </trkpt>
            <trkpt lat="55.014010" lon="-7.655060">
                <time>2019-06-14T15:29:20Z</time>
            </trkpt>
            <trkpt lat="55.013880" lon="-7.655110">
                <time>2019-06-14T15:29:21Z</time>
            </trkpt>
            <trkpt lat="55.013740" lon="-7.655160">
                <time>2019-06-14T15:29:22Z</time>
            </trkpt>
            <trkpt lat="55.013610" lon="-7.655220">
                <time>2019-06-14T15:29:23Z</time>
            </trkpt>
            <trkpt lat="55.013480" lon="-7.655270">
                <time>2019-06-14T15:29:24Z</time>
            </trkpt>
            <trkpt lat="55.013350" lon="-7.655330">
                <time>2019-06-14T15:29:25Z</time>
            </trkpt>
            <trkpt lat="55.013210" lon="-7.655390">
                <time>2019-06-14T15:29:26Z</time>
            </trkpt>
            <trkpt lat="55.013080" lon="-7.655450">
                <time>2019-06-14T15:29:27Z</time>
            </trkpt>
            <trkpt lat="55.012950" lon="-7.655500">
                <time>2019-06-14T15:29:28Z</time>
            </trkpt>
            <trkpt lat="55.012820" lon="-7.655550">
                <time>2019-06-14T15:29:29Z</time>
            </trkpt>
            <trkpt lat="55.012690" lon="-7.655610">
                <time>2019-06-14T15:29:30Z</time>
            </trkpt>
            <trkpt lat="55.012540" lon="-7.655670">
                <time>2019-06-14T15:29:31Z</time>
            </trkpt>
            <trkpt lat="55.012390" lon="-7.655730">
                <time>2019-06-14T15:29:32Z</time>
            </trkpt>
            <trkpt lat="55.012240" lon="-7.655780">
                <time>2019-06-14T15:29:33Z</time>
            </trkpt>
            <trkpt lat="55.012100" lon="-7.655830">
                <time>2019-06-14T15:29:34Z</time>
            </trkpt>
            <trkpt lat="55.011970" lon="-7.655870">
                <time>2019-06-14T15:29:35Z</time>
            </trkpt>
            <trkpt lat="55.011830" lon="-7.655890">
                <time>2019-06-14T15:29:36Z</time>
            </trkpt>
            <trkpt lat="55.011690" lon="-7.655890">
                <time>2019-06-14T15:29:37Z</time>
            </trkpt>
            <trkpt lat="55.011540" lon="-7.655880">
                <time>2019-06-14T15:29:38Z</time>
            </trkpt>
            <trkpt lat="55.011390" lon="-7.655860">
                <time>2019-06-14T15:29:39Z</time>
            </trkpt>
            <trkpt lat="55.011260" lon="-7.655840">
                <time>2019-06-14T15:29:40Z</time>
            </trkpt>
            <trkpt lat="55.011130" lon="-7.655820">
                <time>2019-06-14T15:29:41Z</time>
            </trkpt>
            <trkpt lat="55.010990" lon="-7.655820">
                <time>2019-06-14T15:29:42Z</time>
            </trkpt>
            <trkpt lat="55.010840" lon="-7.655840">
                <time>2019-06-14T15:29:43Z</time>
            </trkpt>
            <trkpt lat="55.010680" lon="-7.655870">
                <time>2019-06-14T15:29:44Z</time>
            </trkpt>
            <trkpt lat="55.010520" lon="-7.655930">
                <time>2019-06-14T15:29:45Z</time>
            </trkpt>
            <trkpt lat="55.010350" lon="-7.656010">
                <time>2019-06-14T15:29:46Z</time>
            </trkpt>
            <trkpt lat="55.010180" lon="-7.656100">
                <time>2019-06-14T15:29:47Z</time>
            </trkpt>
            <trkpt lat="55.010010" lon="-7.656190">
                <time>2019-06-14T15:29:48Z</time>
            </trkpt>
            <trkpt lat="55.009850" lon="-7.656290">
                <time>2019-06-14T15:29:49Z</time>
            </trkpt>
            <trkpt lat="55.009700" lon="-7.656380">
                <time>2019-06-14T15:29:50Z</time>
            </trkpt>
            <trkpt lat="55.009540" lon="-7.656480">
                <time>2019-06-14T15:29:51Z</time>
            </trkpt>
            <trkpt lat="55.009390" lon="-7.656570">
                <time>2019-06-14T15:29:52Z</time>
            </trkpt>
            <trkpt lat="55.009250" lon="-7.656660">
                <time>2019-06-14T15:29:53Z</time>
            </trkpt>
            <trkpt lat="55.009120" lon="-7.656750">
                <time>2019-06-14T15:29:54Z</time>
            </trkpt>
            <trkpt lat="55.008990" lon="-7.656840">
                <time>2019-06-14T15:29:55Z</time>
            </trkpt>
            <trkpt lat="55.008850" lon="-7.656930">
                <time>2019-06-14T15:29:56Z</time>
            </trkpt>
            <trkpt lat="55.008720" lon="-7.657040">
                <time>2019-06-14T15:29:57Z</time>
            </trkpt>
            <trkpt lat="55.008580" lon="-7.657150">
                <time>2019-06-14T15:29:58Z</time>
            </trkpt>
            <trkpt lat="55.008430" lon="-7.657260">
                <time>2019-06-14T15:29:59Z</time>
            </trkpt>
            <trkpt lat="55.008280" lon="-7.657370">
                <time>2019-06-14T15:30:00Z</time>
            </trkpt>
            <trkpt lat="55.008130" lon="-7.657480">
                <time>2019-06-14T15:30:01Z</time>
            </trkpt>
            <trkpt lat="55.007970" lon="-7.657560">
                <time>2019-06-14T15:30:02Z</time>
            </trkpt>
            <trkpt lat="55.007820" lon="-7.657620">
                <time>2019-06-14T15:30:03Z</time>
            </trkpt>
            <trkpt lat="55.007680" lon="-7.657680">
                <time>2019-06-14T15:30:04Z</time>
            </trkpt>
            <trkpt lat="55.007520" lon="-7.657740">
                <time>2019-06-14T15:30:05Z</time>
            </trkpt>
            <trkpt lat="55.007360" lon="-7.657800">
                <time>2019-06-14T15:30:06Z</time>
            </trkpt>
            <trkpt lat="55.007190" lon="-7.657860">
                <time>2019-06-14T15:30:07Z</time>
            </trkpt>
            <trkpt lat="55.007030" lon="-7.657930">
                <time>2019-06-14T15:30:08Z</time>
            </trkpt>
            <trkpt lat="55.006870" lon="-7.658000">
                <time>2019-06-14T15:30:09Z</time>
            </trkpt>
            <trkpt lat="55.006710" lon="-7.658060">
                <time>2019-06-14T15:30:10Z</time>
            </trkpt>
            <trkpt lat="55.006540" lon="-7.658130">
                <time>2019-06-14T15:30:11Z</time>
            </trkpt>
            <trkpt lat="55.006350" lon="-7.658210">
                <time>2019-06-14T15:30:12Z</time>
            </trkpt>
            <trkpt lat="55.006150" lon="-7.658290">
                <time>2019-06-14T15:30:13Z</time>
            </trkpt>
            <trkpt lat="55.005940" lon="-7.658380">
                <time>2019-06-14T15:30:14Z</time>
            </trkpt>
            <trkpt lat="55.005740" lon="-7.658460">
                <time>2019-06-14T15:30:15Z</time>
            </trkpt>
            <trkpt lat="55.005550" lon="-7.658530">
                <time>2019-06-14T15:30:16Z</time>
            </trkpt>
            <trkpt lat="55.005380" lon="-7.658610">
                <time>2019-06-14T15:30:17Z</time>
            </trkpt>
            <trkpt lat="55.005220" lon="-7.658680">
                <time>2019-06-14T15:30:18Z</time>
            </trkpt>
            <trkpt lat="55.005060" lon="-7.658740">
                <time>2019-06-14T15:30:19Z</time>
            </trkpt>
            <trkpt lat="55.004910" lon="-7.658800">
                <time>2019-06-14T15:30:20Z</time>
            </trkpt>
            <trkpt lat="55.004770" lon="-7.658850">
                <time>2019-06-14T15:30:21Z</time>
            </trkpt>
            <trkpt lat="55.004660" lon="-7.658900">
                <time>2019-06-14T15:30:22Z</time>
            </trkpt>
            <trkpt lat="55.004540" lon="-7.658950">
                <time>2019-06-14T15:30:23Z</time>
            </trkpt>
            <trkpt lat="55.004440" lon="-7.659000">
                <time>2019-06-14T15:30:24Z</time>
            </trkpt>
            <trkpt lat="55.004330" lon="-7.659050">
                <time>2019-06-14T15:30:25Z</time>
            </trkpt>
            <trkpt lat="55.004230" lon="-7.659090">
                <time>2019-06-14T15:30:26Z</time>
            </trkpt>
            <trkpt lat="55.004110" lon="-7.659130">
                <time>2019-06-14T15:30:27Z</time>
            </trkpt>
            <trkpt lat="55.004000" lon="-7.659180">
                <time>2019-06-14T15:30:28Z</time>
            </trkpt>
            <trkpt lat="55.003910" lon="-7.659220">
                <time>2019-06-14T15:30:29Z</time>
            </trkpt>
            <trkpt lat="55.003810" lon="-7.659260">
                <time>2019-06-14T15:30:30Z</time>
            </trkpt>
            <trkpt lat="55.003710" lon="-7.659300">
                <time>2019-06-14T15:30:31Z</time>
            </trkpt>
            <trkpt lat="55.003620" lon="-7.659340">
                <time>2019-06-14T15:30:32Z</time>
            </trkpt>
            <trkpt lat="55.003530" lon="-7.659380">
                <time>2019-06-14T15:30:33Z</time>
            </trkpt>
            <trkpt lat="55.003430" lon="-7.659420">
                <time>2019-06-14T15:30:34Z</time>
            </trkpt>
            <trkpt lat="55.003320" lon="-7.659460">
                <time>2019-06-14T15:30:35Z</time>
            </trkpt>
            <trkpt lat="55.003220" lon="-7.659500">
                <time>2019-06-14T15:30:36Z</time>
            </trkpt>
            <trkpt lat="55.003120" lon="-7.659540">
                <time>2019-06-14T15:30:37Z</time>
            </trkpt>
            <trkpt lat="55.003030" lon="-7.659590">
                <time>2019-06-14T15:30:38Z</time>
            </trkpt>
            <trkpt lat="55.002940" lon="-7.659630">
                <time>2019-06-14T15:30:39Z</time>
            </trkpt>
            <trkpt lat="55.002840" lon="-7.659670">
                <time>2019-06-14T15:30:40Z</time>
            </trkpt>
            <trkpt lat="55.002740" lon="-7.659700">
                <time>2019-06-14T15:30:41Z</time>
            </trkpt>
            <trkpt lat="55.002630" lon="-7.659750">
                <time>2019-06-14T15:30:42Z</time>
            </trkpt>
            <trkpt lat="55.002530" lon="-7.659790">
                <time>2019-06-14T15:30:43Z</time>
            </trkpt>
            <trkpt lat="55.002420" lon="-7.659840">
                <time>2019-06-14T15:30:44Z</time>
            </trkpt>
            <trkpt lat="55.002310" lon="-7.659880">
                <time>2019-06-14T15:30:45Z</time>
            </trkpt>
            <trkpt lat="55.002210" lon="-7.659930">
                <time>2019-06-14T15:30:46Z</time>
            </trkpt>
            <trkpt lat="55.002110" lon="-7.659980">
                <time>2019-06-14T15:30:47Z</time>
            </trkpt>
            <trkpt lat="55.002000" lon="-7.660020">
                <time>2019-06-14T15:30:48Z</time>
            </trkpt>
            <trkpt lat="55.001900" lon="-7.660070">
                <time>2019-06-14T15:30:49Z</time>
            </trkpt>
            <trkpt lat="55.001790" lon="-7.660110">
                <time>2019-06-14T15:30:50Z</time>
            </trkpt>
            <trkpt lat="55.001670" lon="-7.660170">
                <time>2019-06-14T15:30:51Z</time>
            </trkpt>
            <trkpt lat="55.001550" lon="-7.660210">
                <time>2019-06-14T15:30:52Z</time>
            </trkpt>
            <trkpt lat="55.001440" lon="-7.660260">
                <time>2019-06-14T15:30:53Z</time>
            </trkpt>
            <trkpt lat="55.001330" lon="-7.660300">
                <time>2019-06-14T15:30:54Z</time>
            </trkpt>
            <trkpt lat="55.001230" lon="-7.660340">
                <time>2019-06-14T15:30:55Z</time>
            </trkpt>
            <trkpt lat="55.001120" lon="-7.660390">
                <time>2019-06-14T15:30:56Z</time>
            </trkpt>
            <trkpt lat="55.000990" lon="-7.660450">
                <time>2019-06-14T15:30:57Z</time>
            </trkpt>
            <trkpt lat="55.000860" lon="-7.660510">
                <time>2019-06-14T15:30:58Z</time>
            </trkpt>
            <trkpt lat="55.000720" lon="-7.660570">
                <time>2019-06-14T15:30:59Z</time>
            </trkpt>
            <trkpt lat="55.000590" lon="-7.660630">
                <time>2019-06-14T15:31:00Z</time>
            </trkpt>
            <trkpt lat="55.000480" lon="-7.660680">
                <time>2019-06-14T15:31:01Z</time>
            </trkpt>
            <trkpt lat="55.000370" lon="-7.660720">
                <time>2019-06-14T15:31:02Z</time>
            </trkpt>
            <trkpt lat="55.000270" lon="-7.660770">
                <time>2019-06-14T15:31:03Z</time>
            </trkpt>
            <trkpt lat="55.000160" lon="-7.660810">
                <time>2019-06-14T15:31:04Z</time>
            </trkpt>
            <trkpt lat="55.000050" lon="-7.660850">
                <time>2019-06-14T15:31:05Z</time>
            </trkpt>
            <trkpt lat="54.999920" lon="-7.660900">
                <time>2019-06-14T15:31:06Z</time>
            </trkpt>
            <trkpt lat="54.999780" lon="-7.660960">
                <time>2019-06-14T15:31:07Z</time>
            </trkpt>
            <trkpt lat="54.999640" lon="-7.661010">
                <time>2019-06-14T15:31:08Z</time>
            </trkpt>
            <trkpt lat="54.999510" lon="-7.661070">
                <time>2019-06-14T15:31:09Z</time>
            </trkpt>
            <trkpt lat="54.999370" lon="-7.661140">
                <time>2019-06-14T15:31:10Z</time>
            </trkpt>
            <trkpt lat="54.999200" lon="-7.661230">
                <time>2019-06-14T15:31:11Z</time>
            </trkpt>
            <trkpt lat="54.999000" lon="-7.661320">
                <time>2019-06-14T15:31:12Z</time>
            </trkpt>
            <trkpt lat="54.998760" lon="-7.661420">
                <time>2019-06-14T15:31:13Z</time>
            </trkpt>
            <trkpt lat="54.998510" lon="-7.661530">
                <time>2019-06-14T15:31:14Z</time>
            </trkpt>
            <trkpt lat="54.998280" lon="-7.661620">
                <time>2019-06-14T15:31:15Z</time>
            </trkpt>
            <trkpt lat="54.998080" lon="-7.661680">
                <time>2019-06-14T15:31:16Z</time>
            </trkpt>
            <trkpt lat="54.997910" lon="-7.661750">
                <time>2019-06-14T15:31:17Z</time>
            </trkpt>
            <trkpt lat="54.997760" lon="-7.661810">
                <time>2019-06-14T15:31:18Z</time>
            </trkpt>
            <trkpt lat="54.997620" lon="-7.661870">
                <time>2019-06-14T15:31:19Z</time>
            </trkpt>
            <trkpt lat="54.997490" lon="-7.661920">
                <time>2019-06-14T15:31:20Z</time>
            </trkpt>
            <trkpt lat="54.997370" lon="-7.661980">
                <time>2019-06-14T15:31:21Z</time>
            </trkpt>
            <trkpt lat="54.997230" lon="-7.662030">
                <time>2019-06-14T15:31:22Z</time>
            </trkpt>
            <trkpt lat="54.997100" lon="-7.662080">
                <time>2019-06-14T15:31:23Z</time>
            </trkpt>
            <trkpt lat="54.996950" lon="-7.662140">
                <time>2019-06-14T15:31:24Z</time>
            </trkpt>
            <trkpt lat="54.996810" lon="-7.662190">
                <time>2019-06-14T15:31:25Z</time>
            </trkpt>
            <trkpt lat="54.996670" lon="-7.662240">
                <time>2019-06-14T15:31:26Z</time>
            </trkpt>
            <trkpt lat="54.996540" lon="-7.662280">
                <time>2019-06-14T15:31:27Z</time>
            </trkpt>
            <trkpt lat="54.996410" lon="-7.662330">
                <time>2019-06-14T15:31:28Z</time>
            </trkpt>
            <trkpt lat="54.996290" lon="-7.662380">
                <time>2019-06-14T15:31:29Z</time>
            </trkpt>
            <trkpt lat="54.996160" lon="-7.662430">
                <time>2019-06-14T15:31:30Z</time>
            </trkpt>
            <trkpt lat="54.996030" lon="-7.662480">
                <time>2019-06-14T15:31:31Z</time>
            </trkpt>
            <trkpt lat="54.995900" lon="-7.662540">
                <time>2019-06-14T15:31:32Z</time>
            </trkpt>
            <trkpt lat="54.995760" lon="-7.662590">
                <time>2019-06-14T15:31:33Z</time>
            </trkpt>
            <trkpt lat="54.995640" lon="-7.662650">
                <time>2019-06-14T15:31:34Z</time>
            </trkpt>
            <trkpt lat="54.995520" lon="-7.662700">
                <time>2019-06-14T15:31:35Z</time>
            </trkpt>
            <trkpt lat="54.995410" lon="-7.662740">
                <time>2019-06-14T15:31:36Z</time>
            </trkpt>
            <trkpt lat="54.995290" lon="-7.662790">
                <time>2019-06-14T15:31:37Z</time>
            </trkpt>
            <trkpt lat="54.995180" lon="-7.662840">
                <time>2019-06-14T15:31:38Z</time>
            </trkpt>
            <trkpt lat="54.995070" lon="-7.662890">
                <time>2019-06-14T15:31:39Z</time>
            </trkpt>
            <trkpt lat="54.994960" lon="-7.662940">
                <time>2019-06-14T15:31:40Z</time>
            </trkpt>
            <trkpt lat="54.994860" lon="-7.662980">
                <time>2019-06-14T15:31:41Z</time>
            </trkpt>
            <trkpt lat="54.994770" lon="-7.663010">
                <time>2019-06-14T15:31:42Z</time>
            </trkpt>
            <trkpt lat="54.994670" lon="-7.663050">
                <time>2019-06-14T15:31:43Z</time>
            </trkpt>
            <trkpt lat="54.994570" lon="-7.663100">
                <time>2019-06-14T15:31:44Z</time>
            </trkpt>
            <trkpt lat="54.994470" lon="-7.663150">
                <time>2019-06-14T15:31:45Z</time>
            </trkpt>
            <trkpt lat="54.994360" lon="-7.663190">
                <time>2019-06-14T15:31:46Z</time>
            </trkpt>
            <trkpt lat="54.994260" lon="-7.663240">
                <time>2019-06-14T15:31:47Z</time>
            </trkpt>
            <trkpt lat="54.994150" lon="-7.663290">
                <time>2019-06-14T15:31:48Z</time>
            </trkpt>
            <trkpt lat="54.994030" lon="-7.663340">
                <time>2019-06-14T15:31:49Z</time>
            </trkpt>
            <trkpt lat="54.993900" lon="-7.663400">
                <time>2019-06-14T15:31:50Z</time>
            </trkpt>
            <trkpt lat="54.993770" lon="-7.663460">
                <time>2019-06-14T15:31:51Z</time>
            </trkpt>
            <trkpt lat="54.993650" lon="-7.663510">
                <time>2019-06-14T15:31:52Z</time>
            </trkpt>
            <trkpt lat="54.993530" lon="-7.663560">
                <time>2019-06-14T15:31:53Z</time>
            </trkpt>
            <trkpt lat="54.993410" lon="-7.663600">
                <time>2019-06-14T15:31:54Z</time>
            </trkpt>
            <trkpt lat="54.993300" lon="-7.663650">
                <time>2019-06-14T15:31:55Z</time>
            </trkpt>
            <trkpt lat="54.993180" lon="-7.663700">
                <time>2019-06-14T15:31:56Z</time>
            </trkpt>
            <trkpt lat="54.993050" lon="-7.663750">
                <time>2019-06-14T15:31:57Z</time>
            </trkpt>
            <trkpt lat="54.992920" lon="-7.663810">
                <time>2019-06-14T15:31:58Z</time>
            </trkpt>
            <trkpt lat="54.992780" lon="-7.663870">
                <time>2019-06-14T15:31:59Z</time>
            </trkpt>
            <trkpt lat="54.992650" lon="-7.663930">
                <time>2019-06-14T15:32:00Z</time>
            </trkpt>
            <trkpt lat="54.992500" lon="-7.664000">
                <time>2019-06-14T15:32:01Z</time>
            </trkpt>
            <trkpt lat="54.992350" lon="-7.664080">
                <time>2019-06-14T15:32:02Z</time>
            </trkpt>
            <trkpt lat="54.992180" lon="-7.664160">
                <time>2019-06-14T15:32:03Z</time>
            </trkpt>
            <trkpt lat="54.992010" lon="-7.664240">
                <time>2019-06-14T15:32:04Z</time>
            </trkpt>
            <trkpt lat="54.991850" lon="-7.664320">
                <time>2019-06-14T15:32:05Z</time>
            </trkpt>
            <trkpt lat="54.991700" lon="-7.664390">
                <time>2019-06-14T15:32:06Z</time>
            </trkpt>
            <trkpt lat="54.991540" lon="-7.664470">
                <time>2019-06-14T15:32:07Z</time>
            </trkpt>
            <trkpt lat="54.991390" lon="-7.664530">
                <time>2019-06-14T15:32:08Z</time>
            </trkpt>
            <trkpt lat="54.991230" lon="-7.664600">
                <time>2019-06-14T15:32:09Z</time>
            </trkpt>
            <trkpt lat="54.991030" lon="-7.664660">
                <time>2019-06-14T15:32:10Z</time>
            </trkpt>
            <trkpt lat="54.990800" lon="-7.664750">
                <time>2019-06-14T15:32:11Z</time>
            </trkpt>
            <trkpt lat="54.990570" lon="-7.664840">
                <time>2019-06-14T15:32:12Z</time>
            </trkpt>
            <trkpt lat="54.990340" lon="-7.664930">
                <time>2019-06-14T15:32:13Z</time>
            </trkpt>
            <trkpt lat="54.990130" lon="-7.665030">
                <time>2019-06-14T15:32:14Z</time>
            </trkpt>
            <trkpt lat="54.989930" lon="-7.665140">
                <time>2019-06-14T15:32:15Z</time>
            </trkpt>
            <trkpt lat="54.989740" lon="-7.665270">
                <time>2019-06-14T15:32:16Z</time>
            </trkpt>
            <trkpt lat="54.989560" lon="-7.665400">
                <time>2019-06-14T15:32:17Z</time>
            </trkpt>
            <trkpt lat="54.989370" lon="-7.665550">
                <time>2019-06-14T15:32:18Z</time>
            </trkpt>
            <trkpt lat="54.989190" lon="-7.665710">
                <time>2019-06-14T15:32:19Z</time>
            </trkpt>
            <trkpt lat="54.989020" lon="-7.665870">
                <time>2019-06-14T15:32:20Z</time>
            </trkpt>
            <trkpt lat="54.988850" lon="-7.666060">
                <time>2019-06-14T15:32:21Z</time>
            </trkpt>
            <trkpt lat="54.988660" lon="-7.666270">
                <time>2019-06-14T15:32:22Z</time>
            </trkpt>
            <trkpt lat="54.988470" lon="-7.666500">
                <time>2019-06-14T15:32:23Z</time>
            </trkpt>
            <trkpt lat="54.988290" lon="-7.666730">
                <time>2019-06-14T15:32:24Z</time>
            </trkpt>
            <trkpt lat="54.988120" lon="-7.666970">
                <time>2019-06-14T15:32:25Z</time>
            </trkpt>
            <trkpt lat="54.987960" lon="-7.667210">
                <time>2019-06-14T15:32:26Z</time>
            </trkpt>
            <trkpt lat="54.987820" lon="-7.667430">
                <time>2019-06-14T15:32:27Z</time>
            </trkpt>
            <trkpt lat="54.987690" lon="-7.667650">
                <time>2019-06-14T15:32:28Z</time>
            </trkpt>
            <trkpt lat="54.987570" lon="-7.667860">
                <time>2019-06-14T15:32:29Z</time>
            </trkpt>
            <trkpt lat="54.987430" lon="-7.668080">
                <time>2019-06-14T15:32:30Z</time>
            </trkpt>
            <trkpt lat="54.987300" lon="-7.668300">
                <time>2019-06-14T15:32:31Z</time>
            </trkpt>
            <trkpt lat="54.987170" lon="-7.668520">
                <time>2019-06-14T15:32:32Z</time>
            </trkpt>
            <trkpt lat="54.987060" lon="-7.668710">
                <time>2019-06-14T15:32:33Z</time>
            </trkpt>
            <trkpt lat="54.986950" lon="-7.668880">
                <time>2019-06-14T15:32:34Z</time>
            </trkpt>
            <trkpt lat="54.986850" lon="-7.669030">
                <time>2019-06-14T15:32:35Z</time>
            </trkpt>
            <trkpt lat="54.986740" lon="-7.669180">
                <time>2019-06-14T15:32:36Z</time>
            </trkpt>
            <trkpt lat="54.986620" lon="-7.669330">
                <time>2019-06-14T15:32:37Z</time>
            </trkpt>
            <trkpt lat="54.986490" lon="-7.669480">
                <time>2019-06-14T15:32:38Z</time>
            </trkpt>
            <trkpt lat="54.986360" lon="-7.669630">
                <time>2019-06-14T15:32:39Z</time>
            </trkpt>
            <trkpt lat="54.986200" lon="-7.669770">
                <time>2019-06-14T15:32:40Z</time>
            </trkpt>
            <trkpt lat="54.986060" lon="-7.669900">
                <time>2019-06-14T15:32:41Z</time>
            </trkpt>
            <trkpt lat="54.985900" lon="-7.670030">
                <time>2019-06-14T15:32:42Z</time>
            </trkpt>
            <trkpt lat="54.985730" lon="-7.670170">
                <time>2019-06-14T15:32:43Z</time>
            </trkpt>
            <trkpt lat="54.985560" lon="-7.670320">
                <time>2019-06-14T15:32:44Z</time>
            </trkpt>
            <trkpt lat="54.985390" lon="-7.670490">
                <time>2019-06-14T15:32:45Z</time>
            </trkpt>
            <trkpt lat="54.985230" lon="-7.670660">
                <time>2019-06-14T15:32:46Z</time>
            </trkpt>
            <trkpt lat="54.985090" lon="-7.670820">
                <time>2019-06-14T15:32:47Z</time>
            </trkpt>
            <trkpt lat="54.984950" lon="-7.670980">
                <time>2019-06-14T15:32:48Z</time>
            </trkpt>
            <trkpt lat="54.984810" lon="-7.671150">
                <time>2019-06-14T15:32:49Z</time>
            </trkpt>
            <trkpt lat="54.984660" lon="-7.671310">
                <time>2019-06-14T15:32:50Z</time>
            </trkpt>
            <trkpt lat="54.984520" lon="-7.671480">
                <time>2019-06-14T15:32:51Z</time>
            </trkpt>
            <trkpt lat="54.984370" lon="-7.671650">
                <time>2019-06-14T15:32:52Z</time>
            </trkpt>
            <trkpt lat="54.984220" lon="-7.671830">
                <time>2019-06-14T15:32:53Z</time>
            </trkpt>
            <trkpt lat="54.984070" lon="-7.672000">
                <time>2019-06-14T15:32:54Z</time>
            </trkpt>
            <trkpt lat="54.983920" lon="-7.672180">
                <time>2019-06-14T15:32:55Z</time>
            </trkpt>
            <trkpt lat="54.983770" lon="-7.672350">
                <time>2019-06-14T15:32:56Z</time>
            </trkpt>
            <trkpt lat="54.983610" lon="-7.672530">
                <time>2019-06-14T15:32:57Z</time>
            </trkpt>
            <trkpt lat="54.983450" lon="-7.672720">
                <time>2019-06-14T15:32:58Z</time>
            </trkpt>
            <trkpt lat="54.983280" lon="-7.672900">
                <time>2019-06-14T15:32:59Z</time>
            </trkpt>
            <trkpt lat="54.983120" lon="-7.673080">
                <time>2019-06-14T15:33:00Z</time>
            </trkpt>
            <trkpt lat="54.982960" lon="-7.673260">
                <time>2019-06-14T15:33:01Z</time>
            </trkpt>
            <trkpt lat="54.982810" lon="-7.673430">
                <time>2019-06-14T15:33:02Z</time>
            </trkpt>
            <trkpt lat="54.982670" lon="-7.673600">
                <time>2019-06-14T15:33:03Z</time>
            </trkpt>
            <trkpt lat="54.982520" lon="-7.673770">
                <time>2019-06-14T15:33:04Z</time>
            </trkpt>
            <trkpt lat="54.982380" lon="-7.673930">
                <time>2019-06-14T15:33:05Z</time>
            </trkpt>
            <trkpt lat="54.982220" lon="-7.674100">
                <time>2019-06-14T15:33:06Z</time>
            </trkpt>
            <trkpt lat="54.982060" lon="-7.674270">
                <time>2019-06-14T15:33:07Z</time>
            </trkpt>
            <trkpt lat="54.981880" lon="-7.674460">
                <time>2019-06-14T15:33:08Z</time>
            </trkpt>
            <trkpt lat="54.981700" lon="-7.674660">
                <time>2019-06-14T15:33:09Z</time>
            </trkpt>
            <trkpt lat="54.981510" lon="-7.674860">
                <time>2019-06-14T15:33:10Z</time>
            </trkpt>
            <trkpt lat="54.981320" lon="-7.675060">
                <time>2019-06-14T15:33:11Z</time>
            </trkpt>
            <trkpt lat="54.981140" lon="-7.675260">
                <time>2019-06-14T15:33:12Z</time>
            </trkpt>
            <trkpt lat="54.980950" lon="-7.675460">
                <time>2019-06-14T15:33:13Z</time>
            </trkpt>
            <trkpt lat="54.980780" lon="-7.675650">
                <time>2019-06-14T15:33:14Z</time>
            </trkpt>
            <trkpt lat="54.980620" lon="-7.675820">
                <time>2019-06-14T15:33:15Z</time>
            </trkpt>
            <trkpt lat="54.980460" lon="-7.675990">
                <time>2019-06-14T15:33:16Z</time>
            </trkpt>
            <trkpt lat="54.980300" lon="-7.676170">
                <time>2019-06-14T15:33:17Z</time>
            </trkpt>
            <trkpt lat="54.980130" lon="-7.676370">
                <time>2019-06-14T15:33:18Z</time>
            </trkpt>
            <trkpt lat="54.979960" lon="-7.676580">
                <time>2019-06-14T15:33:19Z</time>
            </trkpt>
            <trkpt lat="54.979790" lon="-7.676800">
                <time>2019-06-14T15:33:20Z</time>
            </trkpt>
            <trkpt lat="54.979610" lon="-7.677010">
                <time>2019-06-14T15:33:21Z</time>
            </trkpt>
            <trkpt lat="54.979450" lon="-7.677210">
                <time>2019-06-14T15:33:22Z</time>
            </trkpt>
            <trkpt lat="54.979290" lon="-7.677410">
                <time>2019-06-14T15:33:23Z</time>
            </trkpt>
            <trkpt lat="54.979140" lon="-7.677600">
                <time>2019-06-14T15:33:24Z</time>
            </trkpt>
            <trkpt lat="54.978990" lon="-7.677790">
                <time>2019-06-14T15:33:25Z</time>
            </trkpt>
            <trkpt lat="54.978860" lon="-7.677960">
                <time>2019-06-14T15:33:26Z</time>
            </trkpt>
            <trkpt lat="54.978710" lon="-7.678130">
                <time>2019-06-14T15:33:27Z</time>
            </trkpt>
            <trkpt lat="54.978570" lon="-7.678290">
                <time>2019-06-14T15:33:28Z</time>
            </trkpt>
            <trkpt lat="54.978420" lon="-7.678460">
                <time>2019-06-14T15:33:29Z</time>
            </trkpt>
            <trkpt lat="54.978270" lon="-7.678640">
                <time>2019-06-14T15:33:30Z</time>
            </trkpt>
            <trkpt lat="54.978120" lon="-7.678820">
                <time>2019-06-14T15:33:31Z</time>
            </trkpt>
            <trkpt lat="54.977960" lon="-7.679000">
                <time>2019-06-14T15:33:32Z</time>
            </trkpt>
            <trkpt lat="54.977810" lon="-7.679180">
                <time>2019-06-14T15:33:33Z</time>
            </trkpt>
            <trkpt lat="54.977670" lon="-7.679360">
                <time>2019-06-14T15:33:34Z</time>
            </trkpt>
            <trkpt lat="54.977520" lon="-7.679550">
                <time>2019-06-14T15:33:35Z</time>
            </trkpt>
            <trkpt lat="54.977370" lon="-7.679730">
                <time>2019-06-14T15:33:36Z</time>
            </trkpt>
            <trkpt lat="54.977210" lon="-7.679920">
                <time>2019-06-14T15:33:37Z</time>
            </trkpt>
            <trkpt lat="54.977060" lon="-7.680110">
                <time>2019-06-14T15:33:38Z</time>
            </trkpt>
            <trkpt lat="54.976910" lon="-7.680300">
                <time>2019-06-14T15:33:39Z</time>
            </trkpt>
            <trkpt lat="54.976760" lon="-7.680480">
                <time>2019-06-14T15:33:40Z</time>
            </trkpt>
            <trkpt lat="54.976620" lon="-7.680670">
                <time>2019-06-14T15:33:41Z</time>
            </trkpt>
            <trkpt lat="54.976480" lon="-7.680860">
                <time>2019-06-14T15:33:42Z</time>
            </trkpt>
            <trkpt lat="54.976340" lon="-7.681060">
                <time>2019-06-14T15:33:43Z</time>
            </trkpt>
            <trkpt lat="54.976210" lon="-7.681280">
                <time>2019-06-14T15:33:44Z</time>
            </trkpt>
            <trkpt lat="54.976070" lon="-7.681510">
                <time>2019-06-14T15:33:45Z</time>
            </trkpt>
            <trkpt lat="54.975940" lon="-7.681770">
                <time>2019-06-14T15:33:46Z</time>
            </trkpt>
            <trkpt lat="54.975810" lon="-7.682060">
                <time>2019-06-14T15:33:47Z</time>
            </trkpt>
            <trkpt lat="54.975680" lon="-7.682350">
                <time>2019-06-14T15:33:48Z</time>
            </trkpt>
            <trkpt lat="54.975550" lon="-7.682630">
                <time>2019-06-14T15:33:49Z</time>
            </trkpt>
            <trkpt lat="54.975430" lon="-7.682900">
                <time>2019-06-14T15:33:50Z</time>
            </trkpt>
            <trkpt lat="54.975310" lon="-7.683160">
                <time>2019-06-14T15:33:51Z</time>
            </trkpt>
            <trkpt lat="54.975190" lon="-7.683420">
                <time>2019-06-14T15:33:52Z</time>
            </trkpt>
            <trkpt lat="54.975070" lon="-7.683680">
                <time>2019-06-14T15:33:53Z</time>
            </trkpt>
            <trkpt lat="54.974950" lon="-7.683940">
                <time>2019-06-14T15:33:54Z</time>
            </trkpt>
            <trkpt lat="54.974840" lon="-7.684190">
                <time>2019-06-14T15:33:55Z</time>
            </trkpt>
            <trkpt lat="54.974720" lon="-7.684440">
                <time>2019-06-14T15:33:56Z</time>
            </trkpt>
            <trkpt lat="54.974600" lon="-7.684690">
                <time>2019-06-14T15:33:57Z</time>
            </trkpt>
            <trkpt lat="54.974480" lon="-7.684930">
                <time>2019-06-14T15:33:58Z</time>
            </trkpt>
            <trkpt lat="54.974360" lon="-7.685160">
                <time>2019-06-14T15:33:59Z</time>
            </trkpt>
            <trkpt lat="54.974240" lon="-7.685390">
                <time>2019-06-14T15:34:00Z</time>
            </trkpt>
            <trkpt lat="54.974120" lon="-7.685640">
                <time>2019-06-14T15:34:01Z</time>
            </trkpt>
            <trkpt lat="54.974000" lon="-7.685890">
                <time>2019-06-14T15:34:02Z</time>
            </trkpt>
            <trkpt lat="54.973870" lon="-7.686130">
                <time>2019-06-14T15:34:03Z</time>
            </trkpt>
            <trkpt lat="54.973730" lon="-7.686370">
                <time>2019-06-14T15:34:04Z</time>
            </trkpt>
            <trkpt lat="54.973600" lon="-7.686600">
                <time>2019-06-14T15:34:05Z</time>
            </trkpt>
            <trkpt lat="54.973480" lon="-7.686830">
                <time>2019-06-14T15:34:06Z</time>
            </trkpt>
            <trkpt lat="54.973350" lon="-7.687040">
                <time>2019-06-14T15:34:07Z</time>
            </trkpt>
            <trkpt lat="54.973240" lon="-7.687260">
                <time>2019-06-14T15:34:08Z</time>
            </trkpt>
            <trkpt lat="54.973130" lon="-7.687460">
                <time>2019-06-14T15:34:09Z</time>
            </trkpt>
            <trkpt lat="54.973020" lon="-7.687670">
                <time>2019-06-14T15:34:10Z</time>
            </trkpt>
            <trkpt lat="54.972900" lon="-7.687880">
                <time>2019-06-14T15:34:11Z</time>
            </trkpt>
            <trkpt lat="54.972780" lon="-7.688090">
                <time>2019-06-14T15:34:12Z</time>
            </trkpt>
            <trkpt lat="54.972650" lon="-7.688310">
                <time>2019-06-14T15:34:13Z</time>
            </trkpt>
            <trkpt lat="54.972510" lon="-7.688520">
                <time>2019-06-14T15:34:14Z</time>
            </trkpt>
            <trkpt lat="54.972380" lon="-7.688720">
                <time>2019-06-14T15:34:15Z</time>
            </trkpt>
            <trkpt lat="54.972250" lon="-7.688910">
                <time>2019-06-14T15:34:16Z</time>
            </trkpt>
            <trkpt lat="54.972110" lon="-7.689090">
                <time>2019-06-14T15:34:17Z</time>
            </trkpt>
            <trkpt lat="54.971960" lon="-7.689260">
                <time>2019-06-14T15:34:18Z</time>
            </trkpt>
            <trkpt lat="54.971810" lon="-7.689410">
                <time>2019-06-14T15:34:19Z</time>
            </trkpt>
            <trkpt lat="54.971660" lon="-7.689520">
                <time>2019-06-14T15:34:20Z</time>
            </trkpt>
            <trkpt lat="54.971510" lon="-7.689610">
                <time>2019-06-14T15:34:21Z</time>
            </trkpt>
            <trkpt lat="54.971350" lon="-7.689670">
                <time>2019-06-14T15:34:22Z</time>
            </trkpt>
            <trkpt lat="54.971180" lon="-7.689720">
                <time>2019-06-14T15:34:23Z</time>
            </trkpt>
            <trkpt lat="54.971020" lon="-7.689750">
                <time>2019-06-14T15:34:24Z</time>
            </trkpt>
            <trkpt lat="54.970850" lon="-7.689750">
                <time>2019-06-14T15:34:25Z</time>
            </trkpt>
            <trkpt lat="54.970680" lon="-7.689730">
                <time>2019-06-14T15:34:26Z</time>
            </trkpt>
            <trkpt lat="54.970500" lon="-7.689690">
                <time>2019-06-14T15:34:27Z</time>
            </trkpt>
            <trkpt lat="54.970330" lon="-7.689650">
                <time>2019-06-14T15:34:28Z</time>
            </trkpt>
            <trkpt lat="54.970170" lon="-7.689610">
                <time>2019-06-14T15:34:29Z</time>
            </trkpt>
            <trkpt lat="54.970000" lon="-7.689560">
                <time>2019-06-14T15:34:30Z</time>
            </trkpt>
            <trkpt lat="54.969830" lon="-7.689510">
                <time>2019-06-14T15:34:31Z</time>
            </trkpt>
            <trkpt lat="54.969650" lon="-7.689460">
                <time>2019-06-14T15:34:32Z</time>
            </trkpt>
            <trkpt lat="54.969470" lon="-7.689410">
                <time>2019-06-14T15:34:33Z</time>
            </trkpt>
            <trkpt lat="54.969280" lon="-7.689370">
                <time>2019-06-14T15:34:34Z</time>
            </trkpt>
            <trkpt lat="54.969100" lon="-7.689360">
                <time>2019-06-14T15:34:35Z</time>
            </trkpt>
            <trkpt lat="54.968910" lon="-7.689370">
                <time>2019-06-14T15:34:36Z</time>
            </trkpt>
            <trkpt lat="54.968710" lon="-7.689400">
                <time>2019-06-14T15:34:37Z</time>
            </trkpt>
            <trkpt lat="54.968520" lon="-7.689460">
                <time>2019-06-14T15:34:38Z</time>
            </trkpt>
            <trkpt lat="54.968320" lon="-7.689530">
                <time>2019-06-14T15:34:39Z</time>
            </trkpt>
            <trkpt lat="54.968120" lon="-7.689610">
                <time>2019-06-14T15:34:40Z</time>
            </trkpt>
            <trkpt lat="54.967930" lon="-7.689690">
                <time>2019-06-14T15:34:41Z</time>
            </trkpt>
            <trkpt lat="54.967730" lon="-7.689780">
                <time>2019-06-14T15:34:42Z</time>
            </trkpt>
            <trkpt lat="54.967530" lon="-7.689870">
                <time>2019-06-14T15:34:43Z</time>
            </trkpt>
            <trkpt lat="54.967320" lon="-7.689960">
                <time>2019-06-14T15:34:44Z</time>
            </trkpt>
            <trkpt lat="54.967130" lon="-7.690050">
                <time>2019-06-14T15:34:45Z</time>
            </trkpt>
            <trkpt lat="54.966950" lon="-7.690140">
                <time>2019-06-14T15:34:46Z</time>
            </trkpt>
            <trkpt lat="54.966770" lon="-7.690240">
                <time>2019-06-14T15:34:47Z</time>
            </trkpt>
            <trkpt lat="54.966590" lon="-7.690360">
                <time>2019-06-14T15:34:48Z</time>
            </trkpt>
            <trkpt lat="54.966410" lon="-7.690500">
                <time>2019-06-14T15:34:49Z</time>
            </trkpt>
            <trkpt lat="54.966250" lon="-7.690650">
                <time>2019-06-14T15:34:50Z</time>
            </trkpt>
            <trkpt lat="54.966090" lon="-7.690810">
                <time>2019-06-14T15:34:51Z</time>
            </trkpt>
            <trkpt lat="54.965940" lon="-7.690970">
                <time>2019-06-14T15:34:52Z</time>
            </trkpt>
            <trkpt lat="54.965790" lon="-7.691130">
                <time>2019-06-14T15:34:53Z</time>
            </trkpt>
            <trkpt lat="54.965640" lon="-7.691290">
                <time>2019-06-14T15:34:54Z</time>
            </trkpt>
            <trkpt lat="54.965500" lon="-7.691440">
                <time>2019-06-14T15:34:55Z</time>
            </trkpt>
            <trkpt lat="54.965370" lon="-7.691580">
                <time>2019-06-14T15:34:56Z</time>
            </trkpt>
            <trkpt lat="54.965230" lon="-7.691730">
                <time>2019-06-14T15:34:57Z</time>
            </trkpt>
            <trkpt lat="54.965100" lon="-7.691870">
                <time>2019-06-14T15:34:58Z</time>
            </trkpt>
            <trkpt lat="54.964950" lon="-7.691990">
                <time>2019-06-14T15:34:59Z</time>
            </trkpt>
            <trkpt lat="54.964800" lon="-7.692070">
                <time>2019-06-14T15:35:00Z</time>
            </trkpt>
            <trkpt lat="54.964650" lon="-7.692110">
                <time>2019-06-14T15:35:01Z</time>
            </trkpt>
            <trkpt lat="54.964500" lon="-7.692130">
                <time>2019-06-14T15:35:02Z</time>
            </trkpt>
            <trkpt lat="54.964360" lon="-7.692110">
                <time>2019-06-14T15:35:03Z</time>
            </trkpt>
            <trkpt lat="54.964220" lon="-7.692070">
                <time>2019-06-14T15:35:04Z</time>
            </trkpt>
            <trkpt lat="54.964080" lon="-7.692000">
                <time>2019-06-14T15:35:05Z</time>
            </trkpt>
            <trkpt lat="54.963940" lon="-7.691910">
                <time>2019-06-14T15:35:06Z</time>
            </trkpt>
            <trkpt lat="54.963790" lon="-7.691810">
                <time>2019-06-14T15:35:07Z</time>
            </trkpt>
            <trkpt lat="54.963630" lon="-7.691700">
                <time>2019-06-14T15:35:08Z</time>
            </trkpt>
            <trkpt lat="54.963460" lon="-7.691590">
                <time>2019-06-14T15:35:09Z</time>
            </trkpt>
            <trkpt lat="54.963290" lon="-7.691490">
                <time>2019-06-14T15:35:10Z</time>
            </trkpt>
            <trkpt lat="54.963110" lon="-7.691380">
                <time>2019-06-14T15:35:11Z</time>
            </trkpt>
            <trkpt lat="54.962940" lon="-7.691290">
                <time>2019-06-14T15:35:12Z</time>
            </trkpt>
            <trkpt lat="54.962760" lon="-7.691220">
                <time>2019-06-14T15:35:13Z</time>
            </trkpt>
            <trkpt lat="54.962590" lon="-7.691180">
                <time>2019-06-14T15:35:14Z</time>
            </trkpt>
            <trkpt lat="54.962400" lon="-7.691180">
                <time>2019-06-14T15:35:15Z</time>
            </trkpt>
            <trkpt lat="54.962210" lon="-7.691210">
                <time>2019-06-14T15:35:16Z</time>
            </trkpt>
            <trkpt lat="54.962020" lon="-7.691260">
                <time>2019-06-14T15:35:17Z</time>
            </trkpt>
            <trkpt lat="54.961830" lon="-7.691340">
                <time>2019-06-14T15:35:18Z</time>
            </trkpt>
            <trkpt lat="54.961640" lon="-7.691410">
                <time>2019-06-14T15:35:19Z</time>
            </trkpt>
            <trkpt lat="54.961450" lon="-7.691490">
                <time>2019-06-14T15:35:20Z</time>
            </trkpt>
            <trkpt lat="54.961270" lon="-7.691580">
                <time>2019-06-14T15:35:21Z</time>
            </trkpt>
            <trkpt lat="54.961080" lon="-7.691670">
                <time>2019-06-14T15:35:22Z</time>
            </trkpt>
            <trkpt lat="54.960890" lon="-7.691760">
                <time>2019-06-14T15:35:23Z</time>
            </trkpt>
            <trkpt lat="54.960710" lon="-7.691860">
                <time>2019-06-14T15:35:24Z</time>
            </trkpt>
            <trkpt lat="54.960510" lon="-7.691950">
                <time>2019-06-14T15:35:25Z</time>
            </trkpt>
            <trkpt lat="54.960330" lon="-7.692030">
                <time>2019-06-14T15:35:26Z</time>
            </trkpt>
            <trkpt lat="54.960150" lon="-7.692110">
                <time>2019-06-14T15:35:27Z</time>
            </trkpt>
            <trkpt lat="54.959970" lon="-7.692190">
                <time>2019-06-14T15:35:28Z</time>
            </trkpt>
            <trkpt lat="54.959790" lon="-7.692280">
                <time>2019-06-14T15:35:29Z</time>
            </trkpt>
            <trkpt lat="54.959610" lon="-7.692370">
                <time>2019-06-14T15:35:30Z</time>
            </trkpt>
            <trkpt lat="54.959430" lon="-7.692460">
                <time>2019-06-14T15:35:31Z</time>
            </trkpt>
            <trkpt lat="54.959240" lon="-7.692560">
                <time>2019-06-14T15:35:32Z</time>
            </trkpt>
            <trkpt lat="54.959050" lon="-7.692680">
                <time>2019-06-14T15:35:33Z</time>
            </trkpt>
            <trkpt lat="54.958880" lon="-7.692840">
                <time>2019-06-14T15:35:34Z</time>
            </trkpt>
            <trkpt lat="54.958710" lon="-7.693030">
                <time>2019-06-14T15:35:35Z</time>
            </trkpt>
            <trkpt lat="54.958560" lon="-7.693270">
                <time>2019-06-14T15:35:36Z</time>
            </trkpt>
            <trkpt lat="54.958430" lon="-7.693550">
                <time>2019-06-14T15:35:37Z</time>
            </trkpt>
            <trkpt lat="54.958330" lon="-7.693850">
                <time>2019-06-14T15:35:38Z</time>
            </trkpt>
            <trkpt lat="54.958260" lon="-7.694170">
                <time>2019-06-14T15:35:39Z</time>
            </trkpt>
            <trkpt lat="54.958210" lon="-7.694500">
                <time>2019-06-14T15:35:40Z</time>
            </trkpt>
            <trkpt lat="54.958190" lon="-7.694840">
                <time>2019-06-14T15:35:41Z</time>
            </trkpt>
            <trkpt lat="54.958180" lon="-7.695190">
                <time>2019-06-14T15:35:42Z</time>
            </trkpt>
            <trkpt lat="54.958180" lon="-7.695540">
                <time>2019-06-14T15:35:43Z</time>
            </trkpt>
            <trkpt lat="54.958170" lon="-7.695860">
                <time>2019-06-14T15:35:44Z</time>
            </trkpt>
            <trkpt lat="54.958170" lon="-7.696160">
                <time>2019-06-14T15:35:45Z</time>
            </trkpt>
            <trkpt lat="54.958160" lon="-7.696470">
                <time>2019-06-14T15:35:46Z</time>
            </trkpt>
            <trkpt lat="54.958160" lon="-7.696770">
                <time>2019-06-14T15:35:47Z</time>
            </trkpt>
            <trkpt lat="54.958160" lon="-7.697050">
                <time>2019-06-14T15:35:48Z</time>
            </trkpt>
            <trkpt lat="54.958150" lon="-7.697340">
                <time>2019-06-14T15:35:49Z</time>
            </trkpt>
            <trkpt lat="54.958160" lon="-7.697630">
                <time>2019-06-14T15:35:50Z</time>
            </trkpt>
            <trkpt lat="54.958150" lon="-7.697920">
                <time>2019-06-14T15:35:51Z</time>
            </trkpt>
            <trkpt lat="54.958140" lon="-7.698230">
                <time>2019-06-14T15:35:52Z</time>
            </trkpt>
            <trkpt lat="54.958140" lon="-7.698540">
                <time>2019-06-14T15:35:53Z</time>
            </trkpt>
            <trkpt lat="54.958130" lon="-7.698860">
                <time>2019-06-14T15:35:54Z</time>
            </trkpt>
            <trkpt lat="54.958120" lon="-7.699190">
                <time>2019-06-14T15:35:55Z</time>
            </trkpt>
            <trkpt lat="54.958110" lon="-7.699510">
                <time>2019-06-14T15:35:56Z</time>
            </trkpt>
            <trkpt lat="54.958110" lon="-7.699820">
                <time>2019-06-14T15:35:57Z</time>
            </trkpt>
            <trkpt lat="54.958100" lon="-7.700110">
                <time>2019-06-14T15:35:58Z</time>
            </trkpt>
            <trkpt lat="54.958090" lon="-7.700390">
                <time>2019-06-14T15:35:59Z</time>
            </trkpt>
            <trkpt lat="54.958090" lon="-7.700670">
                <time>2019-06-14T15:36:00Z</time>
            </trkpt>
            <trkpt lat="54.958080" lon="-7.700960">
                <time>2019-06-14T15:36:01Z</time>
            </trkpt>
            <trkpt lat="54.958080" lon="-7.701260">
                <time>2019-06-14T15:36:02Z</time>
            </trkpt>
            <trkpt lat="54.958070" lon="-7.701570">
                <time>2019-06-14T15:36:03Z</time>
            </trkpt>
            <trkpt lat="54.958060" lon="-7.701880">
                <time>2019-06-14T15:36:04Z</time>
            </trkpt>
            <trkpt lat="54.958050" lon="-7.702190">
                <time>2019-06-14T15:36:05Z</time>
            </trkpt>
            <trkpt lat="54.958040" lon="-7.702490">
                <time>2019-06-14T15:36:06Z</time>
            </trkpt>
            <trkpt lat="54.958040" lon="-7.702780">
                <time>2019-06-14T15:36:07Z</time>
            </trkpt>
            <trkpt lat="54.958040" lon="-7.703070">
                <time>2019-06-14T15:36:08Z</time>
            </trkpt>
            <trkpt lat="54.958030" lon="-7.703370">
                <time>2019-06-14T15:36:09Z</time>
            </trkpt>
            <trkpt lat="54.958020" lon="-7.703660">
                <time>2019-06-14T15:36:10Z</time>
            </trkpt>
            <trkpt lat="54.958010" lon="-7.703930">
                <time>2019-06-14T15:36:11Z</time>
            </trkpt>
            <trkpt lat="54.957980" lon="-7.704190">
                <time>2019-06-14T15:36:12Z</time>
            </trkpt>
            <trkpt lat="54.957960" lon="-7.704440">
                <time>2019-06-14T15:36:13Z</time>
            </trkpt>
            <trkpt lat="54.957930" lon="-7.704680">
                <time>2019-06-14T15:36:14Z</time>
            </trkpt>
            <trkpt lat="54.957890" lon="-7.704920">
                <time>2019-06-14T15:36:15Z</time>
            </trkpt>
            <trkpt lat="54.957840" lon="-7.705140">
                <time>2019-06-14T15:36:16Z</time>
            </trkpt>
            <trkpt lat="54.957780" lon="-7.705340">
                <time>2019-06-14T15:36:17Z</time>
            </trkpt>
            <trkpt lat="54.957700" lon="-7.705520">
                <time>2019-06-14T15:36:18Z</time>
            </trkpt>
            <trkpt lat="54.957610" lon="-7.705700">
                <time>2019-06-14T15:36:19Z</time>
            </trkpt>
            <trkpt lat="54.957510" lon="-7.705870">
                <time>2019-06-14T15:36:20Z</time>
            </trkpt>
            <trkpt lat="54.957390" lon="-7.706020">
                <time>2019-06-14T15:36:21Z</time>
            </trkpt>
            <trkpt lat="54.957290" lon="-7.706170">
                <time>2019-06-14T15:36:22Z</time>
            </trkpt>
            <trkpt lat="54.957190" lon="-7.706310">
                <time>2019-06-14T15:36:23Z</time>
            </trkpt>
            <trkpt lat="54.957100" lon="-7.706440">
                <time>2019-06-14T15:36:24Z</time>
            </trkpt>
            <trkpt lat="54.957010" lon="-7.706560">
                <time>2019-06-14T15:36:25Z</time>
            </trkpt>
            <trkpt lat="54.956930" lon="-7.706670">
                <time>2019-06-14T15:36:26Z</time>
            </trkpt>
            <trkpt lat="54.956860" lon="-7.706770">
                <time>2019-06-14T15:36:27Z</time>
            </trkpt>
            <trkpt lat="54.956790" lon="-7.706870">
                <time>2019-06-14T15:36:28Z</time>
            </trkpt>
            <trkpt lat="54.956710" lon="-7.706960">
                <time>2019-06-14T15:36:29Z</time>
            </trkpt>
            <trkpt lat="54.956640" lon="-7.707050">
                <time>2019-06-14T15:36:30Z</time>
            </trkpt>
            <trkpt lat="54.956580" lon="-7.707140">
                <time>2019-06-14T15:36:31Z</time>
            </trkpt>
            <trkpt lat="54.956520" lon="-7.707220">
                <time>2019-06-14T15:36:32Z</time>
            </trkpt>
            <trkpt lat="54.956470" lon="-7.707290">
                <time>2019-06-14T15:36:33Z</time>
            </trkpt>
            <trkpt lat="54.956420" lon="-7.707360">
                <time>2019-06-14T15:36:34Z</time>
            </trkpt>
            <trkpt lat="54.956360" lon="-7.707440">
                <time>2019-06-14T15:36:35Z</time>
            </trkpt>
            <trkpt lat="54.956310" lon="-7.707520">
                <time>2019-06-14T15:36:36Z</time>
            </trkpt>
            <trkpt lat="54.956260" lon="-7.707580">
                <time>2019-06-14T15:36:37Z</time>
            </trkpt>
            <trkpt lat="54.956220" lon="-7.707640">
                <time>2019-06-14T15:36:38Z</time>
            </trkpt>
            <trkpt lat="54.956190" lon="-7.707680">
                <time>2019-06-14T15:36:39Z</time>
            </trkpt>
            <trkpt lat="54.956170" lon="-7.707710">
                <time>2019-06-14T15:36:40Z</time>
            </trkpt>
            <trkpt lat="54.956150" lon="-7.707730">
                <time>2019-06-14T15:36:41Z</time>
            </trkpt>
            <trkpt lat="54.956130" lon="-7.707750">
                <time>2019-06-14T15:36:42Z</time>
            </trkpt>
            <trkpt lat="54.956110" lon="-7.707780">
                <time>2019-06-14T15:36:43Z</time>
            </trkpt>
            <trkpt lat="54.956090" lon="-7.707800">
                <time>2019-06-14T15:36:44Z</time>
            </trkpt>
            <trkpt lat="54.956080" lon="-7.707820">
                <time>2019-06-14T15:36:45Z</time>
            </trkpt>
            <trkpt lat="54.956070" lon="-7.707820">
                <time>2019-06-14T15:36:46Z</time>
            </trkpt>
            <trkpt lat="54.956070" lon="-7.707830">
                <time>2019-06-14T15:36:47Z</time>
            </trkpt>
            <trkpt lat="54.956050" lon="-7.707850">
                <time>2019-06-14T15:36:48Z</time>
            </trkpt>
            <trkpt lat="54.956030" lon="-7.707870">
                <time>2019-06-14T15:36:49Z</time>
            </trkpt>
            <trkpt lat="54.956010" lon="-7.707890">
                <time>2019-06-14T15:36:50Z</time>
            </trkpt>
            <trkpt lat="54.955990" lon="-7.707910">
                <time>2019-06-14T15:36:51Z</time>
            </trkpt>
            <trkpt lat="54.955970" lon="-7.707940">
                <time>2019-06-14T15:36:52Z</time>
            </trkpt>
            <trkpt lat="54.955960" lon="-7.707950">
                <time>2019-06-14T15:36:53Z</time>
            </trkpt>
            <trkpt lat="54.955950" lon="-7.707960">
                <time>2019-06-14T15:36:54Z</time>
            </trkpt>
            <trkpt lat="54.955940" lon="-7.707970">
                <time>2019-06-14T15:36:55Z</time>
            </trkpt>
            <trkpt lat="54.955920" lon="-7.707990">
                <time>2019-06-14T15:36:56Z</time>
            </trkpt>
            <trkpt lat="54.955900" lon="-7.708020">
                <time>2019-06-14T15:36:57Z</time>
            </trkpt>
            <trkpt lat="54.955870" lon="-7.708050">
                <time>2019-06-14T15:36:58Z</time>
            </trkpt>
            <trkpt lat="54.955850" lon="-7.708080">
                <time>2019-06-14T15:36:59Z</time>
            </trkpt>
            <trkpt lat="54.955840" lon="-7.708100">
                <time>2019-06-14T15:37:00Z</time>
            </trkpt>
            <trkpt lat="54.955830" lon="-7.708120">
                <time>2019-06-14T15:37:01Z</time>
            </trkpt>
            <trkpt lat="54.955810" lon="-7.708140">
                <time>2019-06-14T15:37:02Z</time>
            </trkpt>
            <trkpt lat="54.955790" lon="-7.708160">
                <time>2019-06-14T15:37:03Z</time>
            </trkpt>
            <trkpt lat="54.955770" lon="-7.708180">
                <time>2019-06-14T15:37:04Z</time>
            </trkpt>
            <trkpt lat="54.955750" lon="-7.708190">
                <time>2019-06-14T15:37:05Z</time>
            </trkpt>
            <trkpt lat="54.955740" lon="-7.708210">
                <time>2019-06-14T15:37:06Z</time>
            </trkpt>
            <trkpt lat="54.955720" lon="-7.708220">
                <time>2019-06-14T15:37:07Z</time>
            </trkpt>
            <trkpt lat="54.955690" lon="-7.708240">
                <time>2019-06-14T15:37:08Z</time>
            </trkpt>
            <trkpt lat="54.955660" lon="-7.708270">
                <time>2019-06-14T15:37:09Z</time>
            </trkpt>
            <trkpt lat="54.955630" lon="-7.708300">
                <time>2019-06-14T15:37:10Z</time>
            </trkpt>
            <trkpt lat="54.955580" lon="-7.708350">
                <time>2019-06-14T15:37:11Z</time>
            </trkpt>
            <trkpt lat="54.955530" lon="-7.708380">
                <time>2019-06-14T15:37:12Z</time>
            </trkpt>
            <trkpt lat="54.955480" lon="-7.708420">
                <time>2019-06-14T15:37:13Z</time>
            </trkpt>
            <trkpt lat="54.955430" lon="-7.708470">
                <time>2019-06-14T15:37:14Z</time>
            </trkpt>
            <trkpt lat="54.955390" lon="-7.708510">
                <time>2019-06-14T15:37:15Z</time>
            </trkpt>
            <trkpt lat="54.955340" lon="-7.708530">
                <time>2019-06-14T15:37:16Z</time>
            </trkpt>
            <trkpt lat="54.955300" lon="-7.708560">
                <time>2019-06-14T15:37:17Z</time>
            </trkpt>
            <trkpt lat="54.955250" lon="-7.708600">
                <time>2019-06-14T15:37:18Z</time>
            </trkpt>
            <trkpt lat="54.955210" lon="-7.708630">
                <time>2019-06-14T15:37:19Z</time>
            </trkpt>
            <trkpt lat="54.955170" lon="-7.708650">
                <time>2019-06-14T15:37:20Z</time>
            </trkpt>
            <trkpt lat="54.955140" lon="-7.708670">
                <time>2019-06-14T15:37:21Z</time>
            </trkpt>
            <trkpt lat="54.955110" lon="-7.708700">
                <time>2019-06-14T15:37:22Z</time>
            </trkpt>
            <trkpt lat="54.955070" lon="-7.708730">
                <time>2019-06-14T15:37:23Z</time>
            </trkpt>
            <trkpt lat="54.955030" lon="-7.708760">
                <time>2019-06-14T15:37:24Z</time>
            </trkpt>
            <trkpt lat="54.954990" lon="-7.708790">
                <time>2019-06-14T15:37:25Z</time>
            </trkpt>
            <trkpt lat="54.954960" lon="-7.708820">
                <time>2019-06-14T15:37:26Z</time>
            </trkpt>
            <trkpt lat="54.954920" lon="-7.708850">
                <time>2019-06-14T15:37:27Z</time>
            </trkpt>
            <trkpt lat="54.954880" lon="-7.708880">
                <time>2019-06-14T15:37:28Z</time>
            </trkpt>
            <trkpt lat="54.954830" lon="-7.708900">
                <time>2019-06-14T15:37:29Z</time>
            </trkpt>
            <trkpt lat="54.954780" lon="-7.708930">
                <time>2019-06-14T15:37:30Z</time>
            </trkpt>
            <trkpt lat="54.954730" lon="-7.708950">
                <time>2019-06-14T15:37:31Z</time>
            </trkpt>
            <trkpt lat="54.954680" lon="-7.708980">
                <time>2019-06-14T15:37:32Z</time>
            </trkpt>
            <trkpt lat="54.954640" lon="-7.709000">
                <time>2019-06-14T15:37:33Z</time>
            </trkpt>
            <trkpt lat="54.954590" lon="-7.709030">
                <time>2019-06-14T15:37:34Z</time>
            </trkpt>
            <trkpt lat="54.954530" lon="-7.709060">
                <time>2019-06-14T15:37:35Z</time>
            </trkpt>
            <trkpt lat="54.954460" lon="-7.709100">
                <time>2019-06-14T15:37:36Z</time>
            </trkpt>
            <trkpt lat="54.954410" lon="-7.709140">
                <time>2019-06-14T15:37:37Z</time>
            </trkpt>
            <trkpt lat="54.954350" lon="-7.709170">
                <time>2019-06-14T15:37:38Z</time>
            </trkpt>
            <trkpt lat="54.954290" lon="-7.709200">
                <time>2019-06-14T15:37:39Z</time>
            </trkpt>
            <trkpt lat="54.954240" lon="-7.709220">
                <time>2019-06-14T15:37:40Z</time>
            </trkpt>
            <trkpt lat="54.954200" lon="-7.709230">
                <time>2019-06-14T15:37:41Z</time>
            </trkpt>
            <trkpt lat="54.954170" lon="-7.709240">
                <time>2019-06-14T15:37:42Z</time>
            </trkpt>
            <trkpt lat="54.954150" lon="-7.709250">
                <time>2019-06-14T15:37:43Z</time>
            </trkpt>
            <trkpt lat="54.954130" lon="-7.709260">
                <time>2019-06-14T15:37:44Z</time>
            </trkpt>
            <trkpt lat="54.954110" lon="-7.709280">
                <time>2019-06-14T15:37:45Z</time>
            </trkpt>
            <trkpt lat="54.954070" lon="-7.709300">
                <time>2019-06-14T15:37:46Z</time>
            </trkpt>
            <trkpt lat="54.954010" lon="-7.709330">
                <time>2019-06-14T15:37:47Z</time>
            </trkpt>
            <trkpt lat="54.953960" lon="-7.709350">
                <time>2019-06-14T15:37:48Z</time>
            </trkpt>
            <trkpt lat="54.953880" lon="-7.709390">
                <time>2019-06-14T15:37:49Z</time>
            </trkpt>
            <trkpt lat="54.953780" lon="-7.709440">
                <time>2019-06-14T15:37:50Z</time>
            </trkpt>
            <trkpt lat="54.953670" lon="-7.709490">
                <time>2019-06-14T15:37:51Z</time>
            </trkpt>
            <trkpt lat="54.953570" lon="-7.709560">
                <time>2019-06-14T15:37:52Z</time>
            </trkpt>
            <trkpt lat="54.953470" lon="-7.709620">
                <time>2019-06-14T15:37:53Z</time>
            </trkpt>
            <trkpt lat="54.953380" lon="-7.709670">
                <time>2019-06-14T15:37:54Z</time>
            </trkpt>
            <trkpt lat="54.953300" lon="-7.709720">
                <time>2019-06-14T15:37:55Z</time>
            </trkpt>
            <trkpt lat="54.953220" lon="-7.709770">
                <time>2019-06-14T15:37:56Z</time>
            </trkpt>
            <trkpt lat="54.953150" lon="-7.709810">
                <time>2019-06-14T15:37:57Z</time>
            </trkpt>
            <trkpt lat="54.953080" lon="-7.709860">
                <time>2019-06-14T15:37:58Z</time>
            </trkpt>
            <trkpt lat="54.953000" lon="-7.709910">
                <time>2019-06-14T15:37:59Z</time>
            </trkpt>
            <trkpt lat="54.952920" lon="-7.709960">
                <time>2019-06-14T15:38:00Z</time>
            </trkpt>
            <trkpt lat="54.952830" lon="-7.710020">
                <time>2019-06-14T15:38:01Z</time>
            </trkpt>
            <trkpt lat="54.952750" lon="-7.710080">
                <time>2019-06-14T15:38:02Z</time>
            </trkpt>
            <trkpt lat="54.952660" lon="-7.710150">
                <time>2019-06-14T15:38:03Z</time>
            </trkpt>
            <trkpt lat="54.952580" lon="-7.710220">
                <time>2019-06-14T15:38:04Z</time>
            </trkpt>
            <trkpt lat="54.952480" lon="-7.710300">
                <time>2019-06-14T15:38:05Z</time>
            </trkpt>
            <trkpt lat="54.952390" lon="-7.710380">
                <time>2019-06-14T15:38:06Z</time>
            </trkpt>
            <trkpt lat="54.952290" lon="-7.710460">
                <time>2019-06-14T15:38:07Z</time>
            </trkpt>
            <trkpt lat="54.952210" lon="-7.710530">
                <time>2019-06-14T15:38:08Z</time>
            </trkpt>
            <trkpt lat="54.952130" lon="-7.710590">
                <time>2019-06-14T15:38:09Z</time>
            </trkpt>
            <trkpt lat="54.952070" lon="-7.710640">
                <time>2019-06-14T15:38:10Z</time>
            </trkpt>
            <trkpt lat="54.952020" lon="-7.710690">
                <time>2019-06-14T15:38:11Z</time>
            </trkpt>
            <trkpt lat="54.951970" lon="-7.710730">
                <time>2019-06-14T15:38:12Z</time>
            </trkpt>
            <trkpt lat="54.951920" lon="-7.710770">
                <time>2019-06-14T15:38:13Z</time>
            </trkpt>
            <trkpt lat="54.951880" lon="-7.710790">
                <time>2019-06-14T15:38:14Z</time>
            </trkpt>
            <trkpt lat="54.951820" lon="-7.710800">
                <time>2019-06-14T15:38:15Z</time>
            </trkpt>
            <trkpt lat="54.951760" lon="-7.710810">
                <time>2019-06-14T15:38:16Z</time>
            </trkpt>
            <trkpt lat="54.951720" lon="-7.710820">
                <time>2019-06-14T15:38:17Z</time>
            </trkpt>
            <trkpt lat="54.951680" lon="-7.710840">
                <time>2019-06-14T15:38:18Z</time>
            </trkpt>
            <trkpt lat="54.951650" lon="-7.710870">
                <time>2019-06-14T15:38:19Z</time>
            </trkpt>
            <trkpt lat="54.951630" lon="-7.710900">
                <time>2019-06-14T15:38:20Z</time>
            </trkpt>
            <trkpt lat="54.951610" lon="-7.710940">
                <time>2019-06-14T15:38:21Z</time>
            </trkpt>
            <trkpt lat="54.951590" lon="-7.710980">
                <time>2019-06-14T15:38:22Z</time>
            </trkpt>
            <trkpt lat="54.951550" lon="-7.711030">
                <time>2019-06-14T15:38:23Z</time>
            </trkpt>
            <trkpt lat="54.951520" lon="-7.711080">
                <time>2019-06-14T15:38:24Z</time>
            </trkpt>
            <trkpt lat="54.951490" lon="-7.711150">
                <time>2019-06-14T15:38:25Z</time>
            </trkpt>
            <trkpt lat="54.951450" lon="-7.711230">
                <time>2019-06-14T15:38:26Z</time>
            </trkpt>
            <trkpt lat="54.951410" lon="-7.711320">
                <time>2019-06-14T15:38:27Z</time>
            </trkpt>
            <trkpt lat="54.951360" lon="-7.711380">
                <time>2019-06-14T15:38:28Z</time>
            </trkpt>
            <trkpt lat="54.951310" lon="-7.711440">
                <time>2019-06-14T15:38:29Z</time>
            </trkpt>
            <trkpt lat="54.951260" lon="-7.711490">
                <time>2019-06-14T15:38:30Z</time>
            </trkpt>
            <trkpt lat="54.951220" lon="-7.711550">
                <time>2019-06-14T15:38:31Z</time>
            </trkpt>
            <trkpt lat="54.951180" lon="-7.711600">
                <time>2019-06-14T15:38:32Z</time>
            </trkpt>
            <trkpt lat="54.951140" lon="-7.711640">
                <time>2019-06-14T15:38:33Z</time>
            </trkpt>
            <trkpt lat="54.951110" lon="-7.711690">
                <time>2019-06-14T15:38:34Z</time>
            </trkpt>
            <trkpt lat="54.951070" lon="-7.711740">
                <time>2019-06-14T15:38:35Z</time>
            </trkpt>
            <trkpt lat="54.951020" lon="-7.711810">
                <time>2019-06-14T15:38:36Z</time>
            </trkpt>
            <trkpt lat="54.950960" lon="-7.711890">
                <time>2019-06-14T15:38:37Z</time>
            </trkpt>
            <trkpt lat="54.950890" lon="-7.712000">
                <time>2019-06-14T15:38:38Z</time>
            </trkpt>
            <trkpt lat="54.950820" lon="-7.712110">
                <time>2019-06-14T15:38:39Z</time>
            </trkpt>
            <trkpt lat="54.950750" lon="-7.712220">
                <time>2019-06-14T15:38:40Z</time>
            </trkpt>
            <trkpt lat="54.950690" lon="-7.712310">
                <time>2019-06-14T15:38:41Z</time>
            </trkpt>
            <trkpt lat="54.950630" lon="-7.712390">
                <time>2019-06-14T15:38:42Z</time>
            </trkpt>
            <trkpt lat="54.950600" lon="-7.712460">
                <time>2019-06-14T15:38:43Z</time>
            </trkpt>
            <trkpt lat="54.950590" lon="-7.712550">
                <time>2019-06-14T15:38:44Z</time>
            </trkpt>
            <trkpt lat="54.950600" lon="-7.712640">
                <time>2019-06-14T15:38:45Z</time>
            </trkpt>
            <trkpt lat="54.950600" lon="-7.712720">
                <time>2019-06-14T15:38:46Z</time>
            </trkpt>
            <trkpt lat="54.950610" lon="-7.712790">
                <time>2019-06-14T15:38:47Z</time>
            </trkpt>
            <trkpt lat="54.950650" lon="-7.712850">
                <time>2019-06-14T15:38:48Z</time>
            </trkpt>
            <trkpt lat="54.950680" lon="-7.712900">
                <time>2019-06-14T15:38:49Z</time>
            </trkpt>
            <trkpt lat="54.950710" lon="-7.712950">
                <time>2019-06-14T15:38:50Z</time>
            </trkpt>
            <trkpt lat="54.950740" lon="-7.712990">
                <time>2019-06-14T15:38:51Z</time>
            </trkpt>
            <trkpt lat="54.950770" lon="-7.713020">
                <time>2019-06-14T15:38:52Z</time>
            </trkpt>
            <trkpt lat="54.950790" lon="-7.713040">
                <time>2019-06-14T15:38:53Z</time>
            </trkpt>
            <trkpt lat="54.950820" lon="-7.713080">
                <time>2019-06-14T15:38:54Z</time>
            </trkpt>
            <trkpt lat="54.950840" lon="-7.713100">
                <time>2019-06-14T15:38:55Z</time>
            </trkpt>
            <trkpt lat="54.950850" lon="-7.713130">
                <time>2019-06-14T15:38:56Z</time>
            </trkpt>
            <trkpt lat="54.950870" lon="-7.713160">
                <time>2019-06-14T15:38:57Z</time>
            </trkpt>
            <trkpt lat="54.950880" lon="-7.713200">
                <time>2019-06-14T15:38:58Z</time>
            </trkpt>
            <trkpt lat="54.950880" lon="-7.713250">
                <time>2019-06-14T15:38:59Z</time>
            </trkpt>
            <trkpt lat="54.950890" lon="-7.713280">
                <time>2019-06-14T15:39:00Z</time>
            </trkpt>
            <trkpt lat="54.950900" lon="-7.713310">
                <time>2019-06-14T15:39:01Z</time>
            </trkpt>
            <trkpt lat="54.950900" lon="-7.713340">
                <time>2019-06-14T15:39:02Z</time>
            </trkpt>
            <trkpt lat="54.950910" lon="-7.713370">
                <time>2019-06-14T15:39:03Z</time>
            </trkpt>
            <trkpt lat="54.950910" lon="-7.713400">
                <time>2019-06-14T15:39:04Z</time>
            </trkpt>
            <trkpt lat="54.950910" lon="-7.713430">
                <time>2019-06-14T15:39:05Z</time>
            </trkpt>
            <trkpt lat="54.950910" lon="-7.713460">
                <time>2019-06-14T15:39:06Z</time>
            </trkpt>
            <trkpt lat="54.950910" lon="-7.713480">
                <time>2019-06-14T15:39:07Z</time>
            </trkpt>
            <trkpt lat="54.950900" lon="-7.713500">
                <time>2019-06-14T15:39:08Z</time>
            </trkpt>
            <trkpt lat="54.950880" lon="-7.713510">
                <time>2019-06-14T15:39:09Z</time>
            </trkpt>
            <trkpt lat="54.950870" lon="-7.713520">
                <time>2019-06-14T15:39:10Z</time>
            </trkpt>
            <trkpt lat="54.950860" lon="-7.713530">
                <time>2019-06-14T15:39:11Z</time>
            </trkpt>
            <trkpt lat="54.950850" lon="-7.713540">
                <time>2019-06-14T15:39:12Z</time>
            </trkpt>
            <trkpt lat="54.950850" lon="-7.713540">
                <time>2019-06-14T15:39:13Z</time>
            </trkpt>
            <trkpt lat="54.950840" lon="-7.713540">
                <time>2019-06-14T15:39:14Z</time>
            </trkpt>
            <trkpt lat="54.950840" lon="-7.713550">
                <time>2019-06-14T15:39:15Z</time>
            </trkpt>
            <trkpt lat="54.950840" lon="-7.713550">
                <time>2019-06-14T15:39:16Z</time>
            </trkpt>
            <trkpt lat="54.950840" lon="-7.713550">
                <time>2019-06-14T15:39:17Z</time>
            </trkpt>
            <trkpt lat="54.950840" lon="-7.713540">
                <time>2019-06-14T15:39:18Z</time>
            </trkpt>
            <trkpt lat="54.950830" lon="-7.713530">
                <time>2019-06-14T15:39:19Z</time>
            </trkpt>
            <trkpt lat="54.950830" lon="-7.713530">
                <time>2019-06-14T15:39:20Z</time>
            </trkpt>
            <trkpt lat="54.950820" lon="-7.713530">
                <time>2019-06-14T15:39:21Z</time>
            </trkpt>
            <trkpt lat="54.950820" lon="-7.713530">
                <time>2019-06-14T15:39:22Z</time>
            </trkpt>
            <trkpt lat="54.950820" lon="-7.713540">
                <time>2019-06-14T15:39:23Z</time>
            </trkpt>
            <trkpt lat="54.950810" lon="-7.713540">
                <time>2019-06-14T15:39:24Z</time>
            </trkpt>
            <trkpt lat="54.950800" lon="-7.713540">
                <time>2019-06-14T15:39:25Z</time>
            </trkpt>
            <trkpt lat="54.950790" lon="-7.713540">
                <time>2019-06-14T15:39:26Z</time>
            </trkpt>
            <trkpt lat="54.950770" lon="-7.713540">
                <time>2019-06-14T15:39:27Z</time>
            </trkpt>
            <trkpt lat="54.950760" lon="-7.713540">
                <time>2019-06-14T15:39:28Z</time>
            </trkpt>
            <trkpt lat="54.950750" lon="-7.713540">
                <time>2019-06-14T15:39:29Z</time>
            </trkpt>
            <trkpt lat="54.950750" lon="-7.713530">
                <time>2019-06-14T15:39:30Z</time>
            </trkpt>
            <trkpt lat="54.950760" lon="-7.713530">
                <time>2019-06-14T15:39:31Z</time>
            </trkpt>
            <trkpt lat="54.950760" lon="-7.713530">
                <time>2019-06-14T15:39:32Z</time>
            </trkpt>
            <trkpt lat="54.950760" lon="-7.713540">
                <time>2019-06-14T15:39:33Z</time>
            </trkpt>
            <trkpt lat="54.950770" lon="-7.713550">
                <time>2019-06-14T15:39:34Z</time>
            </trkpt>
            <trkpt lat="54.950780" lon="-7.713560">
                <time>2019-06-14T15:39:35Z</time>
            </trkpt>
            <trkpt lat="54.950780" lon="-7.713570">
                <time>2019-06-14T15:39:36Z</time>
            </trkpt>
            <trkpt lat="54.950790" lon="-7.713570">
                <time>2019-06-14T15:39:37Z</time>
            </trkpt>
            <trkpt lat="54.950790" lon="-7.713570">
                <time>2019-06-14T15:39:38Z</time>
            </trkpt>
            <trkpt lat="54.950810" lon="-7.713550">
                <time>2019-06-14T15:39:39Z</time>
            </trkpt>
            <trkpt lat="54.950830" lon="-7.713540">
                <time>2019-06-14T15:39:40Z</time>
            </trkpt>
            <trkpt lat="54.950830" lon="-7.713530">
                <time>2019-06-14T15:39:41Z</time>
            </trkpt>
            <trkpt lat="54.950840" lon="-7.713510">
                <time>2019-06-14T15:39:42Z</time>
            </trkpt>
            <trkpt lat="54.950850" lon="-7.713500">
                <time>2019-06-14T15:39:43Z</time>
            </trkpt>
            <trkpt lat="54.950850" lon="-7.713480">
                <time>2019-06-14T15:39:44Z</time>
            </trkpt>
            <trkpt lat="54.950860" lon="-7.713470">
                <time>2019-06-14T15:39:45Z</time>
            </trkpt>
            <trkpt lat="54.950880" lon="-7.713450">
                <time>2019-06-14T15:39:46Z</time>
            </trkpt>
            <trkpt lat="54.950900" lon="-7.713430">
                <time>2019-06-14T15:39:47Z</time>
            </trkpt>
            <trkpt lat="54.950910" lon="-7.713420">
                <time>2019-06-14T15:39:48Z</time>
            </trkpt>
            <trkpt lat="54.950920" lon="-7.713410">
                <time>2019-06-14T15:39:49Z</time>
            </trkpt>
            <trkpt lat="54.950930" lon="-7.713410">
                <time>2019-06-14T15:39:50Z</time>
            </trkpt>
            <trkpt lat="54.950940" lon="-7.713400">
                <time>2019-06-14T15:39:51Z</time>
            </trkpt>
            <trkpt lat="54.950960" lon="-7.713390">
                <time>2019-06-14T15:39:52Z</time>
            </trkpt>
            <trkpt lat="54.950970" lon="-7.713380">
                <time>2019-06-14T15:39:53Z</time>
            </trkpt>
            <trkpt lat="54.950980" lon="-7.713370">
                <time>2019-06-14T15:39:54Z</time>
            </trkpt>
            <trkpt lat="54.950990" lon="-7.713360">
                <time>2019-06-14T15:39:55Z</time>
            </trkpt>
            <trkpt lat="54.951000" lon="-7.713350">
                <time>2019-06-14T15:39:56Z</time>
            </trkpt>
            <trkpt lat="54.951000" lon="-7.713350">
                <time>2019-06-14T15:39:57Z</time>
            </trkpt>
            <trkpt lat="54.950990" lon="-7.713360">
                <time>2019-06-14T15:39:58Z</time>
            </trkpt>
            <trkpt lat="54.951000" lon="-7.713380">
                <time>2019-06-14T15:39:59Z</time>
            </trkpt>
            <trkpt lat="54.951010" lon="-7.713400">
                <time>2019-06-14T15:40:00Z</time>
            </trkpt>
            <trkpt lat="54.951010" lon="-7.713410">
                <time>2019-06-14T15:40:01Z</time>
            </trkpt>
            <trkpt lat="54.951010" lon="-7.713430">
                <time>2019-06-14T15:40:02Z</time>
            </trkpt>
            <trkpt lat="54.951010" lon="-7.713450">
                <time>2019-06-14T15:40:03Z</time>
            </trkpt>
            <trkpt lat="54.951000" lon="-7.713480">
                <time>2019-06-14T15:40:04Z</time>
            </trkpt>
            <trkpt lat="54.951000" lon="-7.713490">
                <time>2019-06-14T15:40:05Z</time>
            </trkpt>
            <trkpt lat="54.951000" lon="-7.713510">
                <time>2019-06-14T15:40:06Z</time>
            </trkpt>
            <trkpt lat="54.951010" lon="-7.713520">
                <time>2019-06-14T15:40:07Z</time>
            </trkpt>
            <trkpt lat="54.951000" lon="-7.713520">
                <time>2019-06-14T15:40:08Z</time>
            </trkpt>
            <trkpt lat="54.951010" lon="-7.713530">
                <time>2019-06-14T15:40:09Z</time>
            </trkpt>
            <trkpt lat="54.951010" lon="-7.713520">
                <time>2019-06-14T15:40:10Z</time>
            </trkpt>
            <trkpt lat="54.951020" lon="-7.713530">
                <time>2019-06-14T15:40:11Z</time>
            </trkpt>
            <trkpt lat="54.951030" lon="-7.713540">
                <time>2019-06-14T15:40:12Z</time>
            </trkpt>
            <trkpt lat="54.951050" lon="-7.713550">
                <time>2019-06-14T15:40:13Z</time>
            </trkpt>
            <trkpt lat="54.951060" lon="-7.713560">
                <time>2019-06-14T15:40:14Z</time>
            </trkpt>
            <trkpt lat="54.951080" lon="-7.713570">
                <time>2019-06-14T15:40:15Z</time>
            </trkpt>
            <trkpt lat="54.951090" lon="-7.713590">
                <time>2019-06-14T15:40:16Z</time>
            </trkpt>
            <trkpt lat="54.951110" lon="-7.713610">
                <time>2019-06-14T15:40:17Z</time>
            </trkpt>
            <trkpt lat="54.951120" lon="-7.713630">
                <time>2019-06-14T15:40:18Z</time>
            </trkpt>
            <trkpt lat="54.951130" lon="-7.713630">
                <time>2019-06-14T15:40:19Z</time>
            </trkpt>
            <trkpt lat="54.951120" lon="-7.713640">
                <time>2019-06-14T15:40:20Z</time>
            </trkpt>
            <trkpt lat="54.951100" lon="-7.713650">
                <time>2019-06-14T15:40:21Z</time>
            </trkpt>
            <trkpt lat="54.951100" lon="-7.713670">
                <time>2019-06-14T15:40:22Z</time>
            </trkpt>
            <trkpt lat="54.951110" lon="-7.713670">
                <time>2019-06-14T15:40:23Z</time>
            </trkpt>
            <trkpt lat="54.951120" lon="-7.713670">
                <time>2019-06-14T15:40:24Z</time>
            </trkpt>
            <trkpt lat="54.951120" lon="-7.713680">
                <time>2019-06-14T15:40:25Z</time>
            </trkpt>
            <trkpt lat="54.951120" lon="-7.713690">
                <time>2019-06-14T15:40:26Z</time>
            </trkpt>
            <trkpt lat="54.950460" lon="-7.713380">
                <time>2019-06-14T15:56:41Z</time>
            </trkpt>
            <trkpt lat="54.950510" lon="-7.713360">
                <time>2019-06-14T15:56:42Z</time>
            </trkpt>
            <trkpt lat="54.950510" lon="-7.713380">
                <time>2019-06-14T15:56:43Z</time>
            </trkpt>
            <trkpt lat="54.950510" lon="-7.713400">
                <time>2019-06-14T15:56:44Z</time>
            </trkpt>
            <trkpt lat="54.950510" lon="-7.713410">
                <time>2019-06-14T15:56:45Z</time>
            </trkpt>
            <trkpt lat="54.950500" lon="-7.713380">
                <time>2019-06-14T15:56:46Z</time>
            </trkpt>
            <trkpt lat="54.950510" lon="-7.713370">
                <time>2019-06-14T15:56:47Z</time>
            </trkpt>
            <trkpt lat="54.950510" lon="-7.713360">
                <time>2019-06-14T15:56:48Z</time>
            </trkpt>
            <trkpt lat="54.950520" lon="-7.713370">
                <time>2019-06-14T15:56:49Z</time>
            </trkpt>
            <trkpt lat="54.950520" lon="-7.713370">
                <time>2019-06-14T15:56:50Z</time>
            </trkpt>
            <trkpt lat="54.950530" lon="-7.713370">
                <time>2019-06-14T15:56:51Z</time>
            </trkpt>
            <trkpt lat="54.950530" lon="-7.713370">
                <time>2019-06-14T15:56:52Z</time>
            </trkpt>
            <trkpt lat="54.950530" lon="-7.713370">
                <time>2019-06-14T15:56:53Z</time>
            </trkpt>
            <trkpt lat="54.950540" lon="-7.713380">
                <time>2019-06-14T15:56:54Z</time>
            </trkpt>
            <trkpt lat="54.950540" lon="-7.713380">
                <time>2019-06-14T15:56:55Z</time>
            </trkpt>
            <trkpt lat="54.950540" lon="-7.713380">
                <time>2019-06-14T15:56:56Z</time>
            </trkpt>
            <trkpt lat="54.950540" lon="-7.713380">
                <time>2019-06-14T15:56:57Z</time>
            </trkpt>
            <trkpt lat="54.950540" lon="-7.713380">
                <time>2019-06-14T15:56:58Z</time>
            </trkpt>
            <trkpt lat="54.950540" lon="-7.713380">
                <time>2019-06-14T15:56:59Z</time>
            </trkpt>
            <trkpt lat="54.950540" lon="-7.713380">
                <time>2019-06-14T15:57:00Z</time>
            </trkpt>
            <trkpt lat="54.950540" lon="-7.713380">
                <time>2019-06-14T15:57:01Z</time>
            </trkpt>
            <trkpt lat="54.950540" lon="-7.713380">
                <time>2019-06-14T15:57:02Z</time>
            </trkpt>
            <trkpt lat="54.950540" lon="-7.713380">
                <time>2019-06-14T15:57:03Z</time>
            </trkpt>
            <trkpt lat="54.950540" lon="-7.713380">
                <time>2019-06-14T15:57:04Z</time>
            </trkpt>
            <trkpt lat="54.950540" lon="-7.713380">
                <time>2019-06-14T15:57:05Z</time>
            </trkpt>
            <trkpt lat="54.950540" lon="-7.713380">
                <time>2019-06-14T15:57:06Z</time>
            </trkpt>
            <trkpt lat="54.950540" lon="-7.713380">
                <time>2019-06-14T15:57:07Z</time>
            </trkpt>
            <trkpt lat="54.950540" lon="-7.713380">
                <time>2019-06-14T15:57:08Z</time>
            </trkpt>
            <trkpt lat="54.950540" lon="-7.713380">
                <time>2019-06-14T15:57:09Z</time>
            </trkpt>
            <trkpt lat="54.950540" lon="-7.713380">
                <time>2019-06-14T15:57:10Z</time>
            </trkpt>
            <trkpt lat="54.950540" lon="-7.713380">
                <time>2019-06-14T15:57:11Z</time>
            </trkpt>
            <trkpt lat="54.950540" lon="-7.713380">
                <time>2019-06-14T15:57:12Z</time>
            </trkpt>
            <trkpt lat="54.950540" lon="-7.713380">
                <time>2019-06-14T15:57:13Z</time>
            </trkpt>
            <trkpt lat="54.950540" lon="-7.713380">
                <time>2019-06-14T15:57:14Z</time>
            </trkpt>
            <trkpt lat="54.950540" lon="-7.713380">
                <time>2019-06-14T15:57:15Z</time>
            </trkpt>
            <trkpt lat="54.950550" lon="-7.713380">
                <time>2019-06-14T15:57:16Z</time>
            </trkpt>
            <trkpt lat="54.950550" lon="-7.713380">
                <time>2019-06-14T15:57:17Z</time>
            </trkpt>
            <trkpt lat="54.950550" lon="-7.713380">
                <time>2019-06-14T15:57:18Z</time>
            </trkpt>
            <trkpt lat="54.950550" lon="-7.713380">
                <time>2019-06-14T15:57:19Z</time>
            </trkpt>
            <trkpt lat="54.950550" lon="-7.713380">
                <time>2019-06-14T15:57:20Z</time>
            </trkpt>
            <trkpt lat="54.950550" lon="-7.713380">
                <time>2019-06-14T15:57:21Z</time>
            </trkpt>
            <trkpt lat="54.950550" lon="-7.713380">
                <time>2019-06-14T15:57:22Z</time>
            </trkpt>
            <trkpt lat="54.950550" lon="-7.713380">
                <time>2019-06-14T15:57:23Z</time>
            </trkpt>
            <trkpt lat="54.950550" lon="-7.713380">
                <time>2019-06-14T15:57:24Z</time>
            </trkpt>
            <trkpt lat="54.950550" lon="-7.713380">
                <time>2019-06-14T15:57:25Z</time>
            </trkpt>
            <trkpt lat="54.950550" lon="-7.713380">
                <time>2019-06-14T15:57:26Z</time>
            </trkpt>
            <trkpt lat="54.950550" lon="-7.713380">
                <time>2019-06-14T15:57:27Z</time>
            </trkpt>
            <trkpt lat="54.950550" lon="-7.713380">
                <time>2019-06-14T15:57:28Z</time>
            </trkpt>
            <trkpt lat="54.950550" lon="-7.713380">
                <time>2019-06-14T15:57:29Z</time>
            </trkpt>
            <trkpt lat="54.950550" lon="-7.713380">
                <time>2019-06-14T15:57:30Z</time>
            </trkpt>
            <trkpt lat="54.950550" lon="-7.713380">
                <time>2019-06-14T15:57:31Z</time>
            </trkpt>
            <trkpt lat="54.950550" lon="-7.713380">
                <time>2019-06-14T15:57:32Z</time>
            </trkpt>
            <trkpt lat="54.950550" lon="-7.713380">
                <time>2019-06-14T15:57:33Z</time>
            </trkpt>
            <trkpt lat="54.950550" lon="-7.713380">
                <time>2019-06-14T15:57:34Z</time>
            </trkpt>
            <trkpt lat="54.950550" lon="-7.713380">
                <time>2019-06-14T15:57:35Z</time>
            </trkpt>
            <trkpt lat="54.950550" lon="-7.713380">
                <time>2019-06-14T15:57:36Z</time>
            </trkpt>
            <trkpt lat="54.950550" lon="-7.713380">
                <time>2019-06-14T15:57:37Z</time>
            </trkpt>
            <trkpt lat="54.950550" lon="-7.713380">
                <time>2019-06-14T15:57:38Z</time>
            </trkpt>
            <trkpt lat="54.950550" lon="-7.713380">
                <time>2019-06-14T15:57:39Z</time>
            </trkpt>
            <trkpt lat="54.950550" lon="-7.713380">
                <time>2019-06-14T15:57:40Z</time>
            </trkpt>
            <trkpt lat="54.950550" lon="-7.713380">
                <time>2019-06-14T15:57:41Z</time>
            </trkpt>
            <trkpt lat="54.950550" lon="-7.713380">
                <time>2019-06-14T15:57:42Z</time>
            </trkpt>
            <trkpt lat="54.950550" lon="-7.713380">
                <time>2019-06-14T15:57:43Z</time>
            </trkpt>
            <trkpt lat="54.950550" lon="-7.713380">
                <time>2019-06-14T15:57:44Z</time>
            </trkpt>
            <trkpt lat="54.950550" lon="-7.713380">
                <time>2019-06-14T15:57:45Z</time>
            </trkpt>
            <trkpt lat="54.950550" lon="-7.713380">
                <time>2019-06-14T15:57:46Z</time>
            </trkpt>
            <trkpt lat="54.950550" lon="-7.713380">
                <time>2019-06-14T15:57:47Z</time>
            </trkpt>
            <trkpt lat="54.950550" lon="-7.713380">
                <time>2019-06-14T15:57:48Z</time>
            </trkpt>
            <trkpt lat="54.950550" lon="-7.713380">
                <time>2019-06-14T15:57:49Z</time>
            </trkpt>
            <trkpt lat="54.950550" lon="-7.713380">
                <time>2019-06-14T15:57:50Z</time>
            </trkpt>
            <trkpt lat="54.950550" lon="-7.713380">
                <time>2019-06-14T15:57:51Z</time>
            </trkpt>
            <trkpt lat="54.950550" lon="-7.713380">
                <time>2019-06-14T15:57:52Z</time>
            </trkpt>
            <trkpt lat="54.950550" lon="-7.713380">
                <time>2019-06-14T15:57:53Z</time>
            </trkpt>
            <trkpt lat="54.950550" lon="-7.713380">
                <time>2019-06-14T15:57:54Z</time>
            </trkpt>
            <trkpt lat="54.950550" lon="-7.713380">
                <time>2019-06-14T15:57:55Z</time>
            </trkpt>
            <trkpt lat="54.950550" lon="-7.713380">
                <time>2019-06-14T15:57:56Z</time>
            </trkpt>
            <trkpt lat="54.950550" lon="-7.713380">
                <time>2019-06-14T15:57:57Z</time>
            </trkpt>
            <trkpt lat="54.950550" lon="-7.713380">
                <time>2019-06-14T15:57:58Z</time>
            </trkpt>
            <trkpt lat="54.950550" lon="-7.713380">
                <time>2019-06-14T15:57:59Z</time>
            </trkpt>
            <trkpt lat="54.950550" lon="-7.713380">
                <time>2019-06-14T15:58:00Z</time>
            </trkpt>
            <trkpt lat="54.950550" lon="-7.713380">
                <time>2019-06-14T15:58:01Z</time>
            </trkpt>
            <trkpt lat="54.950550" lon="-7.713380">
                <time>2019-06-14T15:58:02Z</time>
            </trkpt>
            <trkpt lat="54.950550" lon="-7.713380">
                <time>2019-06-14T15:58:03Z</time>
            </trkpt>
            <trkpt lat="54.950550" lon="-7.713380">
                <time>2019-06-14T15:58:04Z</time>
            </trkpt>
            <trkpt lat="54.950550" lon="-7.713380">
                <time>2019-06-14T15:58:05Z</time>
            </trkpt>
            <trkpt lat="54.950550" lon="-7.713380">
                <time>2019-06-14T15:58:06Z</time>
            </trkpt>
            <trkpt lat="54.950550" lon="-7.713380">
                <time>2019-06-14T15:58:07Z</time>
            </trkpt>
            <trkpt lat="54.950550" lon="-7.713380">
                <time>2019-06-14T15:58:08Z</time>
            </trkpt>
            <trkpt lat="54.950550" lon="-7.713380">
                <time>2019-06-14T15:58:09Z</time>
            </trkpt>
            <trkpt lat="54.950550" lon="-7.713380">
                <time>2019-06-14T15:58:10Z</time>
            </trkpt>
            <trkpt lat="54.950550" lon="-7.713380">
                <time>2019-06-14T15:58:11Z</time>
            </trkpt>
            <trkpt lat="54.950550" lon="-7.713380">
                <time>2019-06-14T15:58:12Z</time>
            </trkpt>
            <trkpt lat="54.950550" lon="-7.713380">
                <time>2019-06-14T15:58:13Z</time>
            </trkpt>
            <trkpt lat="54.950570" lon="-7.713380">
                <time>2019-06-14T15:58:14Z</time>
            </trkpt>
            <trkpt lat="54.950580" lon="-7.713380">
                <time>2019-06-14T15:58:15Z</time>
            </trkpt>
            <trkpt lat="54.950630" lon="-7.713390">
                <time>2019-06-14T15:58:16Z</time>
            </trkpt>
            <trkpt lat="54.950960" lon="-7.713470">
                <time>2019-06-14T16:02:50Z</time>
            </trkpt>
            <trkpt lat="54.950970" lon="-7.713460">
                <time>2019-06-14T16:02:51Z</time>
            </trkpt>
            <trkpt lat="54.950990" lon="-7.713330">
                <time>2019-06-14T16:02:52Z</time>
            </trkpt>
            <trkpt lat="54.950980" lon="-7.713330">
                <time>2019-06-14T16:02:53Z</time>
            </trkpt>
            <trkpt lat="54.950960" lon="-7.713340">
                <time>2019-06-14T16:02:54Z</time>
            </trkpt>
            <trkpt lat="54.950950" lon="-7.713300">
                <time>2019-06-14T16:02:55Z</time>
            </trkpt>
            <trkpt lat="54.950890" lon="-7.713310">
                <time>2019-06-14T16:02:56Z</time>
            </trkpt>
            <trkpt lat="54.950860" lon="-7.713200">
                <time>2019-06-14T16:02:57Z</time>
            </trkpt>
            <trkpt lat="54.950840" lon="-7.713120">
                <time>2019-06-14T16:02:58Z</time>
            </trkpt>
            <trkpt lat="54.950810" lon="-7.713070">
                <time>2019-06-14T16:02:59Z</time>
            </trkpt>
            <trkpt lat="54.950770" lon="-7.713010">
                <time>2019-06-14T16:03:00Z</time>
            </trkpt>
            <trkpt lat="54.950730" lon="-7.712940">
                <time>2019-06-14T16:03:01Z</time>
            </trkpt>
            <trkpt lat="54.950690" lon="-7.712890">
                <time>2019-06-14T16:03:02Z</time>
            </trkpt>
            <trkpt lat="54.950650" lon="-7.712840">
                <time>2019-06-14T16:03:03Z</time>
            </trkpt>
            <trkpt lat="54.950620" lon="-7.712780">
                <time>2019-06-14T16:03:04Z</time>
            </trkpt>
            <trkpt lat="54.950590" lon="-7.712740">
                <time>2019-06-14T16:03:05Z</time>
            </trkpt>
            <trkpt lat="54.950580" lon="-7.712710">
                <time>2019-06-14T16:03:06Z</time>
            </trkpt>
            <trkpt lat="54.950560" lon="-7.712690">
                <time>2019-06-14T16:03:07Z</time>
            </trkpt>
            <trkpt lat="54.950560" lon="-7.712680">
                <time>2019-06-14T16:03:08Z</time>
            </trkpt>
            <trkpt lat="54.950550" lon="-7.712680">
                <time>2019-06-14T16:03:09Z</time>
            </trkpt>
            <trkpt lat="54.950550" lon="-7.712680">
                <time>2019-06-14T16:03:10Z</time>
            </trkpt>
            <trkpt lat="54.950540" lon="-7.712680">
                <time>2019-06-14T16:03:11Z</time>
            </trkpt>
            <trkpt lat="54.950540" lon="-7.712690">
                <time>2019-06-14T16:03:12Z</time>
            </trkpt>
            <trkpt lat="54.950540" lon="-7.712680">
                <time>2019-06-14T16:03:13Z</time>
            </trkpt>
            <trkpt lat="54.950550" lon="-7.712680">
                <time>2019-06-14T16:03:14Z</time>
            </trkpt>
            <trkpt lat="54.950550" lon="-7.712680">
                <time>2019-06-14T16:03:15Z</time>
            </trkpt>
            <trkpt lat="54.950560" lon="-7.712680">
                <time>2019-06-14T16:03:16Z</time>
            </trkpt>
            <trkpt lat="54.950560" lon="-7.712690">
                <time>2019-06-14T16:03:17Z</time>
            </trkpt>
            <trkpt lat="54.950560" lon="-7.712690">
                <time>2019-06-14T16:03:18Z</time>
            </trkpt>
            <trkpt lat="54.950560" lon="-7.712680">
                <time>2019-06-14T16:03:19Z</time>
            </trkpt>
            <trkpt lat="54.950570" lon="-7.712680">
                <time>2019-06-14T16:03:20Z</time>
            </trkpt>
            <trkpt lat="54.950570" lon="-7.712690">
                <time>2019-06-14T16:03:21Z</time>
            </trkpt>
            <trkpt lat="54.950570" lon="-7.712680">
                <time>2019-06-14T16:03:22Z</time>
            </trkpt>
            <trkpt lat="54.950570" lon="-7.712680">
                <time>2019-06-14T16:03:23Z</time>
            </trkpt>
            <trkpt lat="54.950570" lon="-7.712680">
                <time>2019-06-14T16:03:24Z</time>
            </trkpt>
            <trkpt lat="54.950570" lon="-7.712680">
                <time>2019-06-14T16:03:25Z</time>
            </trkpt>
            <trkpt lat="54.950570" lon="-7.712680">
                <time>2019-06-14T16:03:26Z</time>
            </trkpt>
            <trkpt lat="54.950570" lon="-7.712680">
                <time>2019-06-14T16:03:27Z</time>
            </trkpt>
            <trkpt lat="54.950570" lon="-7.712640">
                <time>2019-06-14T16:03:28Z</time>
            </trkpt>
            <trkpt lat="54.950580" lon="-7.712590">
                <time>2019-06-14T16:03:29Z</time>
            </trkpt>
            <trkpt lat="54.950630" lon="-7.712510">
                <time>2019-06-14T16:03:30Z</time>
            </trkpt>
            <trkpt lat="54.950690" lon="-7.712420">
                <time>2019-06-14T16:03:31Z</time>
            </trkpt>
            <trkpt lat="54.950740" lon="-7.712340">
                <time>2019-06-14T16:03:32Z</time>
            </trkpt>
            <trkpt lat="54.950790" lon="-7.712270">
                <time>2019-06-14T16:03:33Z</time>
            </trkpt>
            <trkpt lat="54.950840" lon="-7.712200">
                <time>2019-06-14T16:03:34Z</time>
            </trkpt>
            <trkpt lat="54.950890" lon="-7.712140">
                <time>2019-06-14T16:03:35Z</time>
            </trkpt>
            <trkpt lat="54.950940" lon="-7.712080">
                <time>2019-06-14T16:03:36Z</time>
            </trkpt>
            <trkpt lat="54.951000" lon="-7.712000">
                <time>2019-06-14T16:03:37Z</time>
            </trkpt>
            <trkpt lat="54.951080" lon="-7.711880">
                <time>2019-06-14T16:03:38Z</time>
            </trkpt>
            <trkpt lat="54.951170" lon="-7.711770">
                <time>2019-06-14T16:03:39Z</time>
            </trkpt>
            <trkpt lat="54.951260" lon="-7.711640">
                <time>2019-06-14T16:03:40Z</time>
            </trkpt>
            <trkpt lat="54.951340" lon="-7.711530">
                <time>2019-06-14T16:03:41Z</time>
            </trkpt>
            <trkpt lat="54.951420" lon="-7.711440">
                <time>2019-06-14T16:03:42Z</time>
            </trkpt>
            <trkpt lat="54.951500" lon="-7.711360">
                <time>2019-06-14T16:03:43Z</time>
            </trkpt>
            <trkpt lat="54.951570" lon="-7.711320">
                <time>2019-06-14T16:03:44Z</time>
            </trkpt>
            <trkpt lat="54.951640" lon="-7.711320">
                <time>2019-06-14T16:03:45Z</time>
            </trkpt>
            <trkpt lat="54.951720" lon="-7.711370">
                <time>2019-06-14T16:03:46Z</time>
            </trkpt>
            <trkpt lat="54.951780" lon="-7.711460">
                <time>2019-06-14T16:03:47Z</time>
            </trkpt>
            <trkpt lat="54.951820" lon="-7.711600">
                <time>2019-06-14T16:03:48Z</time>
            </trkpt>
            <trkpt lat="54.951840" lon="-7.711760">
                <time>2019-06-14T16:03:49Z</time>
            </trkpt>
            <trkpt lat="54.951850" lon="-7.711950">
                <time>2019-06-14T16:03:50Z</time>
            </trkpt>
            <trkpt lat="54.951860" lon="-7.712150">
                <time>2019-06-14T16:03:51Z</time>
            </trkpt>
            <trkpt lat="54.951860" lon="-7.712360">
                <time>2019-06-14T16:03:52Z</time>
            </trkpt>
            <trkpt lat="54.951870" lon="-7.712560">
                <time>2019-06-14T16:03:53Z</time>
            </trkpt>
            <trkpt lat="54.951870" lon="-7.712730">
                <time>2019-06-14T16:03:54Z</time>
            </trkpt>
            <trkpt lat="54.951870" lon="-7.712910">
                <time>2019-06-14T16:03:55Z</time>
            </trkpt>
            <trkpt lat="54.951880" lon="-7.713100">
                <time>2019-06-14T16:03:56Z</time>
            </trkpt>
            <trkpt lat="54.951880" lon="-7.713300">
                <time>2019-06-14T16:03:57Z</time>
            </trkpt>
            <trkpt lat="54.951880" lon="-7.713490">
                <time>2019-06-14T16:03:58Z</time>
            </trkpt>
            <trkpt lat="54.951890" lon="-7.713670">
                <time>2019-06-14T16:03:59Z</time>
            </trkpt>
            <trkpt lat="54.951890" lon="-7.713850">
                <time>2019-06-14T16:04:00Z</time>
            </trkpt>
            <trkpt lat="54.951910" lon="-7.714040">
                <time>2019-06-14T16:04:01Z</time>
            </trkpt>
            <trkpt lat="54.951920" lon="-7.714250">
                <time>2019-06-14T16:04:02Z</time>
            </trkpt>
            <trkpt lat="54.951940" lon="-7.714470">
                <time>2019-06-14T16:04:03Z</time>
            </trkpt>
            <trkpt lat="54.951970" lon="-7.714670">
                <time>2019-06-14T16:04:04Z</time>
            </trkpt>
            <trkpt lat="54.952010" lon="-7.714860">
                <time>2019-06-14T16:04:05Z</time>
            </trkpt>
            <trkpt lat="54.952050" lon="-7.715050">
                <time>2019-06-14T16:04:06Z</time>
            </trkpt>
            <trkpt lat="54.952090" lon="-7.715240">
                <time>2019-06-14T16:04:07Z</time>
            </trkpt>
            <trkpt lat="54.952140" lon="-7.715430">
                <time>2019-06-14T16:04:08Z</time>
            </trkpt>
            <trkpt lat="54.952180" lon="-7.715620">
                <time>2019-06-14T16:04:09Z</time>
            </trkpt>
            <trkpt lat="54.952220" lon="-7.715810">
                <time>2019-06-14T16:04:10Z</time>
            </trkpt>
            <trkpt lat="54.952270" lon="-7.715990">
                <time>2019-06-14T16:04:11Z</time>
            </trkpt>
            <trkpt lat="54.952320" lon="-7.716170">
                <time>2019-06-14T16:04:12Z</time>
            </trkpt>
            <trkpt lat="54.952360" lon="-7.716360">
                <time>2019-06-14T16:04:13Z</time>
            </trkpt>
            <trkpt lat="54.952410" lon="-7.716560">
                <time>2019-06-14T16:04:14Z</time>
            </trkpt>
            <trkpt lat="54.952450" lon="-7.716750">
                <time>2019-06-14T16:04:15Z</time>
            </trkpt>
            <trkpt lat="54.952500" lon="-7.716940">
                <time>2019-06-14T16:04:16Z</time>
            </trkpt>
            <trkpt lat="54.952550" lon="-7.717130">
                <time>2019-06-14T16:04:17Z</time>
            </trkpt>
            <trkpt lat="54.952590" lon="-7.717330">
                <time>2019-06-14T16:04:18Z</time>
            </trkpt>
            <trkpt lat="54.952640" lon="-7.717530">
                <time>2019-06-14T16:04:19Z</time>
            </trkpt>
            <trkpt lat="54.952690" lon="-7.717730">
                <time>2019-06-14T16:04:20Z</time>
            </trkpt>
            <trkpt lat="54.952740" lon="-7.717940">
                <time>2019-06-14T16:04:21Z</time>
            </trkpt>
            <trkpt lat="54.952790" lon="-7.718160">
                <time>2019-06-14T16:04:22Z</time>
            </trkpt>
            <trkpt lat="54.952840" lon="-7.718370">
                <time>2019-06-14T16:04:23Z</time>
            </trkpt>
            <trkpt lat="54.952890" lon="-7.718590">
                <time>2019-06-14T16:04:24Z</time>
            </trkpt>
            <trkpt lat="54.952930" lon="-7.718800">
                <time>2019-06-14T16:04:25Z</time>
            </trkpt>
            <trkpt lat="54.952980" lon="-7.718990">
                <time>2019-06-14T16:04:26Z</time>
            </trkpt>
            <trkpt lat="54.953030" lon="-7.719200">
                <time>2019-06-14T16:04:27Z</time>
            </trkpt>
            <trkpt lat="54.953080" lon="-7.719390">
                <time>2019-06-14T16:04:28Z</time>
            </trkpt>
            <trkpt lat="54.953120" lon="-7.719570">
                <time>2019-06-14T16:04:29Z</time>
            </trkpt>
            <trkpt lat="54.953170" lon="-7.719750">
                <time>2019-06-14T16:04:30Z</time>
            </trkpt>
            <trkpt lat="54.953220" lon="-7.719960">
                <time>2019-06-14T16:04:31Z</time>
            </trkpt>
            <trkpt lat="54.953270" lon="-7.720190">
                <time>2019-06-14T16:04:32Z</time>
            </trkpt>
            <trkpt lat="54.953330" lon="-7.720420">
                <time>2019-06-14T16:04:33Z</time>
            </trkpt>
            <trkpt lat="54.953380" lon="-7.720640">
                <time>2019-06-14T16:04:34Z</time>
            </trkpt>
            <trkpt lat="54.953440" lon="-7.720850">
                <time>2019-06-14T16:04:35Z</time>
            </trkpt>
            <trkpt lat="54.953500" lon="-7.721040">
                <time>2019-06-14T16:04:36Z</time>
            </trkpt>
            <trkpt lat="54.953560" lon="-7.721220">
                <time>2019-06-14T16:04:37Z</time>
            </trkpt>
            <trkpt lat="54.953620" lon="-7.721390">
                <time>2019-06-14T16:04:38Z</time>
            </trkpt>
            <trkpt lat="54.953690" lon="-7.721540">
                <time>2019-06-14T16:04:39Z</time>
            </trkpt>
            <trkpt lat="54.953740" lon="-7.721680">
                <time>2019-06-14T16:04:40Z</time>
            </trkpt>
            <trkpt lat="54.953790" lon="-7.721790">
                <time>2019-06-14T16:04:41Z</time>
            </trkpt>
            <trkpt lat="54.953820" lon="-7.721890">
                <time>2019-06-14T16:04:42Z</time>
            </trkpt>
            <trkpt lat="54.953860" lon="-7.721980">
                <time>2019-06-14T16:04:43Z</time>
            </trkpt>
            <trkpt lat="54.953910" lon="-7.722090">
                <time>2019-06-14T16:04:44Z</time>
            </trkpt>
            <trkpt lat="54.953970" lon="-7.722230">
                <time>2019-06-14T16:04:45Z</time>
            </trkpt>
            <trkpt lat="54.954030" lon="-7.722370">
                <time>2019-06-14T16:04:46Z</time>
            </trkpt>
            <trkpt lat="54.954080" lon="-7.722520">
                <time>2019-06-14T16:04:47Z</time>
            </trkpt>
            <trkpt lat="54.954140" lon="-7.722670">
                <time>2019-06-14T16:04:48Z</time>
            </trkpt>
            <trkpt lat="54.954200" lon="-7.722830">
                <time>2019-06-14T16:04:49Z</time>
            </trkpt>
            <trkpt lat="54.954250" lon="-7.722990">
                <time>2019-06-14T16:04:50Z</time>
            </trkpt>
            <trkpt lat="54.954300" lon="-7.723130">
                <time>2019-06-14T16:04:51Z</time>
            </trkpt>
            <trkpt lat="54.954340" lon="-7.723280">
                <time>2019-06-14T16:04:52Z</time>
            </trkpt>
            <trkpt lat="54.954380" lon="-7.723430">
                <time>2019-06-14T16:04:53Z</time>
            </trkpt>
            <trkpt lat="54.954420" lon="-7.723590">
                <time>2019-06-14T16:04:54Z</time>
            </trkpt>
            <trkpt lat="54.954460" lon="-7.723780">
                <time>2019-06-14T16:04:55Z</time>
            </trkpt>
            <trkpt lat="54.954510" lon="-7.724020">
                <time>2019-06-14T16:04:56Z</time>
            </trkpt>
            <trkpt lat="54.954550" lon="-7.724260">
                <time>2019-06-14T16:04:57Z</time>
            </trkpt>
            <trkpt lat="54.954590" lon="-7.724500">
                <time>2019-06-14T16:04:58Z</time>
            </trkpt>
            <trkpt lat="54.954620" lon="-7.724720">
                <time>2019-06-14T16:04:59Z</time>
            </trkpt>
            <trkpt lat="54.954630" lon="-7.724940">
                <time>2019-06-14T16:05:00Z</time>
            </trkpt>
            <trkpt lat="54.954640" lon="-7.725140">
                <time>2019-06-14T16:05:01Z</time>
            </trkpt>
            <trkpt lat="54.954650" lon="-7.725330">
                <time>2019-06-14T16:05:02Z</time>
            </trkpt>
            <trkpt lat="54.954650" lon="-7.725500">
                <time>2019-06-14T16:05:03Z</time>
            </trkpt>
            <trkpt lat="54.954640" lon="-7.725670">
                <time>2019-06-14T16:05:04Z</time>
            </trkpt>
            <trkpt lat="54.954640" lon="-7.725830">
                <time>2019-06-14T16:05:05Z</time>
            </trkpt>
            <trkpt lat="54.954640" lon="-7.725990">
                <time>2019-06-14T16:05:06Z</time>
            </trkpt>
            <trkpt lat="54.954640" lon="-7.726120">
                <time>2019-06-14T16:05:07Z</time>
            </trkpt>
            <trkpt lat="54.954620" lon="-7.726240">
                <time>2019-06-14T16:05:08Z</time>
            </trkpt>
            <trkpt lat="54.954610" lon="-7.726340">
                <time>2019-06-14T16:05:09Z</time>
            </trkpt>
            <trkpt lat="54.954600" lon="-7.726410">
                <time>2019-06-14T16:05:10Z</time>
            </trkpt>
            <trkpt lat="54.954600" lon="-7.726460">
                <time>2019-06-14T16:05:11Z</time>
            </trkpt>
            <trkpt lat="54.954590" lon="-7.726500">
                <time>2019-06-14T16:05:12Z</time>
            </trkpt>
            <trkpt lat="54.954590" lon="-7.726560">
                <time>2019-06-14T16:05:13Z</time>
            </trkpt>
            <trkpt lat="54.954580" lon="-7.726640">
                <time>2019-06-14T16:05:14Z</time>
            </trkpt>
            <trkpt lat="54.954580" lon="-7.726720">
                <time>2019-06-14T16:05:15Z</time>
            </trkpt>
            <trkpt lat="54.954600" lon="-7.726780">
                <time>2019-06-14T16:05:16Z</time>
            </trkpt>
            <trkpt lat="54.954640" lon="-7.726820">
                <time>2019-06-14T16:05:17Z</time>
            </trkpt>
            <trkpt lat="54.954680" lon="-7.726820">
                <time>2019-06-14T16:05:18Z</time>
            </trkpt>
            <trkpt lat="54.954710" lon="-7.726770">
                <time>2019-06-14T16:05:19Z</time>
            </trkpt>
            <trkpt lat="54.954720" lon="-7.726690">
                <time>2019-06-14T16:05:20Z</time>
            </trkpt>
            <trkpt lat="54.954710" lon="-7.726590">
                <time>2019-06-14T16:05:21Z</time>
            </trkpt>
            <trkpt lat="54.954690" lon="-7.726470">
                <time>2019-06-14T16:05:22Z</time>
            </trkpt>
            <trkpt lat="54.954680" lon="-7.726340">
                <time>2019-06-14T16:05:23Z</time>
            </trkpt>
            <trkpt lat="54.954690" lon="-7.726200">
                <time>2019-06-14T16:05:24Z</time>
            </trkpt>
            <trkpt lat="54.954700" lon="-7.726060">
                <time>2019-06-14T16:05:25Z</time>
            </trkpt>
            <trkpt lat="54.954700" lon="-7.725920">
                <time>2019-06-14T16:05:26Z</time>
            </trkpt>
            <trkpt lat="54.954700" lon="-7.725790">
                <time>2019-06-14T16:05:27Z</time>
            </trkpt>
            <trkpt lat="54.954700" lon="-7.725660">
                <time>2019-06-14T16:05:28Z</time>
            </trkpt>
            <trkpt lat="54.954700" lon="-7.725570">
                <time>2019-06-14T16:05:29Z</time>
            </trkpt>
            <trkpt lat="54.954700" lon="-7.725520">
                <time>2019-06-14T16:05:30Z</time>
            </trkpt>
            <trkpt lat="54.954700" lon="-7.725500">
                <time>2019-06-14T16:05:31Z</time>
            </trkpt>
            <trkpt lat="54.954690" lon="-7.725500">
                <time>2019-06-14T16:05:32Z</time>
            </trkpt>
            <trkpt lat="54.954700" lon="-7.725500">
                <time>2019-06-14T16:05:33Z</time>
            </trkpt>
            <trkpt lat="54.954700" lon="-7.725490">
                <time>2019-06-14T16:05:34Z</time>
            </trkpt>
            <trkpt lat="54.954700" lon="-7.725470">
                <time>2019-06-14T16:05:35Z</time>
            </trkpt>
            <trkpt lat="54.954700" lon="-7.725460">
                <time>2019-06-14T16:05:36Z</time>
            </trkpt>
            <trkpt lat="54.954700" lon="-7.725450">
                <time>2019-06-14T16:05:37Z</time>
            </trkpt>
            <trkpt lat="54.954700" lon="-7.725430">
                <time>2019-06-14T16:05:38Z</time>
            </trkpt>
            <trkpt lat="54.954700" lon="-7.725400">
                <time>2019-06-14T16:05:39Z</time>
            </trkpt>
            <trkpt lat="54.954700" lon="-7.725350">
                <time>2019-06-14T16:05:40Z</time>
            </trkpt>
            <trkpt lat="54.954690" lon="-7.725310">
                <time>2019-06-14T16:05:41Z</time>
            </trkpt>
            <trkpt lat="54.954680" lon="-7.725270">
                <time>2019-06-14T16:05:42Z</time>
            </trkpt>
            <trkpt lat="54.954660" lon="-7.725240">
                <time>2019-06-14T16:05:43Z</time>
            </trkpt>
            <trkpt lat="54.954640" lon="-7.725210">
                <time>2019-06-14T16:05:44Z</time>
            </trkpt>
            <trkpt lat="54.954620" lon="-7.725210">
                <time>2019-06-14T16:05:45Z</time>
            </trkpt>
            <trkpt lat="54.954590" lon="-7.725210">
                <time>2019-06-14T16:05:46Z</time>
            </trkpt>
            <trkpt lat="54.954560" lon="-7.725220">
                <time>2019-06-14T16:05:47Z</time>
            </trkpt>
            <trkpt lat="54.954540" lon="-7.725240">
                <time>2019-06-14T16:05:48Z</time>
            </trkpt>
            <trkpt lat="54.954510" lon="-7.725250">
                <time>2019-06-14T16:05:49Z</time>
            </trkpt>
            <trkpt lat="54.954500" lon="-7.725260">
                <time>2019-06-14T16:05:50Z</time>
            </trkpt>
            <trkpt lat="54.954480" lon="-7.725270">
                <time>2019-06-14T16:05:51Z</time>
            </trkpt>
            <trkpt lat="54.954450" lon="-7.725280">
                <time>2019-06-14T16:05:52Z</time>
            </trkpt>
            <trkpt lat="54.954420" lon="-7.725300">
                <time>2019-06-14T16:05:53Z</time>
            </trkpt>
            <trkpt lat="54.954400" lon="-7.725330">
                <time>2019-06-14T16:05:54Z</time>
            </trkpt>
            <trkpt lat="54.954390" lon="-7.725380">
                <time>2019-06-14T16:05:55Z</time>
            </trkpt>
            <trkpt lat="54.954380" lon="-7.725420">
                <time>2019-06-14T16:05:56Z</time>
            </trkpt>
            <trkpt lat="54.954390" lon="-7.725470">
                <time>2019-06-14T16:05:57Z</time>
            </trkpt>
            <trkpt lat="54.954410" lon="-7.725510">
                <time>2019-06-14T16:05:58Z</time>
            </trkpt>
            <trkpt lat="54.954440" lon="-7.725530">
                <time>2019-06-14T16:05:59Z</time>
            </trkpt>
            <trkpt lat="54.954460" lon="-7.725540">
                <time>2019-06-14T16:06:00Z</time>
            </trkpt>
            <trkpt lat="54.954480" lon="-7.725530">
                <time>2019-06-14T16:06:01Z</time>
            </trkpt>
            <trkpt lat="54.954490" lon="-7.725530">
                <time>2019-06-14T16:06:02Z</time>
            </trkpt>
            <trkpt lat="54.954500" lon="-7.725520">
                <time>2019-06-14T16:06:03Z</time>
            </trkpt>
            <trkpt lat="54.954500" lon="-7.725520">
                <time>2019-06-14T16:06:04Z</time>
            </trkpt>
            <trkpt lat="54.954510" lon="-7.725520">
                <time>2019-06-14T16:06:05Z</time>
            </trkpt>
            <trkpt lat="54.954500" lon="-7.725520">
                <time>2019-06-14T16:06:06Z</time>
            </trkpt>
            <trkpt lat="54.954500" lon="-7.725530">
                <time>2019-06-14T16:06:07Z</time>
            </trkpt>
            <trkpt lat="54.954510" lon="-7.725530">
                <time>2019-06-14T16:06:08Z</time>
            </trkpt>
            <trkpt lat="54.954510" lon="-7.725530">
                <time>2019-06-14T16:06:09Z</time>
            </trkpt>
            <trkpt lat="54.954510" lon="-7.725520">
                <time>2019-06-14T16:06:10Z</time>
            </trkpt>
            <trkpt lat="54.954510" lon="-7.725520">
                <time>2019-06-14T16:06:11Z</time>
            </trkpt>
            <trkpt lat="54.954510" lon="-7.725520">
                <time>2019-06-14T16:06:12Z</time>
            </trkpt>
            <trkpt lat="54.954510" lon="-7.725520">
                <time>2019-06-14T16:06:13Z</time>
            </trkpt>
            <trkpt lat="54.954510" lon="-7.725520">
                <time>2019-06-14T16:06:14Z</time>
            </trkpt>
            <trkpt lat="54.954510" lon="-7.725520">
                <time>2019-06-14T16:06:15Z</time>
            </trkpt>
            <trkpt lat="54.954510" lon="-7.725520">
                <time>2019-06-14T16:06:16Z</time>
            </trkpt>
            <trkpt lat="54.954510" lon="-7.725520">
                <time>2019-06-14T16:06:17Z</time>
            </trkpt>
            <trkpt lat="54.954510" lon="-7.725520">
                <time>2019-06-14T16:06:18Z</time>
            </trkpt>
            <trkpt lat="54.954510" lon="-7.725520">
                <time>2019-06-14T16:06:19Z</time>
            </trkpt>
            <trkpt lat="54.954510" lon="-7.725520">
                <time>2019-06-14T16:06:20Z</time>
            </trkpt>
            <trkpt lat="54.954510" lon="-7.725520">
                <time>2019-06-14T16:06:21Z</time>
            </trkpt>
            <trkpt lat="54.954510" lon="-7.725520">
                <time>2019-06-14T16:06:22Z</time>
            </trkpt>
            <trkpt lat="54.954510" lon="-7.725520">
                <time>2019-06-14T16:06:23Z</time>
            </trkpt>
            <trkpt lat="54.954510" lon="-7.725520">
                <time>2019-06-14T16:06:24Z</time>
            </trkpt>
            <trkpt lat="54.954510" lon="-7.725520">
                <time>2019-06-14T16:06:25Z</time>
            </trkpt>
            <trkpt lat="54.954510" lon="-7.725520">
                <time>2019-06-14T16:06:26Z</time>
            </trkpt>
            <trkpt lat="54.954510" lon="-7.725520">
                <time>2019-06-14T16:06:27Z</time>
            </trkpt>
            <trkpt lat="54.954510" lon="-7.725520">
                <time>2019-06-14T16:06:28Z</time>
            </trkpt>
            <trkpt lat="54.954510" lon="-7.725520">
                <time>2019-06-14T16:06:29Z</time>
            </trkpt>
            <trkpt lat="54.954510" lon="-7.725520">
                <time>2019-06-14T16:06:30Z</time>
            </trkpt>
            <trkpt lat="54.954510" lon="-7.725520">
                <time>2019-06-14T16:06:31Z</time>
            </trkpt>
            <trkpt lat="54.954510" lon="-7.725520">
                <time>2019-06-14T16:06:32Z</time>
            </trkpt>
            <trkpt lat="54.954510" lon="-7.725520">
                <time>2019-06-14T16:06:33Z</time>
            </trkpt>
            <trkpt lat="54.954510" lon="-7.725520">
                <time>2019-06-14T16:06:34Z</time>
            </trkpt>
            <trkpt lat="54.954510" lon="-7.725520">
                <time>2019-06-14T16:06:35Z</time>
            </trkpt>
            <trkpt lat="54.954510" lon="-7.725520">
                <time>2019-06-14T16:06:36Z</time>
            </trkpt>
            <trkpt lat="54.954510" lon="-7.725520">
                <time>2019-06-14T16:06:37Z</time>
            </trkpt>
            <trkpt lat="54.954510" lon="-7.725520">
                <time>2019-06-14T16:06:38Z</time>
            </trkpt>
            <trkpt lat="54.954510" lon="-7.725520">
                <time>2019-06-14T16:06:39Z</time>
            </trkpt>
            <trkpt lat="54.954610" lon="-7.725480">
                <time>2019-06-14T16:17:16Z</time>
            </trkpt>
            <trkpt lat="54.954530" lon="-7.725550">
                <time>2019-06-14T16:17:17Z</time>
            </trkpt>
            <trkpt lat="54.954520" lon="-7.725580">
                <time>2019-06-14T16:17:18Z</time>
            </trkpt>
            <trkpt lat="54.954530" lon="-7.725580">
                <time>2019-06-14T16:17:19Z</time>
            </trkpt>
            <trkpt lat="54.954510" lon="-7.725530">
                <time>2019-06-14T16:17:20Z</time>
            </trkpt>
            <trkpt lat="54.954500" lon="-7.725520">
                <time>2019-06-14T16:17:21Z</time>
            </trkpt>
            <trkpt lat="54.954510" lon="-7.725540">
                <time>2019-06-14T16:17:22Z</time>
            </trkpt>
            <trkpt lat="54.954510" lon="-7.725540">
                <time>2019-06-14T16:17:23Z</time>
            </trkpt>
            <trkpt lat="54.954510" lon="-7.725530">
                <time>2019-06-14T16:17:24Z</time>
            </trkpt>
            <trkpt lat="54.954510" lon="-7.725530">
                <time>2019-06-14T16:17:25Z</time>
            </trkpt>
            <trkpt lat="54.954510" lon="-7.725530">
                <time>2019-06-14T16:17:26Z</time>
            </trkpt>
            <trkpt lat="54.954510" lon="-7.725530">
                <time>2019-06-14T16:17:27Z</time>
            </trkpt>
            <trkpt lat="54.954510" lon="-7.725530">
                <time>2019-06-14T16:17:28Z</time>
            </trkpt>
            <trkpt lat="54.954510" lon="-7.725530">
                <time>2019-06-14T16:17:29Z</time>
            </trkpt>
            <trkpt lat="54.954510" lon="-7.725530">
                <time>2019-06-14T16:17:30Z</time>
            </trkpt>
            <trkpt lat="54.954510" lon="-7.725530">
                <time>2019-06-14T16:17:31Z</time>
            </trkpt>
            <trkpt lat="54.954510" lon="-7.725530">
                <time>2019-06-14T16:17:32Z</time>
            </trkpt>
            <trkpt lat="54.954510" lon="-7.725530">
                <time>2019-06-14T16:17:33Z</time>
            </trkpt>
            <trkpt lat="54.954510" lon="-7.725530">
                <time>2019-06-14T16:17:34Z</time>
            </trkpt>
            <trkpt lat="54.954510" lon="-7.725530">
                <time>2019-06-14T16:17:35Z</time>
            </trkpt>
            <trkpt lat="54.954510" lon="-7.725530">
                <time>2019-06-14T16:17:36Z</time>
            </trkpt>
            <trkpt lat="54.954510" lon="-7.725530">
                <time>2019-06-14T16:17:37Z</time>
            </trkpt>
            <trkpt lat="54.954510" lon="-7.725530">
                <time>2019-06-14T16:17:38Z</time>
            </trkpt>
            <trkpt lat="54.954510" lon="-7.725530">
                <time>2019-06-14T16:17:39Z</time>
            </trkpt>
            <trkpt lat="54.954510" lon="-7.725530">
                <time>2019-06-14T16:17:40Z</time>
            </trkpt>
            <trkpt lat="54.954510" lon="-7.725530">
                <time>2019-06-14T16:17:41Z</time>
            </trkpt>
            <trkpt lat="54.954510" lon="-7.725530">
                <time>2019-06-14T16:17:42Z</time>
            </trkpt>
            <trkpt lat="54.954510" lon="-7.725530">
                <time>2019-06-14T16:17:43Z</time>
            </trkpt>
            <trkpt lat="54.954510" lon="-7.725530">
                <time>2019-06-14T16:17:44Z</time>
            </trkpt>
            <trkpt lat="54.954510" lon="-7.725530">
                <time>2019-06-14T16:17:45Z</time>
            </trkpt>
            <trkpt lat="54.954510" lon="-7.725530">
                <time>2019-06-14T16:17:46Z</time>
            </trkpt>
            <trkpt lat="54.954510" lon="-7.725530">
                <time>2019-06-14T16:17:47Z</time>
            </trkpt>
            <trkpt lat="54.954510" lon="-7.725530">
                <time>2019-06-14T16:17:48Z</time>
            </trkpt>
            <trkpt lat="54.954510" lon="-7.725530">
                <time>2019-06-14T16:17:49Z</time>
            </trkpt>
            <trkpt lat="54.954510" lon="-7.725530">
                <time>2019-06-14T16:17:50Z</time>
            </trkpt>
            <trkpt lat="54.954510" lon="-7.725530">
                <time>2019-06-14T16:17:51Z</time>
            </trkpt>
            <trkpt lat="54.954510" lon="-7.725540">
                <time>2019-06-14T16:17:52Z</time>
            </trkpt>
            <trkpt lat="54.954510" lon="-7.725540">
                <time>2019-06-14T16:17:53Z</time>
            </trkpt>
            <trkpt lat="54.954510" lon="-7.725540">
                <time>2019-06-14T16:17:54Z</time>
            </trkpt>
            <trkpt lat="54.954510" lon="-7.725540">
                <time>2019-06-14T16:17:55Z</time>
            </trkpt>
            <trkpt lat="54.954510" lon="-7.725530">
                <time>2019-06-14T16:17:56Z</time>
            </trkpt>
            <trkpt lat="54.954510" lon="-7.725530">
                <time>2019-06-14T16:17:57Z</time>
            </trkpt>
            <trkpt lat="54.954510" lon="-7.725530">
                <time>2019-06-14T16:17:58Z</time>
            </trkpt>
            <trkpt lat="54.954510" lon="-7.725520">
                <time>2019-06-14T16:17:59Z</time>
            </trkpt>
            <trkpt lat="54.954510" lon="-7.725520">
                <time>2019-06-14T16:18:00Z</time>
            </trkpt>
            <trkpt lat="54.954510" lon="-7.725520">
                <time>2019-06-14T16:18:01Z</time>
            </trkpt>
            <trkpt lat="54.954510" lon="-7.725520">
                <time>2019-06-14T16:18:02Z</time>
            </trkpt>
            <trkpt lat="54.954510" lon="-7.725510">
                <time>2019-06-14T16:18:03Z</time>
            </trkpt>
            <trkpt lat="54.954520" lon="-7.725510">
                <time>2019-06-14T16:18:04Z</time>
            </trkpt>
            <trkpt lat="54.954530" lon="-7.725500">
                <time>2019-06-14T16:18:05Z</time>
            </trkpt>
            <trkpt lat="54.954550" lon="-7.725480">
                <time>2019-06-14T16:18:06Z</time>
            </trkpt>
            <trkpt lat="54.954560" lon="-7.725450">
                <time>2019-06-14T16:18:07Z</time>
            </trkpt>
            <trkpt lat="54.954570" lon="-7.725420">
                <time>2019-06-14T16:18:08Z</time>
            </trkpt>
            <trkpt lat="54.954570" lon="-7.725380">
                <time>2019-06-14T16:18:09Z</time>
            </trkpt>
            <trkpt lat="54.954580" lon="-7.725340">
                <time>2019-06-14T16:18:10Z</time>
            </trkpt>
            <trkpt lat="54.954590" lon="-7.725320">
                <time>2019-06-14T16:18:11Z</time>
            </trkpt>
            <trkpt lat="54.954590" lon="-7.725310">
                <time>2019-06-14T16:18:12Z</time>
            </trkpt>
            <trkpt lat="54.954590" lon="-7.725320">
                <time>2019-06-14T16:18:13Z</time>
            </trkpt>
            <trkpt lat="54.954590" lon="-7.725320">
                <time>2019-06-14T16:18:14Z</time>
            </trkpt>
            <trkpt lat="54.954590" lon="-7.725320">
                <time>2019-06-14T16:18:15Z</time>
            </trkpt>
            <trkpt lat="54.954590" lon="-7.725320">
                <time>2019-06-14T16:18:16Z</time>
            </trkpt>
            <trkpt lat="54.954600" lon="-7.725310">
                <time>2019-06-14T16:18:17Z</time>
            </trkpt>
            <trkpt lat="54.954620" lon="-7.725300">
                <time>2019-06-14T16:18:18Z</time>
            </trkpt>
            <trkpt lat="54.954630" lon="-7.725300">
                <time>2019-06-14T16:18:19Z</time>
            </trkpt>
            <trkpt lat="54.954630" lon="-7.725300">
                <time>2019-06-14T16:18:20Z</time>
            </trkpt>
            <trkpt lat="54.954640" lon="-7.725300">
                <time>2019-06-14T16:18:21Z</time>
            </trkpt>
            <trkpt lat="54.954640" lon="-7.725300">
                <time>2019-06-14T16:18:22Z</time>
            </trkpt>
            <trkpt lat="54.954630" lon="-7.725300">
                <time>2019-06-14T16:18:23Z</time>
            </trkpt>
            <trkpt lat="54.954630" lon="-7.725300">
                <time>2019-06-14T16:18:24Z</time>
            </trkpt>
            <trkpt lat="54.954630" lon="-7.725300">
                <time>2019-06-14T16:18:25Z</time>
            </trkpt>
            <trkpt lat="54.954630" lon="-7.725300">
                <time>2019-06-14T16:18:26Z</time>
            </trkpt>
            <trkpt lat="54.954630" lon="-7.725300">
                <time>2019-06-14T16:18:27Z</time>
            </trkpt>
            <trkpt lat="54.954630" lon="-7.725300">
                <time>2019-06-14T16:18:28Z</time>
            </trkpt>
            <trkpt lat="54.954650" lon="-7.725330">
                <time>2019-06-14T16:18:29Z</time>
            </trkpt>
            <trkpt lat="54.954670" lon="-7.725450">
                <time>2019-06-14T16:18:30Z</time>
            </trkpt>
            <trkpt lat="54.954680" lon="-7.725580">
                <time>2019-06-14T16:18:31Z</time>
            </trkpt>
            <trkpt lat="54.954680" lon="-7.725710">
                <time>2019-06-14T16:18:32Z</time>
            </trkpt>
            <trkpt lat="54.954690" lon="-7.725860">
                <time>2019-06-14T16:18:33Z</time>
            </trkpt>
            <trkpt lat="54.954680" lon="-7.726000">
                <time>2019-06-14T16:18:34Z</time>
            </trkpt>
            <trkpt lat="54.954680" lon="-7.726130">
                <time>2019-06-14T16:18:35Z</time>
            </trkpt>
            <trkpt lat="54.954670" lon="-7.726240">
                <time>2019-06-14T16:18:36Z</time>
            </trkpt>
            <trkpt lat="54.954650" lon="-7.726330">
                <time>2019-06-14T16:18:37Z</time>
            </trkpt>
            <trkpt lat="54.954640" lon="-7.726390">
                <time>2019-06-14T16:18:38Z</time>
            </trkpt>
            <trkpt lat="54.954640" lon="-7.726450">
                <time>2019-06-14T16:18:39Z</time>
            </trkpt>
            <trkpt lat="54.954630" lon="-7.726520">
                <time>2019-06-14T16:18:40Z</time>
            </trkpt>
            <trkpt lat="54.954610" lon="-7.726610">
                <time>2019-06-14T16:18:41Z</time>
            </trkpt>
            <trkpt lat="54.954610" lon="-7.726700">
                <time>2019-06-14T16:18:42Z</time>
            </trkpt>
            <trkpt lat="54.954630" lon="-7.726770">
                <time>2019-06-14T16:18:43Z</time>
            </trkpt>
            <trkpt lat="54.954660" lon="-7.726800">
                <time>2019-06-14T16:18:44Z</time>
            </trkpt>
            <trkpt lat="54.954700" lon="-7.726800">
                <time>2019-06-14T16:18:45Z</time>
            </trkpt>
            <trkpt lat="54.954720" lon="-7.726740">
                <time>2019-06-14T16:18:46Z</time>
            </trkpt>
            <trkpt lat="54.954720" lon="-7.726650">
                <time>2019-06-14T16:18:47Z</time>
            </trkpt>
            <trkpt lat="54.954700" lon="-7.726560">
                <time>2019-06-14T16:18:48Z</time>
            </trkpt>
            <trkpt lat="54.954690" lon="-7.726450">
                <time>2019-06-14T16:18:49Z</time>
            </trkpt>
            <trkpt lat="54.954690" lon="-7.726350">
                <time>2019-06-14T16:18:50Z</time>
            </trkpt>
            <trkpt lat="54.954700" lon="-7.726240">
                <time>2019-06-14T16:18:51Z</time>
            </trkpt>
            <trkpt lat="54.954700" lon="-7.726120">
                <time>2019-06-14T16:18:52Z</time>
            </trkpt>
            <trkpt lat="54.954710" lon="-7.725980">
                <time>2019-06-14T16:18:53Z</time>
            </trkpt>
            <trkpt lat="54.954720" lon="-7.725840">
                <time>2019-06-14T16:18:54Z</time>
            </trkpt>
            <trkpt lat="54.954720" lon="-7.725680">
                <time>2019-06-14T16:18:55Z</time>
            </trkpt>
            <trkpt lat="54.954730" lon="-7.725520">
                <time>2019-06-14T16:18:56Z</time>
            </trkpt>
            <trkpt lat="54.954720" lon="-7.725350">
                <time>2019-06-14T16:18:57Z</time>
            </trkpt>
            <trkpt lat="54.954720" lon="-7.725170">
                <time>2019-06-14T16:18:58Z</time>
            </trkpt>
            <trkpt lat="54.954710" lon="-7.724990">
                <time>2019-06-14T16:18:59Z</time>
            </trkpt>
            <trkpt lat="54.954700" lon="-7.724820">
                <time>2019-06-14T16:19:00Z</time>
            </trkpt>
            <trkpt lat="54.954680" lon="-7.724650">
                <time>2019-06-14T16:19:01Z</time>
            </trkpt>
            <trkpt lat="54.954650" lon="-7.724470">
                <time>2019-06-14T16:19:02Z</time>
            </trkpt>
            <trkpt lat="54.954620" lon="-7.724300">
                <time>2019-06-14T16:19:03Z</time>
            </trkpt>
            <trkpt lat="54.954590" lon="-7.724120">
                <time>2019-06-14T16:19:04Z</time>
            </trkpt>
            <trkpt lat="54.954550" lon="-7.723940">
                <time>2019-06-14T16:19:05Z</time>
            </trkpt>
            <trkpt lat="54.954510" lon="-7.723760">
                <time>2019-06-14T16:19:06Z</time>
            </trkpt>
            <trkpt lat="54.954470" lon="-7.723580">
                <time>2019-06-14T16:19:07Z</time>
            </trkpt>
            <trkpt lat="54.954430" lon="-7.723410">
                <time>2019-06-14T16:19:08Z</time>
            </trkpt>
            <trkpt lat="54.954380" lon="-7.723240">
                <time>2019-06-14T16:19:09Z</time>
            </trkpt>
            <trkpt lat="54.954330" lon="-7.723070">
                <time>2019-06-14T16:19:10Z</time>
            </trkpt>
            <trkpt lat="54.954270" lon="-7.722890">
                <time>2019-06-14T16:19:11Z</time>
            </trkpt>
            <trkpt lat="54.954210" lon="-7.722710">
                <time>2019-06-14T16:19:12Z</time>
            </trkpt>
            <trkpt lat="54.954140" lon="-7.722540">
                <time>2019-06-14T16:19:13Z</time>
            </trkpt>
            <trkpt lat="54.954070" lon="-7.722360">
                <time>2019-06-14T16:19:14Z</time>
            </trkpt>
            <trkpt lat="54.954000" lon="-7.722190">
                <time>2019-06-14T16:19:15Z</time>
            </trkpt>
            <trkpt lat="54.953930" lon="-7.722030">
                <time>2019-06-14T16:19:16Z</time>
            </trkpt>
            <trkpt lat="54.953860" lon="-7.721850">
                <time>2019-06-14T16:19:17Z</time>
            </trkpt>
            <trkpt lat="54.953790" lon="-7.721680">
                <time>2019-06-14T16:19:18Z</time>
            </trkpt>
            <trkpt lat="54.953710" lon="-7.721500">
                <time>2019-06-14T16:19:19Z</time>
            </trkpt>
            <trkpt lat="54.953640" lon="-7.721310">
                <time>2019-06-14T16:19:20Z</time>
            </trkpt>
            <trkpt lat="54.953580" lon="-7.721120">
                <time>2019-06-14T16:19:21Z</time>
            </trkpt>
            <trkpt lat="54.953520" lon="-7.720930">
                <time>2019-06-14T16:19:22Z</time>
            </trkpt>
            <trkpt lat="54.953460" lon="-7.720740">
                <time>2019-06-14T16:19:23Z</time>
            </trkpt>
            <trkpt lat="54.953410" lon="-7.720550">
                <time>2019-06-14T16:19:24Z</time>
            </trkpt>
            <trkpt lat="54.953360" lon="-7.720370">
                <time>2019-06-14T16:19:25Z</time>
            </trkpt>
            <trkpt lat="54.953310" lon="-7.720180">
                <time>2019-06-14T16:19:26Z</time>
            </trkpt>
            <trkpt lat="54.953260" lon="-7.719990">
                <time>2019-06-14T16:19:27Z</time>
            </trkpt>
            <trkpt lat="54.953220" lon="-7.719800">
                <time>2019-06-14T16:19:28Z</time>
            </trkpt>
            <trkpt lat="54.953170" lon="-7.719610">
                <time>2019-06-14T16:19:29Z</time>
            </trkpt>
            <trkpt lat="54.953120" lon="-7.719410">
                <time>2019-06-14T16:19:30Z</time>
            </trkpt>
            <trkpt lat="54.953080" lon="-7.719220">
                <time>2019-06-14T16:19:31Z</time>
            </trkpt>
            <trkpt lat="54.953030" lon="-7.719020">
                <time>2019-06-14T16:19:32Z</time>
            </trkpt>
            <trkpt lat="54.952980" lon="-7.718810">
                <time>2019-06-14T16:19:33Z</time>
            </trkpt>
            <trkpt lat="54.952930" lon="-7.718580">
                <time>2019-06-14T16:19:34Z</time>
            </trkpt>
            <trkpt lat="54.952880" lon="-7.718350">
                <time>2019-06-14T16:19:35Z</time>
            </trkpt>
            <trkpt lat="54.952820" lon="-7.718120">
                <time>2019-06-14T16:19:36Z</time>
            </trkpt>
            <trkpt lat="54.952770" lon="-7.717910">
                <time>2019-06-14T16:19:37Z</time>
            </trkpt>
            <trkpt lat="54.952730" lon="-7.717690">
                <time>2019-06-14T16:19:38Z</time>
            </trkpt>
            <trkpt lat="54.952680" lon="-7.717480">
                <time>2019-06-14T16:19:39Z</time>
            </trkpt>
            <trkpt lat="54.952630" lon="-7.717260">
                <time>2019-06-14T16:19:40Z</time>
            </trkpt>
            <trkpt lat="54.952580" lon="-7.717070">
                <time>2019-06-14T16:19:41Z</time>
            </trkpt>
            <trkpt lat="54.952530" lon="-7.716860">
                <time>2019-06-14T16:19:42Z</time>
            </trkpt>
            <trkpt lat="54.952480" lon="-7.716660">
                <time>2019-06-14T16:19:43Z</time>
            </trkpt>
            <trkpt lat="54.952430" lon="-7.716450">
                <time>2019-06-14T16:19:44Z</time>
            </trkpt>
            <trkpt lat="54.952380" lon="-7.716230">
                <time>2019-06-14T16:19:45Z</time>
            </trkpt>
            <trkpt lat="54.952340" lon="-7.716020">
                <time>2019-06-14T16:19:46Z</time>
            </trkpt>
            <trkpt lat="54.952280" lon="-7.715810">
                <time>2019-06-14T16:19:47Z</time>
            </trkpt>
            <trkpt lat="54.952240" lon="-7.715620">
                <time>2019-06-14T16:19:48Z</time>
            </trkpt>
            <trkpt lat="54.952190" lon="-7.715420">
                <time>2019-06-14T16:19:49Z</time>
            </trkpt>
            <trkpt lat="54.952140" lon="-7.715220">
                <time>2019-06-14T16:19:50Z</time>
            </trkpt>
            <trkpt lat="54.952100" lon="-7.715020">
                <time>2019-06-14T16:19:51Z</time>
            </trkpt>
            <trkpt lat="54.952060" lon="-7.714830">
                <time>2019-06-14T16:19:52Z</time>
            </trkpt>
            <trkpt lat="54.952020" lon="-7.714650">
                <time>2019-06-14T16:19:53Z</time>
            </trkpt>
            <trkpt lat="54.952000" lon="-7.714490">
                <time>2019-06-14T16:19:54Z</time>
            </trkpt>
            <trkpt lat="54.951980" lon="-7.714370">
                <time>2019-06-14T16:19:55Z</time>
            </trkpt>
            <trkpt lat="54.951960" lon="-7.714260">
                <time>2019-06-14T16:19:56Z</time>
            </trkpt>
            <trkpt lat="54.951960" lon="-7.714160">
                <time>2019-06-14T16:19:57Z</time>
            </trkpt>
            <trkpt lat="54.951950" lon="-7.714090">
                <time>2019-06-14T16:19:58Z</time>
            </trkpt>
            <trkpt lat="54.951940" lon="-7.714010">
                <time>2019-06-14T16:19:59Z</time>
            </trkpt>
            <trkpt lat="54.951940" lon="-7.713940">
                <time>2019-06-14T16:20:00Z</time>
            </trkpt>
            <trkpt lat="54.951930" lon="-7.713880">
                <time>2019-06-14T16:20:01Z</time>
            </trkpt>
            <trkpt lat="54.951930" lon="-7.713820">
                <time>2019-06-14T16:20:02Z</time>
            </trkpt>
            <trkpt lat="54.951930" lon="-7.713770">
                <time>2019-06-14T16:20:03Z</time>
            </trkpt>
            <trkpt lat="54.951920" lon="-7.713720">
                <time>2019-06-14T16:20:04Z</time>
            </trkpt>
            <trkpt lat="54.951920" lon="-7.713670">
                <time>2019-06-14T16:20:05Z</time>
            </trkpt>
            <trkpt lat="54.951910" lon="-7.713580">
                <time>2019-06-14T16:20:06Z</time>
            </trkpt>
            <trkpt lat="54.951910" lon="-7.713460">
                <time>2019-06-14T16:20:07Z</time>
            </trkpt>
            <trkpt lat="54.951900" lon="-7.713310">
                <time>2019-06-14T16:20:08Z</time>
            </trkpt>
            <trkpt lat="54.951900" lon="-7.713150">
                <time>2019-06-14T16:20:09Z</time>
            </trkpt>
            <trkpt lat="54.951890" lon="-7.713010">
                <time>2019-06-14T16:20:10Z</time>
            </trkpt>
            <trkpt lat="54.951900" lon="-7.712880">
                <time>2019-06-14T16:20:11Z</time>
            </trkpt>
            <trkpt lat="54.951900" lon="-7.712730">
                <time>2019-06-14T16:20:12Z</time>
            </trkpt>
            <trkpt lat="54.951900" lon="-7.712600">
                <time>2019-06-14T16:20:13Z</time>
            </trkpt>
            <trkpt lat="54.951900" lon="-7.712480">
                <time>2019-06-14T16:20:14Z</time>
            </trkpt>
            <trkpt lat="54.951900" lon="-7.712390">
                <time>2019-06-14T16:20:15Z</time>
            </trkpt>
            <trkpt lat="54.951910" lon="-7.712330">
                <time>2019-06-14T16:20:16Z</time>
            </trkpt>
            <trkpt lat="54.951910" lon="-7.712280">
                <time>2019-06-14T16:20:17Z</time>
            </trkpt>
            <trkpt lat="54.951910" lon="-7.712250">
                <time>2019-06-14T16:20:18Z</time>
            </trkpt>
            <trkpt lat="54.951910" lon="-7.712230">
                <time>2019-06-14T16:20:19Z</time>
            </trkpt>
            <trkpt lat="54.951910" lon="-7.712200">
                <time>2019-06-14T16:20:20Z</time>
            </trkpt>
            <trkpt lat="54.951900" lon="-7.712180">
                <time>2019-06-14T16:20:21Z</time>
            </trkpt>
            <trkpt lat="54.951900" lon="-7.712160">
                <time>2019-06-14T16:20:22Z</time>
            </trkpt>
            <trkpt lat="54.951900" lon="-7.712140">
                <time>2019-06-14T16:20:23Z</time>
            </trkpt>
            <trkpt lat="54.951900" lon="-7.712110">
                <time>2019-06-14T16:20:24Z</time>
            </trkpt>
            <trkpt lat="54.951900" lon="-7.712090">
                <time>2019-06-14T16:20:25Z</time>
            </trkpt>
            <trkpt lat="54.951900" lon="-7.712070">
                <time>2019-06-14T16:20:26Z</time>
            </trkpt>
            <trkpt lat="54.951900" lon="-7.712060">
                <time>2019-06-14T16:20:27Z</time>
            </trkpt>
            <trkpt lat="54.951900" lon="-7.712040">
                <time>2019-06-14T16:20:28Z</time>
            </trkpt>
            <trkpt lat="54.951890" lon="-7.712020">
                <time>2019-06-14T16:20:29Z</time>
            </trkpt>
            <trkpt lat="54.951890" lon="-7.711990">
                <time>2019-06-14T16:20:30Z</time>
            </trkpt>
            <trkpt lat="54.951890" lon="-7.711960">
                <time>2019-06-14T16:20:31Z</time>
            </trkpt>
            <trkpt lat="54.951890" lon="-7.711930">
                <time>2019-06-14T16:20:32Z</time>
            </trkpt>
            <trkpt lat="54.951890" lon="-7.711890">
                <time>2019-06-14T16:20:33Z</time>
            </trkpt>
            <trkpt lat="54.951890" lon="-7.711860">
                <time>2019-06-14T16:20:34Z</time>
            </trkpt>
            <trkpt lat="54.951890" lon="-7.711820">
                <time>2019-06-14T16:20:35Z</time>
            </trkpt>
            <trkpt lat="54.951880" lon="-7.711770">
                <time>2019-06-14T16:20:36Z</time>
            </trkpt>
            <trkpt lat="54.951880" lon="-7.711740">
                <time>2019-06-14T16:20:37Z</time>
            </trkpt>
            <trkpt lat="54.951880" lon="-7.711710">
                <time>2019-06-14T16:20:38Z</time>
            </trkpt>
            <trkpt lat="54.951870" lon="-7.711680">
                <time>2019-06-14T16:20:39Z</time>
            </trkpt>
            <trkpt lat="54.951870" lon="-7.711670">
                <time>2019-06-14T16:20:40Z</time>
            </trkpt>
            <trkpt lat="54.951870" lon="-7.711660">
                <time>2019-06-14T16:20:41Z</time>
            </trkpt>
            <trkpt lat="54.951870" lon="-7.711670">
                <time>2019-06-14T16:20:42Z</time>
            </trkpt>
            <trkpt lat="54.951870" lon="-7.711670">
                <time>2019-06-14T16:20:43Z</time>
            </trkpt>
            <trkpt lat="54.951880" lon="-7.711670">
                <time>2019-06-14T16:20:44Z</time>
            </trkpt>
            <trkpt lat="54.951880" lon="-7.711670">
                <time>2019-06-14T16:20:45Z</time>
            </trkpt>
            <trkpt lat="54.951880" lon="-7.711660">
                <time>2019-06-14T16:20:46Z</time>
            </trkpt>
            <trkpt lat="54.951880" lon="-7.711640">
                <time>2019-06-14T16:20:47Z</time>
            </trkpt>
            <trkpt lat="54.951870" lon="-7.711620">
                <time>2019-06-14T16:20:48Z</time>
            </trkpt>
            <trkpt lat="54.951870" lon="-7.711610">
                <time>2019-06-14T16:20:49Z</time>
            </trkpt>
            <trkpt lat="54.951870" lon="-7.711590">
                <time>2019-06-14T16:20:50Z</time>
            </trkpt>
            <trkpt lat="54.951870" lon="-7.711570">
                <time>2019-06-14T16:20:51Z</time>
            </trkpt>
            <trkpt lat="54.951870" lon="-7.711560">
                <time>2019-06-14T16:20:52Z</time>
            </trkpt>
            <trkpt lat="54.951860" lon="-7.711540">
                <time>2019-06-14T16:20:53Z</time>
            </trkpt>
            <trkpt lat="54.951860" lon="-7.711530">
                <time>2019-06-14T16:20:54Z</time>
            </trkpt>
            <trkpt lat="54.951860" lon="-7.711520">
                <time>2019-06-14T16:20:55Z</time>
            </trkpt>
            <trkpt lat="54.951860" lon="-7.711510">
                <time>2019-06-14T16:20:56Z</time>
            </trkpt>
            <trkpt lat="54.951860" lon="-7.711500">
                <time>2019-06-14T16:20:57Z</time>
            </trkpt>
            <trkpt lat="54.951850" lon="-7.711480">
                <time>2019-06-14T16:20:58Z</time>
            </trkpt>
            <trkpt lat="54.951850" lon="-7.711460">
                <time>2019-06-14T16:20:59Z</time>
            </trkpt>
            <trkpt lat="54.951850" lon="-7.711430">
                <time>2019-06-14T16:21:00Z</time>
            </trkpt>
            <trkpt lat="54.951850" lon="-7.711400">
                <time>2019-06-14T16:21:01Z</time>
            </trkpt>
            <trkpt lat="54.951850" lon="-7.711370">
                <time>2019-06-14T16:21:02Z</time>
            </trkpt>
            <trkpt lat="54.951850" lon="-7.711320">
                <time>2019-06-14T16:21:03Z</time>
            </trkpt>
            <trkpt lat="54.951840" lon="-7.711260">
                <time>2019-06-14T16:21:04Z</time>
            </trkpt>
            <trkpt lat="54.951840" lon="-7.711190">
                <time>2019-06-14T16:21:05Z</time>
            </trkpt>
            <trkpt lat="54.951850" lon="-7.711110">
                <time>2019-06-14T16:21:06Z</time>
            </trkpt>
            <trkpt lat="54.951860" lon="-7.711020">
                <time>2019-06-14T16:21:07Z</time>
            </trkpt>
            <trkpt lat="54.951850" lon="-7.710940">
                <time>2019-06-14T16:21:08Z</time>
            </trkpt>
            <trkpt lat="54.951820" lon="-7.710870">
                <time>2019-06-14T16:21:09Z</time>
            </trkpt>
            <trkpt lat="54.951770" lon="-7.710840">
                <time>2019-06-14T16:21:10Z</time>
            </trkpt>
            <trkpt lat="54.951710" lon="-7.710860">
                <time>2019-06-14T16:21:11Z</time>
            </trkpt>
            <trkpt lat="54.951670" lon="-7.710910">
                <time>2019-06-14T16:21:12Z</time>
            </trkpt>
            <trkpt lat="54.951630" lon="-7.710970">
                <time>2019-06-14T16:21:13Z</time>
            </trkpt>
            <trkpt lat="54.951600" lon="-7.711040">
                <time>2019-06-14T16:21:14Z</time>
            </trkpt>
            <trkpt lat="54.951560" lon="-7.711120">
                <time>2019-06-14T16:21:15Z</time>
            </trkpt>
            <trkpt lat="54.951500" lon="-7.711200">
                <time>2019-06-14T16:21:16Z</time>
            </trkpt>
            <trkpt lat="54.951450" lon="-7.711280">
                <time>2019-06-14T16:21:17Z</time>
            </trkpt>
            <trkpt lat="54.951400" lon="-7.711350">
                <time>2019-06-14T16:21:18Z</time>
            </trkpt>
            <trkpt lat="54.951350" lon="-7.711420">
                <time>2019-06-14T16:21:19Z</time>
            </trkpt>
            <trkpt lat="54.951310" lon="-7.711480">
                <time>2019-06-14T16:21:20Z</time>
            </trkpt>
            <trkpt lat="54.951270" lon="-7.711530">
                <time>2019-06-14T16:21:21Z</time>
            </trkpt>
            <trkpt lat="54.951240" lon="-7.711560">
                <time>2019-06-14T16:21:22Z</time>
            </trkpt>
            <trkpt lat="54.951220" lon="-7.711590">
                <time>2019-06-14T16:21:23Z</time>
            </trkpt>
            <trkpt lat="54.951200" lon="-7.711610">
                <time>2019-06-14T16:21:24Z</time>
            </trkpt>
            <trkpt lat="54.951190" lon="-7.711630">
                <time>2019-06-14T16:21:25Z</time>
            </trkpt>
            <trkpt lat="54.951180" lon="-7.711640">
                <time>2019-06-14T16:21:26Z</time>
            </trkpt>
            <trkpt lat="54.951180" lon="-7.711650">
                <time>2019-06-14T16:21:27Z</time>
            </trkpt>
            <trkpt lat="54.951180" lon="-7.711650">
                <time>2019-06-14T16:21:28Z</time>
            </trkpt>
            <trkpt lat="54.951180" lon="-7.711650">
                <time>2019-06-14T16:21:29Z</time>
            </trkpt>
            <trkpt lat="54.951180" lon="-7.711660">
                <time>2019-06-14T16:21:30Z</time>
            </trkpt>
            <trkpt lat="54.951180" lon="-7.711660">
                <time>2019-06-14T16:21:31Z</time>
            </trkpt>
            <trkpt lat="54.951180" lon="-7.711660">
                <time>2019-06-14T16:21:32Z</time>
            </trkpt>
            <trkpt lat="54.951180" lon="-7.711660">
                <time>2019-06-14T16:21:33Z</time>
            </trkpt>
            <trkpt lat="54.951180" lon="-7.711670">
                <time>2019-06-14T16:21:34Z</time>
            </trkpt>
            <trkpt lat="54.951170" lon="-7.711690">
                <time>2019-06-14T16:21:35Z</time>
            </trkpt>
            <trkpt lat="54.951140" lon="-7.711720">
                <time>2019-06-14T16:21:36Z</time>
            </trkpt>
            <trkpt lat="54.951120" lon="-7.711750">
                <time>2019-06-14T16:21:37Z</time>
            </trkpt>
            <trkpt lat="54.951090" lon="-7.711790">
                <time>2019-06-14T16:21:38Z</time>
            </trkpt>
            <trkpt lat="54.951060" lon="-7.711820">
                <time>2019-06-14T16:21:39Z</time>
            </trkpt>
            <trkpt lat="54.951040" lon="-7.711860">
                <time>2019-06-14T16:21:40Z</time>
            </trkpt>
            <trkpt lat="54.951000" lon="-7.711900">
                <time>2019-06-14T16:21:41Z</time>
            </trkpt>
            <trkpt lat="54.950960" lon="-7.711980">
                <time>2019-06-14T16:21:42Z</time>
            </trkpt>
            <trkpt lat="54.950910" lon="-7.712050">
                <time>2019-06-14T16:21:43Z</time>
            </trkpt>
            <trkpt lat="54.950860" lon="-7.712120">
                <time>2019-06-14T16:21:44Z</time>
            </trkpt>
            <trkpt lat="54.950810" lon="-7.712200">
                <time>2019-06-14T16:21:45Z</time>
            </trkpt>
            <trkpt lat="54.950760" lon="-7.712280">
                <time>2019-06-14T16:21:46Z</time>
            </trkpt>
            <trkpt lat="54.950710" lon="-7.712350">
                <time>2019-06-14T16:21:47Z</time>
            </trkpt>
            <trkpt lat="54.950670" lon="-7.712410">
                <time>2019-06-14T16:21:48Z</time>
            </trkpt>
            <trkpt lat="54.950630" lon="-7.712460">
                <time>2019-06-14T16:21:49Z</time>
            </trkpt>
            <trkpt lat="54.950600" lon="-7.712490">
                <time>2019-06-14T16:21:50Z</time>
            </trkpt>
            <trkpt lat="54.950590" lon="-7.712520">
                <time>2019-06-14T16:21:51Z</time>
            </trkpt>
            <trkpt lat="54.950590" lon="-7.712520">
                <time>2019-06-14T16:21:52Z</time>
            </trkpt>
            <trkpt lat="54.950590" lon="-7.712520">
                <time>2019-06-14T16:21:53Z</time>
            </trkpt>
            <trkpt lat="54.950590" lon="-7.712520">
                <time>2019-06-14T16:21:54Z</time>
            </trkpt>
            <trkpt lat="54.950590" lon="-7.712520">
                <time>2019-06-14T16:21:55Z</time>
            </trkpt>
            <trkpt lat="54.950590" lon="-7.712530">
                <time>2019-06-14T16:21:56Z</time>
            </trkpt>
            <trkpt lat="54.950570" lon="-7.712550">
                <time>2019-06-14T16:21:57Z</time>
            </trkpt>
            <trkpt lat="54.950570" lon="-7.712600">
                <time>2019-06-14T16:21:58Z</time>
            </trkpt>
            <trkpt lat="54.950580" lon="-7.712680">
                <time>2019-06-14T16:21:59Z</time>
            </trkpt>
            <trkpt lat="54.950610" lon="-7.712750">
                <time>2019-06-14T16:22:00Z</time>
            </trkpt>
            <trkpt lat="54.950640" lon="-7.712800">
                <time>2019-06-14T16:22:01Z</time>
            </trkpt>
            <trkpt lat="54.950680" lon="-7.712840">
                <time>2019-06-14T16:22:02Z</time>
            </trkpt>
            <trkpt lat="54.950720" lon="-7.712890">
                <time>2019-06-14T16:22:03Z</time>
            </trkpt>
            <trkpt lat="54.950770" lon="-7.712940">
                <time>2019-06-14T16:22:04Z</time>
            </trkpt>
            <trkpt lat="54.950810" lon="-7.713010">
                <time>2019-06-14T16:22:05Z</time>
            </trkpt>
            <trkpt lat="54.950840" lon="-7.713080">
                <time>2019-06-14T16:22:06Z</time>
            </trkpt>
            <trkpt lat="54.950850" lon="-7.713150">
                <time>2019-06-14T16:22:07Z</time>
            </trkpt>
            <trkpt lat="54.950870" lon="-7.713200">
                <time>2019-06-14T16:22:08Z</time>
            </trkpt>
            <trkpt lat="54.950880" lon="-7.713250">
                <time>2019-06-14T16:22:09Z</time>
            </trkpt>
            <trkpt lat="54.950890" lon="-7.713300">
                <time>2019-06-14T16:22:10Z</time>
            </trkpt>
            <trkpt lat="54.950900" lon="-7.713350">
                <time>2019-06-14T16:22:11Z</time>
            </trkpt>
            <trkpt lat="54.950910" lon="-7.713380">
                <time>2019-06-14T16:22:12Z</time>
            </trkpt>
            <trkpt lat="54.950910" lon="-7.713390">
                <time>2019-06-14T16:22:13Z</time>
            </trkpt>
            <trkpt lat="54.950920" lon="-7.713400">
                <time>2019-06-14T16:22:14Z</time>
            </trkpt>
            <trkpt lat="54.950920" lon="-7.713410">
                <time>2019-06-14T16:22:15Z</time>
            </trkpt>
            <trkpt lat="54.950920" lon="-7.713420">
                <time>2019-06-14T16:22:16Z</time>
            </trkpt>
            <trkpt lat="54.950920" lon="-7.713430">
                <time>2019-06-14T16:22:17Z</time>
            </trkpt>
            <trkpt lat="54.950920" lon="-7.713430">
                <time>2019-06-14T16:22:18Z</time>
            </trkpt>
            <trkpt lat="54.950920" lon="-7.713430">
                <time>2019-06-14T16:22:19Z</time>
            </trkpt>
            <trkpt lat="54.950920" lon="-7.713440">
                <time>2019-06-14T16:22:20Z</time>
            </trkpt>
            <trkpt lat="54.950910" lon="-7.713450">
                <time>2019-06-14T16:22:21Z</time>
            </trkpt>
            <trkpt lat="54.950910" lon="-7.713460">
                <time>2019-06-14T16:22:22Z</time>
            </trkpt>
            <trkpt lat="54.950900" lon="-7.713470">
                <time>2019-06-14T16:22:23Z</time>
            </trkpt>
            <trkpt lat="54.950890" lon="-7.713490">
                <time>2019-06-14T16:22:24Z</time>
            </trkpt>
            <trkpt lat="54.950870" lon="-7.713500">
                <time>2019-06-14T16:22:25Z</time>
            </trkpt>
            <trkpt lat="54.950870" lon="-7.713510">
                <time>2019-06-14T16:22:26Z</time>
            </trkpt>
            <trkpt lat="54.950860" lon="-7.713520">
                <time>2019-06-14T16:22:27Z</time>
            </trkpt>
            <trkpt lat="54.950860" lon="-7.713520">
                <time>2019-06-14T16:22:28Z</time>
            </trkpt>
            <trkpt lat="54.950860" lon="-7.713510">
                <time>2019-06-14T16:22:29Z</time>
            </trkpt>
            <trkpt lat="54.950860" lon="-7.713510">
                <time>2019-06-14T16:22:30Z</time>
            </trkpt>
            <trkpt lat="54.950850" lon="-7.713510">
                <time>2019-06-14T16:22:31Z</time>
            </trkpt>
            <trkpt lat="54.950850" lon="-7.713510">
                <time>2019-06-14T16:22:32Z</time>
            </trkpt>
            <trkpt lat="54.950840" lon="-7.713510">
                <time>2019-06-14T16:22:33Z</time>
            </trkpt>
            <trkpt lat="54.950840" lon="-7.713510">
                <time>2019-06-14T16:22:34Z</time>
            </trkpt>
            <trkpt lat="54.950840" lon="-7.713510">
                <time>2019-06-14T16:22:35Z</time>
            </trkpt>
            <trkpt lat="54.950840" lon="-7.713510">
                <time>2019-06-14T16:22:36Z</time>
            </trkpt>
            <trkpt lat="54.950850" lon="-7.713510">
                <time>2019-06-14T16:22:37Z</time>
            </trkpt>
            <trkpt lat="54.950860" lon="-7.713500">
                <time>2019-06-14T16:22:38Z</time>
            </trkpt>
            <trkpt lat="54.950870" lon="-7.713490">
                <time>2019-06-14T16:22:39Z</time>
            </trkpt>
            <trkpt lat="54.950880" lon="-7.713480">
                <time>2019-06-14T16:22:40Z</time>
            </trkpt>
            <trkpt lat="54.950880" lon="-7.713470">
                <time>2019-06-14T16:22:41Z</time>
            </trkpt>
            <trkpt lat="54.950890" lon="-7.713450">
                <time>2019-06-14T16:22:42Z</time>
            </trkpt>
            <trkpt lat="54.950890" lon="-7.713440">
                <time>2019-06-14T16:22:43Z</time>
            </trkpt>
            <trkpt lat="54.950890" lon="-7.713430">
                <time>2019-06-14T16:22:44Z</time>
            </trkpt>
            <trkpt lat="54.950890" lon="-7.713410">
                <time>2019-06-14T16:22:45Z</time>
            </trkpt>
            <trkpt lat="54.950890" lon="-7.713400">
                <time>2019-06-14T16:22:46Z</time>
            </trkpt>
            <trkpt lat="54.950890" lon="-7.713390">
                <time>2019-06-14T16:22:47Z</time>
            </trkpt>
            <trkpt lat="54.950900" lon="-7.713380">
                <time>2019-06-14T16:22:48Z</time>
            </trkpt>
            <trkpt lat="54.950920" lon="-7.713380">
                <time>2019-06-14T16:22:49Z</time>
            </trkpt>
            <trkpt lat="54.950940" lon="-7.713410">
                <time>2019-06-14T16:22:50Z</time>
            </trkpt>
            <trkpt lat="54.950950" lon="-7.713440">
                <time>2019-06-14T16:22:51Z</time>
            </trkpt>
            <trkpt lat="54.950960" lon="-7.713460">
                <time>2019-06-14T16:22:52Z</time>
            </trkpt>
            <trkpt lat="54.950970" lon="-7.713490">
                <time>2019-06-14T16:22:53Z</time>
            </trkpt>
            <trkpt lat="54.950980" lon="-7.713510">
                <time>2019-06-14T16:22:54Z</time>
            </trkpt>
            <trkpt lat="54.950990" lon="-7.713530">
                <time>2019-06-14T16:22:55Z</time>
            </trkpt>
            <trkpt lat="54.951000" lon="-7.713550">
                <time>2019-06-14T16:22:56Z</time>
            </trkpt>
            <trkpt lat="54.951010" lon="-7.713570">
                <time>2019-06-14T16:22:57Z</time>
            </trkpt>
            <trkpt lat="54.951020" lon="-7.713580">
                <time>2019-06-14T16:22:58Z</time>
            </trkpt>
            <trkpt lat="54.951040" lon="-7.713600">
                <time>2019-06-14T16:22:59Z</time>
            </trkpt>
            <trkpt lat="54.951070" lon="-7.713610">
                <time>2019-06-14T16:23:00Z</time>
            </trkpt>
            <trkpt lat="54.951100" lon="-7.713610">
                <time>2019-06-14T16:23:01Z</time>
            </trkpt>
            <trkpt lat="54.951130" lon="-7.713610">
                <time>2019-06-14T16:23:02Z</time>
            </trkpt>
            <trkpt lat="54.951150" lon="-7.713600">
                <time>2019-06-14T16:23:03Z</time>
            </trkpt>
            <trkpt lat="54.951180" lon="-7.713590">
                <time>2019-06-14T16:23:04Z</time>
            </trkpt>
            <trkpt lat="54.951200" lon="-7.713560">
                <time>2019-06-14T16:23:05Z</time>
            </trkpt>
            <trkpt lat="54.951220" lon="-7.713530">
                <time>2019-06-14T16:23:06Z</time>
            </trkpt>
            <trkpt lat="54.951240" lon="-7.713520">
                <time>2019-06-14T16:23:07Z</time>
            </trkpt>
            <trkpt lat="54.951250" lon="-7.713520">
                <time>2019-06-14T16:23:08Z</time>
            </trkpt>
            <trkpt lat="54.951260" lon="-7.713530">
                <time>2019-06-14T16:23:09Z</time>
            </trkpt>
            <trkpt lat="54.951270" lon="-7.713530">
                <time>2019-06-14T16:23:10Z</time>
            </trkpt>
            <trkpt lat="54.951270" lon="-7.713530">
                <time>2019-06-14T16:23:11Z</time>
            </trkpt>
        </trkseg>
    </trk>
</gpx>
